<?xml version='1.0' encoding='UTF-8'?><gpx version="1.1" creator="JPX - https://github.com/jenetics/jpx" xmlns="http://www.topografix.com/GPX/1/1"><trk><trkseg><trkpt lat="42.52166337141292" lon="14.152435915673792"><ele>-0.8333333333333333</ele><time>2026-05-01T06:51:45Z</time></trkpt><trkpt lat="42.521602732944004" lon="14.152360244870062"><ele>-0.6666666666666666</ele><time>2026-05-01T06:51:47Z</time></trkpt><trkpt lat="42.52160859775645" lon="14.152259170175821"><ele>-0.5</ele><time>2026-05-01T06:51:49Z</time></trkpt><trkpt lat="42.521627851498494" lon="14.152139621898392"><ele>-0.3333333333333333</ele><time>2026-05-01T06:51:51Z</time></trkpt><trkpt lat="42.521686173450966" lon="14.152082706042242"><ele>-0.16666666666666666</ele><time>2026-05-01T06:51:53Z</time></trkpt><trkpt lat="42.52173354666243" lon="14.152019111694909"><ele>0.0</ele><time>2026-05-01T06:51:56Z</time></trkpt><trkpt lat="42.52179501342292" lon="14.152132002222992"><ele>0.0</ele><time>2026-05-01T06:51:59.999Z</time></trkpt><trkpt lat="42.5218227672363" lon="14.152222015342854"><ele>0.0</ele><time>2026-05-01T06:52:01.999Z</time></trkpt><trkpt lat="42.52187495055797" lon="14.152278162746871"><ele>0.0</ele><time>2026-05-01T06:52:04.999Z</time></trkpt><trkpt lat="42.52192810537872" lon="14.152360066617218"><ele>0.0</ele><time>2026-05-01T06:52:10.999Z</time></trkpt><trkpt lat="42.52196703341067" lon="14.152479633985273"><ele>0.0</ele><time>2026-05-01T06:56:21.999Z</time></trkpt><trkpt lat="42.522013601967686" lon="14.152617953751369"><ele>0.0</ele><time>2026-05-01T06:58:58.999Z</time></trkpt><trkpt lat="42.52206573319224" lon="14.152754856379042"><ele>0.4</ele><time>2026-05-01T06:59:48Z</time></trkpt><trkpt lat="42.522105244365875" lon="14.15284534330534"><ele>0.8</ele><time>2026-05-01T06:59:49Z</time></trkpt><trkpt lat="42.52214255497745" lon="14.152930621429071"><ele>1.2000000000000002</ele><time>2026-05-01T06:59:50Z</time></trkpt><trkpt lat="42.522198433866556" lon="14.153069759640964"><ele>1.6</ele><time>2026-05-01T06:59:52Z</time></trkpt><trkpt lat="42.52224375035397" lon="14.15314970718183"><ele>2.0</ele><time>2026-05-01T06:59:54Z</time></trkpt><trkpt lat="42.5223630888431" lon="14.153144615694764"><ele>2.0</ele><time>2026-05-01T06:59:57Z</time></trkpt><trkpt lat="42.52237878107727" lon="14.153047134667325"><ele>2.0</ele><time>2026-05-01T06:59:58Z</time></trkpt><trkpt lat="42.522446850796285" lon="14.152973121674284"><ele>2.0</ele><time>2026-05-01T07:00:00Z</time></trkpt><trkpt lat="42.522572220699374" lon="14.152964091417383"><ele>2.0</ele><time>2026-05-01T07:00:02Z</time></trkpt><trkpt lat="42.52265577722519" lon="14.152891511597177"><ele>2.0</ele><time>2026-05-01T07:00:04Z</time></trkpt><trkpt lat="42.52257987216754" lon="14.152957445270035"><ele>2.0</ele><time>2026-05-01T07:00:19Z</time></trkpt><trkpt lat="42.522514974229594" lon="14.153013817685142"><ele>2.0</ele><time>2026-05-01T07:00:19.999Z</time></trkpt><trkpt lat="42.52245117010991" lon="14.153069240739116"><ele>2.0</ele><time>2026-05-01T07:00:20.999Z</time></trkpt><trkpt lat="42.52235472789486" lon="14.153269318489828"><ele>2.0</ele><time>2026-05-01T07:00:21.999Z</time></trkpt><trkpt lat="42.52226269959955" lon="14.153346250916233"><ele>2.0</ele><time>2026-05-01T07:00:22.999Z</time></trkpt><trkpt lat="42.52217751016554" lon="14.153406936587693"><ele>1.9999999999999998</ele><time>2026-05-01T07:00:23.999Z</time></trkpt><trkpt lat="42.52210695586669" lon="14.153459963330949"><ele>2.0</ele><time>2026-05-01T07:00:24.999Z</time></trkpt><trkpt lat="42.52205197935398" lon="14.15355328212274"><ele>2.0</ele><time>2026-05-01T07:00:25.999Z</time></trkpt><trkpt lat="42.521974637401726" lon="14.15362582850643"><ele>2.0</ele><time>2026-05-01T07:00:27.999Z</time></trkpt><trkpt lat="42.5219009118223" lon="14.1536828521108"><ele>1.9999999999999998</ele><time>2026-05-01T07:00:49.999Z</time></trkpt><trkpt lat="42.521870161295645" lon="14.153771350060524"><ele>2.0</ele><time>2026-05-01T07:00:51.999Z</time></trkpt><trkpt lat="42.52188838961139" lon="14.153862375552787"><ele>1.8</ele><time>2026-05-01T07:00:53.999Z</time></trkpt><trkpt lat="42.521956726614455" lon="14.154036626327594"><ele>1.6</ele><time>2026-05-01T07:00:58.999Z</time></trkpt><trkpt lat="42.521994526535096" lon="14.154121976615533"><ele>1.4000000000000001</ele><time>2026-05-01T07:00:59.999Z</time></trkpt><trkpt lat="42.52202587209838" lon="14.154240207721305"><ele>1.2000000000000002</ele><time>2026-05-01T07:01:00.999Z</time></trkpt><trkpt lat="42.522071528800076" lon="14.154388473209554"><ele>1.0</ele><time>2026-05-01T07:01:01.999Z</time></trkpt><trkpt lat="42.52211490056705" lon="14.154563607506871"><ele>2.75</ele><time>2026-05-01T07:01:02.999Z</time></trkpt><trkpt lat="42.52214612379755" lon="14.154751285234937"><ele>4.5</ele><time>2026-05-01T07:01:03.999Z</time></trkpt><trkpt lat="42.52216084718334" lon="14.154909578367876"><ele>6.25</ele><time>2026-05-01T07:01:04.999Z</time></trkpt><trkpt lat="42.522166364513794" lon="14.1550499247834"><ele>8.0</ele><time>2026-05-01T07:01:05.999Z</time></trkpt><trkpt lat="42.522157560077254" lon="14.155180967483826"><ele>8.600000000000001</ele><time>2026-05-01T07:01:06.999Z</time></trkpt><trkpt lat="42.52214217785919" lon="14.155314088614567"><ele>9.200000000000001</ele><time>2026-05-01T07:01:07.999Z</time></trkpt><trkpt lat="42.52212479507252" lon="14.155448864802098"><ele>9.8</ele><time>2026-05-01T07:01:08.999Z</time></trkpt><trkpt lat="42.52210630602298" lon="14.155574128328016"><ele>10.4</ele><time>2026-05-01T07:01:09.999Z</time></trkpt><trkpt lat="42.52208497943891" lon="14.15568509883284"><ele>11.0</ele><time>2026-05-01T07:01:10.999Z</time></trkpt><trkpt lat="42.52206040680766" lon="14.155788687778227"><ele>9.666666666666666</ele><time>2026-05-01T07:01:11.999Z</time></trkpt><trkpt lat="42.52203808143811" lon="14.155889350101624"><ele>8.333333333333332</ele><time>2026-05-01T07:01:12.999Z</time></trkpt><trkpt lat="42.5220080085846" lon="14.155983066225804"><ele>7.0</ele><time>2026-05-01T07:01:13.998Z</time></trkpt><trkpt lat="42.521972641142014" lon="14.156059680164352"><ele>5.666666666666666</ele><time>2026-05-01T07:01:14.998Z</time></trkpt><trkpt lat="42.521933164038835" lon="14.156152441460785"><ele>4.333333333333333</ele><time>2026-05-01T07:01:15.998Z</time></trkpt><trkpt lat="42.52190038445996" lon="14.156244087614285"><ele>3.0</ele><time>2026-05-01T07:01:16.998Z</time></trkpt><trkpt lat="42.5218513542179" lon="14.156325336681325"><ele>3.0</ele><time>2026-05-01T07:01:17.998Z</time></trkpt><trkpt lat="42.52176825983981" lon="14.156467581906307"><ele>3.0</ele><time>2026-05-01T07:01:19.998Z</time></trkpt><trkpt lat="42.5217149429324" lon="14.156551642441048"><ele>3.0</ele><time>2026-05-01T07:01:20.998Z</time></trkpt><trkpt lat="42.52166095935758" lon="14.156608964812849"><ele>3.0</ele><time>2026-05-01T07:01:21.998Z</time></trkpt><trkpt lat="42.52161073464275" lon="14.156669274392572"><ele>3.0</ele><time>2026-05-01T07:01:22.998Z</time></trkpt><trkpt lat="42.52155774446154" lon="14.156736879497753"><ele>3.0</ele><time>2026-05-01T07:01:23.998Z</time></trkpt><trkpt lat="42.52150125533143" lon="14.156801928988694"><ele>3.0</ele><time>2026-05-01T07:01:24.998Z</time></trkpt><trkpt lat="42.52144389898763" lon="14.156859802901732"><ele>3.0</ele><time>2026-05-01T07:01:25.998Z</time></trkpt><trkpt lat="42.52138779187458" lon="14.156915377322983"><ele>3.0</ele><time>2026-05-01T07:01:26.998Z</time></trkpt><trkpt lat="42.52132941087734" lon="14.15697455519787"><ele>3.0</ele><time>2026-05-01T07:01:27.998Z</time></trkpt><trkpt lat="42.5212708738863" lon="14.157037929480756"><ele>3.0</ele><time>2026-05-01T07:01:28.998Z</time></trkpt><trkpt lat="42.52120459534057" lon="14.15710208378347"><ele>3.0</ele><time>2026-05-01T07:01:29.998Z</time></trkpt><trkpt lat="42.52113810434044" lon="14.157174790565865"><ele>3.0</ele><time>2026-05-01T07:01:30.998Z</time></trkpt><trkpt lat="42.521071575853206" lon="14.157247161995905"><ele>3.0</ele><time>2026-05-01T07:01:31.998Z</time></trkpt><trkpt lat="42.52100692677559" lon="14.15731508873258"><ele>3.0</ele><time>2026-05-01T07:01:32.998Z</time></trkpt><trkpt lat="42.52093571134811" lon="14.157367903514794"><ele>3.0</ele><time>2026-05-01T07:01:33.998Z</time></trkpt><trkpt lat="42.52087161622398" lon="14.157451002910614"><ele>3.0</ele><time>2026-05-01T07:01:34.998Z</time></trkpt><trkpt lat="42.5208059983007" lon="14.157521261530727"><ele>3.0</ele><time>2026-05-01T07:01:35.998Z</time></trkpt><trkpt lat="42.520736812546005" lon="14.157595630911835"><ele>3.0</ele><time>2026-05-01T07:01:36.998Z</time></trkpt><trkpt lat="42.52066805868482" lon="14.157707815072797"><ele>3.0</ele><time>2026-05-01T07:01:37.998Z</time></trkpt><trkpt lat="42.52059624123" lon="14.157761344229053"><ele>3.0</ele><time>2026-05-01T07:01:38.998Z</time></trkpt><trkpt lat="42.520517193667594" lon="14.157838289424792"><ele>3.0</ele><time>2026-05-01T07:01:39.998Z</time></trkpt><trkpt lat="42.520440641257075" lon="14.15792915024967"><ele>3.0</ele><time>2026-05-01T07:01:40.998Z</time></trkpt><trkpt lat="42.52035249941288" lon="14.158022116424902"><ele>3.0</ele><time>2026-05-01T07:01:41.998Z</time></trkpt><trkpt lat="42.52026519658907" lon="14.158128789745323"><ele>3.0</ele><time>2026-05-01T07:01:42.998Z</time></trkpt><trkpt lat="42.520171445038415" lon="14.15823451525921"><ele>3.0</ele><time>2026-05-01T07:01:43.998Z</time></trkpt><trkpt lat="42.52007315964525" lon="14.158335518667773"><ele>3.0</ele><time>2026-05-01T07:01:44.998Z</time></trkpt><trkpt lat="42.5199744272379" lon="14.158433866860472"><ele>3.0</ele><time>2026-05-01T07:01:45.998Z</time></trkpt><trkpt lat="42.51987873264546" lon="14.158532096064196"><ele>3.0</ele><time>2026-05-01T07:01:46.998Z</time></trkpt><trkpt lat="42.51979234137557" lon="14.158623849114061"><ele>3.0</ele><time>2026-05-01T07:01:47.999Z</time></trkpt><trkpt lat="42.51971059575633" lon="14.158709497547495"><ele>3.0</ele><time>2026-05-01T07:01:48.999Z</time></trkpt><trkpt lat="42.51963581183097" lon="14.158783524017155"><ele>3.0</ele><time>2026-05-01T07:01:49.999Z</time></trkpt><trkpt lat="42.519564497544565" lon="14.15885712687035"><ele>2.75</ele><time>2026-05-01T07:01:50.999Z</time></trkpt><trkpt lat="42.51948354491936" lon="14.158942781056234"><ele>2.5</ele><time>2026-05-01T07:01:51.999Z</time></trkpt><trkpt lat="42.519397235307366" lon="14.159035059879919"><ele>2.25</ele><time>2026-05-01T07:01:52.999Z</time></trkpt><trkpt lat="42.51930238212444" lon="14.159138442062742"><ele>2.0</ele><time>2026-05-01T07:01:53.999Z</time></trkpt><trkpt lat="42.51919609114645" lon="14.159247239081585"><ele>2.0</ele><time>2026-05-01T07:01:54.999Z</time></trkpt><trkpt lat="42.51909017247234" lon="14.159356648027302"><ele>2.0</ele><time>2026-05-01T07:01:55.999Z</time></trkpt><trkpt lat="42.51898433042243" lon="14.159474076024326"><ele>2.0</ele><time>2026-05-01T07:01:56.999Z</time></trkpt><trkpt lat="42.518880043061046" lon="14.159587600525946"><ele>2.0</ele><time>2026-05-01T07:01:57.999Z</time></trkpt><trkpt lat="42.51877187635028" lon="14.15969600708892"><ele>1.75</ele><time>2026-05-01T07:01:58.999Z</time></trkpt><trkpt lat="42.51867584206748" lon="14.159802440486724"><ele>1.5</ele><time>2026-05-01T07:01:59.999Z</time></trkpt><trkpt lat="42.51858403518284" lon="14.159908202764564"><ele>1.25</ele><time>2026-05-01T07:02:00.999Z</time></trkpt><trkpt lat="42.51849131188048" lon="14.160012336274546"><ele>1.0</ele><time>2026-05-01T07:02:01.999Z</time></trkpt><trkpt lat="42.51838892802667" lon="14.16011357770463"><ele>0.5</ele><time>2026-05-01T07:02:02.999Z</time></trkpt><trkpt lat="42.518292901992666" lon="14.160213518972911"><ele>0.0</ele><time>2026-05-01T07:02:03.999Z</time></trkpt><trkpt lat="42.51820237461371" lon="14.160314181357595"><ele>-0.5</ele><time>2026-05-01T07:02:04.999Z</time></trkpt><trkpt lat="42.518110453054156" lon="14.160414309507175"><ele>-1.0</ele><time>2026-05-01T07:02:05.999Z</time></trkpt><trkpt lat="42.518011337911894" lon="14.160524290691503"><ele>-1.0</ele><time>2026-05-01T07:02:06.999Z</time></trkpt><trkpt lat="42.51791667865154" lon="14.160629201896324"><ele>-1.0</ele><time>2026-05-01T07:02:07.999Z</time></trkpt><trkpt lat="42.5178241866216" lon="14.1607308874402"><ele>-1.0</ele><time>2026-05-01T07:02:08.999Z</time></trkpt><trkpt lat="42.51772799556013" lon="14.160827083742213"><ele>-1.0</ele><time>2026-05-01T07:02:09.999Z</time></trkpt><trkpt lat="42.51763176718289" lon="14.160932591429292"><ele>0.0</ele><time>2026-05-01T07:02:10.999Z</time></trkpt><trkpt lat="42.517533266002076" lon="14.161035626203047"><ele>1.0</ele><time>2026-05-01T07:02:11.999Z</time></trkpt><trkpt lat="42.51743946434199" lon="14.161136628859854"><ele>2.0</ele><time>2026-05-01T07:02:12.999Z</time></trkpt><trkpt lat="42.51734848266162" lon="14.161234650759878"><ele>3.0</ele><time>2026-05-01T07:02:13.999Z</time></trkpt><trkpt lat="42.51725918579683" lon="14.161327555983739"><ele>3.0</ele><time>2026-05-01T07:02:14.999Z</time></trkpt><trkpt lat="42.51718266796748" lon="14.161414328641474"><ele>3.0</ele><time>2026-05-01T07:02:15.999Z</time></trkpt><trkpt lat="42.517100007479876" lon="14.161497271989482"><ele>3.0</ele><time>2026-05-01T07:02:16.999Z</time></trkpt><trkpt lat="42.51701725657243" lon="14.161584593139159"><ele>3.0</ele><time>2026-05-01T07:02:17.999Z</time></trkpt><trkpt lat="42.51692912631367" lon="14.161685685905045"><ele>3.0</ele><time>2026-05-01T07:02:18.999Z</time></trkpt><trkpt lat="42.51683743579935" lon="14.161784049319628"><ele>3.25</ele><time>2026-05-01T07:02:19.999Z</time></trkpt><trkpt lat="42.516746077714515" lon="14.161884459703474"><ele>3.5</ele><time>2026-05-01T07:02:20.999Z</time></trkpt><trkpt lat="42.516650842148486" lon="14.161981311003602"><ele>3.75</ele><time>2026-05-01T07:02:21.999Z</time></trkpt><trkpt lat="42.516555087521795" lon="14.162077823928042"><ele>4.0</ele><time>2026-05-01T07:02:22.999Z</time></trkpt><trkpt lat="42.51646495529548" lon="14.162169796845378"><ele>4.0</ele><time>2026-05-01T07:02:23.999Z</time></trkpt><trkpt lat="42.516377296747244" lon="14.162264559505818"><ele>4.0</ele><time>2026-05-01T07:02:24.999Z</time></trkpt><trkpt lat="42.51628358575759" lon="14.162363664294631"><ele>4.0</ele><time>2026-05-01T07:02:25.999Z</time></trkpt><trkpt lat="42.51619458159398" lon="14.16246034157494"><ele>4.0</ele><time>2026-05-01T07:02:26.999Z</time></trkpt><trkpt lat="42.51610066947653" lon="14.162551143686109"><ele>4.0</ele><time>2026-05-01T07:02:27.999Z</time></trkpt><trkpt lat="42.51600144997977" lon="14.162665480150801"><ele>4.0</ele><time>2026-05-01T07:02:28.999Z</time></trkpt><trkpt lat="42.51590619015764" lon="14.162775958962511"><ele>4.0</ele><time>2026-05-01T07:02:29.999Z</time></trkpt><trkpt lat="42.51580981584579" lon="14.162874376965407"><ele>4.0</ele><time>2026-05-01T07:02:30.999Z</time></trkpt><trkpt lat="42.51571356608754" lon="14.162976127581215"><ele>4.0</ele><time>2026-05-01T07:02:31.999Z</time></trkpt><trkpt lat="42.515619356738554" lon="14.16307963369565"><ele>4.0</ele><time>2026-05-01T07:02:32.999Z</time></trkpt><trkpt lat="42.51551919976687" lon="14.163177117572976"><ele>4.0</ele><time>2026-05-01T07:02:33.999Z</time></trkpt><trkpt lat="42.51542159121929" lon="14.163275813836222"><ele>4.0</ele><time>2026-05-01T07:02:34.999Z</time></trkpt><trkpt lat="42.51531583714251" lon="14.163363485563108"><ele>3.5</ele><time>2026-05-01T07:02:35.999Z</time></trkpt><trkpt lat="42.515232184804" lon="14.163480899371377"><ele>3.0</ele><time>2026-05-01T07:02:36.999Z</time></trkpt><trkpt lat="42.51513266149657" lon="14.16358133512092"><ele>2.5</ele><time>2026-05-01T07:02:37.999Z</time></trkpt><trkpt lat="42.51503461990152" lon="14.16368419976802"><ele>2.0</ele><time>2026-05-01T07:02:38.999Z</time></trkpt><trkpt lat="42.51493837655658" lon="14.163797592376588"><ele>2.0</ele><time>2026-05-01T07:02:39.999Z</time></trkpt><trkpt lat="42.51483810743037" lon="14.163901350176179"><ele>2.0</ele><time>2026-05-01T07:02:40.999Z</time></trkpt><trkpt lat="42.514737534638975" lon="14.164002622493243"><ele>2.0</ele><time>2026-05-01T07:02:41.999Z</time></trkpt><trkpt lat="42.514635612878834" lon="14.164108609877141"><ele>2.0</ele><time>2026-05-01T07:02:42.999Z</time></trkpt><trkpt lat="42.51453756235579" lon="14.164219293694295"><ele>1.75</ele><time>2026-05-01T07:02:43.999Z</time></trkpt><trkpt lat="42.51443940756994" lon="14.164326325607574"><ele>1.5</ele><time>2026-05-01T07:02:44.999Z</time></trkpt><trkpt lat="42.51434056894691" lon="14.164436943506123"><ele>1.25</ele><time>2026-05-01T07:02:45.999Z</time></trkpt><trkpt lat="42.51424109245501" lon="14.164545559768412"><ele>1.0</ele><time>2026-05-01T07:02:46.999Z</time></trkpt><trkpt lat="42.51413840378329" lon="14.164648189772876"><ele>1.0</ele><time>2026-05-01T07:02:47.999Z</time></trkpt><trkpt lat="42.51404461390481" lon="14.164758701383473"><ele>1.0</ele><time>2026-05-01T07:02:48.999Z</time></trkpt><trkpt lat="42.51394509645579" lon="14.16486586059544"><ele>1.0</ele><time>2026-05-01T07:02:49.999Z</time></trkpt><trkpt lat="42.513846577151156" lon="14.164968521495538"><ele>1.0</ele><time>2026-05-01T07:02:50.999Z</time></trkpt><trkpt lat="42.51374691003847" lon="14.165070793115504"><ele>1.25</ele><time>2026-05-01T07:02:51.999Z</time></trkpt><trkpt lat="42.513647140087215" lon="14.165180006126988"><ele>1.5</ele><time>2026-05-01T07:02:52.999Z</time></trkpt><trkpt lat="42.51354992475921" lon="14.16528295483218"><ele>1.75</ele><time>2026-05-01T07:02:53.999Z</time></trkpt><trkpt lat="42.513462441179286" lon="14.165377150380591"><ele>2.0</ele><time>2026-05-01T07:02:54.999Z</time></trkpt><trkpt lat="42.513379767345285" lon="14.165467260181654"><ele>2.0</ele><time>2026-05-01T07:02:55.999Z</time></trkpt><trkpt lat="42.51328878467458" lon="14.165561764485705"><ele>2.0</ele><time>2026-05-01T07:02:56.999Z</time></trkpt><trkpt lat="42.51319511938897" lon="14.165669067526162"><ele>2.0</ele><time>2026-05-01T07:02:57.999Z</time></trkpt><trkpt lat="42.51309105112637" lon="14.165768004231232"><ele>2.0</ele><time>2026-05-01T07:02:58.999Z</time></trkpt><trkpt lat="42.51299529203755" lon="14.165835312925418"><ele>2.0</ele><time>2026-05-01T07:02:59.999Z</time></trkpt><trkpt lat="42.51292431170703" lon="14.165961464053241"><ele>2.0</ele><time>2026-05-01T07:03:00.999Z</time></trkpt><trkpt lat="42.51284165579436" lon="14.166049333120116"><ele>2.0</ele><time>2026-05-01T07:03:01.999Z</time></trkpt><trkpt lat="42.512768480555636" lon="14.166130685504033"><ele>2.0</ele><time>2026-05-01T07:03:02.999Z</time></trkpt><trkpt lat="42.51270318371999" lon="14.166199179277736"><ele>2.0</ele><time>2026-05-01T07:03:03.998Z</time></trkpt><trkpt lat="42.512644587164644" lon="14.166263639671683"><ele>2.0</ele><time>2026-05-01T07:03:04.998Z</time></trkpt><trkpt lat="42.51259116176044" lon="14.166318797459507"><ele>2.0</ele><time>2026-05-01T07:03:05.998Z</time></trkpt><trkpt lat="42.51249242257179" lon="14.166419316351767"><ele>2.0</ele><time>2026-05-01T07:03:07.998Z</time></trkpt><trkpt lat="42.512427323171934" lon="14.166481106221475"><ele>2.0</ele><time>2026-05-01T07:03:08.998Z</time></trkpt><trkpt lat="42.51236831798437" lon="14.166545189916988"><ele>2.0</ele><time>2026-05-01T07:03:09.998Z</time></trkpt><trkpt lat="42.51226196063629" lon="14.166669021502774"><ele>2.0</ele><time>2026-05-01T07:03:11.998Z</time></trkpt><trkpt lat="42.512177923064904" lon="14.166763077732663"><ele>2.0</ele><time>2026-05-01T07:03:12.998Z</time></trkpt><trkpt lat="42.51210108157018" lon="14.166846121997883"><ele>2.0</ele><time>2026-05-01T07:03:13.998Z</time></trkpt><trkpt lat="42.51200137463332" lon="14.166958041382715"><ele>2.0</ele><time>2026-05-01T07:03:14.998Z</time></trkpt><trkpt lat="42.51190408370804" lon="14.167062838318996"><ele>2.0</ele><time>2026-05-01T07:03:15.998Z</time></trkpt><trkpt lat="42.51181307773203" lon="14.167154297369164"><ele>2.0</ele><time>2026-05-01T07:03:16.998Z</time></trkpt><trkpt lat="42.51172599416221" lon="14.167244852164277"><ele>2.0</ele><time>2026-05-01T07:03:17.998Z</time></trkpt><trkpt lat="42.511638548047024" lon="14.167336580985237"><ele>2.0</ele><time>2026-05-01T07:03:18.998Z</time></trkpt><trkpt lat="42.51155943067566" lon="14.167418769130139"><ele>2.0</ele><time>2026-05-01T07:03:19.998Z</time></trkpt><trkpt lat="42.5114826135368" lon="14.16748838878572"><ele>2.0</ele><time>2026-05-01T07:03:20.998Z</time></trkpt><trkpt lat="42.511407707956444" lon="14.167571670035473"><ele>2.0</ele><time>2026-05-01T07:03:21.998Z</time></trkpt><trkpt lat="42.51132903056187" lon="14.167652778094787"><ele>2.0</ele><time>2026-05-01T07:03:22.998Z</time></trkpt><trkpt lat="42.51125541023113" lon="14.167728700167144"><ele>2.0</ele><time>2026-05-01T07:03:23.998Z</time></trkpt><trkpt lat="42.51118390081743" lon="14.16781133288767"><ele>2.0</ele><time>2026-05-01T07:03:24.998Z</time></trkpt><trkpt lat="42.51111548307075" lon="14.167892766524282"><ele>1.9999999999999998</ele><time>2026-05-01T07:03:25.998Z</time></trkpt><trkpt lat="42.51104572347208" lon="14.167964656082557"><ele>2.0</ele><time>2026-05-01T07:03:26.998Z</time></trkpt><trkpt lat="42.51098576909449" lon="14.168030281510749"><ele>2.0</ele><time>2026-05-01T07:03:27.998Z</time></trkpt><trkpt lat="42.51092798320899" lon="14.16808921085281"><ele>2.0</ele><time>2026-05-01T07:03:28.998Z</time></trkpt><trkpt lat="42.510858869564345" lon="14.168165600074085"><ele>1.9999999999999998</ele><time>2026-05-01T07:03:29.998Z</time></trkpt><trkpt lat="42.510784904707585" lon="14.168240280995489"><ele>2.0</ele><time>2026-05-01T07:03:30.998Z</time></trkpt><trkpt lat="42.51071605582938" lon="14.168311282199145"><ele>1.9999999999999998</ele><time>2026-05-01T07:03:31.998Z</time></trkpt><trkpt lat="42.51064185825217" lon="14.168387453761717"><ele>2.0</ele><time>2026-05-01T07:03:32.998Z</time></trkpt><trkpt lat="42.51056416173582" lon="14.168469849881182"><ele>2.0</ele><time>2026-05-01T07:03:33.998Z</time></trkpt><trkpt lat="42.51049338919145" lon="14.168546483086438"><ele>2.0</ele><time>2026-05-01T07:03:34.998Z</time></trkpt><trkpt lat="42.51043018200862" lon="14.168618164021508"><ele>1.9999999999999998</ele><time>2026-05-01T07:03:35.998Z</time></trkpt><trkpt lat="42.51037229863305" lon="14.168684822304506"><ele>2.0</ele><time>2026-05-01T07:03:36.998Z</time></trkpt><trkpt lat="42.51031079555781" lon="14.168748341436652"><ele>1.8</ele><time>2026-05-01T07:03:37.998Z</time></trkpt><trkpt lat="42.51025229511004" lon="14.168805092483007"><ele>1.6</ele><time>2026-05-01T07:03:38.998Z</time></trkpt><trkpt lat="42.5101529938292" lon="14.168897231942367"><ele>1.4000000000000001</ele><time>2026-05-01T07:03:40.998Z</time></trkpt><trkpt lat="42.510054929662594" lon="14.168948905946102"><ele>1.2000000000000002</ele><time>2026-05-01T07:03:42.998Z</time></trkpt><trkpt lat="42.50993247898375" lon="14.16898089010938"><ele>1.0</ele><time>2026-05-01T07:03:44.998Z</time></trkpt><trkpt lat="42.509852178140726" lon="14.168940135790852"><ele>1.0</ele><time>2026-05-01T07:03:45.998Z</time></trkpt><trkpt lat="42.5098117830005" lon="14.168776012814476"><ele>1.0</ele><time>2026-05-01T07:03:46.998Z</time></trkpt><trkpt lat="42.50974078315804" lon="14.168664067747502"><ele>1.0</ele><time>2026-05-01T07:03:47.998Z</time></trkpt><trkpt lat="42.509670443020475" lon="14.168553318800367"><ele>1.0</ele><time>2026-05-01T07:03:48.998Z</time></trkpt><trkpt lat="42.509581392412564" lon="14.16844612617172"><ele>1.25</ele><time>2026-05-01T07:03:49.998Z</time></trkpt><trkpt lat="42.50950700358488" lon="14.168312129971895"><ele>1.5</ele><time>2026-05-01T07:03:50.998Z</time></trkpt><trkpt lat="42.509419398643466" lon="14.168170373619084"><ele>1.75</ele><time>2026-05-01T07:03:51.998Z</time></trkpt><trkpt lat="42.5093292802147" lon="14.168048782270379"><ele>2.0</ele><time>2026-05-01T07:03:52.998Z</time></trkpt><trkpt lat="42.50925870660767" lon="14.167905050211642"><ele>2.25</ele><time>2026-05-01T07:03:53.998Z</time></trkpt><trkpt lat="42.50916483060394" lon="14.167788479885745"><ele>2.5</ele><time>2026-05-01T07:03:54.998Z</time></trkpt><trkpt lat="42.509098013757026" lon="14.167650865808655"><ele>2.75</ele><time>2026-05-01T07:03:55.998Z</time></trkpt><trkpt lat="42.50903760418281" lon="14.167555356826723"><ele>3.0</ele><time>2026-05-01T07:03:56.998Z</time></trkpt><trkpt lat="42.50894219558747" lon="14.167404513493647"><ele>3.0</ele><time>2026-05-01T07:03:57.998Z</time></trkpt><trkpt lat="42.50886151769246" lon="14.167276533460317"><ele>3.0</ele><time>2026-05-01T07:03:58.998Z</time></trkpt><trkpt lat="42.508785950136" lon="14.167156093586199"><ele>3.0</ele><time>2026-05-01T07:03:59.998Z</time></trkpt><trkpt lat="42.508712313600874" lon="14.16703873144338"><ele>3.0</ele><time>2026-05-01T07:04:00.998Z</time></trkpt><trkpt lat="42.50863325661215" lon="14.166912730158378"><ele>2.75</ele><time>2026-05-01T07:04:01.998Z</time></trkpt><trkpt lat="42.50855355158734" lon="14.166785142603468"><ele>2.5</ele><time>2026-05-01T07:04:02.998Z</time></trkpt><trkpt lat="42.50847551679757" lon="14.166661301797673"><ele>2.25</ele><time>2026-05-01T07:04:03.998Z</time></trkpt><trkpt lat="42.50839385052018" lon="14.16653230928889"><ele>2.0</ele><time>2026-05-01T07:04:04.998Z</time></trkpt><trkpt lat="42.50831739114329" lon="14.16641170565583"><ele>2.5</ele><time>2026-05-01T07:04:05.999Z</time></trkpt><trkpt lat="42.50826236952836" lon="14.166324941684932"><ele>3.0</ele><time>2026-05-01T07:04:06.999Z</time></trkpt><trkpt lat="42.50822066938301" lon="14.166259184436361"><ele>3.5</ele><time>2026-05-01T07:04:07.999Z</time></trkpt><trkpt lat="42.508152955347654" lon="14.166152405701357"><ele>4.0</ele><time>2026-05-01T07:04:09.999Z</time></trkpt><trkpt lat="42.508110171218895" lon="14.166084938096516"><ele>4.5</ele><time>2026-05-01T07:04:10.999Z</time></trkpt><trkpt lat="42.50805938262891" lon="14.166006824732095"><ele>5.0</ele><time>2026-05-01T07:04:11.999Z</time></trkpt><trkpt lat="42.50799974562904" lon="14.165914466434211"><ele>5.0</ele><time>2026-05-01T07:04:12.999Z</time></trkpt><trkpt lat="42.5079303662609" lon="14.1658070203278"><ele>5.0</ele><time>2026-05-01T07:04:13.999Z</time></trkpt><trkpt lat="42.50785744635503" lon="14.165694091065017"><ele>5.0</ele><time>2026-05-01T07:04:14.999Z</time></trkpt><trkpt lat="42.50777598503986" lon="14.165567934104777"><ele>5.0</ele><time>2026-05-01T07:04:15.999Z</time></trkpt><trkpt lat="42.50769301714124" lon="14.16543944354828"><ele>4.6</ele><time>2026-05-01T07:04:16.999Z</time></trkpt><trkpt lat="42.50760422421165" lon="14.165300089813298"><ele>4.2</ele><time>2026-05-01T07:04:17.999Z</time></trkpt><trkpt lat="42.50752490143834" lon="14.165175692440236"><ele>3.8</ele><time>2026-05-01T07:04:18.999Z</time></trkpt><trkpt lat="42.50745872994984" lon="14.165071498085771"><ele>3.4</ele><time>2026-05-01T07:04:19.999Z</time></trkpt><trkpt lat="42.50740026166924" lon="14.164979690390739"><ele>3.0</ele><time>2026-05-01T07:04:20.999Z</time></trkpt><trkpt lat="42.507348992214574" lon="14.164899473578853"><ele>2.8333333333333335</ele><time>2026-05-01T07:04:21.999Z</time></trkpt><trkpt lat="42.507299623963966" lon="14.164825632869903"><ele>2.6666666666666665</ele><time>2026-05-01T07:04:23.999Z</time></trkpt><trkpt lat="42.50724305859802" lon="14.16476705382335"><ele>2.5</ele><time>2026-05-01T07:04:29.999Z</time></trkpt><trkpt lat="42.50719733006725" lon="14.16470556953255"><ele>2.333333333333333</ele><time>2026-05-01T07:04:30.999Z</time></trkpt><trkpt lat="42.507134963968376" lon="14.164632050841968"><ele>2.1666666666666665</ele><time>2026-05-01T07:04:31.999Z</time></trkpt><trkpt lat="42.507082717605506" lon="14.164535971519014"><ele>2.0</ele><time>2026-05-01T07:04:32.999Z</time></trkpt><trkpt lat="42.507011644219084" lon="14.164431632934747"><ele>2.0</ele><time>2026-05-01T07:04:33.999Z</time></trkpt><trkpt lat="42.50692927235423" lon="14.16431070782355"><ele>2.0</ele><time>2026-05-01T07:04:34.999Z</time></trkpt><trkpt lat="42.50686077247086" lon="14.164209982573398"><ele>2.0</ele><time>2026-05-01T07:04:35.999Z</time></trkpt><trkpt lat="42.50678579989275" lon="14.164098082884463"><ele>2.0</ele><time>2026-05-01T07:04:36.999Z</time></trkpt><trkpt lat="42.50670780283819" lon="14.163981668967654"><ele>1.8</ele><time>2026-05-01T07:04:37.999Z</time></trkpt><trkpt lat="42.506623414918515" lon="14.163880447742944"><ele>1.6</ele><time>2026-05-01T07:04:38.999Z</time></trkpt><trkpt lat="42.506552924446346" lon="14.163770947039987"><ele>1.4000000000000001</ele><time>2026-05-01T07:04:39.999Z</time></trkpt><trkpt lat="42.506489673798896" lon="14.163672259559746"><ele>1.2000000000000002</ele><time>2026-05-01T07:04:40.999Z</time></trkpt><trkpt lat="42.50642595628058" lon="14.163573401069586"><ele>1.0</ele><time>2026-05-01T07:04:41.999Z</time></trkpt><trkpt lat="42.506363470525294" lon="14.16347355395557"><ele>1.0</ele><time>2026-05-01T07:04:42.999Z</time></trkpt><trkpt lat="42.50630190331489" lon="14.163393768078732"><ele>1.0</ele><time>2026-05-01T07:04:43.999Z</time></trkpt><trkpt lat="42.50625608089584" lon="14.163303239048886"><ele>1.0</ele><time>2026-05-01T07:04:44.999Z</time></trkpt><trkpt lat="42.50621007318173" lon="14.163233645801407"><ele>1.0</ele><time>2026-05-01T07:04:45.999Z</time></trkpt><trkpt lat="42.50612806490743" lon="14.163108948820604"><ele>1.0</ele><time>2026-05-01T07:04:47.999Z</time></trkpt><trkpt lat="42.50605158166959" lon="14.162992695210123"><ele>1.1666666666666665</ele><time>2026-05-01T07:04:49.999Z</time></trkpt><trkpt lat="42.506005246513574" lon="14.162922615903783"><ele>1.3333333333333333</ele><time>2026-05-01T07:04:50.999Z</time></trkpt><trkpt lat="42.50589403300405" lon="14.162869822552986"><ele>1.5</ele><time>2026-05-01T07:04:52.998Z</time></trkpt><trkpt lat="42.50579892183379" lon="14.162894224962223"><ele>1.6666666666666665</ele><time>2026-05-01T07:04:54.998Z</time></trkpt><trkpt lat="42.50574217252346" lon="14.162937799733998"><ele>1.8333333333333333</ele><time>2026-05-01T07:04:55.998Z</time></trkpt><trkpt lat="42.50567349807836" lon="14.163025807041066"><ele>2.0</ele><time>2026-05-01T07:04:56.998Z</time></trkpt><trkpt lat="42.50560208626205" lon="14.163115600428249"><ele>2.0</ele><time>2026-05-01T07:04:57.998Z</time></trkpt><trkpt lat="42.50552953299001" lon="14.163212822292033"><ele>2.0</ele><time>2026-05-01T07:04:58.998Z</time></trkpt><trkpt lat="42.505450137441166" lon="14.163314245736764"><ele>2.0</ele><time>2026-05-01T07:04:59.998Z</time></trkpt><trkpt lat="42.50536901317231" lon="14.163407377204155"><ele>2.0</ele><time>2026-05-01T07:05:00.998Z</time></trkpt><trkpt lat="42.50530333938421" lon="14.163492783989373"><ele>2.0</ele><time>2026-05-01T07:05:01.998Z</time></trkpt><trkpt lat="42.5052547087583" lon="14.163560235782064"><ele>2.2</ele><time>2026-05-01T07:05:02.998Z</time></trkpt><trkpt lat="42.505164111843065" lon="14.163674565710991"><ele>2.4000000000000004</ele><time>2026-05-01T07:05:04.998Z</time></trkpt><trkpt lat="42.505111869461416" lon="14.163740597980567"><ele>2.5999999999999996</ele><time>2026-05-01T07:05:05.998Z</time></trkpt><trkpt lat="42.505051907065585" lon="14.163820483032003"><ele>2.8</ele><time>2026-05-01T07:05:06.998Z</time></trkpt><trkpt lat="42.50499020153382" lon="14.163901544886043"><ele>3.0</ele><time>2026-05-01T07:05:07.998Z</time></trkpt><trkpt lat="42.50492690016653" lon="14.16398089729562"><ele>3.0</ele><time>2026-05-01T07:05:08.998Z</time></trkpt><trkpt lat="42.50486254683154" lon="14.164053913462698"><ele>3.0</ele><time>2026-05-01T07:05:09.998Z</time></trkpt><trkpt lat="42.50480201817727" lon="14.164124454983952"><ele>3.0</ele><time>2026-05-01T07:05:10.998Z</time></trkpt><trkpt lat="42.50474775218178" lon="14.16419457527887"><ele>3.0</ele><time>2026-05-01T07:05:11.998Z</time></trkpt><trkpt lat="42.50469132070924" lon="14.164268019682394"><ele>3.0</ele><time>2026-05-01T07:05:12.998Z</time></trkpt><trkpt lat="42.50463014943583" lon="14.164334735075393"><ele>3.0</ele><time>2026-05-01T07:05:13.998Z</time></trkpt><trkpt lat="42.50457797202407" lon="14.16440080137483"><ele>3.0</ele><time>2026-05-01T07:05:14.998Z</time></trkpt><trkpt lat="42.504498569435334" lon="14.164496879970566"><ele>3.0</ele><time>2026-05-01T07:05:16.998Z</time></trkpt><trkpt lat="42.50443944102531" lon="14.16457533450638"><ele>3.0</ele><time>2026-05-01T07:05:18.998Z</time></trkpt><trkpt lat="42.504386417650785" lon="14.164646701322422"><ele>3.0</ele><time>2026-05-01T07:05:20.998Z</time></trkpt><trkpt lat="42.50431868567778" lon="14.164723108468552"><ele>3.0</ele><time>2026-05-01T07:05:22.998Z</time></trkpt><trkpt lat="42.50423086882778" lon="14.164826242021332"><ele>2.8</ele><time>2026-05-01T07:05:24.998Z</time></trkpt><trkpt lat="42.504125274790375" lon="14.16495166471324"><ele>2.5999999999999996</ele><time>2026-05-01T07:05:26.998Z</time></trkpt><trkpt lat="42.50403333077537" lon="14.165065284402974"><ele>2.4000000000000004</ele><time>2026-05-01T07:05:28.998Z</time></trkpt><trkpt lat="42.5039727340556" lon="14.165140481706274"><ele>2.2</ele><time>2026-05-01T07:05:29.998Z</time></trkpt><trkpt lat="42.50389913047299" lon="14.16522911049637"><ele>2.0</ele><time>2026-05-01T07:05:30.998Z</time></trkpt><trkpt lat="42.50381888860556" lon="14.16531878966928"><ele>2.0</ele><time>2026-05-01T07:05:31.998Z</time></trkpt><trkpt lat="42.50374801276028" lon="14.165414841215437"><ele>2.0</ele><time>2026-05-01T07:05:32.998Z</time></trkpt><trkpt lat="42.50366639294776" lon="14.165513272719346"><ele>2.0</ele><time>2026-05-01T07:05:33.998Z</time></trkpt><trkpt lat="42.50358449349954" lon="14.165614876385748"><ele>2.0</ele><time>2026-05-01T07:05:34.998Z</time></trkpt><trkpt lat="42.50350263419264" lon="14.165710476188277"><ele>2.0</ele><time>2026-05-01T07:05:35.998Z</time></trkpt><trkpt lat="42.50342435859093" lon="14.165809800779488"><ele>2.75</ele><time>2026-05-01T07:05:36.998Z</time></trkpt><trkpt lat="42.503346455923094" lon="14.16589376853583"><ele>3.5</ele><time>2026-05-01T07:05:37.998Z</time></trkpt><trkpt lat="42.50324995186098" lon="14.166011941168573"><ele>4.25</ele><time>2026-05-01T07:05:38.998Z</time></trkpt><trkpt lat="42.50316213748706" lon="14.166115594030488"><ele>5.0</ele><time>2026-05-01T07:05:39.998Z</time></trkpt><trkpt lat="42.50307834728589" lon="14.16621893259055"><ele>5.0</ele><time>2026-05-01T07:05:40.998Z</time></trkpt><trkpt lat="42.50299502719336" lon="14.166321144806053"><ele>5.0</ele><time>2026-05-01T07:05:41.998Z</time></trkpt><trkpt lat="42.502912459113986" lon="14.166417029328516"><ele>5.0</ele><time>2026-05-01T07:05:42.998Z</time></trkpt><trkpt lat="42.50283004496201" lon="14.166518304372884"><ele>5.0</ele><time>2026-05-01T07:05:43.998Z</time></trkpt><trkpt lat="42.50274613717904" lon="14.166618885795005"><ele>5.0</ele><time>2026-05-01T07:05:44.998Z</time></trkpt><trkpt lat="42.502662516220354" lon="14.166719565885558"><ele>4.8</ele><time>2026-05-01T07:05:45.998Z</time></trkpt><trkpt lat="42.502579711596375" lon="14.166819883952252"><ele>4.6</ele><time>2026-05-01T07:05:46.998Z</time></trkpt><trkpt lat="42.50249789973248" lon="14.16691542376192"><ele>4.4</ele><time>2026-05-01T07:05:47.998Z</time></trkpt><trkpt lat="42.502418145902446" lon="14.167010137698012"><ele>4.2</ele><time>2026-05-01T07:05:48.998Z</time></trkpt><trkpt lat="42.50234036941617" lon="14.167106937200387"><ele>4.0</ele><time>2026-05-01T07:05:49.998Z</time></trkpt><trkpt lat="42.502259193177544" lon="14.167206764438463"><ele>4.0</ele><time>2026-05-01T07:05:50.998Z</time></trkpt><trkpt lat="42.502172640039035" lon="14.167308240125637"><ele>4.0</ele><time>2026-05-01T07:05:51.998Z</time></trkpt><trkpt lat="42.5020868298462" lon="14.167410453056332"><ele>4.0</ele><time>2026-05-01T07:05:52.998Z</time></trkpt><trkpt lat="42.50200414803838" lon="14.167511791898779"><ele>4.0</ele><time>2026-05-01T07:05:53.998Z</time></trkpt><trkpt lat="42.50192161392264" lon="14.16761468119157"><ele>4.0</ele><time>2026-05-01T07:05:54.998Z</time></trkpt><trkpt lat="42.50183826065788" lon="14.167723039749626"><ele>4.0</ele><time>2026-05-01T07:05:55.998Z</time></trkpt><trkpt lat="42.50175130741549" lon="14.167829658895768"><ele>4.0</ele><time>2026-05-01T07:05:56.998Z</time></trkpt><trkpt lat="42.50166025517792" lon="14.167944267532738"><ele>4.0</ele><time>2026-05-01T07:05:57.998Z</time></trkpt><trkpt lat="42.501569815787526" lon="14.168066867249927"><ele>4.0</ele><time>2026-05-01T07:05:58.998Z</time></trkpt><trkpt lat="42.501475618883205" lon="14.16818589457983"><ele>4.0</ele><time>2026-05-01T07:05:59.998Z</time></trkpt><trkpt lat="42.50138143981127" lon="14.168304893791914"><ele>4.0</ele><time>2026-05-01T07:06:00.998Z</time></trkpt><trkpt lat="42.50128430138008" lon="14.168416812852671"><ele>4.0</ele><time>2026-05-01T07:06:01.998Z</time></trkpt><trkpt lat="42.50118329108729" lon="14.168536096736993"><ele>4.0</ele><time>2026-05-01T07:06:02.998Z</time></trkpt><trkpt lat="42.501082111588815" lon="14.168657464740562"><ele>4.0</ele><time>2026-05-01T07:06:03.998Z</time></trkpt><trkpt lat="42.500976952768504" lon="14.168772712293057"><ele>4.0</ele><time>2026-05-01T07:06:04.999Z</time></trkpt><trkpt lat="42.500877783363336" lon="14.168891188656712"><ele>4.0</ele><time>2026-05-01T07:06:05.999Z</time></trkpt><trkpt lat="42.50077947790499" lon="14.169010069010374"><ele>4.0</ele><time>2026-05-01T07:06:06.999Z</time></trkpt><trkpt lat="42.500682131033514" lon="14.169120491193905"><ele>4.0</ele><time>2026-05-01T07:06:07.999Z</time></trkpt><trkpt lat="42.50059140536066" lon="14.169228869733937"><ele>4.0</ele><time>2026-05-01T07:06:08.999Z</time></trkpt><trkpt lat="42.50051289565108" lon="14.169337133190773"><ele>4.0</ele><time>2026-05-01T07:06:09.999Z</time></trkpt><trkpt lat="42.50043151051247" lon="14.16942358839428"><ele>3.8000000000000003</ele><time>2026-05-01T07:06:10.999Z</time></trkpt><trkpt lat="42.50035735255018" lon="14.16950840349286"><ele>3.6000000000000005</ele><time>2026-05-01T07:06:11.999Z</time></trkpt><trkpt lat="42.50028553678543" lon="14.169594477022198"><ele>3.4</ele><time>2026-05-01T07:06:12.999Z</time></trkpt><trkpt lat="42.50021195170884" lon="14.169687589242642"><ele>3.2</ele><time>2026-05-01T07:06:13.999Z</time></trkpt><trkpt lat="42.5001325550395" lon="14.169780483562171"><ele>3.0</ele><time>2026-05-01T07:06:14.999Z</time></trkpt><trkpt lat="42.50005544712724" lon="14.169872830706582"><ele>2.8</ele><time>2026-05-01T07:06:15.999Z</time></trkpt><trkpt lat="42.49998007913081" lon="14.169962118040614"><ele>2.5999999999999996</ele><time>2026-05-01T07:06:16.999Z</time></trkpt><trkpt lat="42.49990767240972" lon="14.17005198172245"><ele>2.4000000000000004</ele><time>2026-05-01T07:06:17.999Z</time></trkpt><trkpt lat="42.49983766017497" lon="14.170142265191657"><ele>2.2</ele><time>2026-05-01T07:06:18.999Z</time></trkpt><trkpt lat="42.49976539975329" lon="14.170232195138654"><ele>2.0</ele><time>2026-05-01T07:06:19.999Z</time></trkpt><trkpt lat="42.49969434170508" lon="14.170315708590081"><ele>1.9999999999999998</ele><time>2026-05-01T07:06:20.999Z</time></trkpt><trkpt lat="42.499624680846836" lon="14.170393658960029"><ele>2.0</ele><time>2026-05-01T07:06:21.999Z</time></trkpt><trkpt lat="42.49956242372545" lon="14.17046297040573"><ele>2.0</ele><time>2026-05-01T07:06:22.999Z</time></trkpt><trkpt lat="42.49950533522376" lon="14.170528120294739"><ele>2.0</ele><time>2026-05-01T07:06:23.999Z</time></trkpt><trkpt lat="42.499452789028545" lon="14.17058671864477"><ele>1.9999999999999998</ele><time>2026-05-01T07:06:24.999Z</time></trkpt><trkpt lat="42.499399901507694" lon="14.170644685581127"><ele>2.0</ele><time>2026-05-01T07:06:25.999Z</time></trkpt><trkpt lat="42.499342959233836" lon="14.17071347435436"><ele>2.4000000000000004</ele><time>2026-05-01T07:06:26.999Z</time></trkpt><trkpt lat="42.49927768996399" lon="14.170785241251755"><ele>2.8000000000000003</ele><time>2026-05-01T07:06:27.999Z</time></trkpt><trkpt lat="42.499217339700685" lon="14.170860622045657"><ele>3.2</ele><time>2026-05-01T07:06:28.999Z</time></trkpt><trkpt lat="42.4991573505292" lon="14.170943728555915"><ele>3.6</ele><time>2026-05-01T07:06:29.999Z</time></trkpt><trkpt lat="42.4990822293288" lon="14.171032544802097"><ele>4.0</ele><time>2026-05-01T07:06:30.999Z</time></trkpt><trkpt lat="42.498994112485526" lon="14.171126678252003"><ele>4.0</ele><time>2026-05-01T07:06:31.999Z</time></trkpt><trkpt lat="42.49891391130412" lon="14.171220405658694"><ele>4.0</ele><time>2026-05-01T07:06:32.999Z</time></trkpt><trkpt lat="42.49882277376464" lon="14.171310779722951"><ele>4.0</ele><time>2026-05-01T07:06:33.999Z</time></trkpt><trkpt lat="42.498714282432566" lon="14.17139388315261"><ele>4.0</ele><time>2026-05-01T07:06:34.999Z</time></trkpt><trkpt lat="42.498599448411014" lon="14.171474191497913"><ele>3.75</ele><time>2026-05-01T07:06:35.999Z</time></trkpt><trkpt lat="42.49860009878102" lon="14.17162720870581"><ele>3.5</ele><time>2026-05-01T07:06:36.999Z</time></trkpt><trkpt lat="42.498505764752856" lon="14.171729901871933"><ele>3.25</ele><time>2026-05-01T07:06:37.999Z</time></trkpt><trkpt lat="42.49842078304479" lon="14.171835708472019"><ele>3.0</ele><time>2026-05-01T07:06:38.999Z</time></trkpt><trkpt lat="42.49833583165959" lon="14.171943018436123"><ele>3.0</ele><time>2026-05-01T07:06:39.999Z</time></trkpt><trkpt lat="42.49824344814108" lon="14.172054148150531"><ele>3.0</ele><time>2026-05-01T07:06:40.999Z</time></trkpt><trkpt lat="42.498157762574664" lon="14.172160623404897"><ele>3.0</ele><time>2026-05-01T07:06:41.999Z</time></trkpt><trkpt lat="42.49808177804923" lon="14.172265829715815"><ele>3.0</ele><time>2026-05-01T07:06:42.999Z</time></trkpt><trkpt lat="42.49800089007696" lon="14.17237398743445"><ele>3.5</ele><time>2026-05-01T07:06:43.999Z</time></trkpt><trkpt lat="42.497911733475654" lon="14.172481834460696"><ele>4.0</ele><time>2026-05-01T07:06:44.999Z</time></trkpt><trkpt lat="42.49783068818792" lon="14.172578723934874"><ele>4.5</ele><time>2026-05-01T07:06:45.999Z</time></trkpt><trkpt lat="42.497748497006604" lon="14.172675380732114"><ele>5.0</ele><time>2026-05-01T07:06:46.999Z</time></trkpt><trkpt lat="42.49765724877299" lon="14.17278306272957"><ele>5.0</ele><time>2026-05-01T07:06:47.999Z</time></trkpt><trkpt lat="42.49756339570381" lon="14.17288999062116"><ele>5.0</ele><time>2026-05-01T07:06:48.999Z</time></trkpt><trkpt lat="42.497473190899626" lon="14.173003300354468"><ele>5.0</ele><time>2026-05-01T07:06:49.999Z</time></trkpt><trkpt lat="42.49738026824975" lon="14.173119869054998"><ele>5.0</ele><time>2026-05-01T07:06:50.999Z</time></trkpt><trkpt lat="42.4972888335211" lon="14.173233124486927"><ele>5.0</ele><time>2026-05-01T07:06:51.999Z</time></trkpt><trkpt lat="42.49720388787505" lon="14.173330351028365"><ele>5.0</ele><time>2026-05-01T07:06:52.999Z</time></trkpt><trkpt lat="42.49712951492749" lon="14.173424963120343"><ele>5.0</ele><time>2026-05-01T07:06:53.999Z</time></trkpt><trkpt lat="42.49705904516668" lon="14.173510523099376"><ele>5.0</ele><time>2026-05-01T07:06:54.999Z</time></trkpt><trkpt lat="42.496993522174215" lon="14.173588291068382"><ele>5.0</ele><time>2026-05-01T07:06:55.999Z</time></trkpt><trkpt lat="42.49693131254768" lon="14.173662692007978"><ele>5.0</ele><time>2026-05-01T07:06:56.999Z</time></trkpt><trkpt lat="42.49687451869714" lon="14.173731531733774"><ele>5.0</ele><time>2026-05-01T07:06:57.999Z</time></trkpt><trkpt lat="42.49682030419951" lon="14.173801258523977"><ele>5.0</ele><time>2026-05-01T07:07:00.999Z</time></trkpt><trkpt lat="42.49674898420463" lon="14.173885570705762"><ele>5.0</ele><time>2026-05-01T07:07:31.999Z</time></trkpt><trkpt lat="42.49679957892094" lon="14.174056553585146"><ele>5.0</ele><time>2026-05-01T07:07:33.999Z</time></trkpt><trkpt lat="42.496867249214326" lon="14.174139068376194"><ele>4.6</ele><time>2026-05-01T07:07:34.999Z</time></trkpt><trkpt lat="42.49693322900428" lon="14.174241107321286"><ele>4.2</ele><time>2026-05-01T07:07:35.999Z</time></trkpt><trkpt lat="42.497005115942514" lon="14.174371707182658"><ele>3.8</ele><time>2026-05-01T07:07:36.999Z</time></trkpt><trkpt lat="42.4970734654804" lon="14.174474383286286"><ele>3.4</ele><time>2026-05-01T07:07:37.999Z</time></trkpt><trkpt lat="42.49715133605265" lon="14.174559474164226"><ele>3.0</ele><time>2026-05-01T07:07:38.999Z</time></trkpt><trkpt lat="42.49720001013566" lon="14.174664777675396"><ele>3.0</ele><time>2026-05-01T07:07:39.999Z</time></trkpt><trkpt lat="42.49725270680331" lon="14.174744184367707"><ele>3.0</ele><time>2026-05-01T07:07:40.999Z</time></trkpt><trkpt lat="42.49730827265595" lon="14.174827914761662"><ele>3.0</ele><time>2026-05-01T07:07:41.999Z</time></trkpt><trkpt lat="42.49736684159099" lon="14.174916170376727"><ele>3.0</ele><time>2026-05-01T07:07:42.999Z</time></trkpt><trkpt lat="42.49743538427315" lon="14.175015823027092"><ele>3.0</ele><time>2026-05-01T07:07:43.999Z</time></trkpt><trkpt lat="42.49750798519055" lon="14.17511800507218"><ele>3.0</ele><time>2026-05-01T07:07:44.999Z</time></trkpt><trkpt lat="42.49757678947718" lon="14.175217910513906"><ele>3.0</ele><time>2026-05-01T07:07:45.999Z</time></trkpt><trkpt lat="42.497644517112555" lon="14.175315908168406"><ele>3.0</ele><time>2026-05-01T07:07:46.999Z</time></trkpt><trkpt lat="42.497710636643596" lon="14.175421476845312"><ele>3.0</ele><time>2026-05-01T07:07:47.999Z</time></trkpt><trkpt lat="42.497784121927204" lon="14.17552791019119"><ele>3.0</ele><time>2026-05-01T07:07:48.999Z</time></trkpt><trkpt lat="42.49785823518169" lon="14.1756294487582"><ele>3.2</ele><time>2026-05-01T07:07:49.999Z</time></trkpt><trkpt lat="42.49791898234271" lon="14.175741778202568"><ele>3.4</ele><time>2026-05-01T07:07:50.999Z</time></trkpt><trkpt lat="42.49797359572382" lon="14.175814286540831"><ele>3.6000000000000005</ele><time>2026-05-01T07:07:51.999Z</time></trkpt><trkpt lat="42.49801745803267" lon="14.175878363208579"><ele>3.8000000000000003</ele><time>2026-05-01T07:07:52.999Z</time></trkpt><trkpt lat="42.498081086895475" lon="14.175995262994178"><ele>4.0</ele><time>2026-05-01T07:07:54.999Z</time></trkpt><trkpt lat="42.498159770529696" lon="14.1761023832446"><ele>4.0</ele><time>2026-05-01T07:07:56.998Z</time></trkpt><trkpt lat="42.49821733198781" lon="14.176187531944718"><ele>4.0</ele><time>2026-05-01T07:07:57.998Z</time></trkpt><trkpt lat="42.49829298935247" lon="14.176295170061886"><ele>4.0</ele><time>2026-05-01T07:07:58.998Z</time></trkpt><trkpt lat="42.49835708906369" lon="14.17641193884295"><ele>4.0</ele><time>2026-05-01T07:07:59.998Z</time></trkpt><trkpt lat="42.49843248930879" lon="14.176526863749778"><ele>4.0</ele><time>2026-05-01T07:08:00.998Z</time></trkpt><trkpt lat="42.498516941834744" lon="14.176629205372015"><ele>4.25</ele><time>2026-05-01T07:08:01.998Z</time></trkpt><trkpt lat="42.4985878556687" lon="14.176764199483555"><ele>4.5</ele><time>2026-05-01T07:08:02.998Z</time></trkpt><trkpt lat="42.49868184364743" lon="14.176877729714462"><ele>4.75</ele><time>2026-05-01T07:08:03.998Z</time></trkpt><trkpt lat="42.49876109569522" lon="14.177015155937031"><ele>5.0</ele><time>2026-05-01T07:08:04.998Z</time></trkpt><trkpt lat="42.49884856184902" lon="14.177142463565627"><ele>5.0</ele><time>2026-05-01T07:08:05.999Z</time></trkpt><trkpt lat="42.498936872642126" lon="14.177284338915797"><ele>5.0</ele><time>2026-05-01T07:08:06.999Z</time></trkpt><trkpt lat="42.49902591789348" lon="14.177420602145363"><ele>5.0</ele><time>2026-05-01T07:08:07.999Z</time></trkpt><trkpt lat="42.49910515477178" lon="14.177542729245856"><ele>5.0</ele><time>2026-05-01T07:08:08.999Z</time></trkpt><trkpt lat="42.4991709400371" lon="14.17765813431224"><ele>5.0</ele><time>2026-05-01T07:08:09.999Z</time></trkpt><trkpt lat="42.499229810426876" lon="14.17775031761243"><ele>5.0</ele><time>2026-05-01T07:08:10.999Z</time></trkpt><trkpt lat="42.499301671496816" lon="14.177839383273994"><ele>5.0</ele><time>2026-05-01T07:08:11.999Z</time></trkpt><trkpt lat="42.499359501601226" lon="14.177928448074136"><ele>5.0</ele><time>2026-05-01T07:08:12.999Z</time></trkpt><trkpt lat="42.49939453959063" lon="14.178012578084346"><ele>5.0</ele><time>2026-05-01T07:08:13.999Z</time></trkpt><trkpt lat="42.49945868014085" lon="14.17810635963819"><ele>5.0</ele><time>2026-05-01T07:08:15.999Z</time></trkpt><trkpt lat="42.499520511971774" lon="14.178199395885777"><ele>4.4</ele><time>2026-05-01T07:08:16.999Z</time></trkpt><trkpt lat="42.4995919522434" lon="14.178292617562516"><ele>3.8</ele><time>2026-05-01T07:08:17.999Z</time></trkpt><trkpt lat="42.499650589085626" lon="14.178405700292018"><ele>3.2</ele><time>2026-05-01T07:08:18.999Z</time></trkpt><trkpt lat="42.49970412963559" lon="14.178471911620788"><ele>2.6</ele><time>2026-05-01T07:08:19.999Z</time></trkpt><trkpt lat="42.499751022913244" lon="14.178601274254039"><ele>2.0</ele><time>2026-05-01T07:08:21.999Z</time></trkpt><trkpt lat="42.499703022155586" lon="14.17874890917116"><ele>2.0</ele><time>2026-05-01T07:08:23.999Z</time></trkpt><trkpt lat="42.49964442239979" lon="14.17884011446823"><ele>2.0</ele><time>2026-05-01T07:08:24.999Z</time></trkpt><trkpt lat="42.49955109036868" lon="14.178936733088415"><ele>2.0</ele><time>2026-05-01T07:08:25.999Z</time></trkpt><trkpt lat="42.49944429161277" lon="14.17904115521481"><ele>2.0</ele><time>2026-05-01T07:08:26.999Z</time></trkpt><trkpt lat="42.49933016677073" lon="14.179150855893507"><ele>2.6666666666666665</ele><time>2026-05-01T07:08:27.999Z</time></trkpt><trkpt lat="42.499202056578056" lon="14.179279159562693"><ele>3.333333333333333</ele><time>2026-05-01T07:08:28.999Z</time></trkpt><trkpt lat="42.49908532080084" lon="14.179402099476103"><ele>4.0</ele><time>2026-05-01T07:08:30Z</time></trkpt><trkpt lat="42.498967060837586" lon="14.179523703679484"><ele>4.0</ele><time>2026-05-01T07:08:31Z</time></trkpt><trkpt lat="42.49885166677879" lon="14.179639986024554"><ele>4.0</ele><time>2026-05-01T07:08:32Z</time></trkpt><trkpt lat="42.49873915061023" lon="14.179756002089604"><ele>4.0</ele><time>2026-05-01T07:08:33Z</time></trkpt><trkpt lat="42.498620573178" lon="14.179881532312855"><ele>4.0</ele><time>2026-05-01T07:08:34Z</time></trkpt><trkpt lat="42.49849204488729" lon="14.180018010989803"><ele>4.333333333333333</ele><time>2026-05-01T07:08:35Z</time></trkpt><trkpt lat="42.498360960098346" lon="14.180148250139908"><ele>4.666666666666667</ele><time>2026-05-01T07:08:36Z</time></trkpt><trkpt lat="42.49822652817946" lon="14.180283737369493"><ele>5.0</ele><time>2026-05-01T07:08:37Z</time></trkpt><trkpt lat="42.49808339118592" lon="14.180408108088834"><ele>5.0</ele><time>2026-05-01T07:08:38Z</time></trkpt><trkpt lat="42.49795348415645" lon="14.18053782454313"><ele>5.0</ele><time>2026-05-01T07:08:39Z</time></trkpt><trkpt lat="42.49782720158312" lon="14.18067552096753"><ele>5.0</ele><time>2026-05-01T07:08:40Z</time></trkpt><trkpt lat="42.497700251979396" lon="14.18081073004992"><ele>5.25</ele><time>2026-05-01T07:08:41Z</time></trkpt><trkpt lat="42.49758836981943" lon="14.18093839988782"><ele>5.5</ele><time>2026-05-01T07:08:42Z</time></trkpt><trkpt lat="42.49747045784434" lon="14.181063611942353"><ele>5.75</ele><time>2026-05-01T07:08:43Z</time></trkpt><trkpt lat="42.497353175446804" lon="14.181179938573356"><ele>6.0</ele><time>2026-05-01T07:08:44Z</time></trkpt><trkpt lat="42.49724252068237" lon="14.18128987776627"><ele>6.0</ele><time>2026-05-01T07:08:45Z</time></trkpt><trkpt lat="42.49713302432735" lon="14.181396617701962"><ele>6.0</ele><time>2026-05-01T07:08:46Z</time></trkpt><trkpt lat="42.49702608619953" lon="14.181505988632468"><ele>6.0</ele><time>2026-05-01T07:08:47Z</time></trkpt><trkpt lat="42.496917278811466" lon="14.181614701234976"><ele>6.0</ele><time>2026-05-01T07:08:48Z</time></trkpt><trkpt lat="42.49681664681829" lon="14.18172176628565"><ele>5.75</ele><time>2026-05-01T07:08:49Z</time></trkpt><trkpt lat="42.4967209472562" lon="14.181824158940252"><ele>5.5</ele><time>2026-05-01T07:08:50Z</time></trkpt><trkpt lat="42.49661990068258" lon="14.181927104611017"><ele>5.25</ele><time>2026-05-01T07:08:51Z</time></trkpt><trkpt lat="42.496519761398126" lon="14.18203088505048"><ele>5.0</ele><time>2026-05-01T07:08:51.999Z</time></trkpt><trkpt lat="42.49642384715663" lon="14.182137508801679"><ele>5.0</ele><time>2026-05-01T07:08:52.999Z</time></trkpt><trkpt lat="42.496325638049065" lon="14.182243694932954"><ele>5.0</ele><time>2026-05-01T07:08:53.999Z</time></trkpt><trkpt lat="42.49622014727397" lon="14.18234453510958"><ele>5.0</ele><time>2026-05-01T07:08:54.999Z</time></trkpt><trkpt lat="42.49610904826697" lon="14.182458916498623"><ele>5.0</ele><time>2026-05-01T07:08:55.999Z</time></trkpt><trkpt lat="42.49599420890804" lon="14.18257265680303"><ele>4.25</ele><time>2026-05-01T07:08:56.999Z</time></trkpt><trkpt lat="42.495887032447165" lon="14.182690508947093"><ele>3.5</ele><time>2026-05-01T07:08:57.999Z</time></trkpt><trkpt lat="42.49578257093084" lon="14.182799703542353"><ele>2.75</ele><time>2026-05-01T07:08:58.999Z</time></trkpt><trkpt lat="42.495673933588364" lon="14.18290701558744"><ele>2.0</ele><time>2026-05-01T07:08:59.999Z</time></trkpt><trkpt lat="42.49556176015358" lon="14.183024634858922"><ele>2.0</ele><time>2026-05-01T07:09:00.999Z</time></trkpt><trkpt lat="42.495449212743125" lon="14.183145872170556"><ele>2.0</ele><time>2026-05-01T07:09:01.999Z</time></trkpt><trkpt lat="42.495332326698986" lon="14.183267215790412"><ele>2.0</ele><time>2026-05-01T07:09:02.999Z</time></trkpt><trkpt lat="42.49521343107663" lon="14.183385361939552"><ele>2.0</ele><time>2026-05-01T07:09:03.999Z</time></trkpt><trkpt lat="42.49509654359606" lon="14.183505957296404"><ele>2.75</ele><time>2026-05-01T07:09:04.999Z</time></trkpt><trkpt lat="42.49498036402244" lon="14.183624230314317"><ele>3.5</ele><time>2026-05-01T07:09:05.999Z</time></trkpt><trkpt lat="42.49486554043508" lon="14.18373733471655"><ele>4.25</ele><time>2026-05-01T07:09:06.999Z</time></trkpt><trkpt lat="42.49475458236663" lon="14.183851532724164"><ele>5.0</ele><time>2026-05-01T07:09:07.999Z</time></trkpt><trkpt lat="42.49466182012283" lon="14.183952778283757"><ele>5.0</ele><time>2026-05-01T07:09:08.999Z</time></trkpt><trkpt lat="42.49457885322242" lon="14.184034479726876"><ele>5.0</ele><time>2026-05-01T07:09:09.999Z</time></trkpt><trkpt lat="42.49449511723453" lon="14.18411948299237"><ele>5.0</ele><time>2026-05-01T07:09:10.999Z</time></trkpt><trkpt lat="42.4944007078178" lon="14.184220486177106"><ele>5.0</ele><time>2026-05-01T07:09:11.999Z</time></trkpt><trkpt lat="42.49430095828638" lon="14.184327707625709"><ele>5.0</ele><time>2026-05-01T07:09:12.999Z</time></trkpt><trkpt lat="42.49419660608299" lon="14.184435946307634"><ele>5.0</ele><time>2026-05-01T07:09:13.999Z</time></trkpt><trkpt lat="42.49408731117066" lon="14.184544306979925"><ele>5.0</ele><time>2026-05-01T07:09:14.999Z</time></trkpt><trkpt lat="42.49397430237221" lon="14.184650112168388"><ele>5.0</ele><time>2026-05-01T07:09:15.999Z</time></trkpt><trkpt lat="42.493866550591974" lon="14.1847636587411"><ele>4.75</ele><time>2026-05-01T07:09:16.999Z</time></trkpt><trkpt lat="42.49376099925676" lon="14.184882742340834"><ele>4.5</ele><time>2026-05-01T07:09:17.999Z</time></trkpt><trkpt lat="42.493661574869265" lon="14.184987978745006"><ele>4.25</ele><time>2026-05-01T07:09:18.999Z</time></trkpt><trkpt lat="42.49356675978746" lon="14.18508798699817"><ele>4.0</ele><time>2026-05-01T07:09:19.999Z</time></trkpt><trkpt lat="42.49347800442174" lon="14.185181221380065"><ele>4.0</ele><time>2026-05-01T07:09:20.999Z</time></trkpt><trkpt lat="42.49339245874066" lon="14.185275093879998"><ele>4.0</ele><time>2026-05-01T07:09:21.999Z</time></trkpt><trkpt lat="42.493312635795014" lon="14.185363012368384"><ele>4.0</ele><time>2026-05-01T07:09:22.999Z</time></trkpt><trkpt lat="42.49323837951817" lon="14.185442276738565"><ele>4.0</ele><time>2026-05-01T07:09:23.999Z</time></trkpt><trkpt lat="42.49316216626526" lon="14.185531054696686"><ele>4.0</ele><time>2026-05-01T07:09:24.999Z</time></trkpt><trkpt lat="42.49308381987257" lon="14.185621236701737"><ele>4.4</ele><time>2026-05-01T07:09:25.999Z</time></trkpt><trkpt lat="42.4930131630486" lon="14.185704034129133"><ele>4.800000000000001</ele><time>2026-05-01T07:09:26.999Z</time></trkpt><trkpt lat="42.49294598376101" lon="14.18578255902776"><ele>5.199999999999999</ele><time>2026-05-01T07:09:27.999Z</time></trkpt><trkpt lat="42.492883994024" lon="14.18585800322704"><ele>5.6</ele><time>2026-05-01T07:09:28.999Z</time></trkpt><trkpt lat="42.492817633621435" lon="14.18593693240817"><ele>6.0</ele><time>2026-05-01T07:09:29.999Z</time></trkpt><trkpt lat="42.492739210534744" lon="14.18602357544304"><ele>6.0</ele><time>2026-05-01T07:09:30.999Z</time></trkpt><trkpt lat="42.492654339728" lon="14.186112751261351"><ele>6.0</ele><time>2026-05-01T07:09:31.999Z</time></trkpt><trkpt lat="42.492568175705514" lon="14.18620686535734"><ele>6.0</ele><time>2026-05-01T07:09:32.999Z</time></trkpt><trkpt lat="42.49248450119484" lon="14.186302526815112"><ele>6.0</ele><time>2026-05-01T07:09:33.999Z</time></trkpt><trkpt lat="42.492396004237904" lon="14.186404321656003"><ele>6.0</ele><time>2026-05-01T07:09:34.999Z</time></trkpt><trkpt lat="42.492295768198396" lon="14.186511465597617"><ele>5.5</ele><time>2026-05-01T07:09:35.999Z</time></trkpt><trkpt lat="42.49219209421505" lon="14.186640529656646"><ele>5.0</ele><time>2026-05-01T07:09:36.999Z</time></trkpt><trkpt lat="42.492082945471324" lon="14.186780469644127"><ele>4.5</ele><time>2026-05-01T07:09:37.999Z</time></trkpt><trkpt lat="42.491969717867384" lon="14.18690736774926"><ele>4.0</ele><time>2026-05-01T07:09:38.999Z</time></trkpt><trkpt lat="42.49184693571775" lon="14.187034670724474"><ele>4.0</ele><time>2026-05-01T07:09:39.999Z</time></trkpt><trkpt lat="42.49172988827845" lon="14.187149406828004"><ele>4.0</ele><time>2026-05-01T07:09:40.999Z</time></trkpt><trkpt lat="42.49161163866613" lon="14.187259863060167"><ele>4.0</ele><time>2026-05-01T07:09:41.999Z</time></trkpt><trkpt lat="42.491496140708236" lon="14.187382665092239"><ele>4.0</ele><time>2026-05-01T07:09:42.999Z</time></trkpt><trkpt lat="42.491383527742975" lon="14.187508739835677"><ele>4.0</ele><time>2026-05-01T07:09:43.999Z</time></trkpt><trkpt lat="42.49127090547255" lon="14.187632808346773"><ele>4.0</ele><time>2026-05-01T07:09:44.999Z</time></trkpt><trkpt lat="42.49116132956938" lon="14.187757267640329"><ele>4.0</ele><time>2026-05-01T07:09:45.999Z</time></trkpt><trkpt lat="42.4910496035704" lon="14.187881443382553"><ele>4.0</ele><time>2026-05-01T07:09:46.999Z</time></trkpt><trkpt lat="42.49093672497053" lon="14.188010369946292"><ele>4.25</ele><time>2026-05-01T07:09:47.999Z</time></trkpt><trkpt lat="42.49081834232882" lon="14.188140169185074"><ele>4.5</ele><time>2026-05-01T07:09:48.999Z</time></trkpt><trkpt lat="42.49070312437326" lon="14.188268377022936"><ele>4.75</ele><time>2026-05-01T07:09:49.999Z</time></trkpt><trkpt lat="42.49059089206483" lon="14.18838400635238"><ele>5.0</ele><time>2026-05-01T07:09:50.999Z</time></trkpt><trkpt lat="42.4904797232203" lon="14.188502027209681"><ele>5.25</ele><time>2026-05-01T07:09:51.999Z</time></trkpt><trkpt lat="42.490368225412" lon="14.188624322636622"><ele>5.5</ele><time>2026-05-01T07:09:52.999Z</time></trkpt><trkpt lat="42.49025882704636" lon="14.18874761458706"><ele>5.75</ele><time>2026-05-01T07:09:53.999Z</time></trkpt><trkpt lat="42.49014498642604" lon="14.188869284964495"><ele>6.0</ele><time>2026-05-01T07:09:54.999Z</time></trkpt><trkpt lat="42.49004082553483" lon="14.188987966173723"><ele>5.25</ele><time>2026-05-01T07:09:55.999Z</time></trkpt><trkpt lat="42.48993631117266" lon="14.189102701160705"><ele>4.5</ele><time>2026-05-01T07:09:56.999Z</time></trkpt><trkpt lat="42.48983595383127" lon="14.189218229728331"><ele>3.75</ele><time>2026-05-01T07:09:57.999Z</time></trkpt><trkpt lat="42.489736474355446" lon="14.189329781208256"><ele>3.0</ele><time>2026-05-01T07:09:58.999Z</time></trkpt><trkpt lat="42.48963727671327" lon="14.189438435038097"><ele>2.75</ele><time>2026-05-01T07:09:59.999Z</time></trkpt><trkpt lat="42.48954165873656" lon="14.189546183137946"><ele>2.5</ele><time>2026-05-01T07:10:00.999Z</time></trkpt><trkpt lat="42.489453982829154" lon="14.189670591301029"><ele>2.25</ele><time>2026-05-01T07:10:01.999Z</time></trkpt><trkpt lat="42.4893417801408" lon="14.189785251241467"><ele>2.0</ele><time>2026-05-01T07:10:02.999Z</time></trkpt><trkpt lat="42.48923877582299" lon="14.18990237484472"><ele>2.0</ele><time>2026-05-01T07:10:03.999Z</time></trkpt><trkpt lat="42.48912627009135" lon="14.19000981303667"><ele>2.0</ele><time>2026-05-01T07:10:04.999Z</time></trkpt><trkpt lat="42.48902154319482" lon="14.190124771483102"><ele>2.0</ele><time>2026-05-01T07:10:05.999Z</time></trkpt><trkpt lat="42.48891587074503" lon="14.190240489754313"><ele>2.0</ele><time>2026-05-01T07:10:06.999Z</time></trkpt><trkpt lat="42.48881907090336" lon="14.19037095310087"><ele>2.25</ele><time>2026-05-01T07:10:07.999Z</time></trkpt><trkpt lat="42.488702028040414" lon="14.190486600817058"><ele>2.5</ele><time>2026-05-01T07:10:08.999Z</time></trkpt><trkpt lat="42.48858561727452" lon="14.190605003432795"><ele>2.75</ele><time>2026-05-01T07:10:09.999Z</time></trkpt><trkpt lat="42.48847420197762" lon="14.190722234768653"><ele>3.0</ele><time>2026-05-01T07:10:10.999Z</time></trkpt><trkpt lat="42.48836287625957" lon="14.190836795086987"><ele>3.5</ele><time>2026-05-01T07:10:11.999Z</time></trkpt><trkpt lat="42.48825515313574" lon="14.190952881522275"><ele>4.0</ele><time>2026-05-01T07:10:12.999Z</time></trkpt><trkpt lat="42.48814755381071" lon="14.191062603853846"><ele>4.5</ele><time>2026-05-01T07:10:13.999Z</time></trkpt><trkpt lat="42.48804793919768" lon="14.191175088967906"><ele>5.0</ele><time>2026-05-01T07:10:14.999Z</time></trkpt><trkpt lat="42.487947413911975" lon="14.191290059199478"><ele>5.25</ele><time>2026-05-01T07:10:15.999Z</time></trkpt><trkpt lat="42.48784967426271" lon="14.191400271922383"><ele>5.5</ele><time>2026-05-01T07:10:16.999Z</time></trkpt><trkpt lat="42.48774680338246" lon="14.191511178992359"><ele>5.75</ele><time>2026-05-01T07:10:17.999Z</time></trkpt><trkpt lat="42.48764393649086" lon="14.19163115642494"><ele>6.0</ele><time>2026-05-01T07:10:18.999Z</time></trkpt><trkpt lat="42.48754570092845" lon="14.191753387763793"><ele>6.0</ele><time>2026-05-01T07:10:19.999Z</time></trkpt><trkpt lat="42.48743747409334" lon="14.191871113034468"><ele>6.0</ele><time>2026-05-01T07:10:20.999Z</time></trkpt><trkpt lat="42.4873246396861" lon="14.191987472380015"><ele>6.0</ele><time>2026-05-01T07:10:21.999Z</time></trkpt><trkpt lat="42.487214252252045" lon="14.192104980275325"><ele>6.0</ele><time>2026-05-01T07:10:22.999Z</time></trkpt><trkpt lat="42.48709847643074" lon="14.192223491675074"><ele>5.25</ele><time>2026-05-01T07:10:23.999Z</time></trkpt><trkpt lat="42.486981806187295" lon="14.192345225172955"><ele>4.5</ele><time>2026-05-01T07:10:24.999Z</time></trkpt><trkpt lat="42.48686554982218" lon="14.192468418268872"><ele>3.75</ele><time>2026-05-01T07:10:25.999Z</time></trkpt><trkpt lat="42.48674572444077" lon="14.192588932560426"><ele>3.0</ele><time>2026-05-01T07:10:26.999Z</time></trkpt><trkpt lat="42.48662755818874" lon="14.192702917249287"><ele>3.0</ele><time>2026-05-01T07:10:27.999Z</time></trkpt><trkpt lat="42.48651588444288" lon="14.192823824731217"><ele>3.0</ele><time>2026-05-01T07:10:28.999Z</time></trkpt><trkpt lat="42.48641255369396" lon="14.192942762598324"><ele>3.0</ele><time>2026-05-01T07:10:29.999Z</time></trkpt><trkpt lat="42.486307228147545" lon="14.193058256740237"><ele>3.0</ele><time>2026-05-01T07:10:30.999Z</time></trkpt><trkpt lat="42.48620281297638" lon="14.193181857282907"><ele>3.25</ele><time>2026-05-01T07:10:31.999Z</time></trkpt><trkpt lat="42.48609534454756" lon="14.193288896971131"><ele>3.5</ele><time>2026-05-01T07:10:32.999Z</time></trkpt><trkpt lat="42.485990420647134" lon="14.193401045393474"><ele>3.75</ele><time>2026-05-01T07:10:33.999Z</time></trkpt><trkpt lat="42.48588121625319" lon="14.193511684178448"><ele>4.0</ele><time>2026-05-01T07:10:35Z</time></trkpt><trkpt lat="42.485774488304685" lon="14.193626254044302"><ele>4.0</ele><time>2026-05-01T07:10:36Z</time></trkpt><trkpt lat="42.48566473800175" lon="14.193744755127362"><ele>4.0</ele><time>2026-05-01T07:10:37Z</time></trkpt><trkpt lat="42.48556395627668" lon="14.193862379536597"><ele>4.0</ele><time>2026-05-01T07:10:38Z</time></trkpt><trkpt lat="42.48546466734451" lon="14.19398987379584"><ele>4.0</ele><time>2026-05-01T07:10:39Z</time></trkpt><trkpt lat="42.48536257684494" lon="14.194108704604377"><ele>3.75</ele><time>2026-05-01T07:10:40Z</time></trkpt><trkpt lat="42.485262656926764" lon="14.194230643811904"><ele>3.5</ele><time>2026-05-01T07:10:41Z</time></trkpt><trkpt lat="42.485161730667855" lon="14.194349289820883"><ele>3.25</ele><time>2026-05-01T07:10:42Z</time></trkpt><trkpt lat="42.48506164670798" lon="14.194468826695617"><ele>3.0</ele><time>2026-05-01T07:10:43Z</time></trkpt><trkpt lat="42.484960932334886" lon="14.194593460100446"><ele>3.0</ele><time>2026-05-01T07:10:44Z</time></trkpt><trkpt lat="42.48486473988804" lon="14.194717543987249"><ele>3.0</ele><time>2026-05-01T07:10:45Z</time></trkpt><trkpt lat="42.484771377189986" lon="14.19483626721807"><ele>3.0</ele><time>2026-05-01T07:10:46Z</time></trkpt><trkpt lat="42.48468380514749" lon="14.194956744464134"><ele>3.0</ele><time>2026-05-01T07:10:47Z</time></trkpt><trkpt lat="42.484592170170494" lon="14.195076538428452"><ele>2.75</ele><time>2026-05-01T07:10:48Z</time></trkpt><trkpt lat="42.48449609664819" lon="14.195203129100879"><ele>2.5</ele><time>2026-05-01T07:10:49Z</time></trkpt><trkpt lat="42.48439552471937" lon="14.195325999111576"><ele>2.25</ele><time>2026-05-01T07:10:50Z</time></trkpt><trkpt lat="42.484299219172534" lon="14.195453614623366"><ele>2.0</ele><time>2026-05-01T07:10:51Z</time></trkpt><trkpt lat="42.48420365669935" lon="14.195577993745488"><ele>1.75</ele><time>2026-05-01T07:10:52Z</time></trkpt><trkpt lat="42.48411010285048" lon="14.195703590705714"><ele>1.5</ele><time>2026-05-01T07:10:53Z</time></trkpt><trkpt lat="42.484018340769204" lon="14.195830132907194"><ele>1.25</ele><time>2026-05-01T07:10:54Z</time></trkpt><trkpt lat="42.483925750367426" lon="14.195953385943742"><ele>1.0</ele><time>2026-05-01T07:10:55Z</time></trkpt><trkpt lat="42.48383527354804" lon="14.196082759905693"><ele>2.0</ele><time>2026-05-01T07:10:56Z</time></trkpt><trkpt lat="42.48375204490465" lon="14.196202870242798"><ele>3.0</ele><time>2026-05-01T07:10:57Z</time></trkpt><trkpt lat="42.48366854958321" lon="14.196312734826732"><ele>4.0</ele><time>2026-05-01T07:10:58Z</time></trkpt><trkpt lat="42.48358645385723" lon="14.196424254377801"><ele>5.0</ele><time>2026-05-01T07:10:59Z</time></trkpt><trkpt lat="42.48350172265323" lon="14.196538725634582"><ele>5.25</ele><time>2026-05-01T07:11:00Z</time></trkpt><trkpt lat="42.48341251279283" lon="14.19665302358785"><ele>5.5</ele><time>2026-05-01T07:11:01Z</time></trkpt><trkpt lat="42.483317249578775" lon="14.196761583250163"><ele>5.75</ele><time>2026-05-01T07:11:02Z</time></trkpt><trkpt lat="42.4832239030543" lon="14.196877589195287"><ele>6.0</ele><time>2026-05-01T07:11:02.999Z</time></trkpt><trkpt lat="42.483130240153294" lon="14.19699924041635"><ele>6.0</ele><time>2026-05-01T07:11:03.999Z</time></trkpt><trkpt lat="42.48305200667789" lon="14.197137911839011"><ele>6.0</ele><time>2026-05-01T07:11:04.999Z</time></trkpt><trkpt lat="42.482975336890156" lon="14.197273245050926"><ele>6.0</ele><time>2026-05-01T07:11:05.999Z</time></trkpt><trkpt lat="42.48289993015198" lon="14.197406315728001"><ele>6.0</ele><time>2026-05-01T07:11:06.999Z</time></trkpt><trkpt lat="42.482821940181815" lon="14.19752707458625"><ele>6.199999999999999</ele><time>2026-05-01T07:11:07.999Z</time></trkpt><trkpt lat="42.48275010607877" lon="14.197630489917579"><ele>6.3999999999999995</ele><time>2026-05-01T07:11:08.999Z</time></trkpt><trkpt lat="42.48268261285955" lon="14.197727232764091"><ele>6.6</ele><time>2026-05-01T07:11:09.999Z</time></trkpt><trkpt lat="42.48261846909179" lon="14.197818290579551"><ele>6.8</ele><time>2026-05-01T07:11:10.999Z</time></trkpt><trkpt lat="42.482560461948815" lon="14.19790507835611"><ele>7.0</ele><time>2026-05-01T07:11:11.999Z</time></trkpt><trkpt lat="42.482507169167455" lon="14.19799071871171"><ele>7.0</ele><time>2026-05-01T07:11:12.999Z</time></trkpt><trkpt lat="42.48244468189622" lon="14.198094390291487"><ele>7.0</ele><time>2026-05-01T07:11:13.999Z</time></trkpt><trkpt lat="42.48235968979464" lon="14.19822049147932"><ele>7.0</ele><time>2026-05-01T07:11:14.999Z</time></trkpt><trkpt lat="42.48225613464448" lon="14.198364250669817"><ele>7.0</ele><time>2026-05-01T07:11:15.999Z</time></trkpt><trkpt lat="42.482150377393765" lon="14.198513023437672"><ele>7.0</ele><time>2026-05-01T07:11:16.999Z</time></trkpt><trkpt lat="42.4820513822819" lon="14.198658137806909"><ele>7.0</ele><time>2026-05-01T07:11:17.999Z</time></trkpt><trkpt lat="42.481956033502996" lon="14.198791926808042"><ele>7.0</ele><time>2026-05-01T07:11:18.999Z</time></trkpt><trkpt lat="42.48186462139939" lon="14.198922928649925"><ele>7.0</ele><time>2026-05-01T07:11:19.999Z</time></trkpt><trkpt lat="42.48177556295335" lon="14.199056696971521"><ele>7.0</ele><time>2026-05-01T07:11:20.999Z</time></trkpt><trkpt lat="42.48168729823449" lon="14.19919084114015"><ele>7.0</ele><time>2026-05-01T07:11:21.999Z</time></trkpt><trkpt lat="42.481595326819395" lon="14.199320711699881"><ele>7.0</ele><time>2026-05-01T07:11:22.999Z</time></trkpt><trkpt lat="42.481508747975205" lon="14.199453610644204"><ele>7.0</ele><time>2026-05-01T07:11:23.999Z</time></trkpt><trkpt lat="42.481420324925566" lon="14.199583614459028"><ele>7.0</ele><time>2026-05-01T07:11:24.999Z</time></trkpt><trkpt lat="42.48133034549358" lon="14.199717951960979"><ele>7.0</ele><time>2026-05-01T07:11:25.999Z</time></trkpt><trkpt lat="42.481239764964776" lon="14.199845978683552"><ele>7.0</ele><time>2026-05-01T07:11:26.999Z</time></trkpt><trkpt lat="42.48115227435546" lon="14.199969235920438"><ele>7.0</ele><time>2026-05-01T07:11:27.999Z</time></trkpt><trkpt lat="42.481072164381104" lon="14.200076990192787"><ele>6.0</ele><time>2026-05-01T07:11:28.999Z</time></trkpt><trkpt lat="42.48099767738623" lon="14.200210477669586"><ele>5.0</ele><time>2026-05-01T07:11:29.999Z</time></trkpt><trkpt lat="42.48091816761609" lon="14.20034258884785"><ele>4.0</ele><time>2026-05-01T07:11:30.999Z</time></trkpt><trkpt lat="42.48083101806476" lon="14.200456751934945"><ele>3.0</ele><time>2026-05-01T07:11:31.999Z</time></trkpt><trkpt lat="42.48074782058399" lon="14.200569082955594"><ele>2.75</ele><time>2026-05-01T07:11:32.999Z</time></trkpt><trkpt lat="42.48067017124195" lon="14.200674272866783"><ele>2.5</ele><time>2026-05-01T07:11:33.999Z</time></trkpt><trkpt lat="42.4805967175207" lon="14.20078119042637"><ele>2.25</ele><time>2026-05-01T07:11:34.999Z</time></trkpt><trkpt lat="42.480514890229315" lon="14.200902128650743"><ele>2.0</ele><time>2026-05-01T07:11:35.999Z</time></trkpt><trkpt lat="42.480429953742764" lon="14.201028242062351"><ele>3.0</ele><time>2026-05-01T07:11:36.999Z</time></trkpt><trkpt lat="42.48034093205071" lon="14.20114603486556"><ele>4.0</ele><time>2026-05-01T07:11:37.999Z</time></trkpt><trkpt lat="42.48025183241652" lon="14.201257662743282"><ele>5.0</ele><time>2026-05-01T07:11:38.999Z</time></trkpt><trkpt lat="42.48016308851687" lon="14.201368367503331"><ele>6.0</ele><time>2026-05-01T07:11:39.999Z</time></trkpt><trkpt lat="42.48010018843786" lon="14.20149126946563"><ele>5.75</ele><time>2026-05-01T07:11:40.999Z</time></trkpt><trkpt lat="42.480025467255835" lon="14.201611354574684"><ele>5.5</ele><time>2026-05-01T07:11:41.999Z</time></trkpt><trkpt lat="42.4799432697941" lon="14.201731490449024"><ele>5.25</ele><time>2026-05-01T07:11:42.999Z</time></trkpt><trkpt lat="42.479860392780054" lon="14.201851758420771"><ele>5.0</ele><time>2026-05-01T07:11:43.999Z</time></trkpt><trkpt lat="42.47978400931858" lon="14.201979350558329"><ele>5.0</ele><time>2026-05-01T07:11:44.999Z</time></trkpt><trkpt lat="42.47969722450714" lon="14.20210529998346"><ele>5.0</ele><time>2026-05-01T07:11:45.999Z</time></trkpt><trkpt lat="42.47960656740575" lon="14.202223123289906"><ele>5.0</ele><time>2026-05-01T07:11:46.999Z</time></trkpt><trkpt lat="42.47952334635072" lon="14.202342482770808"><ele>5.0</ele><time>2026-05-01T07:11:47.999Z</time></trkpt><trkpt lat="42.47944158233179" lon="14.202460794250156"><ele>4.75</ele><time>2026-05-01T07:11:48.999Z</time></trkpt><trkpt lat="42.47936210267621" lon="14.202578045238122"><ele>4.5</ele><time>2026-05-01T07:11:49.999Z</time></trkpt><trkpt lat="42.479285893870234" lon="14.202696315766236"><ele>4.25</ele><time>2026-05-01T07:11:50.999Z</time></trkpt><trkpt lat="42.47921028882543" lon="14.202808946141642"><ele>4.0</ele><time>2026-05-01T07:11:51.999Z</time></trkpt><trkpt lat="42.47913364791707" lon="14.20291789837269"><ele>4.0</ele><time>2026-05-01T07:11:52.999Z</time></trkpt><trkpt lat="42.479054848093064" lon="14.203030943893728"><ele>4.0</ele><time>2026-05-01T07:11:53.999Z</time></trkpt><trkpt lat="42.47897904498071" lon="14.203146292811024"><ele>4.0</ele><time>2026-05-01T07:11:54.999Z</time></trkpt><trkpt lat="42.47890076869095" lon="14.20326549749481"><ele>4.0</ele><time>2026-05-01T07:11:55.999Z</time></trkpt><trkpt lat="42.47882620727079" lon="14.203374270164318"><ele>4.800000000000001</ele><time>2026-05-01T07:11:56.999Z</time></trkpt><trkpt lat="42.4787499609837" lon="14.203480851163024"><ele>5.6000000000000005</ele><time>2026-05-01T07:11:57.999Z</time></trkpt><trkpt lat="42.47868138351303" lon="14.203582761591512"><ele>6.4</ele><time>2026-05-01T07:11:58.999Z</time></trkpt><trkpt lat="42.478606993930256" lon="14.203688299921984"><ele>7.2</ele><time>2026-05-01T07:11:59.999Z</time></trkpt><trkpt lat="42.478532176677184" lon="14.203795785169138"><ele>8.0</ele><time>2026-05-01T07:12:00.999Z</time></trkpt><trkpt lat="42.478463629966186" lon="14.203899995021098"><ele>7.0</ele><time>2026-05-01T07:12:01.999Z</time></trkpt><trkpt lat="42.47839462444825" lon="14.204008021271418"><ele>6.0</ele><time>2026-05-01T07:12:02.999Z</time></trkpt><trkpt lat="42.47832118759369" lon="14.204118902665055"><ele>5.0</ele><time>2026-05-01T07:12:03.999Z</time></trkpt><trkpt lat="42.47824316721108" lon="14.204237812159683"><ele>4.0</ele><time>2026-05-01T07:12:04.999Z</time></trkpt><trkpt lat="42.478164182582155" lon="14.20435697748636"><ele>4.0</ele><time>2026-05-01T07:12:05.999Z</time></trkpt><trkpt lat="42.478079500573905" lon="14.204471438186564"><ele>4.0</ele><time>2026-05-01T07:12:06.999Z</time></trkpt><trkpt lat="42.47800060396143" lon="14.2045889264732"><ele>4.0</ele><time>2026-05-01T07:12:07.999Z</time></trkpt><trkpt lat="42.477920485386136" lon="14.204706993735506"><ele>4.0</ele><time>2026-05-01T07:12:08.999Z</time></trkpt><trkpt lat="42.47784140100356" lon="14.204822277893177"><ele>4.5</ele><time>2026-05-01T07:12:09.999Z</time></trkpt><trkpt lat="42.47776349956879" lon="14.204937844157607"><ele>5.0</ele><time>2026-05-01T07:12:10.999Z</time></trkpt><trkpt lat="42.47768460324129" lon="14.205055415231024"><ele>5.5</ele><time>2026-05-01T07:12:11.999Z</time></trkpt><trkpt lat="42.477608355369306" lon="14.205167692120474"><ele>6.0</ele><time>2026-05-01T07:12:12.999Z</time></trkpt><trkpt lat="42.47753385978375" lon="14.205268172368056"><ele>6.0</ele><time>2026-05-01T07:12:13.999Z</time></trkpt><trkpt lat="42.47746742456915" lon="14.205363312040403"><ele>6.0</ele><time>2026-05-01T07:12:14.999Z</time></trkpt><trkpt lat="42.47739460294358" lon="14.205468759200283"><ele>6.0</ele><time>2026-05-01T07:12:15.999Z</time></trkpt><trkpt lat="42.477322581152436" lon="14.205569763544085"><ele>6.0</ele><time>2026-05-01T07:12:16.999Z</time></trkpt><trkpt lat="42.4772566892745" lon="14.205668701302898"><ele>6.0</ele><time>2026-05-01T07:12:17.998Z</time></trkpt><trkpt lat="42.47719972140079" lon="14.20575845506578"><ele>5.833333333333333</ele><time>2026-05-01T07:12:18.998Z</time></trkpt><trkpt lat="42.477145322874094" lon="14.205844815371286"><ele>5.666666666666667</ele><time>2026-05-01T07:12:19.998Z</time></trkpt><trkpt lat="42.47709065454249" lon="14.205927789522795"><ele>5.5</ele><time>2026-05-01T07:12:20.998Z</time></trkpt><trkpt lat="42.47703715848829" lon="14.206016082926842"><ele>5.333333333333334</ele><time>2026-05-01T07:12:21.998Z</time></trkpt><trkpt lat="42.476976713688714" lon="14.206110652365636"><ele>5.166666666666667</ele><time>2026-05-01T07:12:22.998Z</time></trkpt><trkpt lat="42.47691990099505" lon="14.206205865571741"><ele>5.0</ele><time>2026-05-01T07:12:23.998Z</time></trkpt><trkpt lat="42.476837099155965" lon="14.206316552503152"><ele>5.0</ele><time>2026-05-01T07:12:24.998Z</time></trkpt><trkpt lat="42.47674384293189" lon="14.206452907306879"><ele>5.0</ele><time>2026-05-01T07:12:25.998Z</time></trkpt><trkpt lat="42.47665409736569" lon="14.206575794219455"><ele>5.0</ele><time>2026-05-01T07:12:26.998Z</time></trkpt><trkpt lat="42.476558771000576" lon="14.20671313623943"><ele>5.0</ele><time>2026-05-01T07:12:27.998Z</time></trkpt><trkpt lat="42.476465074503245" lon="14.206850160944011"><ele>5.25</ele><time>2026-05-01T07:12:28.998Z</time></trkpt><trkpt lat="42.4763779888142" lon="14.206972536320027"><ele>5.5</ele><time>2026-05-01T07:12:29.998Z</time></trkpt><trkpt lat="42.476286305937755" lon="14.207085388506185"><ele>5.75</ele><time>2026-05-01T07:12:30.998Z</time></trkpt><trkpt lat="42.47620032447667" lon="14.207200355569947"><ele>6.0</ele><time>2026-05-01T07:12:31.998Z</time></trkpt><trkpt lat="42.47612359878538" lon="14.207317017283952"><ele>5.6</ele><time>2026-05-01T07:12:32.998Z</time></trkpt><trkpt lat="42.47605339331246" lon="14.207428208305144"><ele>5.199999999999999</ele><time>2026-05-01T07:12:33.999Z</time></trkpt><trkpt lat="42.475977515960956" lon="14.207540736801475"><ele>4.800000000000001</ele><time>2026-05-01T07:12:34.999Z</time></trkpt><trkpt lat="42.475905252167" lon="14.207651327287914"><ele>4.4</ele><time>2026-05-01T07:12:35.999Z</time></trkpt><trkpt lat="42.475850000170844" lon="14.20773561979744"><ele>4.0</ele><time>2026-05-01T07:12:36.999Z</time></trkpt><trkpt lat="42.47576930405124" lon="14.207851771203348"><ele>4.0</ele><time>2026-05-01T07:12:38.999Z</time></trkpt><trkpt lat="42.475707365229795" lon="14.207939540108999"><ele>4.0</ele><time>2026-05-01T07:12:39.999Z</time></trkpt><trkpt lat="42.4756286056251" lon="14.208060406629789"><ele>4.0</ele><time>2026-05-01T07:12:40.999Z</time></trkpt><trkpt lat="42.47554744895244" lon="14.208184246948155"><ele>4.0</ele><time>2026-05-01T07:12:41.999Z</time></trkpt><trkpt lat="42.4754670971756" lon="14.208298578473492"><ele>4.0</ele><time>2026-05-01T07:12:42.999Z</time></trkpt><trkpt lat="42.475383110908844" lon="14.208417414772676"><ele>4.25</ele><time>2026-05-01T07:12:43.999Z</time></trkpt><trkpt lat="42.475301077634235" lon="14.208535003580419"><ele>4.5</ele><time>2026-05-01T07:12:44.999Z</time></trkpt><trkpt lat="42.4752286472176" lon="14.20866062505327"><ele>4.75</ele><time>2026-05-01T07:12:45.999Z</time></trkpt><trkpt lat="42.47515068840708" lon="14.208785265184497"><ele>5.0</ele><time>2026-05-01T07:12:46.999Z</time></trkpt><trkpt lat="42.47506365510291" lon="14.20890387196383"><ele>3.75</ele><time>2026-05-01T07:12:47.999Z</time></trkpt><trkpt lat="42.47498283161167" lon="14.209021092052891"><ele>2.5</ele><time>2026-05-01T07:12:48.999Z</time></trkpt><trkpt lat="42.47489812534844" lon="14.209150036573234"><ele>1.25</ele><time>2026-05-01T07:12:49.999Z</time></trkpt><trkpt lat="42.474814043821965" lon="14.209269837191941"><ele>0.0</ele><time>2026-05-01T07:12:50.999Z</time></trkpt><trkpt lat="42.47473337234243" lon="14.209378071655895"><ele>0.0</ele><time>2026-05-01T07:12:51.999Z</time></trkpt><trkpt lat="42.47465295902399" lon="14.209477887004617"><ele>0.0</ele><time>2026-05-01T07:12:52.999Z</time></trkpt><trkpt lat="42.47458273787699" lon="14.209575706435173"><ele>0.0</ele><time>2026-05-01T07:12:53.999Z</time></trkpt><trkpt lat="42.47452185272236" lon="14.209674676083806"><ele>0.0</ele><time>2026-05-01T07:12:54.999Z</time></trkpt><trkpt lat="42.474455458805295" lon="14.209785312810858"><ele>0.0</ele><time>2026-05-01T07:12:55.999Z</time></trkpt><trkpt lat="42.47438425838635" lon="14.20989352207573"><ele>0.4</ele><time>2026-05-01T07:12:56.999Z</time></trkpt><trkpt lat="42.4743126205051" lon="14.209991934892496"><ele>0.8</ele><time>2026-05-01T07:12:57.999Z</time></trkpt><trkpt lat="42.47424763809198" lon="14.210087970366548"><ele>1.2000000000000002</ele><time>2026-05-01T07:12:58.999Z</time></trkpt><trkpt lat="42.47418155624143" lon="14.210182517458566"><ele>1.6</ele><time>2026-05-01T07:12:59.999Z</time></trkpt><trkpt lat="42.47411417947277" lon="14.210278913021563"><ele>2.0</ele><time>2026-05-01T07:13:00.999Z</time></trkpt><trkpt lat="42.474045471749676" lon="14.210385548182744"><ele>1.9999999999999998</ele><time>2026-05-01T07:13:01.999Z</time></trkpt><trkpt lat="42.473983285493844" lon="14.210477799822812"><ele>2.0</ele><time>2026-05-01T07:13:02.999Z</time></trkpt><trkpt lat="42.47393162536096" lon="14.210563766542563"><ele>2.0</ele><time>2026-05-01T07:13:03.999Z</time></trkpt><trkpt lat="42.47387041150418" lon="14.210652846778267"><ele>2.0</ele><time>2026-05-01T07:13:04.999Z</time></trkpt><trkpt lat="42.47380261525381" lon="14.21074210907244"><ele>1.9999999999999998</ele><time>2026-05-01T07:13:05.999Z</time></trkpt><trkpt lat="42.473745482509514" lon="14.210809900417848"><ele>2.0</ele><time>2026-05-01T07:13:06.999Z</time></trkpt><trkpt lat="42.473695216551704" lon="14.210864518839273"><ele>2.5</ele><time>2026-05-01T07:13:07.999Z</time></trkpt><trkpt lat="42.473646273664805" lon="14.210919516029938"><ele>3.0</ele><time>2026-05-01T07:13:08.999Z</time></trkpt><trkpt lat="42.4735986299013" lon="14.210983698531905"><ele>3.5</ele><time>2026-05-01T07:13:09.999Z</time></trkpt><trkpt lat="42.473559738335865" lon="14.211051187112272"><ele>4.0</ele><time>2026-05-01T07:13:10.999Z</time></trkpt><trkpt lat="42.473484877576446" lon="14.2111920437793"><ele>4.5</ele><time>2026-05-01T07:13:12.999Z</time></trkpt><trkpt lat="42.47343708203562" lon="14.211272630464093"><ele>5.0</ele><time>2026-05-01T07:13:13.999Z</time></trkpt><trkpt lat="42.47338813945177" lon="14.211353558370762"><ele>5.0</ele><time>2026-05-01T07:13:14.999Z</time></trkpt><trkpt lat="42.473329727922426" lon="14.211434822600632"><ele>5.0</ele><time>2026-05-01T07:13:15.999Z</time></trkpt><trkpt lat="42.473272242445695" lon="14.211519432148197"><ele>5.0</ele><time>2026-05-01T07:13:16.999Z</time></trkpt><trkpt lat="42.47321794990317" lon="14.211612757981271"><ele>5.0</ele><time>2026-05-01T07:13:17.999Z</time></trkpt><trkpt lat="42.47316572688258" lon="14.211712928480438"><ele>5.0</ele><time>2026-05-01T07:13:18.999Z</time></trkpt><trkpt lat="42.47310853697406" lon="14.211811776005046"><ele>5.0</ele><time>2026-05-01T07:13:19.999Z</time></trkpt><trkpt lat="42.4730493112899" lon="14.211912728831614"><ele>5.0</ele><time>2026-05-01T07:13:20.999Z</time></trkpt><trkpt lat="42.47299375932836" lon="14.21201681540817"><ele>5.0</ele><time>2026-05-01T07:13:21.999Z</time></trkpt><trkpt lat="42.47294180296295" lon="14.212115600249993"><ele>5.0</ele><time>2026-05-01T07:13:22.999Z</time></trkpt><trkpt lat="42.472881804243485" lon="14.212218353166444"><ele>5.0</ele><time>2026-05-01T07:13:23.999Z</time></trkpt><trkpt lat="42.472822794924895" lon="14.212316160860782"><ele>5.0</ele><time>2026-05-01T07:13:24.999Z</time></trkpt><trkpt lat="42.472768917576026" lon="14.212405976629404"><ele>4.666666666666667</ele><time>2026-05-01T07:13:25.999Z</time></trkpt><trkpt lat="42.4727203869746" lon="14.21248716404715"><ele>4.333333333333334</ele><time>2026-05-01T07:13:26.999Z</time></trkpt><trkpt lat="42.47267426987725" lon="14.212567172788566"><ele>4.0</ele><time>2026-05-01T07:13:27.999Z</time></trkpt><trkpt lat="42.47262137380911" lon="14.212656826424773"><ele>3.666666666666667</ele><time>2026-05-01T07:13:28.999Z</time></trkpt><trkpt lat="42.472563713703565" lon="14.212758492070334"><ele>3.3333333333333335</ele><time>2026-05-01T07:13:29.999Z</time></trkpt><trkpt lat="42.472507033525325" lon="14.212860802018106"><ele>3.0</ele><time>2026-05-01T07:13:30.999Z</time></trkpt><trkpt lat="42.47245658932971" lon="14.212951730637393"><ele>3.0</ele><time>2026-05-01T07:13:31.999Z</time></trkpt><trkpt lat="42.47241096833776" lon="14.213037558203919"><ele>3.0</ele><time>2026-05-01T07:13:32.999Z</time></trkpt><trkpt lat="42.47236353535412" lon="14.213120682828864"><ele>3.0</ele><time>2026-05-01T07:13:33.999Z</time></trkpt><trkpt lat="42.47230941554806" lon="14.213216108100369"><ele>3.0</ele><time>2026-05-01T07:13:34.999Z</time></trkpt><trkpt lat="42.472255280735375" lon="14.21331261007858"><ele>3.0</ele><time>2026-05-01T07:13:35.999Z</time></trkpt><trkpt lat="42.472195491809785" lon="14.213411073497333"><ele>3.0</ele><time>2026-05-01T07:13:36.999Z</time></trkpt><trkpt lat="42.47213412083856" lon="14.213513661637984"><ele>3.5999999999999996</ele><time>2026-05-01T07:13:37.999Z</time></trkpt><trkpt lat="42.47206649380534" lon="14.213609109276291"><ele>4.199999999999999</ele><time>2026-05-01T07:13:38.999Z</time></trkpt><trkpt lat="42.471994520723335" lon="14.21370807648032"><ele>4.8</ele><time>2026-05-01T07:13:39.999Z</time></trkpt><trkpt lat="42.47191132669532" lon="14.213816437829438"><ele>5.3999999999999995</ele><time>2026-05-01T07:13:40.999Z</time></trkpt><trkpt lat="42.47183394223382" lon="14.213928705498494"><ele>6.0</ele><time>2026-05-01T07:13:41.999Z</time></trkpt><trkpt lat="42.47180217655748" lon="14.214080585932349"><ele>6.0</ele><time>2026-05-01T07:13:42.999Z</time></trkpt><trkpt lat="42.47172822225748" lon="14.214212372060835"><ele>6.0</ele><time>2026-05-01T07:13:43.999Z</time></trkpt><trkpt lat="42.47165129899687" lon="14.214348383819654"><ele>6.0</ele><time>2026-05-01T07:13:44.999Z</time></trkpt><trkpt lat="42.47157831757125" lon="14.214480810800412"><ele>6.0</ele><time>2026-05-01T07:13:45.999Z</time></trkpt><trkpt lat="42.471496720987425" lon="14.21460805157969"><ele>6.0</ele><time>2026-05-01T07:13:46.999Z</time></trkpt><trkpt lat="42.47142104166373" lon="14.214747215342536"><ele>6.0</ele><time>2026-05-01T07:13:47.999Z</time></trkpt><trkpt lat="42.471341052141916" lon="14.214885199951192"><ele>6.0</ele><time>2026-05-01T07:13:48.999Z</time></trkpt><trkpt lat="42.4712490686521" lon="14.21501999852889"><ele>6.0</ele><time>2026-05-01T07:13:49.999Z</time></trkpt><trkpt lat="42.47115296566688" lon="14.215158227243938"><ele>6.0</ele><time>2026-05-01T07:13:50.999Z</time></trkpt><trkpt lat="42.4710654147526" lon="14.215296935943455"><ele>6.0</ele><time>2026-05-01T07:13:51.999Z</time></trkpt><trkpt lat="42.47098742479338" lon="14.21542751749265"><ele>6.0</ele><time>2026-05-01T07:13:52.999Z</time></trkpt><trkpt lat="42.47091915264755" lon="14.215550321000816"><ele>6.0</ele><time>2026-05-01T07:13:53.999Z</time></trkpt><trkpt lat="42.47085052555907" lon="14.21567345783245"><ele>6.5</ele><time>2026-05-01T07:13:54.999Z</time></trkpt><trkpt lat="42.470782400903055" lon="14.215801732875939"><ele>7.0</ele><time>2026-05-01T07:13:55.999Z</time></trkpt><trkpt lat="42.470712904909654" lon="14.215937727492902"><ele>7.5</ele><time>2026-05-01T07:13:56.999Z</time></trkpt><trkpt lat="42.470640356688456" lon="14.21607449360362"><ele>8.0</ele><time>2026-05-01T07:13:57.999Z</time></trkpt><trkpt lat="42.47056192318574" lon="14.216218409187274"><ele>8.0</ele><time>2026-05-01T07:13:58.999Z</time></trkpt><trkpt lat="42.47048864015796" lon="14.216346452943279"><ele>8.0</ele><time>2026-05-01T07:13:59.999Z</time></trkpt><trkpt lat="42.47041240643886" lon="14.216478468529571"><ele>8.0</ele><time>2026-05-01T07:14:00.999Z</time></trkpt><trkpt lat="42.47033086217013" lon="14.216610008038396"><ele>8.0</ele><time>2026-05-01T07:14:01.999Z</time></trkpt><trkpt lat="42.470247053614074" lon="14.216736844555665"><ele>7.2</ele><time>2026-05-01T07:14:02.999Z</time></trkpt><trkpt lat="42.47017122608086" lon="14.21686442265052"><ele>6.4</ele><time>2026-05-01T07:14:03.999Z</time></trkpt><trkpt lat="42.47009956714821" lon="14.216987595908344"><ele>5.6000000000000005</ele><time>2026-05-01T07:14:04.999Z</time></trkpt><trkpt lat="42.47003315610787" lon="14.217098306294616"><ele>4.800000000000001</ele><time>2026-05-01T07:14:05.999Z</time></trkpt><trkpt lat="42.469972081771964" lon="14.217210070169132"><ele>4.0</ele><time>2026-05-01T07:14:06.999Z</time></trkpt><trkpt lat="42.46991701099407" lon="14.217306307423666"><ele>4.0</ele><time>2026-05-01T07:14:07.999Z</time></trkpt><trkpt lat="42.46985306466391" lon="14.217414345545256"><ele>4.0</ele><time>2026-05-01T07:14:08.999Z</time></trkpt><trkpt lat="42.469784948885405" lon="14.2175221426687"><ele>4.0</ele><time>2026-05-01T07:14:09.999Z</time></trkpt><trkpt lat="42.46971401088427" lon="14.217648722536133"><ele>4.0</ele><time>2026-05-01T07:14:10.999Z</time></trkpt><trkpt lat="42.469642567060504" lon="14.217774840026513"><ele>4.0</ele><time>2026-05-01T07:14:11.999Z</time></trkpt><trkpt lat="42.46957470109772" lon="14.217889646987269"><ele>4.0</ele><time>2026-05-01T07:14:12.999Z</time></trkpt><trkpt lat="42.46950407024453" lon="14.218005099102994"><ele>4.0</ele><time>2026-05-01T07:14:13.999Z</time></trkpt><trkpt lat="42.469434169100545" lon="14.218130045371467"><ele>4.0</ele><time>2026-05-01T07:14:14.999Z</time></trkpt><trkpt lat="42.46936648782703" lon="14.21824663599337"><ele>4.0</ele><time>2026-05-01T07:14:15.999Z</time></trkpt><trkpt lat="42.469302869158426" lon="14.21835768392149"><ele>4.0</ele><time>2026-05-01T07:14:16.999Z</time></trkpt><trkpt lat="42.469236945063365" lon="14.21844449989213"><ele>4.0</ele><time>2026-05-01T07:14:17.999Z</time></trkpt><trkpt lat="42.46917555759247" lon="14.218569143469107"><ele>4.0</ele><time>2026-05-01T07:14:18.999Z</time></trkpt><trkpt lat="42.46910736610277" lon="14.218685715927034"><ele>4.0</ele><time>2026-05-01T07:14:19.999Z</time></trkpt><trkpt lat="42.469053648558635" lon="14.218793772957527"><ele>4.0</ele><time>2026-05-01T07:14:20.999Z</time></trkpt><trkpt lat="42.46899631599101" lon="14.218891102722333"><ele>4.0</ele><time>2026-05-01T07:14:21.999Z</time></trkpt><trkpt lat="42.468944659884635" lon="14.218981786668746"><ele>4.2</ele><time>2026-05-01T07:14:22.999Z</time></trkpt><trkpt lat="42.46888407072286" lon="14.219083994229004"><ele>4.4</ele><time>2026-05-01T07:14:23.998Z</time></trkpt><trkpt lat="42.46881159690101" lon="14.219199326377034"><ele>4.6</ele><time>2026-05-01T07:14:24.998Z</time></trkpt><trkpt lat="42.4687357559375" lon="14.219321719836048"><ele>4.8</ele><time>2026-05-01T07:14:25.998Z</time></trkpt><trkpt lat="42.468661609041746" lon="14.21944755058978"><ele>5.0</ele><time>2026-05-01T07:14:26.998Z</time></trkpt><trkpt lat="42.46858663101261" lon="14.219581786941278"><ele>5.0</ele><time>2026-05-01T07:14:27.998Z</time></trkpt><trkpt lat="42.46850862859394" lon="14.219714268919436"><ele>5.0</ele><time>2026-05-01T07:14:28.998Z</time></trkpt><trkpt lat="42.46843258028524" lon="14.219849152088909"><ele>5.0</ele><time>2026-05-01T07:14:29.998Z</time></trkpt><trkpt lat="42.4683550598253" lon="14.219981355868674"><ele>5.0</ele><time>2026-05-01T07:14:30.998Z</time></trkpt><trkpt lat="42.46828553715574" lon="14.220101287418364"><ele>4.6</ele><time>2026-05-01T07:14:31.998Z</time></trkpt><trkpt lat="42.46822241515558" lon="14.220210875291325"><ele>4.2</ele><time>2026-05-01T07:14:32.998Z</time></trkpt><trkpt lat="42.46815835237908" lon="14.220318803023186"><ele>3.8</ele><time>2026-05-01T07:14:33.998Z</time></trkpt><trkpt lat="42.46809228152957" lon="14.220429862790516"><ele>3.4</ele><time>2026-05-01T07:14:34.998Z</time></trkpt><trkpt lat="42.46801925849514" lon="14.220547349741665"><ele>3.0</ele><time>2026-05-01T07:14:35.998Z</time></trkpt><trkpt lat="42.46794847089657" lon="14.220669315468463"><ele>2.8</ele><time>2026-05-01T07:14:36.999Z</time></trkpt><trkpt lat="42.46788123660896" lon="14.220792333787323"><ele>2.5999999999999996</ele><time>2026-05-01T07:14:37.999Z</time></trkpt><trkpt lat="42.46781141882744" lon="14.220910253909894"><ele>2.4000000000000004</ele><time>2026-05-01T07:14:38.999Z</time></trkpt><trkpt lat="42.46774758116363" lon="14.221014775655343"><ele>2.2</ele><time>2026-05-01T07:14:39.999Z</time></trkpt><trkpt lat="42.467689414137254" lon="14.22111439717298"><ele>2.0</ele><time>2026-05-01T07:14:40.999Z</time></trkpt><trkpt lat="42.46763108673406" lon="14.221211166862828"><ele>2.0</ele><time>2026-05-01T07:14:41.999Z</time></trkpt><trkpt lat="42.46757177796721" lon="14.221314614971787"><ele>2.0</ele><time>2026-05-01T07:14:42.999Z</time></trkpt><trkpt lat="42.46750917154421" lon="14.221426324460415"><ele>2.0</ele><time>2026-05-01T07:14:43.999Z</time></trkpt><trkpt lat="42.46744312616937" lon="14.221546169249784"><ele>2.0</ele><time>2026-05-01T07:14:44.999Z</time></trkpt><trkpt lat="42.46737291764573" lon="14.221662897719327"><ele>2.0</ele><time>2026-05-01T07:14:45.999Z</time></trkpt><trkpt lat="42.467299709034776" lon="14.221781141059555"><ele>1.8</ele><time>2026-05-01T07:14:46.999Z</time></trkpt><trkpt lat="42.46723721359655" lon="14.221882689788337"><ele>1.6</ele><time>2026-05-01T07:14:47.999Z</time></trkpt><trkpt lat="42.467171859658315" lon="14.221970902131005"><ele>1.4000000000000001</ele><time>2026-05-01T07:14:48.999Z</time></trkpt><trkpt lat="42.46709390715048" lon="14.22204285073326"><ele>1.2000000000000002</ele><time>2026-05-01T07:14:49.999Z</time></trkpt><trkpt lat="42.46700330703059" lon="14.222095428156942"><ele>1.0</ele><time>2026-05-01T07:14:50.999Z</time></trkpt><trkpt lat="42.46690140339796" lon="14.222127048666485"><ele>1.75</ele><time>2026-05-01T07:14:51.999Z</time></trkpt><trkpt lat="42.466792499463644" lon="14.222126502647635"><ele>2.5</ele><time>2026-05-01T07:14:52.999Z</time></trkpt><trkpt lat="42.46667178238365" lon="14.222094139783234"><ele>3.25</ele><time>2026-05-01T07:14:53.999Z</time></trkpt><trkpt lat="42.46653821114402" lon="14.222022700784622"><ele>4.0</ele><time>2026-05-01T07:14:54.999Z</time></trkpt><trkpt lat="42.466423280017025" lon="14.22192357824863"><ele>4.0</ele><time>2026-05-01T07:14:55.999Z</time></trkpt><trkpt lat="42.46630814908421" lon="14.22182904858872"><ele>4.0</ele><time>2026-05-01T07:14:56.999Z</time></trkpt><trkpt lat="42.46620937899949" lon="14.221751807660597"><ele>4.0</ele><time>2026-05-01T07:14:57.999Z</time></trkpt><trkpt lat="42.46611435859531" lon="14.221691671403768"><ele>4.0</ele><time>2026-05-01T07:14:58.999Z</time></trkpt><trkpt lat="42.46603902397263" lon="14.221596118945891"><ele>3.75</ele><time>2026-05-01T07:14:59.999Z</time></trkpt><trkpt lat="42.46597200196775" lon="14.221496261095458"><ele>3.5</ele><time>2026-05-01T07:15:00.999Z</time></trkpt><trkpt lat="42.46590510938347" lon="14.221373360739872"><ele>3.25</ele><time>2026-05-01T07:15:01.999Z</time></trkpt><trkpt lat="42.46584752422712" lon="14.221223965250113"><ele>3.0</ele><time>2026-05-01T07:15:02.999Z</time></trkpt><trkpt lat="42.46579686719066" lon="14.221063468649989"><ele>3.8</ele><time>2026-05-01T07:15:03.999Z</time></trkpt><trkpt lat="42.46575850379795" lon="14.220903368666956"><ele>4.6</ele><time>2026-05-01T07:15:04.999Z</time></trkpt><trkpt lat="42.46572075065614" lon="14.220762083002727"><ele>5.3999999999999995</ele><time>2026-05-01T07:15:05.999Z</time></trkpt><trkpt lat="42.46568574923669" lon="14.220627474327129"><ele>6.199999999999999</ele><time>2026-05-01T07:15:06.999Z</time></trkpt><trkpt lat="42.46564973205489" lon="14.220491167805251"><ele>7.0</ele><time>2026-05-01T07:15:07.999Z</time></trkpt><trkpt lat="42.465616382683606" lon="14.220367026497225"><ele>6.666666666666667</ele><time>2026-05-01T07:15:08.999Z</time></trkpt><trkpt lat="42.465589354527175" lon="14.220249126482594"><ele>6.333333333333334</ele><time>2026-05-01T07:15:09.999Z</time></trkpt><trkpt lat="42.46556292157208" lon="14.220140209910932"><ele>6.0</ele><time>2026-05-01T07:15:10.999Z</time></trkpt><trkpt lat="42.46553615467263" lon="14.220038739331633"><ele>5.666666666666667</ele><time>2026-05-01T07:15:11.999Z</time></trkpt><trkpt lat="42.46550958090988" lon="14.219925475985312"><ele>5.333333333333334</ele><time>2026-05-01T07:15:12.999Z</time></trkpt><trkpt lat="42.465481695880634" lon="14.219819245778599"><ele>5.0</ele><time>2026-05-01T07:15:13.999Z</time></trkpt><trkpt lat="42.465467181653395" lon="14.219688983058889"><ele>4.8</ele><time>2026-05-01T07:15:14.999Z</time></trkpt><trkpt lat="42.465437653521796" lon="14.219568685333703"><ele>4.6</ele><time>2026-05-01T07:15:15.999Z</time></trkpt><trkpt lat="42.46539130323316" lon="14.219442867078817"><ele>4.4</ele><time>2026-05-01T07:15:16.999Z</time></trkpt><trkpt lat="42.46535866354111" lon="14.219309995563673"><ele>4.2</ele><time>2026-05-01T07:15:17.999Z</time></trkpt><trkpt lat="42.46533172036006" lon="14.21918430317475"><ele>4.0</ele><time>2026-05-01T07:15:18.999Z</time></trkpt><trkpt lat="42.46530702236098" lon="14.219069812613087"><ele>3.833333333333333</ele><time>2026-05-01T07:15:19.999Z</time></trkpt><trkpt lat="42.465274923579784" lon="14.218949974015326"><ele>3.6666666666666665</ele><time>2026-05-01T07:15:20.999Z</time></trkpt><trkpt lat="42.46524475912517" lon="14.21882607492887"><ele>3.5</ele><time>2026-05-01T07:15:21.999Z</time></trkpt><trkpt lat="42.46522936315848" lon="14.218715359645062"><ele>3.333333333333333</ele><time>2026-05-01T07:15:22.999Z</time></trkpt><trkpt lat="42.46521891364055" lon="14.218609541834457"><ele>3.1666666666666665</ele><time>2026-05-01T07:15:25Z</time></trkpt><trkpt lat="42.46514595888893" lon="14.218552222877424"><ele>3.0</ele><time>2026-05-01T07:15:27Z</time></trkpt><trkpt lat="42.465079968861495" lon="14.218569247010075"><ele>3.0</ele><time>2026-05-01T07:15:28Z</time></trkpt><trkpt lat="42.46501047684569" lon="14.218587797853438"><ele>3.0</ele><time>2026-05-01T07:15:29Z</time></trkpt><trkpt lat="42.46495115068689" lon="14.218554324239046"><ele>3.0</ele><time>2026-05-01T07:15:30Z</time></trkpt><trkpt lat="42.46491312216688" lon="14.21845946700905"><ele>3.0</ele><time>2026-05-01T07:15:31Z</time></trkpt><trkpt lat="42.46487561616427" lon="14.218313416517598"><ele>3.0</ele><time>2026-05-01T07:15:32Z</time></trkpt><trkpt lat="42.46483985502895" lon="14.218179957587415"><ele>3.0</ele><time>2026-05-01T07:15:33Z</time></trkpt><trkpt lat="42.46480307123951" lon="14.218044109625994"><ele>4.25</ele><time>2026-05-01T07:15:34Z</time></trkpt><trkpt lat="42.464766561705986" lon="14.217891707255522"><ele>5.5</ele><time>2026-05-01T07:15:35Z</time></trkpt><trkpt lat="42.46473243627075" lon="14.217745081745733"><ele>6.75</ele><time>2026-05-01T07:15:36Z</time></trkpt><trkpt lat="42.46468943851782" lon="14.217601327403209"><ele>8.0</ele><time>2026-05-01T07:15:37Z</time></trkpt><trkpt lat="42.46464974779155" lon="14.217447732320721"><ele>7.0</ele><time>2026-05-01T07:15:38Z</time></trkpt><trkpt lat="42.46460995098682" lon="14.217281643910734"><ele>6.0</ele><time>2026-05-01T07:15:39Z</time></trkpt><trkpt lat="42.4645742059459" lon="14.217125598058018"><ele>5.0</ele><time>2026-05-01T07:15:40Z</time></trkpt><trkpt lat="42.46452642783825" lon="14.216966947542726"><ele>4.0</ele><time>2026-05-01T07:15:41Z</time></trkpt><trkpt lat="42.46446496538206" lon="14.216818768080277"><ele>4.0</ele><time>2026-05-01T07:15:42Z</time></trkpt><trkpt lat="42.46439021641361" lon="14.216653918834211"><ele>4.0</ele><time>2026-05-01T07:15:43Z</time></trkpt><trkpt lat="42.46431878359567" lon="14.216512848888543"><ele>4.0</ele><time>2026-05-01T07:15:44Z</time></trkpt><trkpt lat="42.46425380017943" lon="14.216347010555333"><ele>4.0</ele><time>2026-05-01T07:15:45Z</time></trkpt><trkpt lat="42.464187234560576" lon="14.216168914488673"><ele>4.0</ele><time>2026-05-01T07:15:46Z</time></trkpt><trkpt lat="42.464129258634195" lon="14.215991904239617"><ele>4.0</ele><time>2026-05-01T07:15:47Z</time></trkpt><trkpt lat="42.46407022028239" lon="14.21581832665638"><ele>4.0</ele><time>2026-05-01T07:15:48Z</time></trkpt><trkpt lat="42.464015699988174" lon="14.215651175039387"><ele>4.0</ele><time>2026-05-01T07:15:49Z</time></trkpt><trkpt lat="42.4639656589868" lon="14.215493241620011"><ele>4.75</ele><time>2026-05-01T07:15:50Z</time></trkpt><trkpt lat="42.463913074190195" lon="14.215334666614488"><ele>5.5</ele><time>2026-05-01T07:15:51Z</time></trkpt><trkpt lat="42.463858891809494" lon="14.21517881491325"><ele>6.25</ele><time>2026-05-01T07:15:52Z</time></trkpt><trkpt lat="42.46379214281924" lon="14.215021325135643"><ele>7.0</ele><time>2026-05-01T07:15:53Z</time></trkpt><trkpt lat="42.4637229779157" lon="14.214858923635807"><ele>7.5</ele><time>2026-05-01T07:15:54Z</time></trkpt><trkpt lat="42.463652198820455" lon="14.214693343709087"><ele>8.0</ele><time>2026-05-01T07:15:55Z</time></trkpt><trkpt lat="42.4635819978022" lon="14.21452260002603"><ele>8.5</ele><time>2026-05-01T07:15:56Z</time></trkpt><trkpt lat="42.46351197293362" lon="14.214358908733699"><ele>9.0</ele><time>2026-05-01T07:15:57Z</time></trkpt><trkpt lat="42.46344508711132" lon="14.214201447423552"><ele>9.0</ele><time>2026-05-01T07:15:58Z</time></trkpt><trkpt lat="42.463397905422106" lon="14.21407354744922"><ele>9.0</ele><time>2026-05-01T07:15:59Z</time></trkpt><trkpt lat="42.46333896487347" lon="14.213919732687344"><ele>9.0</ele><time>2026-05-01T07:16:00Z</time></trkpt><trkpt lat="42.46327527938843" lon="14.213776950332983"><ele>9.0</ele><time>2026-05-01T07:16:01Z</time></trkpt><trkpt lat="42.463198779057485" lon="14.213611256024944"><ele>8.75</ele><time>2026-05-01T07:16:02Z</time></trkpt><trkpt lat="42.463119251856845" lon="14.213444938752389"><ele>8.5</ele><time>2026-05-01T07:16:03Z</time></trkpt><trkpt lat="42.46305399375373" lon="14.213286002804644"><ele>8.25</ele><time>2026-05-01T07:16:04Z</time></trkpt><trkpt lat="42.462987529571464" lon="14.213127145609777"><ele>8.0</ele><time>2026-05-01T07:16:05Z</time></trkpt><trkpt lat="42.46291995110594" lon="14.212973054744545"><ele>7.75</ele><time>2026-05-01T07:16:06Z</time></trkpt><trkpt lat="42.46284643585283" lon="14.21282239017952"><ele>7.5</ele><time>2026-05-01T07:16:07Z</time></trkpt><trkpt lat="42.46277858213132" lon="14.212673804879685"><ele>7.25</ele><time>2026-05-01T07:16:08Z</time></trkpt><trkpt lat="42.46272007594192" lon="14.212534433865603"><ele>7.0</ele><time>2026-05-01T07:16:09Z</time></trkpt><trkpt lat="42.46266145755869" lon="14.212410224763712"><ele>6.3999999999999995</ele><time>2026-05-01T07:16:10Z</time></trkpt><trkpt lat="42.46260128893186" lon="14.212289481045172"><ele>5.799999999999999</ele><time>2026-05-01T07:16:11Z</time></trkpt><trkpt lat="42.46254431788844" lon="14.212168380432258"><ele>5.2</ele><time>2026-05-01T07:16:12Z</time></trkpt><trkpt lat="42.462486767304966" lon="14.21204417168246"><ele>4.6</ele><time>2026-05-01T07:16:13Z</time></trkpt><trkpt lat="42.4624260143301" lon="14.21191392563161"><ele>4.0</ele><time>2026-05-01T07:16:14Z</time></trkpt><trkpt lat="42.46236425665221" lon="14.211774826940497"><ele>4.0</ele><time>2026-05-01T07:16:15Z</time></trkpt><trkpt lat="42.46231209101934" lon="14.211611920950741"><ele>4.0</ele><time>2026-05-01T07:16:16Z</time></trkpt><trkpt lat="42.462239287569126" lon="14.211468629140006"><ele>4.0</ele><time>2026-05-01T07:16:17Z</time></trkpt><trkpt lat="42.462170091554974" lon="14.211322425701669"><ele>4.0</ele><time>2026-05-01T07:16:18Z</time></trkpt><trkpt lat="42.46210886639007" lon="14.211179227602814"><ele>4.0</ele><time>2026-05-01T07:16:19Z</time></trkpt><trkpt lat="42.462044412902" lon="14.211039280993328"><ele>4.0</ele><time>2026-05-01T07:16:20Z</time></trkpt><trkpt lat="42.46198742345465" lon="14.210896765443277"><ele>4.0</ele><time>2026-05-01T07:16:21Z</time></trkpt><trkpt lat="42.46192534267829" lon="14.210758709333616"><ele>4.0</ele><time>2026-05-01T07:16:22Z</time></trkpt><trkpt lat="42.461876043783434" lon="14.21062180313329"><ele>4.0</ele><time>2026-05-01T07:16:23Z</time></trkpt><trkpt lat="42.461837276466774" lon="14.210488723254814"><ele>4.0</ele><time>2026-05-01T07:16:24Z</time></trkpt><trkpt lat="42.461796540519586" lon="14.210327815664856"><ele>4.0</ele><time>2026-05-01T07:16:25Z</time></trkpt><trkpt lat="42.46179023106908" lon="14.210180804374222"><ele>4.0</ele><time>2026-05-01T07:16:26Z</time></trkpt><trkpt lat="42.4617855317263" lon="14.210062945346301"><ele>4.0</ele><time>2026-05-01T07:16:27Z</time></trkpt><trkpt lat="42.461776975543536" lon="14.209893828268404"><ele>4.2</ele><time>2026-05-01T07:16:28Z</time></trkpt><trkpt lat="42.46177337162981" lon="14.209767765083404"><ele>4.4</ele><time>2026-05-01T07:16:28.998Z</time></trkpt><trkpt lat="42.461772371262654" lon="14.209635118023781"><ele>4.6</ele><time>2026-05-01T07:16:29.998Z</time></trkpt><trkpt lat="42.46183001459694" lon="14.20949994948285"><ele>4.8</ele><time>2026-05-01T07:16:30.998Z</time></trkpt><trkpt lat="42.46192327860622" lon="14.209419165036408"><ele>5.0</ele><time>2026-05-01T07:16:31.998Z</time></trkpt><trkpt lat="42.461971550282065" lon="14.209301879462892"><ele>5.0</ele><time>2026-05-01T07:16:32.998Z</time></trkpt><trkpt lat="42.46202546351036" lon="14.209177060267418"><ele>5.0</ele><time>2026-05-01T07:16:33.998Z</time></trkpt><trkpt lat="42.46205956503402" lon="14.209055682052702"><ele>5.0</ele><time>2026-05-01T07:16:34.998Z</time></trkpt><trkpt lat="42.46207719102395" lon="14.208949076253619"><ele>5.0</ele><time>2026-05-01T07:16:35.998Z</time></trkpt><trkpt lat="42.462097936984925" lon="14.208848652995643"><ele>5.0</ele><time>2026-05-01T07:16:36.998Z</time></trkpt><trkpt lat="42.46212900684381" lon="14.20875428155296"><ele>5.0</ele><time>2026-05-01T07:16:37.998Z</time></trkpt><trkpt lat="42.46217842859683" lon="14.208660725000131"><ele>4.714285714285714</ele><time>2026-05-01T07:16:38.998Z</time></trkpt><trkpt lat="42.46223568406831" lon="14.208583611582757"><ele>4.428571428571429</ele><time>2026-05-01T07:16:39.998Z</time></trkpt><trkpt lat="42.46228328226021" lon="14.208518312580235"><ele>4.142857142857142</ele><time>2026-05-01T07:16:40.998Z</time></trkpt><trkpt lat="42.462314114246986" lon="14.208439096299122"><ele>3.8571428571428568</ele><time>2026-05-01T07:16:41.998Z</time></trkpt><trkpt lat="42.4623453877258" lon="14.208355783078188"><ele>3.571428571428571</ele><time>2026-05-01T07:16:42.998Z</time></trkpt><trkpt lat="42.46234641851729" lon="14.208269944776935"><ele>3.2857142857142856</ele><time>2026-05-01T07:16:43.998Z</time></trkpt><trkpt lat="42.46230634169371" lon="14.208189226427436"><ele>3.0</ele><time>2026-05-01T07:16:44.998Z</time></trkpt><trkpt lat="42.462236221759134" lon="14.208135622728706"><ele>2.8</ele><time>2026-05-01T07:16:45.998Z</time></trkpt><trkpt lat="42.46213079106737" lon="14.208159119461559"><ele>2.5999999999999996</ele><time>2026-05-01T07:16:46.999Z</time></trkpt><trkpt lat="42.46203847811605" lon="14.208174327042823"><ele>2.4000000000000004</ele><time>2026-05-01T07:16:47.999Z</time></trkpt><trkpt lat="42.46193230562293" lon="14.208179424139699"><ele>2.2</ele><time>2026-05-01T07:16:48.999Z</time></trkpt><trkpt lat="42.46182892277025" lon="14.208160481231262"><ele>2.0</ele><time>2026-05-01T07:16:49.999Z</time></trkpt><trkpt lat="42.46171782936316" lon="14.208160040341788"><ele>2.6</ele><time>2026-05-01T07:16:50.999Z</time></trkpt><trkpt lat="42.46161646735248" lon="14.208127496903597"><ele>3.2</ele><time>2026-05-01T07:16:51.999Z</time></trkpt><trkpt lat="42.461519609251376" lon="14.20809603034357"><ele>3.8</ele><time>2026-05-01T07:16:52.999Z</time></trkpt><trkpt lat="42.46142879435694" lon="14.208066674177905"><ele>4.4</ele><time>2026-05-01T07:16:53.999Z</time></trkpt><trkpt lat="42.46134077794806" lon="14.208038708041036"><ele>5.0</ele><time>2026-05-01T07:16:54.999Z</time></trkpt><trkpt lat="42.461266085404716" lon="14.208015449218253"><ele>5.2</ele><time>2026-05-01T07:16:55.999Z</time></trkpt><trkpt lat="42.46120250705276" lon="14.20792509954396"><ele>5.4</ele><time>2026-05-01T07:16:57.999Z</time></trkpt><trkpt lat="42.46114167920823" lon="14.207948276950153"><ele>5.6</ele><time>2026-05-01T07:17:01.999Z</time></trkpt><trkpt lat="42.461073416346004" lon="14.207855938819403"><ele>5.8</ele><time>2026-05-01T07:17:04.999Z</time></trkpt><trkpt lat="42.46099071929316" lon="14.207761164119196"><ele>6.0</ele><time>2026-05-01T07:17:06.999Z</time></trkpt><trkpt lat="42.460895636550255" lon="14.207758634857976"><ele>6.0</ele><time>2026-05-01T07:17:08.999Z</time></trkpt><trkpt lat="42.46083712285625" lon="14.207795991148199"><ele>6.0</ele><time>2026-05-01T07:17:09.999Z</time></trkpt><trkpt lat="42.46077965356083" lon="14.207836673820177"><ele>6.0</ele><time>2026-05-01T07:17:10.999Z</time></trkpt><trkpt lat="42.46076897413597" lon="14.207955414893107"><ele>6.0</ele><time>2026-05-01T07:17:11.999Z</time></trkpt><trkpt lat="42.4607912214769" lon="14.208095471769658"><ele>6.0</ele><time>2026-05-01T07:17:13.999Z</time></trkpt><trkpt lat="42.46083650821371" lon="14.208182957791104"><ele>6.0</ele><time>2026-05-01T07:17:14.999Z</time></trkpt><trkpt lat="42.46080946337004" lon="14.20834233226281"><ele>6.0</ele><time>2026-05-01T07:17:16.999Z</time></trkpt><trkpt lat="42.46079217359088" lon="14.208441116998793"><ele>6.0</ele><time>2026-05-01T07:17:17.999Z</time></trkpt><trkpt lat="42.46074470234082" lon="14.208592492445074"><ele>6.0</ele><time>2026-05-01T07:17:19.999Z</time></trkpt><trkpt lat="42.46068823792483" lon="14.208655313551652"><ele>6.0</ele><time>2026-05-01T07:17:21.999Z</time></trkpt><trkpt lat="42.46062314818107" lon="14.208708551029831"><ele>6.0</ele><time>2026-05-01T07:17:25.999Z</time></trkpt><trkpt lat="42.460568037941634" lon="14.208763180867322"><ele>6.0</ele><time>2026-05-01T07:17:28Z</time></trkpt><trkpt lat="42.4604904160626" lon="14.208791522066326"><ele>5.6</ele><time>2026-05-01T07:17:29Z</time></trkpt><trkpt lat="42.460411479486616" lon="14.208835459766545"><ele>5.199999999999999</ele><time>2026-05-01T07:17:30Z</time></trkpt><trkpt lat="42.46032857689281" lon="14.20888277595228"><ele>4.800000000000001</ele><time>2026-05-01T07:17:31Z</time></trkpt><trkpt lat="42.46024325237172" lon="14.208933603778947"><ele>4.4</ele><time>2026-05-01T07:17:32Z</time></trkpt><trkpt lat="42.46014862860361" lon="14.208983894388869"><ele>4.0</ele><time>2026-05-01T07:17:33Z</time></trkpt><trkpt lat="42.460046460189915" lon="14.209053415376282"><ele>3.75</ele><time>2026-05-01T07:17:34Z</time></trkpt><trkpt lat="42.45993311241279" lon="14.209108501042245"><ele>3.5</ele><time>2026-05-01T07:17:35Z</time></trkpt><trkpt lat="42.459816544755114" lon="14.209190828775602"><ele>3.25</ele><time>2026-05-01T07:17:36Z</time></trkpt><trkpt lat="42.45969915930919" lon="14.209273257626299"><ele>3.0</ele><time>2026-05-01T07:17:37Z</time></trkpt><trkpt lat="42.459577104775" lon="14.209361575126827"><ele>3.4</ele><time>2026-05-01T07:17:38Z</time></trkpt><trkpt lat="42.45947426038517" lon="14.209422054449156"><ele>3.8</ele><time>2026-05-01T07:17:39Z</time></trkpt><trkpt lat="42.45938009770291" lon="14.20948545711047"><ele>4.2</ele><time>2026-05-01T07:17:40Z</time></trkpt><trkpt lat="42.45929779974779" lon="14.209536761569616"><ele>4.6</ele><time>2026-05-01T07:17:41Z</time></trkpt><trkpt lat="42.45922489051101" lon="14.209591885963867"><ele>5.0</ele><time>2026-05-01T07:17:42Z</time></trkpt><trkpt lat="42.4591423713017" lon="14.209655449239547"><ele>5.0</ele><time>2026-05-01T07:17:43Z</time></trkpt><trkpt lat="42.45904429455161" lon="14.209705825956075"><ele>5.0</ele><time>2026-05-01T07:17:44Z</time></trkpt><trkpt lat="42.45896333721767" lon="14.209767084207035"><ele>5.0</ele><time>2026-05-01T07:17:45Z</time></trkpt><trkpt lat="42.45889392485587" lon="14.209810000978408"><ele>5.0</ele><time>2026-05-01T07:17:46Z</time></trkpt><trkpt lat="42.458785349583636" lon="14.209885598142735"><ele>5.0</ele><time>2026-05-01T07:17:48Z</time></trkpt><trkpt lat="42.45872727292583" lon="14.209920776980026"><ele>5.142857142857142</ele><time>2026-05-01T07:17:49Z</time></trkpt><trkpt lat="42.45866855204196" lon="14.209967475381525"><ele>5.285714285714286</ele><time>2026-05-01T07:17:50Z</time></trkpt><trkpt lat="42.45860041471137" lon="14.210009365481906"><ele>5.428571428571429</ele><time>2026-05-01T07:17:51Z</time></trkpt><trkpt lat="42.45853727902315" lon="14.210056150964535"><ele>5.571428571428571</ele><time>2026-05-01T07:17:52Z</time></trkpt><trkpt lat="42.45848025758208" lon="14.210099373648246"><ele>5.714285714285714</ele><time>2026-05-01T07:17:53Z</time></trkpt><trkpt lat="42.45841986707786" lon="14.210140749763353"><ele>5.857142857142857</ele><time>2026-05-01T07:17:54Z</time></trkpt><trkpt lat="42.45833829945029" lon="14.210194608481888"><ele>6.0</ele><time>2026-05-01T07:17:56Z</time></trkpt><trkpt lat="42.458318909769886" lon="14.210283722140298"><ele>6.0</ele><time>2026-05-01T07:18:01Z</time></trkpt><trkpt lat="42.45828140388839" lon="14.210438888649072"><ele>6.0</ele><time>2026-05-01T07:18:03Z</time></trkpt><trkpt lat="42.45828895752147" lon="14.21053916136602"><ele>6.0</ele><time>2026-05-01T07:18:04Z</time></trkpt><trkpt lat="42.45831611956696" lon="14.210628500883749"><ele>6.0</ele><time>2026-05-01T07:18:05Z</time></trkpt><trkpt lat="42.45842314102525" lon="14.210733043998749"><ele>6.0</ele><time>2026-05-01T07:18:07Z</time></trkpt><trkpt lat="42.4584848633289" lon="14.21079871545299"><ele>6.199999999999999</ele><time>2026-05-01T07:18:08Z</time></trkpt><trkpt lat="42.45854021208301" lon="14.21087080284462"><ele>6.3999999999999995</ele><time>2026-05-01T07:18:09Z</time></trkpt><trkpt lat="42.458604035217476" lon="14.210995466358904"><ele>6.6</ele><time>2026-05-01T07:18:11Z</time></trkpt><trkpt lat="42.458509965402705" lon="14.211165387943971"><ele>6.8</ele><time>2026-05-01T07:18:13Z</time></trkpt><trkpt lat="42.4584303810319" lon="14.211158252527076"><ele>7.0</ele><time>2026-05-01T07:18:14Z</time></trkpt><trkpt lat="42.45835261309892" lon="14.211221509799705"><ele>7.0</ele><time>2026-05-01T07:18:15Z</time></trkpt><trkpt lat="42.458256900157004" lon="14.211261752871097"><ele>6.999999999999999</ele><time>2026-05-01T07:18:16Z</time></trkpt><trkpt lat="42.45816935303086" lon="14.211324135832212"><ele>6.999999999999999</ele><time>2026-05-01T07:18:17Z</time></trkpt><trkpt lat="42.45807249319291" lon="14.211379136229876"><ele>7.0</ele><time>2026-05-01T07:18:18Z</time></trkpt><trkpt lat="42.45797859683964" lon="14.211428203290083"><ele>7.0</ele><time>2026-05-01T07:18:19Z</time></trkpt><trkpt lat="42.45788574507526" lon="14.211494466221332"><ele>6.25</ele><time>2026-05-01T07:18:20Z</time></trkpt><trkpt lat="42.45778592809754" lon="14.211570228606046"><ele>5.5</ele><time>2026-05-01T07:18:21Z</time></trkpt><trkpt lat="42.45766927382913" lon="14.211631197395684"><ele>4.75</ele><time>2026-05-01T07:18:22Z</time></trkpt><trkpt lat="42.457536412810995" lon="14.21171628692784"><ele>4.0</ele><time>2026-05-01T07:18:23Z</time></trkpt><trkpt lat="42.45740084609175" lon="14.211819803946604"><ele>4.0</ele><time>2026-05-01T07:18:24Z</time></trkpt><trkpt lat="42.4572652155926" lon="14.211907483385346"><ele>4.0</ele><time>2026-05-01T07:18:25Z</time></trkpt><trkpt lat="42.45712313452153" lon="14.21197218537007"><ele>4.0</ele><time>2026-05-01T07:18:26Z</time></trkpt><trkpt lat="42.456974827237474" lon="14.212046742308917"><ele>3.333333333333333</ele><time>2026-05-01T07:18:27Z</time></trkpt><trkpt lat="42.456830058075745" lon="14.212118430092652"><ele>2.6666666666666665</ele><time>2026-05-01T07:18:28Z</time></trkpt><trkpt lat="42.45667226680366" lon="14.212200506444697"><ele>2.0</ele><time>2026-05-01T07:18:29Z</time></trkpt><trkpt lat="42.456536773927695" lon="14.212271191768613"><ele>2.25</ele><time>2026-05-01T07:18:30Z</time></trkpt><trkpt lat="42.456394906569415" lon="14.212342387486588"><ele>2.5</ele><time>2026-05-01T07:18:31Z</time></trkpt><trkpt lat="42.4562582116797" lon="14.212430762814286"><ele>2.75</ele><time>2026-05-01T07:18:32Z</time></trkpt><trkpt lat="42.45611805588531" lon="14.212487036734641"><ele>3.0</ele><time>2026-05-01T07:18:33Z</time></trkpt><trkpt lat="42.45597124681886" lon="14.212536985259371"><ele>3.0</ele><time>2026-05-01T07:18:34Z</time></trkpt><trkpt lat="42.455824327854" lon="14.21256180571552"><ele>3.0</ele><time>2026-05-01T07:18:34.998Z</time></trkpt><trkpt lat="42.45567664606489" lon="14.212573062306946"><ele>3.0</ele><time>2026-05-01T07:18:35.998Z</time></trkpt><trkpt lat="42.45554079566161" lon="14.212572095338606"><ele>3.0</ele><time>2026-05-01T07:18:36.998Z</time></trkpt><trkpt lat="42.455418048148864" lon="14.212588866294018"><ele>3.0</ele><time>2026-05-01T07:18:37.998Z</time></trkpt><trkpt lat="42.45530400098263" lon="14.21258424851042"><ele>3.0</ele><time>2026-05-01T07:18:38.998Z</time></trkpt><trkpt lat="42.4551854145691" lon="14.212602726877831"><ele>3.0</ele><time>2026-05-01T07:18:39.998Z</time></trkpt><trkpt lat="42.45507549946102" lon="14.212605986868105"><ele>3.0</ele><time>2026-05-01T07:18:40.998Z</time></trkpt><trkpt lat="42.45497486078875" lon="14.212610666098458"><ele>3.0</ele><time>2026-05-01T07:18:41.998Z</time></trkpt><trkpt lat="42.4548813826399" lon="14.212621786978191"><ele>3.0</ele><time>2026-05-01T07:18:42.998Z</time></trkpt><trkpt lat="42.45479470116142" lon="14.2126171271304"><ele>3.0</ele><time>2026-05-01T07:18:43.998Z</time></trkpt><trkpt lat="42.454709144833174" lon="14.21263766484098"><ele>3.0</ele><time>2026-05-01T07:18:44.998Z</time></trkpt><trkpt lat="42.45465221129701" lon="14.21270258132288"><ele>3.0</ele><time>2026-05-01T07:18:45.998Z</time></trkpt><trkpt lat="42.45465618137093" lon="14.212820007613589"><ele>3.0</ele><time>2026-05-01T07:18:46.998Z</time></trkpt><trkpt lat="42.45465450097056" lon="14.212907826561194"><ele>3.0</ele><time>2026-05-01T07:18:47.998Z</time></trkpt><trkpt lat="42.45465357996912" lon="14.2130128345356"><ele>3.0</ele><time>2026-05-01T07:18:48.998Z</time></trkpt><trkpt lat="42.45463552421005" lon="14.213115311030332"><ele>3.0</ele><time>2026-05-01T07:18:49.998Z</time></trkpt><trkpt lat="42.45457522594013" lon="14.213174747137705"><ele>3.0</ele><time>2026-05-01T07:18:50.998Z</time></trkpt><trkpt lat="42.4545030022526" lon="14.213221698550308"><ele>3.0</ele><time>2026-05-01T07:18:51.998Z</time></trkpt><trkpt lat="42.45440170116686" lon="14.213260775660292"><ele>3.0</ele><time>2026-05-01T07:18:52.999Z</time></trkpt><trkpt lat="42.45425324110147" lon="14.213330484153136"><ele>3.0</ele><time>2026-05-01T07:18:53.999Z</time></trkpt><trkpt lat="42.45410785848941" lon="14.213400160249694"><ele>3.0</ele><time>2026-05-01T07:18:54.999Z</time></trkpt><trkpt lat="42.45396245095534" lon="14.213469848283534"><ele>3.0</ele><time>2026-05-01T07:18:55.999Z</time></trkpt><trkpt lat="42.45378828939295" lon="14.213553316791085"><ele>2.6666666666666665</ele><time>2026-05-01T07:18:56.999Z</time></trkpt><trkpt lat="42.45362018966402" lon="14.213633880270436"><ele>2.333333333333333</ele><time>2026-05-01T07:18:57.999Z</time></trkpt><trkpt lat="42.4534710309381" lon="14.213715544854747"><ele>2.0</ele><time>2026-05-01T07:18:58.999Z</time></trkpt><trkpt lat="42.45332517528857" lon="14.213790320471375"><ele>2.0</ele><time>2026-05-01T07:18:59.999Z</time></trkpt><trkpt lat="42.453172838870024" lon="14.213867727199636"><ele>2.0</ele><time>2026-05-01T07:19:00.999Z</time></trkpt><trkpt lat="42.45302388065796" lon="14.213938138696104"><ele>2.0</ele><time>2026-05-01T07:19:01.999Z</time></trkpt><trkpt lat="42.45287985836262" lon="14.214002772461924"><ele>1.3333333333333333</ele><time>2026-05-01T07:19:02.999Z</time></trkpt><trkpt lat="42.45273185490572" lon="14.214070914350923"><ele>0.6666666666666666</ele><time>2026-05-01T07:19:03.999Z</time></trkpt><trkpt lat="42.45258806820881" lon="14.21413829397418"><ele>0.0</ele><time>2026-05-01T07:19:04.999Z</time></trkpt><trkpt lat="42.452454070361014" lon="14.21420586231577"><ele>0.0</ele><time>2026-05-01T07:19:05.999Z</time></trkpt><trkpt lat="42.45231456231436" lon="14.214254417666579"><ele>0.0</ele><time>2026-05-01T07:19:06.999Z</time></trkpt><trkpt lat="42.45218552829185" lon="14.214347559021226"><ele>0.0</ele><time>2026-05-01T07:19:07.999Z</time></trkpt><trkpt lat="42.452051125780535" lon="14.214434680019794"><ele>0.0</ele><time>2026-05-01T07:19:08.999Z</time></trkpt><trkpt lat="42.4519313889269" lon="14.214538508049124"><ele>0.3333333333333333</ele><time>2026-05-01T07:19:09.999Z</time></trkpt><trkpt lat="42.4518203697604" lon="14.214665336986561"><ele>0.6666666666666666</ele><time>2026-05-01T07:19:10.999Z</time></trkpt><trkpt lat="42.4517218569495" lon="14.214815254812757"><ele>1.0</ele><time>2026-05-01T07:19:11.999Z</time></trkpt><trkpt lat="42.45163784610082" lon="14.21500064395564"><ele>1.0</ele><time>2026-05-01T07:19:12.999Z</time></trkpt><trkpt lat="42.45154146672839" lon="14.215164618165874"><ele>1.0</ele><time>2026-05-01T07:19:13.999Z</time></trkpt><trkpt lat="42.45144943889414" lon="14.215339435480722"><ele>1.0</ele><time>2026-05-01T07:19:14.999Z</time></trkpt><trkpt lat="42.45136255266336" lon="14.21550455276464"><ele>1.5</ele><time>2026-05-01T07:19:15.999Z</time></trkpt><trkpt lat="42.45127791845764" lon="14.215676899570695"><ele>2.0</ele><time>2026-05-01T07:19:16.999Z</time></trkpt><trkpt lat="42.45120005016127" lon="14.215846183147375"><ele>2.5</ele><time>2026-05-01T07:19:17.999Z</time></trkpt><trkpt lat="42.45112436238201" lon="14.215986023361653"><ele>3.0</ele><time>2026-05-01T07:19:18.999Z</time></trkpt><trkpt lat="42.451058759385056" lon="14.216105249723851"><ele>3.0</ele><time>2026-05-01T07:19:20Z</time></trkpt><trkpt lat="42.45099897118625" lon="14.216205178783028"><ele>3.0</ele><time>2026-05-01T07:19:21Z</time></trkpt><trkpt lat="42.4509402623124" lon="14.216301747288906"><ele>3.0</ele><time>2026-05-01T07:19:22Z</time></trkpt><trkpt lat="42.450880269971925" lon="14.21640640116735"><ele>3.0</ele><time>2026-05-01T07:19:23Z</time></trkpt><trkpt lat="42.450817524762805" lon="14.21651874087456"><ele>3.0</ele><time>2026-05-01T07:19:24Z</time></trkpt><trkpt lat="42.45076600996084" lon="14.2166305014711"><ele>3.1666666666666665</ele><time>2026-05-01T07:19:25Z</time></trkpt><trkpt lat="42.4507161638972" lon="14.216720572886132"><ele>3.333333333333333</ele><time>2026-05-01T07:19:26Z</time></trkpt><trkpt lat="42.4506791512212" lon="14.216796425575657"><ele>3.5</ele><time>2026-05-01T07:19:27Z</time></trkpt><trkpt lat="42.45061980126863" lon="14.216891493487996"><ele>3.6666666666666665</ele><time>2026-05-01T07:19:29Z</time></trkpt><trkpt lat="42.450554095352324" lon="14.216939303077579"><ele>3.833333333333333</ele><time>2026-05-01T07:19:37Z</time></trkpt><trkpt lat="42.45044562659609" lon="14.216882929421688"><ele>4.0</ele><time>2026-05-01T07:19:39Z</time></trkpt><trkpt lat="42.45037661208716" lon="14.216805195695366"><ele>4.0</ele><time>2026-05-01T07:19:40Z</time></trkpt><trkpt lat="42.450317929580365" lon="14.216700118450992"><ele>4.0</ele><time>2026-05-01T07:19:41Z</time></trkpt><trkpt lat="42.45023378881077" lon="14.216593680120464"><ele>4.0</ele><time>2026-05-01T07:19:42Z</time></trkpt><trkpt lat="42.450157215665115" lon="14.21648290308031"><ele>4.0</ele><time>2026-05-01T07:19:43Z</time></trkpt><trkpt lat="42.45008619032912" lon="14.21636521171578"><ele>4.0</ele><time>2026-05-01T07:19:44Z</time></trkpt><trkpt lat="42.45000765169206" lon="14.216252844721692"><ele>4.0</ele><time>2026-05-01T07:19:45Z</time></trkpt><trkpt lat="42.44992892156837" lon="14.216132458279008"><ele>4.0</ele><time>2026-05-01T07:19:46Z</time></trkpt><trkpt lat="42.449846432199905" lon="14.216018243606904"><ele>4.0</ele><time>2026-05-01T07:19:47Z</time></trkpt><trkpt lat="42.449784432683224" lon="14.215903332909448"><ele>4.0</ele><time>2026-05-01T07:19:48Z</time></trkpt><trkpt lat="42.44970808335011" lon="14.215822396425434"><ele>4.0</ele><time>2026-05-01T07:19:49Z</time></trkpt><trkpt lat="42.44965615154683" lon="14.215736757484379"><ele>3.9999999999999996</ele><time>2026-05-01T07:19:50Z</time></trkpt><trkpt lat="42.44961093729925" lon="14.215661610515332"><ele>4.0</ele><time>2026-05-01T07:19:51Z</time></trkpt><trkpt lat="42.44957178651112" lon="14.215587988416031"><ele>4.0</ele><time>2026-05-01T07:19:53Z</time></trkpt><trkpt lat="42.4495102861394" lon="14.215460711919635"><ele>4.0</ele><time>2026-05-01T07:19:55Z</time></trkpt><trkpt lat="42.44945601496395" lon="14.21540935429158"><ele>3.9999999999999996</ele><time>2026-05-01T07:19:56Z</time></trkpt><trkpt lat="42.44936461768119" lon="14.21544421477462"><ele>4.0</ele><time>2026-05-01T07:19:58Z</time></trkpt><trkpt lat="42.44930189724898" lon="14.215525691324984"><ele>4.0</ele><time>2026-05-01T07:19:59Z</time></trkpt><trkpt lat="42.44922833096218" lon="14.21561117756547"><ele>4.0</ele><time>2026-05-01T07:20:00Z</time></trkpt><trkpt lat="42.44911521742042" lon="14.215693200183482"><ele>4.0</ele><time>2026-05-01T07:20:01Z</time></trkpt><trkpt lat="42.448978708491104" lon="14.215784114277485"><ele>4.0</ele><time>2026-05-01T07:20:02Z</time></trkpt><trkpt lat="42.44881700177438" lon="14.215878142701147"><ele>5.0</ele><time>2026-05-01T07:20:03Z</time></trkpt><trkpt lat="42.448628804532326" lon="14.215985247347419"><ele>6.0</ele><time>2026-05-01T07:20:04Z</time></trkpt><trkpt lat="42.44844355547291" lon="14.21609550219034"><ele>7.0</ele><time>2026-05-01T07:20:05Z</time></trkpt><trkpt lat="42.44827584849861" lon="14.216196403603162"><ele>7.0</ele><time>2026-05-01T07:20:06Z</time></trkpt><trkpt lat="42.44812189130037" lon="14.216289319213693"><ele>7.0</ele><time>2026-05-01T07:20:07Z</time></trkpt><trkpt lat="42.447980101699095" lon="14.216374829937116"><ele>7.0</ele><time>2026-05-01T07:20:08Z</time></trkpt><trkpt lat="42.447845645254354" lon="14.216447525289142"><ele>7.0</ele><time>2026-05-01T07:20:09Z</time></trkpt><trkpt lat="42.44771996938028" lon="14.216513367542586"><ele>7.0</ele><time>2026-05-01T07:20:10Z</time></trkpt><trkpt lat="42.44759484510365" lon="14.216575407375213"><ele>7.0</ele><time>2026-05-01T07:20:11Z</time></trkpt><trkpt lat="42.44747586516275" lon="14.216644578788832"><ele>7.0</ele><time>2026-05-01T07:20:12Z</time></trkpt><trkpt lat="42.44736652257034" lon="14.216708889665275"><ele>7.0</ele><time>2026-05-01T07:20:13.001Z</time></trkpt><trkpt lat="42.447267770909036" lon="14.216766971507402"><ele>6.999999999999999</ele><time>2026-05-01T07:20:14.001Z</time></trkpt><trkpt lat="42.44718082438652" lon="14.216818109991939"><ele>6.999999999999999</ele><time>2026-05-01T07:20:15.001Z</time></trkpt><trkpt lat="42.447102785348406" lon="14.216878993747322"><ele>7.0</ele><time>2026-05-01T07:20:16.001Z</time></trkpt><trkpt lat="42.44701553465411" lon="14.216921312738975"><ele>7.0</ele><time>2026-05-01T07:20:17.001Z</time></trkpt><trkpt lat="42.44692900704886" lon="14.216970225138425"><ele>7.142857142857142</ele><time>2026-05-01T07:20:18.001Z</time></trkpt><trkpt lat="42.44684715024803" lon="14.217012905080797"><ele>7.285714285714286</ele><time>2026-05-01T07:20:19.001Z</time></trkpt><trkpt lat="42.44676950601227" lon="14.217047962393455"><ele>7.428571428571429</ele><time>2026-05-01T07:20:20.001Z</time></trkpt><trkpt lat="42.44669900574131" lon="14.217082731487787"><ele>7.571428571428571</ele><time>2026-05-01T07:20:21.001Z</time></trkpt><trkpt lat="42.446632847324096" lon="14.217121032918293"><ele>7.7142857142857135</ele><time>2026-05-01T07:20:22.001Z</time></trkpt><trkpt lat="42.446571716811604" lon="14.217160759896178"><ele>7.857142857142857</ele><time>2026-05-01T07:20:23.001Z</time></trkpt><trkpt lat="42.44651149072232" lon="14.217188195995186"><ele>8.0</ele><time>2026-05-01T07:20:24.001Z</time></trkpt><trkpt lat="42.446414340815025" lon="14.217266206211235"><ele>7.999999999999999</ele><time>2026-05-01T07:20:26.001Z</time></trkpt><trkpt lat="42.446342420561145" lon="14.217302387979702"><ele>8.0</ele><time>2026-05-01T07:20:28.001Z</time></trkpt><trkpt lat="42.446280811880925" lon="14.217351758289768"><ele>8.0</ele><time>2026-05-01T07:20:30.001Z</time></trkpt><trkpt lat="42.44622327790083" lon="14.217399927092178"><ele>8.0</ele><time>2026-05-01T07:20:32.001Z</time></trkpt><trkpt lat="42.446135306494945" lon="14.217292568190162"><ele>7.999999999999999</ele><time>2026-05-01T07:20:34.001Z</time></trkpt><trkpt lat="42.446093646697456" lon="14.21716217182808"><ele>8.0</ele><time>2026-05-01T07:20:36.001Z</time></trkpt><trkpt lat="42.44603172738668" lon="14.217089945015053"><ele>7.333333333333333</ele><time>2026-05-01T07:20:37.001Z</time></trkpt><trkpt lat="42.44596510564487" lon="14.217028498592928"><ele>6.666666666666666</ele><time>2026-05-01T07:20:38.001Z</time></trkpt><trkpt lat="42.445900890399194" lon="14.2169760008132"><ele>6.0</ele><time>2026-05-01T07:20:39.001Z</time></trkpt><trkpt lat="42.44584071040012" lon="14.216915601580263"><ele>5.333333333333333</ele><time>2026-05-01T07:20:40.001Z</time></trkpt><trkpt lat="42.44577286793689" lon="14.216848026223087"><ele>4.666666666666666</ele><time>2026-05-01T07:20:41Z</time></trkpt><trkpt lat="42.44569434779449" lon="14.21678362533948"><ele>4.0</ele><time>2026-05-01T07:20:42Z</time></trkpt><trkpt lat="42.445631960458385" lon="14.216718610625986"><ele>4.0</ele><time>2026-05-01T07:20:43Z</time></trkpt><trkpt lat="42.44554907172005" lon="14.216626462793553"><ele>4.0</ele><time>2026-05-01T07:20:45Z</time></trkpt><trkpt lat="42.44549083047048" lon="14.216571871203072"><ele>4.0</ele><time>2026-05-01T07:20:47Z</time></trkpt><trkpt lat="42.44540320338787" lon="14.216500999286259"><ele>4.0</ele><time>2026-05-01T07:20:49Z</time></trkpt><trkpt lat="42.44533364018063" lon="14.216428818389453"><ele>4.0</ele><time>2026-05-01T07:20:50Z</time></trkpt><trkpt lat="42.44526038792739" lon="14.216357913640353"><ele>5.0</ele><time>2026-05-01T07:20:51Z</time></trkpt><trkpt lat="42.445176501864154" lon="14.21627989177527"><ele>6.0</ele><time>2026-05-01T07:20:52Z</time></trkpt><trkpt lat="42.44508293408858" lon="14.216195109325337"><ele>7.0</ele><time>2026-05-01T07:20:53Z</time></trkpt><trkpt lat="42.44498112674906" lon="14.216100655377588"><ele>8.0</ele><time>2026-05-01T07:20:54Z</time></trkpt><trkpt lat="42.4448791099735" lon="14.21600376632253"><ele>8.0</ele><time>2026-05-01T07:20:55Z</time></trkpt><trkpt lat="42.444771453236854" lon="14.2158953582246"><ele>8.0</ele><time>2026-05-01T07:20:56Z</time></trkpt><trkpt lat="42.44466170519327" lon="14.21578563737715"><ele>8.0</ele><time>2026-05-01T07:20:57Z</time></trkpt><trkpt lat="42.44455096333054" lon="14.215689595796844"><ele>8.0</ele><time>2026-05-01T07:20:58Z</time></trkpt><trkpt lat="42.44444083650927" lon="14.21557977012548"><ele>7.5</ele><time>2026-05-01T07:20:59Z</time></trkpt><trkpt lat="42.44432654049283" lon="14.215477785039948"><ele>7.0</ele><time>2026-05-01T07:21:00Z</time></trkpt><trkpt lat="42.44421097438507" lon="14.215367186036977"><ele>6.5</ele><time>2026-05-01T07:21:01Z</time></trkpt><trkpt lat="42.44410082037777" lon="14.2152382959647"><ele>6.0</ele><time>2026-05-01T07:21:02Z</time></trkpt><trkpt lat="42.443984792700434" lon="14.215127761489335"><ele>6.0</ele><time>2026-05-01T07:21:03Z</time></trkpt><trkpt lat="42.44386681020926" lon="14.215013721113227"><ele>6.0</ele><time>2026-05-01T07:21:04Z</time></trkpt><trkpt lat="42.44374221313208" lon="14.214930948787723"><ele>6.0</ele><time>2026-05-01T07:21:05Z</time></trkpt><trkpt lat="42.44364309821951" lon="14.214828612959831"><ele>6.0</ele><time>2026-05-01T07:21:06Z</time></trkpt><trkpt lat="42.44355835341144" lon="14.21474637068523"><ele>6.166666666666667</ele><time>2026-05-01T07:21:07Z</time></trkpt><trkpt lat="42.443487833534576" lon="14.214681628020061"><ele>6.333333333333334</ele><time>2026-05-01T07:21:08Z</time></trkpt><trkpt lat="42.44344458100994" lon="14.214604174542961"><ele>6.5</ele><time>2026-05-01T07:21:09Z</time></trkpt><trkpt lat="42.44339783031219" lon="14.214544834548036"><ele>6.666666666666667</ele><time>2026-05-01T07:21:10Z</time></trkpt><trkpt lat="42.44335028019667" lon="14.214476404961966"><ele>6.833333333333334</ele><time>2026-05-01T07:21:11Z</time></trkpt><trkpt lat="42.44329837958464" lon="14.21439257445558"><ele>7.0</ele><time>2026-05-01T07:21:12Z</time></trkpt><trkpt lat="42.44325022817237" lon="14.214301597058094"><ele>7.0</ele><time>2026-05-01T07:21:13Z</time></trkpt><trkpt lat="42.44320430417036" lon="14.214204699920222"><ele>6.999999999999999</ele><time>2026-05-01T07:21:14Z</time></trkpt><trkpt lat="42.44315712451915" lon="14.21410515359443"><ele>6.999999999999999</ele><time>2026-05-01T07:21:15.001Z</time></trkpt><trkpt lat="42.44311692732579" lon="14.214020339873274"><ele>7.0</ele><time>2026-05-01T07:21:16.001Z</time></trkpt><trkpt lat="42.44308282949908" lon="14.213948395522882"><ele>7.0</ele><time>2026-05-01T07:21:17.001Z</time></trkpt><trkpt lat="42.44291938805595" lon="14.21388879080187"><ele>7.5</ele><time>2026-05-01T07:21:19.001Z</time></trkpt><trkpt lat="42.44282257501995" lon="14.213879647792194"><ele>8.0</ele><time>2026-05-01T07:21:20.001Z</time></trkpt><trkpt lat="42.44271260149325" lon="14.213869030469468"><ele>8.5</ele><time>2026-05-01T07:21:21.001Z</time></trkpt><trkpt lat="42.44258466128281" lon="14.213856686653605"><ele>9.0</ele><time>2026-05-01T07:21:22.001Z</time></trkpt><trkpt lat="42.442451610460914" lon="14.21384553322658"><ele>9.0</ele><time>2026-05-01T07:21:23.001Z</time></trkpt><trkpt lat="42.44232198898055" lon="14.213840042933782"><ele>9.0</ele><time>2026-05-01T07:21:24.001Z</time></trkpt><trkpt lat="42.442177419913094" lon="14.213837145448354"><ele>9.0</ele><time>2026-05-01T07:21:25.001Z</time></trkpt><trkpt lat="42.442022946014696" lon="14.213834296633232"><ele>9.0</ele><time>2026-05-01T07:21:26.001Z</time></trkpt><trkpt lat="42.44186254274506" lon="14.21383051484216"><ele>8.666666666666666</ele><time>2026-05-01T07:21:27.001Z</time></trkpt><trkpt lat="42.44170752269538" lon="14.213824663609799"><ele>8.333333333333332</ele><time>2026-05-01T07:21:28.001Z</time></trkpt><trkpt lat="42.44155290693294" lon="14.213817959819814"><ele>8.0</ele><time>2026-05-01T07:21:29.001Z</time></trkpt><trkpt lat="42.44140344428371" lon="14.213807946188622"><ele>12.0</ele><time>2026-05-01T07:21:30.001Z</time></trkpt><trkpt lat="42.441252284611814" lon="14.213793550716668"><ele>16.0</ele><time>2026-05-01T07:21:31.001Z</time></trkpt><trkpt lat="42.44109996664915" lon="14.2137741735087"><ele>20.0</ele><time>2026-05-01T07:21:32.001Z</time></trkpt><trkpt lat="42.44095288511613" lon="14.213752254734645"><ele>20.0</ele><time>2026-05-01T07:21:33.001Z</time></trkpt><trkpt lat="42.44080928534344" lon="14.213753756631423"><ele>20.0</ele><time>2026-05-01T07:21:34.001Z</time></trkpt><trkpt lat="42.440688128840634" lon="14.213728772107663"><ele>20.0</ele><time>2026-05-01T07:21:35.001Z</time></trkpt><trkpt lat="42.44057339757924" lon="14.2137213406102"><ele>20.0</ele><time>2026-05-01T07:21:36.001Z</time></trkpt><trkpt lat="42.44046518098216" lon="14.213725661472274"><ele>20.25</ele><time>2026-05-01T07:21:37.001Z</time></trkpt><trkpt lat="42.44035411383249" lon="14.213728020771438"><ele>20.5</ele><time>2026-05-01T07:21:38.001Z</time></trkpt><trkpt lat="42.440229028312565" lon="14.213812146538483"><ele>20.75</ele><time>2026-05-01T07:21:39.001Z</time></trkpt><trkpt lat="42.44011008184657" lon="14.213898809116913"><ele>21.0</ele><time>2026-05-01T07:21:40.001Z</time></trkpt><trkpt lat="42.43999558664269" lon="14.214007245168412"><ele>21.0</ele><time>2026-05-01T07:21:41.001Z</time></trkpt><trkpt lat="42.4398946965542" lon="14.214102124638137"><ele>21.0</ele><time>2026-05-01T07:21:42.001Z</time></trkpt><trkpt lat="42.43977937702263" lon="14.214199586329098"><ele>21.0</ele><time>2026-05-01T07:21:43.001Z</time></trkpt><trkpt lat="42.4396610161172" lon="14.214268228742144"><ele>21.0</ele><time>2026-05-01T07:21:44.001Z</time></trkpt><trkpt lat="42.43953048892286" lon="14.214342736304934"><ele>24.0</ele><time>2026-05-01T07:21:45.001Z</time></trkpt><trkpt lat="42.43939929664879" lon="14.214421330171966"><ele>27.0</ele><time>2026-05-01T07:21:46.001Z</time></trkpt><trkpt lat="42.439257156686566" lon="14.214499850268192"><ele>30.0</ele><time>2026-05-01T07:21:47.001Z</time></trkpt><trkpt lat="42.4391245432141" lon="14.214603518943584"><ele>30.0</ele><time>2026-05-01T07:21:48.001Z</time></trkpt><trkpt lat="42.4390018863999" lon="14.214702903370778"><ele>30.0</ele><time>2026-05-01T07:21:49.001Z</time></trkpt><trkpt lat="42.43888959453919" lon="14.214798373607387"><ele>30.0</ele><time>2026-05-01T07:21:50.001Z</time></trkpt><trkpt lat="42.43877190629798" lon="14.214876701215118"><ele>30.0</ele><time>2026-05-01T07:21:51.001Z</time></trkpt><trkpt lat="42.43864406919946" lon="14.214924673897476"><ele>33.25</ele><time>2026-05-01T07:21:52.001Z</time></trkpt><trkpt lat="42.438527573055104" lon="14.214967270709616"><ele>36.5</ele><time>2026-05-01T07:21:53.001Z</time></trkpt><trkpt lat="42.43841022001386" lon="14.215014087259515"><ele>39.75</ele><time>2026-05-01T07:21:54.001Z</time></trkpt><trkpt lat="42.438285459846654" lon="14.215041707675777"><ele>43.0</ele><time>2026-05-01T07:21:55.001Z</time></trkpt><trkpt lat="42.43815726810847" lon="14.215068678963942"><ele>43.0</ele><time>2026-05-01T07:21:56.001Z</time></trkpt><trkpt lat="42.4380252826854" lon="14.215070033805533"><ele>43.0</ele><time>2026-05-01T07:21:57.001Z</time></trkpt><trkpt lat="42.437886250747276" lon="14.21505010306685"><ele>43.0</ele><time>2026-05-01T07:21:58.001Z</time></trkpt><trkpt lat="42.43776011449898" lon="14.21504409372662"><ele>43.0</ele><time>2026-05-01T07:21:59.001Z</time></trkpt><trkpt lat="42.43761426710815" lon="14.21499890456927"><ele>42.75</ele><time>2026-05-01T07:22:00.001Z</time></trkpt><trkpt lat="42.43747941521491" lon="14.214993519971998"><ele>42.5</ele><time>2026-05-01T07:22:01.001Z</time></trkpt><trkpt lat="42.437349818251576" lon="14.215008484475215"><ele>42.25</ele><time>2026-05-01T07:22:02.001Z</time></trkpt><trkpt lat="42.43722810469004" lon="14.215049851135154"><ele>42.0</ele><time>2026-05-01T07:22:03.001Z</time></trkpt><trkpt lat="42.43712212202449" lon="14.215117661029725"><ele>42.0</ele><time>2026-05-01T07:22:04.001Z</time></trkpt><trkpt lat="42.43702185376973" lon="14.215212756264789"><ele>42.0</ele><time>2026-05-01T07:22:05.001Z</time></trkpt><trkpt lat="42.43692387392885" lon="14.215321804868243"><ele>42.0</ele><time>2026-05-01T07:22:06.001Z</time></trkpt><trkpt lat="42.43683326543839" lon="14.215447386288915"><ele>42.0</ele><time>2026-05-01T07:22:07.001Z</time></trkpt><trkpt lat="42.4367407475671" lon="14.215587515230784"><ele>44.5</ele><time>2026-05-01T07:22:08.001Z</time></trkpt><trkpt lat="42.43664110277634" lon="14.215723773687582"><ele>47.0</ele><time>2026-05-01T07:22:09.001Z</time></trkpt><trkpt lat="42.43656144319545" lon="14.215878926309841"><ele>49.5</ele><time>2026-05-01T07:22:10.001Z</time></trkpt><trkpt lat="42.43646277348944" lon="14.21601861249708"><ele>52.0</ele><time>2026-05-01T07:22:11.001Z</time></trkpt><trkpt lat="42.43637805183123" lon="14.216152150736075"><ele>52.5</ele><time>2026-05-01T07:22:12.001Z</time></trkpt><trkpt lat="42.436295098518045" lon="14.216274831237817"><ele>53.0</ele><time>2026-05-01T07:22:13.001Z</time></trkpt><trkpt lat="42.436214916885184" lon="14.216396478878725"><ele>53.5</ele><time>2026-05-01T07:22:14.001Z</time></trkpt><trkpt lat="42.43612935215247" lon="14.216512558105554"><ele>54.0</ele><time>2026-05-01T07:22:15.002Z</time></trkpt><trkpt lat="42.436044882407884" lon="14.216614188911977"><ele>54.0</ele><time>2026-05-01T07:22:16.002Z</time></trkpt><trkpt lat="42.435947809211214" lon="14.216666017036367"><ele>54.0</ele><time>2026-05-01T07:22:17.002Z</time></trkpt><trkpt lat="42.43588454799204" lon="14.216746231851278"><ele>54.0</ele><time>2026-05-01T07:22:18.002Z</time></trkpt><trkpt lat="42.43582515805161" lon="14.216788565533408"><ele>54.0</ele><time>2026-05-01T07:22:19.002Z</time></trkpt><trkpt lat="42.43575774540716" lon="14.216811306951898"><ele>54.0</ele><time>2026-05-01T07:22:20.002Z</time></trkpt><trkpt lat="42.43568210452367" lon="14.216789718299758"><ele>54.0</ele><time>2026-05-01T07:22:21.002Z</time></trkpt><trkpt lat="42.43558603396081" lon="14.216784209014941"><ele>54.0</ele><time>2026-05-01T07:22:22.002Z</time></trkpt><trkpt lat="42.435485810049315" lon="14.216737577904203"><ele>54.00000000000001</ele><time>2026-05-01T07:22:23.002Z</time></trkpt><trkpt lat="42.435382353440616" lon="14.216709295380918"><ele>54.00000000000001</ele><time>2026-05-01T07:22:24.002Z</time></trkpt><trkpt lat="42.43530057973374" lon="14.216681861516243"><ele>54.0</ele><time>2026-05-01T07:22:25.002Z</time></trkpt><trkpt lat="42.43522056819328" lon="14.216676186668584"><ele>54.0</ele><time>2026-05-01T07:22:26.002Z</time></trkpt><trkpt lat="42.435150539362716" lon="14.216571306916212"><ele>57.25</ele><time>2026-05-01T07:22:27.002Z</time></trkpt><trkpt lat="42.43505553533137" lon="14.216475896881505"><ele>60.5</ele><time>2026-05-01T07:22:28.002Z</time></trkpt><trkpt lat="42.434973122245445" lon="14.216385551017684"><ele>63.75</ele><time>2026-05-01T07:22:29.002Z</time></trkpt><trkpt lat="42.434921046107696" lon="14.216277592487613"><ele>67.0</ele><time>2026-05-01T07:22:30.002Z</time></trkpt><trkpt lat="42.43481220634132" lon="14.216164494696422"><ele>67.0</ele><time>2026-05-01T07:22:32.002Z</time></trkpt><trkpt lat="42.43473009348592" lon="14.216110333281096"><ele>67.0</ele><time>2026-05-01T07:22:33.002Z</time></trkpt><trkpt lat="42.434626534704265" lon="14.216029168852526"><ele>67.0</ele><time>2026-05-01T07:22:34.002Z</time></trkpt><trkpt lat="42.43453738124697" lon="14.215938918608366"><ele>67.0</ele><time>2026-05-01T07:22:35.002Z</time></trkpt><trkpt lat="42.434452656349244" lon="14.215851221745083"><ele>67.0</ele><time>2026-05-01T07:22:36.002Z</time></trkpt><trkpt lat="42.43437773310537" lon="14.21576799726094"><ele>66.0</ele><time>2026-05-01T07:22:37.002Z</time></trkpt><trkpt lat="42.434316324405565" lon="14.215688372567538"><ele>65.0</ele><time>2026-05-01T07:22:38.002Z</time></trkpt><trkpt lat="42.43424723178618" lon="14.215629938952663"><ele>64.0</ele><time>2026-05-01T07:22:39.002Z</time></trkpt><trkpt lat="42.434187906755" lon="14.21554032769959"><ele>63.0</ele><time>2026-05-01T07:22:40.002Z</time></trkpt><trkpt lat="42.434057455737396" lon="14.215552078210342"><ele>62.0</ele><time>2026-05-01T07:22:41.002Z</time></trkpt><trkpt lat="42.43396024951838" lon="14.215518447017336"><ele>66.25</ele><time>2026-05-01T07:22:42.002Z</time></trkpt><trkpt lat="42.43385890851579" lon="14.215492105380047"><ele>70.5</ele><time>2026-05-01T07:22:43.002Z</time></trkpt><trkpt lat="42.43373848137163" lon="14.215480576473352"><ele>74.75</ele><time>2026-05-01T07:22:44.002Z</time></trkpt><trkpt lat="42.43361148545618" lon="14.215483212646689"><ele>79.0</ele><time>2026-05-01T07:22:45.002Z</time></trkpt><trkpt lat="42.43349726087501" lon="14.21548819398571"><ele>79.0</ele><time>2026-05-01T07:22:46.002Z</time></trkpt><trkpt lat="42.433395006809114" lon="14.215489666478144"><ele>79.0</ele><time>2026-05-01T07:22:47.002Z</time></trkpt><trkpt lat="42.43330993766898" lon="14.215490981391786"><ele>79.0</ele><time>2026-05-01T07:22:48.002Z</time></trkpt><trkpt lat="42.433235701648535" lon="14.215503451678194"><ele>79.0</ele><time>2026-05-01T07:22:49.002Z</time></trkpt><trkpt lat="42.43311026771778" lon="14.215509366836661"><ele>79.0</ele><time>2026-05-01T07:22:51.002Z</time></trkpt><trkpt lat="42.4330239503915" lon="14.215470161019262"><ele>78.16666666666666</ele><time>2026-05-01T07:22:52.002Z</time></trkpt><trkpt lat="42.43295851711826" lon="14.21545882758879"><ele>77.33333333333333</ele><time>2026-05-01T07:22:53.001Z</time></trkpt><trkpt lat="42.432894677733024" lon="14.215436956727931"><ele>76.5</ele><time>2026-05-01T07:22:54.001Z</time></trkpt><trkpt lat="42.432805731267905" lon="14.21540099972652"><ele>75.66666666666667</ele><time>2026-05-01T07:22:55.001Z</time></trkpt><trkpt lat="42.43272844405661" lon="14.21534554723204"><ele>74.83333333333334</ele><time>2026-05-01T07:22:56.001Z</time></trkpt><trkpt lat="42.43264841498398" lon="14.215308991048044"><ele>74.0</ele><time>2026-05-01T07:22:57.001Z</time></trkpt><trkpt lat="42.43253624519807" lon="14.215279696536399"><ele>74.0</ele><time>2026-05-01T07:22:59.001Z</time></trkpt><trkpt lat="42.43247026228931" lon="14.21528292403063"><ele>74.0</ele><time>2026-05-01T07:23:00.001Z</time></trkpt><trkpt lat="42.43239869135665" lon="14.215315093087485"><ele>74.0</ele><time>2026-05-01T07:23:01.001Z</time></trkpt><trkpt lat="42.43230126020815" lon="14.215347096762391"><ele>74.0</ele><time>2026-05-01T07:23:02.001Z</time></trkpt><trkpt lat="42.432232602326" lon="14.215368124032496"><ele>74.0</ele><time>2026-05-01T07:23:03.001Z</time></trkpt><trkpt lat="42.43215937325188" lon="14.215387512417829"><ele>74.0</ele><time>2026-05-01T07:23:05.001Z</time></trkpt><trkpt lat="42.432094728554084" lon="14.215392820717785"><ele>73.0</ele><time>2026-05-01T07:23:07.001Z</time></trkpt><trkpt lat="42.43203464137898" lon="14.215327052336752"><ele>72.0</ele><time>2026-05-01T07:23:09.001Z</time></trkpt><trkpt lat="42.43191590838729" lon="14.215232259672614"><ele>71.0</ele><time>2026-05-01T07:23:11.001Z</time></trkpt><trkpt lat="42.43184729551725" lon="14.215165682602153"><ele>70.0</ele><time>2026-05-01T07:23:12.001Z</time></trkpt><trkpt lat="42.43174832913671" lon="14.215101766353712"><ele>69.0</ele><time>2026-05-01T07:23:13.001Z</time></trkpt><trkpt lat="42.431666187320204" lon="14.215073349674903"><ele>69.0</ele><time>2026-05-01T07:23:14.001Z</time></trkpt><trkpt lat="42.43157417497063" lon="14.214997219921322"><ele>69.0</ele><time>2026-05-01T07:23:15.001Z</time></trkpt><trkpt lat="42.431467854595205" lon="14.214938253774273"><ele>69.0</ele><time>2026-05-01T07:23:16.001Z</time></trkpt><trkpt lat="42.43136113355931" lon="14.214900011883898"><ele>69.0</ele><time>2026-05-01T07:23:17.001Z</time></trkpt><trkpt lat="42.43127784462718" lon="14.214895919141481"><ele>69.0</ele><time>2026-05-01T07:23:18.001Z</time></trkpt><trkpt lat="42.43121260557962" lon="14.21488361630743"><ele>69.0</ele><time>2026-05-01T07:23:19.001Z</time></trkpt><trkpt lat="42.431093750936896" lon="14.214822501603804"><ele>69.0</ele><time>2026-05-01T07:23:21.001Z</time></trkpt><trkpt lat="42.43102629180439" lon="14.214763878255827"><ele>69.0</ele><time>2026-05-01T07:23:22.001Z</time></trkpt><trkpt lat="42.43093560233113" lon="14.214673946263787"><ele>69.0</ele><time>2026-05-01T07:23:23.001Z</time></trkpt><trkpt lat="42.430837202748535" lon="14.214591269296948"><ele>69.0</ele><time>2026-05-01T07:23:24.001Z</time></trkpt><trkpt lat="42.43072917322041" lon="14.214510540193412"><ele>70.2</ele><time>2026-05-01T07:23:25.001Z</time></trkpt><trkpt lat="42.43063811235507" lon="14.2144581213981"><ele>71.4</ele><time>2026-05-01T07:23:26.001Z</time></trkpt><trkpt lat="42.43057106372556" lon="14.214410252666998"><ele>72.6</ele><time>2026-05-01T07:23:27.001Z</time></trkpt><trkpt lat="42.43048049563496" lon="14.21428837264886"><ele>73.8</ele><time>2026-05-01T07:23:29.001Z</time></trkpt><trkpt lat="42.43042053469141" lon="14.214182457679863"><ele>75.0</ele><time>2026-05-01T07:23:31.001Z</time></trkpt><trkpt lat="42.43033334652633" lon="14.214122489202651"><ele>75.16666666666667</ele><time>2026-05-01T07:23:33.001Z</time></trkpt><trkpt lat="42.4302613957175" lon="14.214095834352527"><ele>75.33333333333333</ele><time>2026-05-01T07:23:34.001Z</time></trkpt><trkpt lat="42.43020260480268" lon="14.21404571492376"><ele>75.5</ele><time>2026-05-01T07:23:35.001Z</time></trkpt><trkpt lat="42.43013251220382" lon="14.213985450235619"><ele>75.66666666666666</ele><time>2026-05-01T07:23:36.001Z</time></trkpt><trkpt lat="42.430054767397365" lon="14.2139057685389"><ele>75.83333333333333</ele><time>2026-05-01T07:23:37.001Z</time></trkpt><trkpt lat="42.42997098887563" lon="14.21380151135516"><ele>76.0</ele><time>2026-05-01T07:23:38.001Z</time></trkpt><trkpt lat="42.429877424808545" lon="14.21368680955668"><ele>76.2</ele><time>2026-05-01T07:23:39.001Z</time></trkpt><trkpt lat="42.429779690301416" lon="14.213580170079736"><ele>76.39999999999999</ele><time>2026-05-01T07:23:40.001Z</time></trkpt><trkpt lat="42.42969024392812" lon="14.213474380614649"><ele>76.6</ele><time>2026-05-01T07:23:41.001Z</time></trkpt><trkpt lat="42.42961312963024" lon="14.213397187434099"><ele>76.8</ele><time>2026-05-01T07:23:42.001Z</time></trkpt><trkpt lat="42.42952554172669" lon="14.21331447791948"><ele>77.0</ele><time>2026-05-01T07:23:43.001Z</time></trkpt><trkpt lat="42.429452189186215" lon="14.21323980542048"><ele>77.0</ele><time>2026-05-01T07:23:44.001Z</time></trkpt><trkpt lat="42.42938910579399" lon="14.213171406506566"><ele>77.0</ele><time>2026-05-01T07:23:45.001Z</time></trkpt><trkpt lat="42.429305904592404" lon="14.213080691850665"><ele>77.0</ele><time>2026-05-01T07:23:46.001Z</time></trkpt><trkpt lat="42.42922617612192" lon="14.212997320577474"><ele>77.0</ele><time>2026-05-01T07:23:47.001Z</time></trkpt><trkpt lat="42.42914580704506" lon="14.212923700249833"><ele>77.0</ele><time>2026-05-01T07:23:48.001Z</time></trkpt><trkpt lat="42.42906309783198" lon="14.2128428290622"><ele>78.0</ele><time>2026-05-01T07:23:49.001Z</time></trkpt><trkpt lat="42.428978127850996" lon="14.212764762969499"><ele>79.0</ele><time>2026-05-01T07:23:50.001Z</time></trkpt><trkpt lat="42.42890151810804" lon="14.212705440655819"><ele>80.0</ele><time>2026-05-01T07:23:51.001Z</time></trkpt><trkpt lat="42.428824537707" lon="14.212631814687429"><ele>81.0</ele><time>2026-05-01T07:23:52.001Z</time></trkpt><trkpt lat="42.428745182270234" lon="14.212559931850981"><ele>82.0</ele><time>2026-05-01T07:23:53.001Z</time></trkpt><trkpt lat="42.4286775484111" lon="14.212507629829542"><ele>82.16666666666666</ele><time>2026-05-01T07:23:54.001Z</time></trkpt><trkpt lat="42.42859030536366" lon="14.21243456063027"><ele>82.33333333333333</ele><time>2026-05-01T07:23:55.001Z</time></trkpt><trkpt lat="42.42852912870659" lon="14.212346525362785"><ele>82.5</ele><time>2026-05-01T07:23:56.001Z</time></trkpt><trkpt lat="42.42846737083541" lon="14.212290291281821"><ele>82.66666666666667</ele><time>2026-05-01T07:23:57.001Z</time></trkpt><trkpt lat="42.42839658118358" lon="14.21224781528668"><ele>82.83333333333334</ele><time>2026-05-01T07:23:58.001Z</time></trkpt><trkpt lat="42.42831574673077" lon="14.212199972071202"><ele>83.0</ele><time>2026-05-01T07:23:59.001Z</time></trkpt><trkpt lat="42.42825207209919" lon="14.212132020065994"><ele>83.60000000000001</ele><time>2026-05-01T07:24:00.001Z</time></trkpt><trkpt lat="42.428168235873805" lon="14.212041693545139"><ele>84.2</ele><time>2026-05-01T07:24:01.001Z</time></trkpt><trkpt lat="42.42807612575463" lon="14.211937210776812"><ele>84.8</ele><time>2026-05-01T07:24:02.001Z</time></trkpt><trkpt lat="42.42798872086241" lon="14.211848182962957"><ele>85.4</ele><time>2026-05-01T07:24:03.001Z</time></trkpt><trkpt lat="42.427910343394714" lon="14.21177950779789"><ele>86.0</ele><time>2026-05-01T07:24:04.001Z</time></trkpt><trkpt lat="42.42784608201662" lon="14.211716425467634"><ele>86.5</ele><time>2026-05-01T07:24:05.001Z</time></trkpt><trkpt lat="42.427790067706944" lon="14.211635515711762"><ele>87.0</ele><time>2026-05-01T07:24:06.001Z</time></trkpt><trkpt lat="42.42774071332395" lon="14.211516670198442"><ele>87.5</ele><time>2026-05-01T07:24:07.001Z</time></trkpt><trkpt lat="42.42768927591775" lon="14.2114053220212"><ele>88.0</ele><time>2026-05-01T07:24:08.001Z</time></trkpt><trkpt lat="42.427640265764815" lon="14.211338099277922"><ele>88.5</ele><time>2026-05-01T07:24:09.001Z</time></trkpt><trkpt lat="42.427572796608764" lon="14.211245459907088"><ele>89.0</ele><time>2026-05-01T07:24:10.001Z</time></trkpt><trkpt lat="42.42750475232883" lon="14.21115956111883"><ele>89.0</ele><time>2026-05-01T07:24:11.001Z</time></trkpt><trkpt lat="42.42745001126983" lon="14.211088957995267"><ele>89.0</ele><time>2026-05-01T07:24:12.001Z</time></trkpt><trkpt lat="42.42737545337878" lon="14.211027168021745"><ele>89.0</ele><time>2026-05-01T07:24:13.001Z</time></trkpt><trkpt lat="42.42732425563742" lon="14.210971602011265"><ele>89.0</ele><time>2026-05-01T07:24:14.002Z</time></trkpt><trkpt lat="42.42721870943557" lon="14.21089535397843"><ele>89.0</ele><time>2026-05-01T07:24:16.002Z</time></trkpt><trkpt lat="42.427151644374696" lon="14.210864949698827"><ele>89.0</ele><time>2026-05-01T07:24:17.002Z</time></trkpt><trkpt lat="42.42707149010281" lon="14.210848632774164"><ele>89.71428571428571</ele><time>2026-05-01T07:24:18.002Z</time></trkpt><trkpt lat="42.427005117695224" lon="14.21083427988969"><ele>90.42857142857143</ele><time>2026-05-01T07:24:19.002Z</time></trkpt><trkpt lat="42.42694225142344" lon="14.210811707486284"><ele>91.14285714285714</ele><time>2026-05-01T07:24:20.002Z</time></trkpt><trkpt lat="42.426870528820096" lon="14.210786586023195"><ele>91.85714285714286</ele><time>2026-05-01T07:24:21.002Z</time></trkpt><trkpt lat="42.426807338400074" lon="14.210768556847178"><ele>92.57142857142857</ele><time>2026-05-01T07:24:22.002Z</time></trkpt><trkpt lat="42.426741293155146" lon="14.210746698401083"><ele>93.28571428571428</ele><time>2026-05-01T07:24:23.002Z</time></trkpt><trkpt lat="42.42666542424396" lon="14.210709628595767"><ele>94.0</ele><time>2026-05-01T07:24:24.002Z</time></trkpt><trkpt lat="42.426597473554835" lon="14.210678540496069"><ele>93.83333333333333</ele><time>2026-05-01T07:24:25.002Z</time></trkpt><trkpt lat="42.42651845180839" lon="14.21065464125586"><ele>93.66666666666666</ele><time>2026-05-01T07:24:26.002Z</time></trkpt><trkpt lat="42.42642306840407" lon="14.210608244006524"><ele>93.5</ele><time>2026-05-01T07:24:27.002Z</time></trkpt><trkpt lat="42.42634767279764" lon="14.210568810766047"><ele>93.33333333333333</ele><time>2026-05-01T07:24:28.002Z</time></trkpt><trkpt lat="42.42627541584278" lon="14.21052662561059"><ele>93.16666666666667</ele><time>2026-05-01T07:24:29.002Z</time></trkpt><trkpt lat="42.42619482259809" lon="14.210476641159827"><ele>93.0</ele><time>2026-05-01T07:24:30.002Z</time></trkpt><trkpt lat="42.4261330716726" lon="14.210401015514938"><ele>93.0</ele><time>2026-05-01T07:24:31.002Z</time></trkpt><trkpt lat="42.42603746270249" lon="14.210361922244545"><ele>93.0</ele><time>2026-05-01T07:24:32.002Z</time></trkpt><trkpt lat="42.42592435322268" lon="14.210301665514729"><ele>93.0</ele><time>2026-05-01T07:24:33.002Z</time></trkpt><trkpt lat="42.4258060046711" lon="14.210238192078851"><ele>93.0</ele><time>2026-05-01T07:24:34.002Z</time></trkpt><trkpt lat="42.42568313769918" lon="14.210175910159355"><ele>93.0</ele><time>2026-05-01T07:24:35.002Z</time></trkpt><trkpt lat="42.42559205578296" lon="14.210102311651292"><ele>93.0</ele><time>2026-05-01T07:24:36.002Z</time></trkpt><trkpt lat="42.42550351383979" lon="14.210075439935245"><ele>93.0</ele><time>2026-05-01T07:24:37.002Z</time></trkpt><trkpt lat="42.42543642150442" lon="14.210029662303901"><ele>93.0</ele><time>2026-05-01T07:24:38.002Z</time></trkpt><trkpt lat="42.42537724936414" lon="14.2099855012733"><ele>93.0</ele><time>2026-05-01T07:24:41.002Z</time></trkpt><trkpt lat="42.42528180092284" lon="14.21004185121908"><ele>93.0</ele><time>2026-05-01T07:24:44.002Z</time></trkpt><trkpt lat="42.42524649976256" lon="14.21016018007822"><ele>93.0</ele><time>2026-05-01T07:24:46.002Z</time></trkpt><trkpt lat="42.425184317897426" lon="14.210294037270241"><ele>93.0</ele><time>2026-05-01T07:24:48.002Z</time></trkpt><trkpt lat="42.425113699840956" lon="14.210447188860002"><ele>93.0</ele><time>2026-05-01T07:24:50.002Z</time></trkpt><trkpt lat="42.4250838555139" lon="14.210541176678863"><ele>93.0</ele><time>2026-05-01T07:24:51.002Z</time></trkpt><trkpt lat="42.425059263917866" lon="14.210672152028653"><ele>93.0</ele><time>2026-05-01T07:24:52.002Z</time></trkpt><trkpt lat="42.42503401914994" lon="14.210787387275277"><ele>95.2</ele><time>2026-05-01T07:24:53.003Z</time></trkpt><trkpt lat="42.42500187197198" lon="14.210917256960016"><ele>97.4</ele><time>2026-05-01T07:24:54.003Z</time></trkpt><trkpt lat="42.42496776951205" lon="14.211045093766725"><ele>99.60000000000001</ele><time>2026-05-01T07:24:55.003Z</time></trkpt><trkpt lat="42.42493090170882" lon="14.211177221975989"><ele>101.80000000000001</ele><time>2026-05-01T07:24:56.003Z</time></trkpt><trkpt lat="42.42490577959382" lon="14.211288677446765"><ele>104.0</ele><time>2026-05-01T07:24:57.003Z</time></trkpt><trkpt lat="42.42487002188316" lon="14.2114088239581"><ele>104.6</ele><time>2026-05-01T07:24:58.003Z</time></trkpt><trkpt lat="42.424851870298845" lon="14.211523691597629"><ele>105.2</ele><time>2026-05-01T07:24:59.003Z</time></trkpt><trkpt lat="42.4248538429053" lon="14.21166043487466"><ele>105.79999999999998</ele><time>2026-05-01T07:25:00.003Z</time></trkpt><trkpt lat="42.424837152202194" lon="14.211814043947319"><ele>106.39999999999999</ele><time>2026-05-01T07:25:01.003Z</time></trkpt><trkpt lat="42.42482087713114" lon="14.211952892588865"><ele>107.0</ele><time>2026-05-01T07:25:02.003Z</time></trkpt><trkpt lat="42.42480916533484" lon="14.212105326530757"><ele>107.0</ele><time>2026-05-01T07:25:03.003Z</time></trkpt><trkpt lat="42.42478321177768" lon="14.212247413223832"><ele>106.99999999999999</ele><time>2026-05-01T07:25:04.002Z</time></trkpt><trkpt lat="42.424746728010994" lon="14.212369344626815"><ele>106.99999999999999</ele><time>2026-05-01T07:25:05.002Z</time></trkpt><trkpt lat="42.42470697960511" lon="14.21248879695584"><ele>107.0</ele><time>2026-05-01T07:25:06.002Z</time></trkpt><trkpt lat="42.42467344784577" lon="14.212620247461848"><ele>107.0</ele><time>2026-05-01T07:25:07.002Z</time></trkpt><trkpt lat="42.424643829260646" lon="14.212749297947443"><ele>109.6</ele><time>2026-05-01T07:25:08.002Z</time></trkpt><trkpt lat="42.42463036934099" lon="14.21285231571108"><ele>112.19999999999999</ele><time>2026-05-01T07:25:09.002Z</time></trkpt><trkpt lat="42.424599429345356" lon="14.213023043458511"><ele>114.8</ele><time>2026-05-01T07:25:11.002Z</time></trkpt><trkpt lat="42.42452206293393" lon="14.213177163458642"><ele>117.4</ele><time>2026-05-01T07:25:13.002Z</time></trkpt><trkpt lat="42.42446378500037" lon="14.213236124576731"><ele>120.0</ele><time>2026-05-01T07:25:14.002Z</time></trkpt><trkpt lat="42.42436534957611" lon="14.21334859840511"><ele>120.0</ele><time>2026-05-01T07:25:16.002Z</time></trkpt><trkpt lat="42.42428668034491" lon="14.21342819920359"><ele>120.0</ele><time>2026-05-01T07:25:18.002Z</time></trkpt><trkpt lat="42.424235567883706" lon="14.213537055368645"><ele>120.0</ele><time>2026-05-01T07:25:20.002Z</time></trkpt><trkpt lat="42.42420638561423" lon="14.213677219362303"><ele>120.0</ele><time>2026-05-01T07:25:22.002Z</time></trkpt><trkpt lat="42.424197140221544" lon="14.213824223558579"><ele>120.0</ele><time>2026-05-01T07:25:24.002Z</time></trkpt><trkpt lat="42.42415203274332" lon="14.213963211551931"><ele>122.0</ele><time>2026-05-01T07:25:26.002Z</time></trkpt><trkpt lat="42.424108685628404" lon="14.214031595020815"><ele>124.0</ele><time>2026-05-01T07:25:27.002Z</time></trkpt><trkpt lat="42.42405011006289" lon="14.214115418406577"><ele>126.0</ele><time>2026-05-01T07:25:28.002Z</time></trkpt><trkpt lat="42.42398536331945" lon="14.214187024001687"><ele>128.0</ele><time>2026-05-01T07:25:29.002Z</time></trkpt><trkpt lat="42.4239339202379" lon="14.214277063712633"><ele>130.0</ele><time>2026-05-01T07:25:30.002Z</time></trkpt><trkpt lat="42.42383749234218" lon="14.214405575045552"><ele>131.0</ele><time>2026-05-01T07:25:31.002Z</time></trkpt><trkpt lat="42.42375033612515" lon="14.214536783817808"><ele>132.0</ele><time>2026-05-01T07:25:32.002Z</time></trkpt><trkpt lat="42.42368528037451" lon="14.214672751114405"><ele>133.0</ele><time>2026-05-01T07:25:33.002Z</time></trkpt><trkpt lat="42.42361427491762" lon="14.214794600953809"><ele>134.0</ele><time>2026-05-01T07:25:34.002Z</time></trkpt><trkpt lat="42.42354956765867" lon="14.214903813475114"><ele>134.0</ele><time>2026-05-01T07:25:35.002Z</time></trkpt><trkpt lat="42.42350998727173" lon="14.215016784646963"><ele>134.0</ele><time>2026-05-01T07:25:36.002Z</time></trkpt><trkpt lat="42.42348094442144" lon="14.215140045365509"><ele>134.0</ele><time>2026-05-01T07:25:37.002Z</time></trkpt><trkpt lat="42.42340633587528" lon="14.215243437180716"><ele>134.0</ele><time>2026-05-01T07:25:38.002Z</time></trkpt><trkpt lat="42.42336604311797" lon="14.215360296623622"><ele>134.0</ele><time>2026-05-01T07:25:39.001Z</time></trkpt><trkpt lat="42.42332538564511" lon="14.21547821383469"><ele>134.0</ele><time>2026-05-01T07:25:40.001Z</time></trkpt><trkpt lat="42.42328517383712" lon="14.21559072616099"><ele>134.0</ele><time>2026-05-01T07:25:41.001Z</time></trkpt><trkpt lat="42.42324469955874" lon="14.215696166031742"><ele>134.0</ele><time>2026-05-01T07:25:42.001Z</time></trkpt><trkpt lat="42.42319762644669" lon="14.21581165629861"><ele>134.0</ele><time>2026-05-01T07:25:43.001Z</time></trkpt><trkpt lat="42.42315295955748" lon="14.215925398567853"><ele>134.0</ele><time>2026-05-01T07:25:44.001Z</time></trkpt><trkpt lat="42.42311252884488" lon="14.216037988488038"><ele>135.4</ele><time>2026-05-01T07:25:45.001Z</time></trkpt><trkpt lat="42.423081295239335" lon="14.216146962760009"><ele>136.8</ele><time>2026-05-01T07:25:46.001Z</time></trkpt><trkpt lat="42.423057333660516" lon="14.216275264390188"><ele>138.2</ele><time>2026-05-01T07:25:47.001Z</time></trkpt><trkpt lat="42.42302573520171" lon="14.216400331513732"><ele>139.6</ele><time>2026-05-01T07:25:48.001Z</time></trkpt><trkpt lat="42.42300277380243" lon="14.216519763040218"><ele>141.0</ele><time>2026-05-01T07:25:49.001Z</time></trkpt><trkpt lat="42.42297539484979" lon="14.216630314669114"><ele>142.5</ele><time>2026-05-01T07:25:50.001Z</time></trkpt><trkpt lat="42.4229531994513" lon="14.216726138503281"><ele>144.0</ele><time>2026-05-01T07:25:51.001Z</time></trkpt><trkpt lat="42.422915486211494" lon="14.216808071391467"><ele>145.5</ele><time>2026-05-01T07:25:52.001Z</time></trkpt><trkpt lat="42.42288284500784" lon="14.216911299312402"><ele>147.0</ele><time>2026-05-01T07:25:54.001Z</time></trkpt><trkpt lat="42.42282949888952" lon="14.216973480061744"><ele>148.5</ele><time>2026-05-01T07:25:57.001Z</time></trkpt><trkpt lat="42.42280416292568" lon="14.217137510836128"><ele>150.0</ele><time>2026-05-01T07:26:00.002Z</time></trkpt><trkpt lat="42.4228486498965" lon="14.217282437580268"><ele>152.0</ele><time>2026-05-01T07:26:01.002Z</time></trkpt><trkpt lat="42.42289656375305" lon="14.217433569174105"><ele>154.0</ele><time>2026-05-01T07:26:02.002Z</time></trkpt><trkpt lat="42.422954786722" lon="14.21757348130498"><ele>156.0</ele><time>2026-05-01T07:26:03.002Z</time></trkpt><trkpt lat="42.42302128025515" lon="14.217697757138282"><ele>158.0</ele><time>2026-05-01T07:26:04.002Z</time></trkpt><trkpt lat="42.42312734081956" lon="14.217816746893064"><ele>158.0</ele><time>2026-05-01T07:26:05.002Z</time></trkpt><trkpt lat="42.42323879468799" lon="14.217939489270488"><ele>158.0</ele><time>2026-05-01T07:26:06.002Z</time></trkpt><trkpt lat="42.423320522030565" lon="14.218090169024773"><ele>158.0</ele><time>2026-05-01T07:26:07.002Z</time></trkpt><trkpt lat="42.423400971296644" lon="14.218232686242665"><ele>158.0</ele><time>2026-05-01T07:26:08.002Z</time></trkpt><trkpt lat="42.42343667297593" lon="14.218415278290912"><ele>154.20000000000002</ele><time>2026-05-01T07:26:09.002Z</time></trkpt><trkpt lat="42.423478909965006" lon="14.218575327700002"><ele>150.4</ele><time>2026-05-01T07:26:10.002Z</time></trkpt><trkpt lat="42.423520462171105" lon="14.218707774749493"><ele>146.60000000000002</ele><time>2026-05-01T07:26:11.002Z</time></trkpt><trkpt lat="42.42357400530101" lon="14.218815903426623"><ele>142.8</ele><time>2026-05-01T07:26:12.002Z</time></trkpt><trkpt lat="42.42362313275608" lon="14.218900224492703"><ele>139.0</ele><time>2026-05-01T07:26:13.002Z</time></trkpt><trkpt lat="42.42368147076438" lon="14.218979527532047"><ele>139.0</ele><time>2026-05-01T07:26:15.002Z</time></trkpt><trkpt lat="42.42362287980052" lon="14.218939215952034"><ele>139.0</ele><time>2026-05-01T07:26:21.002Z</time></trkpt><trkpt lat="42.42350658629669" lon="14.218870125954936"><ele>139.0</ele><time>2026-05-01T07:26:22.002Z</time></trkpt><trkpt lat="42.42341841888303" lon="14.218756489800935"><ele>139.0</ele><time>2026-05-01T07:26:23.002Z</time></trkpt><trkpt lat="42.423339547221325" lon="14.218621080214362"><ele>139.0</ele><time>2026-05-01T07:26:24.002Z</time></trkpt><trkpt lat="42.42322840513493" lon="14.218462219649124"><ele>139.0</ele><time>2026-05-01T07:26:25.002Z</time></trkpt><trkpt lat="42.42312804359421" lon="14.218346068780308"><ele>139.0</ele><time>2026-05-01T07:26:26.002Z</time></trkpt><trkpt lat="42.423028816934085" lon="14.21825566123035"><ele>139.0</ele><time>2026-05-01T07:26:27.002Z</time></trkpt><trkpt lat="42.42296127234425" lon="14.218078158876752"><ele>139.0</ele><time>2026-05-01T07:26:28.002Z</time></trkpt><trkpt lat="42.42279929253982" lon="14.21815154988676"><ele>138.5</ele><time>2026-05-01T07:26:29.002Z</time></trkpt><trkpt lat="42.42265826934858" lon="14.218185088865837"><ele>138.0</ele><time>2026-05-01T07:26:30.002Z</time></trkpt><trkpt lat="42.422530541211465" lon="14.218220147916034"><ele>137.5</ele><time>2026-05-01T07:26:31.002Z</time></trkpt><trkpt lat="42.42241152248178" lon="14.218211982832159"><ele>137.0</ele><time>2026-05-01T07:26:32.002Z</time></trkpt><trkpt lat="42.42230455068106" lon="14.218124704707403"><ele>137.0</ele><time>2026-05-01T07:26:33.002Z</time></trkpt><trkpt lat="42.42218908122669" lon="14.218045814634808"><ele>137.0</ele><time>2026-05-01T07:26:34.002Z</time></trkpt><trkpt lat="42.422068533404605" lon="14.217947219896766"><ele>137.0</ele><time>2026-05-01T07:26:35.002Z</time></trkpt><trkpt lat="42.42195512245503" lon="14.217827320666528"><ele>137.0</ele><time>2026-05-01T07:26:36.002Z</time></trkpt><trkpt lat="42.421821071586635" lon="14.217748354115713"><ele>132.5</ele><time>2026-05-01T07:26:37.002Z</time></trkpt><trkpt lat="42.42168976557441" lon="14.217691841728982"><ele>128.0</ele><time>2026-05-01T07:26:38.002Z</time></trkpt><trkpt lat="42.421570306123144" lon="14.21764493222224"><ele>123.5</ele><time>2026-05-01T07:26:39.002Z</time></trkpt><trkpt lat="42.42146107826082" lon="14.217588223213603"><ele>119.0</ele><time>2026-05-01T07:26:40.002Z</time></trkpt><trkpt lat="42.42135265043066" lon="14.217534413713112"><ele>117.75</ele><time>2026-05-01T07:26:41.002Z</time></trkpt><trkpt lat="42.42124453424788" lon="14.217468013915445"><ele>116.5</ele><time>2026-05-01T07:26:42.002Z</time></trkpt><trkpt lat="42.42113692264061" lon="14.217371066907315"><ele>115.25</ele><time>2026-05-01T07:26:43.002Z</time></trkpt><trkpt lat="42.42104450990623" lon="14.217258801184911"><ele>114.0</ele><time>2026-05-01T07:26:44.002Z</time></trkpt><trkpt lat="42.4209756760771" lon="14.217135906788073"><ele>114.0</ele><time>2026-05-01T07:26:45.002Z</time></trkpt><trkpt lat="42.420945800168795" lon="14.217012595575133"><ele>114.0</ele><time>2026-05-01T07:26:46.002Z</time></trkpt><trkpt lat="42.4209633269295" lon="14.21687561930142"><ele>114.0</ele><time>2026-05-01T07:26:47.002Z</time></trkpt><trkpt lat="42.42095952460414" lon="14.216750241830356"><ele>114.0</ele><time>2026-05-01T07:26:48.002Z</time></trkpt><trkpt lat="42.42096323228254" lon="14.216637810944531"><ele>114.0</ele><time>2026-05-01T07:26:49.002Z</time></trkpt><trkpt lat="42.42093824279185" lon="14.216527866071564"><ele>114.0</ele><time>2026-05-01T07:26:50.002Z</time></trkpt><trkpt lat="42.4209018077647" lon="14.21644279997968"><ele>114.0</ele><time>2026-05-01T07:26:51.002Z</time></trkpt><trkpt lat="42.420841333144075" lon="14.216387710896925"><ele>114.0</ele><time>2026-05-01T07:26:53.002Z</time></trkpt><trkpt lat="42.42078506599573" lon="14.216614772168382"><ele>114.0</ele><time>2026-05-01T07:26:56.002Z</time></trkpt><trkpt lat="42.42077063051958" lon="14.216721677568946"><ele>114.0</ele><time>2026-05-01T07:26:57.002Z</time></trkpt><trkpt lat="42.42078199990019" lon="14.216848355470873"><ele>114.0</ele><time>2026-05-01T07:26:58.002Z</time></trkpt><trkpt lat="42.42075538113126" lon="14.216987191818797"><ele>114.0</ele><time>2026-05-01T07:26:59.003Z</time></trkpt><trkpt lat="42.42075959700964" lon="14.217144887782359"><ele>114.0</ele><time>2026-05-01T07:27:00.003Z</time></trkpt><trkpt lat="42.420787963592616" lon="14.217303737015776"><ele>114.0</ele><time>2026-05-01T07:27:01.003Z</time></trkpt><trkpt lat="42.42082885937247" lon="14.217460398649683"><ele>111.6</ele><time>2026-05-01T07:27:02.003Z</time></trkpt><trkpt lat="42.42086257928955" lon="14.217618417356158"><ele>109.2</ele><time>2026-05-01T07:27:03.003Z</time></trkpt><trkpt lat="42.42087989642579" lon="14.217764185060721"><ele>106.8</ele><time>2026-05-01T07:27:04.003Z</time></trkpt><trkpt lat="42.42090178392633" lon="14.217884746858411"><ele>104.39999999999999</ele><time>2026-05-01T07:27:05.003Z</time></trkpt><trkpt lat="42.420915340693305" lon="14.217991067350624"><ele>102.0</ele><time>2026-05-01T07:27:06.003Z</time></trkpt><trkpt lat="42.420914571126296" lon="14.218076688490253"><ele>99.75</ele><time>2026-05-01T07:27:07.003Z</time></trkpt><trkpt lat="42.42089563088035" lon="14.218198030131916"><ele>97.5</ele><time>2026-05-01T07:27:09.003Z</time></trkpt><trkpt lat="42.42086593131177" lon="14.218273397352135"><ele>95.25</ele><time>2026-05-01T07:27:29.002Z</time></trkpt><trkpt lat="42.42082659699565" lon="14.218350961990705"><ele>93.0</ele><time>2026-05-01T07:27:37.001Z</time></trkpt><trkpt lat="42.42043371910923" lon="14.219157461754277"><ele>90.00000000000001</ele><time>2026-05-01T07:27:56.001Z</time></trkpt><trkpt lat="42.42039584381323" lon="14.219243211447177"><ele>87.0</ele><time>2026-05-01T07:27:58.001Z</time></trkpt><trkpt lat="42.42033650407004" lon="14.219354385946867"><ele>84.0</ele><time>2026-05-01T07:28:01.001Z</time></trkpt><trkpt lat="42.4203034189114" lon="14.219445936702249"><ele>81.0</ele><time>2026-05-01T07:28:02.001Z</time></trkpt><trkpt lat="42.42028323991098" lon="14.219528074198792"><ele>78.0</ele><time>2026-05-01T07:28:03.001Z</time></trkpt><trkpt lat="42.420260582490215" lon="14.219616802923476"><ele>75.00000000000001</ele><time>2026-05-01T07:28:04.001Z</time></trkpt><trkpt lat="42.420232553189685" lon="14.219695762146952"><ele>72.0</ele><time>2026-05-01T07:28:05.001Z</time></trkpt><trkpt lat="42.420191849549425" lon="14.219772251981448"><ele>70.0</ele><time>2026-05-01T07:28:06.001Z</time></trkpt><trkpt lat="42.42015685839032" lon="14.219852409374168"><ele>68.0</ele><time>2026-05-01T07:28:07.001Z</time></trkpt><trkpt lat="42.42008789156294" lon="14.219997107455"><ele>66.0</ele><time>2026-05-01T07:28:09.001Z</time></trkpt><trkpt lat="42.42005362301985" lon="14.220089582249845"><ele>64.0</ele><time>2026-05-01T07:28:10.001Z</time></trkpt><trkpt lat="42.42000647416468" lon="14.220171753349574"><ele>62.0</ele><time>2026-05-01T07:28:11.001Z</time></trkpt><trkpt lat="42.41996768722938" lon="14.220311623782893"><ele>62.00000000000001</ele><time>2026-05-01T07:28:13.001Z</time></trkpt><trkpt lat="42.419934088310775" lon="14.22043260188011"><ele>62.0</ele><time>2026-05-01T07:28:15.001Z</time></trkpt><trkpt lat="42.419903049523235" lon="14.220547875949983"><ele>62.0</ele><time>2026-05-01T07:28:17.001Z</time></trkpt><trkpt lat="42.419879770824096" lon="14.22063282030847"><ele>62.0</ele><time>2026-05-01T07:28:18.001Z</time></trkpt><trkpt lat="42.41985688829917" lon="14.220712603761962"><ele>62.00000000000001</ele><time>2026-05-01T07:28:19.001Z</time></trkpt><trkpt lat="42.41981555641716" lon="14.220848464578538"><ele>62.0</ele><time>2026-05-01T07:28:21.001Z</time></trkpt><trkpt lat="42.41975116116284" lon="14.220975969953386"><ele>60.16666666666667</ele><time>2026-05-01T07:28:23.001Z</time></trkpt><trkpt lat="42.41970913044368" lon="14.221057355846044"><ele>58.333333333333336</ele><time>2026-05-01T07:28:25.001Z</time></trkpt><trkpt lat="42.41963598432818" lon="14.22105096803909"><ele>56.5</ele><time>2026-05-01T07:28:28.001Z</time></trkpt><trkpt lat="42.41956947202715" lon="14.220948245454807"><ele>54.66666666666667</ele><time>2026-05-01T07:28:30.001Z</time></trkpt><trkpt lat="42.41951568158854" lon="14.22088167021102"><ele>52.833333333333336</ele><time>2026-05-01T07:28:31.001Z</time></trkpt><trkpt lat="42.41943426967584" lon="14.220831115690803"><ele>51.0</ele><time>2026-05-01T07:28:32.001Z</time></trkpt><trkpt lat="42.41933949124942" lon="14.220766054319807"><ele>50.833333333333336</ele><time>2026-05-01T07:28:33.001Z</time></trkpt><trkpt lat="42.419242937354554" lon="14.22070935840669"><ele>50.66666666666667</ele><time>2026-05-01T07:28:34.001Z</time></trkpt><trkpt lat="42.419172754232825" lon="14.220659013063045"><ele>50.5</ele><time>2026-05-01T07:28:35.001Z</time></trkpt><trkpt lat="42.41911706336536" lon="14.220611772287143"><ele>50.333333333333336</ele><time>2026-05-01T07:28:36.001Z</time></trkpt><trkpt lat="42.41906792144262" lon="14.220547871645849"><ele>50.16666666666667</ele><time>2026-05-01T07:28:37.001Z</time></trkpt><trkpt lat="42.41902612536675" lon="14.220459567522433"><ele>50.0</ele><time>2026-05-01T07:28:38.001Z</time></trkpt><trkpt lat="42.41895126174174" lon="14.2203311146179"><ele>50.333333333333336</ele><time>2026-05-01T07:28:40.001Z</time></trkpt><trkpt lat="42.41887997612331" lon="14.220297265021635"><ele>50.66666666666667</ele><time>2026-05-01T07:28:41.001Z</time></trkpt><trkpt lat="42.41880108979962" lon="14.220282851786079"><ele>51.0</ele><time>2026-05-01T07:28:42.001Z</time></trkpt><trkpt lat="42.41872888928706" lon="14.220283492199025"><ele>51.33333333333333</ele><time>2026-05-01T07:28:43.001Z</time></trkpt><trkpt lat="42.418659771530024" lon="14.220288924606063"><ele>51.666666666666664</ele><time>2026-05-01T07:28:44.001Z</time></trkpt><trkpt lat="42.4185120341001" lon="14.220275171084657"><ele>52.0</ele><time>2026-05-01T07:28:46.001Z</time></trkpt><trkpt lat="42.41842026556806" lon="14.220224746695218"><ele>52.0</ele><time>2026-05-01T07:28:47.001Z</time></trkpt><trkpt lat="42.4183375553341" lon="14.220147913770692"><ele>52.0</ele><time>2026-05-01T07:28:48.001Z</time></trkpt><trkpt lat="42.41826433114569" lon="14.220056184871757"><ele>52.0</ele><time>2026-05-01T07:28:49.001Z</time></trkpt><trkpt lat="42.41821031300698" lon="14.219962659947821"><ele>52.0</ele><time>2026-05-01T07:28:50.001Z</time></trkpt><trkpt lat="42.418174438230274" lon="14.219853730822205"><ele>52.0</ele><time>2026-05-01T07:28:51.001Z</time></trkpt><trkpt lat="42.418085972717996" lon="14.219760940763898"><ele>51.99999999999999</ele><time>2026-05-01T07:28:53.001Z</time></trkpt><trkpt lat="42.41801680932981" lon="14.219718352352897"><ele>52.0</ele><time>2026-05-01T07:28:54.001Z</time></trkpt><trkpt lat="42.417929915942146" lon="14.219661733672385"><ele>52.0</ele><time>2026-05-01T07:28:55.001Z</time></trkpt><trkpt lat="42.41782778200376" lon="14.219613508614975"><ele>52.0</ele><time>2026-05-01T07:28:56.001Z</time></trkpt><trkpt lat="42.417745884497826" lon="14.219583657813692"><ele>51.99999999999999</ele><time>2026-05-01T07:28:57.001Z</time></trkpt><trkpt lat="42.417680583125964" lon="14.21957334137404"><ele>52.0</ele><time>2026-05-01T07:28:58.001Z</time></trkpt><trkpt lat="42.41764383081378" lon="14.219470717660693"><ele>51.99999999999999</ele><time>2026-05-01T07:29:01.001Z</time></trkpt><trkpt lat="42.417650906288195" lon="14.219343014521305"><ele>52.0</ele><time>2026-05-01T07:29:04.001Z</time></trkpt><trkpt lat="42.41756595374369" lon="14.219295190703786"><ele>52.0</ele><time>2026-05-01T07:29:07.002Z</time></trkpt><trkpt lat="42.41747406859014" lon="14.219243893216237"><ele>52.0</ele><time>2026-05-01T07:29:10.002Z</time></trkpt><trkpt lat="42.41741828336207" lon="14.219182951413103"><ele>51.99999999999999</ele><time>2026-05-01T07:29:12.002Z</time></trkpt><trkpt lat="42.41736946036681" lon="14.219117355893898"><ele>52.0</ele><time>2026-05-01T07:29:14.002Z</time></trkpt><trkpt lat="42.417304469603344" lon="14.219045653307836"><ele>52.8</ele><time>2026-05-01T07:29:17.002Z</time></trkpt><trkpt lat="42.4172422107339" lon="14.21895543913182"><ele>53.6</ele><time>2026-05-01T07:29:20.002Z</time></trkpt><trkpt lat="42.41715894860153" lon="14.218840739200331"><ele>54.39999999999999</ele><time>2026-05-01T07:29:22.002Z</time></trkpt><trkpt lat="42.41712414881561" lon="14.218758913164836"><ele>55.199999999999996</ele><time>2026-05-01T07:29:23.002Z</time></trkpt><trkpt lat="42.41707127928487" lon="14.218633972073308"><ele>56.0</ele><time>2026-05-01T07:29:25.001Z</time></trkpt><trkpt lat="42.416962825808895" lon="14.218557710784296"><ele>56.0</ele><time>2026-05-01T07:29:27.001Z</time></trkpt><trkpt lat="42.416894639989806" lon="14.218532884802645"><ele>55.99999999999999</ele><time>2026-05-01T07:29:28.001Z</time></trkpt><trkpt lat="42.41683293600352" lon="14.218509687724604"><ele>55.99999999999999</ele><time>2026-05-01T07:29:29.001Z</time></trkpt><trkpt lat="42.41677561602935" lon="14.21847178734265"><ele>56.0</ele><time>2026-05-01T07:29:30.001Z</time></trkpt><trkpt lat="42.416698878031625" lon="14.218312356183391"><ele>56.0</ele><time>2026-05-01T07:29:32.001Z</time></trkpt><trkpt lat="42.416657193956574" lon="14.21816980519149"><ele>57.5</ele><time>2026-05-01T07:29:33.001Z</time></trkpt><trkpt lat="42.41660422039357" lon="14.218035345656025"><ele>59.0</ele><time>2026-05-01T07:29:34.001Z</time></trkpt><trkpt lat="42.416534703025825" lon="14.217904861436226"><ele>60.5</ele><time>2026-05-01T07:29:35.001Z</time></trkpt><trkpt lat="42.41645996801986" lon="14.217774188505025"><ele>62.0</ele><time>2026-05-01T07:29:36.001Z</time></trkpt><trkpt lat="42.41639553084465" lon="14.217654071760569"><ele>62.0</ele><time>2026-05-01T07:29:37.001Z</time></trkpt><trkpt lat="42.4163373228283" lon="14.2175488319437"><ele>62.0</ele><time>2026-05-01T07:29:38.001Z</time></trkpt><trkpt lat="42.4162786751139" lon="14.217447322339885"><ele>62.0</ele><time>2026-05-01T07:29:39.001Z</time></trkpt><trkpt lat="42.416203668193845" lon="14.217348394424073"><ele>62.0</ele><time>2026-05-01T07:29:40.001Z</time></trkpt><trkpt lat="42.41610768999533" lon="14.217234135215598"><ele>62.0</ele><time>2026-05-01T07:29:41.001Z</time></trkpt><trkpt lat="42.41601804798362" lon="14.217131609894897"><ele>61.333333333333336</ele><time>2026-05-01T07:29:42.001Z</time></trkpt><trkpt lat="42.415934336030546" lon="14.217043558808454"><ele>60.66666666666667</ele><time>2026-05-01T07:29:43.001Z</time></trkpt><trkpt lat="42.41586135001228" lon="14.216964016266463"><ele>60.0</ele><time>2026-05-01T07:29:44.001Z</time></trkpt><trkpt lat="42.415793379988656" lon="14.216858287798567"><ele>59.33333333333333</ele><time>2026-05-01T07:29:45.001Z</time></trkpt><trkpt lat="42.41574360829107" lon="14.216774068265709"><ele>58.666666666666664</ele><time>2026-05-01T07:29:46.001Z</time></trkpt><trkpt lat="42.41569862314426" lon="14.216710193999784"><ele>58.0</ele><time>2026-05-01T07:29:47.001Z</time></trkpt><trkpt lat="42.41559888096135" lon="14.216664427617593"><ele>57.99999999999999</ele><time>2026-05-01T07:29:49.001Z</time></trkpt><trkpt lat="42.415533802467934" lon="14.216654519428854"><ele>58.0</ele><time>2026-05-01T07:29:50.001Z</time></trkpt><trkpt lat="42.41543077035536" lon="14.216608220711755"><ele>58.0</ele><time>2026-05-01T07:29:52.001Z</time></trkpt><trkpt lat="42.41536659028783" lon="14.216476310281571"><ele>58.0</ele><time>2026-05-01T07:29:54.001Z</time></trkpt><trkpt lat="42.41533772625383" lon="14.21638769971594"><ele>57.99999999999999</ele><time>2026-05-01T07:29:55.001Z</time></trkpt><trkpt lat="42.415321474783276" lon="14.21629755013125"><ele>58.0</ele><time>2026-05-01T07:29:56.001Z</time></trkpt><trkpt lat="42.415280138166075" lon="14.216210957440069"><ele>58.33333333333333</ele><time>2026-05-01T07:29:57.001Z</time></trkpt><trkpt lat="42.41522340270645" lon="14.216105085067618"><ele>58.666666666666664</ele><time>2026-05-01T07:29:59.001Z</time></trkpt><trkpt lat="42.415145733321815" lon="14.21602501277594"><ele>59.0</ele><time>2026-05-01T07:30:01.001Z</time></trkpt><trkpt lat="42.41507597751206" lon="14.215965408925443"><ele>59.33333333333333</ele><time>2026-05-01T07:30:02.001Z</time></trkpt><trkpt lat="42.415018075108144" lon="14.215903279890236"><ele>59.666666666666664</ele><time>2026-05-01T07:30:03.001Z</time></trkpt><trkpt lat="42.41494697276305" lon="14.215840651828568"><ele>60.0</ele><time>2026-05-01T07:30:04.001Z</time></trkpt><trkpt lat="42.41488308953455" lon="14.215769123893487"><ele>60.0</ele><time>2026-05-01T07:30:05Z</time></trkpt><trkpt lat="42.41483875147863" lon="14.215681567672457"><ele>60.0</ele><time>2026-05-01T07:30:06Z</time></trkpt><trkpt lat="42.41481422226818" lon="14.215575750679813"><ele>60.0</ele><time>2026-05-01T07:30:07Z</time></trkpt><trkpt lat="42.41480108231196" lon="14.215442709502483"><ele>60.0</ele><time>2026-05-01T07:30:08Z</time></trkpt><trkpt lat="42.41478153389449" lon="14.215288186543447"><ele>60.0</ele><time>2026-05-01T07:30:09Z</time></trkpt><trkpt lat="42.41476338294478" lon="14.215180034201708"><ele>60.833333333333336</ele><time>2026-05-01T07:30:10Z</time></trkpt><trkpt lat="42.41473654900611" lon="14.215077920798016"><ele>61.66666666666667</ele><time>2026-05-01T07:30:11Z</time></trkpt><trkpt lat="42.41472287642227" lon="14.214917931645738"><ele>62.5</ele><time>2026-05-01T07:30:13Z</time></trkpt><trkpt lat="42.4147268792724" lon="14.214816807589914"><ele>63.333333333333336</ele><time>2026-05-01T07:30:14Z</time></trkpt><trkpt lat="42.41474610120516" lon="14.214710865470126"><ele>64.16666666666667</ele><time>2026-05-01T07:30:15Z</time></trkpt><trkpt lat="42.4147682793477" lon="14.214600398095563"><ele>65.0</ele><time>2026-05-01T07:30:16Z</time></trkpt><trkpt lat="42.41473955390856" lon="14.214437410431163"><ele>65.2</ele><time>2026-05-01T07:30:18Z</time></trkpt><trkpt lat="42.41470002444892" lon="14.214346743316886"><ele>65.4</ele><time>2026-05-01T07:30:19Z</time></trkpt><trkpt lat="42.41464442551992" lon="14.214253481818137"><ele>65.6</ele><time>2026-05-01T07:30:20Z</time></trkpt><trkpt lat="42.41457840266742" lon="14.214150136442266"><ele>65.8</ele><time>2026-05-01T07:30:21Z</time></trkpt><trkpt lat="42.41451451675005" lon="14.214037786620862"><ele>66.0</ele><time>2026-05-01T07:30:22Z</time></trkpt><trkpt lat="42.41446190970137" lon="14.213933825864606"><ele>65.71428571428571</ele><time>2026-05-01T07:30:23Z</time></trkpt><trkpt lat="42.41442650288694" lon="14.213851552992839"><ele>65.42857142857143</ele><time>2026-05-01T07:30:24Z</time></trkpt><trkpt lat="42.41438033610488" lon="14.213778416285038"><ele>65.14285714285714</ele><time>2026-05-01T07:30:25Z</time></trkpt><trkpt lat="42.414367874931145" lon="14.213686004661927"><ele>64.85714285714286</ele><time>2026-05-01T07:30:26Z</time></trkpt><trkpt lat="42.41437654977021" lon="14.213596923078228"><ele>64.57142857142857</ele><time>2026-05-01T07:30:27Z</time></trkpt><trkpt lat="42.414417028397565" lon="14.213507109735769"><ele>64.28571428571428</ele><time>2026-05-01T07:30:28Z</time></trkpt><trkpt lat="42.41447269666137" lon="14.213417302058948"><ele>64.0</ele><time>2026-05-01T07:30:29Z</time></trkpt><trkpt lat="42.414515980630945" lon="14.213324761083719"><ele>64.0</ele><time>2026-05-01T07:30:30Z</time></trkpt><trkpt lat="42.41453283768283" lon="14.21322353779378"><ele>64.0</ele><time>2026-05-01T07:30:31Z</time></trkpt><trkpt lat="42.41453609691929" lon="14.213108233675435"><ele>64.0</ele><time>2026-05-01T07:30:32Z</time></trkpt><trkpt lat="42.41450829055717" lon="14.212953857938118"><ele>64.0</ele><time>2026-05-01T07:30:33Z</time></trkpt><trkpt lat="42.41449125050048" lon="14.212814700699333"><ele>64.0</ele><time>2026-05-01T07:30:34Z</time></trkpt><trkpt lat="42.4144671219563" lon="14.212693602524324"><ele>64.60000000000001</ele><time>2026-05-01T07:30:35Z</time></trkpt><trkpt lat="42.414419585483735" lon="14.212579764846325"><ele>65.2</ele><time>2026-05-01T07:30:36Z</time></trkpt><trkpt lat="42.41436693749655" lon="14.212491057733628"><ele>65.80000000000001</ele><time>2026-05-01T07:30:37Z</time></trkpt><trkpt lat="42.41431528751518" lon="14.212396301075794"><ele>66.4</ele><time>2026-05-01T07:30:38Z</time></trkpt><trkpt lat="42.41427648331445" lon="14.212291497050908"><ele>67.0</ele><time>2026-05-01T07:30:39Z</time></trkpt><trkpt lat="42.41422778429027" lon="14.21217630997496"><ele>67.2</ele><time>2026-05-01T07:30:40Z</time></trkpt><trkpt lat="42.41419727958498" lon="14.21208504400068"><ele>67.4</ele><time>2026-05-01T07:30:41Z</time></trkpt><trkpt lat="42.41413217728628" lon="14.21194141912523"><ele>67.6</ele><time>2026-05-01T07:30:42Z</time></trkpt><trkpt lat="42.41408260257716" lon="14.211811651753578"><ele>67.8</ele><time>2026-05-01T07:30:43Z</time></trkpt><trkpt lat="42.41403126392046" lon="14.211659768231279"><ele>68.0</ele><time>2026-05-01T07:30:44Z</time></trkpt><trkpt lat="42.413980031799895" lon="14.211520313776925"><ele>68.6</ele><time>2026-05-01T07:30:45Z</time></trkpt><trkpt lat="42.4139181913329" lon="14.211368623241148"><ele>69.19999999999999</ele><time>2026-05-01T07:30:46Z</time></trkpt><trkpt lat="42.41386563638919" lon="14.211224829556397"><ele>69.8</ele><time>2026-05-01T07:30:47Z</time></trkpt><trkpt lat="42.413817468563664" lon="14.211112651942246"><ele>70.39999999999999</ele><time>2026-05-01T07:30:48Z</time></trkpt><trkpt lat="42.41376635080249" lon="14.211007693427135"><ele>71.0</ele><time>2026-05-01T07:30:49Z</time></trkpt><trkpt lat="42.41372792252723" lon="14.210842546105606"><ele>71.0</ele><time>2026-05-01T07:30:51Z</time></trkpt><trkpt lat="42.41372222126161" lon="14.210736782145927"><ele>71.0</ele><time>2026-05-01T07:30:52Z</time></trkpt><trkpt lat="42.41373530488073" lon="14.210611109184269"><ele>71.0</ele><time>2026-05-01T07:30:53Z</time></trkpt><trkpt lat="42.41374713535004" lon="14.210515409141507"><ele>71.0</ele><time>2026-05-01T07:30:54Z</time></trkpt><trkpt lat="42.4137322415876" lon="14.21042674531485"><ele>71.0</ele><time>2026-05-01T07:30:55Z</time></trkpt><trkpt lat="42.413684722131016" lon="14.210330919371268"><ele>71.0</ele><time>2026-05-01T07:30:56Z</time></trkpt><trkpt lat="42.41363014845591" lon="14.210236033262895"><ele>71.16666666666667</ele><time>2026-05-01T07:30:57Z</time></trkpt><trkpt lat="42.41357117545528" lon="14.21013033009432"><ele>71.33333333333334</ele><time>2026-05-01T07:30:58Z</time></trkpt><trkpt lat="42.41352043447084" lon="14.210070795568953"><ele>71.5</ele><time>2026-05-01T07:30:59Z</time></trkpt><trkpt lat="42.41344638135843" lon="14.210022604502425"><ele>71.66666666666667</ele><time>2026-05-01T07:31:00Z</time></trkpt><trkpt lat="42.413371614111774" lon="14.210003803230714"><ele>71.83333333333333</ele><time>2026-05-01T07:31:01Z</time></trkpt><trkpt lat="42.413269196203295" lon="14.209923318395456"><ele>72.0</ele><time>2026-05-01T07:31:03Z</time></trkpt><trkpt lat="42.41322485639569" lon="14.209849818225953"><ele>72.0</ele><time>2026-05-01T07:31:05Z</time></trkpt><trkpt lat="42.4131667746562" lon="14.209888318903902"><ele>72.0</ele><time>2026-05-01T07:31:08Z</time></trkpt><trkpt lat="42.413070391248674" lon="14.209976634463588"><ele>72.0</ele><time>2026-05-01T07:31:10Z</time></trkpt><trkpt lat="42.41300219433663" lon="14.210027871970729"><ele>72.0</ele><time>2026-05-01T07:31:11.001Z</time></trkpt><trkpt lat="42.412922516536234" lon="14.21008633584596"><ele>72.0</ele><time>2026-05-01T07:31:12.001Z</time></trkpt><trkpt lat="42.41283229289853" lon="14.210133099814717"><ele>72.0</ele><time>2026-05-01T07:31:14.001Z</time></trkpt><trkpt lat="42.41282488902322" lon="14.210250309522342"><ele>73.75</ele><time>2026-05-01T07:31:18.001Z</time></trkpt><trkpt lat="42.41286631665714" lon="14.210407474614197"><ele>75.5</ele><time>2026-05-01T07:31:19.001Z</time></trkpt><trkpt lat="42.41289158724176" lon="14.210593423898647"><ele>77.25</ele><time>2026-05-01T07:31:20.001Z</time></trkpt><trkpt lat="42.41287497597237" lon="14.210836359597472"><ele>79.0</ele><time>2026-05-01T07:31:21.001Z</time></trkpt><trkpt lat="42.412828700074314" lon="14.211094276381138"><ele>80.0</ele><time>2026-05-01T07:31:22.001Z</time></trkpt><trkpt lat="42.41283545293674" lon="14.211346113203552"><ele>81.0</ele><time>2026-05-01T07:31:23.001Z</time></trkpt><trkpt lat="42.4128582944383" lon="14.211603143840746"><ele>82.0</ele><time>2026-05-01T07:31:24.001Z</time></trkpt><trkpt lat="42.41289960641204" lon="14.211858860531677"><ele>82.0</ele><time>2026-05-01T07:31:25.001Z</time></trkpt><trkpt lat="42.41293824446277" lon="14.212134885023307"><ele>82.0</ele><time>2026-05-01T07:31:26.001Z</time></trkpt><trkpt lat="42.412965312775825" lon="14.212369074283364"><ele>82.0</ele><time>2026-05-01T07:31:27.001Z</time></trkpt><trkpt lat="42.41301661358694" lon="14.212580037342317"><ele>79.66666666666666</ele><time>2026-05-01T07:31:28.001Z</time></trkpt><trkpt lat="42.413089875215576" lon="14.212808448538025"><ele>77.33333333333333</ele><time>2026-05-01T07:31:29.001Z</time></trkpt><trkpt lat="42.41317683272759" lon="14.213087405982115"><ele>75.0</ele><time>2026-05-01T07:31:30.001Z</time></trkpt><trkpt lat="42.41326556543444" lon="14.213380652614998"><ele>75.0</ele><time>2026-05-01T07:31:31.001Z</time></trkpt><trkpt lat="42.413313857907234" lon="14.213627721261059"><ele>75.0</ele><time>2026-05-01T07:31:32.001Z</time></trkpt><trkpt lat="42.413348066622994" lon="14.21385149399974"><ele>75.0</ele><time>2026-05-01T07:31:33.001Z</time></trkpt><trkpt lat="42.41337333295575" lon="14.214088689783885"><ele>78.0</ele><time>2026-05-01T07:31:34.001Z</time></trkpt><trkpt lat="42.413420074241785" lon="14.214276400682566"><ele>81.0</ele><time>2026-05-01T07:31:35.001Z</time></trkpt><trkpt lat="42.413475575148986" lon="14.214442365013625"><ele>84.0</ele><time>2026-05-01T07:31:36.001Z</time></trkpt><trkpt lat="42.413550793260235" lon="14.214658911876274"><ele>86.0</ele><time>2026-05-01T07:31:37.001Z</time></trkpt><trkpt lat="42.413665906437096" lon="14.214918721023118"><ele>88.0</ele><time>2026-05-01T07:31:38.001Z</time></trkpt><trkpt lat="42.41376252243822" lon="14.215176886525883"><ele>90.0</ele><time>2026-05-01T07:31:39.001Z</time></trkpt><trkpt lat="42.41385202351891" lon="14.215462682376655"><ele>82.5</ele><time>2026-05-01T07:31:40.001Z</time></trkpt><trkpt lat="42.41395977730189" lon="14.215780141998932"><ele>75.0</ele><time>2026-05-01T07:31:41.001Z</time></trkpt><trkpt lat="42.4140973916515" lon="14.216076681201935"><ele>75.0</ele><time>2026-05-01T07:31:42.001Z</time></trkpt><trkpt lat="42.41421801691472" lon="14.216364141040483"><ele>75.0</ele><time>2026-05-01T07:31:43Z</time></trkpt><trkpt lat="42.414307103147245" lon="14.216581677128184"><ele>75.0</ele><time>2026-05-01T07:31:44Z</time></trkpt><trkpt lat="42.41437794290155" lon="14.216756658732688"><ele>76.5</ele><time>2026-05-01T07:31:45Z</time></trkpt><trkpt lat="42.41444605471627" lon="14.216936391007343"><ele>78.0</ele><time>2026-05-01T07:31:46Z</time></trkpt><trkpt lat="42.41450061310311" lon="14.217100556940853"><ele>79.5</ele><time>2026-05-01T07:31:47Z</time></trkpt><trkpt lat="42.41452075047715" lon="14.217271247924472"><ele>81.0</ele><time>2026-05-01T07:31:48Z</time></trkpt><trkpt lat="42.41453654536642" lon="14.217485398697773"><ele>83.19999999999999</ele><time>2026-05-01T07:31:49Z</time></trkpt><trkpt lat="42.41454124576274" lon="14.217657259267977"><ele>85.39999999999999</ele><time>2026-05-01T07:31:50Z</time></trkpt><trkpt lat="42.4145239005964" lon="14.21775080257304"><ele>87.6</ele><time>2026-05-01T07:31:51Z</time></trkpt><trkpt lat="42.41444204754126" lon="14.21780373120958"><ele>89.8</ele><time>2026-05-01T07:31:52Z</time></trkpt><trkpt lat="42.414325688841366" lon="14.217880605313981"><ele>92.0</ele><time>2026-05-01T07:31:53Z</time></trkpt><trkpt lat="42.414213660793905" lon="14.217996472689354"><ele>92.0</ele><time>2026-05-01T07:31:54Z</time></trkpt><trkpt lat="42.41411531629922" lon="14.21810254552507"><ele>92.0</ele><time>2026-05-01T07:31:55Z</time></trkpt><trkpt lat="42.41403835084721" lon="14.21825770254256"><ele>92.0</ele><time>2026-05-01T07:31:56Z</time></trkpt><trkpt lat="42.41397485299824" lon="14.218440436983169"><ele>92.0</ele><time>2026-05-01T07:31:57Z</time></trkpt><trkpt lat="42.41390221197921" lon="14.218564322145928"><ele>91.14285714285715</ele><time>2026-05-01T07:31:58Z</time></trkpt><trkpt lat="42.413862441005634" lon="14.218647760520469"><ele>90.28571428571428</ele><time>2026-05-01T07:31:59Z</time></trkpt><trkpt lat="42.413821740722504" lon="14.218723092422533"><ele>89.42857142857143</ele><time>2026-05-01T07:32:01Z</time></trkpt><trkpt lat="42.41376640715312" lon="14.218798507021774"><ele>88.57142857142858</ele><time>2026-05-01T07:32:04Z</time></trkpt><trkpt lat="42.4137069088508" lon="14.218852815473737"><ele>87.71428571428572</ele><time>2026-05-01T07:32:06Z</time></trkpt><trkpt lat="42.41363500780657" lon="14.218892522846472"><ele>86.85714285714286</ele><time>2026-05-01T07:32:10Z</time></trkpt><trkpt lat="42.413558449555154" lon="14.218915181379959"><ele>86.0</ele><time>2026-05-01T07:32:15Z</time></trkpt><trkpt lat="42.41357737180484" lon="14.2196544224137"><ele>86.0</ele><time>2026-05-01T07:32:36Z</time></trkpt><trkpt lat="42.41358998420517" lon="14.219771883421599"><ele>86.0</ele><time>2026-05-01T07:32:40Z</time></trkpt><trkpt lat="42.413594754156215" lon="14.219906218146393"><ele>86.0</ele><time>2026-05-01T07:32:43Z</time></trkpt><trkpt lat="42.41360657215288" lon="14.22003908998221"><ele>86.0</ele><time>2026-05-01T07:32:45Z</time></trkpt><trkpt lat="42.41362458202606" lon="14.22017853998231"><ele>86.0</ele><time>2026-05-01T07:32:47Z</time></trkpt><trkpt lat="42.41364100235915" lon="14.220274002307544"><ele>83.8</ele><time>2026-05-01T07:32:49Z</time></trkpt><trkpt lat="42.413645362319706" lon="14.220424117360691"><ele>81.6</ele><time>2026-05-01T07:32:50.999Z</time></trkpt><trkpt lat="42.41364758582308" lon="14.22051709124217"><ele>79.4</ele><time>2026-05-01T07:32:51.999Z</time></trkpt><trkpt lat="42.413652575303445" lon="14.220610662176341"><ele>77.2</ele><time>2026-05-01T07:32:52.999Z</time></trkpt><trkpt lat="42.41365920506762" lon="14.220768237778083"><ele>75.0</ele><time>2026-05-01T07:32:54.999Z</time></trkpt><trkpt lat="42.41364648138849" lon="14.220882943485861"><ele>75.0</ele><time>2026-05-01T07:32:56.999Z</time></trkpt><trkpt lat="42.4136194726087" lon="14.220972263706571"><ele>75.0</ele><time>2026-05-01T07:32:58.999Z</time></trkpt><trkpt lat="42.41355154204344" lon="14.22105287639742"><ele>75.0</ele><time>2026-05-01T07:33:00.999Z</time></trkpt><trkpt lat="42.413468339466" lon="14.221049421821418"><ele>75.0</ele><time>2026-05-01T07:33:02.999Z</time></trkpt><trkpt lat="42.41337630963404" lon="14.221036982727364"><ele>75.0</ele><time>2026-05-01T07:33:04.999Z</time></trkpt><trkpt lat="42.413306020998796" lon="14.221102382524482"><ele>75.0</ele><time>2026-05-01T07:33:06.999Z</time></trkpt><trkpt lat="42.41329642081505" lon="14.221187151744884"><ele>75.0</ele><time>2026-05-01T07:33:08.999Z</time></trkpt><trkpt lat="42.4133388727564" lon="14.221288611324821"><ele>75.0</ele><time>2026-05-01T07:33:11.999Z</time></trkpt><trkpt lat="42.413418339168075" lon="14.221336560573873"><ele>75.0</ele><time>2026-05-01T07:33:14.999Z</time></trkpt><trkpt lat="42.41349394206242" lon="14.221352598515116"><ele>75.0</ele><time>2026-05-01T07:33:17.001Z</time></trkpt><trkpt lat="42.41357114194811" lon="14.221366530135715"><ele>75.0</ele><time>2026-05-01T07:33:19.001Z</time></trkpt><trkpt lat="42.41363420111601" lon="14.221387918516365"><ele>75.0</ele><time>2026-05-01T07:33:21.001Z</time></trkpt><trkpt lat="42.41369739136716" lon="14.22143314129194"><ele>77.83333333333333</ele><time>2026-05-01T07:33:23.001Z</time></trkpt><trkpt lat="42.41376185506205" lon="14.22149727960303"><ele>80.66666666666667</ele><time>2026-05-01T07:33:25.001Z</time></trkpt><trkpt lat="42.413791570807696" lon="14.221594544399615"><ele>83.5</ele><time>2026-05-01T07:33:27.001Z</time></trkpt><trkpt lat="42.4138398038821" lon="14.221674875521543"><ele>86.33333333333334</ele><time>2026-05-01T07:33:29.001Z</time></trkpt><trkpt lat="42.41390977742042" lon="14.221699556293304"><ele>89.16666666666667</ele><time>2026-05-01T07:33:31Z</time></trkpt><trkpt lat="42.41396865840085" lon="14.22176120072866"><ele>92.0</ele><time>2026-05-01T07:33:33Z</time></trkpt><trkpt lat="42.413981103744675" lon="14.221876648711048"><ele>92.0</ele><time>2026-05-01T07:33:35Z</time></trkpt><trkpt lat="42.41402017653961" lon="14.222002364045439"><ele>92.0</ele><time>2026-05-01T07:33:37Z</time></trkpt><trkpt lat="42.41405689753037" lon="14.222103571189171"><ele>92.0</ele><time>2026-05-01T07:33:39Z</time></trkpt><trkpt lat="42.414090208870434" lon="14.222207334964853"><ele>92.0</ele><time>2026-05-01T07:33:41Z</time></trkpt><trkpt lat="42.41414830743353" lon="14.222242918958635"><ele>92.0</ele><time>2026-05-01T07:33:44Z</time></trkpt><trkpt lat="42.414231097359504" lon="14.222228670948654"><ele>92.0</ele><time>2026-05-01T07:33:46Z</time></trkpt><trkpt lat="42.41431897421884" lon="14.222232274377948"><ele>92.0</ele><time>2026-05-01T07:33:48Z</time></trkpt><trkpt lat="42.4143830096121" lon="14.222265712508037"><ele>92.0</ele><time>2026-05-01T07:33:50Z</time></trkpt><trkpt lat="42.41442687881336" lon="14.22236902559403"><ele>92.0</ele><time>2026-05-01T07:33:52Z</time></trkpt><trkpt lat="42.41445000270094" lon="14.222482147137635"><ele>92.0</ele><time>2026-05-01T07:33:54Z</time></trkpt><trkpt lat="42.41446936741435" lon="14.222582799070084"><ele>92.0</ele><time>2026-05-01T07:33:56Z</time></trkpt><trkpt lat="42.414478028393425" lon="14.22270925718708"><ele>92.0</ele><time>2026-05-01T07:33:59Z</time></trkpt><trkpt lat="42.41446834688492" lon="14.222823464982735"><ele>94.16666666666667</ele><time>2026-05-01T07:34:01Z</time></trkpt><trkpt lat="42.41446001540421" lon="14.222938215920644"><ele>96.33333333333334</ele><time>2026-05-01T07:34:03Z</time></trkpt><trkpt lat="42.4144406904041" lon="14.223048076690846"><ele>98.5</ele><time>2026-05-01T07:34:05Z</time></trkpt><trkpt lat="42.414401150000565" lon="14.223162926267955"><ele>100.66666666666667</ele><time>2026-05-01T07:34:07Z</time></trkpt><trkpt lat="42.41438559057991" lon="14.223267509248885"><ele>102.83333333333333</ele><time>2026-05-01T07:34:09Z</time></trkpt><trkpt lat="42.41437370280296" lon="14.223379202603507"><ele>105.0</ele><time>2026-05-01T07:34:11Z</time></trkpt><trkpt lat="42.41433383808421" lon="14.223463793772614"><ele>107.33333333333333</ele><time>2026-05-01T07:34:13Z</time></trkpt><trkpt lat="42.4142937217275" lon="14.223576057834682"><ele>109.66666666666666</ele><time>2026-05-01T07:34:15Z</time></trkpt><trkpt lat="42.414244810010665" lon="14.223645024181002"><ele>112.0</ele><time>2026-05-01T07:34:16.999Z</time></trkpt><trkpt lat="42.41427883708032" lon="14.223750185094188"><ele>114.33333333333333</ele><time>2026-05-01T07:34:19.999Z</time></trkpt><trkpt lat="42.414354157498394" lon="14.223814418589734"><ele>116.66666666666666</ele><time>2026-05-01T07:34:21.999Z</time></trkpt><trkpt lat="42.414407733074626" lon="14.223920143882625"><ele>119.0</ele><time>2026-05-01T07:34:23.999Z</time></trkpt><trkpt lat="42.41443109938617" lon="14.224046663172135"><ele>122.6</ele><time>2026-05-01T07:34:25.999Z</time></trkpt><trkpt lat="42.41448963278509" lon="14.224167175097678"><ele>126.2</ele><time>2026-05-01T07:34:27.999Z</time></trkpt><trkpt lat="42.41456680677191" lon="14.224138522756325"><ele>129.79999999999998</ele><time>2026-05-01T07:34:29.999Z</time></trkpt><trkpt lat="42.41466716351901" lon="14.224098233856768"><ele>133.4</ele><time>2026-05-01T07:34:31.999Z</time></trkpt><trkpt lat="42.414759654458834" lon="14.224051704616894"><ele>137.0</ele><time>2026-05-01T07:34:33.999Z</time></trkpt><trkpt lat="42.414822723285845" lon="14.224011712962335"><ele>135.0</ele><time>2026-05-01T07:34:34.999Z</time></trkpt><trkpt lat="42.41492020624042" lon="14.223935047455203"><ele>133.0</ele><time>2026-05-01T07:34:36.999Z</time></trkpt><trkpt lat="42.41500762155014" lon="14.223841034327839"><ele>131.0</ele><time>2026-05-01T07:34:38.999Z</time></trkpt><trkpt lat="42.4150856614244" lon="14.223729252777744"><ele>129.0</ele><time>2026-05-01T07:34:40.999Z</time></trkpt><trkpt lat="42.415149096156355" lon="14.223631294893984"><ele>127.0</ele><time>2026-05-01T07:34:42.999Z</time></trkpt><trkpt lat="42.41520123557762" lon="14.223527579480143"><ele>127.0</ele><time>2026-05-01T07:34:44.999Z</time></trkpt><trkpt lat="42.41524325928525" lon="14.223455967074026"><ele>127.0</ele><time>2026-05-01T07:34:46.999Z</time></trkpt><trkpt lat="42.41530569085039" lon="14.223401612449816"><ele>127.0</ele><time>2026-05-01T07:34:51.999Z</time></trkpt><trkpt lat="42.415371601272014" lon="14.22333581346502"><ele>127.0</ele><time>2026-05-01T07:34:53.999Z</time></trkpt><trkpt lat="42.41544461538384" lon="14.223318460873207"><ele>127.0</ele><time>2026-05-01T07:34:55.999Z</time></trkpt><trkpt lat="42.41552816282176" lon="14.223328055641105"><ele>127.0</ele><time>2026-05-01T07:34:57.999Z</time></trkpt><trkpt lat="42.41557739493967" lon="14.223386721656022"><ele>127.0</ele><time>2026-05-01T07:34:59.999Z</time></trkpt><trkpt lat="42.41552847280649" lon="14.223481724612268"><ele>127.00000000000001</ele><time>2026-05-01T07:35:03.999Z</time></trkpt><trkpt lat="42.41542419399648" lon="14.223507066974687"><ele>127.0</ele><time>2026-05-01T07:35:05.999Z</time></trkpt><trkpt lat="42.41532555321319" lon="14.223581468376205"><ele>127.0</ele><time>2026-05-01T07:35:07.999Z</time></trkpt><trkpt lat="42.41529763734751" lon="14.223668454358315"><ele>127.0</ele><time>2026-05-01T07:35:08.999Z</time></trkpt><trkpt lat="42.41525685759694" lon="14.223764682027513"><ele>127.00000000000001</ele><time>2026-05-01T07:35:09.999Z</time></trkpt><trkpt lat="42.415226915520535" lon="14.223854947838502"><ele>127.0</ele><time>2026-05-01T07:35:10.999Z</time></trkpt><trkpt lat="42.415204084226005" lon="14.223956144480274"><ele>131.2</ele><time>2026-05-01T07:35:11.999Z</time></trkpt><trkpt lat="42.415182511118076" lon="14.224052703327102"><ele>135.39999999999998</ele><time>2026-05-01T07:35:12.999Z</time></trkpt><trkpt lat="42.41512861413092" lon="14.224202010747726"><ele>139.60000000000002</ele><time>2026-05-01T07:35:14.999Z</time></trkpt><trkpt lat="42.415026863660145" lon="14.224298755901188"><ele>143.8</ele><time>2026-05-01T07:35:16.999Z</time></trkpt><trkpt lat="42.414951625249095" lon="14.224397421616205"><ele>148.0</ele><time>2026-05-01T07:35:17.999Z</time></trkpt><trkpt lat="42.414888171508025" lon="14.224478634827559"><ele>148.0</ele><time>2026-05-01T07:35:18.999Z</time></trkpt><trkpt lat="42.41482418093735" lon="14.224551165653219"><ele>148.0</ele><time>2026-05-01T07:35:19.999Z</time></trkpt><trkpt lat="42.4147651881266" lon="14.224622740013281"><ele>148.0</ele><time>2026-05-01T07:35:20.999Z</time></trkpt><trkpt lat="42.414710478752106" lon="14.224682492634951"><ele>148.0</ele><time>2026-05-01T07:35:21.999Z</time></trkpt><trkpt lat="42.41459779976968" lon="14.224789901866151"><ele>148.0</ele><time>2026-05-01T07:35:24Z</time></trkpt><trkpt lat="42.41454197351792" lon="14.224856734539008"><ele>148.0</ele><time>2026-05-01T07:35:25Z</time></trkpt><trkpt lat="42.4144793345354" lon="14.224987470077828"><ele>148.8</ele><time>2026-05-01T07:35:27Z</time></trkpt><trkpt lat="42.41446382472266" lon="14.225124172954603"><ele>149.60000000000002</ele><time>2026-05-01T07:35:29Z</time></trkpt><trkpt lat="42.414488068511645" lon="14.22524249580844"><ele>150.39999999999998</ele><time>2026-05-01T07:35:32Z</time></trkpt><trkpt lat="42.41452476213275" lon="14.225345419157808"><ele>151.2</ele><time>2026-05-01T07:35:34Z</time></trkpt><trkpt lat="42.41457353905906" lon="14.225464013565707"><ele>152.0</ele><time>2026-05-01T07:35:36Z</time></trkpt><trkpt lat="42.41464687828869" lon="14.225626262453451"><ele>153.5</ele><time>2026-05-01T07:35:38Z</time></trkpt><trkpt lat="42.41469148312148" lon="14.225699039537446"><ele>155.0</ele><time>2026-05-01T07:35:39Z</time></trkpt><trkpt lat="42.414732067243314" lon="14.225786856600699"><ele>156.5</ele><time>2026-05-01T07:35:40Z</time></trkpt><trkpt lat="42.41475365645972" lon="14.225944814321974"><ele>158.0</ele><time>2026-05-01T07:35:42Z</time></trkpt><trkpt lat="42.41469651582965" lon="14.225998078231223"><ele>159.5</ele><time>2026-05-01T07:35:44Z</time></trkpt><trkpt lat="42.41460174417066" lon="14.226077366315943"><ele>161.0</ele><time>2026-05-01T07:35:46Z</time></trkpt><trkpt lat="42.414509729481175" lon="14.226042319669197"><ele>161.0</ele><time>2026-05-01T07:35:48Z</time></trkpt><trkpt lat="42.41444090466675" lon="14.226016307876032"><ele>161.0</ele><time>2026-05-01T07:35:49Z</time></trkpt><trkpt lat="42.414352599701445" lon="14.226025410002237"><ele>161.0</ele><time>2026-05-01T07:35:50Z</time></trkpt><trkpt lat="42.41426620880113" lon="14.226064624954946"><ele>161.0</ele><time>2026-05-01T07:35:52Z</time></trkpt><trkpt lat="42.41421832997264" lon="14.226172111055625"><ele>161.0</ele><time>2026-05-01T07:35:54Z</time></trkpt><trkpt lat="42.41419171601405" lon="14.226322451248588"><ele>161.0</ele><time>2026-05-01T07:35:56Z</time></trkpt><trkpt lat="42.41417012513133" lon="14.226419433700501"><ele>161.0</ele><time>2026-05-01T07:35:57Z</time></trkpt><trkpt lat="42.414140120913025" lon="14.226521912057159"><ele>161.0</ele><time>2026-05-01T07:35:58Z</time></trkpt><trkpt lat="42.41410938983826" lon="14.226627489604777"><ele>161.0</ele><time>2026-05-01T07:35:59Z</time></trkpt><trkpt lat="42.414072998558666" lon="14.22675315625832"><ele>161.0</ele><time>2026-05-01T07:36:00Z</time></trkpt><trkpt lat="42.41403626687505" lon="14.226888070695349"><ele>161.0</ele><time>2026-05-01T07:36:01Z</time></trkpt><trkpt lat="42.41399941974844" lon="14.22702364673521"><ele>162.0</ele><time>2026-05-01T07:36:02Z</time></trkpt><trkpt lat="42.41396638681087" lon="14.227143295974923"><ele>163.0</ele><time>2026-05-01T07:36:03Z</time></trkpt><trkpt lat="42.41392934788359" lon="14.227258778211393"><ele>164.0</ele><time>2026-05-01T07:36:04Z</time></trkpt><trkpt lat="42.41389308142064" lon="14.227372255497077"><ele>165.0</ele><time>2026-05-01T07:36:05Z</time></trkpt><trkpt lat="42.413862667993754" lon="14.227468967788548"><ele>166.0</ele><time>2026-05-01T07:36:06Z</time></trkpt><trkpt lat="42.41383759102859" lon="14.227552122004536"><ele>167.0</ele><time>2026-05-01T07:36:07Z</time></trkpt><trkpt lat="42.41380315359658" lon="14.227665916815262"><ele>167.33333333333331</ele><time>2026-05-01T07:36:09Z</time></trkpt><trkpt lat="42.413802794635984" lon="14.227755843928222"><ele>167.66666666666666</ele><time>2026-05-01T07:36:11.999Z</time></trkpt><trkpt lat="42.41388077015834" lon="14.22783401278054"><ele>168.0</ele><time>2026-05-01T07:36:13.999Z</time></trkpt><trkpt lat="42.41396410636967" lon="14.227859375464753"><ele>168.33333333333334</ele><time>2026-05-01T07:36:14.999Z</time></trkpt><trkpt lat="42.41397568165738" lon="14.227951704157533"><ele>168.66666666666669</ele><time>2026-05-01T07:36:16.999Z</time></trkpt><trkpt lat="42.413972648259005" lon="14.22805645978212"><ele>169.0</ele><time>2026-05-01T07:36:17.999Z</time></trkpt><trkpt lat="42.414460316607666" lon="14.22815142577863"><ele>169.5</ele><time>2026-05-01T07:36:18.999Z</time></trkpt><trkpt lat="42.41465637509431" lon="14.228306702421008"><ele>170.0</ele><time>2026-05-01T07:36:19.999Z</time></trkpt><trkpt lat="42.414865070159074" lon="14.228508201856988"><ele>170.0</ele><time>2026-05-01T07:36:20.999Z</time></trkpt><trkpt lat="42.41507864017307" lon="14.22872826444172"><ele>170.0</ele><time>2026-05-01T07:36:21.999Z</time></trkpt><trkpt lat="42.41529652072398" lon="14.228954634513652"><ele>169.0</ele><time>2026-05-01T07:36:22.999Z</time></trkpt><trkpt lat="42.41549919167963" lon="14.229163200439867"><ele>168.0</ele><time>2026-05-01T07:36:23.999Z</time></trkpt><trkpt lat="42.415710744357" lon="14.22938622183564"><ele>168.0</ele><time>2026-05-01T07:36:24.999Z</time></trkpt><trkpt lat="42.41591476427886" lon="14.229613337274117"><ele>168.0</ele><time>2026-05-01T07:36:25.999Z</time></trkpt><trkpt lat="42.41610313744005" lon="14.229827256700405"><ele>168.0</ele><time>2026-05-01T07:36:26.999Z</time></trkpt><trkpt lat="42.41626924412625" lon="14.230024151383375"><ele>168.0</ele><time>2026-05-01T07:36:27.999Z</time></trkpt><trkpt lat="42.41640075905188" lon="14.23022028766279"><ele>168.0</ele><time>2026-05-01T07:36:28.999Z</time></trkpt><trkpt lat="42.416509691880854" lon="14.230370708894144"><ele>168.0</ele><time>2026-05-01T07:36:29.999Z</time></trkpt><trkpt lat="42.41660769288667" lon="14.230482984234145"><ele>168.0</ele><time>2026-05-01T07:36:30.999Z</time></trkpt><trkpt lat="42.41668615654784" lon="14.23061566775676"><ele>168.0</ele><time>2026-05-01T07:36:31.999Z</time></trkpt><trkpt lat="42.416751579214235" lon="14.230754158790548"><ele>168.0</ele><time>2026-05-01T07:36:32.999Z</time></trkpt><trkpt lat="42.41681676266491" lon="14.230865949809417"><ele>168.0</ele><time>2026-05-01T07:36:33.999Z</time></trkpt><trkpt lat="42.41687742976885" lon="14.230970964711522"><ele>168.0</ele><time>2026-05-01T07:36:34.999Z</time></trkpt><trkpt lat="42.41692840875731" lon="14.231059421465439"><ele>168.0</ele><time>2026-05-01T07:36:35.999Z</time></trkpt><trkpt lat="42.4169923420237" lon="14.231139438214036"><ele>168.0</ele><time>2026-05-01T07:36:36.999Z</time></trkpt><trkpt lat="42.41698525267162" lon="14.231270378778994"><ele>168.0</ele><time>2026-05-01T07:36:38.999Z</time></trkpt><trkpt lat="42.416918558577194" lon="14.231281663213016"><ele>168.0</ele><time>2026-05-01T07:36:39.999Z</time></trkpt><trkpt lat="42.41681109055645" lon="14.231364654952342"><ele>168.0</ele><time>2026-05-01T07:36:40.999Z</time></trkpt><trkpt lat="42.416671189088355" lon="14.231472365396556"><ele>168.0</ele><time>2026-05-01T07:36:41.999Z</time></trkpt><trkpt lat="42.41651420186914" lon="14.231593117457654"><ele>168.0</ele><time>2026-05-01T07:36:42.999Z</time></trkpt><trkpt lat="42.4163721601505" lon="14.231703773955566"><ele>168.25</ele><time>2026-05-01T07:36:43.999Z</time></trkpt><trkpt lat="42.41623856050799" lon="14.231807853668537"><ele>168.5</ele><time>2026-05-01T07:36:44.999Z</time></trkpt><trkpt lat="42.41610705777323" lon="14.23191010023918"><ele>168.75</ele><time>2026-05-01T07:36:45.999Z</time></trkpt><trkpt lat="42.41598982553525" lon="14.232019902072615"><ele>169.0</ele><time>2026-05-01T07:36:46.999Z</time></trkpt><trkpt lat="42.415874912782805" lon="14.232083529193433"><ele>169.0</ele><time>2026-05-01T07:36:47.999Z</time></trkpt><trkpt lat="42.41577180738881" lon="14.23218029623415"><ele>169.0</ele><time>2026-05-01T07:36:48.999Z</time></trkpt><trkpt lat="42.41565903435467" lon="14.232265540327823"><ele>169.0</ele><time>2026-05-01T07:36:49.999Z</time></trkpt><trkpt lat="42.41553615875326" lon="14.23233589979364"><ele>169.0</ele><time>2026-05-01T07:36:50.999Z</time></trkpt><trkpt lat="42.41541697094461" lon="14.232420384467162"><ele>167.0</ele><time>2026-05-01T07:36:51.999Z</time></trkpt><trkpt lat="42.41529849743788" lon="14.232519376861767"><ele>165.0</ele><time>2026-05-01T07:36:52.999Z</time></trkpt><trkpt lat="42.415188191022615" lon="14.232610316465767"><ele>163.0</ele><time>2026-05-01T07:36:53.999Z</time></trkpt><trkpt lat="42.4150844971531" lon="14.232685012421353"><ele>161.0</ele><time>2026-05-01T07:36:54.999Z</time></trkpt><trkpt lat="42.41497967866862" lon="14.232723455058649"><ele>161.0</ele><time>2026-05-01T07:36:55.999Z</time></trkpt><trkpt lat="42.4148968080266" lon="14.232739970177912"><ele>161.0</ele><time>2026-05-01T07:36:56.999Z</time></trkpt><trkpt lat="42.41482315014353" lon="14.232769024142334"><ele>161.0</ele><time>2026-05-01T07:36:57.999Z</time></trkpt><trkpt lat="42.41475977956173" lon="14.232775675181689"><ele>161.0</ele><time>2026-05-01T07:36:59.999Z</time></trkpt><trkpt lat="42.41485894003242" lon="14.232599958970889"><ele>161.0</ele><time>2026-05-01T07:37:04.999Z</time></trkpt><trkpt lat="42.414904775847305" lon="14.232533430181306"><ele>161.0</ele><time>2026-05-01T07:37:05.999Z</time></trkpt><trkpt lat="42.41492908377676" lon="14.232436414112884"><ele>161.0</ele><time>2026-05-01T07:37:06.999Z</time></trkpt><trkpt lat="42.41493701648913" lon="14.232338433705992"><ele>161.0</ele><time>2026-05-01T07:37:07.999Z</time></trkpt><trkpt lat="42.414935237335555" lon="14.232248608804944"><ele>161.0</ele><time>2026-05-01T07:37:08.999Z</time></trkpt><trkpt lat="42.41491912986464" lon="14.232159164266877"><ele>161.0</ele><time>2026-05-01T07:37:09.999Z</time></trkpt><trkpt lat="42.41487718068426" lon="14.232088145042217"><ele>161.0</ele><time>2026-05-01T07:37:10.999Z</time></trkpt><trkpt lat="42.41482118530466" lon="14.232017685283738"><ele>161.0</ele><time>2026-05-01T07:37:11.999Z</time></trkpt><trkpt lat="42.41477142133304" lon="14.231927562304309"><ele>161.0</ele><time>2026-05-01T07:37:12.999Z</time></trkpt><trkpt lat="42.4147372303886" lon="14.231839899654759"><ele>161.0</ele><time>2026-05-01T07:37:13.999Z</time></trkpt><trkpt lat="42.414698340442335" lon="14.231663651865063"><ele>161.0</ele><time>2026-05-01T07:37:15.999Z</time></trkpt><trkpt lat="42.41467597825097" lon="14.231531766057863"><ele>161.0</ele><time>2026-05-01T07:37:16.999Z</time></trkpt><trkpt lat="42.414656614338796" lon="14.231395794204975"><ele>161.0</ele><time>2026-05-01T07:37:17.998Z</time></trkpt><trkpt lat="42.41464134314048" lon="14.231276174280481"><ele>157.5</ele><time>2026-05-01T07:37:18.998Z</time></trkpt><trkpt lat="42.41463632083852" lon="14.231170720363743"><ele>154.0</ele><time>2026-05-01T07:37:19.998Z</time></trkpt><trkpt lat="42.41462564613312" lon="14.231070872929601"><ele>150.5</ele><time>2026-05-01T07:37:20.998Z</time></trkpt><trkpt lat="42.41462279618272" lon="14.230978793152335"><ele>147.0</ele><time>2026-05-01T07:37:21.998Z</time></trkpt><trkpt lat="42.414631635343504" lon="14.23082896741989"><ele>143.5</ele><time>2026-05-01T07:37:23.998Z</time></trkpt><trkpt lat="42.4146334593791" lon="14.2307002876745"><ele>140.0</ele><time>2026-05-01T07:37:25.998Z</time></trkpt><trkpt lat="42.41461230606141" lon="14.230575668009472"><ele>140.0</ele><time>2026-05-01T07:37:27.998Z</time></trkpt><trkpt lat="42.41459773639586" lon="14.23046448972672"><ele>140.0</ele><time>2026-05-01T07:37:29Z</time></trkpt><trkpt lat="42.414580814010925" lon="14.230283802870794"><ele>140.0</ele><time>2026-05-01T07:37:31Z</time></trkpt><trkpt lat="42.41456736045633" lon="14.230189842337762"><ele>140.0</ele><time>2026-05-01T07:37:32Z</time></trkpt><trkpt lat="42.41454590028916" lon="14.23010283825951"><ele>140.0</ele><time>2026-05-01T07:37:33Z</time></trkpt><trkpt lat="42.41452869099986" lon="14.230001476980135"><ele>140.0</ele><time>2026-05-01T07:37:34Z</time></trkpt><trkpt lat="42.41451611481096" lon="14.229904978697906"><ele>142.33333333333331</ele><time>2026-05-01T07:37:35Z</time></trkpt><trkpt lat="42.41448884034335" lon="14.229798683151513"><ele>144.66666666666666</ele><time>2026-05-01T07:37:36Z</time></trkpt><trkpt lat="42.41446370330033" lon="14.229697648266596"><ele>147.0</ele><time>2026-05-01T07:37:37Z</time></trkpt><trkpt lat="42.414437948011006" lon="14.22959254444592"><ele>149.33333333333334</ele><time>2026-05-01T07:37:38Z</time></trkpt><trkpt lat="42.41441246413447" lon="14.229505979680672"><ele>151.66666666666669</ele><time>2026-05-01T07:37:39Z</time></trkpt><trkpt lat="42.41435186860413" lon="14.229406237936537"><ele>154.0</ele><time>2026-05-01T07:37:41Z</time></trkpt><trkpt lat="42.41424800214258" lon="14.229373391166552"><ele>154.0</ele><time>2026-05-01T07:37:43Z</time></trkpt><trkpt lat="42.41413297567256" lon="14.229368039852847"><ele>154.0</ele><time>2026-05-01T07:37:45Z</time></trkpt><trkpt lat="42.413998780707374" lon="14.229418493005506"><ele>154.0</ele><time>2026-05-01T07:37:47Z</time></trkpt><trkpt lat="42.413915039847936" lon="14.229456876387223"><ele>154.0</ele><time>2026-05-01T07:37:48Z</time></trkpt><trkpt lat="42.41382950525276" lon="14.229520021068721"><ele>154.0</ele><time>2026-05-01T07:37:50Z</time></trkpt><trkpt lat="42.413799798744336" lon="14.229675198462813"><ele>155.75</ele><time>2026-05-01T07:37:52Z</time></trkpt><trkpt lat="42.41381069766037" lon="14.229789810508928"><ele>157.5</ele><time>2026-05-01T07:37:53Z</time></trkpt><trkpt lat="42.41384358776674" lon="14.229945552208152"><ele>159.25</ele><time>2026-05-01T07:37:54Z</time></trkpt><trkpt lat="42.41387796136695" lon="14.230139348600536"><ele>161.0</ele><time>2026-05-01T07:37:55Z</time></trkpt><trkpt lat="42.41389393806795" lon="14.23032416765472"><ele>155.75</ele><time>2026-05-01T07:37:56Z</time></trkpt><trkpt lat="42.41390761533124" lon="14.230492512222682"><ele>150.5</ele><time>2026-05-01T07:37:57Z</time></trkpt><trkpt lat="42.41391723823674" lon="14.23065889517512"><ele>145.25</ele><time>2026-05-01T07:37:58Z</time></trkpt><trkpt lat="42.41391200656577" lon="14.230858312556748"><ele>140.0</ele><time>2026-05-01T07:37:59Z</time></trkpt><trkpt lat="42.413909076074034" lon="14.231031571083149"><ele>139.8</ele><time>2026-05-01T07:38:00Z</time></trkpt><trkpt lat="42.413907134880105" lon="14.23121341737819"><ele>139.6</ele><time>2026-05-01T07:38:01Z</time></trkpt><trkpt lat="42.413912079086025" lon="14.231376266614914"><ele>139.4</ele><time>2026-05-01T07:38:02Z</time></trkpt><trkpt lat="42.41391377792704" lon="14.231515015599223"><ele>139.2</ele><time>2026-05-01T07:38:03Z</time></trkpt><trkpt lat="42.413918239727366" lon="14.231626885884959"><ele>139.0</ele><time>2026-05-01T07:38:04Z</time></trkpt><trkpt lat="42.41392192829099" lon="14.23173709770171"><ele>138.16666666666669</ele><time>2026-05-01T07:38:05Z</time></trkpt><trkpt lat="42.413924002528" lon="14.231861056438856"><ele>137.33333333333334</ele><time>2026-05-01T07:38:06Z</time></trkpt><trkpt lat="42.413923942697046" lon="14.231975022300848"><ele>136.5</ele><time>2026-05-01T07:38:07Z</time></trkpt><trkpt lat="42.41391706801614" lon="14.232063522947124"><ele>135.66666666666666</ele><time>2026-05-01T07:38:08Z</time></trkpt><trkpt lat="42.413905041716276" lon="14.232239270737505"><ele>134.83333333333331</ele><time>2026-05-01T07:38:10Z</time></trkpt><trkpt lat="42.413904912165954" lon="14.232330938406607"><ele>134.0</ele><time>2026-05-01T07:38:11Z</time></trkpt><trkpt lat="42.413900794536815" lon="14.232427407433184"><ele>135.66666666666666</ele><time>2026-05-01T07:38:12Z</time></trkpt><trkpt lat="42.413888814334214" lon="14.232527579645343"><ele>137.33333333333331</ele><time>2026-05-01T07:38:13Z</time></trkpt><trkpt lat="42.413846512386634" lon="14.232612879585893"><ele>139.0</ele><time>2026-05-01T07:38:14Z</time></trkpt><trkpt lat="42.413812597191765" lon="14.232773243307316"><ele>140.66666666666666</ele><time>2026-05-01T07:38:16Z</time></trkpt><trkpt lat="42.41375378929919" lon="14.23281914949577"><ele>142.33333333333334</ele><time>2026-05-01T07:38:17Z</time></trkpt><trkpt lat="42.413713345695236" lon="14.232911263353596"><ele>144.0</ele><time>2026-05-01T07:38:18Z</time></trkpt><trkpt lat="42.413667896465306" lon="14.233014778069807"><ele>145.66666666666666</ele><time>2026-05-01T07:38:19Z</time></trkpt><trkpt lat="42.41363461794908" lon="14.233109809320847"><ele>147.33333333333331</ele><time>2026-05-01T07:38:20Z</time></trkpt><trkpt lat="42.41360956678404" lon="14.233193330011476"><ele>149.0</ele><time>2026-05-01T07:38:21Z</time></trkpt><trkpt lat="42.41394093012012" lon="14.23363216067818"><ele>149.0</ele><time>2026-05-01T07:38:23Z</time></trkpt><trkpt lat="42.413966540141516" lon="14.233725101637386"><ele>149.0</ele><time>2026-05-01T07:38:23.999Z</time></trkpt><trkpt lat="42.414001526203954" lon="14.233804834526106"><ele>149.0</ele><time>2026-05-01T07:38:25Z</time></trkpt><trkpt lat="42.414029684393604" lon="14.233889142221297"><ele>149.0</ele><time>2026-05-01T07:38:25.999Z</time></trkpt><trkpt lat="42.414055976511825" lon="14.233970520233635"><ele>149.0</ele><time>2026-05-01T07:38:26.999Z</time></trkpt><trkpt lat="42.41407604865597" lon="14.234053137499096"><ele>149.0</ele><time>2026-05-01T07:38:27.999Z</time></trkpt><trkpt lat="42.41408685905234" lon="14.23413900420507"><ele>149.0</ele><time>2026-05-01T07:38:28.999Z</time></trkpt><trkpt lat="42.414086695406816" lon="14.234295141775327"><ele>147.0</ele><time>2026-05-01T07:38:30.999Z</time></trkpt><trkpt lat="42.41409168087704" lon="14.234385163759647"><ele>145.0</ele><time>2026-05-01T07:38:31.999Z</time></trkpt><trkpt lat="42.41409337099266" lon="14.234478044146654"><ele>143.0</ele><time>2026-05-01T07:38:32.999Z</time></trkpt><trkpt lat="42.414092053112405" lon="14.234575061670483"><ele>141.0</ele><time>2026-05-01T07:38:33.999Z</time></trkpt><trkpt lat="42.41409580289712" lon="14.234670317535961"><ele>139.0</ele><time>2026-05-01T07:38:34.999Z</time></trkpt><trkpt lat="42.414094642072556" lon="14.234769842639636"><ele>137.0</ele><time>2026-05-01T07:38:35.999Z</time></trkpt><trkpt lat="42.41409326386467" lon="14.2348739216651"><ele>135.0</ele><time>2026-05-01T07:38:36.999Z</time></trkpt><trkpt lat="42.41409489878498" lon="14.234975602095183"><ele>132.33333333333334</ele><time>2026-05-01T07:38:37.999Z</time></trkpt><trkpt lat="42.41410776058157" lon="14.235086391009741"><ele>129.66666666666666</ele><time>2026-05-01T07:38:39.999Z</time></trkpt><trkpt lat="42.41411784779298" lon="14.235195864671617"><ele>127.0</ele><time>2026-05-01T07:39:02.999Z</time></trkpt><trkpt lat="42.41421982443776" lon="14.235249817090851"><ele>124.33333333333333</ele><time>2026-05-01T07:39:04.999Z</time></trkpt><trkpt lat="42.414224995849445" lon="14.235355523256565"><ele>121.66666666666666</ele><time>2026-05-01T07:39:39Z</time></trkpt><trkpt lat="42.41423121719309" lon="14.235467881449319"><ele>119.0</ele><time>2026-05-01T07:39:46Z</time></trkpt><trkpt lat="42.414238116105665" lon="14.23558912041492"><ele>117.49999999999999</ele><time>2026-05-01T07:39:48Z</time></trkpt><trkpt lat="42.41424728736906" lon="14.235722907425508"><ele>116.0</ele><time>2026-05-01T07:39:49Z</time></trkpt><trkpt lat="42.41425517386425" lon="14.235835048203246"><ele>114.5</ele><time>2026-05-01T07:39:50Z</time></trkpt><trkpt lat="42.41426365089329" lon="14.235945891730564"><ele>113.0</ele><time>2026-05-01T07:39:51Z</time></trkpt><trkpt lat="42.41427047329534" lon="14.236035099935847"><ele>111.49999999999999</ele><time>2026-05-01T07:39:52Z</time></trkpt><trkpt lat="42.41427745442632" lon="14.236126384261619"><ele>110.0</ele><time>2026-05-01T07:39:55Z</time></trkpt><trkpt lat="42.41409723916618" lon="14.236121155624623"><ele>109.99999999999999</ele><time>2026-05-01T07:39:59Z</time></trkpt><trkpt lat="42.41404842439312" lon="14.236053133258862"><ele>110.0</ele><time>2026-05-01T07:40:01Z</time></trkpt><trkpt lat="42.41401164072686" lon="14.23597289495245"><ele>110.0</ele><time>2026-05-01T07:40:03Z</time></trkpt><trkpt lat="42.413954139056806" lon="14.235869355063198"><ele>110.0</ele><time>2026-05-01T07:40:05Z</time></trkpt><trkpt lat="42.41388466873749" lon="14.235761516364972"><ele>109.99999999999999</ele><time>2026-05-01T07:40:07Z</time></trkpt><trkpt lat="42.413825694547306" lon="14.23566119643158"><ele>110.0</ele><time>2026-05-01T07:40:10Z</time></trkpt><trkpt lat="42.41376283156925" lon="14.235612616464552"><ele>107.83333333333333</ele><time>2026-05-01T07:40:12Z</time></trkpt><trkpt lat="42.413677884422775" lon="14.235625163310605"><ele>105.66666666666666</ele><time>2026-05-01T07:40:14Z</time></trkpt><trkpt lat="42.41358634023241" lon="14.235583203954825"><ele>103.5</ele><time>2026-05-01T07:40:16Z</time></trkpt><trkpt lat="42.41352135513808" lon="14.235490645902937"><ele>101.33333333333334</ele><time>2026-05-01T07:40:18Z</time></trkpt><trkpt lat="42.41347070220953" lon="14.23540547637391"><ele>99.16666666666667</ele><time>2026-05-01T07:40:20Z</time></trkpt><trkpt lat="42.41341959373023" lon="14.235342757323968"><ele>97.0</ele><time>2026-05-01T07:40:22Z</time></trkpt><trkpt lat="42.41336262500993" lon="14.235304622446641"><ele>97.0</ele><time>2026-05-01T07:40:24Z</time></trkpt><trkpt lat="42.413283078716894" lon="14.235264427769573"><ele>97.0</ele><time>2026-05-01T07:40:26Z</time></trkpt><trkpt lat="42.41319717022301" lon="14.235219349672365"><ele>97.0</ele><time>2026-05-01T07:40:29Z</time></trkpt><trkpt lat="42.41309622135006" lon="14.235203477161063"><ele>97.0</ele><time>2026-05-01T07:40:32Z</time></trkpt><trkpt lat="42.413014274255644" lon="14.235259602455415"><ele>97.0</ele><time>2026-05-01T07:40:35Z</time></trkpt><trkpt lat="42.41292018937736" lon="14.235310641177685"><ele>93.39999999999999</ele><time>2026-05-01T07:40:36.999Z</time></trkpt><trkpt lat="42.41283471388144" lon="14.235339707265785"><ele>89.8</ele><time>2026-05-01T07:40:38.999Z</time></trkpt><trkpt lat="42.41276235125463" lon="14.23539602195416"><ele>86.2</ele><time>2026-05-01T07:40:41.999Z</time></trkpt><trkpt lat="42.412781559969446" lon="14.235561078858305"><ele>82.6</ele><time>2026-05-01T07:40:44.999Z</time></trkpt><trkpt lat="42.412815863721946" lon="14.235673181717159"><ele>79.0</ele><time>2026-05-01T07:40:45.999Z</time></trkpt><trkpt lat="42.41284746231166" lon="14.235776242431486"><ele>78.33333333333333</ele><time>2026-05-01T07:40:46.999Z</time></trkpt><trkpt lat="42.41287476734198" lon="14.23587611298587"><ele>77.66666666666666</ele><time>2026-05-01T07:40:47.999Z</time></trkpt><trkpt lat="42.41290549415745" lon="14.235961563099973"><ele>77.0</ele><time>2026-05-01T07:40:48.999Z</time></trkpt><trkpt lat="42.41294852085851" lon="14.236054846124825"><ele>76.33333333333333</ele><time>2026-05-01T07:40:49.999Z</time></trkpt><trkpt lat="42.41299400358372" lon="14.236151801972985"><ele>75.66666666666667</ele><time>2026-05-01T07:40:50.999Z</time></trkpt><trkpt lat="42.4130396581982" lon="14.23624867789898"><ele>75.0</ele><time>2026-05-01T07:40:51.999Z</time></trkpt><trkpt lat="42.4131244765805" lon="14.236391969038273"><ele>75.16666666666667</ele><time>2026-05-01T07:40:53.999Z</time></trkpt><trkpt lat="42.41317676437264" lon="14.236468682417062"><ele>75.33333333333333</ele><time>2026-05-01T07:40:54.999Z</time></trkpt><trkpt lat="42.41322927573277" lon="14.236525326471975"><ele>75.5</ele><time>2026-05-01T07:40:55.999Z</time></trkpt><trkpt lat="42.413320273545345" lon="14.236606262144145"><ele>75.66666666666666</ele><time>2026-05-01T07:40:57.999Z</time></trkpt><trkpt lat="42.41336786227035" lon="14.236667116847215"><ele>75.83333333333333</ele><time>2026-05-01T07:40:58.999Z</time></trkpt><trkpt lat="42.41341426402946" lon="14.236747684982795"><ele>76.0</ele><time>2026-05-01T07:40:59.999Z</time></trkpt><trkpt lat="42.413463736588774" lon="14.236842457185704"><ele>76.0</ele><time>2026-05-01T07:41:00.999Z</time></trkpt><trkpt lat="42.413504861289105" lon="14.236945094507941"><ele>76.0</ele><time>2026-05-01T07:41:01.999Z</time></trkpt><trkpt lat="42.41354827020768" lon="14.237042682077098"><ele>76.0</ele><time>2026-05-01T07:41:02.999Z</time></trkpt><trkpt lat="42.413595340486516" lon="14.237144711506083"><ele>76.0</ele><time>2026-05-01T07:41:03.999Z</time></trkpt><trkpt lat="42.41363872908576" lon="14.23723355823147"><ele>76.0</ele><time>2026-05-01T07:41:04.999Z</time></trkpt><trkpt lat="42.4136799967578" lon="14.237337838650351"><ele>76.0</ele><time>2026-05-01T07:41:05.999Z</time></trkpt><trkpt lat="42.413722151443366" lon="14.237430197489212"><ele>74.83333333333333</ele><time>2026-05-01T07:41:06.999Z</time></trkpt><trkpt lat="42.41375905160477" lon="14.23753340444831"><ele>73.66666666666666</ele><time>2026-05-01T07:41:07.999Z</time></trkpt><trkpt lat="42.41378872640535" lon="14.237641435277547"><ele>72.5</ele><time>2026-05-01T07:41:08.999Z</time></trkpt><trkpt lat="42.41381140572069" lon="14.237744529656602"><ele>71.33333333333333</ele><time>2026-05-01T07:41:09.999Z</time></trkpt><trkpt lat="42.41382490582011" lon="14.237842151027168"><ele>70.16666666666667</ele><time>2026-05-01T07:41:10.999Z</time></trkpt><trkpt lat="42.413847015976" lon="14.237931712689424"><ele>69.0</ele><time>2026-05-01T07:41:11.999Z</time></trkpt><trkpt lat="42.41387447388201" lon="14.23801697183481"><ele>71.83333333333333</ele><time>2026-05-01T07:41:12.999Z</time></trkpt><trkpt lat="42.41390828698157" lon="14.23809786923436"><ele>74.66666666666667</ele><time>2026-05-01T07:41:13.999Z</time></trkpt><trkpt lat="42.41393817611255" lon="14.238179186073681"><ele>77.5</ele><time>2026-05-01T07:41:14.999Z</time></trkpt><trkpt lat="42.413958911923835" lon="14.238279884233133"><ele>80.33333333333334</ele><time>2026-05-01T07:41:16.999Z</time></trkpt><trkpt lat="42.4139417267194" lon="14.23836617944159"><ele>83.16666666666667</ele><time>2026-05-01T07:41:19.999Z</time></trkpt><trkpt lat="42.41393232856576" lon="14.238466169506923"><ele>86.0</ele><time>2026-05-01T07:41:22.999Z</time></trkpt><trkpt lat="42.41392262121924" lon="14.23863182798115"><ele>86.0</ele><time>2026-05-01T07:41:24.999Z</time></trkpt><trkpt lat="42.41394864191268" lon="14.238765839465946"><ele>86.0</ele><time>2026-05-01T07:41:26.999Z</time></trkpt><trkpt lat="42.4139870603946" lon="14.238874615322073"><ele>86.0</ele><time>2026-05-01T07:41:28.999Z</time></trkpt><trkpt lat="42.41397943759692" lon="14.239010543059452"><ele>86.0</ele><time>2026-05-01T07:41:30.999Z</time></trkpt><trkpt lat="42.41400796356819" lon="14.239155350317336"><ele>86.0</ele><time>2026-05-01T07:41:32.999Z</time></trkpt><trkpt lat="42.414062817992104" lon="14.239242968857926"><ele>85.0</ele><time>2026-05-01T07:41:34.999Z</time></trkpt><trkpt lat="42.41414914691037" lon="14.239348792634434"><ele>84.0</ele><time>2026-05-01T07:41:36.999Z</time></trkpt><trkpt lat="42.41423825102631" lon="14.239461919815572"><ele>83.0</ele><time>2026-05-01T07:41:38.999Z</time></trkpt><trkpt lat="42.41425185083805" lon="14.239586309729036"><ele>82.0</ele><time>2026-05-01T07:41:41Z</time></trkpt><trkpt lat="42.414235009195984" lon="14.239673691184716"><ele>81.0</ele><time>2026-05-01T07:41:42Z</time></trkpt><trkpt lat="42.41421904255357" lon="14.239789391979837"><ele>79.6</ele><time>2026-05-01T07:41:43Z</time></trkpt><trkpt lat="42.41419659521879" lon="14.239954565965464"><ele>78.19999999999999</ele><time>2026-05-01T07:41:45Z</time></trkpt><trkpt lat="42.41420898883531" lon="14.240038917079884"><ele>76.80000000000001</ele><time>2026-05-01T07:41:46Z</time></trkpt><trkpt lat="42.41428264572133" lon="14.240180322972497"><ele>75.4</ele><time>2026-05-01T07:41:48Z</time></trkpt><trkpt lat="42.41433101629582" lon="14.240267353422183"><ele>74.0</ele><time>2026-05-01T07:41:49Z</time></trkpt><trkpt lat="42.414398957710716" lon="14.240377456292208"><ele>74.0</ele><time>2026-05-01T07:41:50Z</time></trkpt><trkpt lat="42.4144511333136" lon="14.240486874363357"><ele>74.0</ele><time>2026-05-01T07:41:51Z</time></trkpt><trkpt lat="42.414494549401155" lon="14.24055468314845"><ele>74.0</ele><time>2026-05-01T07:41:52Z</time></trkpt><trkpt lat="42.41457473125171" lon="14.24066202391775"><ele>74.0</ele><time>2026-05-01T07:41:54Z</time></trkpt><trkpt lat="42.4146056787661" lon="14.240786514490269"><ele>74.0</ele><time>2026-05-01T07:41:56Z</time></trkpt><trkpt lat="42.41464131610996" lon="14.240906716633775"><ele>75.6</ele><time>2026-05-01T07:41:58Z</time></trkpt><trkpt lat="42.414655655271346" lon="14.24101442424105"><ele>77.2</ele><time>2026-05-01T07:42:00Z</time></trkpt><trkpt lat="42.41467941924613" lon="14.241148630687332"><ele>78.8</ele><time>2026-05-01T07:42:02Z</time></trkpt><trkpt lat="42.41472978815057" lon="14.24124508098559"><ele>80.39999999999999</ele><time>2026-05-01T07:42:04Z</time></trkpt><trkpt lat="42.41478364820376" lon="14.241324664213046"><ele>82.0</ele><time>2026-05-01T07:42:06Z</time></trkpt><trkpt lat="42.414875499787435" lon="14.24142712141641"><ele>79.0</ele><time>2026-05-01T07:42:08Z</time></trkpt><trkpt lat="42.4149460930286" lon="14.241500629093744"><ele>76.0</ele><time>2026-05-01T07:42:09Z</time></trkpt><trkpt lat="42.4150155125689" lon="14.241590990561969"><ele>73.0</ele><time>2026-05-01T07:42:10Z</time></trkpt><trkpt lat="42.41507829088133" lon="14.241675317593362"><ele>70.0</ele><time>2026-05-01T07:42:11Z</time></trkpt><trkpt lat="42.415136472050264" lon="14.24174343974526"><ele>67.0</ele><time>2026-05-01T07:42:12Z</time></trkpt><trkpt lat="42.41523178274538" lon="14.241844176526195"><ele>67.0</ele><time>2026-05-01T07:42:14Z</time></trkpt><trkpt lat="42.415276806649686" lon="14.241920825524502"><ele>67.0</ele><time>2026-05-01T07:42:15Z</time></trkpt><trkpt lat="42.41532207490794" lon="14.242008608764671"><ele>67.0</ele><time>2026-05-01T07:42:16Z</time></trkpt><trkpt lat="42.41535550927745" lon="14.242104597023605"><ele>67.0</ele><time>2026-05-01T07:42:17Z</time></trkpt><trkpt lat="42.41539540496019" lon="14.2422109986826"><ele>67.0</ele><time>2026-05-01T07:42:18Z</time></trkpt><trkpt lat="42.415437943836594" lon="14.242314804892995"><ele>67.0</ele><time>2026-05-01T07:42:19Z</time></trkpt><trkpt lat="42.41545072016509" lon="14.242413412451892"><ele>68.16666666666666</ele><time>2026-05-01T07:42:20Z</time></trkpt><trkpt lat="42.41548962506457" lon="14.242565994581186"><ele>69.33333333333333</ele><time>2026-05-01T07:42:22Z</time></trkpt><trkpt lat="42.415522378473895" lon="14.242725854597435"><ele>70.5</ele><time>2026-05-01T07:42:24Z</time></trkpt><trkpt lat="42.41555172872288" lon="14.242808725290134"><ele>71.66666666666667</ele><time>2026-05-01T07:42:25Z</time></trkpt><trkpt lat="42.41558800020046" lon="14.2428833082826"><ele>72.83333333333334</ele><time>2026-05-01T07:42:26Z</time></trkpt><trkpt lat="42.4156173575371" lon="14.24296206607298"><ele>74.0</ele><time>2026-05-01T07:42:27Z</time></trkpt><trkpt lat="42.41567179253195" lon="14.243076683852449"><ele>72.0</ele><time>2026-05-01T07:42:29Z</time></trkpt><trkpt lat="42.41571287639212" lon="14.24316163029897"><ele>70.0</ele><time>2026-05-01T07:42:31Z</time></trkpt><trkpt lat="42.41580077314837" lon="14.243176970483553"><ele>68.0</ele><time>2026-05-01T07:42:33.999Z</time></trkpt><trkpt lat="42.4158862886068" lon="14.24315267759123"><ele>66.0</ele><time>2026-05-01T07:42:35.999Z</time></trkpt><trkpt lat="42.41597279066357" lon="14.243143121718385"><ele>64.0</ele><time>2026-05-01T07:42:37.999Z</time></trkpt><trkpt lat="42.416065482157585" lon="14.243208672667551"><ele>62.0</ele><time>2026-05-01T07:42:39.999Z</time></trkpt><trkpt lat="42.41616663775557" lon="14.243285907127152"><ele>62.00000000000001</ele><time>2026-05-01T07:42:41.999Z</time></trkpt><trkpt lat="42.416236107241765" lon="14.243306026955329"><ele>62.0</ele><time>2026-05-01T07:42:42.999Z</time></trkpt><trkpt lat="42.416299109044864" lon="14.243344923406797"><ele>62.0</ele><time>2026-05-01T07:42:43.999Z</time></trkpt><trkpt lat="42.4163864785162" lon="14.243381381116578"><ele>62.0</ele><time>2026-05-01T07:42:45.999Z</time></trkpt><trkpt lat="42.41645147628309" lon="14.243402645886858"><ele>62.00000000000001</ele><time>2026-05-01T07:42:46.999Z</time></trkpt><trkpt lat="42.41650965713316" lon="14.2434465026985"><ele>62.0</ele><time>2026-05-01T07:42:47.999Z</time></trkpt><trkpt lat="42.41662234514302" lon="14.243539715548014"><ele>63.00000000000001</ele><time>2026-05-01T07:42:49.999Z</time></trkpt><trkpt lat="42.41667335972416" lon="14.243655867869183"><ele>64.0</ele><time>2026-05-01T07:42:51.999Z</time></trkpt><trkpt lat="42.416745831864965" lon="14.24378814168141"><ele>65.0</ele><time>2026-05-01T07:42:53.999Z</time></trkpt><trkpt lat="42.416773216771254" lon="14.24386981160584"><ele>66.0</ele><time>2026-05-01T07:42:54.999Z</time></trkpt><trkpt lat="42.4168052152993" lon="14.243950278175088"><ele>67.0</ele><time>2026-05-01T07:42:55.999Z</time></trkpt><trkpt lat="42.416838004130526" lon="14.244023127537488"><ele>68.0</ele><time>2026-05-01T07:42:56.999Z</time></trkpt><trkpt lat="42.41689712962429" lon="14.244143883520822"><ele>68.0</ele><time>2026-05-01T07:42:58.999Z</time></trkpt><trkpt lat="42.41693782564376" lon="14.24421187868147"><ele>68.0</ele><time>2026-05-01T07:43:00.999Z</time></trkpt><trkpt lat="42.41701602194754" lon="14.244213350355086"><ele>68.0</ele><time>2026-05-01T07:43:05.999Z</time></trkpt><trkpt lat="42.4171255765869" lon="14.244108918628523"><ele>68.0</ele><time>2026-05-01T07:43:07.999Z</time></trkpt><trkpt lat="42.4172256579088" lon="14.244066600153042"><ele>68.0</ele><time>2026-05-01T07:43:10.022Z</time></trkpt><trkpt lat="42.41731195945204" lon="14.24403925088933"><ele>72.0</ele><time>2026-05-01T07:43:11.999Z</time></trkpt><trkpt lat="42.417383364430115" lon="14.2439514036538"><ele>76.0</ele><time>2026-05-01T07:43:13.999Z</time></trkpt><trkpt lat="42.41743340118735" lon="14.24385911504282"><ele>80.0</ele><time>2026-05-01T07:43:14.999Z</time></trkpt><trkpt lat="42.41748879387073" lon="14.243785897661239"><ele>84.0</ele><time>2026-05-01T07:43:16.999Z</time></trkpt><trkpt lat="42.41749779919301" lon="14.243687932949316"><ele>88.0</ele><time>2026-05-01T07:45:21.999Z</time></trkpt><trkpt lat="42.41757023016252" lon="14.243579225792864"><ele>92.0</ele><time>2026-05-01T07:45:25.999Z</time></trkpt><trkpt lat="42.41767412549668" lon="14.243549692597243"><ele>92.0</ele><time>2026-05-01T07:45:27.999Z</time></trkpt><trkpt lat="42.41778090214883" lon="14.24356968052549"><ele>92.0</ele><time>2026-05-01T07:45:29.998Z</time></trkpt><trkpt lat="42.41787599385468" lon="14.243579575189932"><ele>92.0</ele><time>2026-05-01T07:45:31.998Z</time></trkpt><trkpt lat="42.41796794968789" lon="14.243553304118482"><ele>92.0</ele><time>2026-05-01T07:45:33.998Z</time></trkpt><trkpt lat="42.41807619335132" lon="14.24357115511513"><ele>92.0</ele><time>2026-05-01T07:45:35.998Z</time></trkpt><trkpt lat="42.41814654551621" lon="14.243685644519507"><ele>94.19999999999999</ele><time>2026-05-01T07:45:37.998Z</time></trkpt><trkpt lat="42.418201802921814" lon="14.243810654412854"><ele>96.4</ele><time>2026-05-01T07:45:39.998Z</time></trkpt><trkpt lat="42.41826239985229" lon="14.243932505506692"><ele>98.6</ele><time>2026-05-01T07:45:41.998Z</time></trkpt><trkpt lat="42.41830336424218" lon="14.2440469794624"><ele>100.80000000000001</ele><time>2026-05-01T07:45:43.998Z</time></trkpt><trkpt lat="42.41839410315974" lon="14.24409694998364"><ele>103.0</ele><time>2026-05-01T07:45:45.998Z</time></trkpt><trkpt lat="42.41847129967496" lon="14.244111655940163"><ele>103.00000000000001</ele><time>2026-05-01T07:45:46.998Z</time></trkpt><trkpt lat="42.418542909685634" lon="14.244147260874897"><ele>103.0</ele><time>2026-05-01T07:45:47.998Z</time></trkpt><trkpt lat="42.41861894474073" lon="14.244191963504504"><ele>103.0</ele><time>2026-05-01T07:45:48.998Z</time></trkpt><trkpt lat="42.41869350502982" lon="14.244238785608847"><ele>103.0</ele><time>2026-05-01T07:45:49.998Z</time></trkpt><trkpt lat="42.41880316246237" lon="14.244298673534527"><ele>103.00000000000001</ele><time>2026-05-01T07:45:51.998Z</time></trkpt><trkpt lat="42.41887660911971" lon="14.244294879225661"><ele>103.0</ele><time>2026-05-01T07:45:55Z</time></trkpt><trkpt lat="42.41892909487389" lon="14.244246273056605"><ele>104.16666666666667</ele><time>2026-05-01T07:46:05Z</time></trkpt><trkpt lat="42.4189515177825" lon="14.244131329186784"><ele>105.33333333333334</ele><time>2026-05-01T07:46:09Z</time></trkpt><trkpt lat="42.418971438431164" lon="14.244040706270615"><ele>106.5</ele><time>2026-05-01T07:46:12Z</time></trkpt><trkpt lat="42.41894773221903" lon="14.244129809653293"><ele>107.66666666666666</ele><time>2026-05-01T07:46:23Z</time></trkpt><trkpt lat="42.41892205537094" lon="14.244215234923654"><ele>108.83333333333333</ele><time>2026-05-01T07:46:37Z</time></trkpt><trkpt lat="42.41892622910481" lon="14.244307001583302"><ele>110.0</ele><time>2026-05-01T07:46:42.999Z</time></trkpt><trkpt lat="42.41891985424801" lon="14.244456831034505"><ele>109.99999999999999</ele><time>2026-05-01T07:46:44.999Z</time></trkpt><trkpt lat="42.41892296262938" lon="14.244569567369302"><ele>110.0</ele><time>2026-05-01T07:46:45.999Z</time></trkpt><trkpt lat="42.41893912420466" lon="14.244716882484148"><ele>110.0</ele><time>2026-05-01T07:46:47.999Z</time></trkpt><trkpt lat="42.418984000481295" lon="14.244802981309107"><ele>110.0</ele><time>2026-05-01T07:46:49.999Z</time></trkpt><trkpt lat="42.419055559386415" lon="14.24471332624968"><ele>109.99999999999999</ele><time>2026-05-01T07:46:51.999Z</time></trkpt><trkpt lat="42.41907934725294" lon="14.24462554253319"><ele>110.0</ele><time>2026-05-01T07:46:52.999Z</time></trkpt><trkpt lat="42.41911901409435" lon="14.244550534155259"><ele>110.0</ele><time>2026-05-01T07:46:53.999Z</time></trkpt><trkpt lat="42.4191943367917" lon="14.244546005419553"><ele>110.0</ele><time>2026-05-01T07:46:54.999Z</time></trkpt><trkpt lat="42.41928424191371" lon="14.244531275480018"><ele>110.0</ele><time>2026-05-01T07:46:56.999Z</time></trkpt><trkpt lat="42.419356705050646" lon="14.244636973770398"><ele>110.0</ele><time>2026-05-01T07:46:58.999Z</time></trkpt><trkpt lat="42.41936035409673" lon="14.244749308522263"><ele>110.0</ele><time>2026-05-01T07:46:59.999Z</time></trkpt><trkpt lat="42.419406243373395" lon="14.24489366122869"><ele>107.75</ele><time>2026-05-01T07:47:00.999Z</time></trkpt><trkpt lat="42.41943760684265" lon="14.245043081544475"><ele>105.5</ele><time>2026-05-01T07:47:01.999Z</time></trkpt><trkpt lat="42.41949075215128" lon="14.245226541178997"><ele>103.25</ele><time>2026-05-01T07:47:02.999Z</time></trkpt><trkpt lat="42.419559591719754" lon="14.245459123605501"><ele>101.0</ele><time>2026-05-01T07:47:03.999Z</time></trkpt><trkpt lat="42.4196310339884" lon="14.245716397340981"><ele>105.33333333333333</ele><time>2026-05-01T07:47:04.999Z</time></trkpt><trkpt lat="42.419699233537585" lon="14.245949220133255"><ele>109.66666666666666</ele><time>2026-05-01T07:47:05.999Z</time></trkpt><trkpt lat="42.419749003939465" lon="14.246148748403595"><ele>114.0</ele><time>2026-05-01T07:47:06.999Z</time></trkpt><trkpt lat="42.41979613182031" lon="14.246313770938102"><ele>114.0</ele><time>2026-05-01T07:47:07.999Z</time></trkpt><trkpt lat="42.41983072438735" lon="14.24644595035025"><ele>114.0</ele><time>2026-05-01T07:47:08.999Z</time></trkpt><trkpt lat="42.41986337309826" lon="14.246561487547302"><ele>114.0</ele><time>2026-05-01T07:47:09.999Z</time></trkpt><trkpt lat="42.41988779578172" lon="14.246651739268808"><ele>114.0</ele><time>2026-05-01T07:47:10.999Z</time></trkpt><trkpt lat="42.41991505614612" lon="14.246790139699819"><ele>114.0</ele><time>2026-05-01T07:47:12.999Z</time></trkpt><trkpt lat="42.419923604394256" lon="14.246895581590184"><ele>114.33333333333334</ele><time>2026-05-01T07:47:13.999Z</time></trkpt><trkpt lat="42.41991075499507" lon="14.24712004181613"><ele>114.66666666666667</ele><time>2026-05-01T07:47:14.999Z</time></trkpt><trkpt lat="42.41992086216398" lon="14.247356311176238"><ele>115.0</ele><time>2026-05-01T07:47:15.999Z</time></trkpt><trkpt lat="42.41995631806742" lon="14.247637941867186"><ele>113.66666666666667</ele><time>2026-05-01T07:47:16.999Z</time></trkpt><trkpt lat="42.41999972932047" lon="14.247913439409038"><ele>112.33333333333334</ele><time>2026-05-01T07:47:17.999Z</time></trkpt><trkpt lat="42.420042536471186" lon="14.248139664689958"><ele>111.0</ele><time>2026-05-01T07:47:18.999Z</time></trkpt><trkpt lat="42.420075103560634" lon="14.248324971112687"><ele>109.8</ele><time>2026-05-01T07:47:19.999Z</time></trkpt><trkpt lat="42.42009764656472" lon="14.248455569799079"><ele>108.6</ele><time>2026-05-01T07:47:20.999Z</time></trkpt><trkpt lat="42.42011327997803" lon="14.248570655776518"><ele>107.4</ele><time>2026-05-01T07:47:21.999Z</time></trkpt><trkpt lat="42.42013520266166" lon="14.248696683822843"><ele>106.2</ele><time>2026-05-01T07:47:23.999Z</time></trkpt><trkpt lat="42.420163896760236" lon="14.24877957544688"><ele>105.0</ele><time>2026-05-01T07:47:27.999Z</time></trkpt><trkpt lat="42.42010524904192" lon="14.24891134145154"><ele>105.0</ele><time>2026-05-01T07:47:35.999Z</time></trkpt><trkpt lat="42.42004872465802" lon="14.248957668319983"><ele>105.0</ele><time>2026-05-01T07:47:36.999Z</time></trkpt><trkpt lat="42.41994994628962" lon="14.2490480117045"><ele>105.0</ele><time>2026-05-01T07:47:38.998Z</time></trkpt><trkpt lat="42.419856561831665" lon="14.249124123937637"><ele>105.0</ele><time>2026-05-01T07:47:40.998Z</time></trkpt><trkpt lat="42.41978869060614" lon="14.249200651272481"><ele>105.0</ele><time>2026-05-01T07:47:42.998Z</time></trkpt><trkpt lat="42.41973958149162" lon="14.249284295312682"><ele>104.0</ele><time>2026-05-01T07:47:44.998Z</time></trkpt><trkpt lat="42.41969338900301" lon="14.249342880036917"><ele>103.0</ele><time>2026-05-01T07:47:54.998Z</time></trkpt><trkpt lat="42.4196361060165" lon="14.24941783569004"><ele>102.0</ele><time>2026-05-01T07:47:57.998Z</time></trkpt><trkpt lat="42.419559182949556" lon="14.249478966601481"><ele>101.0</ele><time>2026-05-01T07:48:03Z</time></trkpt><trkpt lat="42.419467999901116" lon="14.249482577094394"><ele>100.0</ele><time>2026-05-01T07:48:06Z</time></trkpt><trkpt lat="42.41938803456351" lon="14.2495234241826"><ele>99.0</ele><time>2026-05-01T07:48:08Z</time></trkpt><trkpt lat="42.418969892001826" lon="14.249238564710401"><ele>96.0</ele><time>2026-05-01T07:48:09Z</time></trkpt><trkpt lat="42.41887957011556" lon="14.249233566012418"><ele>93.0</ele><time>2026-05-01T07:48:10Z</time></trkpt><trkpt lat="42.418792683779266" lon="14.249240383455074"><ele>90.0</ele><time>2026-05-01T07:48:11Z</time></trkpt><trkpt lat="42.41870375023811" lon="14.249277577519107"><ele>87.0</ele><time>2026-05-01T07:48:12Z</time></trkpt><trkpt lat="42.41870835058771" lon="14.249065662553026"><ele>84.0</ele><time>2026-05-01T07:48:13Z</time></trkpt><trkpt lat="42.41860259500349" lon="14.249035937416558"><ele>81.66666666666667</ele><time>2026-05-01T07:48:14Z</time></trkpt><trkpt lat="42.418523605806016" lon="14.24900919433315"><ele>79.33333333333333</ele><time>2026-05-01T07:48:15Z</time></trkpt><trkpt lat="42.41844651059522" lon="14.248981785743306"><ele>77.0</ele><time>2026-05-01T07:48:16Z</time></trkpt><trkpt lat="42.41837409114646" lon="14.248970163769272"><ele>74.66666666666666</ele><time>2026-05-01T07:48:17Z</time></trkpt><trkpt lat="42.4183000378962" lon="14.248949571816713"><ele>72.33333333333333</ele><time>2026-05-01T07:48:18Z</time></trkpt><trkpt lat="42.41822473825679" lon="14.24893081466124"><ele>70.0</ele><time>2026-05-01T07:48:19.02Z</time></trkpt><trkpt lat="42.41815103389641" lon="14.248912380834465"><ele>69.66666666666666</ele><time>2026-05-01T07:48:20.019Z</time></trkpt><trkpt lat="42.418076948082074" lon="14.248893894173383"><ele>69.33333333333333</ele><time>2026-05-01T07:48:21.023Z</time></trkpt><trkpt lat="42.41800349851977" lon="14.248875398711242"><ele>69.0</ele><time>2026-05-01T07:48:22.02Z</time></trkpt><trkpt lat="42.41789602776724" lon="14.248909768039306"><ele>68.66666666666667</ele><time>2026-05-01T07:48:23Z</time></trkpt><trkpt lat="42.41783679949711" lon="14.248832573792184"><ele>68.33333333333334</ele><time>2026-05-01T07:48:25Z</time></trkpt><trkpt lat="42.41776700576282" lon="14.248753615019137"><ele>68.0</ele><time>2026-05-01T07:48:27Z</time></trkpt><trkpt lat="42.41769193496324" lon="14.248670032737122"><ele>65.0</ele><time>2026-05-01T07:48:29Z</time></trkpt><trkpt lat="42.41760410235116" lon="14.248633771325972"><ele>62.0</ele><time>2026-05-01T07:48:31Z</time></trkpt><trkpt lat="42.417515290789346" lon="14.248596061190005"><ele>59.0</ele><time>2026-05-01T07:48:33Z</time></trkpt><trkpt lat="42.41742710475401" lon="14.248556033870367"><ele>56.0</ele><time>2026-05-01T07:48:35Z</time></trkpt><trkpt lat="42.41733118899508" lon="14.248480453963992"><ele>53.0</ele><time>2026-05-01T07:48:37Z</time></trkpt><trkpt lat="42.41726650992142" lon="14.248372125027355"><ele>53.00000000000001</ele><time>2026-05-01T07:48:39Z</time></trkpt><trkpt lat="42.41723210353752" lon="14.24823357405"><ele>53.0</ele><time>2026-05-01T07:48:41Z</time></trkpt><trkpt lat="42.417235607762706" lon="14.24812886491303"><ele>53.0</ele><time>2026-05-01T07:48:42.999Z</time></trkpt><trkpt lat="42.41724915005595" lon="14.248030319828004"><ele>53.0</ele><time>2026-05-01T07:48:45.999Z</time></trkpt><trkpt lat="42.4172199197906" lon="14.247950691519907"><ele>53.00000000000001</ele><time>2026-05-01T07:48:57.999Z</time></trkpt><trkpt lat="42.417140508139575" lon="14.247919508129677"><ele>53.0</ele><time>2026-05-01T07:49:00.999Z</time></trkpt><trkpt lat="42.417053878750465" lon="14.247902430453346"><ele>51.333333333333336</ele><time>2026-05-01T07:49:02.999Z</time></trkpt><trkpt lat="42.416978141038975" lon="14.247884985383672"><ele>49.66666666666667</ele><time>2026-05-01T07:49:04.999Z</time></trkpt><trkpt lat="42.41689782346846" lon="14.247861148566532"><ele>48.0</ele><time>2026-05-01T07:49:10.999Z</time></trkpt><trkpt lat="42.416822385017305" lon="14.24784213103416"><ele>46.333333333333336</ele><time>2026-05-01T07:49:12.999Z</time></trkpt><trkpt lat="42.4167469466648" lon="14.247816142007757"><ele>44.66666666666667</ele><time>2026-05-01T07:49:14.999Z</time></trkpt><trkpt lat="42.41664800743902" lon="14.247787919128529"><ele>43.0</ele><time>2026-05-01T07:49:16.999Z</time></trkpt><trkpt lat="42.41656831900937" lon="14.247817850989318"><ele>43.0</ele><time>2026-05-01T07:49:18.999Z</time></trkpt><trkpt lat="42.41648944568256" lon="14.247852447450846"><ele>43.0</ele><time>2026-05-01T07:49:20.999Z</time></trkpt><trkpt lat="42.41641527097411" lon="14.247967632369342"><ele>43.0</ele><time>2026-05-01T07:49:23.999Z</time></trkpt><trkpt lat="42.4163729852411" lon="14.24803097776258"><ele>43.0</ele><time>2026-05-01T07:49:24.999Z</time></trkpt><trkpt lat="42.416326333621235" lon="14.248096630100944"><ele>43.0</ele><time>2026-05-01T07:49:25.999Z</time></trkpt><trkpt lat="42.41627273500568" lon="14.248166740873101"><ele>43.0</ele><time>2026-05-01T07:49:26.999Z</time></trkpt><trkpt lat="42.41621822434141" lon="14.248241126011507"><ele>44.833333333333336</ele><time>2026-05-01T07:49:27.999Z</time></trkpt><trkpt lat="42.416150164871866" lon="14.248327059826789"><ele>46.66666666666667</ele><time>2026-05-01T07:49:28.999Z</time></trkpt><trkpt lat="42.416095028443245" lon="14.248397599189817"><ele>48.5</ele><time>2026-05-01T07:49:29.999Z</time></trkpt><trkpt lat="42.41604418153783" lon="14.24846181375263"><ele>50.333333333333336</ele><time>2026-05-01T07:49:30.999Z</time></trkpt><trkpt lat="42.415988195728666" lon="14.248527774143499"><ele>52.166666666666664</ele><time>2026-05-01T07:49:31.999Z</time></trkpt><trkpt lat="42.41593176368848" lon="14.24859124064724"><ele>54.0</ele><time>2026-05-01T07:49:32.999Z</time></trkpt><trkpt lat="42.41587296448309" lon="14.248664053256917"><ele>54.0</ele><time>2026-05-01T07:49:33.999Z</time></trkpt><trkpt lat="42.41581531222797" lon="14.24871699651583"><ele>54.0</ele><time>2026-05-01T07:49:34.999Z</time></trkpt><trkpt lat="42.41575687728481" lon="14.248777141751752"><ele>54.0</ele><time>2026-05-01T07:49:35.999Z</time></trkpt><trkpt lat="42.41569402673337" lon="14.248833206869078"><ele>54.0</ele><time>2026-05-01T07:49:36.999Z</time></trkpt><trkpt lat="42.41563524141874" lon="14.248888967767357"><ele>54.0</ele><time>2026-05-01T07:49:37.999Z</time></trkpt><trkpt lat="42.415576927168466" lon="14.248950112471336"><ele>54.0</ele><time>2026-05-01T07:49:38.999Z</time></trkpt><trkpt lat="42.415511681316026" lon="14.249005242880145"><ele>54.0</ele><time>2026-05-01T07:49:39.998Z</time></trkpt><trkpt lat="42.41545558892706" lon="14.249076233032547"><ele>57.666666666666664</ele><time>2026-05-01T07:49:40.998Z</time></trkpt><trkpt lat="42.41540103475047" lon="14.249147365751544"><ele>61.33333333333333</ele><time>2026-05-01T07:49:41.998Z</time></trkpt><trkpt lat="42.41533407156301" lon="14.249283656207044"><ele>65.0</ele><time>2026-05-01T07:49:43.998Z</time></trkpt><trkpt lat="42.41527088587938" lon="14.24940930547267"><ele>68.66666666666666</ele><time>2026-05-01T07:49:45.998Z</time></trkpt><trkpt lat="42.41522215828209" lon="14.249474878315747"><ele>72.33333333333333</ele><time>2026-05-01T07:49:46.998Z</time></trkpt><trkpt lat="42.4151693272766" lon="14.249540904713491"><ele>76.0</ele><time>2026-05-01T07:49:47.998Z</time></trkpt><trkpt lat="42.41511974300473" lon="14.24959813645141"><ele>76.0</ele><time>2026-05-01T07:49:48.998Z</time></trkpt><trkpt lat="42.415033092415804" lon="14.249688554746344"><ele>76.0</ele><time>2026-05-01T07:49:50.998Z</time></trkpt><trkpt lat="42.41491724644027" lon="14.249754993953525"><ele>76.0</ele><time>2026-05-01T07:49:52.998Z</time></trkpt><trkpt lat="42.414859307119826" lon="14.249797916967127"><ele>76.0</ele><time>2026-05-01T07:49:53.998Z</time></trkpt><trkpt lat="42.414790625268004" lon="14.249860867417256"><ele>76.0</ele><time>2026-05-01T07:49:54.998Z</time></trkpt><trkpt lat="42.41472433684727" lon="14.249928223930063"><ele>74.5</ele><time>2026-05-01T07:49:55.998Z</time></trkpt><trkpt lat="42.414657424134795" lon="14.250016363636965"><ele>73.0</ele><time>2026-05-01T07:49:56.998Z</time></trkpt><trkpt lat="42.41457121057744" lon="14.250073551676962"><ele>71.5</ele><time>2026-05-01T07:49:57.998Z</time></trkpt><trkpt lat="42.414501918002195" lon="14.250138853842673"><ele>70.0</ele><time>2026-05-01T07:49:58.998Z</time></trkpt><trkpt lat="42.4144430953883" lon="14.250200598386511"><ele>68.5</ele><time>2026-05-01T07:49:59.998Z</time></trkpt><trkpt lat="42.41438152198846" lon="14.250240503838075"><ele>67.0</ele><time>2026-05-01T07:50:00.998Z</time></trkpt><trkpt lat="42.414298470830765" lon="14.250289172753675"><ele>70.8</ele><time>2026-05-01T07:50:02.998Z</time></trkpt><trkpt lat="42.414207942548494" lon="14.250192387216781"><ele>74.6</ele><time>2026-05-01T07:50:05Z</time></trkpt><trkpt lat="42.41417097383402" lon="14.250111225152482"><ele>78.39999999999999</ele><time>2026-05-01T07:50:06Z</time></trkpt><trkpt lat="42.414098464648255" lon="14.250007739403117"><ele>82.2</ele><time>2026-05-01T07:50:07Z</time></trkpt><trkpt lat="42.413993137611264" lon="14.249900767781202"><ele>86.0</ele><time>2026-05-01T07:50:08Z</time></trkpt><trkpt lat="42.413904842700994" lon="14.24983656755856"><ele>86.6</ele><time>2026-05-01T07:50:09Z</time></trkpt><trkpt lat="42.413817218843676" lon="14.24979502053571"><ele>87.19999999999999</ele><time>2026-05-01T07:50:10Z</time></trkpt><trkpt lat="42.413717849674065" lon="14.249773714086784"><ele>87.80000000000001</ele><time>2026-05-01T07:50:11Z</time></trkpt><trkpt lat="42.41358806626285" lon="14.249775766991958"><ele>88.4</ele><time>2026-05-01T07:50:12Z</time></trkpt><trkpt lat="42.41347617948309" lon="14.249798309458878"><ele>89.0</ele><time>2026-05-01T07:50:13Z</time></trkpt><trkpt lat="42.413396694198795" lon="14.249832496363622"><ele>89.0</ele><time>2026-05-01T07:50:14Z</time></trkpt><trkpt lat="42.41332633859298" lon="14.249858253452356"><ele>89.0</ele><time>2026-05-01T07:50:15Z</time></trkpt><trkpt lat="42.41324136326976" lon="14.249885431530043"><ele>89.0</ele><time>2026-05-01T07:50:17Z</time></trkpt><trkpt lat="42.41315731600658" lon="14.24985279148524"><ele>89.0</ele><time>2026-05-01T07:50:21Z</time></trkpt><trkpt lat="42.41317227472714" lon="14.249637266877805"><ele>89.0</ele><time>2026-05-01T07:50:23Z</time></trkpt><trkpt lat="42.413154688409044" lon="14.249492851603266"><ele>90.25</ele><time>2026-05-01T07:50:24Z</time></trkpt><trkpt lat="42.413124850522806" lon="14.249345529709599"><ele>91.5</ele><time>2026-05-01T07:50:25Z</time></trkpt><trkpt lat="42.41310330387114" lon="14.249199233242758"><ele>92.75</ele><time>2026-05-01T07:50:26Z</time></trkpt><trkpt lat="42.413083468423494" lon="14.249033366614588"><ele>94.0</ele><time>2026-05-01T07:50:27Z</time></trkpt><trkpt lat="42.41305884683667" lon="14.248861348523182"><ele>94.80000000000001</ele><time>2026-05-01T07:50:28Z</time></trkpt><trkpt lat="42.41302623319064" lon="14.248703187554748"><ele>95.60000000000001</ele><time>2026-05-01T07:50:29Z</time></trkpt><trkpt lat="42.41300362165986" lon="14.248563506923427"><ele>96.4</ele><time>2026-05-01T07:50:30Z</time></trkpt><trkpt lat="42.41298222636955" lon="14.248434532148806"><ele>97.2</ele><time>2026-05-01T07:50:31Z</time></trkpt><trkpt lat="42.412966785364745" lon="14.248294889651804"><ele>98.0</ele><time>2026-05-01T07:50:32Z</time></trkpt><trkpt lat="42.41293719797358" lon="14.248140907692735"><ele>97.75</ele><time>2026-05-01T07:50:33Z</time></trkpt><trkpt lat="42.41291284088853" lon="14.247978665903142"><ele>97.5</ele><time>2026-05-01T07:50:34Z</time></trkpt><trkpt lat="42.41288406970964" lon="14.247814295108673"><ele>97.25</ele><time>2026-05-01T07:50:35Z</time></trkpt><trkpt lat="42.412852847437556" lon="14.247658811407678"><ele>97.0</ele><time>2026-05-01T07:50:36Z</time></trkpt><trkpt lat="42.41283151430666" lon="14.247520474348986"><ele>97.0</ele><time>2026-05-01T07:50:37Z</time></trkpt><trkpt lat="42.41279474153511" lon="14.247394897221207"><ele>97.0</ele><time>2026-05-01T07:50:38Z</time></trkpt><trkpt lat="42.41277973180818" lon="14.24730039590459"><ele>97.0</ele><time>2026-05-01T07:50:39Z</time></trkpt><trkpt lat="42.412773579005254" lon="14.247170686710405"><ele>97.0</ele><time>2026-05-01T07:50:40.999Z</time></trkpt><trkpt lat="42.41286771884901" lon="14.247169464926106"><ele>97.0</ele><time>2026-05-01T07:50:42.999Z</time></trkpt><trkpt lat="42.41297255006877" lon="14.24709549758725"><ele>99.00000000000001</ele><time>2026-05-01T07:50:44.999Z</time></trkpt><trkpt lat="42.41305162128833" lon="14.247050172725325"><ele>101.0</ele><time>2026-05-01T07:50:45.999Z</time></trkpt><trkpt lat="42.41313142077113" lon="14.247009209804471"><ele>103.0</ele><time>2026-05-01T07:50:46.999Z</time></trkpt><trkpt lat="42.413211785751685" lon="14.246951392496744"><ele>105.0</ele><time>2026-05-01T07:50:47.999Z</time></trkpt><trkpt lat="42.41328017587828" lon="14.246916127464521"><ele>107.00000000000001</ele><time>2026-05-01T07:50:48.999Z</time></trkpt><trkpt lat="42.41335056166379" lon="14.246895252240945"><ele>109.0</ele><time>2026-05-01T07:50:49.999Z</time></trkpt><trkpt lat="42.4134554546278" lon="14.246816095241542"><ele>109.0</ele><time>2026-05-01T07:50:51.999Z</time></trkpt><trkpt lat="42.4135450237958" lon="14.246772563971495"><ele>109.0</ele><time>2026-05-01T07:50:53.999Z</time></trkpt><trkpt lat="42.41361593687427" lon="14.246753698609128"><ele>109.0</ele><time>2026-05-01T07:50:55.999Z</time></trkpt><trkpt lat="42.41369646826134" lon="14.246710741495356"><ele>109.0</ele><time>2026-05-01T07:50:57.999Z</time></trkpt><trkpt lat="42.41374942878288" lon="14.246663253977522"><ele>109.0</ele><time>2026-05-01T07:50:59.999Z</time></trkpt><trkpt lat="42.41373399823111" lon="14.246405920934967"><ele>110.4</ele><time>2026-05-01T07:51:01.999Z</time></trkpt><trkpt lat="42.41376015401761" lon="14.246309786571754"><ele>111.80000000000001</ele><time>2026-05-01T07:51:03.999Z</time></trkpt><trkpt lat="42.41378130583977" lon="14.246132754245975"><ele>113.19999999999999</ele><time>2026-05-01T07:51:05.999Z</time></trkpt><trkpt lat="42.41379526136148" lon="14.246037073114897"><ele>114.6</ele><time>2026-05-01T07:51:06.999Z</time></trkpt><trkpt lat="42.413794667686666" lon="14.245900104686932"><ele>116.0</ele><time>2026-05-01T07:51:07.999Z</time></trkpt><trkpt lat="42.41378932646924" lon="14.245794557803691"><ele>115.99999999999999</ele><time>2026-05-01T07:51:08.999Z</time></trkpt><trkpt lat="42.41377549290549" lon="14.24569364589941"><ele>116.0</ele><time>2026-05-01T07:51:09.999Z</time></trkpt><trkpt lat="42.41375787411263" lon="14.245606837580041"><ele>116.0</ele><time>2026-05-01T07:51:10.999Z</time></trkpt><trkpt lat="42.413731109833805" lon="14.245526906073561"><ele>116.0</ele><time>2026-05-01T07:51:11.999Z</time></trkpt><trkpt lat="42.41367801006211" lon="14.245381024670206"><ele>115.99999999999999</ele><time>2026-05-01T07:51:13.999Z</time></trkpt><trkpt lat="42.4136437557376" lon="14.245298010574421"><ele>116.0</ele><time>2026-05-01T07:51:14.999Z</time></trkpt><trkpt lat="42.41359023037735" lon="14.245171740919865"><ele>116.83333333333333</ele><time>2026-05-01T07:51:15.999Z</time></trkpt><trkpt lat="42.413552958385516" lon="14.245079677807599"><ele>117.66666666666666</ele><time>2026-05-01T07:51:16.999Z</time></trkpt><trkpt lat="42.41352617980255" lon="14.244994292448075"><ele>118.5</ele><time>2026-05-01T07:51:17.999Z</time></trkpt><trkpt lat="42.41351891365278" lon="14.244838612961752"><ele>119.33333333333334</ele><time>2026-05-01T07:51:19.999Z</time></trkpt><trkpt lat="42.41352605979883" lon="14.244730523287172"><ele>120.16666666666667</ele><time>2026-05-01T07:51:20.999Z</time></trkpt><trkpt lat="42.41351793640864" lon="14.244612400365334"><ele>121.0</ele><time>2026-05-01T07:51:21.999Z</time></trkpt><trkpt lat="42.413487879346214" lon="14.244500220704431"><ele>121.28571428571428</ele><time>2026-05-01T07:51:22.999Z</time></trkpt><trkpt lat="42.41344460532075" lon="14.244418574504854"><ele>121.57142857142856</ele><time>2026-05-01T07:51:23.999Z</time></trkpt><trkpt lat="42.41341153302233" lon="14.244343592599789"><ele>121.85714285714286</ele><time>2026-05-01T07:51:24.999Z</time></trkpt><trkpt lat="42.413379618394146" lon="14.244261525901786"><ele>122.14285714285714</ele><time>2026-05-01T07:51:25.999Z</time></trkpt><trkpt lat="42.413346542309235" lon="14.244169927619492"><ele>122.42857142857143</ele><time>2026-05-01T07:51:26.999Z</time></trkpt><trkpt lat="42.41330881087505" lon="14.244080044975542"><ele>122.71428571428572</ele><time>2026-05-01T07:51:27.999Z</time></trkpt><trkpt lat="42.41326411340074" lon="14.243973612941707"><ele>123.00000000000001</ele><time>2026-05-01T07:51:28.999Z</time></trkpt><trkpt lat="42.413225845359314" lon="14.243883686123427"><ele>121.80000000000001</ele><time>2026-05-01T07:51:29.999Z</time></trkpt><trkpt lat="42.413180099894724" lon="14.243798367163077"><ele>120.60000000000001</ele><time>2026-05-01T07:51:30.999Z</time></trkpt><trkpt lat="42.41313193753516" lon="14.243705465004568"><ele>119.39999999999999</ele><time>2026-05-01T07:51:31.999Z</time></trkpt><trkpt lat="42.413103911734616" lon="14.243584059434678"><ele>118.19999999999999</ele><time>2026-05-01T07:51:32.999Z</time></trkpt><trkpt lat="42.41307990015433" lon="14.243441559485694"><ele>117.0</ele><time>2026-05-01T07:51:33.999Z</time></trkpt><trkpt lat="42.413060503714654" lon="14.243312305977723"><ele>117.0</ele><time>2026-05-01T07:51:34.999Z</time></trkpt><trkpt lat="42.41305904585165" lon="14.243175302020282"><ele>116.99999999999999</ele><time>2026-05-01T07:51:35.999Z</time></trkpt><trkpt lat="42.41306358531925" lon="14.243048237248164"><ele>116.99999999999999</ele><time>2026-05-01T07:51:36.999Z</time></trkpt><trkpt lat="42.413051321528414" lon="14.242892283163854"><ele>117.0</ele><time>2026-05-01T07:51:37.999Z</time></trkpt><trkpt lat="42.413078931539864" lon="14.242806727160941"><ele>117.0</ele><time>2026-05-01T07:51:38.999Z</time></trkpt><trkpt lat="42.413072480725404" lon="14.242684385089253"><ele>115.75</ele><time>2026-05-01T07:51:39.999Z</time></trkpt><trkpt lat="42.41306055862331" lon="14.24255969418543"><ele>114.5</ele><time>2026-05-01T07:51:40.998Z</time></trkpt><trkpt lat="42.41302545638997" lon="14.24245343735432"><ele>113.25</ele><time>2026-05-01T07:51:41.998Z</time></trkpt><trkpt lat="42.41297473571072" lon="14.24229579155487"><ele>112.0</ele><time>2026-05-01T07:51:42.998Z</time></trkpt><trkpt lat="42.41289670261465" lon="14.24213067579572"><ele>115.6</ele><time>2026-05-01T07:51:43.998Z</time></trkpt><trkpt lat="42.412829318155985" lon="14.241983818011418"><ele>119.19999999999999</ele><time>2026-05-01T07:51:44.998Z</time></trkpt><trkpt lat="42.41278797115584" lon="14.241865661550866"><ele>122.8</ele><time>2026-05-01T07:51:45.998Z</time></trkpt><trkpt lat="42.412758774042814" lon="14.241743583028022"><ele>126.4</ele><time>2026-05-01T07:51:46.998Z</time></trkpt><trkpt lat="42.4127382682134" lon="14.2416324611649"><ele>130.0</ele><time>2026-05-01T07:51:47.998Z</time></trkpt><trkpt lat="42.41270992449459" lon="14.241512944261338"><ele>128.0</ele><time>2026-05-01T07:51:48.998Z</time></trkpt><trkpt lat="42.41268407756912" lon="14.24142024606359"><ele>126.0</ele><time>2026-05-01T07:51:49.998Z</time></trkpt><trkpt lat="42.41264218497324" lon="14.24132781289687"><ele>124.0</ele><time>2026-05-01T07:51:50.998Z</time></trkpt><trkpt lat="42.412592550721634" lon="14.241234267572338"><ele>122.0</ele><time>2026-05-01T07:51:51.998Z</time></trkpt><trkpt lat="42.41255010279481" lon="14.24114204377867"><ele>120.00000000000001</ele><time>2026-05-01T07:51:52.998Z</time></trkpt><trkpt lat="42.412501259253155" lon="14.241054946155892"><ele>118.0</ele><time>2026-05-01T07:51:53.998Z</time></trkpt><trkpt lat="42.412441314511504" lon="14.240984227613147"><ele>118.00000000000001</ele><time>2026-05-01T07:51:54.998Z</time></trkpt><trkpt lat="42.41236812875097" lon="14.240934041372325"><ele>118.0</ele><time>2026-05-01T07:51:55.998Z</time></trkpt><trkpt lat="42.412311184514444" lon="14.240867934162672"><ele>118.0</ele><time>2026-05-01T07:51:56.998Z</time></trkpt><trkpt lat="42.412257637398255" lon="14.240769880534238"><ele>118.0</ele><time>2026-05-01T07:51:57.998Z</time></trkpt><trkpt lat="42.412211381294874" lon="14.240703718825891"><ele>118.00000000000001</ele><time>2026-05-01T07:51:58.998Z</time></trkpt><trkpt lat="42.41214377294122" lon="14.240597371035381"><ele>118.0</ele><time>2026-05-01T07:52:00.998Z</time></trkpt><trkpt lat="42.412088140752246" lon="14.240535366192862"><ele>119.0</ele><time>2026-05-01T07:52:01.998Z</time></trkpt><trkpt lat="42.41203431198096" lon="14.240482545410366"><ele>120.0</ele><time>2026-05-01T07:52:02.998Z</time></trkpt><trkpt lat="42.41198104369691" lon="14.24042942175475"><ele>121.0</ele><time>2026-05-01T07:52:03.998Z</time></trkpt><trkpt lat="42.41190943723821" lon="14.240417434915669"><ele>122.0</ele><time>2026-05-01T07:52:05.998Z</time></trkpt><trkpt lat="42.41186146575942" lon="14.240319996954193"><ele>123.0</ele><time>2026-05-01T07:52:14Z</time></trkpt><trkpt lat="42.41182782247084" lon="14.240232021132071"><ele>124.0</ele><time>2026-05-01T07:52:17Z</time></trkpt><trkpt lat="42.41179258873824" lon="14.240151410478761"><ele>125.0</ele><time>2026-05-01T07:52:19Z</time></trkpt><trkpt lat="42.41174793025052" lon="14.240044130380252"><ele>124.99999999999999</ele><time>2026-05-01T07:52:22Z</time></trkpt><trkpt lat="42.41171940155451" lon="14.239950280453641"><ele>125.0</ele><time>2026-05-01T07:52:24Z</time></trkpt><trkpt lat="42.41168134495445" lon="14.239870032024475"><ele>125.0</ele><time>2026-05-01T07:52:25Z</time></trkpt><trkpt lat="42.41164603874024" lon="14.239796107917199"><ele>125.0</ele><time>2026-05-01T07:52:26Z</time></trkpt><trkpt lat="42.4115766368818" lon="14.239669478883767"><ele>124.99999999999999</ele><time>2026-05-01T07:52:28Z</time></trkpt><trkpt lat="42.411563952679785" lon="14.239579622155652"><ele>125.0</ele><time>2026-05-01T07:52:29Z</time></trkpt><trkpt lat="42.41152723760642" lon="14.239455589105914"><ele>123.4</ele><time>2026-05-01T07:52:30Z</time></trkpt><trkpt lat="42.411479641023604" lon="14.239315155304899"><ele>121.8</ele><time>2026-05-01T07:52:31Z</time></trkpt><trkpt lat="42.41144415823063" lon="14.239192999270651"><ele>120.19999999999999</ele><time>2026-05-01T07:52:32Z</time></trkpt><trkpt lat="42.41138955918753" lon="14.23906964819496"><ele>118.6</ele><time>2026-05-01T07:52:33Z</time></trkpt><trkpt lat="42.41133687442269" lon="14.23895126941665"><ele>117.0</ele><time>2026-05-01T07:52:34Z</time></trkpt><trkpt lat="42.411278762104374" lon="14.238821755904157"><ele>123.25</ele><time>2026-05-01T07:52:35Z</time></trkpt><trkpt lat="42.41122114028063" lon="14.23867916430566"><ele>129.5</ele><time>2026-05-01T07:52:36Z</time></trkpt><trkpt lat="42.41114436590268" lon="14.238533739918001"><ele>135.75</ele><time>2026-05-01T07:52:37Z</time></trkpt><trkpt lat="42.41107086577673" lon="14.238393995832304"><ele>142.0</ele><time>2026-05-01T07:52:38Z</time></trkpt><trkpt lat="42.411014651719505" lon="14.238258707787624"><ele>142.0</ele><time>2026-05-01T07:52:39Z</time></trkpt><trkpt lat="42.41096710414429" lon="14.238138193655956"><ele>142.0</ele><time>2026-05-01T07:52:40Z</time></trkpt><trkpt lat="42.41091785334644" lon="14.238014437169298"><ele>142.0</ele><time>2026-05-01T07:52:41Z</time></trkpt><trkpt lat="42.4108762309398" lon="14.237899965650682"><ele>142.0</ele><time>2026-05-01T07:52:41.999Z</time></trkpt><trkpt lat="42.410857107740924" lon="14.23779498604174"><ele>142.0</ele><time>2026-05-01T07:52:42.999Z</time></trkpt><trkpt lat="42.41082355733376" lon="14.23770098283793"><ele>142.0</ele><time>2026-05-01T07:52:43.999Z</time></trkpt><trkpt lat="42.410787879037514" lon="14.237606078120805"><ele>142.0</ele><time>2026-05-01T07:52:44.999Z</time></trkpt><trkpt lat="42.41075292482722" lon="14.237529456363728"><ele>142.0</ele><time>2026-05-01T07:52:45.999Z</time></trkpt><trkpt lat="42.41070874868288" lon="14.237446320708502"><ele>142.0</ele><time>2026-05-01T07:52:46.999Z</time></trkpt><trkpt lat="42.410646839941876" lon="14.237402349851815"><ele>142.0</ele><time>2026-05-01T07:52:47.999Z</time></trkpt><trkpt lat="42.41057721037895" lon="14.237297067233664"><ele>142.0</ele><time>2026-05-01T07:52:48.999Z</time></trkpt><trkpt lat="42.41052129816855" lon="14.237175617468216"><ele>143.83333333333334</ele><time>2026-05-01T07:52:49.999Z</time></trkpt><trkpt lat="42.41047512848776" lon="14.23709854567554"><ele>145.66666666666669</ele><time>2026-05-01T07:52:50.999Z</time></trkpt><trkpt lat="42.41042576861155" lon="14.236999649389025"><ele>147.5</ele><time>2026-05-01T07:52:52.999Z</time></trkpt><trkpt lat="42.41036578233398" lon="14.236853565647953"><ele>149.33333333333334</ele><time>2026-05-01T07:52:54.999Z</time></trkpt><trkpt lat="42.410340432308814" lon="14.236754438555275"><ele>151.16666666666666</ele><time>2026-05-01T07:52:55.999Z</time></trkpt><trkpt lat="42.41030800376056" lon="14.23664865091784"><ele>153.0</ele><time>2026-05-01T07:52:56.999Z</time></trkpt><trkpt lat="42.41026957806355" lon="14.236540703734319"><ele>152.16666666666666</ele><time>2026-05-01T07:52:57.999Z</time></trkpt><trkpt lat="42.41024037142031" lon="14.23646230564879"><ele>151.33333333333334</ele><time>2026-05-01T07:52:58.999Z</time></trkpt><trkpt lat="42.410194209252744" lon="14.23637771411742"><ele>150.5</ele><time>2026-05-01T07:52:59.999Z</time></trkpt><trkpt lat="42.41013715121175" lon="14.236292378628137"><ele>149.66666666666669</ele><time>2026-05-01T07:53:00.999Z</time></trkpt><trkpt lat="42.41008006099136" lon="14.236216082670632"><ele>148.83333333333334</ele><time>2026-05-01T07:53:01.999Z</time></trkpt><trkpt lat="42.41001562088292" lon="14.23614144156471"><ele>148.0</ele><time>2026-05-01T07:53:02.999Z</time></trkpt><trkpt lat="42.409950232917424" lon="14.236065968786162"><ele>148.0</ele><time>2026-05-01T07:53:03.999Z</time></trkpt><trkpt lat="42.40988612244529" lon="14.236006515080764"><ele>148.0</ele><time>2026-05-01T07:53:04.999Z</time></trkpt><trkpt lat="42.40981383740545" lon="14.235931501720948"><ele>148.0</ele><time>2026-05-01T07:53:05.999Z</time></trkpt><trkpt lat="42.409737810543135" lon="14.235844708283432"><ele>148.0</ele><time>2026-05-01T07:53:06.999Z</time></trkpt><trkpt lat="42.409665126377135" lon="14.235758826369333"><ele>148.0</ele><time>2026-05-01T07:53:07.999Z</time></trkpt><trkpt lat="42.409601900597615" lon="14.235672925333004"><ele>148.0</ele><time>2026-05-01T07:53:08.999Z</time></trkpt><trkpt lat="42.4095316833584" lon="14.235575086933006"><ele>148.0</ele><time>2026-05-01T07:53:09.999Z</time></trkpt><trkpt lat="42.40945449473752" lon="14.235479906298346"><ele>148.0</ele><time>2026-05-01T07:53:10.999Z</time></trkpt><trkpt lat="42.409388079151746" lon="14.235399036474655"><ele>148.0</ele><time>2026-05-01T07:53:11.999Z</time></trkpt><trkpt lat="42.40933541742782" lon="14.235327405239648"><ele>148.0</ele><time>2026-05-01T07:53:12.999Z</time></trkpt><trkpt lat="42.40928507105069" lon="14.235244650240425"><ele>148.0</ele><time>2026-05-01T07:53:13.999Z</time></trkpt><trkpt lat="42.40922655594444" lon="14.23515337338203"><ele>148.0</ele><time>2026-05-01T07:53:14.999Z</time></trkpt><trkpt lat="42.40913685685757" lon="14.235093195622058"><ele>148.0</ele><time>2026-05-01T07:53:16.999Z</time></trkpt><trkpt lat="42.409041292528585" lon="14.235038375534968"><ele>148.0</ele><time>2026-05-01T07:53:18.999Z</time></trkpt><trkpt lat="42.40901521359338" lon="14.234932453109025"><ele>148.0</ele><time>2026-05-01T07:53:19.999Z</time></trkpt><trkpt lat="42.40901453430189" lon="14.234775971533391"><ele>148.0</ele><time>2026-05-01T07:53:21.999Z</time></trkpt><trkpt lat="42.408979462653285" lon="14.234700345272255"><ele>149.6</ele><time>2026-05-01T07:53:23.999Z</time></trkpt><trkpt lat="42.408888211082704" lon="14.234628824446855"><ele>151.20000000000002</ele><time>2026-05-01T07:53:25.999Z</time></trkpt><trkpt lat="42.40883931421692" lon="14.234563139593375"><ele>152.8</ele><time>2026-05-01T07:53:26.999Z</time></trkpt><trkpt lat="42.408729017178445" lon="14.234489600658272"><ele>154.4</ele><time>2026-05-01T07:53:27.999Z</time></trkpt><trkpt lat="42.40862903023403" lon="14.23440509243698"><ele>156.0</ele><time>2026-05-01T07:53:28.999Z</time></trkpt><trkpt lat="42.4085389047508" lon="14.234277646525543"><ele>156.0</ele><time>2026-05-01T07:53:29.999Z</time></trkpt><trkpt lat="42.40845107569618" lon="14.234162435428988"><ele>156.0</ele><time>2026-05-01T07:53:30.999Z</time></trkpt><trkpt lat="42.408359643432874" lon="14.234062331777343"><ele>156.0</ele><time>2026-05-01T07:53:31.999Z</time></trkpt><trkpt lat="42.40830511120081" lon="14.23397248411025"><ele>156.0</ele><time>2026-05-01T07:53:32.999Z</time></trkpt><trkpt lat="42.40825233512284" lon="14.233860836152619"><ele>156.0</ele><time>2026-05-01T07:53:33.999Z</time></trkpt><trkpt lat="42.408203151057805" lon="14.233737603386558"><ele>154.5</ele><time>2026-05-01T07:53:34.999Z</time></trkpt><trkpt lat="42.408157223167315" lon="14.233549575095822"><ele>153.0</ele><time>2026-05-01T07:53:35.999Z</time></trkpt><trkpt lat="42.40809819505701" lon="14.233370875357767"><ele>151.5</ele><time>2026-05-01T07:53:36.999Z</time></trkpt><trkpt lat="42.40805917287801" lon="14.233225771369973"><ele>150.0</ele><time>2026-05-01T07:53:37.999Z</time></trkpt><trkpt lat="42.408006371108954" lon="14.233093809164654"><ele>153.25</ele><time>2026-05-01T07:53:38.999Z</time></trkpt><trkpt lat="42.40795871512841" lon="14.232978796486817"><ele>156.5</ele><time>2026-05-01T07:53:39.999Z</time></trkpt><trkpt lat="42.40788970840887" lon="14.232865207517131"><ele>159.75</ele><time>2026-05-01T07:53:40.999Z</time></trkpt><trkpt lat="42.40779515220663" lon="14.232731452939419"><ele>163.0</ele><time>2026-05-01T07:53:41.999Z</time></trkpt><trkpt lat="42.40770963721185" lon="14.232613509573262"><ele>163.0</ele><time>2026-05-01T07:53:42.999Z</time></trkpt><trkpt lat="42.40763399507339" lon="14.232507099670219"><ele>163.0</ele><time>2026-05-01T07:53:43.999Z</time></trkpt><trkpt lat="42.40755315761624" lon="14.232403659942788"><ele>163.0</ele><time>2026-05-01T07:53:44.998Z</time></trkpt><trkpt lat="42.407477352884975" lon="14.23228942425334"><ele>163.0</ele><time>2026-05-01T07:53:45.998Z</time></trkpt><trkpt lat="42.407402891248985" lon="14.232178408954763"><ele>163.0</ele><time>2026-05-01T07:53:46.998Z</time></trkpt><trkpt lat="42.407332386119954" lon="14.232073423267918"><ele>164.2</ele><time>2026-05-01T07:53:47.998Z</time></trkpt><trkpt lat="42.407265229070894" lon="14.231972249239808"><ele>165.4</ele><time>2026-05-01T07:53:48.998Z</time></trkpt><trkpt lat="42.40720943373238" lon="14.23186951010129"><ele>166.6</ele><time>2026-05-01T07:53:49.998Z</time></trkpt><trkpt lat="42.407150488173414" lon="14.23176051641547"><ele>167.79999999999998</ele><time>2026-05-01T07:53:50.998Z</time></trkpt><trkpt lat="42.40711564437728" lon="14.231670709892697"><ele>169.0</ele><time>2026-05-01T07:53:51.998Z</time></trkpt><trkpt lat="42.40709031350023" lon="14.231567150729214"><ele>168.5</ele><time>2026-05-01T07:53:52.998Z</time></trkpt><trkpt lat="42.40708592223121" lon="14.231459207235362"><ele>168.0</ele><time>2026-05-01T07:53:53.998Z</time></trkpt><trkpt lat="42.40706650434773" lon="14.231353207921819"><ele>167.5</ele><time>2026-05-01T07:53:54.998Z</time></trkpt><trkpt lat="42.40702240492058" lon="14.231250834794112"><ele>167.0</ele><time>2026-05-01T07:53:55.998Z</time></trkpt><trkpt lat="42.40696449241451" lon="14.231146199930354"><ele>166.5</ele><time>2026-05-01T07:53:56.998Z</time></trkpt><trkpt lat="42.4068919716731" lon="14.231049595501048"><ele>166.0</ele><time>2026-05-01T07:53:57.998Z</time></trkpt><trkpt lat="42.40682399016946" lon="14.230909046969018"><ele>166.0</ele><time>2026-05-01T07:53:58.998Z</time></trkpt><trkpt lat="42.40675948099956" lon="14.23083239831479"><ele>166.0</ele><time>2026-05-01T07:53:59.998Z</time></trkpt><trkpt lat="42.406681737563524" lon="14.230746386977739"><ele>166.0</ele><time>2026-05-01T07:54:00.998Z</time></trkpt><trkpt lat="42.40660470350384" lon="14.230662009498708"><ele>166.0</ele><time>2026-05-01T07:54:01.998Z</time></trkpt><trkpt lat="42.40651910869483" lon="14.230559622298873"><ele>166.0</ele><time>2026-05-01T07:54:02.998Z</time></trkpt><trkpt lat="42.40645127000668" lon="14.230469735432505"><ele>166.66666666666669</ele><time>2026-05-01T07:54:03.998Z</time></trkpt><trkpt lat="42.406386774673095" lon="14.23037525848549"><ele>167.33333333333334</ele><time>2026-05-01T07:54:04.998Z</time></trkpt><trkpt lat="42.406317292981726" lon="14.230272436762975"><ele>168.0</ele><time>2026-05-01T07:54:05.998Z</time></trkpt><trkpt lat="42.406236902750706" lon="14.230203735745416"><ele>168.66666666666666</ele><time>2026-05-01T07:54:06.998Z</time></trkpt><trkpt lat="42.406186815582366" lon="14.230126733816679"><ele>169.33333333333331</ele><time>2026-05-01T07:54:07.998Z</time></trkpt><trkpt lat="42.406143086256655" lon="14.230061157671162"><ele>170.0</ele><time>2026-05-01T07:54:08.998Z</time></trkpt><trkpt lat="42.40609366887925" lon="14.2299849700166"><ele>170.0</ele><time>2026-05-01T07:54:09.998Z</time></trkpt><trkpt lat="42.40602278279088" lon="14.229878641350588"><ele>170.0</ele><time>2026-05-01T07:54:11.998Z</time></trkpt><trkpt lat="42.40596873818221" lon="14.229794377334605"><ele>170.0</ele><time>2026-05-01T07:54:13.998Z</time></trkpt><trkpt lat="42.40589625836291" lon="14.22973861856436"><ele>170.0</ele><time>2026-05-01T07:54:15.998Z</time></trkpt><trkpt lat="42.40581766820366" lon="14.229717266474912"><ele>170.0</ele><time>2026-05-01T07:54:18Z</time></trkpt><trkpt lat="42.405735131167745" lon="14.229661732490118"><ele>170.0</ele><time>2026-05-01T07:54:39Z</time></trkpt><trkpt lat="42.405658718159565" lon="14.22962605583279"><ele>170.6</ele><time>2026-05-01T07:54:41Z</time></trkpt><trkpt lat="42.40553041160164" lon="14.229595807204934"><ele>171.2</ele><time>2026-05-01T07:54:43Z</time></trkpt><trkpt lat="42.405469600039865" lon="14.229537782427125"><ele>171.8</ele><time>2026-05-01T07:54:44Z</time></trkpt><trkpt lat="42.40543011437965" lon="14.229452526559827"><ele>172.4</ele><time>2026-05-01T07:54:45Z</time></trkpt><trkpt lat="42.4053830087491" lon="14.229356618984218"><ele>173.0</ele><time>2026-05-01T07:54:46Z</time></trkpt><trkpt lat="42.405313895087744" lon="14.229253804871488"><ele>173.0</ele><time>2026-05-01T07:54:47Z</time></trkpt><trkpt lat="42.40527184322141" lon="14.229139211869024"><ele>173.0</ele><time>2026-05-01T07:54:48Z</time></trkpt><trkpt lat="42.40522278630014" lon="14.229022923023248"><ele>173.0</ele><time>2026-05-01T07:54:49Z</time></trkpt><trkpt lat="42.40515486575026" lon="14.228870107583166"><ele>173.0</ele><time>2026-05-01T07:54:50Z</time></trkpt><trkpt lat="42.40508557244229" lon="14.228747838815458"><ele>173.0</ele><time>2026-05-01T07:54:51Z</time></trkpt><trkpt lat="42.40503781174176" lon="14.22866953446083"><ele>170.25</ele><time>2026-05-01T07:54:52Z</time></trkpt><trkpt lat="42.40500258907837" lon="14.228543886337802"><ele>167.5</ele><time>2026-05-01T07:54:53Z</time></trkpt><trkpt lat="42.40490291118329" lon="14.22849334030428"><ele>164.75</ele><time>2026-05-01T07:54:55Z</time></trkpt><trkpt lat="42.40483470864654" lon="14.228374329757656"><ele>162.0</ele><time>2026-05-01T07:54:57Z</time></trkpt><trkpt lat="42.4048108341359" lon="14.228181437443178"><ele>164.0</ele><time>2026-05-01T07:54:58.999Z</time></trkpt><trkpt lat="42.40475548101961" lon="14.228022357787445"><ele>166.0</ele><time>2026-05-01T07:55:00.999Z</time></trkpt><trkpt lat="42.404731281916526" lon="14.227899998041554"><ele>168.0</ele><time>2026-05-01T07:55:01.999Z</time></trkpt><trkpt lat="42.40469513952916" lon="14.227805118667362"><ele>170.0</ele><time>2026-05-01T07:55:02.999Z</time></trkpt><trkpt lat="42.404670747720296" lon="14.227698018784583"><ele>172.0</ele><time>2026-05-01T07:55:03.999Z</time></trkpt><trkpt lat="42.40463551536926" lon="14.227577604554089"><ele>172.0</ele><time>2026-05-01T07:55:04.999Z</time></trkpt><trkpt lat="42.404581378596845" lon="14.2274904305649"><ele>172.0</ele><time>2026-05-01T07:55:05.999Z</time></trkpt><trkpt lat="42.40451585011892" lon="14.227433669563695"><ele>172.0</ele><time>2026-05-01T07:55:06.999Z</time></trkpt><trkpt lat="42.40448784389059" lon="14.227253718792916"><ele>172.0</ele><time>2026-05-01T07:55:07.999Z</time></trkpt><trkpt lat="42.40444009499025" lon="14.22712311644981"><ele>172.0</ele><time>2026-05-01T07:55:08.999Z</time></trkpt><trkpt lat="42.40440035800642" lon="14.227019809963215"><ele>169.0</ele><time>2026-05-01T07:55:09.999Z</time></trkpt><trkpt lat="42.4043646968096" lon="14.226942280257742"><ele>166.0</ele><time>2026-05-01T07:55:10.999Z</time></trkpt><trkpt lat="42.404334301400596" lon="14.226813907563798"><ele>163.0</ele><time>2026-05-01T07:55:12.999Z</time></trkpt><trkpt lat="42.40433502669348" lon="14.226633028230623"><ele>160.0</ele><time>2026-05-01T07:55:14.999Z</time></trkpt><trkpt lat="42.40431161031063" lon="14.226542989221079"><ele>157.0</ele><time>2026-05-01T07:55:15.999Z</time></trkpt><trkpt lat="42.40425103854304" lon="14.226429722925737"><ele>155.4</ele><time>2026-05-01T07:55:17.999Z</time></trkpt><trkpt lat="42.40417466429109" lon="14.22638087703832"><ele>153.79999999999998</ele><time>2026-05-01T07:55:19.999Z</time></trkpt><trkpt lat="42.404048206416526" lon="14.226320138273298"><ele>152.2</ele><time>2026-05-01T07:55:21.999Z</time></trkpt><trkpt lat="42.40397391508221" lon="14.226264097356895"><ele>150.6</ele><time>2026-05-01T07:55:22.999Z</time></trkpt><trkpt lat="42.403915615305884" lon="14.22618597106777"><ele>149.0</ele><time>2026-05-01T07:55:23.999Z</time></trkpt><trkpt lat="42.40386264635109" lon="14.226114423801665"><ele>152.66666666666666</ele><time>2026-05-01T07:55:24.999Z</time></trkpt><trkpt lat="42.40380179447358" lon="14.226025223774235"><ele>156.33333333333331</ele><time>2026-05-01T07:55:25.999Z</time></trkpt><trkpt lat="42.40374180980637" lon="14.22593582964373"><ele>160.0</ele><time>2026-05-01T07:55:26.999Z</time></trkpt><trkpt lat="42.403697298032824" lon="14.22584741289401"><ele>163.66666666666666</ele><time>2026-05-01T07:55:27.999Z</time></trkpt><trkpt lat="42.40366389733228" lon="14.225751290333836"><ele>167.33333333333334</ele><time>2026-05-01T07:55:28.999Z</time></trkpt><trkpt lat="42.4036250395966" lon="14.225642636325194"><ele>171.0</ele><time>2026-05-01T07:55:29.999Z</time></trkpt><trkpt lat="42.403582602902745" lon="14.22551752596948"><ele>171.0</ele><time>2026-05-01T07:55:30.999Z</time></trkpt><trkpt lat="42.40354083685239" lon="14.225374389830177"><ele>171.0</ele><time>2026-05-01T07:55:31.999Z</time></trkpt><trkpt lat="42.403514371028116" lon="14.22526268516823"><ele>171.0</ele><time>2026-05-01T07:55:32.999Z</time></trkpt><trkpt lat="42.4034948141728" lon="14.225025336967043"><ele>171.0</ele><time>2026-05-01T07:55:34.999Z</time></trkpt><trkpt lat="42.40349523570576" lon="14.224895169338525"><ele>169.33333333333334</ele><time>2026-05-01T07:55:35.999Z</time></trkpt><trkpt lat="42.403492074492505" lon="14.224792752014881"><ele>167.66666666666666</ele><time>2026-05-01T07:55:36.999Z</time></trkpt><trkpt lat="42.40346467848999" lon="14.224678373277888"><ele>166.0</ele><time>2026-05-01T07:55:37.999Z</time></trkpt><trkpt lat="42.40342338396612" lon="14.224592589509687"><ele>164.33333333333331</ele><time>2026-05-01T07:55:38.999Z</time></trkpt><trkpt lat="42.403357606914426" lon="14.224516760417238"><ele>162.66666666666666</ele><time>2026-05-01T07:55:39.999Z</time></trkpt><trkpt lat="42.40330813337409" lon="14.224448606270743"><ele>161.0</ele><time>2026-05-01T07:55:40.999Z</time></trkpt><trkpt lat="42.40327793151792" lon="14.224362226880576"><ele>161.0</ele><time>2026-05-01T07:55:41.999Z</time></trkpt><trkpt lat="42.40324459925581" lon="14.224255879317358"><ele>161.0</ele><time>2026-05-01T07:55:42.999Z</time></trkpt><trkpt lat="42.40318575558418" lon="14.224147387142429"><ele>161.0</ele><time>2026-05-01T07:55:43.999Z</time></trkpt><trkpt lat="42.403134480385525" lon="14.224047631152013"><ele>161.0</ele><time>2026-05-01T07:55:44.999Z</time></trkpt><trkpt lat="42.40305877421799" lon="14.22393440791769"><ele>161.0</ele><time>2026-05-01T07:55:46.999Z</time></trkpt><trkpt lat="42.40300142325965" lon="14.22389142765968"><ele>162.0</ele><time>2026-05-01T07:55:47.999Z</time></trkpt><trkpt lat="42.402939001424585" lon="14.223859566523643"><ele>163.0</ele><time>2026-05-01T07:55:48.999Z</time></trkpt><trkpt lat="42.402857140248706" lon="14.223834504267222"><ele>164.0</ele><time>2026-05-01T07:55:49.999Z</time></trkpt><trkpt lat="42.40277410158608" lon="14.223828509824333"><ele>165.0</ele><time>2026-05-01T07:55:50.999Z</time></trkpt><trkpt lat="42.4026524105961" lon="14.22381495218186"><ele>166.0</ele><time>2026-05-01T07:55:52.999Z</time></trkpt><trkpt lat="42.40260037135843" lon="14.223738604704174"><ele>167.0</ele><time>2026-05-01T07:55:53.999Z</time></trkpt><trkpt lat="42.40250659364174" lon="14.223652960789877"><ele>167.0</ele><time>2026-05-01T07:55:54.999Z</time></trkpt><trkpt lat="42.402411323784115" lon="14.22355996772765"><ele>167.0</ele><time>2026-05-01T07:55:55.999Z</time></trkpt><trkpt lat="42.402335097852536" lon="14.223485064409543"><ele>167.0</ele><time>2026-05-01T07:55:56.999Z</time></trkpt><trkpt lat="42.40227725016225" lon="14.223437625657418"><ele>167.0</ele><time>2026-05-01T07:55:57.999Z</time></trkpt><trkpt lat="42.40221078248813" lon="14.223403870159357"><ele>167.0</ele><time>2026-05-01T07:55:58.999Z</time></trkpt><trkpt lat="42.40208253436489" lon="14.223420018634235"><ele>170.5</ele><time>2026-05-01T07:56:00.999Z</time></trkpt><trkpt lat="42.40198944155335" lon="14.223483699124943"><ele>174.0</ele><time>2026-05-01T07:56:01.999Z</time></trkpt><trkpt lat="42.40186532267665" lon="14.223572092084419"><ele>177.5</ele><time>2026-05-01T07:56:02.998Z</time></trkpt><trkpt lat="42.401730423362864" lon="14.223653823502454"><ele>181.0</ele><time>2026-05-01T07:56:03.998Z</time></trkpt><trkpt lat="42.40162335649985" lon="14.223731631306004"><ele>181.0</ele><time>2026-05-01T07:56:04.998Z</time></trkpt><trkpt lat="42.4015120227271" lon="14.223785631774161"><ele>181.0</ele><time>2026-05-01T07:56:05.998Z</time></trkpt><trkpt lat="42.40141775347376" lon="14.22382994478392"><ele>181.0</ele><time>2026-05-01T07:56:06.998Z</time></trkpt><trkpt lat="42.401320570028105" lon="14.223881349890007"><ele>181.0</ele><time>2026-05-01T07:56:07.998Z</time></trkpt><trkpt lat="42.40121542047207" lon="14.22394269224365"><ele>181.0</ele><time>2026-05-01T07:56:08.998Z</time></trkpt><trkpt lat="42.40112597601942" lon="14.224010777858396"><ele>183.20000000000002</ele><time>2026-05-01T07:56:09.998Z</time></trkpt><trkpt lat="42.401026278941224" lon="14.224080460515372"><ele>185.4</ele><time>2026-05-01T07:56:10.998Z</time></trkpt><trkpt lat="42.40095785624193" lon="14.224135640030042"><ele>187.6</ele><time>2026-05-01T07:56:11.998Z</time></trkpt><trkpt lat="42.40089494966193" lon="14.224258421585352"><ele>189.8</ele><time>2026-05-01T07:56:13.998Z</time></trkpt><trkpt lat="42.40080508090259" lon="14.224292055819904"><ele>192.0</ele><time>2026-05-01T07:56:14.998Z</time></trkpt><trkpt lat="42.400744413312246" lon="14.224334385494362"><ele>192.0</ele><time>2026-05-01T07:56:15.998Z</time></trkpt><trkpt lat="42.40068708124619" lon="14.224386176638856"><ele>192.0</ele><time>2026-05-01T07:56:17.998Z</time></trkpt><trkpt lat="42.400624558343644" lon="14.22442231737243"><ele>192.0</ele><time>2026-05-01T07:56:26Z</time></trkpt><trkpt lat="42.40055659556556" lon="14.224387332810931"><ele>192.0</ele><time>2026-05-01T07:56:28Z</time></trkpt><trkpt lat="42.40050825226039" lon="14.22427922026322"><ele>192.0</ele><time>2026-05-01T07:56:29Z</time></trkpt><trkpt lat="42.40045032181359" lon="14.224127972417238"><ele>192.0</ele><time>2026-05-01T07:56:30Z</time></trkpt><trkpt lat="42.400348502855756" lon="14.22396721209207"><ele>192.5</ele><time>2026-05-01T07:56:31Z</time></trkpt><trkpt lat="42.400280631584444" lon="14.223829413943346"><ele>193.0</ele><time>2026-05-01T07:56:32Z</time></trkpt><trkpt lat="42.400186367987814" lon="14.223680076203948"><ele>193.5</ele><time>2026-05-01T07:56:33Z</time></trkpt><trkpt lat="42.400111326680566" lon="14.22355046826805"><ele>194.0</ele><time>2026-05-01T07:56:34Z</time></trkpt><trkpt lat="42.40002049157339" lon="14.223462109015323"><ele>194.0</ele><time>2026-05-01T07:56:35Z</time></trkpt><trkpt lat="42.39993132576255" lon="14.223346548304285"><ele>194.0</ele><time>2026-05-01T07:56:36Z</time></trkpt><trkpt lat="42.399833274618395" lon="14.223230905642462"><ele>194.0</ele><time>2026-05-01T07:56:37Z</time></trkpt><trkpt lat="42.3997276468524" lon="14.223101428967043"><ele>194.0</ele><time>2026-05-01T07:56:38Z</time></trkpt><trkpt lat="42.39959611120252" lon="14.222960826378714"><ele>194.0</ele><time>2026-05-01T07:56:39Z</time></trkpt><trkpt lat="42.39947876098088" lon="14.222820033367183"><ele>194.0</ele><time>2026-05-01T07:56:40Z</time></trkpt><trkpt lat="42.39936045285297" lon="14.222685329905"><ele>194.0</ele><time>2026-05-01T07:56:41Z</time></trkpt><trkpt lat="42.399234683034656" lon="14.222547973248918"><ele>194.0</ele><time>2026-05-01T07:56:42Z</time></trkpt><trkpt lat="42.39911831507258" lon="14.222405557794351"><ele>194.0</ele><time>2026-05-01T07:56:43Z</time></trkpt><trkpt lat="42.39899709828579" lon="14.222270508600833"><ele>194.0</ele><time>2026-05-01T07:56:44Z</time></trkpt><trkpt lat="42.398883771762144" lon="14.222148144183738"><ele>194.25</ele><time>2026-05-01T07:56:45Z</time></trkpt><trkpt lat="42.39877962304092" lon="14.222028726129114"><ele>194.5</ele><time>2026-05-01T07:56:46Z</time></trkpt><trkpt lat="42.39869974678176" lon="14.221889475801415"><ele>194.75</ele><time>2026-05-01T07:56:47Z</time></trkpt><trkpt lat="42.39861297711857" lon="14.221752052934036"><ele>195.0</ele><time>2026-05-01T07:56:48Z</time></trkpt><trkpt lat="42.39853426645173" lon="14.221607480454914"><ele>195.0</ele><time>2026-05-01T07:56:49Z</time></trkpt><trkpt lat="42.3984771082539" lon="14.221489437926449"><ele>195.0</ele><time>2026-05-01T07:56:50Z</time></trkpt><trkpt lat="42.39842153943081" lon="14.221372957147203"><ele>195.0</ele><time>2026-05-01T07:56:51Z</time></trkpt><trkpt lat="42.398327067163784" lon="14.221213385732725"><ele>195.0</ele><time>2026-05-01T07:56:52Z</time></trkpt><trkpt lat="42.39827260627776" lon="14.221102825159653"><ele>195.8</ele><time>2026-05-01T07:56:53Z</time></trkpt><trkpt lat="42.398233596803436" lon="14.220989808657752"><ele>196.6</ele><time>2026-05-01T07:56:54Z</time></trkpt><trkpt lat="42.398192138463294" lon="14.220905146653278"><ele>197.39999999999998</ele><time>2026-05-01T07:56:55Z</time></trkpt><trkpt lat="42.398130987324365" lon="14.220780269933124"><ele>198.2</ele><time>2026-05-01T07:56:57Z</time></trkpt><trkpt lat="42.397983194334046" lon="14.22088532428773"><ele>199.0</ele><time>2026-05-01T07:57:00Z</time></trkpt><trkpt lat="42.39790713733018" lon="14.220963134462648"><ele>199.0</ele><time>2026-05-01T07:57:01Z</time></trkpt><trkpt lat="42.39784762243474" lon="14.221041086669441"><ele>199.0</ele><time>2026-05-01T07:57:02Z</time></trkpt><trkpt lat="42.397779223854265" lon="14.221123988016023"><ele>199.0</ele><time>2026-05-01T07:57:03Z</time></trkpt><trkpt lat="42.3977077492467" lon="14.221206908660212"><ele>199.0</ele><time>2026-05-01T07:57:04Z</time></trkpt><trkpt lat="42.39763261888718" lon="14.22128968434963"><ele>199.0</ele><time>2026-05-01T07:57:05Z</time></trkpt><trkpt lat="42.397553913281804" lon="14.22137193391012"><ele>198.99999999999997</ele><time>2026-05-01T07:57:06Z</time></trkpt><trkpt lat="42.397479245551374" lon="14.221448237217146"><ele>199.0</ele><time>2026-05-01T07:57:07Z</time></trkpt><trkpt lat="42.397406178533075" lon="14.221521903106405"><ele>199.0</ele><time>2026-05-01T07:57:08Z</time></trkpt><trkpt lat="42.397337485529825" lon="14.221590828779853"><ele>199.0</ele><time>2026-05-01T07:57:09Z</time></trkpt><trkpt lat="42.397267562153516" lon="14.221675140906859"><ele>198.99999999999997</ele><time>2026-05-01T07:57:10Z</time></trkpt><trkpt lat="42.397199030863874" lon="14.221741891867978"><ele>199.0</ele><time>2026-05-01T07:57:10.999Z</time></trkpt><trkpt lat="42.3971447079498" lon="14.221801797033795"><ele>198.2</ele><time>2026-05-01T07:57:11.999Z</time></trkpt><trkpt lat="42.3971027019587" lon="14.221891774450974"><ele>197.39999999999998</ele><time>2026-05-01T07:57:12.999Z</time></trkpt><trkpt lat="42.397096790445914" lon="14.222076377387838"><ele>196.6</ele><time>2026-05-01T07:57:14.999Z</time></trkpt><trkpt lat="42.397123866711254" lon="14.222173190864062"><ele>195.8</ele><time>2026-05-01T07:57:15.999Z</time></trkpt><trkpt lat="42.39717257623899" lon="14.222279182638857"><ele>195.0</ele><time>2026-05-01T07:57:16.999Z</time></trkpt><trkpt lat="42.39722719776921" lon="14.222381238826936"><ele>194.6</ele><time>2026-05-01T07:57:17.999Z</time></trkpt><trkpt lat="42.397277311344766" lon="14.222485611414855"><ele>194.2</ele><time>2026-05-01T07:57:18.999Z</time></trkpt><trkpt lat="42.39732405545071" lon="14.222600136450609"><ele>193.8</ele><time>2026-05-01T07:57:19.999Z</time></trkpt><trkpt lat="42.39738086274713" lon="14.222692496841947"><ele>193.4</ele><time>2026-05-01T07:57:20.999Z</time></trkpt><trkpt lat="42.39744923214646" lon="14.22283781229167"><ele>193.0</ele><time>2026-05-01T07:57:22.999Z</time></trkpt><trkpt lat="42.39748793877083" lon="14.22291670634863"><ele>192.99999999999997</ele><time>2026-05-01T07:57:23.999Z</time></trkpt><trkpt lat="42.39754923550853" lon="14.223033765139474"><ele>193.0</ele><time>2026-05-01T07:57:24.999Z</time></trkpt><trkpt lat="42.39759910481566" lon="14.223128424167639"><ele>193.0</ele><time>2026-05-01T07:57:25.999Z</time></trkpt><trkpt lat="42.39764101602394" lon="14.223227752580149"><ele>193.0</ele><time>2026-05-01T07:57:26.999Z</time></trkpt><trkpt lat="42.39766910289175" lon="14.223312614186476"><ele>192.99999999999997</ele><time>2026-05-01T07:57:27.999Z</time></trkpt><trkpt lat="42.397696457039174" lon="14.223411219338958"><ele>193.0</ele><time>2026-05-01T07:57:29.999Z</time></trkpt><trkpt lat="42.39771368173782" lon="14.223512348455866"><ele>192.25</ele><time>2026-05-01T07:57:32.999Z</time></trkpt><trkpt lat="42.39775101948036" lon="14.223601300227982"><ele>191.5</ele><time>2026-05-01T07:57:34.999Z</time></trkpt><trkpt lat="42.39761462382709" lon="14.223847164836448"><ele>190.75</ele><time>2026-05-01T07:57:36.999Z</time></trkpt><trkpt lat="42.39756692162725" lon="14.223945396217362"><ele>190.0</ele><time>2026-05-01T07:57:37.999Z</time></trkpt><trkpt lat="42.397512369913265" lon="14.224038219234028"><ele>188.6</ele><time>2026-05-01T07:57:38.999Z</time></trkpt><trkpt lat="42.39744156547636" lon="14.224140405340062"><ele>187.2</ele><time>2026-05-01T07:57:39.999Z</time></trkpt><trkpt lat="42.3975864131816" lon="14.224254064610607"><ele>185.8</ele><time>2026-05-01T07:57:40.999Z</time></trkpt><trkpt lat="42.3975687329996" lon="14.224375241362509"><ele>184.4</ele><time>2026-05-01T07:57:41.999Z</time></trkpt><trkpt lat="42.39756386171348" lon="14.224481935162983"><ele>183.0</ele><time>2026-05-01T07:57:42.999Z</time></trkpt><trkpt lat="42.39753114525042" lon="14.224573186927278"><ele>183.0</ele><time>2026-05-01T07:57:43.999Z</time></trkpt><trkpt lat="42.397511239003066" lon="14.224654067202131"><ele>183.0</ele><time>2026-05-01T07:57:44.999Z</time></trkpt><trkpt lat="42.39749860382285" lon="14.224741260872696"><ele>183.0</ele><time>2026-05-01T07:57:45.999Z</time></trkpt><trkpt lat="42.39748375192834" lon="14.224824439285893"><ele>183.0</ele><time>2026-05-01T07:57:46.999Z</time></trkpt><trkpt lat="42.397477642555735" lon="14.224925996135912"><ele>183.0</ele><time>2026-05-01T07:57:47.999Z</time></trkpt><trkpt lat="42.39747242346276" lon="14.225013026920012"><ele>183.0</ele><time>2026-05-01T07:57:48.999Z</time></trkpt><trkpt lat="42.397480824460736" lon="14.225102866625583"><ele>183.0</ele><time>2026-05-01T07:57:49.999Z</time></trkpt><trkpt lat="42.39750353424293" lon="14.225280540332509"><ele>181.66666666666666</ele><time>2026-05-01T07:57:51.999Z</time></trkpt><trkpt lat="42.39752317749713" lon="14.225388976656896"><ele>180.33333333333334</ele><time>2026-05-01T07:57:52.999Z</time></trkpt><trkpt lat="42.39754811493132" lon="14.2254948417073"><ele>179.0</ele><time>2026-05-01T07:57:53.999Z</time></trkpt><trkpt lat="42.39756625666174" lon="14.225604936297183"><ele>177.66666666666669</ele><time>2026-05-01T07:57:54.999Z</time></trkpt><trkpt lat="42.39757630837711" lon="14.225701167528188"><ele>176.33333333333334</ele><time>2026-05-01T07:57:55.999Z</time></trkpt><trkpt lat="42.397585036409325" lon="14.225842344712582"><ele>175.0</ele><time>2026-05-01T07:57:57.999Z</time></trkpt><trkpt lat="42.3975606409266" lon="14.225939315375669"><ele>175.0</ele><time>2026-05-01T07:57:59.999Z</time></trkpt><trkpt lat="42.39746703575147" lon="14.225970860613474"><ele>175.0</ele><time>2026-05-01T07:58:01.999Z</time></trkpt><trkpt lat="42.39740739812264" lon="14.225908331082698"><ele>175.0</ele><time>2026-05-01T07:58:02.999Z</time></trkpt><trkpt lat="42.39736968904128" lon="14.225803182171283"><ele>175.0</ele><time>2026-05-01T07:58:04.999Z</time></trkpt><trkpt lat="42.39732545261627" lon="14.225711900387882"><ele>175.0</ele><time>2026-05-01T07:58:07.999Z</time></trkpt><trkpt lat="42.397264031656526" lon="14.225609581108088"><ele>175.0</ele><time>2026-05-01T07:58:10.999Z</time></trkpt><trkpt lat="42.397203908914015" lon="14.225515240579487"><ele>171.6</ele><time>2026-05-01T07:58:12.999Z</time></trkpt><trkpt lat="42.39713194016149" lon="14.22543115566028"><ele>168.2</ele><time>2026-05-01T07:58:14.999Z</time></trkpt><trkpt lat="42.39704699589706" lon="14.225362550708198"><ele>164.8</ele><time>2026-05-01T07:58:16.998Z</time></trkpt><trkpt lat="42.39697089659338" lon="14.225312792259778"><ele>161.4</ele><time>2026-05-01T07:58:18.998Z</time></trkpt><trkpt lat="42.39687738543459" lon="14.225289777721214"><ele>158.0</ele><time>2026-05-01T07:58:20.998Z</time></trkpt><trkpt lat="42.39677807317959" lon="14.225285919644962"><ele>158.0</ele><time>2026-05-01T07:58:22.998Z</time></trkpt><trkpt lat="42.39671340523305" lon="14.225294072101583"><ele>158.0</ele><time>2026-05-01T07:58:23.998Z</time></trkpt><trkpt lat="42.39659454590977" lon="14.225299882375007"><ele>158.0</ele><time>2026-05-01T07:58:25.998Z</time></trkpt><trkpt lat="42.39653208127261" lon="14.225311355718215"><ele>158.0</ele><time>2026-05-01T07:58:26.998Z</time></trkpt><trkpt lat="42.396426940869276" lon="14.225269191310243"><ele>158.0</ele><time>2026-05-01T07:58:29Z</time></trkpt><trkpt lat="42.3963455036026" lon="14.225232058824561"><ele>158.0</ele><time>2026-05-01T07:58:30Z</time></trkpt><trkpt lat="42.39626590881671" lon="14.225191653881296"><ele>154.42857142857144</ele><time>2026-05-01T07:58:31Z</time></trkpt><trkpt lat="42.39619432587233" lon="14.225163220968602"><ele>150.85714285714286</ele><time>2026-05-01T07:58:32Z</time></trkpt><trkpt lat="42.39612603638735" lon="14.225135859635419"><ele>147.28571428571428</ele><time>2026-05-01T07:58:33Z</time></trkpt><trkpt lat="42.3960666877297" lon="14.225103428868922"><ele>143.71428571428572</ele><time>2026-05-01T07:58:34Z</time></trkpt><trkpt lat="42.39599344934351" lon="14.225071732143043"><ele>140.14285714285714</ele><time>2026-05-01T07:58:35Z</time></trkpt><trkpt lat="42.39591833841109" lon="14.225026827579086"><ele>136.57142857142858</ele><time>2026-05-01T07:58:36Z</time></trkpt><trkpt lat="42.39584325103194" lon="14.225011253303427"><ele>133.0</ele><time>2026-05-01T07:58:37Z</time></trkpt><trkpt lat="42.39572780532976" lon="14.224949874776925"><ele>133.0</ele><time>2026-05-01T07:58:39Z</time></trkpt><trkpt lat="42.39565196966547" lon="14.224906098666153"><ele>133.0</ele><time>2026-05-01T07:58:40Z</time></trkpt><trkpt lat="42.395535901508026" lon="14.224850442644469"><ele>133.0</ele><time>2026-05-01T07:58:42Z</time></trkpt><trkpt lat="42.39542281454396" lon="14.224787566575209"><ele>133.0</ele><time>2026-05-01T07:58:44Z</time></trkpt><trkpt lat="42.39536194205668" lon="14.224758770073118"><ele>133.0</ele><time>2026-05-01T07:58:45Z</time></trkpt><trkpt lat="42.39525367247256" lon="14.224722497887269"><ele>130.5</ele><time>2026-05-01T07:58:47Z</time></trkpt><trkpt lat="42.395179607024275" lon="14.22470414955074"><ele>128.0</ele><time>2026-05-01T07:58:48Z</time></trkpt><trkpt lat="42.39511378180554" lon="14.224692529316673"><ele>125.5</ele><time>2026-05-01T07:58:49Z</time></trkpt><trkpt lat="42.395044669694876" lon="14.224687471393452"><ele>123.0</ele><time>2026-05-01T07:58:50Z</time></trkpt><trkpt lat="42.39492697782034" lon="14.224684609385394"><ele>120.50000000000001</ele><time>2026-05-01T07:58:52Z</time></trkpt><trkpt lat="42.39483898476387" lon="14.224676460219351"><ele>118.0</ele><time>2026-05-01T07:58:53Z</time></trkpt><trkpt lat="42.394736763529366" lon="14.224642967608782"><ele>114.60000000000001</ele><time>2026-05-01T07:58:54Z</time></trkpt><trkpt lat="42.39464380590334" lon="14.224612283785312"><ele>111.20000000000002</ele><time>2026-05-01T07:58:55Z</time></trkpt><trkpt lat="42.39457217990996" lon="14.22457124199003"><ele>107.8</ele><time>2026-05-01T07:58:56Z</time></trkpt><trkpt lat="42.39451360899066" lon="14.224533129317559"><ele>104.4</ele><time>2026-05-01T07:58:57Z</time></trkpt><trkpt lat="42.39440897689307" lon="14.224444253617815"><ele>101.0</ele><time>2026-05-01T07:58:59Z</time></trkpt><trkpt lat="42.394345000176735" lon="14.224355633867965"><ele>101.0</ele><time>2026-05-01T07:59:01Z</time></trkpt><trkpt lat="42.39427929519108" lon="14.224262038662925"><ele>101.0</ele><time>2026-05-01T07:59:04Z</time></trkpt><trkpt lat="42.394234299800544" lon="14.22417880363582"><ele>101.0</ele><time>2026-05-01T07:59:06Z</time></trkpt><trkpt lat="42.39416421880116" lon="14.224068246163593"><ele>101.0</ele><time>2026-05-01T07:59:08Z</time></trkpt><trkpt lat="42.39408419640856" lon="14.22397290107625"><ele>101.0</ele><time>2026-05-01T07:59:10Z</time></trkpt><trkpt lat="42.39401194339675" lon="14.223891398043582"><ele>101.33333333333333</ele><time>2026-05-01T07:59:12Z</time></trkpt><trkpt lat="42.39396420545577" lon="14.223835633361583"><ele>101.66666666666666</ele><time>2026-05-01T07:59:14Z</time></trkpt><trkpt lat="42.393900976455065" lon="14.223828647915143"><ele>102.0</ele><time>2026-05-01T07:59:17Z</time></trkpt><trkpt lat="42.39383963080068" lon="14.223880657170394"><ele>102.33333333333334</ele><time>2026-05-01T07:59:19Z</time></trkpt><trkpt lat="42.39372449675032" lon="14.22391356686057"><ele>102.66666666666667</ele><time>2026-05-01T07:59:20.999Z</time></trkpt><trkpt lat="42.39365368939301" lon="14.223922140417764"><ele>103.0</ele><time>2026-05-01T07:59:21.999Z</time></trkpt><trkpt lat="42.39359038644008" lon="14.223934506238596"><ele>103.0</ele><time>2026-05-01T07:59:22.999Z</time></trkpt><trkpt lat="42.39352453025821" lon="14.223907714295844"><ele>103.0</ele><time>2026-05-01T07:59:23.999Z</time></trkpt><trkpt lat="42.39354263434481" lon="14.224011564970251"><ele>103.0</ele><time>2026-05-01T07:59:30.999Z</time></trkpt><trkpt lat="42.393616816903005" lon="14.22414256981129"><ele>103.0</ele><time>2026-05-01T07:59:33.999Z</time></trkpt><trkpt lat="42.393673804793316" lon="14.224322338801853"><ele>103.0</ele><time>2026-05-01T07:59:35.999Z</time></trkpt><trkpt lat="42.393701754905074" lon="14.224421912630323"><ele>104.0</ele><time>2026-05-01T07:59:36.999Z</time></trkpt><trkpt lat="42.39372625120901" lon="14.224544368134701"><ele>105.0</ele><time>2026-05-01T07:59:37.999Z</time></trkpt><trkpt lat="42.39375200073182" lon="14.224698334178429"><ele>106.0</ele><time>2026-05-01T07:59:38.999Z</time></trkpt><trkpt lat="42.39379171274555" lon="14.224827268597906"><ele>107.0</ele><time>2026-05-01T07:59:39.999Z</time></trkpt><trkpt lat="42.393834535249674" lon="14.225012508767009"><ele>103.66666666666666</ele><time>2026-05-01T07:59:40.999Z</time></trkpt><trkpt lat="42.39388976171094" lon="14.225196624046951"><ele>100.33333333333334</ele><time>2026-05-01T07:59:41.999Z</time></trkpt><trkpt lat="42.39392847123199" lon="14.225403202734224"><ele>97.0</ele><time>2026-05-01T07:59:42.999Z</time></trkpt><trkpt lat="42.394005458877885" lon="14.225596990397623"><ele>96.33333333333334</ele><time>2026-05-01T07:59:43.999Z</time></trkpt><trkpt lat="42.39406944298578" lon="14.22580200830317"><ele>95.66666666666667</ele><time>2026-05-01T07:59:44.999Z</time></trkpt><trkpt lat="42.39411465871372" lon="14.226009750262335"><ele>95.0</ele><time>2026-05-01T07:59:45.999Z</time></trkpt><trkpt lat="42.39418977659308" lon="14.226188630729794"><ele>95.0</ele><time>2026-05-01T07:59:46.999Z</time></trkpt><trkpt lat="42.39424976883966" lon="14.226363973273433"><ele>95.0</ele><time>2026-05-01T07:59:47.999Z</time></trkpt><trkpt lat="42.394296595862215" lon="14.226526151345825"><ele>95.0</ele><time>2026-05-01T07:59:48.999Z</time></trkpt><trkpt lat="42.3943344745419" lon="14.226690747280708"><ele>95.0</ele><time>2026-05-01T07:59:49.999Z</time></trkpt><trkpt lat="42.39440695625694" lon="14.22682128134798"><ele>95.5</ele><time>2026-05-01T07:59:50.999Z</time></trkpt><trkpt lat="42.394458497117164" lon="14.226980775549213"><ele>96.0</ele><time>2026-05-01T07:59:51.999Z</time></trkpt><trkpt lat="42.39450237244025" lon="14.227142616848473"><ele>96.5</ele><time>2026-05-01T07:59:52.999Z</time></trkpt><trkpt lat="42.39455962541407" lon="14.227309060967329"><ele>97.0</ele><time>2026-05-01T07:59:53.999Z</time></trkpt><trkpt lat="42.3945961018345" lon="14.227490998283995"><ele>97.25</ele><time>2026-05-01T07:59:54.999Z</time></trkpt><trkpt lat="42.3946485273456" lon="14.227652360171998"><ele>97.5</ele><time>2026-05-01T07:59:55.999Z</time></trkpt><trkpt lat="42.39469453181482" lon="14.227811503882547"><ele>97.75</ele><time>2026-05-01T07:59:56.999Z</time></trkpt><trkpt lat="42.3947482087064" lon="14.227975258027557"><ele>98.0</ele><time>2026-05-01T07:59:57.999Z</time></trkpt><trkpt lat="42.39479040855472" lon="14.228140052997645"><ele>96.0</ele><time>2026-05-01T07:59:58.999Z</time></trkpt><trkpt lat="42.3948431777938" lon="14.228294023602587"><ele>94.0</ele><time>2026-05-01T07:59:59.999Z</time></trkpt><trkpt lat="42.39490584277012" lon="14.228450543904495"><ele>92.0</ele><time>2026-05-01T08:00:00.999Z</time></trkpt><trkpt lat="42.39498044605024" lon="14.228626222078807"><ele>90.0</ele><time>2026-05-01T08:00:01.999Z</time></trkpt><trkpt lat="42.395035828971636" lon="14.228789197368219"><ele>90.0</ele><time>2026-05-01T08:00:02.999Z</time></trkpt><trkpt lat="42.395100559865654" lon="14.22894394828101"><ele>90.0</ele><time>2026-05-01T08:00:03.999Z</time></trkpt><trkpt lat="42.395155580633414" lon="14.229096826106586"><ele>90.0</ele><time>2026-05-01T08:00:04.999Z</time></trkpt><trkpt lat="42.395217939065894" lon="14.229256421946326"><ele>90.0</ele><time>2026-05-01T08:00:05.999Z</time></trkpt><trkpt lat="42.39527815323282" lon="14.229412941144666"><ele>91.0</ele><time>2026-05-01T08:00:06.999Z</time></trkpt><trkpt lat="42.395327580819355" lon="14.229574619528362"><ele>92.0</ele><time>2026-05-01T08:00:07.999Z</time></trkpt><trkpt lat="42.395388584626424" lon="14.229742132951129"><ele>93.0</ele><time>2026-05-01T08:00:08.999Z</time></trkpt><trkpt lat="42.3954486046804" lon="14.229920577401883"><ele>94.0</ele><time>2026-05-01T08:00:09.999Z</time></trkpt><trkpt lat="42.39550455828816" lon="14.230092994731468"><ele>91.25</ele><time>2026-05-01T08:00:10.999Z</time></trkpt><trkpt lat="42.395567818131774" lon="14.230268979373244"><ele>88.5</ele><time>2026-05-01T08:00:11.999Z</time></trkpt><trkpt lat="42.3956258916096" lon="14.230440023721734"><ele>85.75</ele><time>2026-05-01T08:00:12.999Z</time></trkpt><trkpt lat="42.39567622200254" lon="14.230615815555666"><ele>83.0</ele><time>2026-05-01T08:00:13.999Z</time></trkpt><trkpt lat="42.39573092846259" lon="14.230778061876466"><ele>82.75</ele><time>2026-05-01T08:00:14.999Z</time></trkpt><trkpt lat="42.395790112732215" lon="14.230944680811168"><ele>82.5</ele><time>2026-05-01T08:00:15.999Z</time></trkpt><trkpt lat="42.395848224967274" lon="14.231119238965686"><ele>82.25</ele><time>2026-05-01T08:00:16.999Z</time></trkpt><trkpt lat="42.395895527487085" lon="14.231298781920104"><ele>82.0</ele><time>2026-05-01T08:00:17.999Z</time></trkpt><trkpt lat="42.39595836912178" lon="14.23147524485194"><ele>82.0</ele><time>2026-05-01T08:00:18.999Z</time></trkpt><trkpt lat="42.39601592611845" lon="14.231647412838322"><ele>82.0</ele><time>2026-05-01T08:00:19.999Z</time></trkpt><trkpt lat="42.39607695804296" lon="14.231826410050369"><ele>82.0</ele><time>2026-05-01T08:00:20.999Z</time></trkpt><trkpt lat="42.39613220223335" lon="14.232002776993479"><ele>82.0</ele><time>2026-05-01T08:00:21.999Z</time></trkpt><trkpt lat="42.39618275989624" lon="14.23216877857315"><ele>82.25</ele><time>2026-05-01T08:00:22.999Z</time></trkpt><trkpt lat="42.3962010676493" lon="14.232324711146308"><ele>82.5</ele><time>2026-05-01T08:00:23.999Z</time></trkpt><trkpt lat="42.396224518407315" lon="14.232484005447791"><ele>82.75</ele><time>2026-05-01T08:00:24.999Z</time></trkpt><trkpt lat="42.39622893588918" lon="14.232645861089695"><ele>83.0</ele><time>2026-05-01T08:00:25.998Z</time></trkpt><trkpt lat="42.39622053648553" lon="14.232853026065328"><ele>83.0</ele><time>2026-05-01T08:00:26.998Z</time></trkpt><trkpt lat="42.396201263724926" lon="14.23307251190734"><ele>83.0</ele><time>2026-05-01T08:00:27.998Z</time></trkpt><trkpt lat="42.39619155106122" lon="14.233263168160422"><ele>83.0</ele><time>2026-05-01T08:00:28.998Z</time></trkpt><trkpt lat="42.39618176210265" lon="14.233444006375935"><ele>83.0</ele><time>2026-05-01T08:00:29.998Z</time></trkpt><trkpt lat="42.396173712096584" lon="14.233599322880073"><ele>82.4</ele><time>2026-05-01T08:00:30.998Z</time></trkpt><trkpt lat="42.396166688518065" lon="14.233744892594364"><ele>81.80000000000001</ele><time>2026-05-01T08:00:31.998Z</time></trkpt><trkpt lat="42.3961574393808" lon="14.233878798654406"><ele>81.2</ele><time>2026-05-01T08:00:32.998Z</time></trkpt><trkpt lat="42.39614388791921" lon="14.234011857611089"><ele>80.6</ele><time>2026-05-01T08:00:33.998Z</time></trkpt><trkpt lat="42.39612864855103" lon="14.234136086925387"><ele>80.0</ele><time>2026-05-01T08:00:35Z</time></trkpt><trkpt lat="42.39612138580009" lon="14.234238788856343"><ele>80.0</ele><time>2026-05-01T08:00:36Z</time></trkpt><trkpt lat="42.39612165138093" lon="14.23432781036976"><ele>80.0</ele><time>2026-05-01T08:00:37Z</time></trkpt><trkpt lat="42.39612982274017" lon="14.234422869260452"><ele>80.0</ele><time>2026-05-01T08:00:38Z</time></trkpt><trkpt lat="42.39614808510968" lon="14.234504972834015"><ele>80.0</ele><time>2026-05-01T08:00:40Z</time></trkpt><trkpt lat="42.39616988890204" lon="14.234598155150097"><ele>80.0</ele><time>2026-05-01T08:00:43Z</time></trkpt><trkpt lat="42.39620450915813" lon="14.234692348940191"><ele>80.0</ele><time>2026-05-01T08:01:31.999Z</time></trkpt><trkpt lat="42.39623751082664" lon="14.234776480941672"><ele>80.0</ele><time>2026-05-01T08:01:52.999Z</time></trkpt><trkpt lat="42.3962762669852" lon="14.23488899685843"><ele>79.66666666666667</ele><time>2026-05-01T08:01:55.999Z</time></trkpt><trkpt lat="42.39630526078942" lon="14.234993162110781"><ele>79.33333333333334</ele><time>2026-05-01T08:01:57.999Z</time></trkpt><trkpt lat="42.39633015623854" lon="14.235097878143138"><ele>79.0</ele><time>2026-05-01T08:02:00.999Z</time></trkpt><trkpt lat="42.39634937529375" lon="14.235189730906832"><ele>78.66666666666667</ele><time>2026-05-01T08:02:02.999Z</time></trkpt><trkpt lat="42.396374212448855" lon="14.235304283786318"><ele>78.33333333333333</ele><time>2026-05-01T08:02:04.999Z</time></trkpt><trkpt lat="42.39638671387298" lon="14.235423731775118"><ele>78.0</ele><time>2026-05-01T08:02:06.999Z</time></trkpt><trkpt lat="42.396381610257755" lon="14.235530213663248"><ele>77.4</ele><time>2026-05-01T08:02:08.999Z</time></trkpt><trkpt lat="42.39636157393005" lon="14.235675655206995"><ele>76.8</ele><time>2026-05-01T08:02:10.999Z</time></trkpt><trkpt lat="42.39632959233868" lon="14.235826132282567"><ele>76.2</ele><time>2026-05-01T08:02:12.999Z</time></trkpt><trkpt lat="42.39630626926985" lon="14.235907508302835"><ele>75.6</ele><time>2026-05-01T08:02:13.999Z</time></trkpt><trkpt lat="42.3962780366668" lon="14.235986145975392"><ele>75.0</ele><time>2026-05-01T08:02:14.999Z</time></trkpt><trkpt lat="42.39622546412528" lon="14.236104603183334"><ele>75.0</ele><time>2026-05-01T08:02:15.999Z</time></trkpt><trkpt lat="42.39618981184466" lon="14.236261413689693"><ele>75.0</ele><time>2026-05-01T08:02:16.999Z</time></trkpt><trkpt lat="42.39615929485667" lon="14.236475739713073"><ele>75.0</ele><time>2026-05-01T08:02:17.999Z</time></trkpt><trkpt lat="42.396143917329034" lon="14.23669869742272"><ele>75.0</ele><time>2026-05-01T08:02:18.999Z</time></trkpt><trkpt lat="42.39614328732396" lon="14.2369717298475"><ele>73.0</ele><time>2026-05-01T08:02:19.999Z</time></trkpt><trkpt lat="42.39618079268738" lon="14.23741714902569"><ele>71.0</ele><time>2026-05-01T08:02:20.999Z</time></trkpt><trkpt lat="42.39622237324852" lon="14.237614046179075"><ele>74.0</ele><time>2026-05-01T08:02:21.999Z</time></trkpt><trkpt lat="42.396019427085506" lon="14.237000216179782"><ele>74.0</ele><time>2026-05-01T08:02:22.999Z</time></trkpt><trkpt lat="42.39609130106283" lon="14.237102608850595"><ele>74.0</ele><time>2026-05-01T08:02:23.999Z</time></trkpt><trkpt lat="42.39609510446188" lon="14.237221935025707"><ele>74.0</ele><time>2026-05-01T08:02:24.999Z</time></trkpt><trkpt lat="42.396105204992764" lon="14.23733163067178"><ele>74.0</ele><time>2026-05-01T08:02:25.999Z</time></trkpt><trkpt lat="42.39612720342827" lon="14.237444874624726"><ele>74.0</ele><time>2026-05-01T08:02:26.999Z</time></trkpt><trkpt lat="42.39617345026074" lon="14.237559095182506"><ele>73.4</ele><time>2026-05-01T08:02:27.999Z</time></trkpt><trkpt lat="42.39621565256103" lon="14.237678535912227"><ele>72.80000000000001</ele><time>2026-05-01T08:02:28.998Z</time></trkpt><trkpt lat="42.396234445042644" lon="14.237797910978006"><ele>72.19999999999999</ele><time>2026-05-01T08:02:29.998Z</time></trkpt><trkpt lat="42.396262140740845" lon="14.237915945662577"><ele>71.6</ele><time>2026-05-01T08:02:30.998Z</time></trkpt><trkpt lat="42.39628334319294" lon="14.238043173745828"><ele>71.0</ele><time>2026-05-01T08:02:31.998Z</time></trkpt><trkpt lat="42.39630181092768" lon="14.238155865003055"><ele>70.2</ele><time>2026-05-01T08:02:32.998Z</time></trkpt><trkpt lat="42.39633258613781" lon="14.238286633297493"><ele>69.39999999999999</ele><time>2026-05-01T08:02:33.998Z</time></trkpt><trkpt lat="42.396384813733285" lon="14.238463680685303"><ele>68.6</ele><time>2026-05-01T08:02:35.998Z</time></trkpt><trkpt lat="42.39640860297094" lon="14.238564640294518"><ele>67.8</ele><time>2026-05-01T08:02:36.998Z</time></trkpt><trkpt lat="42.396424571917024" lon="14.238655978464552"><ele>67.0</ele><time>2026-05-01T08:02:37.998Z</time></trkpt><trkpt lat="42.396441059460045" lon="14.238768401298175"><ele>66.8</ele><time>2026-05-01T08:02:38.998Z</time></trkpt><trkpt lat="42.39646037779666" lon="14.238878887865653"><ele>66.6</ele><time>2026-05-01T08:02:39.998Z</time></trkpt><trkpt lat="42.39645233340383" lon="14.238989634829318"><ele>66.39999999999999</ele><time>2026-05-01T08:02:41Z</time></trkpt><trkpt lat="42.396449183509034" lon="14.239131745326517"><ele>66.2</ele><time>2026-05-01T08:02:42Z</time></trkpt><trkpt lat="42.396439860285604" lon="14.239293384285677"><ele>66.0</ele><time>2026-05-01T08:02:43Z</time></trkpt><trkpt lat="42.396425447084596" lon="14.239450319441088"><ele>65.5</ele><time>2026-05-01T08:02:44Z</time></trkpt><trkpt lat="42.396417988435886" lon="14.239622360075806"><ele>65.0</ele><time>2026-05-01T08:02:45Z</time></trkpt><trkpt lat="42.39636342752601" lon="14.239797843009248"><ele>64.5</ele><time>2026-05-01T08:02:46Z</time></trkpt><trkpt lat="42.39632750571574" lon="14.23994987625528"><ele>64.0</ele><time>2026-05-01T08:02:47Z</time></trkpt><trkpt lat="42.396310505488934" lon="14.240047115063655"><ele>63.166666666666664</ele><time>2026-05-01T08:02:48Z</time></trkpt><trkpt lat="42.39629331182564" lon="14.240150565554535"><ele>62.33333333333333</ele><time>2026-05-01T08:02:49Z</time></trkpt><trkpt lat="42.3962756514344" lon="14.240266267848286"><ele>61.5</ele><time>2026-05-01T08:02:50Z</time></trkpt><trkpt lat="42.396258338362735" lon="14.240388624041687"><ele>60.66666666666667</ele><time>2026-05-01T08:02:51Z</time></trkpt><trkpt lat="42.39624201432997" lon="14.240503990384763"><ele>59.833333333333336</ele><time>2026-05-01T08:02:52Z</time></trkpt><trkpt lat="42.396225133596914" lon="14.24061548106297"><ele>59.0</ele><time>2026-05-01T08:02:53Z</time></trkpt><trkpt lat="42.39620520045017" lon="14.2407292628813"><ele>58.50000000000001</ele><time>2026-05-01T08:02:54Z</time></trkpt><trkpt lat="42.39618382353344" lon="14.240837394392608"><ele>58.0</ele><time>2026-05-01T08:02:55Z</time></trkpt><trkpt lat="42.3961630058251" lon="14.240931695255437"><ele>57.5</ele><time>2026-05-01T08:02:56Z</time></trkpt><trkpt lat="42.396139405830674" lon="14.241032486814657"><ele>57.0</ele><time>2026-05-01T08:02:57Z</time></trkpt><trkpt lat="42.39611893967029" lon="14.241136946438777"><ele>56.50000000000001</ele><time>2026-05-01T08:02:58Z</time></trkpt><trkpt lat="42.3960945441039" lon="14.241231260666089"><ele>56.0</ele><time>2026-05-01T08:02:59Z</time></trkpt><trkpt lat="42.39607128630228" lon="14.241319576299006"><ele>55.4</ele><time>2026-05-01T08:03:00Z</time></trkpt><trkpt lat="42.39603742889196" lon="14.24147948206722"><ele>54.8</ele><time>2026-05-01T08:03:02Z</time></trkpt><trkpt lat="42.39599143736794" lon="14.241663368163175"><ele>54.199999999999996</ele><time>2026-05-01T08:03:04Z</time></trkpt><trkpt lat="42.395941287163005" lon="14.241765976564405"><ele>53.599999999999994</ele><time>2026-05-01T08:03:05Z</time></trkpt><trkpt lat="42.395918201450094" lon="14.241876024209255"><ele>53.0</ele><time>2026-05-01T08:03:06Z</time></trkpt><trkpt lat="42.395864609955005" lon="14.241954547725289"><ele>53.00000000000001</ele><time>2026-05-01T08:03:07Z</time></trkpt><trkpt lat="42.39581607937122" lon="14.242048894090013"><ele>53.0</ele><time>2026-05-01T08:03:08Z</time></trkpt><trkpt lat="42.39577890115781" lon="14.24216559423488"><ele>53.0</ele><time>2026-05-01T08:03:09Z</time></trkpt><trkpt lat="42.39572519229434" lon="14.242215017943764"><ele>53.0</ele><time>2026-05-01T08:03:10Z</time></trkpt><trkpt lat="42.39568006772276" lon="14.24229738780189"><ele>53.00000000000001</ele><time>2026-05-01T08:03:11Z</time></trkpt><trkpt lat="42.39565757109647" lon="14.242421058057838"><ele>53.0</ele><time>2026-05-01T08:03:12Z</time></trkpt><trkpt lat="42.39566073600404" lon="14.242551640380409"><ele>52.25</ele><time>2026-05-01T08:03:13Z</time></trkpt><trkpt lat="42.39564729895107" lon="14.242724869168137"><ele>51.5</ele><time>2026-05-01T08:03:14Z</time></trkpt><trkpt lat="42.395649569050335" lon="14.242896117685277"><ele>50.75</ele><time>2026-05-01T08:03:15Z</time></trkpt><trkpt lat="42.395630133491544" lon="14.243058080851325"><ele>50.0</ele><time>2026-05-01T08:03:16Z</time></trkpt><trkpt lat="42.395630932984915" lon="14.243242151406413"><ele>50.0</ele><time>2026-05-01T08:03:17Z</time></trkpt><trkpt lat="42.395622681507405" lon="14.24341270850489"><ele>50.0</ele><time>2026-05-01T08:03:18Z</time></trkpt><trkpt lat="42.395627780644" lon="14.243570365696145"><ele>50.0</ele><time>2026-05-01T08:03:19Z</time></trkpt><trkpt lat="42.39562573262984" lon="14.243723777501046"><ele>50.0</ele><time>2026-05-01T08:03:20Z</time></trkpt><trkpt lat="42.395606907281554" lon="14.243895128198925"><ele>49.75</ele><time>2026-05-01T08:03:21Z</time></trkpt><trkpt lat="42.395602576671216" lon="14.244074945818832"><ele>49.5</ele><time>2026-05-01T08:03:22Z</time></trkpt><trkpt lat="42.39561354430217" lon="14.244242957051583"><ele>49.25</ele><time>2026-05-01T08:03:23Z</time></trkpt><trkpt lat="42.39561059204234" lon="14.244405890851167"><ele>49.0</ele><time>2026-05-01T08:03:24Z</time></trkpt><trkpt lat="42.39560960795904" lon="14.244550858140805"><ele>49.0</ele><time>2026-05-01T08:03:25Z</time></trkpt><trkpt lat="42.395595774885045" lon="14.244686279414678"><ele>49.0</ele><time>2026-05-01T08:03:26Z</time></trkpt><trkpt lat="42.395585750342164" lon="14.244806226795127"><ele>49.0</ele><time>2026-05-01T08:03:27Z</time></trkpt><trkpt lat="42.39557231489074" lon="14.24493278680923"><ele>49.0</ele><time>2026-05-01T08:03:28Z</time></trkpt><trkpt lat="42.395577631074275" lon="14.245040651705695"><ele>49.0</ele><time>2026-05-01T08:03:29Z</time></trkpt><trkpt lat="42.39559240484017" lon="14.245173520340911"><ele>48.800000000000004</ele><time>2026-05-01T08:03:30Z</time></trkpt><trkpt lat="42.39558774163371" lon="14.245321188905404"><ele>48.6</ele><time>2026-05-01T08:03:31Z</time></trkpt><trkpt lat="42.39558859177956" lon="14.245475581395695"><ele>48.4</ele><time>2026-05-01T08:03:32Z</time></trkpt><trkpt lat="42.39557376473143" lon="14.245637470605331"><ele>48.2</ele><time>2026-05-01T08:03:33Z</time></trkpt><trkpt lat="42.39557276620165" lon="14.245752020934656"><ele>48.0</ele><time>2026-05-01T08:03:33.999Z</time></trkpt><trkpt lat="42.39556631123753" lon="14.245844665800895"><ele>47.8</ele><time>2026-05-01T08:03:34.999Z</time></trkpt><trkpt lat="42.3955593371983" lon="14.246000721899401"><ele>47.599999999999994</ele><time>2026-05-01T08:03:35.999Z</time></trkpt><trkpt lat="42.39553057139834" lon="14.246133886885817"><ele>47.400000000000006</ele><time>2026-05-01T08:03:36.999Z</time></trkpt><trkpt lat="42.395477946967176" lon="14.246261733934672"><ele>47.2</ele><time>2026-05-01T08:03:37.999Z</time></trkpt><trkpt lat="42.395436572663506" lon="14.24639166167072"><ele>47.0</ele><time>2026-05-01T08:03:38.999Z</time></trkpt><trkpt lat="42.395398653068234" lon="14.246510740775989"><ele>47.0</ele><time>2026-05-01T08:03:39.999Z</time></trkpt><trkpt lat="42.39537285366495" lon="14.246643504462035"><ele>47.0</ele><time>2026-05-01T08:03:40.999Z</time></trkpt><trkpt lat="42.395337081776226" lon="14.246781716249039"><ele>47.0</ele><time>2026-05-01T08:03:41.999Z</time></trkpt><trkpt lat="42.3953042221097" lon="14.246927040957269"><ele>47.0</ele><time>2026-05-01T08:03:42.999Z</time></trkpt><trkpt lat="42.39527664666972" lon="14.247091815575148"><ele>47.0</ele><time>2026-05-01T08:03:43.999Z</time></trkpt><trkpt lat="42.395239227660234" lon="14.24727065413321"><ele>46.25</ele><time>2026-05-01T08:03:44.999Z</time></trkpt><trkpt lat="42.39521462490123" lon="14.24746042832348"><ele>45.5</ele><time>2026-05-01T08:03:45.999Z</time></trkpt><trkpt lat="42.39518686218276" lon="14.24763104209313"><ele>44.75</ele><time>2026-05-01T08:03:46.999Z</time></trkpt><trkpt lat="42.39517338818282" lon="14.247791347464101"><ele>44.0</ele><time>2026-05-01T08:03:47.999Z</time></trkpt><trkpt lat="42.395172381288155" lon="14.247934348995718"><ele>44.0</ele><time>2026-05-01T08:03:48.999Z</time></trkpt><trkpt lat="42.39517735294481" lon="14.248089212149718"><ele>44.0</ele><time>2026-05-01T08:03:49.999Z</time></trkpt><trkpt lat="42.39520503188228" lon="14.248261268007564"><ele>44.0</ele><time>2026-05-01T08:03:50.999Z</time></trkpt><trkpt lat="42.39520821906985" lon="14.248444636572449"><ele>44.0</ele><time>2026-05-01T08:03:51.999Z</time></trkpt><trkpt lat="42.39520228503666" lon="14.248633142911288"><ele>43.0</ele><time>2026-05-01T08:03:52.999Z</time></trkpt><trkpt lat="42.395175008370806" lon="14.248845710966405"><ele>42.0</ele><time>2026-05-01T08:03:53.999Z</time></trkpt><trkpt lat="42.395135456819034" lon="14.249094208227037"><ele>41.0</ele><time>2026-05-01T08:03:54.999Z</time></trkpt><trkpt lat="42.395097444672466" lon="14.2493113755543"><ele>41.0</ele><time>2026-05-01T08:03:55.999Z</time></trkpt><trkpt lat="42.39504033981938" lon="14.249542409737405"><ele>41.0</ele><time>2026-05-01T08:03:56.999Z</time></trkpt><trkpt lat="42.39496777120224" lon="14.249772424462249"><ele>41.0</ele><time>2026-05-01T08:03:57.999Z</time></trkpt><trkpt lat="42.394890263166225" lon="14.250022186220967"><ele>40.25</ele><time>2026-05-01T08:03:58.999Z</time></trkpt><trkpt lat="42.394842670713196" lon="14.250218318241"><ele>39.5</ele><time>2026-05-01T08:03:59.999Z</time></trkpt><trkpt lat="42.39477688332093" lon="14.25036682925907"><ele>38.75</ele><time>2026-05-01T08:04:00.999Z</time></trkpt><trkpt lat="42.39471944219854" lon="14.25054143404074"><ele>38.0</ele><time>2026-05-01T08:04:01.999Z</time></trkpt><trkpt lat="42.39466675064149" lon="14.250700688345788"><ele>39.5</ele><time>2026-05-01T08:04:02.999Z</time></trkpt><trkpt lat="42.39461642272458" lon="14.250847428945981"><ele>41.0</ele><time>2026-05-01T08:04:03.999Z</time></trkpt><trkpt lat="42.39456641091607" lon="14.250985580305407"><ele>42.5</ele><time>2026-05-01T08:04:04.999Z</time></trkpt><trkpt lat="42.394513767790706" lon="14.251135197566992"><ele>44.0</ele><time>2026-05-01T08:04:05.999Z</time></trkpt><trkpt lat="42.39447468059283" lon="14.251306414821572"><ele>44.0</ele><time>2026-05-01T08:04:06.999Z</time></trkpt><trkpt lat="42.39442987744836" lon="14.251447561873057"><ele>44.0</ele><time>2026-05-01T08:04:07.999Z</time></trkpt><trkpt lat="42.394382106775396" lon="14.251562202547198"><ele>44.0</ele><time>2026-05-01T08:04:08.999Z</time></trkpt><trkpt lat="42.394336263359605" lon="14.251712158063254"><ele>44.0</ele><time>2026-05-01T08:04:09.999Z</time></trkpt><trkpt lat="42.39429763908287" lon="14.2518495214893"><ele>44.0</ele><time>2026-05-01T08:04:10.999Z</time></trkpt><trkpt lat="42.394263490470465" lon="14.251970967382377"><ele>43.0</ele><time>2026-05-01T08:04:11.999Z</time></trkpt><trkpt lat="42.394244675211404" lon="14.252061664934505"><ele>42.0</ele><time>2026-05-01T08:04:12.999Z</time></trkpt><trkpt lat="42.39418490953335" lon="14.252224416617894"><ele>41.0</ele><time>2026-05-01T08:04:14.999Z</time></trkpt><trkpt lat="42.39414503612573" lon="14.252327492560198"><ele>40.0</ele><time>2026-05-01T08:04:15.999Z</time></trkpt><trkpt lat="42.39420268069569" lon="14.252498792097533"><ele>39.0</ele><time>2026-05-01T08:04:16.999Z</time></trkpt><trkpt lat="42.39419217208453" lon="14.252646419626616"><ele>38.4</ele><time>2026-05-01T08:04:17.999Z</time></trkpt><trkpt lat="42.39418697608396" lon="14.252744550704243"><ele>37.8</ele><time>2026-05-01T08:04:18.999Z</time></trkpt><trkpt lat="42.39414178301092" lon="14.252828899076098"><ele>37.2</ele><time>2026-05-01T08:04:20.999Z</time></trkpt><trkpt lat="42.39403489464047" lon="14.252802024817562"><ele>36.6</ele><time>2026-05-01T08:04:22.999Z</time></trkpt><trkpt lat="42.393950977827664" lon="14.25273246745265"><ele>36.0</ele><time>2026-05-01T08:04:23.999Z</time></trkpt><trkpt lat="42.39383965726196" lon="14.252619070670729"><ele>35.333333333333336</ele><time>2026-05-01T08:04:24.999Z</time></trkpt><trkpt lat="42.393703076042115" lon="14.252490186767607"><ele>34.66666666666667</ele><time>2026-05-01T08:04:25.999Z</time></trkpt><trkpt lat="42.393540920367066" lon="14.252357531283714"><ele>34.0</ele><time>2026-05-01T08:04:26.999Z</time></trkpt><trkpt lat="42.39337853967592" lon="14.252224060503787"><ele>34.66666666666667</ele><time>2026-05-01T08:04:27.999Z</time></trkpt><trkpt lat="42.393216782264034" lon="14.252089609836709"><ele>35.333333333333336</ele><time>2026-05-01T08:04:28.999Z</time></trkpt><trkpt lat="42.39307123405477" lon="14.251958246212356"><ele>36.0</ele><time>2026-05-01T08:04:29.999Z</time></trkpt><trkpt lat="42.39292190625775" lon="14.25182898118623"><ele>36.0</ele><time>2026-05-01T08:04:30.999Z</time></trkpt><trkpt lat="42.39277259458553" lon="14.251701453397489"><ele>36.0</ele><time>2026-05-01T08:04:31.999Z</time></trkpt><trkpt lat="42.39262163686664" lon="14.251573125712357"><ele>36.0</ele><time>2026-05-01T08:04:32.999Z</time></trkpt><trkpt lat="42.39246722322627" lon="14.251442649631084"><ele>35.666666666666664</ele><time>2026-05-01T08:04:33.999Z</time></trkpt><trkpt lat="42.392316021249584" lon="14.251307153740171"><ele>35.33333333333333</ele><time>2026-05-01T08:04:34.998Z</time></trkpt><trkpt lat="42.39216979847487" lon="14.251161385542604"><ele>35.0</ele><time>2026-05-01T08:04:35.998Z</time></trkpt><trkpt lat="42.39202610095668" lon="14.251064424246291"><ele>35.0</ele><time>2026-05-01T08:04:36.998Z</time></trkpt><trkpt lat="42.39189393139014" lon="14.250961948491831"><ele>35.0</ele><time>2026-05-01T08:04:37.998Z</time></trkpt><trkpt lat="42.3917811402715" lon="14.250873212096016"><ele>35.0</ele><time>2026-05-01T08:04:38.998Z</time></trkpt><trkpt lat="42.39168125964937" lon="14.250789471846156"><ele>35.0</ele><time>2026-05-01T08:04:39.998Z</time></trkpt><trkpt lat="42.39158827679329" lon="14.250699010296698"><ele>35.4</ele><time>2026-05-01T08:04:40.998Z</time></trkpt><trkpt lat="42.39150745836945" lon="14.250605464221719"><ele>35.8</ele><time>2026-05-01T08:04:41.998Z</time></trkpt><trkpt lat="42.391419955987146" lon="14.250513830449789"><ele>36.2</ele><time>2026-05-01T08:04:42.998Z</time></trkpt><trkpt lat="42.39132184705709" lon="14.250445381303317"><ele>36.6</ele><time>2026-05-01T08:04:43.998Z</time></trkpt><trkpt lat="42.391228741716226" lon="14.250365449402167"><ele>37.0</ele><time>2026-05-01T08:04:44.998Z</time></trkpt><trkpt lat="42.39113364706738" lon="14.250282142166984"><ele>37.0</ele><time>2026-05-01T08:04:45.998Z</time></trkpt><trkpt lat="42.39103451403039" lon="14.250202281185231"><ele>37.0</ele><time>2026-05-01T08:04:47Z</time></trkpt><trkpt lat="42.39093548567044" lon="14.250114545777802"><ele>37.0</ele><time>2026-05-01T08:04:48Z</time></trkpt><trkpt lat="42.390838328220454" lon="14.250026623108472"><ele>37.0</ele><time>2026-05-01T08:04:49Z</time></trkpt><trkpt lat="42.390736310833795" lon="14.249941634252824"><ele>37.0</ele><time>2026-05-01T08:04:50Z</time></trkpt><trkpt lat="42.39063720427887" lon="14.249861864379271"><ele>37.0</ele><time>2026-05-01T08:04:51Z</time></trkpt><trkpt lat="42.390531327857026" lon="14.249781190871095"><ele>37.0</ele><time>2026-05-01T08:04:52Z</time></trkpt><trkpt lat="42.39042337639176" lon="14.249708314044085"><ele>37.0</ele><time>2026-05-01T08:04:53Z</time></trkpt><trkpt lat="42.390309431181876" lon="14.249625608468762"><ele>37.75</ele><time>2026-05-01T08:04:54Z</time></trkpt><trkpt lat="42.39020846225715" lon="14.249538914746257"><ele>38.5</ele><time>2026-05-01T08:04:55Z</time></trkpt><trkpt lat="42.39009633644837" lon="14.249470827502757"><ele>39.25</ele><time>2026-05-01T08:04:56Z</time></trkpt><trkpt lat="42.38998113615521" lon="14.249407732375406"><ele>40.0</ele><time>2026-05-01T08:04:57Z</time></trkpt><trkpt lat="42.389869320165786" lon="14.249336202442002"><ele>40.0</ele><time>2026-05-01T08:04:58Z</time></trkpt><trkpt lat="42.38976539949402" lon="14.249272542000886"><ele>40.0</ele><time>2026-05-01T08:04:59Z</time></trkpt><trkpt lat="42.38965477355356" lon="14.249213231864754"><ele>40.0</ele><time>2026-05-01T08:05:00Z</time></trkpt><trkpt lat="42.38953019590099" lon="14.249142255511604"><ele>40.0</ele><time>2026-05-01T08:05:01Z</time></trkpt><trkpt lat="42.38940329712807" lon="14.249069606595471"><ele>40.25</ele><time>2026-05-01T08:05:02Z</time></trkpt><trkpt lat="42.38927682800058" lon="14.248991727040345"><ele>40.5</ele><time>2026-05-01T08:05:03Z</time></trkpt><trkpt lat="42.389143851656684" lon="14.248907153028263"><ele>40.75</ele><time>2026-05-01T08:05:04Z</time></trkpt><trkpt lat="42.389016009302026" lon="14.24879818863378"><ele>41.0</ele><time>2026-05-01T08:05:05Z</time></trkpt><trkpt lat="42.38888829551135" lon="14.24866769149161"><ele>40.0</ele><time>2026-05-01T08:05:06Z</time></trkpt><trkpt lat="42.388762399076604" lon="14.248527638048824"><ele>39.0</ele><time>2026-05-01T08:05:07Z</time></trkpt><trkpt lat="42.38866009755267" lon="14.248357026723443"><ele>38.0</ele><time>2026-05-01T08:05:08Z</time></trkpt><trkpt lat="42.38852430568704" lon="14.248217808327544"><ele>41.33333333333333</ele><time>2026-05-01T08:05:09Z</time></trkpt><trkpt lat="42.38840550654841" lon="14.248069654750594"><ele>44.666666666666664</ele><time>2026-05-01T08:05:10Z</time></trkpt><trkpt lat="42.38828350803487" lon="14.247903012233783"><ele>48.0</ele><time>2026-05-01T08:05:11Z</time></trkpt><trkpt lat="42.38814318231803" lon="14.247868032903726"><ele>48.0</ele><time>2026-05-01T08:05:12Z</time></trkpt><trkpt lat="42.38803763497486" lon="14.247719715416677"><ele>48.0</ele><time>2026-05-01T08:05:13Z</time></trkpt><trkpt lat="42.38791441347751" lon="14.247546561690315"><ele>48.0</ele><time>2026-05-01T08:05:14Z</time></trkpt><trkpt lat="42.387818959086054" lon="14.247443266875395"><ele>46.75</ele><time>2026-05-01T08:05:15Z</time></trkpt><trkpt lat="42.38773085064067" lon="14.247303699170088"><ele>45.5</ele><time>2026-05-01T08:05:16Z</time></trkpt><trkpt lat="42.387628899140815" lon="14.247160303539294"><ele>44.25</ele><time>2026-05-01T08:05:17Z</time></trkpt><trkpt lat="42.387530341576266" lon="14.247021162494347"><ele>43.0</ele><time>2026-05-01T08:05:18Z</time></trkpt><trkpt lat="42.387441967516224" lon="14.246890720668606"><ele>43.0</ele><time>2026-05-01T08:05:19Z</time></trkpt><trkpt lat="42.38736896632409" lon="14.24676989780198"><ele>43.0</ele><time>2026-05-01T08:05:20Z</time></trkpt><trkpt lat="42.38729056008269" lon="14.246656456268184"><ele>43.0</ele><time>2026-05-01T08:05:21Z</time></trkpt><trkpt lat="42.387219975923465" lon="14.246555443266148"><ele>43.0</ele><time>2026-05-01T08:05:22Z</time></trkpt><trkpt lat="42.38715662043842" lon="14.246465269490413"><ele>43.0</ele><time>2026-05-01T08:05:23Z</time></trkpt><trkpt lat="42.387098733069784" lon="14.246375214649813"><ele>42.8</ele><time>2026-05-01T08:05:24Z</time></trkpt><trkpt lat="42.387062994856336" lon="14.24625940122732"><ele>42.599999999999994</ele><time>2026-05-01T08:05:25Z</time></trkpt><trkpt lat="42.387057201626845" lon="14.246147923123083"><ele>42.400000000000006</ele><time>2026-05-01T08:05:26Z</time></trkpt><trkpt lat="42.38701007342366" lon="14.246038915938492"><ele>42.2</ele><time>2026-05-01T08:05:27Z</time></trkpt><trkpt lat="42.38693151666492" lon="14.245909589773225"><ele>42.0</ele><time>2026-05-01T08:05:28Z</time></trkpt><trkpt lat="42.38682483050371" lon="14.245747889909785"><ele>42.666666666666664</ele><time>2026-05-01T08:05:29Z</time></trkpt><trkpt lat="42.38672560668333" lon="14.245584680113586"><ele>43.33333333333333</ele><time>2026-05-01T08:05:29.999Z</time></trkpt><trkpt lat="42.386609987172974" lon="14.245445682227595"><ele>44.0</ele><time>2026-05-01T08:05:30.999Z</time></trkpt><trkpt lat="42.386492596727756" lon="14.245311140967523"><ele>44.0</ele><time>2026-05-01T08:05:31.999Z</time></trkpt><trkpt lat="42.38636990846302" lon="14.245180895713384"><ele>44.0</ele><time>2026-05-01T08:05:32.999Z</time></trkpt><trkpt lat="42.3862384927743" lon="14.245059412808475"><ele>44.0</ele><time>2026-05-01T08:05:33.999Z</time></trkpt><trkpt lat="42.38612061385211" lon="14.244936351390207"><ele>43.5</ele><time>2026-05-01T08:05:34.999Z</time></trkpt><trkpt lat="42.38599488415592" lon="14.2448230404962"><ele>43.0</ele><time>2026-05-01T08:05:35.999Z</time></trkpt><trkpt lat="42.38586074833655" lon="14.244718927851734"><ele>42.5</ele><time>2026-05-01T08:05:36.999Z</time></trkpt><trkpt lat="42.385745550452015" lon="14.244607372914531"><ele>42.0</ele><time>2026-05-01T08:05:37.999Z</time></trkpt><trkpt lat="42.385632411040625" lon="14.244501933925932"><ele>42.25</ele><time>2026-05-01T08:05:38.999Z</time></trkpt><trkpt lat="42.38551838024307" lon="14.244398459834802"><ele>42.5</ele><time>2026-05-01T08:05:39.999Z</time></trkpt><trkpt lat="42.385400718901394" lon="14.244299925845388"><ele>42.75</ele><time>2026-05-01T08:05:40.999Z</time></trkpt><trkpt lat="42.385283312509245" lon="14.244202789533507"><ele>43.0</ele><time>2026-05-01T08:05:41.999Z</time></trkpt><trkpt lat="42.38517377113884" lon="14.244100679418933"><ele>43.0</ele><time>2026-05-01T08:05:42.999Z</time></trkpt><trkpt lat="42.38506933528877" lon="14.243987602288891"><ele>43.0</ele><time>2026-05-01T08:05:43.999Z</time></trkpt><trkpt lat="42.38497447938861" lon="14.2438606168181"><ele>43.0</ele><time>2026-05-01T08:05:44.999Z</time></trkpt><trkpt lat="42.384909819306706" lon="14.243712490121975"><ele>43.0</ele><time>2026-05-01T08:05:45.999Z</time></trkpt><trkpt lat="42.38482542032414" lon="14.243592308308433"><ele>42.599999999999994</ele><time>2026-05-01T08:05:46.999Z</time></trkpt><trkpt lat="42.384758540585885" lon="14.24349809376851"><ele>42.199999999999996</ele><time>2026-05-01T08:05:47.999Z</time></trkpt><trkpt lat="42.384676950807545" lon="14.243424199638769"><ele>41.8</ele><time>2026-05-01T08:05:49.999Z</time></trkpt><trkpt lat="42.38458319305626" lon="14.243357103920232"><ele>41.4</ele><time>2026-05-01T08:05:51.999Z</time></trkpt><trkpt lat="42.38449913759273" lon="14.243317078354945"><ele>41.0</ele><time>2026-05-01T08:05:52.999Z</time></trkpt><trkpt lat="42.3843768383363" lon="14.243270525428148"><ele>41.0</ele><time>2026-05-01T08:05:53.999Z</time></trkpt><trkpt lat="42.38424997629664" lon="14.243214044816767"><ele>41.0</ele><time>2026-05-01T08:05:54.999Z</time></trkpt><trkpt lat="42.38412556676662" lon="14.243135936138641"><ele>41.0</ele><time>2026-05-01T08:05:55.999Z</time></trkpt><trkpt lat="42.383987402686635" lon="14.243016960526433"><ele>41.0</ele><time>2026-05-01T08:05:56.999Z</time></trkpt><trkpt lat="42.383852787398425" lon="14.242879235678485"><ele>41.666666666666664</ele><time>2026-05-01T08:05:57.999Z</time></trkpt><trkpt lat="42.383716692528495" lon="14.242752105118788"><ele>42.333333333333336</ele><time>2026-05-01T08:05:58.999Z</time></trkpt><trkpt lat="42.38359062239505" lon="14.242633994494064"><ele>43.0</ele><time>2026-05-01T08:05:59.999Z</time></trkpt><trkpt lat="42.38346779457528" lon="14.242517344691812"><ele>43.0</ele><time>2026-05-01T08:06:00.999Z</time></trkpt><trkpt lat="42.3833505721628" lon="14.242398750895049"><ele>43.0</ele><time>2026-05-01T08:06:01.999Z</time></trkpt><trkpt lat="42.38323152253337" lon="14.242280615266445"><ele>43.0</ele><time>2026-05-01T08:06:02.999Z</time></trkpt><trkpt lat="42.38312055207911" lon="14.242175074566164"><ele>43.0</ele><time>2026-05-01T08:06:03.999Z</time></trkpt><trkpt lat="42.383015326941305" lon="14.242080902869574"><ele>43.75</ele><time>2026-05-01T08:06:04.999Z</time></trkpt><trkpt lat="42.38291268070541" lon="14.241980939470823"><ele>44.5</ele><time>2026-05-01T08:06:05.999Z</time></trkpt><trkpt lat="42.38280966857866" lon="14.24187331672521"><ele>45.25</ele><time>2026-05-01T08:06:06.999Z</time></trkpt><trkpt lat="42.38270353784625" lon="14.241777224022462"><ele>46.0</ele><time>2026-05-01T08:06:07.999Z</time></trkpt><trkpt lat="42.38260564931936" lon="14.241689615757975"><ele>46.0</ele><time>2026-05-01T08:06:08.999Z</time></trkpt><trkpt lat="42.382499716477035" lon="14.241594650330534"><ele>46.0</ele><time>2026-05-01T08:06:09.999Z</time></trkpt><trkpt lat="42.38238361379971" lon="14.241477308314508"><ele>46.0</ele><time>2026-05-01T08:06:10.999Z</time></trkpt><trkpt lat="42.38227026345224" lon="14.241385479694024"><ele>46.0</ele><time>2026-05-01T08:06:11.999Z</time></trkpt><trkpt lat="42.38213278231564" lon="14.241286313296833"><ele>46.5</ele><time>2026-05-01T08:06:12.999Z</time></trkpt><trkpt lat="42.38204174318902" lon="14.241185272893727"><ele>47.0</ele><time>2026-05-01T08:06:13.999Z</time></trkpt><trkpt lat="42.38193276128185" lon="14.241074906539009"><ele>47.5</ele><time>2026-05-01T08:06:14.999Z</time></trkpt><trkpt lat="42.3818298444649" lon="14.240964629539144"><ele>48.0</ele><time>2026-05-01T08:06:15.999Z</time></trkpt><trkpt lat="42.381742250639164" lon="14.240830509575664"><ele>48.0</ele><time>2026-05-01T08:06:16.999Z</time></trkpt><trkpt lat="42.381628984905284" lon="14.24073141599346"><ele>48.0</ele><time>2026-05-01T08:06:17.999Z</time></trkpt><trkpt lat="42.38152523897384" lon="14.240643966901303"><ele>48.0</ele><time>2026-05-01T08:06:18.999Z</time></trkpt><trkpt lat="42.38142588291376" lon="14.2405604776354"><ele>48.0</ele><time>2026-05-01T08:06:19.999Z</time></trkpt><trkpt lat="42.38133664363501" lon="14.240485489616143"><ele>49.166666666666664</ele><time>2026-05-01T08:06:20.999Z</time></trkpt><trkpt lat="42.38125890063987" lon="14.240420161837703"><ele>50.33333333333333</ele><time>2026-05-01T08:06:21.999Z</time></trkpt><trkpt lat="42.381189298359175" lon="14.24036167619112"><ele>51.5</ele><time>2026-05-01T08:06:22.999Z</time></trkpt><trkpt lat="42.3811226265372" lon="14.240305651672836"><ele>52.666666666666664</ele><time>2026-05-01T08:06:23.999Z</time></trkpt><trkpt lat="42.381043041512484" lon="14.240264911036526"><ele>53.83333333333333</ele><time>2026-05-01T08:06:24.999Z</time></trkpt><trkpt lat="42.380968287797394" lon="14.240197769799227"><ele>55.0</ele><time>2026-05-01T08:06:25.999Z</time></trkpt><trkpt lat="42.38089013275379" lon="14.240121630605762"><ele>55.0</ele><time>2026-05-01T08:06:26.999Z</time></trkpt><trkpt lat="42.38081987009347" lon="14.240030540784316"><ele>55.0</ele><time>2026-05-01T08:06:27.999Z</time></trkpt><trkpt lat="42.38073627809079" lon="14.239946397709772"><ele>55.0</ele><time>2026-05-01T08:06:28.999Z</time></trkpt><trkpt lat="42.380650799830015" lon="14.23986448314981"><ele>55.0</ele><time>2026-05-01T08:06:29.999Z</time></trkpt><trkpt lat="42.38055783120224" lon="14.239802716452234"><ele>55.0</ele><time>2026-05-01T08:06:30.998Z</time></trkpt><trkpt lat="42.38047260829606" lon="14.239716165998257"><ele>55.33333333333333</ele><time>2026-05-01T08:06:31.998Z</time></trkpt><trkpt lat="42.380411899963" lon="14.23963585285145"><ele>55.666666666666664</ele><time>2026-05-01T08:06:32.998Z</time></trkpt><trkpt lat="42.38034355985135" lon="14.23953462390022"><ele>56.0</ele><time>2026-05-01T08:06:33.998Z</time></trkpt><trkpt lat="42.380284110833415" lon="14.239437022083912"><ele>56.33333333333333</ele><time>2026-05-01T08:06:34.998Z</time></trkpt><trkpt lat="42.38022964501049" lon="14.239363719722462"><ele>56.666666666666664</ele><time>2026-05-01T08:06:35.998Z</time></trkpt><trkpt lat="42.380194436775234" lon="14.239286436800759"><ele>57.0</ele><time>2026-05-01T08:06:36.998Z</time></trkpt><trkpt lat="42.38014647182169" lon="14.23921559250802"><ele>57.0</ele><time>2026-05-01T08:06:38.998Z</time></trkpt><trkpt lat="42.38009715603454" lon="14.239122242837952"><ele>57.0</ele><time>2026-05-01T08:06:47.998Z</time></trkpt><trkpt lat="42.380091798441484" lon="14.239022877088344"><ele>57.0</ele><time>2026-05-01T08:06:50.998Z</time></trkpt><trkpt lat="42.38008041604506" lon="14.238937445486258"><ele>57.0</ele><time>2026-05-01T08:06:57Z</time></trkpt><trkpt lat="42.38009225255186" lon="14.239046810830255"><ele>57.0</ele><time>2026-05-01T08:07:06Z</time></trkpt><trkpt lat="42.37994074249751" lon="14.239182250253675"><ele>57.0</ele><time>2026-05-01T08:07:08Z</time></trkpt><trkpt lat="42.37989538766242" lon="14.23926629138393"><ele>57.0</ele><time>2026-05-01T08:07:09Z</time></trkpt><trkpt lat="42.379836852599894" lon="14.239333328047053"><ele>57.0</ele><time>2026-05-01T08:07:10Z</time></trkpt><trkpt lat="42.37976939052899" lon="14.239392294694394"><ele>57.0</ele><time>2026-05-01T08:07:11Z</time></trkpt><trkpt lat="42.37969391113886" lon="14.23944195951176"><ele>57.0</ele><time>2026-05-01T08:07:12Z</time></trkpt><trkpt lat="42.37962663070186" lon="14.23948638591009"><ele>57.0</ele><time>2026-05-01T08:07:13Z</time></trkpt><trkpt lat="42.37956392667538" lon="14.23953920707341"><ele>56.2</ele><time>2026-05-01T08:07:14Z</time></trkpt><trkpt lat="42.37949266335265" lon="14.2395903095161"><ele>55.400000000000006</ele><time>2026-05-01T08:07:15Z</time></trkpt><trkpt lat="42.379410989759386" lon="14.239627298528795"><ele>54.599999999999994</ele><time>2026-05-01T08:07:16Z</time></trkpt><trkpt lat="42.379335394891896" lon="14.239649168017596"><ele>53.8</ele><time>2026-05-01T08:07:17Z</time></trkpt><trkpt lat="42.379247881436484" lon="14.239674764260016"><ele>53.0</ele><time>2026-05-01T08:07:18Z</time></trkpt><trkpt lat="42.379130942602934" lon="14.239725374643344"><ele>53.00000000000001</ele><time>2026-05-01T08:07:19Z</time></trkpt><trkpt lat="42.379032093940054" lon="14.239790897721655"><ele>53.0</ele><time>2026-05-01T08:07:20Z</time></trkpt><trkpt lat="42.37897609741118" lon="14.239876711875773"><ele>53.0</ele><time>2026-05-01T08:07:21Z</time></trkpt><trkpt lat="42.37893828006973" lon="14.239949237485815"><ele>53.0</ele><time>2026-05-01T08:07:22Z</time></trkpt><trkpt lat="42.3788904204846" lon="14.240028359688344"><ele>53.00000000000001</ele><time>2026-05-01T08:07:24Z</time></trkpt><trkpt lat="42.378841890047205" lon="14.240134514757186"><ele>53.0</ele><time>2026-05-01T08:07:28Z</time></trkpt><trkpt lat="42.37867578072406" lon="14.24004738578717"><ele>51.8</ele><time>2026-05-01T08:07:29Z</time></trkpt><trkpt lat="42.37859480478486" lon="14.240022837593669"><ele>50.599999999999994</ele><time>2026-05-01T08:07:30Z</time></trkpt><trkpt lat="42.3785021156174" lon="14.239999702338194"><ele>49.400000000000006</ele><time>2026-05-01T08:07:31Z</time></trkpt><trkpt lat="42.37840139234657" lon="14.23997683490898"><ele>48.2</ele><time>2026-05-01T08:07:32Z</time></trkpt><trkpt lat="42.3782780881822" lon="14.239939844161276"><ele>47.0</ele><time>2026-05-01T08:07:33Z</time></trkpt><trkpt lat="42.378217522517104" lon="14.239906442012888"><ele>47.0</ele><time>2026-05-01T08:07:35Z</time></trkpt><trkpt lat="42.37816294028661" lon="14.239856946279986"><ele>47.0</ele><time>2026-05-01T08:07:38.999Z</time></trkpt><trkpt lat="42.378084460381444" lon="14.239777182219493"><ele>47.0</ele><time>2026-05-01T08:07:40.999Z</time></trkpt><trkpt lat="42.37794014824922" lon="14.239694994121521"><ele>47.0</ele><time>2026-05-01T08:07:42.999Z</time></trkpt><trkpt lat="42.377826748199666" lon="14.239631604194544"><ele>47.0</ele><time>2026-05-01T08:07:43.999Z</time></trkpt><trkpt lat="42.37768049655956" lon="14.23952701592388"><ele>47.0</ele><time>2026-05-01T08:07:44.999Z</time></trkpt><trkpt lat="42.377540750996545" lon="14.239435431221265"><ele>47.0</ele><time>2026-05-01T08:07:45.999Z</time></trkpt><trkpt lat="42.37742665718526" lon="14.239339773401948"><ele>47.0</ele><time>2026-05-01T08:07:46.999Z</time></trkpt><trkpt lat="42.37730758910148" lon="14.239242025867396"><ele>47.0</ele><time>2026-05-01T08:07:47.999Z</time></trkpt><trkpt lat="42.377183654333635" lon="14.239139171607384"><ele>46.666666666666664</ele><time>2026-05-01T08:07:48.999Z</time></trkpt><trkpt lat="42.37704911110698" lon="14.239029267276486"><ele>46.333333333333336</ele><time>2026-05-01T08:07:49.999Z</time></trkpt><trkpt lat="42.37691151339855" lon="14.238909854800996"><ele>46.0</ele><time>2026-05-01T08:07:50.999Z</time></trkpt><trkpt lat="42.37676942710106" lon="14.238779093241119"><ele>46.25</ele><time>2026-05-01T08:07:51.999Z</time></trkpt><trkpt lat="42.376628321172554" lon="14.238656622004566"><ele>46.5</ele><time>2026-05-01T08:07:52.999Z</time></trkpt><trkpt lat="42.376500219708085" lon="14.238542466553296"><ele>46.75</ele><time>2026-05-01T08:07:53.999Z</time></trkpt><trkpt lat="42.376394700186225" lon="14.238461329212384"><ele>47.0</ele><time>2026-05-01T08:07:54.999Z</time></trkpt><trkpt lat="42.37633725570659" lon="14.238381536412241"><ele>47.0</ele><time>2026-05-01T08:07:55.999Z</time></trkpt><trkpt lat="42.376255883650884" lon="14.238299969877607"><ele>47.0</ele><time>2026-05-01T08:07:57.999Z</time></trkpt><trkpt lat="42.37620031613279" lon="14.238246845089321"><ele>47.0</ele><time>2026-05-01T08:07:59.999Z</time></trkpt><trkpt lat="42.37612789491904" lon="14.238204014411119"><ele>47.0</ele><time>2026-05-01T08:08:23.999Z</time></trkpt><trkpt lat="42.37605943571921" lon="14.23816366235372"><ele>47.0</ele><time>2026-05-01T08:08:24.999Z</time></trkpt><trkpt lat="42.37596891419264" lon="14.23811092743001"><ele>47.0</ele><time>2026-05-01T08:08:25.999Z</time></trkpt><trkpt lat="42.37587660104202" lon="14.238034335842022"><ele>47.400000000000006</ele><time>2026-05-01T08:08:26.999Z</time></trkpt><trkpt lat="42.375787892786136" lon="14.237940455279368"><ele>47.800000000000004</ele><time>2026-05-01T08:08:27.999Z</time></trkpt><trkpt lat="42.375686898320524" lon="14.237851961382963"><ele>48.2</ele><time>2026-05-01T08:08:28.999Z</time></trkpt><trkpt lat="42.375588115757616" lon="14.23777026382204"><ele>48.6</ele><time>2026-05-01T08:08:29.999Z</time></trkpt><trkpt lat="42.37550577177644" lon="14.237698865207856"><ele>49.0</ele><time>2026-05-01T08:08:30.999Z</time></trkpt><trkpt lat="42.375415469312756" lon="14.237626260714924"><ele>49.0</ele><time>2026-05-01T08:08:31.999Z</time></trkpt><trkpt lat="42.37531597729341" lon="14.23750880868544"><ele>49.0</ele><time>2026-05-01T08:08:32.999Z</time></trkpt><trkpt lat="42.3751994961336" lon="14.237417356540492"><ele>49.0</ele><time>2026-05-01T08:08:33.999Z</time></trkpt><trkpt lat="42.37508058539295" lon="14.237332040452495"><ele>49.0</ele><time>2026-05-01T08:08:34.999Z</time></trkpt><trkpt lat="42.374948205219496" lon="14.237240065256763"><ele>50.666666666666664</ele><time>2026-05-01T08:08:35.999Z</time></trkpt><trkpt lat="42.37480974504567" lon="14.237144330996152"><ele>52.33333333333333</ele><time>2026-05-01T08:08:36.999Z</time></trkpt><trkpt lat="42.37466994461386" lon="14.23704944683839"><ele>54.0</ele><time>2026-05-01T08:08:37.999Z</time></trkpt><trkpt lat="42.37453674825419" lon="14.236955179863896"><ele>54.0</ele><time>2026-05-01T08:08:38.998Z</time></trkpt><trkpt lat="42.37440655002137" lon="14.236856767173839"><ele>54.0</ele><time>2026-05-01T08:08:39.998Z</time></trkpt><trkpt lat="42.37427192191666" lon="14.236753389869168"><ele>54.0</ele><time>2026-05-01T08:08:40.998Z</time></trkpt><trkpt lat="42.374135395723876" lon="14.236645718437023"><ele>54.0</ele><time>2026-05-01T08:08:41.998Z</time></trkpt><trkpt lat="42.37399817996241" lon="14.236538996627141"><ele>54.0</ele><time>2026-05-01T08:08:42.998Z</time></trkpt><trkpt lat="42.37385765843446" lon="14.236453412490988"><ele>54.0</ele><time>2026-05-01T08:08:43.998Z</time></trkpt><trkpt lat="42.37372864319875" lon="14.236335011445428"><ele>56.66666666666667</ele><time>2026-05-01T08:08:44.998Z</time></trkpt><trkpt lat="42.37359808437024" lon="14.236230439884157"><ele>59.333333333333336</ele><time>2026-05-01T08:08:45.998Z</time></trkpt><trkpt lat="42.373453956504065" lon="14.236139943676177"><ele>62.0</ele><time>2026-05-01T08:08:46.998Z</time></trkpt><trkpt lat="42.37331578566187" lon="14.23605526993276"><ele>62.0</ele><time>2026-05-01T08:08:47.998Z</time></trkpt><trkpt lat="42.37318552225162" lon="14.235963844533623"><ele>62.0</ele><time>2026-05-01T08:08:48.998Z</time></trkpt><trkpt lat="42.37307311291576" lon="14.235882756243333"><ele>62.0</ele><time>2026-05-01T08:08:49.998Z</time></trkpt><trkpt lat="42.37299746394909" lon="14.235820484695031"><ele>62.0</ele><time>2026-05-01T08:08:50.998Z</time></trkpt><trkpt lat="42.3729388169944" lon="14.235781525132118"><ele>62.0</ele><time>2026-05-01T08:08:51.998Z</time></trkpt><trkpt lat="42.372880975319376" lon="14.235743100517645"><ele>61.8</ele><time>2026-05-01T08:08:52.998Z</time></trkpt><trkpt lat="42.37276775777475" lon="14.235671877833955"><ele>61.6</ele><time>2026-05-01T08:08:54.998Z</time></trkpt><trkpt lat="42.37265233477859" lon="14.235600463153572"><ele>61.39999999999999</ele><time>2026-05-01T08:08:56.998Z</time></trkpt><trkpt lat="42.37258147875516" lon="14.23555252550581"><ele>61.199999999999996</ele><time>2026-05-01T08:08:57.998Z</time></trkpt><trkpt lat="42.372497307898406" lon="14.235492450970883"><ele>61.0</ele><time>2026-05-01T08:08:59Z</time></trkpt><trkpt lat="42.372413221399256" lon="14.235424751582245"><ele>61.0</ele><time>2026-05-01T08:09:00Z</time></trkpt><trkpt lat="42.37233304253182" lon="14.235337623054864"><ele>60.99999999999999</ele><time>2026-05-01T08:09:01Z</time></trkpt><trkpt lat="42.372276168496924" lon="14.235251828282866"><ele>60.99999999999999</ele><time>2026-05-01T08:09:02Z</time></trkpt><trkpt lat="42.37224747306248" lon="14.235102323791017"><ele>61.0</ele><time>2026-05-01T08:09:04Z</time></trkpt><trkpt lat="42.3723151249179" lon="14.23499939164946"><ele>61.0</ele><time>2026-05-01T08:09:06Z</time></trkpt><trkpt lat="42.372388598894794" lon="14.234978931671746"><ele>61.0</ele><time>2026-05-01T08:09:07Z</time></trkpt><trkpt lat="42.372466652873634" lon="14.234992233910898"><ele>60.99999999999999</ele><time>2026-05-01T08:09:08Z</time></trkpt><trkpt lat="42.37253575264378" lon="14.235016633121079"><ele>60.99999999999999</ele><time>2026-05-01T08:09:09Z</time></trkpt><trkpt lat="42.37261026919255" lon="14.235013520829039"><ele>61.0</ele><time>2026-05-01T08:09:11Z</time></trkpt><trkpt lat="42.37251169516444" lon="14.234815640936603"><ele>61.0</ele><time>2026-05-01T08:09:13Z</time></trkpt><trkpt lat="42.37238845537319" lon="14.234818866770624"><ele>61.0</ele><time>2026-05-01T08:09:14Z</time></trkpt><trkpt lat="42.37226327525915" lon="14.234816518492726"><ele>61.0</ele><time>2026-05-01T08:09:15Z</time></trkpt><trkpt lat="42.37209444342091" lon="14.234827452753875"><ele>61.0</ele><time>2026-05-01T08:09:16Z</time></trkpt><trkpt lat="42.3719416526828" lon="14.234816124771221"><ele>61.0</ele><time>2026-05-01T08:09:17Z</time></trkpt><trkpt lat="42.371804311085484" lon="14.234779977986797"><ele>59.33333333333333</ele><time>2026-05-01T08:09:18Z</time></trkpt><trkpt lat="42.371664608280575" lon="14.234707768041451"><ele>57.66666666666667</ele><time>2026-05-01T08:09:19Z</time></trkpt><trkpt lat="42.3715290128558" lon="14.234609282083605"><ele>56.0</ele><time>2026-05-01T08:09:20Z</time></trkpt><trkpt lat="42.37138500565688" lon="14.234464439997947"><ele>54.333333333333336</ele><time>2026-05-01T08:09:21Z</time></trkpt><trkpt lat="42.371250411257435" lon="14.2343272359301"><ele>52.66666666666667</ele><time>2026-05-01T08:09:22Z</time></trkpt><trkpt lat="42.37111039687998" lon="14.234221700867442"><ele>51.0</ele><time>2026-05-01T08:09:23Z</time></trkpt><trkpt lat="42.370970040309025" lon="14.234158792752531"><ele>51.0</ele><time>2026-05-01T08:09:24Z</time></trkpt><trkpt lat="42.37082710811777" lon="14.234136297206"><ele>51.0</ele><time>2026-05-01T08:09:25Z</time></trkpt><trkpt lat="42.370675383515184" lon="14.234150073834057"><ele>51.0</ele><time>2026-05-01T08:09:26Z</time></trkpt><trkpt lat="42.37052493307881" lon="14.234160983415512"><ele>51.0</ele><time>2026-05-01T08:09:27Z</time></trkpt><trkpt lat="42.37037984746235" lon="14.234181671556177"><ele>49.333333333333336</ele><time>2026-05-01T08:09:28Z</time></trkpt><trkpt lat="42.37022772055017" lon="14.23420171199111"><ele>47.66666666666667</ele><time>2026-05-01T08:09:29Z</time></trkpt><trkpt lat="42.3700729277143" lon="14.234221342874967"><ele>46.0</ele><time>2026-05-01T08:09:30Z</time></trkpt><trkpt lat="42.36992048875748" lon="14.234239903846573"><ele>46.0</ele><time>2026-05-01T08:09:31Z</time></trkpt><trkpt lat="42.369774103598424" lon="14.234260424711056"><ele>46.0</ele><time>2026-05-01T08:09:32Z</time></trkpt><trkpt lat="42.36962196850517" lon="14.234283134059956"><ele>46.0</ele><time>2026-05-01T08:09:33Z</time></trkpt><trkpt lat="42.36946656605072" lon="14.23430535148614"><ele>47.0</ele><time>2026-05-01T08:09:34Z</time></trkpt><trkpt lat="42.36931588345844" lon="14.234326822060726"><ele>48.0</ele><time>2026-05-01T08:09:35Z</time></trkpt><trkpt lat="42.36916850802055" lon="14.234346972121882"><ele>49.0</ele><time>2026-05-01T08:09:36Z</time></trkpt><trkpt lat="42.36907724218181" lon="14.234359130835722"><ele>50.0</ele><time>2026-05-01T08:09:36.999Z</time></trkpt><trkpt lat="42.369014144001035" lon="14.234367537040384"><ele>50.0</ele><time>2026-05-01T08:09:37.999Z</time></trkpt><trkpt lat="42.36900849253537" lon="14.23454503753486"><ele>50.0</ele><time>2026-05-01T08:09:46.999Z</time></trkpt><trkpt lat="42.36912338181383" lon="14.234580815760962"><ele>50.0</ele><time>2026-05-01T08:09:47.999Z</time></trkpt><trkpt lat="42.369241369459644" lon="14.234594511423376"><ele>50.0</ele><time>2026-05-01T08:09:48.999Z</time></trkpt><trkpt lat="42.36938785995547" lon="14.23461538600823"><ele>50.0</ele><time>2026-05-01T08:09:49.999Z</time></trkpt><trkpt lat="42.36953177381917" lon="14.234636939422902"><ele>50.0</ele><time>2026-05-01T08:09:50.999Z</time></trkpt><trkpt lat="42.36966603707872" lon="14.234658928987873"><ele>50.0</ele><time>2026-05-01T08:09:51.999Z</time></trkpt><trkpt lat="42.36977081576986" lon="14.234672839157492"><ele>50.0</ele><time>2026-05-01T08:09:52.999Z</time></trkpt><trkpt lat="42.36983755572238" lon="14.234665828016238"><ele>49.2</ele><time>2026-05-01T08:09:53.999Z</time></trkpt><trkpt lat="42.36992144110868" lon="14.234717733482702"><ele>48.4</ele><time>2026-05-01T08:09:55.999Z</time></trkpt><trkpt lat="42.369976120743715" lon="14.23488602525312"><ele>47.599999999999994</ele><time>2026-05-01T08:09:57.999Z</time></trkpt><trkpt lat="42.36995691042857" lon="14.235019318637677"><ele>46.8</ele><time>2026-05-01T08:09:58.999Z</time></trkpt><trkpt lat="42.369967340213115" lon="14.235167103500682"><ele>46.0</ele><time>2026-05-01T08:09:59.999Z</time></trkpt><trkpt lat="42.37001003896499" lon="14.235322266910131"><ele>45.0</ele><time>2026-05-01T08:10:00.999Z</time></trkpt><trkpt lat="42.370037228148746" lon="14.235498518736266"><ele>44.0</ele><time>2026-05-01T08:10:01.999Z</time></trkpt><trkpt lat="42.37006888877652" lon="14.235644778883286"><ele>43.0</ele><time>2026-05-01T08:10:02.999Z</time></trkpt><trkpt lat="42.370068262193676" lon="14.235758396128542"><ele>42.0</ele><time>2026-05-01T08:10:03.999Z</time></trkpt><trkpt lat="42.37005958300032" lon="14.235921066109857"><ele>42.0</ele><time>2026-05-01T08:10:05.999Z</time></trkpt><trkpt lat="42.37004726319754" lon="14.236030336124223"><ele>42.0</ele><time>2026-05-01T08:10:06.999Z</time></trkpt><trkpt lat="42.37002316903342" lon="14.236191644659124"><ele>42.0</ele><time>2026-05-01T08:10:07.999Z</time></trkpt><trkpt lat="42.36998345451323" lon="14.236376377447735"><ele>42.0</ele><time>2026-05-01T08:10:08.999Z</time></trkpt><trkpt lat="42.369943232997656" lon="14.23656116413994"><ele>42.2</ele><time>2026-05-01T08:10:09.999Z</time></trkpt><trkpt lat="42.36991656760719" lon="14.236717275334055"><ele>42.400000000000006</ele><time>2026-05-01T08:10:10.999Z</time></trkpt><trkpt lat="42.36992174986058" lon="14.236858662910375"><ele>42.599999999999994</ele><time>2026-05-01T08:10:11.999Z</time></trkpt><trkpt lat="42.36994633277999" lon="14.23701390495568"><ele>42.8</ele><time>2026-05-01T08:10:12.999Z</time></trkpt><trkpt lat="42.36998901930075" lon="14.237142014845283"><ele>43.0</ele><time>2026-05-01T08:10:13.999Z</time></trkpt><trkpt lat="42.370060077672" lon="14.237246713751524"><ele>42.66666666666667</ele><time>2026-05-01T08:10:14.999Z</time></trkpt><trkpt lat="42.37015734612151" lon="14.237342118097011"><ele>42.333333333333336</ele><time>2026-05-01T08:10:15.999Z</time></trkpt><trkpt lat="42.370299923673876" lon="14.237456118871489"><ele>42.0</ele><time>2026-05-01T08:10:16.999Z</time></trkpt><trkpt lat="42.37046914884832" lon="14.23757157865931"><ele>42.0</ele><time>2026-05-01T08:10:17.999Z</time></trkpt><trkpt lat="42.370602510162634" lon="14.237684646266304"><ele>42.0</ele><time>2026-05-01T08:10:18.999Z</time></trkpt><trkpt lat="42.37072026035309" lon="14.237807421070213"><ele>42.0</ele><time>2026-05-01T08:10:19.999Z</time></trkpt><trkpt lat="42.370833723750984" lon="14.237897314612153"><ele>42.0</ele><time>2026-05-01T08:10:20.999Z</time></trkpt><trkpt lat="42.370948884367365" lon="14.23798049695516"><ele>42.0</ele><time>2026-05-01T08:10:21.999Z</time></trkpt><trkpt lat="42.37105876174998" lon="14.238063488567505"><ele>42.0</ele><time>2026-05-01T08:10:22.999Z</time></trkpt><trkpt lat="42.371166336221" lon="14.238149365616293"><ele>42.0</ele><time>2026-05-01T08:10:23.999Z</time></trkpt><trkpt lat="42.37126766566236" lon="14.23824329833636"><ele>42.0</ele><time>2026-05-01T08:10:24.999Z</time></trkpt><trkpt lat="42.3713869697163" lon="14.238325484531876"><ele>42.25</ele><time>2026-05-01T08:10:25.999Z</time></trkpt><trkpt lat="42.37149308258925" lon="14.238416156061634"><ele>42.5</ele><time>2026-05-01T08:10:26.999Z</time></trkpt><trkpt lat="42.3715904801116" lon="14.238504328033958"><ele>42.75</ele><time>2026-05-01T08:10:27.999Z</time></trkpt><trkpt lat="42.371689446692436" lon="14.238620538309576"><ele>43.0</ele><time>2026-05-01T08:10:28.999Z</time></trkpt><trkpt lat="42.371777457398615" lon="14.2387545213569"><ele>43.0</ele><time>2026-05-01T08:10:29.999Z</time></trkpt><trkpt lat="42.3718788614049" lon="14.238891273382974"><ele>43.0</ele><time>2026-05-01T08:10:30.999Z</time></trkpt><trkpt lat="42.371974629430824" lon="14.239028285975738"><ele>43.0</ele><time>2026-05-01T08:10:31.999Z</time></trkpt><trkpt lat="42.37204906238828" lon="14.239159984902912"><ele>43.0</ele><time>2026-05-01T08:10:32.999Z</time></trkpt><trkpt lat="42.37211980450447" lon="14.239267025322153"><ele>42.66666666666667</ele><time>2026-05-01T08:10:33.999Z</time></trkpt><trkpt lat="42.37217061780345" lon="14.239347975215566"><ele>42.333333333333336</ele><time>2026-05-01T08:10:34.999Z</time></trkpt><trkpt lat="42.372227981915415" lon="14.239411268845677"><ele>42.0</ele><time>2026-05-01T08:10:35.999Z</time></trkpt><trkpt lat="42.37228453553997" lon="14.239469575188153"><ele>41.666666666666664</ele><time>2026-05-01T08:10:36.998Z</time></trkpt><trkpt lat="42.372337938944746" lon="14.239544536115439"><ele>41.33333333333333</ele><time>2026-05-01T08:10:37.998Z</time></trkpt><trkpt lat="42.37241918503104" lon="14.23963638278872"><ele>41.0</ele><time>2026-05-01T08:10:38.998Z</time></trkpt><trkpt lat="42.37249174028747" lon="14.239686359821373"><ele>41.0</ele><time>2026-05-01T08:10:39.998Z</time></trkpt><trkpt lat="42.37256288568011" lon="14.239762219908899"><ele>41.0</ele><time>2026-05-01T08:10:40.998Z</time></trkpt><trkpt lat="42.37261570579294" lon="14.23982090402912"><ele>41.0</ele><time>2026-05-01T08:10:41.998Z</time></trkpt><trkpt lat="42.37268324982053" lon="14.239881300157592"><ele>41.0</ele><time>2026-05-01T08:10:42.998Z</time></trkpt><trkpt lat="42.372759659080906" lon="14.239926394851977"><ele>41.0</ele><time>2026-05-01T08:10:43.998Z</time></trkpt><trkpt lat="42.372808319077194" lon="14.239987315410431"><ele>41.0</ele><time>2026-05-01T08:10:44.998Z</time></trkpt><trkpt lat="42.372924579796745" lon="14.240068163619616"><ele>41.166666666666664</ele><time>2026-05-01T08:10:46.998Z</time></trkpt><trkpt lat="42.37298780067024" lon="14.240124898499731"><ele>41.33333333333333</ele><time>2026-05-01T08:10:47.998Z</time></trkpt><trkpt lat="42.373058287988165" lon="14.240188154323755"><ele>41.5</ele><time>2026-05-01T08:10:48.998Z</time></trkpt><trkpt lat="42.37312699119254" lon="14.240256693053807"><ele>41.666666666666664</ele><time>2026-05-01T08:10:49.998Z</time></trkpt><trkpt lat="42.373209080342995" lon="14.240313244119253"><ele>41.833333333333336</ele><time>2026-05-01T08:10:50.998Z</time></trkpt><trkpt lat="42.37331016692003" lon="14.240361541053263"><ele>42.0</ele><time>2026-05-01T08:10:51.998Z</time></trkpt><trkpt lat="42.37340178963016" lon="14.240465150206312"><ele>43.0</ele><time>2026-05-01T08:10:52.998Z</time></trkpt><trkpt lat="42.373528821334666" lon="14.240579349429492"><ele>44.0</ele><time>2026-05-01T08:10:53.998Z</time></trkpt><trkpt lat="42.37366117419713" lon="14.240732809907513"><ele>45.0</ele><time>2026-05-01T08:10:54.998Z</time></trkpt><trkpt lat="42.37378084908164" lon="14.240874899114797"><ele>42.75</ele><time>2026-05-01T08:10:55.998Z</time></trkpt><trkpt lat="42.37387274400304" lon="14.240996924684959"><ele>40.5</ele><time>2026-05-01T08:10:56.998Z</time></trkpt><trkpt lat="42.3739688163719" lon="14.241106541919603"><ele>38.25</ele><time>2026-05-01T08:10:57.998Z</time></trkpt><trkpt lat="42.37409460161309" lon="14.241200242136834"><ele>36.0</ele><time>2026-05-01T08:10:58.998Z</time></trkpt><trkpt lat="42.37423139003539" lon="14.241284709022056"><ele>36.0</ele><time>2026-05-01T08:10:59.998Z</time></trkpt><trkpt lat="42.37439335146965" lon="14.241380987410544"><ele>36.0</ele><time>2026-05-01T08:11:00.998Z</time></trkpt><trkpt lat="42.37453088867102" lon="14.24150679672606"><ele>36.0</ele><time>2026-05-01T08:11:01.998Z</time></trkpt><trkpt lat="42.374661716624864" lon="14.241656728977176"><ele>35.333333333333336</ele><time>2026-05-01T08:11:02.998Z</time></trkpt><trkpt lat="42.37478731472395" lon="14.241809375575956"><ele>34.66666666666667</ele><time>2026-05-01T08:11:03.998Z</time></trkpt><trkpt lat="42.374902387655915" lon="14.241959537031732"><ele>34.0</ele><time>2026-05-01T08:11:05Z</time></trkpt><trkpt lat="42.374992734960735" lon="14.242076041823287"><ele>34.0</ele><time>2026-05-01T08:11:06Z</time></trkpt><trkpt lat="42.375064749275154" lon="14.242159393965606"><ele>34.0</ele><time>2026-05-01T08:11:07Z</time></trkpt><trkpt lat="42.3751186503253" lon="14.242245809726686"><ele>34.0</ele><time>2026-05-01T08:11:08Z</time></trkpt><trkpt lat="42.3751776247145" lon="14.242326811120426"><ele>34.0</ele><time>2026-05-01T08:11:09Z</time></trkpt><trkpt lat="42.375224895122436" lon="14.242417816467153"><ele>34.0</ele><time>2026-05-01T08:11:10Z</time></trkpt><trkpt lat="42.37525942737566" lon="14.242500001446588"><ele>34.0</ele><time>2026-05-01T08:11:11Z</time></trkpt><trkpt lat="42.375265036016124" lon="14.242590810894843"><ele>35.0</ele><time>2026-05-01T08:11:12Z</time></trkpt><trkpt lat="42.37522975531221" lon="14.242698716837479"><ele>36.0</ele><time>2026-05-01T08:11:13Z</time></trkpt><trkpt lat="42.37520596705586" lon="14.242822295436596"><ele>37.0</ele><time>2026-05-01T08:11:14Z</time></trkpt><trkpt lat="42.375181475969974" lon="14.242985132162378"><ele>38.0</ele><time>2026-05-01T08:11:15Z</time></trkpt><trkpt lat="42.37513126270054" lon="14.24314475313717"><ele>39.0</ele><time>2026-05-01T08:11:16Z</time></trkpt><trkpt lat="42.37506626696073" lon="14.243324552353725"><ele>40.5</ele><time>2026-05-01T08:11:17Z</time></trkpt><trkpt lat="42.3750171911026" lon="14.243509110380316"><ele>42.0</ele><time>2026-05-01T08:11:18Z</time></trkpt><trkpt lat="42.37495852365584" lon="14.243680877061799"><ele>43.5</ele><time>2026-05-01T08:11:19Z</time></trkpt><trkpt lat="42.37490127130322" lon="14.243850311360157"><ele>45.0</ele><time>2026-05-01T08:11:20Z</time></trkpt><trkpt lat="42.37484324824971" lon="14.244021465459914"><ele>46.5</ele><time>2026-05-01T08:11:21Z</time></trkpt><trkpt lat="42.3747808232687" lon="14.24418983141421"><ele>48.0</ele><time>2026-05-01T08:11:22Z</time></trkpt><trkpt lat="42.37472002431225" lon="14.244366621139477"><ele>49.5</ele><time>2026-05-01T08:11:23Z</time></trkpt><trkpt lat="42.374657919791446" lon="14.244549214952013"><ele>51.0</ele><time>2026-05-01T08:11:24Z</time></trkpt><trkpt lat="42.37460339923348" lon="14.244734378945665"><ele>56.33333333333333</ele><time>2026-05-01T08:11:25Z</time></trkpt><trkpt lat="42.37455590556414" lon="14.244937174409307"><ele>61.666666666666664</ele><time>2026-05-01T08:11:26Z</time></trkpt><trkpt lat="42.37450774066725" lon="14.245144780445015"><ele>67.0</ele><time>2026-05-01T08:11:27Z</time></trkpt><trkpt lat="42.37446285742591" lon="14.245371597789838"><ele>67.0</ele><time>2026-05-01T08:11:28Z</time></trkpt><trkpt lat="42.37442323885655" lon="14.245600553364534"><ele>67.0</ele><time>2026-05-01T08:11:29Z</time></trkpt><trkpt lat="42.37437456711869" lon="14.245824426079746"><ele>67.0</ele><time>2026-05-01T08:11:30Z</time></trkpt><trkpt lat="42.37432684586963" lon="14.24602184410355"><ele>68.5</ele><time>2026-05-01T08:11:31Z</time></trkpt><trkpt lat="42.37428391538176" lon="14.2461941880465"><ele>70.0</ele><time>2026-05-01T08:11:32Z</time></trkpt><trkpt lat="42.37420748638784" lon="14.246335199370776"><ele>71.5</ele><time>2026-05-01T08:11:33Z</time></trkpt><trkpt lat="42.37413131166877" lon="14.246478533221381"><ele>73.0</ele><time>2026-05-01T08:11:34Z</time></trkpt><trkpt lat="42.37405921382072" lon="14.246632479740365"><ele>73.4</ele><time>2026-05-01T08:11:35Z</time></trkpt><trkpt lat="42.37398953471295" lon="14.246755624420905"><ele>73.8</ele><time>2026-05-01T08:11:36Z</time></trkpt><trkpt lat="42.37395274851552" lon="14.246878445075895"><ele>74.2</ele><time>2026-05-01T08:11:37Z</time></trkpt><trkpt lat="42.37395751650664" lon="14.24700267336889"><ele>74.6</ele><time>2026-05-01T08:11:38Z</time></trkpt><trkpt lat="42.373990817886146" lon="14.247142920099414"><ele>75.0</ele><time>2026-05-01T08:11:39Z</time></trkpt><trkpt lat="42.37400204011048" lon="14.247281746890426"><ele>76.5</ele><time>2026-05-01T08:11:40Z</time></trkpt><trkpt lat="42.3739671002047" lon="14.247461134521469"><ele>78.0</ele><time>2026-05-01T08:11:41Z</time></trkpt><trkpt lat="42.37390437426975" lon="14.247642360498032"><ele>79.5</ele><time>2026-05-01T08:11:42Z</time></trkpt><trkpt lat="42.37386685914008" lon="14.247770134517113"><ele>81.0</ele><time>2026-05-01T08:11:43Z</time></trkpt><trkpt lat="42.37383905290334" lon="14.247865815472677"><ele>84.75</ele><time>2026-05-01T08:11:44Z</time></trkpt><trkpt lat="42.37381772699421" lon="14.247980663875534"><ele>88.5</ele><time>2026-05-01T08:11:45Z</time></trkpt><trkpt lat="42.37383932511497" lon="14.248121557297566"><ele>92.25</ele><time>2026-05-01T08:11:46Z</time></trkpt><trkpt lat="42.373838281816" lon="14.248294394291808"><ele>96.0</ele><time>2026-05-01T08:11:47Z</time></trkpt><trkpt lat="42.373840922041644" lon="14.248471876277605"><ele>97.25</ele><time>2026-05-01T08:11:47.999Z</time></trkpt><trkpt lat="42.373836741167906" lon="14.248639513563989"><ele>98.5</ele><time>2026-05-01T08:11:48.999Z</time></trkpt><trkpt lat="42.37382818868269" lon="14.24878929587457"><ele>99.75</ele><time>2026-05-01T08:11:49.999Z</time></trkpt><trkpt lat="42.37378993744956" lon="14.248928056715899"><ele>101.0</ele><time>2026-05-01T08:11:50.999Z</time></trkpt><trkpt lat="42.373771903061446" lon="14.249086315376937"><ele>102.5</ele><time>2026-05-01T08:11:51.999Z</time></trkpt><trkpt lat="42.37373301349879" lon="14.249242411182847"><ele>104.0</ele><time>2026-05-01T08:11:52.999Z</time></trkpt><trkpt lat="42.37369104396713" lon="14.249411115522566"><ele>105.5</ele><time>2026-05-01T08:11:53.999Z</time></trkpt><trkpt lat="42.37366275435296" lon="14.249584491462123"><ele>107.0</ele><time>2026-05-01T08:11:54.999Z</time></trkpt><trkpt lat="42.373632462667196" lon="14.249763407521778"><ele>107.75</ele><time>2026-05-01T08:11:55.999Z</time></trkpt><trkpt lat="42.37357807083502" lon="14.249926800004594"><ele>108.5</ele><time>2026-05-01T08:11:56.999Z</time></trkpt><trkpt lat="42.3735349953423" lon="14.25007494881086"><ele>109.25</ele><time>2026-05-01T08:11:57.999Z</time></trkpt><trkpt lat="42.373512951098064" lon="14.250195600104684"><ele>110.0</ele><time>2026-05-01T08:11:58.999Z</time></trkpt><trkpt lat="42.3735165952" lon="14.250354402214647"><ele>110.0</ele><time>2026-05-01T08:12:00.999Z</time></trkpt><trkpt lat="42.373571823672016" lon="14.250406721517606"><ele>110.0</ele><time>2026-05-01T08:12:01.999Z</time></trkpt><trkpt lat="42.3736596810681" lon="14.250455031680923"><ele>110.0</ele><time>2026-05-01T08:12:02.999Z</time></trkpt><trkpt lat="42.37376295791651" lon="14.250507247665976"><ele>110.0</ele><time>2026-05-01T08:12:03.999Z</time></trkpt><trkpt lat="42.3738492571671" lon="14.250593338330727"><ele>110.0</ele><time>2026-05-01T08:12:04.999Z</time></trkpt><trkpt lat="42.37393048264587" lon="14.250677202366363"><ele>110.0</ele><time>2026-05-01T08:12:05.999Z</time></trkpt><trkpt lat="42.373988685190014" lon="14.250791143079423"><ele>110.0</ele><time>2026-05-01T08:12:06.999Z</time></trkpt><trkpt lat="42.37403375301647" lon="14.25089945873905"><ele>110.0</ele><time>2026-05-01T08:12:07.999Z</time></trkpt><trkpt lat="42.37407392907031" lon="14.251002661529315"><ele>110.0</ele><time>2026-05-01T08:12:08.999Z</time></trkpt><trkpt lat="42.37409457736224" lon="14.251124225559627"><ele>110.0</ele><time>2026-05-01T08:12:09.999Z</time></trkpt><trkpt lat="42.37407906384483" lon="14.25126489688387"><ele>110.0</ele><time>2026-05-01T08:12:10.999Z</time></trkpt><trkpt lat="42.374061256408226" lon="14.251429979520687"><ele>110.0</ele><time>2026-05-01T08:12:11.999Z</time></trkpt><trkpt lat="42.3740262046809" lon="14.251613709774356"><ele>110.0</ele><time>2026-05-01T08:12:12.999Z</time></trkpt><trkpt lat="42.37398035668015" lon="14.251812299203968"><ele>110.0</ele><time>2026-05-01T08:12:13.999Z</time></trkpt><trkpt lat="42.37394153117841" lon="14.252015613351757"><ele>112.25</ele><time>2026-05-01T08:12:14.999Z</time></trkpt><trkpt lat="42.37390008389602" lon="14.252209276023606"><ele>114.5</ele><time>2026-05-01T08:12:15.999Z</time></trkpt><trkpt lat="42.37385648039038" lon="14.252394657526402"><ele>116.75</ele><time>2026-05-01T08:12:16.999Z</time></trkpt><trkpt lat="42.37380742938649" lon="14.252569783092975"><ele>119.0</ele><time>2026-05-01T08:12:17.999Z</time></trkpt><trkpt lat="42.373782849822234" lon="14.252739982957802"><ele>125.0</ele><time>2026-05-01T08:12:18.999Z</time></trkpt><trkpt lat="42.373776895579034" lon="14.252926371714413"><ele>131.0</ele><time>2026-05-01T08:12:19.999Z</time></trkpt><trkpt lat="42.37377572453779" lon="14.2531245241032"><ele>137.0</ele><time>2026-05-01T08:12:20.999Z</time></trkpt><trkpt lat="42.37378106368971" lon="14.25333934980201"><ele>143.0</ele><time>2026-05-01T08:12:21.999Z</time></trkpt><trkpt lat="42.373784767273925" lon="14.253547401563974"><ele>146.25</ele><time>2026-05-01T08:12:22.999Z</time></trkpt><trkpt lat="42.373803508263954" lon="14.253746674615021"><ele>149.5</ele><time>2026-05-01T08:12:23.999Z</time></trkpt><trkpt lat="42.37383013666895" lon="14.253941909078222"><ele>152.75</ele><time>2026-05-01T08:12:24.999Z</time></trkpt><trkpt lat="42.37384048381859" lon="14.254117584169695"><ele>156.0</ele><time>2026-05-01T08:12:25.999Z</time></trkpt><trkpt lat="42.37386936673306" lon="14.254276489114828"><ele>156.0</ele><time>2026-05-01T08:12:26.999Z</time></trkpt><trkpt lat="42.37391484166355" lon="14.254430125757011"><ele>156.0</ele><time>2026-05-01T08:12:27.999Z</time></trkpt><trkpt lat="42.3739833416387" lon="14.254556873245907"><ele>156.0</ele><time>2026-05-01T08:12:28.999Z</time></trkpt><trkpt lat="42.37404499530309" lon="14.254685180702696"><ele>156.0</ele><time>2026-05-01T08:12:29.999Z</time></trkpt><trkpt lat="42.37412499147301" lon="14.254832036558884"><ele>158.0</ele><time>2026-05-01T08:12:30.999Z</time></trkpt><trkpt lat="42.374197627768154" lon="14.25497861751141"><ele>160.0</ele><time>2026-05-01T08:12:31.999Z</time></trkpt><trkpt lat="42.37424241297013" lon="14.255118198529923"><ele>162.0</ele><time>2026-05-01T08:12:32.999Z</time></trkpt><trkpt lat="42.3742931464189" lon="14.255269751002384"><ele>164.0</ele><time>2026-05-01T08:12:33.999Z</time></trkpt><trkpt lat="42.3743369940208" lon="14.255434549739565"><ele>164.0</ele><time>2026-05-01T08:12:34.999Z</time></trkpt><trkpt lat="42.37436605469158" lon="14.255573603215618"><ele>164.0</ele><time>2026-05-01T08:12:35.999Z</time></trkpt><trkpt lat="42.37438027188845" lon="14.25569014642408"><ele>164.0</ele><time>2026-05-01T08:12:36.999Z</time></trkpt><trkpt lat="42.374381780185104" lon="14.255796087159728"><ele>164.0</ele><time>2026-05-01T08:12:37.999Z</time></trkpt><trkpt lat="42.37437709344119" lon="14.255916732992159"><ele>164.0</ele><time>2026-05-01T08:12:39.999Z</time></trkpt><trkpt lat="42.37435056654707" lon="14.255997692077255"><ele>164.0</ele><time>2026-05-01T08:12:41.999Z</time></trkpt><trkpt lat="42.37434863941013" lon="14.256118390789968"><ele>164.5</ele><time>2026-05-01T08:12:44.999Z</time></trkpt><trkpt lat="42.374502566794526" lon="14.25620599673717"><ele>165.0</ele><time>2026-05-01T08:12:45.999Z</time></trkpt><trkpt lat="42.37459590462977" lon="14.256279372681881"><ele>165.5</ele><time>2026-05-01T08:12:46.999Z</time></trkpt><trkpt lat="42.37470685638068" lon="14.256382785671773"><ele>166.0</ele><time>2026-05-01T08:12:47.999Z</time></trkpt><trkpt lat="42.37481865296355" lon="14.256485675294892"><ele>166.66666666666669</ele><time>2026-05-01T08:12:48.999Z</time></trkpt><trkpt lat="42.37493343800279" lon="14.256607446294167"><ele>167.33333333333334</ele><time>2026-05-01T08:12:49.999Z</time></trkpt><trkpt lat="42.375061831439204" lon="14.25673099143344"><ele>168.0</ele><time>2026-05-01T08:12:50.998Z</time></trkpt><trkpt lat="42.37518180979485" lon="14.256868097573728"><ele>168.0</ele><time>2026-05-01T08:12:51.998Z</time></trkpt><trkpt lat="42.3752951564534" lon="14.25702397940781"><ele>168.0</ele><time>2026-05-01T08:12:52.998Z</time></trkpt><trkpt lat="42.37540589656202" lon="14.25718663355411"><ele>168.0</ele><time>2026-05-01T08:12:53.998Z</time></trkpt><trkpt lat="42.375510649438574" lon="14.257354211407206"><ele>168.66666666666666</ele><time>2026-05-01T08:12:54.998Z</time></trkpt><trkpt lat="42.3756091187249" lon="14.257525754591896"><ele>169.33333333333331</ele><time>2026-05-01T08:12:55.998Z</time></trkpt><trkpt lat="42.375715076744925" lon="14.257689011937096"><ele>170.0</ele><time>2026-05-01T08:12:56.998Z</time></trkpt><trkpt lat="42.37580724678345" lon="14.257852762958416"><ele>170.0</ele><time>2026-05-01T08:12:57.998Z</time></trkpt><trkpt lat="42.37590372651752" lon="14.258015093283742"><ele>170.0</ele><time>2026-05-01T08:12:58.998Z</time></trkpt><trkpt lat="42.37600660138421" lon="14.258171259137473"><ele>170.0</ele><time>2026-05-01T08:12:59.998Z</time></trkpt><trkpt lat="42.37610895292421" lon="14.258328874198746"><ele>172.0</ele><time>2026-05-01T08:13:00.998Z</time></trkpt><trkpt lat="42.37620718668479" lon="14.258484852661626"><ele>174.0</ele><time>2026-05-01T08:13:01.998Z</time></trkpt><trkpt lat="42.376306871801" lon="14.258641629134443"><ele>176.0</ele><time>2026-05-01T08:13:02.998Z</time></trkpt><trkpt lat="42.37640795428675" lon="14.258791647640994"><ele>176.0</ele><time>2026-05-01T08:13:03.998Z</time></trkpt><trkpt lat="42.37650669514808" lon="14.258935544310118"><ele>176.0</ele><time>2026-05-01T08:13:04.998Z</time></trkpt><trkpt lat="42.376582275492034" lon="14.259074983616335"><ele>176.0</ele><time>2026-05-01T08:13:05.998Z</time></trkpt><trkpt lat="42.37665449025182" lon="14.259183821334073"><ele>176.0</ele><time>2026-05-01T08:13:06.998Z</time></trkpt><trkpt lat="42.3767128122755" lon="14.259279455507412"><ele>175.60000000000002</ele><time>2026-05-01T08:13:07.998Z</time></trkpt><trkpt lat="42.376765250431426" lon="14.259366708722624"><ele>175.2</ele><time>2026-05-01T08:13:08.998Z</time></trkpt><trkpt lat="42.37678795846049" lon="14.259460263370862"><ele>174.8</ele><time>2026-05-01T08:13:09.998Z</time></trkpt><trkpt lat="42.37676328456521" lon="14.25962597704498"><ele>174.39999999999998</ele><time>2026-05-01T08:13:12Z</time></trkpt><trkpt lat="42.37675454314731" lon="14.259730984556812"><ele>174.0</ele><time>2026-05-01T08:13:13Z</time></trkpt><trkpt lat="42.37675781032595" lon="14.259859873238755"><ele>172.75</ele><time>2026-05-01T08:13:14Z</time></trkpt><trkpt lat="42.37676912856429" lon="14.26000340168143"><ele>171.5</ele><time>2026-05-01T08:13:15Z</time></trkpt><trkpt lat="42.37677765306201" lon="14.260168872147183"><ele>170.25</ele><time>2026-05-01T08:13:16Z</time></trkpt><trkpt lat="42.376778256149755" lon="14.260351726857545"><ele>169.0</ele><time>2026-05-01T08:13:17Z</time></trkpt><trkpt lat="42.376770145865656" lon="14.260537384290508"><ele>167.75</ele><time>2026-05-01T08:13:18Z</time></trkpt><trkpt lat="42.37676489683189" lon="14.260714471217911"><ele>166.5</ele><time>2026-05-01T08:13:19Z</time></trkpt><trkpt lat="42.37674464988412" lon="14.260878384845443"><ele>165.25</ele><time>2026-05-01T08:13:20Z</time></trkpt><trkpt lat="42.376733406345956" lon="14.261046979487102"><ele>164.0</ele><time>2026-05-01T08:13:21Z</time></trkpt><trkpt lat="42.37671302002866" lon="14.26120594190207"><ele>164.0</ele><time>2026-05-01T08:13:22Z</time></trkpt><trkpt lat="42.37668027705906" lon="14.261361812733394"><ele>164.0</ele><time>2026-05-01T08:13:23Z</time></trkpt><trkpt lat="42.37665944957518" lon="14.261503568133183"><ele>164.0</ele><time>2026-05-01T08:13:24Z</time></trkpt><trkpt lat="42.376658684988904" lon="14.261652128623052"><ele>164.0</ele><time>2026-05-01T08:13:25Z</time></trkpt><trkpt lat="42.3766785528055" lon="14.261825123487352"><ele>162.66666666666666</ele><time>2026-05-01T08:13:26Z</time></trkpt><trkpt lat="42.376714587228584" lon="14.262024638125023"><ele>161.33333333333334</ele><time>2026-05-01T08:13:27Z</time></trkpt><trkpt lat="42.37674312227512" lon="14.262236594819885"><ele>160.0</ele><time>2026-05-01T08:13:28Z</time></trkpt><trkpt lat="42.37676548568662" lon="14.262435754800444"><ele>157.5</ele><time>2026-05-01T08:13:29Z</time></trkpt><trkpt lat="42.37677965421452" lon="14.26261969206252"><ele>155.0</ele><time>2026-05-01T08:13:30Z</time></trkpt><trkpt lat="42.37679945706615" lon="14.262792386752297"><ele>152.5</ele><time>2026-05-01T08:13:31Z</time></trkpt><trkpt lat="42.37683398987918" lon="14.26296616556272"><ele>150.0</ele><time>2026-05-01T08:13:32Z</time></trkpt><trkpt lat="42.376889342400574" lon="14.26314942923481"><ele>146.66666666666666</ele><time>2026-05-01T08:13:33Z</time></trkpt><trkpt lat="42.37696523559423" lon="14.263338330195005"><ele>143.33333333333331</ele><time>2026-05-01T08:13:34Z</time></trkpt><trkpt lat="42.377035230234256" lon="14.263522073235695"><ele>140.0</ele><time>2026-05-01T08:13:35Z</time></trkpt><trkpt lat="42.37709701027386" lon="14.263700637542355"><ele>140.0</ele><time>2026-05-01T08:13:36Z</time></trkpt><trkpt lat="42.377157727870085" lon="14.263879363158761"><ele>140.0</ele><time>2026-05-01T08:13:37Z</time></trkpt><trkpt lat="42.37721768094811" lon="14.264050151432595"><ele>140.0</ele><time>2026-05-01T08:13:38Z</time></trkpt><trkpt lat="42.37728662298189" lon="14.264227875908523"><ele>140.0</ele><time>2026-05-01T08:13:39Z</time></trkpt><trkpt lat="42.377364501173055" lon="14.26440149071466"><ele>140.75</ele><time>2026-05-01T08:13:40Z</time></trkpt><trkpt lat="42.37744806431224" lon="14.264561507803467"><ele>141.5</ele><time>2026-05-01T08:13:41Z</time></trkpt><trkpt lat="42.377520034020755" lon="14.264713747230676"><ele>142.25</ele><time>2026-05-01T08:13:42Z</time></trkpt><trkpt lat="42.37758089171898" lon="14.264857998057769"><ele>143.0</ele><time>2026-05-01T08:13:43Z</time></trkpt><trkpt lat="42.37762730276912" lon="14.264999525691744"><ele>141.4</ele><time>2026-05-01T08:13:44Z</time></trkpt><trkpt lat="42.37763615341289" lon="14.2651510806303"><ele>139.8</ele><time>2026-05-01T08:13:45Z</time></trkpt><trkpt lat="42.377641224058095" lon="14.265289454580234"><ele>138.2</ele><time>2026-05-01T08:13:46Z</time></trkpt><trkpt lat="42.37763308408726" lon="14.26542666195059"><ele>136.6</ele><time>2026-05-01T08:13:47Z</time></trkpt><trkpt lat="42.37764546799045" lon="14.26556897230556"><ele>135.0</ele><time>2026-05-01T08:13:48Z</time></trkpt><trkpt lat="42.37763004328255" lon="14.265721369905338"><ele>133.8</ele><time>2026-05-01T08:13:49Z</time></trkpt><trkpt lat="42.37764237140501" lon="14.265863817679225"><ele>132.6</ele><time>2026-05-01T08:13:50Z</time></trkpt><trkpt lat="42.37765388197107" lon="14.266006043412268"><ele>131.4</ele><time>2026-05-01T08:13:51Z</time></trkpt><trkpt lat="42.37766294833473" lon="14.266127836902946"><ele>130.2</ele><time>2026-05-01T08:13:52Z</time></trkpt><trkpt lat="42.37766167819716" lon="14.26625455342878"><ele>129.0</ele><time>2026-05-01T08:13:53Z</time></trkpt><trkpt lat="42.37766077932706" lon="14.266364635445173"><ele>127.66666666666667</ele><time>2026-05-01T08:13:54Z</time></trkpt><trkpt lat="42.37765326531566" lon="14.266480298947917"><ele>126.33333333333334</ele><time>2026-05-01T08:13:55Z</time></trkpt><trkpt lat="42.37765320069447" lon="14.26659833512915"><ele>125.0</ele><time>2026-05-01T08:13:56Z</time></trkpt><trkpt lat="42.37765565293452" lon="14.266722208524602"><ele>123.66666666666667</ele><time>2026-05-01T08:13:56.999Z</time></trkpt><trkpt lat="42.37765647758121" lon="14.266850365330663"><ele>122.33333333333334</ele><time>2026-05-01T08:13:57.999Z</time></trkpt><trkpt lat="42.37767499076215" lon="14.266955323956708"><ele>121.0</ele><time>2026-05-01T08:13:58.999Z</time></trkpt><trkpt lat="42.37766971055018" lon="14.267050528303567"><ele>121.00000000000001</ele><time>2026-05-01T08:13:59.999Z</time></trkpt><trkpt lat="42.377683923558806" lon="14.267155160810375"><ele>121.0</ele><time>2026-05-01T08:14:01.999Z</time></trkpt><trkpt lat="42.3776692360128" lon="14.2672543855653"><ele>121.0</ele><time>2026-05-01T08:14:03.999Z</time></trkpt><trkpt lat="42.37757452276605" lon="14.267217000708712"><ele>121.0</ele><time>2026-05-01T08:14:05.999Z</time></trkpt><trkpt lat="42.37749674445213" lon="14.267229967970513"><ele>121.00000000000001</ele><time>2026-05-01T08:14:06.999Z</time></trkpt><trkpt lat="42.37738420110571" lon="14.267257112054672"><ele>121.0</ele><time>2026-05-01T08:14:07.999Z</time></trkpt><trkpt lat="42.37726110817436" lon="14.267291506049723"><ele>118.25</ele><time>2026-05-01T08:14:08.999Z</time></trkpt><trkpt lat="42.37714149770244" lon="14.2673263615867"><ele>115.5</ele><time>2026-05-01T08:14:09.999Z</time></trkpt><trkpt lat="42.377014106074995" lon="14.267360025792119"><ele>112.75</ele><time>2026-05-01T08:14:10.999Z</time></trkpt><trkpt lat="42.376892797721844" lon="14.267386796293625"><ele>110.0</ele><time>2026-05-01T08:14:11.999Z</time></trkpt><trkpt lat="42.37677933130386" lon="14.26740529760461"><ele>109.99999999999999</ele><time>2026-05-01T08:14:12.999Z</time></trkpt><trkpt lat="42.37667985277043" lon="14.26743940447805"><ele>110.0</ele><time>2026-05-01T08:14:13.999Z</time></trkpt><trkpt lat="42.3765852151456" lon="14.267433163764208"><ele>110.0</ele><time>2026-05-01T08:14:14.999Z</time></trkpt><trkpt lat="42.376505005609445" lon="14.267476831026222"><ele>110.0</ele><time>2026-05-01T08:14:15.999Z</time></trkpt><trkpt lat="42.37643260127083" lon="14.267497015605443"><ele>109.99999999999999</ele><time>2026-05-01T08:14:16.999Z</time></trkpt><trkpt lat="42.37636434963723" lon="14.267548172724798"><ele>110.0</ele><time>2026-05-01T08:14:17.999Z</time></trkpt><trkpt lat="42.376301764071" lon="14.267642090882806"><ele>113.8</ele><time>2026-05-01T08:14:18.999Z</time></trkpt><trkpt lat="42.37625235446429" lon="14.267753108809861"><ele>117.6</ele><time>2026-05-01T08:14:19.999Z</time></trkpt><trkpt lat="42.37620787085482" lon="14.267877110149577"><ele>121.4</ele><time>2026-05-01T08:14:20.999Z</time></trkpt><trkpt lat="42.37618175439729" lon="14.26801465581662"><ele>125.2</ele><time>2026-05-01T08:14:21.999Z</time></trkpt><trkpt lat="42.37614533485124" lon="14.268164740251605"><ele>129.0</ele><time>2026-05-01T08:14:22.999Z</time></trkpt><trkpt lat="42.37610729921162" lon="14.26828638063107"><ele>129.0</ele><time>2026-05-01T08:14:23.999Z</time></trkpt><trkpt lat="42.37607059077927" lon="14.268438736915934"><ele>129.0</ele><time>2026-05-01T08:14:24.999Z</time></trkpt><trkpt lat="42.376035927783086" lon="14.268601958455937"><ele>129.0</ele><time>2026-05-01T08:14:25.999Z</time></trkpt><trkpt lat="42.37600558444886" lon="14.268741276830497"><ele>129.0</ele><time>2026-05-01T08:14:26.999Z</time></trkpt><trkpt lat="42.37597268408624" lon="14.268874452598535"><ele>128.25</ele><time>2026-05-01T08:14:27.999Z</time></trkpt><trkpt lat="42.375940978243605" lon="14.268957032279745"><ele>127.5</ele><time>2026-05-01T08:14:28.999Z</time></trkpt><trkpt lat="42.37589302943193" lon="14.269099923104445"><ele>126.75</ele><time>2026-05-01T08:14:29.999Z</time></trkpt><trkpt lat="42.37584351297286" lon="14.269292431853689"><ele>126.0</ele><time>2026-05-01T08:14:30.999Z</time></trkpt><trkpt lat="42.37579643713129" lon="14.269438585199335"><ele>126.0</ele><time>2026-05-01T08:14:31.999Z</time></trkpt><trkpt lat="42.37574993576082" lon="14.26956473613156"><ele>126.0</ele><time>2026-05-01T08:14:32.999Z</time></trkpt><trkpt lat="42.375723103027966" lon="14.269665713073433"><ele>126.0</ele><time>2026-05-01T08:14:33.999Z</time></trkpt><trkpt lat="42.37566611334935" lon="14.269776641585965"><ele>126.0</ele><time>2026-05-01T08:14:34.999Z</time></trkpt><trkpt lat="42.37560635598531" lon="14.269891679272128"><ele>126.0</ele><time>2026-05-01T08:14:35.999Z</time></trkpt><trkpt lat="42.37554733602834" lon="14.27001351622551"><ele>129.6</ele><time>2026-05-01T08:14:36.999Z</time></trkpt><trkpt lat="42.375493375200804" lon="14.270138535900568"><ele>133.2</ele><time>2026-05-01T08:14:37.999Z</time></trkpt><trkpt lat="42.37547769867919" lon="14.270277565294533"><ele>136.8</ele><time>2026-05-01T08:14:38.999Z</time></trkpt><trkpt lat="42.375411385902304" lon="14.270388292199518"><ele>140.4</ele><time>2026-05-01T08:14:39.999Z</time></trkpt><trkpt lat="42.375357172810524" lon="14.270494036352787"><ele>144.0</ele><time>2026-05-01T08:14:40.999Z</time></trkpt><trkpt lat="42.375277903975814" lon="14.270629511987797"><ele>144.0</ele><time>2026-05-01T08:14:41.999Z</time></trkpt><trkpt lat="42.37521253439589" lon="14.270727685073414"><ele>144.0</ele><time>2026-05-01T08:14:42.999Z</time></trkpt><trkpt lat="42.37516096260029" lon="14.270803219415392"><ele>144.0</ele><time>2026-05-01T08:14:43.999Z</time></trkpt><trkpt lat="42.375106145087955" lon="14.270869696262112"><ele>144.0</ele><time>2026-05-01T08:14:45.999Z</time></trkpt><trkpt lat="42.37502705664338" lon="14.270906316163416"><ele>144.0</ele><time>2026-05-01T08:14:47.999Z</time></trkpt><trkpt lat="42.37494716839053" lon="14.270941097820895"><ele>144.0</ele><time>2026-05-01T08:14:48.999Z</time></trkpt><trkpt lat="42.37486888110483" lon="14.270985079199976"><ele>144.0</ele><time>2026-05-01T08:14:49.999Z</time></trkpt><trkpt lat="42.374771780676525" lon="14.27098639692453"><ele>144.0</ele><time>2026-05-01T08:14:50.999Z</time></trkpt><trkpt lat="42.37467534762663" lon="14.270871795778495"><ele>144.0</ele><time>2026-05-01T08:14:51.999Z</time></trkpt><trkpt lat="42.37455967149844" lon="14.270853148476899"><ele>144.0</ele><time>2026-05-01T08:14:52.999Z</time></trkpt><trkpt lat="42.37443807707159" lon="14.270847538390514"><ele>146.0</ele><time>2026-05-01T08:14:53.999Z</time></trkpt><trkpt lat="42.374332663245596" lon="14.270883942345788"><ele>148.0</ele><time>2026-05-01T08:14:54.999Z</time></trkpt><trkpt lat="42.37424017245106" lon="14.270894803027328"><ele>150.0</ele><time>2026-05-01T08:14:56.999Z</time></trkpt><trkpt lat="42.37414848061457" lon="14.270997496647775"><ele>152.0</ele><time>2026-05-01T08:14:58.999Z</time></trkpt><trkpt lat="42.37407646206574" lon="14.271125236021415"><ele>154.0</ele><time>2026-05-01T08:14:59.998Z</time></trkpt><trkpt lat="42.37403143953408" lon="14.271234552613905"><ele>154.0</ele><time>2026-05-01T08:15:00.998Z</time></trkpt><trkpt lat="42.37400940782555" lon="14.271337954927404"><ele>154.0</ele><time>2026-05-01T08:15:01.998Z</time></trkpt><trkpt lat="42.373984425640444" lon="14.27144935866872"><ele>154.0</ele><time>2026-05-01T08:15:02.998Z</time></trkpt><trkpt lat="42.37393058467118" lon="14.271551367734608"><ele>154.0</ele><time>2026-05-01T08:15:03.998Z</time></trkpt><trkpt lat="42.373830544578524" lon="14.27163330543137"><ele>154.0</ele><time>2026-05-01T08:15:04.998Z</time></trkpt><trkpt lat="42.37372096096167" lon="14.271705225074385"><ele>149.5</ele><time>2026-05-01T08:15:05.998Z</time></trkpt><trkpt lat="42.373591926702346" lon="14.271790308157104"><ele>145.0</ele><time>2026-05-01T08:15:06.998Z</time></trkpt><trkpt lat="42.37347260945243" lon="14.271863554343065"><ele>140.5</ele><time>2026-05-01T08:15:07.998Z</time></trkpt><trkpt lat="42.3733575040906" lon="14.27192235468109"><ele>136.0</ele><time>2026-05-01T08:15:08.998Z</time></trkpt><trkpt lat="42.37323805983601" lon="14.271954153050366"><ele>136.0</ele><time>2026-05-01T08:15:09.998Z</time></trkpt><trkpt lat="42.37311915168366" lon="14.27195143833842"><ele>136.0</ele><time>2026-05-01T08:15:10.998Z</time></trkpt><trkpt lat="42.3730262249127" lon="14.271951894039784"><ele>136.0</ele><time>2026-05-01T08:15:11.998Z</time></trkpt><trkpt lat="42.37288878023131" lon="14.271953508215926"><ele>136.0</ele><time>2026-05-01T08:15:12.998Z</time></trkpt><trkpt lat="42.37276873479031" lon="14.271958442116487"><ele>133.5</ele><time>2026-05-01T08:15:13.998Z</time></trkpt><trkpt lat="42.37264753624228" lon="14.271968426264108"><ele>131.0</ele><time>2026-05-01T08:15:14.998Z</time></trkpt><trkpt lat="42.37252013080422" lon="14.271980893018783"><ele>128.5</ele><time>2026-05-01T08:15:15.998Z</time></trkpt><trkpt lat="42.372399527039384" lon="14.271990812335455"><ele>126.0</ele><time>2026-05-01T08:15:17Z</time></trkpt><trkpt lat="42.37229005258805" lon="14.27201296352773"><ele>126.0</ele><time>2026-05-01T08:15:18Z</time></trkpt><trkpt lat="42.37219918270733" lon="14.272004383797091"><ele>126.0</ele><time>2026-05-01T08:15:19Z</time></trkpt><trkpt lat="42.372103320771224" lon="14.272008575088917"><ele>126.0</ele><time>2026-05-01T08:15:20Z</time></trkpt><trkpt lat="42.37201701814402" lon="14.272074245464209"><ele>126.0</ele><time>2026-05-01T08:15:21Z</time></trkpt><trkpt lat="42.37194140264353" lon="14.272178561593387"><ele>126.0</ele><time>2026-05-01T08:15:22Z</time></trkpt><trkpt lat="42.37187346604626" lon="14.272312780937328"><ele>121.0</ele><time>2026-05-01T08:15:23Z</time></trkpt><trkpt lat="42.37180615461275" lon="14.272470381030395"><ele>116.0</ele><time>2026-05-01T08:15:24Z</time></trkpt><trkpt lat="42.37175104526884" lon="14.272628537927492"><ele>111.0</ele><time>2026-05-01T08:15:25Z</time></trkpt><trkpt lat="42.3717016830069" lon="14.272777232370526"><ele>106.0</ele><time>2026-05-01T08:15:26Z</time></trkpt><trkpt lat="42.37164959165459" lon="14.272924952574991"><ele>106.0</ele><time>2026-05-01T08:15:27Z</time></trkpt><trkpt lat="42.37159649287685" lon="14.273077849473346"><ele>106.0</ele><time>2026-05-01T08:15:28Z</time></trkpt><trkpt lat="42.371540210694484" lon="14.273233818951761"><ele>106.0</ele><time>2026-05-01T08:15:29Z</time></trkpt><trkpt lat="42.37148593848112" lon="14.273394606590967"><ele>106.0</ele><time>2026-05-01T08:15:30Z</time></trkpt><trkpt lat="42.37143064713579" lon="14.273563825944686"><ele>104.75</ele><time>2026-05-01T08:15:31Z</time></trkpt><trkpt lat="42.37137861697189" lon="14.273744273733751"><ele>103.5</ele><time>2026-05-01T08:15:32Z</time></trkpt><trkpt lat="42.3713260190276" lon="14.273916893373537"><ele>102.25</ele><time>2026-05-01T08:15:33Z</time></trkpt><trkpt lat="42.37128720891979" lon="14.274082003935211"><ele>101.0</ele><time>2026-05-01T08:15:34Z</time></trkpt><trkpt lat="42.371253521486125" lon="14.274240532793195"><ele>96.25</ele><time>2026-05-01T08:15:35Z</time></trkpt><trkpt lat="42.371229706673326" lon="14.27439120012848"><ele>91.5</ele><time>2026-05-01T08:15:36Z</time></trkpt><trkpt lat="42.37122410576525" lon="14.274536663669489"><ele>86.75</ele><time>2026-05-01T08:15:37Z</time></trkpt><trkpt lat="42.371218836964175" lon="14.274683288751154"><ele>82.0</ele><time>2026-05-01T08:15:38Z</time></trkpt><trkpt lat="42.37125852982948" lon="14.274875660500474"><ele>81.25</ele><time>2026-05-01T08:15:39Z</time></trkpt><trkpt lat="42.3712728145035" lon="14.275051702828849"><ele>80.5</ele><time>2026-05-01T08:15:40Z</time></trkpt><trkpt lat="42.37127151896425" lon="14.275236039430961"><ele>79.75</ele><time>2026-05-01T08:15:41Z</time></trkpt><trkpt lat="42.37123526569037" lon="14.275420007729752"><ele>79.0</ele><time>2026-05-01T08:15:42Z</time></trkpt><trkpt lat="42.371201826754806" lon="14.275637560174797"><ele>79.0</ele><time>2026-05-01T08:15:43Z</time></trkpt><trkpt lat="42.37117133407457" lon="14.275866817794583"><ele>79.0</ele><time>2026-05-01T08:15:44Z</time></trkpt><trkpt lat="42.371116063420416" lon="14.276081615057361"><ele>79.0</ele><time>2026-05-01T08:15:45Z</time></trkpt><trkpt lat="42.37106749679018" lon="14.276280835727935"><ele>78.5</ele><time>2026-05-01T08:15:46Z</time></trkpt><trkpt lat="42.371026054956765" lon="14.276468848730932"><ele>78.0</ele><time>2026-05-01T08:15:47Z</time></trkpt><trkpt lat="42.370985806087134" lon="14.276653795531617"><ele>77.5</ele><time>2026-05-01T08:15:48Z</time></trkpt><trkpt lat="42.37093358407657" lon="14.276835603433183"><ele>77.0</ele><time>2026-05-01T08:15:49Z</time></trkpt><trkpt lat="42.370894973581215" lon="14.277008084013096"><ele>77.0</ele><time>2026-05-01T08:15:50Z</time></trkpt><trkpt lat="42.37085916808012" lon="14.277161266285125"><ele>77.0</ele><time>2026-05-01T08:15:51Z</time></trkpt><trkpt lat="42.370826369284174" lon="14.277311589722883"><ele>77.0</ele><time>2026-05-01T08:15:52Z</time></trkpt><trkpt lat="42.37079270362945" lon="14.277439905283897"><ele>77.0</ele><time>2026-05-01T08:15:53Z</time></trkpt><trkpt lat="42.37076722758305" lon="14.277570896343127"><ele>77.0</ele><time>2026-05-01T08:15:54Z</time></trkpt><trkpt lat="42.370744020318746" lon="14.27771213593514"><ele>77.0</ele><time>2026-05-01T08:15:55Z</time></trkpt><trkpt lat="42.3707012830234" lon="14.277866303405945"><ele>77.0</ele><time>2026-05-01T08:15:56Z</time></trkpt><trkpt lat="42.37065722922427" lon="14.278020266329355"><ele>77.0</ele><time>2026-05-01T08:15:57Z</time></trkpt><trkpt lat="42.370603757457914" lon="14.278175130189172"><ele>77.0</ele><time>2026-05-01T08:15:57.999Z</time></trkpt><trkpt lat="42.370537600340214" lon="14.278338857786236"><ele>75.0</ele><time>2026-05-01T08:15:58.999Z</time></trkpt><trkpt lat="42.37044334102065" lon="14.27848912520696"><ele>73.0</ele><time>2026-05-01T08:15:59.999Z</time></trkpt><trkpt lat="42.370358853441985" lon="14.278639829770283"><ele>71.0</ele><time>2026-05-01T08:16:00.999Z</time></trkpt><trkpt lat="42.370278968938024" lon="14.278756704034459"><ele>69.0</ele><time>2026-05-01T08:16:01.999Z</time></trkpt><trkpt lat="42.370182205802536" lon="14.278862142645785"><ele>68.5</ele><time>2026-05-01T08:16:02.999Z</time></trkpt><trkpt lat="42.37007163262319" lon="14.27895863467127"><ele>68.0</ele><time>2026-05-01T08:16:03.999Z</time></trkpt><trkpt lat="42.36995914229256" lon="14.279050484692178"><ele>67.5</ele><time>2026-05-01T08:16:04.999Z</time></trkpt><trkpt lat="42.36986717378781" lon="14.279151919141134"><ele>67.0</ele><time>2026-05-01T08:16:05.999Z</time></trkpt><trkpt lat="42.36977272373786" lon="14.279217054624542"><ele>67.0</ele><time>2026-05-01T08:16:06.999Z</time></trkpt><trkpt lat="42.36969723043561" lon="14.27930064257912"><ele>67.0</ele><time>2026-05-01T08:16:07.999Z</time></trkpt><trkpt lat="42.36964594120026" lon="14.279410722337065"><ele>67.0</ele><time>2026-05-01T08:16:08.999Z</time></trkpt><trkpt lat="42.369620721396196" lon="14.27955412937941"><ele>67.0</ele><time>2026-05-01T08:16:09.999Z</time></trkpt><trkpt lat="42.36962830802752" lon="14.27972256891762"><ele>67.0</ele><time>2026-05-01T08:16:10.999Z</time></trkpt><trkpt lat="42.369651156307846" lon="14.279927533894044"><ele>66.75</ele><time>2026-05-01T08:16:11.999Z</time></trkpt><trkpt lat="42.369673149922356" lon="14.280115393586737"><ele>66.5</ele><time>2026-05-01T08:16:12.999Z</time></trkpt><trkpt lat="42.369685745686375" lon="14.280284373541651"><ele>66.25</ele><time>2026-05-01T08:16:13.999Z</time></trkpt><trkpt lat="42.36969348663372" lon="14.280442808473845"><ele>66.0</ele><time>2026-05-01T08:16:14.999Z</time></trkpt><trkpt lat="42.369694960575615" lon="14.280605668493784"><ele>65.75</ele><time>2026-05-01T08:16:15.999Z</time></trkpt><trkpt lat="42.36968862809194" lon="14.280766913254968"><ele>65.5</ele><time>2026-05-01T08:16:16.999Z</time></trkpt><trkpt lat="42.36968883101658" lon="14.280928218754534"><ele>65.25</ele><time>2026-05-01T08:16:17.999Z</time></trkpt><trkpt lat="42.369695153032566" lon="14.28108086359979"><ele>65.0</ele><time>2026-05-01T08:16:18.999Z</time></trkpt><trkpt lat="42.36969100856363" lon="14.281228627054213"><ele>65.0</ele><time>2026-05-01T08:16:19.999Z</time></trkpt><trkpt lat="42.36969054593929" lon="14.281370097277383"><ele>65.0</ele><time>2026-05-01T08:16:20.999Z</time></trkpt><trkpt lat="42.36969986456891" lon="14.28151776628348"><ele>65.0</ele><time>2026-05-01T08:16:21.999Z</time></trkpt><trkpt lat="42.36969589280918" lon="14.281662437826578"><ele>65.0</ele><time>2026-05-01T08:16:22.999Z</time></trkpt><trkpt lat="42.369698983457354" lon="14.281802255914695"><ele>65.0</ele><time>2026-05-01T08:16:23.999Z</time></trkpt><trkpt lat="42.369703463087475" lon="14.28192979321141"><ele>64.5</ele><time>2026-05-01T08:16:24.999Z</time></trkpt><trkpt lat="42.36970210538816" lon="14.282060066677184"><ele>64.0</ele><time>2026-05-01T08:16:25.999Z</time></trkpt><trkpt lat="42.36966919003529" lon="14.282162837398264"><ele>63.5</ele><time>2026-05-01T08:16:26.999Z</time></trkpt><trkpt lat="42.36964120804128" lon="14.28225005873072"><ele>63.0</ele><time>2026-05-01T08:16:27.999Z</time></trkpt><trkpt lat="42.36958612114025" lon="14.28230396141336"><ele>62.50000000000001</ele><time>2026-05-01T08:16:29.999Z</time></trkpt><trkpt lat="42.36953584518252" lon="14.282180083630307"><ele>62.0</ele><time>2026-05-01T08:16:30.999Z</time></trkpt><trkpt lat="42.36948310324294" lon="14.282087982913472"><ele>62.0</ele><time>2026-05-01T08:16:31.999Z</time></trkpt><trkpt lat="42.36940401851087" lon="14.28198078431776"><ele>62.0</ele><time>2026-05-01T08:16:32.999Z</time></trkpt><trkpt lat="42.36934401069291" lon="14.28186368083378"><ele>62.0</ele><time>2026-05-01T08:16:33.999Z</time></trkpt><trkpt lat="42.36926692374605" lon="14.281748473642327"><ele>62.0</ele><time>2026-05-01T08:16:34.999Z</time></trkpt><trkpt lat="42.36918952895128" lon="14.281611602984793"><ele>62.0</ele><time>2026-05-01T08:16:35.999Z</time></trkpt><trkpt lat="42.36910640697678" lon="14.281461152053547"><ele>62.0</ele><time>2026-05-01T08:16:36.999Z</time></trkpt><trkpt lat="42.36902307168987" lon="14.281318911862062"><ele>62.0</ele><time>2026-05-01T08:16:37.999Z</time></trkpt><trkpt lat="42.36893630667381" lon="14.281166665512796"><ele>62.0</ele><time>2026-05-01T08:16:38.999Z</time></trkpt><trkpt lat="42.36884871900401" lon="14.28101744584919"><ele>62.25</ele><time>2026-05-01T08:16:39.999Z</time></trkpt><trkpt lat="42.3687793048196" lon="14.280863136260935"><ele>62.5</ele><time>2026-05-01T08:16:40.999Z</time></trkpt><trkpt lat="42.36870130782349" lon="14.280727884782529"><ele>62.75</ele><time>2026-05-01T08:16:41.999Z</time></trkpt><trkpt lat="42.368607771112515" lon="14.280595835947429"><ele>63.0</ele><time>2026-05-01T08:16:42.999Z</time></trkpt><trkpt lat="42.36853654514431" lon="14.280448705690686"><ele>62.599999999999994</ele><time>2026-05-01T08:16:43.999Z</time></trkpt><trkpt lat="42.36846547208963" lon="14.280319158730093"><ele>62.199999999999996</ele><time>2026-05-01T08:16:44.999Z</time></trkpt><trkpt lat="42.36839445730633" lon="14.280210911984662"><ele>61.8</ele><time>2026-05-01T08:16:45.999Z</time></trkpt><trkpt lat="42.368305628258625" lon="14.28014845047773"><ele>61.4</ele><time>2026-05-01T08:16:46.999Z</time></trkpt><trkpt lat="42.36821728013803" lon="14.280116085840564"><ele>61.0</ele><time>2026-05-01T08:16:47.999Z</time></trkpt><trkpt lat="42.36811618999804" lon="14.280163428096126"><ele>58.75</ele><time>2026-05-01T08:16:48.999Z</time></trkpt><trkpt lat="42.368009969416214" lon="14.280244869284878"><ele>56.5</ele><time>2026-05-01T08:16:49.999Z</time></trkpt><trkpt lat="42.36789826283174" lon="14.280338078172145"><ele>54.25</ele><time>2026-05-01T08:16:50.999Z</time></trkpt><trkpt lat="42.3677814813399" lon="14.28041077028147"><ele>52.0</ele><time>2026-05-01T08:16:51.999Z</time></trkpt><trkpt lat="42.36766020960972" lon="14.280488896437886"><ele>52.0</ele><time>2026-05-01T08:16:52.999Z</time></trkpt><trkpt lat="42.36753440706922" lon="14.28056763594635"><ele>52.0</ele><time>2026-05-01T08:16:53.999Z</time></trkpt><trkpt lat="42.367412663569255" lon="14.2806340524474"><ele>52.0</ele><time>2026-05-01T08:16:54.999Z</time></trkpt><trkpt lat="42.367296383463284" lon="14.280683674024717"><ele>52.0</ele><time>2026-05-01T08:16:55.999Z</time></trkpt><trkpt lat="42.36718028634713" lon="14.280714459563608"><ele>51.0</ele><time>2026-05-01T08:16:56.999Z</time></trkpt><trkpt lat="42.36704420273025" lon="14.28073874336999"><ele>50.0</ele><time>2026-05-01T08:16:57.999Z</time></trkpt><trkpt lat="42.366927084332055" lon="14.280764042134882"><ele>49.0</ele><time>2026-05-01T08:16:58.999Z</time></trkpt><trkpt lat="42.36673545254102" lon="14.280806142956916"><ele>49.0</ele><time>2026-05-01T08:16:59.999Z</time></trkpt><trkpt lat="42.36658167021519" lon="14.280841782289258"><ele>49.0</ele><time>2026-05-01T08:17:00.999Z</time></trkpt><trkpt lat="42.366434251659314" lon="14.280875863517448"><ele>49.0</ele><time>2026-05-01T08:17:01.998Z</time></trkpt><trkpt lat="42.36629509175704" lon="14.280908035462357"><ele>49.0</ele><time>2026-05-01T08:17:02.998Z</time></trkpt><trkpt lat="42.36616150202083" lon="14.2809389196279"><ele>48.0</ele><time>2026-05-01T08:17:03.998Z</time></trkpt><trkpt lat="42.366024928196516" lon="14.28097049367522"><ele>47.0</ele><time>2026-05-01T08:17:04.998Z</time></trkpt><trkpt lat="42.365906193479134" lon="14.281010017707688"><ele>46.0</ele><time>2026-05-01T08:17:05.998Z</time></trkpt><trkpt lat="42.36578639885145" lon="14.281034149768182"><ele>45.0</ele><time>2026-05-01T08:17:06.998Z</time></trkpt><trkpt lat="42.36568352335163" lon="14.281057454939583"><ele>45.0</ele><time>2026-05-01T08:17:07.998Z</time></trkpt><trkpt lat="42.36559050404601" lon="14.281081440001973"><ele>45.0</ele><time>2026-05-01T08:17:08.998Z</time></trkpt><trkpt lat="42.36551947817546" lon="14.281094176147755"><ele>45.0</ele><time>2026-05-01T08:17:09.998Z</time></trkpt><trkpt lat="42.365456259285395" lon="14.281070608429141"><ele>45.0</ele><time>2026-05-01T08:17:10.998Z</time></trkpt><trkpt lat="42.36538590020544" lon="14.280855678776994"><ele>45.0</ele><time>2026-05-01T08:17:12.998Z</time></trkpt><trkpt lat="42.365319335654746" lon="14.280725136920495"><ele>45.0</ele><time>2026-05-01T08:17:13.998Z</time></trkpt><trkpt lat="42.365241894440956" lon="14.280573663859252"><ele>45.0</ele><time>2026-05-01T08:17:14.998Z</time></trkpt><trkpt lat="42.3651468690965" lon="14.2804281954476"><ele>45.0</ele><time>2026-05-01T08:17:15.998Z</time></trkpt><trkpt lat="42.36506670740445" lon="14.280259881484396"><ele>45.0</ele><time>2026-05-01T08:17:16.998Z</time></trkpt><trkpt lat="42.36497971026334" lon="14.28008616802755"><ele>45.0</ele><time>2026-05-01T08:17:17.998Z</time></trkpt><trkpt lat="42.36490338074974" lon="14.27993070052997"><ele>45.0</ele><time>2026-05-01T08:17:18.998Z</time></trkpt><trkpt lat="42.36483673532545" lon="14.279768243602279"><ele>45.0</ele><time>2026-05-01T08:17:19.998Z</time></trkpt><trkpt lat="42.36475503067111" lon="14.279615526884628"><ele>45.0</ele><time>2026-05-01T08:17:20.998Z</time></trkpt><trkpt lat="42.36467109418874" lon="14.279452971421886"><ele>45.25</ele><time>2026-05-01T08:17:21.998Z</time></trkpt><trkpt lat="42.364592697762376" lon="14.279283501166956"><ele>45.5</ele><time>2026-05-01T08:17:23Z</time></trkpt><trkpt lat="42.364505092588736" lon="14.279121783146438"><ele>45.75</ele><time>2026-05-01T08:17:24Z</time></trkpt><trkpt lat="42.36441159719632" lon="14.278968690513263"><ele>46.0</ele><time>2026-05-01T08:17:25Z</time></trkpt><trkpt lat="42.36429054012808" lon="14.278799147140901"><ele>46.25</ele><time>2026-05-01T08:17:26Z</time></trkpt><trkpt lat="42.36417044919013" lon="14.278696343229067"><ele>46.5</ele><time>2026-05-01T08:17:27Z</time></trkpt><trkpt lat="42.36406771557697" lon="14.278600595974439"><ele>46.75</ele><time>2026-05-01T08:17:28Z</time></trkpt><trkpt lat="42.36393365865416" lon="14.278496422138206"><ele>47.0</ele><time>2026-05-01T08:17:29Z</time></trkpt><trkpt lat="42.3637949893513" lon="14.278390180726579"><ele>47.0</ele><time>2026-05-01T08:17:30Z</time></trkpt><trkpt lat="42.36365813273943" lon="14.278279326483489"><ele>47.0</ele><time>2026-05-01T08:17:31Z</time></trkpt><trkpt lat="42.36352605523297" lon="14.278164307431277"><ele>47.0</ele><time>2026-05-01T08:17:32Z</time></trkpt><trkpt lat="42.363397872033694" lon="14.278059133001474"><ele>47.75</ele><time>2026-05-01T08:17:33Z</time></trkpt><trkpt lat="42.36326983538293" lon="14.277961299027544"><ele>48.5</ele><time>2026-05-01T08:17:34Z</time></trkpt><trkpt lat="42.36315122445104" lon="14.27786049172562"><ele>49.25</ele><time>2026-05-01T08:17:35Z</time></trkpt><trkpt lat="42.36303258782961" lon="14.27777611805132"><ele>50.0</ele><time>2026-05-01T08:17:36Z</time></trkpt><trkpt lat="42.36290788629054" lon="14.277714203869987"><ele>50.0</ele><time>2026-05-01T08:17:37Z</time></trkpt><trkpt lat="42.36277067984436" lon="14.277679251735877"><ele>50.0</ele><time>2026-05-01T08:17:38Z</time></trkpt><trkpt lat="42.36262500362108" lon="14.277668324284386"><ele>50.0</ele><time>2026-05-01T08:17:39Z</time></trkpt><trkpt lat="42.36247186598996" lon="14.277680328628879"><ele>50.0</ele><time>2026-05-01T08:17:40Z</time></trkpt><trkpt lat="42.3623154644973" lon="14.277698112586215"><ele>50.0</ele><time>2026-05-01T08:17:41Z</time></trkpt><trkpt lat="42.36215751940056" lon="14.277716734658393"><ele>50.0</ele><time>2026-05-01T08:17:42Z</time></trkpt><trkpt lat="42.3619953095155" lon="14.277737053803486"><ele>50.0</ele><time>2026-05-01T08:17:43Z</time></trkpt><trkpt lat="42.36182969343918" lon="14.277752961301164"><ele>50.0</ele><time>2026-05-01T08:17:44Z</time></trkpt><trkpt lat="42.3616661420822" lon="14.27776720462609"><ele>50.0</ele><time>2026-05-01T08:17:45Z</time></trkpt><trkpt lat="42.36150750081781" lon="14.27778413172636"><ele>50.0</ele><time>2026-05-01T08:17:46Z</time></trkpt><trkpt lat="42.36135343147143" lon="14.277805178147922"><ele>50.0</ele><time>2026-05-01T08:17:47Z</time></trkpt><trkpt lat="42.36120862137282" lon="14.277822870304407"><ele>50.0</ele><time>2026-05-01T08:17:48Z</time></trkpt><trkpt lat="42.36106571555198" lon="14.277836044885122"><ele>50.0</ele><time>2026-05-01T08:17:49Z</time></trkpt><trkpt lat="42.360913949697796" lon="14.277859267362913"><ele>50.0</ele><time>2026-05-01T08:17:50Z</time></trkpt><trkpt lat="42.36077912159975" lon="14.277854810021513"><ele>50.0</ele><time>2026-05-01T08:17:51Z</time></trkpt><trkpt lat="42.36064102760245" lon="14.277865370756409"><ele>50.0</ele><time>2026-05-01T08:17:52Z</time></trkpt><trkpt lat="42.360501035091055" lon="14.277854160425807"><ele>50.0</ele><time>2026-05-01T08:17:53Z</time></trkpt><trkpt lat="42.36037770029694" lon="14.2778914507882"><ele>50.0</ele><time>2026-05-01T08:17:54Z</time></trkpt><trkpt lat="42.360258290035695" lon="14.277891427117535"><ele>50.25</ele><time>2026-05-01T08:17:55Z</time></trkpt><trkpt lat="42.360145540306284" lon="14.277868033621852"><ele>50.5</ele><time>2026-05-01T08:17:56Z</time></trkpt><trkpt lat="42.36003736116599" lon="14.277813610491275"><ele>50.75</ele><time>2026-05-01T08:17:57Z</time></trkpt><trkpt lat="42.35993942743581" lon="14.277723056078022"><ele>51.0</ele><time>2026-05-01T08:17:58Z</time></trkpt><trkpt lat="42.359855286933175" lon="14.277613626457283"><ele>51.0</ele><time>2026-05-01T08:17:59Z</time></trkpt><trkpt lat="42.35981256991538" lon="14.277468953392185"><ele>51.0</ele><time>2026-05-01T08:18:00Z</time></trkpt><trkpt lat="42.359762323819055" lon="14.277346523469378"><ele>51.0</ele><time>2026-05-01T08:18:01Z</time></trkpt><trkpt lat="42.35974339139169" lon="14.277224776207673"><ele>51.0</ele><time>2026-05-01T08:18:01.999Z</time></trkpt><trkpt lat="42.35972209261925" lon="14.277118127928553"><ele>51.0</ele><time>2026-05-01T08:18:02.999Z</time></trkpt><trkpt lat="42.35970371508786" lon="14.277024064120166"><ele>50.8</ele><time>2026-05-01T08:18:03.999Z</time></trkpt><trkpt lat="42.35966623240339" lon="14.276934457107158"><ele>50.599999999999994</ele><time>2026-05-01T08:18:05.999Z</time></trkpt><trkpt lat="42.359512958165745" lon="14.27708685146935"><ele>50.4</ele><time>2026-05-01T08:18:09.999Z</time></trkpt><trkpt lat="42.359501592726275" lon="14.277201340048151"><ele>50.2</ele><time>2026-05-01T08:18:10.999Z</time></trkpt><trkpt lat="42.359490895892826" lon="14.277325061411734"><ele>50.0</ele><time>2026-05-01T08:18:11.999Z</time></trkpt><trkpt lat="42.35949232528193" lon="14.277469740785861"><ele>50.0</ele><time>2026-05-01T08:18:12.999Z</time></trkpt><trkpt lat="42.359509002967144" lon="14.277631880592331"><ele>50.0</ele><time>2026-05-01T08:18:13.999Z</time></trkpt><trkpt lat="42.359527573197134" lon="14.277792983428196"><ele>50.0</ele><time>2026-05-01T08:18:14.999Z</time></trkpt><trkpt lat="42.35956909053002" lon="14.277943782751807"><ele>50.0</ele><time>2026-05-01T08:18:15.999Z</time></trkpt><trkpt lat="42.35959501779155" lon="14.278100743395498"><ele>49.0</ele><time>2026-05-01T08:18:16.999Z</time></trkpt><trkpt lat="42.359617636140236" lon="14.278250220288552"><ele>48.0</ele><time>2026-05-01T08:18:17.999Z</time></trkpt><trkpt lat="42.359627021191024" lon="14.278401726822471"><ele>47.0</ele><time>2026-05-01T08:18:18.999Z</time></trkpt><trkpt lat="42.35958604239249" lon="14.278589033829169"><ele>46.0</ele><time>2026-05-01T08:18:19.999Z</time></trkpt><trkpt lat="42.35955145794596" lon="14.278745559146806"><ele>46.0</ele><time>2026-05-01T08:18:20.999Z</time></trkpt><trkpt lat="42.35948851531597" lon="14.278913542647274"><ele>46.0</ele><time>2026-05-01T08:18:21.999Z</time></trkpt><trkpt lat="42.359435907203476" lon="14.279092571868865"><ele>46.0</ele><time>2026-05-01T08:18:22.999Z</time></trkpt><trkpt lat="42.35937015944734" lon="14.279262857092215"><ele>46.0</ele><time>2026-05-01T08:18:23.999Z</time></trkpt><trkpt lat="42.35930755899614" lon="14.279438018773574"><ele>45.5</ele><time>2026-05-01T08:18:24.999Z</time></trkpt><trkpt lat="42.359245045073415" lon="14.27961247931569"><ele>45.0</ele><time>2026-05-01T08:18:25.999Z</time></trkpt><trkpt lat="42.359191230886104" lon="14.279782661450033"><ele>44.5</ele><time>2026-05-01T08:18:26.999Z</time></trkpt><trkpt lat="42.359129928170496" lon="14.279948439566045"><ele>44.0</ele><time>2026-05-01T08:18:27.999Z</time></trkpt><trkpt lat="42.35904863942651" lon="14.280114118736043"><ele>43.33333333333333</ele><time>2026-05-01T08:18:28.999Z</time></trkpt><trkpt lat="42.3589587630331" lon="14.280289087731878"><ele>42.666666666666664</ele><time>2026-05-01T08:18:29.999Z</time></trkpt><trkpt lat="42.35885251276278" lon="14.280441786032325"><ele>42.0</ele><time>2026-05-01T08:18:30.999Z</time></trkpt><trkpt lat="42.35873731584454" lon="14.280544106011689"><ele>41.833333333333336</ele><time>2026-05-01T08:18:31.999Z</time></trkpt><trkpt lat="42.35865415632485" lon="14.280634889754307"><ele>41.666666666666664</ele><time>2026-05-01T08:18:32.999Z</time></trkpt><trkpt lat="42.35858341422516" lon="14.28068030667524"><ele>41.5</ele><time>2026-05-01T08:18:33.999Z</time></trkpt><trkpt lat="42.35851653208832" lon="14.2807396069804"><ele>41.33333333333333</ele><time>2026-05-01T08:18:34.999Z</time></trkpt><trkpt lat="42.35845878598497" lon="14.280784812823196"><ele>41.166666666666664</ele><time>2026-05-01T08:18:35.999Z</time></trkpt><trkpt lat="42.35837812545899" lon="14.280852996581293"><ele>41.0</ele><time>2026-05-01T08:18:37.999Z</time></trkpt><trkpt lat="42.35842636368344" lon="14.280956064138508"><ele>41.0</ele><time>2026-05-01T08:18:42.999Z</time></trkpt><trkpt lat="42.358493887114335" lon="14.280953356826867"><ele>41.0</ele><time>2026-05-01T08:18:43.999Z</time></trkpt><trkpt lat="42.35856014258918" lon="14.280845748120086"><ele>41.0</ele><time>2026-05-01T08:18:44.999Z</time></trkpt><trkpt lat="42.35864664861749" lon="14.28077293835265"><ele>41.0</ele><time>2026-05-01T08:18:45.999Z</time></trkpt><trkpt lat="42.35874352605878" lon="14.280693177274651"><ele>41.0</ele><time>2026-05-01T08:18:46.999Z</time></trkpt><trkpt lat="42.358847227869575" lon="14.280596502670619"><ele>41.25</ele><time>2026-05-01T08:18:47.999Z</time></trkpt><trkpt lat="42.35896173001871" lon="14.280489563711063"><ele>41.5</ele><time>2026-05-01T08:18:48.999Z</time></trkpt><trkpt lat="42.359057924493534" lon="14.280397141969939"><ele>41.75</ele><time>2026-05-01T08:18:49.999Z</time></trkpt><trkpt lat="42.35913032534219" lon="14.280281826299444"><ele>42.0</ele><time>2026-05-01T08:18:50.999Z</time></trkpt><trkpt lat="42.35920385003224" lon="14.280194827793117"><ele>42.0</ele><time>2026-05-01T08:18:51.999Z</time></trkpt><trkpt lat="42.35925711373174" lon="14.280131117943387"><ele>42.0</ele><time>2026-05-01T08:18:52.999Z</time></trkpt><trkpt lat="42.359296509300236" lon="14.280056181800965"><ele>42.0</ele><time>2026-05-01T08:18:53.999Z</time></trkpt><trkpt lat="42.35932902169302" lon="14.279981688946085"><ele>42.0</ele><time>2026-05-01T08:18:54.999Z</time></trkpt><trkpt lat="42.3593653700774" lon="14.279876051332238"><ele>42.0</ele><time>2026-05-01T08:18:56.999Z</time></trkpt><trkpt lat="42.35956053844999" lon="14.279846694747292"><ele>42.0</ele><time>2026-05-01T08:18:59.999Z</time></trkpt><trkpt lat="42.359623343419635" lon="14.279834728395414"><ele>42.0</ele><time>2026-05-01T08:19:01.999Z</time></trkpt><trkpt lat="42.3597041283591" lon="14.279839125484477"><ele>42.0</ele><time>2026-05-01T08:19:04.999Z</time></trkpt><trkpt lat="42.35978531572941" lon="14.279842106468337"><ele>42.0</ele><time>2026-05-01T08:19:06.998Z</time></trkpt><trkpt lat="42.35987897672686" lon="14.279872505990994"><ele>42.0</ele><time>2026-05-01T08:19:09.998Z</time></trkpt><trkpt lat="42.35997678506439" lon="14.279905814087419"><ele>42.0</ele><time>2026-05-01T08:19:11.998Z</time></trkpt><trkpt lat="42.360085358276386" lon="14.279945923188583"><ele>41.8</ele><time>2026-05-01T08:19:13.998Z</time></trkpt><trkpt lat="42.36017830472408" lon="14.279971148164947"><ele>41.6</ele><time>2026-05-01T08:19:14.998Z</time></trkpt><trkpt lat="42.36028407770356" lon="14.279994312768562"><ele>41.4</ele><time>2026-05-01T08:19:15.998Z</time></trkpt><trkpt lat="42.3603893442077" lon="14.280025876354422"><ele>41.199999999999996</ele><time>2026-05-01T08:19:16.998Z</time></trkpt><trkpt lat="42.360480675315145" lon="14.28003881158781"><ele>41.0</ele><time>2026-05-01T08:19:17.998Z</time></trkpt><trkpt lat="42.36057653063002" lon="14.280048105946841"><ele>41.4</ele><time>2026-05-01T08:19:18.998Z</time></trkpt><trkpt lat="42.36065536652225" lon="14.280071583009606"><ele>41.8</ele><time>2026-05-01T08:19:19.998Z</time></trkpt><trkpt lat="42.36072881703103" lon="14.280094192878225"><ele>42.199999999999996</ele><time>2026-05-01T08:19:20.998Z</time></trkpt><trkpt lat="42.36085062648144" lon="14.280140842935056"><ele>42.599999999999994</ele><time>2026-05-01T08:19:22.998Z</time></trkpt><trkpt lat="42.36096926495364" lon="14.280162124100476"><ele>43.0</ele><time>2026-05-01T08:19:24.998Z</time></trkpt><trkpt lat="42.361032605625795" lon="14.280157365310046"><ele>43.00000000000001</ele><time>2026-05-01T08:19:25.998Z</time></trkpt><trkpt lat="42.3610906246902" lon="14.280120465664256"><ele>43.0</ele><time>2026-05-01T08:19:26.998Z</time></trkpt><trkpt lat="42.36115871601858" lon="14.280069860234576"><ele>43.0</ele><time>2026-05-01T08:19:27.998Z</time></trkpt><trkpt lat="42.361222792098424" lon="14.280004464620971"><ele>43.0</ele><time>2026-05-01T08:19:29Z</time></trkpt><trkpt lat="42.36128942943573" lon="14.2799582549757"><ele>43.0</ele><time>2026-05-01T08:19:30Z</time></trkpt><trkpt lat="42.361341337953114" lon="14.279893132380927"><ele>43.00000000000001</ele><time>2026-05-01T08:19:31Z</time></trkpt><trkpt lat="42.361414265564065" lon="14.279857302400984"><ele>43.0</ele><time>2026-05-01T08:19:33Z</time></trkpt><trkpt lat="42.36148705286542" lon="14.27981652784838"><ele>43.0</ele><time>2026-05-01T08:19:34Z</time></trkpt><trkpt lat="42.36156557943185" lon="14.279763808981867"><ele>43.0</ele><time>2026-05-01T08:19:35Z</time></trkpt><trkpt lat="42.36164507017018" lon="14.279715017930235"><ele>43.0</ele><time>2026-05-01T08:19:36Z</time></trkpt><trkpt lat="42.36172922600219" lon="14.279664687043484"><ele>43.0</ele><time>2026-05-01T08:19:37Z</time></trkpt><trkpt lat="42.361830395397284" lon="14.279627962686682"><ele>43.0</ele><time>2026-05-01T08:19:38Z</time></trkpt><trkpt lat="42.361920507617114" lon="14.27958507093425"><ele>43.0</ele><time>2026-05-01T08:19:39Z</time></trkpt><trkpt lat="42.36199839164901" lon="14.279546312494547"><ele>43.0</ele><time>2026-05-01T08:19:40Z</time></trkpt><trkpt lat="42.36208202172455" lon="14.279490347415852"><ele>43.0</ele><time>2026-05-01T08:19:41Z</time></trkpt><trkpt lat="42.36216137369043" lon="14.279463110299446"><ele>43.0</ele><time>2026-05-01T08:19:42Z</time></trkpt><trkpt lat="42.36222228903954" lon="14.279487587471435"><ele>43.0</ele><time>2026-05-01T08:19:43Z</time></trkpt><trkpt lat="42.36235616183258" lon="14.279499845014321"><ele>43.0</ele><time>2026-05-01T08:19:45Z</time></trkpt><trkpt lat="42.36245571014621" lon="14.27956529404514"><ele>43.0</ele><time>2026-05-01T08:19:47Z</time></trkpt><trkpt lat="42.362516629254024" lon="14.279633734162829"><ele>43.0</ele><time>2026-05-01T08:19:48Z</time></trkpt><trkpt lat="42.36259832530616" lon="14.279680728635322"><ele>43.0</ele><time>2026-05-01T08:19:49Z</time></trkpt><trkpt lat="42.36270423605947" lon="14.279734280977156"><ele>43.0</ele><time>2026-05-01T08:19:50Z</time></trkpt><trkpt lat="42.36282284511707" lon="14.279835189608939"><ele>43.0</ele><time>2026-05-01T08:19:51Z</time></trkpt><trkpt lat="42.36295007051995" lon="14.279930187393564"><ele>43.0</ele><time>2026-05-01T08:19:52Z</time></trkpt><trkpt lat="42.36308283704414" lon="14.280013931596233"><ele>43.0</ele><time>2026-05-01T08:19:53Z</time></trkpt><trkpt lat="42.36319233563555" lon="14.280066288378281"><ele>43.0</ele><time>2026-05-01T08:19:54Z</time></trkpt><trkpt lat="42.363294596337866" lon="14.28010000425535"><ele>42.75</ele><time>2026-05-01T08:19:55Z</time></trkpt><trkpt lat="42.36340503723415" lon="14.280149863962492"><ele>42.5</ele><time>2026-05-01T08:19:56Z</time></trkpt><trkpt lat="42.36351649474475" lon="14.280209872196973"><ele>42.25</ele><time>2026-05-01T08:19:57Z</time></trkpt><trkpt lat="42.36363875521731" lon="14.280275314199177"><ele>42.0</ele><time>2026-05-01T08:19:58Z</time></trkpt><trkpt lat="42.363751363378235" lon="14.280335955437007"><ele>42.0</ele><time>2026-05-01T08:19:59Z</time></trkpt><trkpt lat="42.363849727523316" lon="14.280407031424033"><ele>42.0</ele><time>2026-05-01T08:20:00Z</time></trkpt><trkpt lat="42.363925425761195" lon="14.280497556041563"><ele>42.0</ele><time>2026-05-01T08:20:01Z</time></trkpt><trkpt lat="42.363992858043304" lon="14.280627130829075"><ele>42.0</ele><time>2026-05-01T08:20:02Z</time></trkpt><trkpt lat="42.364064391970125" lon="14.280787886037135"><ele>41.0</ele><time>2026-05-01T08:20:03Z</time></trkpt><trkpt lat="42.364144931512314" lon="14.280944223246154"><ele>40.0</ele><time>2026-05-01T08:20:04Z</time></trkpt><trkpt lat="42.36421398601264" lon="14.281092569931264"><ele>39.0</ele><time>2026-05-01T08:20:05Z</time></trkpt><trkpt lat="42.36427838407946" lon="14.28121068676995"><ele>38.0</ele><time>2026-05-01T08:20:06Z</time></trkpt><trkpt lat="42.364315599544014" lon="14.281328720519728"><ele>37.666666666666664</ele><time>2026-05-01T08:20:07Z</time></trkpt><trkpt lat="42.36433428934896" lon="14.281435428762638"><ele>37.33333333333333</ele><time>2026-05-01T08:20:08Z</time></trkpt><trkpt lat="42.36434273788494" lon="14.281523936347043"><ele>37.0</ele><time>2026-05-01T08:20:09Z</time></trkpt><trkpt lat="42.36434444092602" lon="14.281622878943443"><ele>36.666666666666664</ele><time>2026-05-01T08:20:10Z</time></trkpt><trkpt lat="42.36432838768343" lon="14.281736211547017"><ele>36.333333333333336</ele><time>2026-05-01T08:20:10.999Z</time></trkpt><trkpt lat="42.36430830801924" lon="14.281848977787726"><ele>36.0</ele><time>2026-05-01T08:20:11.999Z</time></trkpt><trkpt lat="42.3642873226417" lon="14.28193628542058"><ele>36.0</ele><time>2026-05-01T08:20:12.999Z</time></trkpt><trkpt lat="42.364251875946984" lon="14.282044530307715"><ele>36.0</ele><time>2026-05-01T08:20:14.999Z</time></trkpt><trkpt lat="42.3641814893894" lon="14.282188900572486"><ele>36.0</ele><time>2026-05-01T08:20:16.999Z</time></trkpt><trkpt lat="42.36413304440148" lon="14.282272333556142"><ele>36.0</ele><time>2026-05-01T08:20:17.999Z</time></trkpt><trkpt lat="42.364076324463575" lon="14.282428586853786"><ele>36.0</ele><time>2026-05-01T08:20:19.999Z</time></trkpt><trkpt lat="42.36408508584986" lon="14.28253718919327"><ele>36.0</ele><time>2026-05-01T08:20:20.999Z</time></trkpt><trkpt lat="42.36410345447847" lon="14.282724293965593"><ele>36.0</ele><time>2026-05-01T08:20:21.999Z</time></trkpt><trkpt lat="42.36411572517206" lon="14.282851430692325"><ele>36.0</ele><time>2026-05-01T08:20:22.999Z</time></trkpt><trkpt lat="42.36412716288132" lon="14.282937228071964"><ele>36.0</ele><time>2026-05-01T08:20:24.999Z</time></trkpt><trkpt lat="42.364201002103876" lon="14.283029287559001"><ele>36.0</ele><time>2026-05-01T08:20:26.999Z</time></trkpt><trkpt lat="42.364243912749544" lon="14.283171860836923"><ele>35.833333333333336</ele><time>2026-05-01T08:20:28.999Z</time></trkpt><trkpt lat="42.36424128216793" lon="14.283258898295802"><ele>35.666666666666664</ele><time>2026-05-01T08:20:29.999Z</time></trkpt><trkpt lat="42.36424064933772" lon="14.28336744165887"><ele>35.5</ele><time>2026-05-01T08:20:30.999Z</time></trkpt><trkpt lat="42.364247651298534" lon="14.2834823540975"><ele>35.33333333333333</ele><time>2026-05-01T08:20:31.999Z</time></trkpt><trkpt lat="42.364262765641946" lon="14.283609193193792"><ele>35.166666666666664</ele><time>2026-05-01T08:20:32.999Z</time></trkpt><trkpt lat="42.364256384277" lon="14.283762301465826"><ele>35.0</ele><time>2026-05-01T08:20:33.999Z</time></trkpt><trkpt lat="42.36426612344564" lon="14.283905368038818"><ele>34.5</ele><time>2026-05-01T08:20:34.999Z</time></trkpt><trkpt lat="42.364263390681565" lon="14.28405488601356"><ele>34.0</ele><time>2026-05-01T08:20:35.999Z</time></trkpt><trkpt lat="42.364243902586615" lon="14.284243930939626"><ele>33.5</ele><time>2026-05-01T08:20:36.999Z</time></trkpt><trkpt lat="42.36423512854513" lon="14.284445161141864"><ele>33.0</ele><time>2026-05-01T08:20:37.999Z</time></trkpt><trkpt lat="42.36422028126182" lon="14.284617791600768"><ele>33.0</ele><time>2026-05-01T08:20:38.999Z</time></trkpt><trkpt lat="42.364210225995535" lon="14.284768683855802"><ele>33.0</ele><time>2026-05-01T08:20:39.999Z</time></trkpt><trkpt lat="42.36419129761402" lon="14.284919099755351"><ele>33.0</ele><time>2026-05-01T08:20:40.999Z</time></trkpt><trkpt lat="42.36417413821615" lon="14.285081078994583"><ele>33.0</ele><time>2026-05-01T08:20:41.999Z</time></trkpt><trkpt lat="42.36416679592847" lon="14.285207349755733"><ele>33.0</ele><time>2026-05-01T08:20:42.999Z</time></trkpt><trkpt lat="42.36417376485567" lon="14.285328012495775"><ele>33.0</ele><time>2026-05-01T08:20:43.999Z</time></trkpt><trkpt lat="42.36419346552269" lon="14.285474433909496"><ele>33.0</ele><time>2026-05-01T08:20:44.999Z</time></trkpt><trkpt lat="42.364214089221676" lon="14.285657396057442"><ele>33.0</ele><time>2026-05-01T08:20:45.999Z</time></trkpt><trkpt lat="42.364254723197064" lon="14.28583722242333"><ele>33.0</ele><time>2026-05-01T08:20:46.999Z</time></trkpt><trkpt lat="42.364293890958194" lon="14.285967555289085"><ele>33.199999999999996</ele><time>2026-05-01T08:20:47.999Z</time></trkpt><trkpt lat="42.364348438799205" lon="14.286104770073832"><ele>33.4</ele><time>2026-05-01T08:20:48.999Z</time></trkpt><trkpt lat="42.364423715162886" lon="14.286257627586437"><ele>33.599999999999994</ele><time>2026-05-01T08:20:49.999Z</time></trkpt><trkpt lat="42.36447580311706" lon="14.28637386482173"><ele>33.8</ele><time>2026-05-01T08:20:50.999Z</time></trkpt><trkpt lat="42.364526394703475" lon="14.286452493226049"><ele>34.0</ele><time>2026-05-01T08:20:51.999Z</time></trkpt><trkpt lat="42.364603258209684" lon="14.286531909192865"><ele>34.0</ele><time>2026-05-01T08:20:52.999Z</time></trkpt><trkpt lat="42.36467966665292" lon="14.286621874809526"><ele>34.0</ele><time>2026-05-01T08:20:53.999Z</time></trkpt><trkpt lat="42.36475520873372" lon="14.286687916479426"><ele>34.0</ele><time>2026-05-01T08:20:54.999Z</time></trkpt><trkpt lat="42.36482836154432" lon="14.286733154670673"><ele>34.0</ele><time>2026-05-01T08:20:55.999Z</time></trkpt><trkpt lat="42.36492735976859" lon="14.286843605088462"><ele>34.0</ele><time>2026-05-01T08:20:57.999Z</time></trkpt><trkpt lat="42.36499374862437" lon="14.286915125637083"><ele>34.16666666666667</ele><time>2026-05-01T08:20:58.999Z</time></trkpt><trkpt lat="42.36507058952077" lon="14.286982229743685"><ele>34.333333333333336</ele><time>2026-05-01T08:20:59.999Z</time></trkpt><trkpt lat="42.36511781582616" lon="14.28704664784929"><ele>34.5</ele><time>2026-05-01T08:21:00.999Z</time></trkpt><trkpt lat="42.36519493586271" lon="14.287124846315725"><ele>34.666666666666664</ele><time>2026-05-01T08:21:01.999Z</time></trkpt><trkpt lat="42.36525391930213" lon="14.287195283148634"><ele>34.83333333333333</ele><time>2026-05-01T08:21:02.999Z</time></trkpt><trkpt lat="42.36532539876293" lon="14.287248482027133"><ele>35.0</ele><time>2026-05-01T08:21:04.999Z</time></trkpt><trkpt lat="42.365397767196356" lon="14.287298163999354"><ele>35.166666666666664</ele><time>2026-05-01T08:21:07.999Z</time></trkpt><trkpt lat="42.36547870319901" lon="14.287332903558253"><ele>35.33333333333333</ele><time>2026-05-01T08:21:09.999Z</time></trkpt><trkpt lat="42.36556856142891" lon="14.287379586602459"><ele>35.5</ele><time>2026-05-01T08:21:11.999Z</time></trkpt><trkpt lat="42.365674281557155" lon="14.2873952946337"><ele>35.666666666666664</ele><time>2026-05-01T08:21:13.999Z</time></trkpt><trkpt lat="42.36574832979333" lon="14.287416846125824"><ele>35.833333333333336</ele><time>2026-05-01T08:21:14.999Z</time></trkpt><trkpt lat="42.365814774053185" lon="14.287430789290427"><ele>36.0</ele><time>2026-05-01T08:21:15.999Z</time></trkpt><trkpt lat="42.36590724537414" lon="14.287434613012723"><ele>36.0</ele><time>2026-05-01T08:21:17.998Z</time></trkpt><trkpt lat="42.36597939213122" lon="14.287416623833105"><ele>36.0</ele><time>2026-05-01T08:21:18.998Z</time></trkpt><trkpt lat="42.366057301940025" lon="14.287344493049016"><ele>36.0</ele><time>2026-05-01T08:21:19.998Z</time></trkpt><trkpt lat="42.36614628456011" lon="14.28728960625694"><ele>36.0</ele><time>2026-05-01T08:21:20.998Z</time></trkpt><trkpt lat="42.366222412322" lon="14.287249462807104"><ele>36.0</ele><time>2026-05-01T08:21:21.998Z</time></trkpt><trkpt lat="42.366292618663145" lon="14.287240678712507"><ele>36.0</ele><time>2026-05-01T08:21:22.998Z</time></trkpt><trkpt lat="42.366364761066265" lon="14.287193605631945"><ele>36.0</ele><time>2026-05-01T08:21:23.998Z</time></trkpt><trkpt lat="42.366449486865804" lon="14.287217305426697"><ele>36.0</ele><time>2026-05-01T08:21:24.998Z</time></trkpt><trkpt lat="42.36652276148772" lon="14.287256050218117"><ele>36.0</ele><time>2026-05-01T08:21:25.998Z</time></trkpt><trkpt lat="42.36655911615351" lon="14.287335514489538"><ele>36.0</ele><time>2026-05-01T08:21:26.998Z</time></trkpt><trkpt lat="42.36657430973638" lon="14.287423719800133"><ele>36.0</ele><time>2026-05-01T08:21:27.998Z</time></trkpt><trkpt lat="42.36659474850829" lon="14.287547285971515"><ele>36.0</ele><time>2026-05-01T08:21:28.998Z</time></trkpt><trkpt lat="42.36662571496164" lon="14.287731502291338"><ele>35.75</ele><time>2026-05-01T08:21:29.998Z</time></trkpt><trkpt lat="42.3666747567483" lon="14.287922414987143"><ele>35.5</ele><time>2026-05-01T08:21:30.998Z</time></trkpt><trkpt lat="42.36669471205976" lon="14.28812316536967"><ele>35.25</ele><time>2026-05-01T08:21:31.998Z</time></trkpt><trkpt lat="42.366736684686686" lon="14.288282352824138"><ele>35.0</ele><time>2026-05-01T08:21:32.998Z</time></trkpt><trkpt lat="42.366777698627146" lon="14.288458153239935"><ele>34.75</ele><time>2026-05-01T08:21:33.998Z</time></trkpt><trkpt lat="42.36682351403283" lon="14.288629213434856"><ele>34.5</ele><time>2026-05-01T08:21:35Z</time></trkpt><trkpt lat="42.366863530143355" lon="14.28876811532096"><ele>34.25</ele><time>2026-05-01T08:21:36Z</time></trkpt><trkpt lat="42.366877897010454" lon="14.288907987363121"><ele>34.0</ele><time>2026-05-01T08:21:37Z</time></trkpt><trkpt lat="42.36688931133918" lon="14.289057178064327"><ele>33.75</ele><time>2026-05-01T08:21:38Z</time></trkpt><trkpt lat="42.36691154582298" lon="14.289205935677003"><ele>33.5</ele><time>2026-05-01T08:21:39Z</time></trkpt><trkpt lat="42.36692923397066" lon="14.289370038459033"><ele>33.25</ele><time>2026-05-01T08:21:40Z</time></trkpt><trkpt lat="42.366954327612255" lon="14.289571848536688"><ele>33.0</ele><time>2026-05-01T08:21:41Z</time></trkpt><trkpt lat="42.36698149303106" lon="14.289770028596836"><ele>33.0</ele><time>2026-05-01T08:21:42Z</time></trkpt><trkpt lat="42.36700494534279" lon="14.289930043956575"><ele>33.0</ele><time>2026-05-01T08:21:43Z</time></trkpt><trkpt lat="42.3670255687362" lon="14.290091783775775"><ele>33.0</ele><time>2026-05-01T08:21:44Z</time></trkpt><trkpt lat="42.36704175915671" lon="14.29023577128323"><ele>33.0</ele><time>2026-05-01T08:21:45Z</time></trkpt><trkpt lat="42.36705217565607" lon="14.290337434857804"><ele>33.0</ele><time>2026-05-01T08:21:46Z</time></trkpt><trkpt lat="42.36707817750742" lon="14.290422536946869"><ele>33.0</ele><time>2026-05-01T08:21:47Z</time></trkpt><trkpt lat="42.36711620892276" lon="14.290498138731897"><ele>33.0</ele><time>2026-05-01T08:21:48Z</time></trkpt><trkpt lat="42.367157359754124" lon="14.29058543232827"><ele>33.0</ele><time>2026-05-01T08:21:49Z</time></trkpt><trkpt lat="42.367199848201935" lon="14.29067802935396"><ele>33.0</ele><time>2026-05-01T08:21:50Z</time></trkpt><trkpt lat="42.36723278511345" lon="14.290752134840133"><ele>33.0</ele><time>2026-05-01T08:21:51Z</time></trkpt><trkpt lat="42.36727824348923" lon="14.29081154209505"><ele>33.0</ele><time>2026-05-01T08:21:52Z</time></trkpt><trkpt lat="42.367339025516934" lon="14.290882036418846"><ele>33.0</ele><time>2026-05-01T08:21:53Z</time></trkpt><trkpt lat="42.367433301565654" lon="14.290987272990357"><ele>33.25</ele><time>2026-05-01T08:21:54Z</time></trkpt><trkpt lat="42.36753070627093" lon="14.291110887000404"><ele>33.5</ele><time>2026-05-01T08:21:55Z</time></trkpt><trkpt lat="42.367626014412075" lon="14.291236735502128"><ele>33.75</ele><time>2026-05-01T08:21:56Z</time></trkpt><trkpt lat="42.367709829685545" lon="14.291409323779362"><ele>34.0</ele><time>2026-05-01T08:21:57Z</time></trkpt><trkpt lat="42.36778217785073" lon="14.291563841762034"><ele>33.0</ele><time>2026-05-01T08:21:58Z</time></trkpt><trkpt lat="42.36784319006068" lon="14.291692944364119"><ele>32.0</ele><time>2026-05-01T08:21:59Z</time></trkpt><trkpt lat="42.36791723986635" lon="14.29180204107303"><ele>31.0</ele><time>2026-05-01T08:22:00Z</time></trkpt><trkpt lat="42.367977584749156" lon="14.291938737884855"><ele>30.0</ele><time>2026-05-01T08:22:01Z</time></trkpt><trkpt lat="42.3680522299447" lon="14.292121129165283"><ele>30.0</ele><time>2026-05-01T08:22:02Z</time></trkpt><trkpt lat="42.368099749889694" lon="14.292294276793093"><ele>30.0</ele><time>2026-05-01T08:22:03Z</time></trkpt><trkpt lat="42.36812737157438" lon="14.292451143522763"><ele>30.0</ele><time>2026-05-01T08:22:04Z</time></trkpt><trkpt lat="42.36816425087833" lon="14.292610435863997"><ele>30.0</ele><time>2026-05-01T08:22:05Z</time></trkpt><trkpt lat="42.36819267663441" lon="14.292771602992739"><ele>30.0</ele><time>2026-05-01T08:22:06Z</time></trkpt><trkpt lat="42.368225197891384" lon="14.2929308719379"><ele>30.0</ele><time>2026-05-01T08:22:07Z</time></trkpt><trkpt lat="42.368256984154755" lon="14.29309063097576"><ele>30.0</ele><time>2026-05-01T08:22:08Z</time></trkpt><trkpt lat="42.36828662521091" lon="14.293247669480825"><ele>30.0</ele><time>2026-05-01T08:22:09Z</time></trkpt><trkpt lat="42.36832205573419" lon="14.293384390386882"><ele>30.0</ele><time>2026-05-01T08:22:10Z</time></trkpt><trkpt lat="42.36836278014407" lon="14.29350125185574"><ele>30.0</ele><time>2026-05-01T08:22:11Z</time></trkpt><trkpt lat="42.368402519179114" lon="14.293589934349088"><ele>30.0</ele><time>2026-05-01T08:22:12Z</time></trkpt><trkpt lat="42.36843199523918" lon="14.293757586344944"><ele>30.0</ele><time>2026-05-01T08:22:14Z</time></trkpt><trkpt lat="42.36846694413886" lon="14.293909376071266"><ele>30.0</ele><time>2026-05-01T08:22:16Z</time></trkpt><trkpt lat="42.36844958644804" lon="14.294106554618299"><ele>29.8</ele><time>2026-05-01T08:22:17Z</time></trkpt><trkpt lat="42.36848091496173" lon="14.294184061144836"><ele>29.6</ele><time>2026-05-01T08:22:18Z</time></trkpt><trkpt lat="42.36851404353707" lon="14.294371671754345"><ele>29.4</ele><time>2026-05-01T08:22:19Z</time></trkpt><trkpt lat="42.36853336560714" lon="14.294536447084049"><ele>29.2</ele><time>2026-05-01T08:22:20Z</time></trkpt><trkpt lat="42.36855973790063" lon="14.294680133832777"><ele>29.0</ele><time>2026-05-01T08:22:21Z</time></trkpt><trkpt lat="42.368561156184" lon="14.29479400321323"><ele>28.999999999999996</ele><time>2026-05-01T08:22:22Z</time></trkpt><trkpt lat="42.368551242088714" lon="14.294888012892276"><ele>29.0</ele><time>2026-05-01T08:22:22.999Z</time></trkpt><trkpt lat="42.36852083938788" lon="14.295033222015292"><ele>29.0</ele><time>2026-05-01T08:22:24.999Z</time></trkpt><trkpt lat="42.36852050872606" lon="14.295155137292452"><ele>29.0</ele><time>2026-05-01T08:22:26.999Z</time></trkpt><trkpt lat="42.36854942927847" lon="14.2952737679122"><ele>28.999999999999996</ele><time>2026-05-01T08:22:29.999Z</time></trkpt><trkpt lat="42.368591698422826" lon="14.295371774712361"><ele>29.0</ele><time>2026-05-01T08:22:30.999Z</time></trkpt><trkpt lat="42.368643495153655" lon="14.295493993660488"><ele>29.0</ele><time>2026-05-01T08:22:31.999Z</time></trkpt><trkpt lat="42.36871379028927" lon="14.295661759182156"><ele>29.0</ele><time>2026-05-01T08:22:32.999Z</time></trkpt><trkpt lat="42.368763077496794" lon="14.295829272676752"><ele>29.0</ele><time>2026-05-01T08:22:33.999Z</time></trkpt><trkpt lat="42.36880951453853" lon="14.295969779897383"><ele>29.0</ele><time>2026-05-01T08:22:34.999Z</time></trkpt><trkpt lat="42.36887668929774" lon="14.296116390478671"><ele>28.75</ele><time>2026-05-01T08:22:35.999Z</time></trkpt><trkpt lat="42.368949011011345" lon="14.296266223806658"><ele>28.5</ele><time>2026-05-01T08:22:36.999Z</time></trkpt><trkpt lat="42.36902290209849" lon="14.296422259148608"><ele>28.25</ele><time>2026-05-01T08:22:37.999Z</time></trkpt><trkpt lat="42.3690993559147" lon="14.2965720070104"><ele>28.0</ele><time>2026-05-01T08:22:38.999Z</time></trkpt><trkpt lat="42.36915993966309" lon="14.296706355055056"><ele>28.4</ele><time>2026-05-01T08:22:39.999Z</time></trkpt><trkpt lat="42.369210535348486" lon="14.296809715113634"><ele>28.799999999999997</ele><time>2026-05-01T08:22:40.999Z</time></trkpt><trkpt lat="42.369273070585834" lon="14.296931456252857"><ele>29.2</ele><time>2026-05-01T08:22:41.999Z</time></trkpt><trkpt lat="42.36932641089502" lon="14.297059118415604"><ele>29.6</ele><time>2026-05-01T08:22:42.999Z</time></trkpt><trkpt lat="42.36937784489282" lon="14.297184199924148"><ele>30.0</ele><time>2026-05-01T08:22:43.999Z</time></trkpt><trkpt lat="42.369436617717035" lon="14.297309951984523"><ele>30.0</ele><time>2026-05-01T08:22:44.999Z</time></trkpt><trkpt lat="42.36949863830295" lon="14.29743843521677"><ele>30.0</ele><time>2026-05-01T08:22:45.999Z</time></trkpt><trkpt lat="42.36955802304653" lon="14.297565509546612"><ele>30.0</ele><time>2026-05-01T08:22:46.999Z</time></trkpt><trkpt lat="42.36962678549334" lon="14.2977146207047"><ele>30.0</ele><time>2026-05-01T08:22:47.999Z</time></trkpt><trkpt lat="42.36966483870236" lon="14.29780864266969"><ele>30.0</ele><time>2026-05-01T08:22:48.999Z</time></trkpt><trkpt lat="42.369704795168886" lon="14.297911198261298"><ele>29.833333333333332</ele><time>2026-05-01T08:22:49.999Z</time></trkpt><trkpt lat="42.369769035797994" lon="14.298005139014567"><ele>29.666666666666664</ele><time>2026-05-01T08:22:50.999Z</time></trkpt><trkpt lat="42.36980994571272" lon="14.298079644417529"><ele>29.5</ele><time>2026-05-01T08:22:51.999Z</time></trkpt><trkpt lat="42.36984229858864" lon="14.298162924610123"><ele>29.333333333333332</ele><time>2026-05-01T08:22:52.999Z</time></trkpt><trkpt lat="42.3699086070467" lon="14.29829147708768"><ele>29.166666666666664</ele><time>2026-05-01T08:22:54.999Z</time></trkpt><trkpt lat="42.36995856993341" lon="14.298357812585222"><ele>29.0</ele><time>2026-05-01T08:22:55.999Z</time></trkpt><trkpt lat="42.37000969379517" lon="14.298430079559006"><ele>29.0</ele><time>2026-05-01T08:22:56.999Z</time></trkpt><trkpt lat="42.37006235467577" lon="14.298500533448879"><ele>29.0</ele><time>2026-05-01T08:22:57.999Z</time></trkpt><trkpt lat="42.37013400876755" lon="14.298572563102143"><ele>29.0</ele><time>2026-05-01T08:22:58.999Z</time></trkpt><trkpt lat="42.370219851818604" lon="14.29866235838676"><ele>29.0</ele><time>2026-05-01T08:22:59.999Z</time></trkpt><trkpt lat="42.37033922468509" lon="14.298765291722475"><ele>29.0</ele><time>2026-05-01T08:23:00.999Z</time></trkpt><trkpt lat="42.37045069985103" lon="14.29887290937959"><ele>28.6</ele><time>2026-05-01T08:23:01.999Z</time></trkpt><trkpt lat="42.370571856849104" lon="14.299009947818387"><ele>28.2</ele><time>2026-05-01T08:23:02.999Z</time></trkpt><trkpt lat="42.370671192366295" lon="14.299105665046762"><ele>27.800000000000004</ele><time>2026-05-01T08:23:03.999Z</time></trkpt><trkpt lat="42.37073971903203" lon="14.29915828931497"><ele>27.400000000000002</ele><time>2026-05-01T08:23:04.999Z</time></trkpt><trkpt lat="42.3707997378319" lon="14.299224852701137"><ele>27.0</ele><time>2026-05-01T08:23:05.999Z</time></trkpt><trkpt lat="42.37087720168746" lon="14.29930100231006"><ele>27.0</ele><time>2026-05-01T08:23:07.999Z</time></trkpt><trkpt lat="42.37096030612508" lon="14.299358394283802"><ele>27.000000000000004</ele><time>2026-05-01T08:23:09.999Z</time></trkpt><trkpt lat="42.371055814174646" lon="14.299429365409468"><ele>27.000000000000004</ele><time>2026-05-01T08:23:11.999Z</time></trkpt><trkpt lat="42.37116356747153" lon="14.299472494602233"><ele>27.0</ele><time>2026-05-01T08:23:13.999Z</time></trkpt><trkpt lat="42.37127095845523" lon="14.299484877460978"><ele>27.0</ele><time>2026-05-01T08:23:15.999Z</time></trkpt><trkpt lat="42.371394738527734" lon="14.299475398880528"><ele>26.833333333333332</ele><time>2026-05-01T08:23:17.999Z</time></trkpt><trkpt lat="42.371471560861565" lon="14.299465598812063"><ele>26.666666666666664</ele><time>2026-05-01T08:23:18.999Z</time></trkpt><trkpt lat="42.37154517589111" lon="14.29945843609726"><ele>26.5</ele><time>2026-05-01T08:23:19.999Z</time></trkpt><trkpt lat="42.37161776951495" lon="14.299456931417199"><ele>26.333333333333332</ele><time>2026-05-01T08:23:20.999Z</time></trkpt><trkpt lat="42.37169990146248" lon="14.299451189628458"><ele>26.166666666666664</ele><time>2026-05-01T08:23:21.999Z</time></trkpt><trkpt lat="42.371774946350534" lon="14.299452435296706"><ele>26.0</ele><time>2026-05-01T08:23:22.999Z</time></trkpt><trkpt lat="42.37187562218659" lon="14.299477317414414"><ele>25.999999999999996</ele><time>2026-05-01T08:23:24.999Z</time></trkpt><trkpt lat="42.3719429454306" lon="14.299484709760076"><ele>26.0</ele><time>2026-05-01T08:23:26.999Z</time></trkpt><trkpt lat="42.37200182851603" lon="14.299525570334005"><ele>26.0</ele><time>2026-05-01T08:23:28.999Z</time></trkpt><trkpt lat="42.372069918181" lon="14.299613458928764"><ele>26.0</ele><time>2026-05-01T08:23:30.999Z</time></trkpt><trkpt lat="42.372155507067596" lon="14.29970486875187"><ele>25.999999999999996</ele><time>2026-05-01T08:23:32.998Z</time></trkpt><trkpt lat="42.372193385050615" lon="14.299784251858435"><ele>26.0</ele><time>2026-05-01T08:23:34.998Z</time></trkpt><trkpt lat="42.37229350371597" lon="14.299879449351574"><ele>25.833333333333332</ele><time>2026-05-01T08:23:35.998Z</time></trkpt><trkpt lat="42.37231578038736" lon="14.300001689268855"><ele>25.666666666666664</ele><time>2026-05-01T08:23:36.998Z</time></trkpt><trkpt lat="42.37234679162999" lon="14.300103967190276"><ele>25.5</ele><time>2026-05-01T08:23:37.998Z</time></trkpt><trkpt lat="42.37239308447852" lon="14.300211522036514"><ele>25.333333333333336</ele><time>2026-05-01T08:23:38.998Z</time></trkpt><trkpt lat="42.37242832601432" lon="14.300314339652203"><ele>25.166666666666668</ele><time>2026-05-01T08:23:39.998Z</time></trkpt><trkpt lat="42.372470760673195" lon="14.300410955570678"><ele>25.0</ele><time>2026-05-01T08:23:41Z</time></trkpt><trkpt lat="42.37251937386871" lon="14.300511323100846"><ele>24.666666666666668</ele><time>2026-05-01T08:23:42Z</time></trkpt><trkpt lat="42.372570301697564" lon="14.30060760983886"><ele>24.333333333333336</ele><time>2026-05-01T08:23:43Z</time></trkpt><trkpt lat="42.37260896737211" lon="14.300718913615297"><ele>24.0</ele><time>2026-05-01T08:23:44Z</time></trkpt><trkpt lat="42.37266829968525" lon="14.30082361660028"><ele>23.666666666666668</ele><time>2026-05-01T08:23:45Z</time></trkpt><trkpt lat="42.3727312671566" lon="14.300879622836032"><ele>23.333333333333336</ele><time>2026-05-01T08:23:46Z</time></trkpt><trkpt lat="42.372804183052125" lon="14.300945470473497"><ele>23.0</ele><time>2026-05-01T08:23:47Z</time></trkpt><trkpt lat="42.372893113851845" lon="14.301001310553659"><ele>23.0</ele><time>2026-05-01T08:23:48Z</time></trkpt><trkpt lat="42.37297374977784" lon="14.301037739073111"><ele>23.0</ele><time>2026-05-01T08:23:49Z</time></trkpt><trkpt lat="42.373098241256876" lon="14.30103725558619"><ele>23.0</ele><time>2026-05-01T08:23:51Z</time></trkpt><trkpt lat="42.37317249016486" lon="14.301058355983804"><ele>23.0</ele><time>2026-05-01T08:23:52Z</time></trkpt><trkpt lat="42.373257254580594" lon="14.301045045532721"><ele>23.0</ele><time>2026-05-01T08:23:53Z</time></trkpt><trkpt lat="42.37335988808667" lon="14.301003177618739"><ele>23.0</ele><time>2026-05-01T08:23:54Z</time></trkpt><trkpt lat="42.3734931606243" lon="14.300936169793985"><ele>23.0</ele><time>2026-05-01T08:23:55Z</time></trkpt><trkpt lat="42.373627874788085" lon="14.300870661768096"><ele>23.0</ele><time>2026-05-01T08:23:56Z</time></trkpt><trkpt lat="42.37373028525" lon="14.300814745392998"><ele>23.0</ele><time>2026-05-01T08:23:57Z</time></trkpt><trkpt lat="42.37380859657568" lon="14.30077331903894"><ele>23.0</ele><time>2026-05-01T08:23:58Z</time></trkpt><trkpt lat="42.3738828124741" lon="14.300738878684639"><ele>23.0</ele><time>2026-05-01T08:23:59Z</time></trkpt><trkpt lat="42.37397377639474" lon="14.300694432040311"><ele>23.0</ele><time>2026-05-01T08:24:00Z</time></trkpt><trkpt lat="42.374080505922564" lon="14.300648691781586"><ele>23.0</ele><time>2026-05-01T08:24:01Z</time></trkpt><trkpt lat="42.374209824981264" lon="14.300584644625955"><ele>23.0</ele><time>2026-05-01T08:24:02Z</time></trkpt><trkpt lat="42.3743056903624" lon="14.300537604208902"><ele>23.0</ele><time>2026-05-01T08:24:03Z</time></trkpt><trkpt lat="42.374394119075376" lon="14.300489842535995"><ele>23.0</ele><time>2026-05-01T08:24:04Z</time></trkpt><trkpt lat="42.37447781108488" lon="14.300465885869338"><ele>23.0</ele><time>2026-05-01T08:24:05Z</time></trkpt><trkpt lat="42.37456238056988" lon="14.300464852472032"><ele>23.0</ele><time>2026-05-01T08:24:06Z</time></trkpt><trkpt lat="42.3746482843829" lon="14.30049393240859"><ele>23.0</ele><time>2026-05-01T08:24:07Z</time></trkpt><trkpt lat="42.37472533575082" lon="14.30054968141799"><ele>23.0</ele><time>2026-05-01T08:24:08Z</time></trkpt><trkpt lat="42.37480349624952" lon="14.300631866283117"><ele>23.0</ele><time>2026-05-01T08:24:09Z</time></trkpt><trkpt lat="42.37486276264143" lon="14.30072947132678"><ele>23.0</ele><time>2026-05-01T08:24:10Z</time></trkpt><trkpt lat="42.37490754992783" lon="14.300846522261335"><ele>23.0</ele><time>2026-05-01T08:24:11Z</time></trkpt><trkpt lat="42.37492969356925" lon="14.300953854920117"><ele>23.0</ele><time>2026-05-01T08:24:12Z</time></trkpt><trkpt lat="42.374944688673594" lon="14.301087727756581"><ele>23.0</ele><time>2026-05-01T08:24:13Z</time></trkpt><trkpt lat="42.37493296497616" lon="14.30126038605667"><ele>22.599999999999998</ele><time>2026-05-01T08:24:14Z</time></trkpt><trkpt lat="42.37492884999941" lon="14.301434041262707"><ele>22.2</ele><time>2026-05-01T08:24:15Z</time></trkpt><trkpt lat="42.37492149878191" lon="14.301600098505315"><ele>21.8</ele><time>2026-05-01T08:24:16Z</time></trkpt><trkpt lat="42.374921283385035" lon="14.301731776269452"><ele>21.4</ele><time>2026-05-01T08:24:17Z</time></trkpt><trkpt lat="42.37491177990405" lon="14.301847925168413"><ele>21.0</ele><time>2026-05-01T08:24:18Z</time></trkpt><trkpt lat="42.374911328549416" lon="14.301958094519104"><ele>21.0</ele><time>2026-05-01T08:24:19Z</time></trkpt><trkpt lat="42.3749182479236" lon="14.302069159728573"><ele>21.0</ele><time>2026-05-01T08:24:20Z</time></trkpt><trkpt lat="42.374931375664616" lon="14.302179767340855"><ele>21.0</ele><time>2026-05-01T08:24:21Z</time></trkpt><trkpt lat="42.374951045444256" lon="14.302264186017423"><ele>21.0</ele><time>2026-05-01T08:24:21.999Z</time></trkpt><trkpt lat="42.37497910298893" lon="14.30237842976783"><ele>21.0</ele><time>2026-05-01T08:24:23.999Z</time></trkpt><trkpt lat="42.375040955461685" lon="14.30250538484934"><ele>21.0</ele><time>2026-05-01T08:24:25.999Z</time></trkpt><trkpt lat="42.37508593424797" lon="14.302594703284857"><ele>21.5</ele><time>2026-05-01T08:24:26.999Z</time></trkpt><trkpt lat="42.375137216969314" lon="14.302669145205039"><ele>22.0</ele><time>2026-05-01T08:24:27.999Z</time></trkpt><trkpt lat="42.3751986881575" lon="14.302746789828944"><ele>22.5</ele><time>2026-05-01T08:24:28.999Z</time></trkpt><trkpt lat="42.37526670529774" lon="14.302809297866286"><ele>23.0</ele><time>2026-05-01T08:24:29.999Z</time></trkpt><trkpt lat="42.37533338014946" lon="14.302860202306155"><ele>23.5</ele><time>2026-05-01T08:24:30.999Z</time></trkpt><trkpt lat="42.375409712780176" lon="14.302904793379755"><ele>24.0</ele><time>2026-05-01T08:24:31.999Z</time></trkpt><trkpt lat="42.375483125567406" lon="14.302949063409397"><ele>23.6</ele><time>2026-05-01T08:24:32.999Z</time></trkpt><trkpt lat="42.37556687601196" lon="14.303005547680817"><ele>23.2</ele><time>2026-05-01T08:24:33.999Z</time></trkpt><trkpt lat="42.37565465315698" lon="14.303061602619644"><ele>22.8</ele><time>2026-05-01T08:24:34.999Z</time></trkpt><trkpt lat="42.37573307796716" lon="14.303116798647517"><ele>22.400000000000002</ele><time>2026-05-01T08:24:35.999Z</time></trkpt><trkpt lat="42.37581539640211" lon="14.303166604559243"><ele>22.0</ele><time>2026-05-01T08:24:36.999Z</time></trkpt><trkpt lat="42.375884926193606" lon="14.303223118798437"><ele>22.0</ele><time>2026-05-01T08:24:37.999Z</time></trkpt><trkpt lat="42.37595712803061" lon="14.303268577085065"><ele>22.0</ele><time>2026-05-01T08:24:38.999Z</time></trkpt><trkpt lat="42.37601090875563" lon="14.303328695892677"><ele>22.0</ele><time>2026-05-01T08:24:39.999Z</time></trkpt><trkpt lat="42.376074984868545" lon="14.303390698209789"><ele>22.0</ele><time>2026-05-01T08:24:40.999Z</time></trkpt><trkpt lat="42.376134099456195" lon="14.303423203819511"><ele>22.0</ele><time>2026-05-01T08:24:41.999Z</time></trkpt><trkpt lat="42.37623112950556" lon="14.303373863252592"><ele>22.0</ele><time>2026-05-01T08:24:43.999Z</time></trkpt><trkpt lat="42.376269103713355" lon="14.303245225418856"><ele>22.0</ele><time>2026-05-01T08:24:45.999Z</time></trkpt><trkpt lat="42.3762858083806" lon="14.303143377660767"><ele>22.0</ele><time>2026-05-01T08:24:46.999Z</time></trkpt><trkpt lat="42.37630201703645" lon="14.302972975749933"><ele>22.0</ele><time>2026-05-01T08:24:47.999Z</time></trkpt><trkpt lat="42.37631537455347" lon="14.30284130848124"><ele>22.0</ele><time>2026-05-01T08:24:48.999Z</time></trkpt><trkpt lat="42.376313434295945" lon="14.302715806622894"><ele>22.0</ele><time>2026-05-01T08:24:50.999Z</time></trkpt><trkpt lat="42.3762196994466" lon="14.302639391307022"><ele>21.833333333333332</ele><time>2026-05-01T08:24:52.999Z</time></trkpt><trkpt lat="42.37614272159516" lon="14.30263583173029"><ele>21.666666666666664</ele><time>2026-05-01T08:24:53.999Z</time></trkpt><trkpt lat="42.37605531257467" lon="14.30264827519683"><ele>21.5</ele><time>2026-05-01T08:24:54.999Z</time></trkpt><trkpt lat="42.37597138789629" lon="14.30267204376138"><ele>21.333333333333332</ele><time>2026-05-01T08:24:55.999Z</time></trkpt><trkpt lat="42.37590461233962" lon="14.302681012060468"><ele>21.166666666666668</ele><time>2026-05-01T08:24:56.999Z</time></trkpt><trkpt lat="42.375821584345374" lon="14.302644796050815"><ele>21.0</ele><time>2026-05-01T08:24:58.999Z</time></trkpt><trkpt lat="42.37580836841057" lon="14.302559338521846"><ele>21.0</ele><time>2026-05-01T08:25:00.999Z</time></trkpt><trkpt lat="42.375747372544765" lon="14.302284218430788"><ele>21.0</ele><time>2026-05-01T08:25:02.999Z</time></trkpt><trkpt lat="42.375807569447005" lon="14.302125996928096"><ele>21.0</ele><time>2026-05-01T08:25:03.999Z</time></trkpt><trkpt lat="42.37588325454623" lon="14.30192706621559"><ele>22.333333333333336</ele><time>2026-05-01T08:25:04.999Z</time></trkpt><trkpt lat="42.375968231107294" lon="14.301750523018331"><ele>23.666666666666668</ele><time>2026-05-01T08:25:05.999Z</time></trkpt><trkpt lat="42.37603198051291" lon="14.301557266433857"><ele>25.0</ele><time>2026-05-01T08:25:06.999Z</time></trkpt><trkpt lat="42.37611114836242" lon="14.301328070149852"><ele>26.333333333333336</ele><time>2026-05-01T08:25:07.999Z</time></trkpt><trkpt lat="42.37621374526586" lon="14.301081155267859"><ele>27.666666666666664</ele><time>2026-05-01T08:25:08.999Z</time></trkpt><trkpt lat="42.37629546636877" lon="14.300867287766177"><ele>29.0</ele><time>2026-05-01T08:25:09.999Z</time></trkpt><trkpt lat="42.376369349226586" lon="14.300681270878824"><ele>30.0</ele><time>2026-05-01T08:25:10.999Z</time></trkpt><trkpt lat="42.376418844962025" lon="14.30054062482943"><ele>31.0</ele><time>2026-05-01T08:25:11.999Z</time></trkpt><trkpt lat="42.376452250002885" lon="14.30043620751518"><ele>32.0</ele><time>2026-05-01T08:25:12.999Z</time></trkpt><trkpt lat="42.376494313803676" lon="14.300339265584789"><ele>33.0</ele><time>2026-05-01T08:25:14.999Z</time></trkpt><trkpt lat="42.37667770780616" lon="14.30043485621118"><ele>33.0</ele><time>2026-05-01T08:25:18.999Z</time></trkpt><trkpt lat="42.376763799943525" lon="14.300523889888629"><ele>33.0</ele><time>2026-05-01T08:25:19.999Z</time></trkpt><trkpt lat="42.376864490663834" lon="14.300658739069453"><ele>33.0</ele><time>2026-05-01T08:25:20.999Z</time></trkpt><trkpt lat="42.376979730633586" lon="14.30080075786741"><ele>33.0</ele><time>2026-05-01T08:25:21.999Z</time></trkpt><trkpt lat="42.377102577182754" lon="14.300919451815895"><ele>32.0</ele><time>2026-05-01T08:25:22.999Z</time></trkpt><trkpt lat="42.37723650842734" lon="14.301010625639563"><ele>31.0</ele><time>2026-05-01T08:25:23.999Z</time></trkpt><trkpt lat="42.37737751559241" lon="14.301080923146444"><ele>30.0</ele><time>2026-05-01T08:25:24.999Z</time></trkpt><trkpt lat="42.37753663298592" lon="14.301139374497183"><ele>30.0</ele><time>2026-05-01T08:25:25.999Z</time></trkpt><trkpt lat="42.37771577206581" lon="14.30119306506957"><ele>30.0</ele><time>2026-05-01T08:25:26.999Z</time></trkpt><trkpt lat="42.377898955637214" lon="14.301242163829022"><ele>30.0</ele><time>2026-05-01T08:25:27.999Z</time></trkpt><trkpt lat="42.378082284578696" lon="14.301296910167238"><ele>30.0</ele><time>2026-05-01T08:25:28.999Z</time></trkpt><trkpt lat="42.378267303522705" lon="14.301350520654005"><ele>30.0</ele><time>2026-05-01T08:25:29.999Z</time></trkpt><trkpt lat="42.37845654049861" lon="14.301406147833296"><ele>30.0</ele><time>2026-05-01T08:25:30.999Z</time></trkpt><trkpt lat="42.37862802907912" lon="14.30146050253226"><ele>29.0</ele><time>2026-05-01T08:25:31.999Z</time></trkpt><trkpt lat="42.378826119066325" lon="14.301521348498536"><ele>28.0</ele><time>2026-05-01T08:25:32.998Z</time></trkpt><trkpt lat="42.37901179253278" lon="14.301572491360753"><ele>27.0</ele><time>2026-05-01T08:25:33.998Z</time></trkpt><trkpt lat="42.379186710462484" lon="14.301624379187475"><ele>26.666666666666664</ele><time>2026-05-01T08:25:34.998Z</time></trkpt><trkpt lat="42.379365169005176" lon="14.301689411528479"><ele>26.333333333333332</ele><time>2026-05-01T08:25:35.998Z</time></trkpt><trkpt lat="42.379549652563156" lon="14.301743257506548"><ele>26.0</ele><time>2026-05-01T08:25:36.998Z</time></trkpt><trkpt lat="42.37974089161389" lon="14.301789757383165"><ele>26.0</ele><time>2026-05-01T08:25:37.998Z</time></trkpt><trkpt lat="42.37991832376733" lon="14.301843788470823"><ele>26.0</ele><time>2026-05-01T08:25:38.998Z</time></trkpt><trkpt lat="42.380098107238695" lon="14.301898212711999"><ele>26.0</ele><time>2026-05-01T08:25:39.998Z</time></trkpt><trkpt lat="42.38027801646202" lon="14.301949413489902"><ele>26.0</ele><time>2026-05-01T08:25:40.998Z</time></trkpt><trkpt lat="42.38046390642407" lon="14.301994623010383"><ele>26.0</ele><time>2026-05-01T08:25:41.998Z</time></trkpt><trkpt lat="42.38065195318837" lon="14.302053868072333"><ele>26.0</ele><time>2026-05-01T08:25:42.998Z</time></trkpt><trkpt lat="42.380835983924236" lon="14.302107173415152"><ele>25.666666666666664</ele><time>2026-05-01T08:25:43.998Z</time></trkpt><trkpt lat="42.38102828026276" lon="14.30216360784632"><ele>25.333333333333336</ele><time>2026-05-01T08:25:44.998Z</time></trkpt><trkpt lat="42.381212939482744" lon="14.302216552642657"><ele>25.0</ele><time>2026-05-01T08:25:45.998Z</time></trkpt><trkpt lat="42.38138810819819" lon="14.302298837827378"><ele>24.0</ele><time>2026-05-01T08:25:47Z</time></trkpt><trkpt lat="42.38157135930946" lon="14.302371043742559"><ele>23.0</ele><time>2026-05-01T08:25:48Z</time></trkpt><trkpt lat="42.381740234396226" lon="14.302451989384295"><ele>22.0</ele><time>2026-05-01T08:25:49Z</time></trkpt><trkpt lat="42.38189521324075" lon="14.30253728565811"><ele>22.0</ele><time>2026-05-01T08:25:50Z</time></trkpt><trkpt lat="42.38202601847576" lon="14.302617613509097"><ele>22.0</ele><time>2026-05-01T08:25:51Z</time></trkpt><trkpt lat="42.38215304195304" lon="14.302696247971433"><ele>22.0</ele><time>2026-05-01T08:25:52Z</time></trkpt><trkpt lat="42.382260459423534" lon="14.30277609673366"><ele>22.0</ele><time>2026-05-01T08:25:53Z</time></trkpt><trkpt lat="42.38234132213449" lon="14.30284301061865"><ele>22.0</ele><time>2026-05-01T08:25:54Z</time></trkpt><trkpt lat="42.38241546041946" lon="14.302910734451695"><ele>22.0</ele><time>2026-05-01T08:25:55Z</time></trkpt><trkpt lat="42.38247200014048" lon="14.302973150820112"><ele>22.0</ele><time>2026-05-01T08:25:56Z</time></trkpt><trkpt lat="42.38251333348497" lon="14.303040759833902"><ele>22.0</ele><time>2026-05-01T08:25:57Z</time></trkpt><trkpt lat="42.38253004015328" lon="14.303124973164383"><ele>22.0</ele><time>2026-05-01T08:25:58Z</time></trkpt><trkpt lat="42.382519587076665" lon="14.303245485197694"><ele>22.0</ele><time>2026-05-01T08:25:59Z</time></trkpt><trkpt lat="42.38249755840529" lon="14.303386745183033"><ele>22.0</ele><time>2026-05-01T08:26:00Z</time></trkpt><trkpt lat="42.38246696557507" lon="14.30355090276559"><ele>22.0</ele><time>2026-05-01T08:26:01Z</time></trkpt><trkpt lat="42.38244371554734" lon="14.303708138171517"><ele>22.0</ele><time>2026-05-01T08:26:02Z</time></trkpt><trkpt lat="42.38242446616512" lon="14.303882115202725"><ele>22.0</ele><time>2026-05-01T08:26:03Z</time></trkpt><trkpt lat="42.382403998262035" lon="14.304062947842665"><ele>21.75</ele><time>2026-05-01T08:26:04Z</time></trkpt><trkpt lat="42.382381353718166" lon="14.304247238051138"><ele>21.5</ele><time>2026-05-01T08:26:05Z</time></trkpt><trkpt lat="42.38236268766388" lon="14.30441426255713"><ele>21.25</ele><time>2026-05-01T08:26:06Z</time></trkpt><trkpt lat="42.38234775391407" lon="14.304593267360481"><ele>21.0</ele><time>2026-05-01T08:26:07Z</time></trkpt><trkpt lat="42.382308662544446" lon="14.304778500763145"><ele>20.5</ele><time>2026-05-01T08:26:08Z</time></trkpt><trkpt lat="42.38228921431927" lon="14.304973193297112"><ele>20.0</ele><time>2026-05-01T08:26:09Z</time></trkpt><trkpt lat="42.38226962906605" lon="14.305155282659369"><ele>19.5</ele><time>2026-05-01T08:26:10Z</time></trkpt><trkpt lat="42.3822505510914" lon="14.305313678583483"><ele>19.0</ele><time>2026-05-01T08:26:11Z</time></trkpt><trkpt lat="42.382228511062905" lon="14.30547872417164"><ele>19.0</ele><time>2026-05-01T08:26:12Z</time></trkpt><trkpt lat="42.38220049226582" lon="14.305663513721452"><ele>19.0</ele><time>2026-05-01T08:26:13Z</time></trkpt><trkpt lat="42.382173101180555" lon="14.305828423572182"><ele>19.0</ele><time>2026-05-01T08:26:14Z</time></trkpt><trkpt lat="42.38217040495878" lon="14.30592716144183"><ele>19.0</ele><time>2026-05-01T08:26:15Z</time></trkpt><trkpt lat="42.3821508225207" lon="14.306044587588628"><ele>19.0</ele><time>2026-05-01T08:26:16Z</time></trkpt><trkpt lat="42.38211695125567" lon="14.30614411879809"><ele>18.8</ele><time>2026-05-01T08:26:17Z</time></trkpt><trkpt lat="42.38209161713414" lon="14.306238774924722"><ele>18.599999999999998</ele><time>2026-05-01T08:26:18Z</time></trkpt><trkpt lat="42.38204087032995" lon="14.30637008570081"><ele>18.4</ele><time>2026-05-01T08:26:20Z</time></trkpt><trkpt lat="42.38201164814455" lon="14.306451700513175"><ele>18.2</ele><time>2026-05-01T08:26:22Z</time></trkpt><trkpt lat="42.382104877828944" lon="14.306564099464923"><ele>18.0</ele><time>2026-05-01T08:26:23Z</time></trkpt><trkpt lat="42.38218210474636" lon="14.306652507791595"><ele>17.75</ele><time>2026-05-01T08:26:24Z</time></trkpt><trkpt lat="42.382263238533305" lon="14.306757372418812"><ele>17.5</ele><time>2026-05-01T08:26:25Z</time></trkpt><trkpt lat="42.38233632191604" lon="14.306896671128728"><ele>17.25</ele><time>2026-05-01T08:26:26Z</time></trkpt><trkpt lat="42.3824070847568" lon="14.307047002714684"><ele>17.0</ele><time>2026-05-01T08:26:27Z</time></trkpt><trkpt lat="42.382484526378256" lon="14.307221654795907"><ele>16.666666666666668</ele><time>2026-05-01T08:26:28Z</time></trkpt><trkpt lat="42.382569865716604" lon="14.307409191027634"><ele>16.333333333333332</ele><time>2026-05-01T08:26:29Z</time></trkpt><trkpt lat="42.38265030378143" lon="14.307588816492744"><ele>16.0</ele><time>2026-05-01T08:26:29.999Z</time></trkpt><trkpt lat="42.382730082926706" lon="14.307765556630484"><ele>16.0</ele><time>2026-05-01T08:26:30.999Z</time></trkpt><trkpt lat="42.382826002196985" lon="14.30796999633735"><ele>16.0</ele><time>2026-05-01T08:26:31.999Z</time></trkpt><trkpt lat="42.38291766811729" lon="14.308173595928642"><ele>16.0</ele><time>2026-05-01T08:26:32.999Z</time></trkpt><trkpt lat="42.38300929536733" lon="14.308379941964466"><ele>16.0</ele><time>2026-05-01T08:26:33.999Z</time></trkpt><trkpt lat="42.383119450725914" lon="14.308627124940744"><ele>16.0</ele><time>2026-05-01T08:26:34.999Z</time></trkpt><trkpt lat="42.38324767748508" lon="14.308901562945332"><ele>15.0</ele><time>2026-05-01T08:26:35.999Z</time></trkpt><trkpt lat="42.38339020794294" lon="14.30920422399913"><ele>14.0</ele><time>2026-05-01T08:26:36.999Z</time></trkpt><trkpt lat="42.3835281024981" lon="14.309500352244758"><ele>14.0</ele><time>2026-05-01T08:26:37.999Z</time></trkpt><trkpt lat="42.383649072478875" lon="14.309768752110461"><ele>14.0</ele><time>2026-05-01T08:26:38.999Z</time></trkpt><trkpt lat="42.38375473187943" lon="14.310001751500007"><ele>14.0</ele><time>2026-05-01T08:26:39.999Z</time></trkpt><trkpt lat="42.38384576071887" lon="14.31020864054927"><ele>14.333333333333334</ele><time>2026-05-01T08:26:40.999Z</time></trkpt><trkpt lat="42.383934860333454" lon="14.310406713182328"><ele>14.666666666666668</ele><time>2026-05-01T08:26:41.999Z</time></trkpt><trkpt lat="42.384021781335875" lon="14.310573920723247"><ele>15.0</ele><time>2026-05-01T08:26:42.999Z</time></trkpt><trkpt lat="42.38412080013149" lon="14.310710280243836"><ele>15.0</ele><time>2026-05-01T08:26:43.999Z</time></trkpt><trkpt lat="42.38422869279469" lon="14.310809644871911"><ele>15.0</ele><time>2026-05-01T08:26:44.999Z</time></trkpt><trkpt lat="42.384379561081445" lon="14.310875944715136"><ele>15.0</ele><time>2026-05-01T08:26:45.999Z</time></trkpt><trkpt lat="42.384533390460405" lon="14.310961221200245"><ele>14.666666666666668</ele><time>2026-05-01T08:26:46.999Z</time></trkpt><trkpt lat="42.38469004348132" lon="14.31102887783957"><ele>14.333333333333334</ele><time>2026-05-01T08:26:47.999Z</time></trkpt><trkpt lat="42.384851561285814" lon="14.311097838009708"><ele>14.0</ele><time>2026-05-01T08:26:48.999Z</time></trkpt><trkpt lat="42.38500947311758" lon="14.311175856678048"><ele>14.0</ele><time>2026-05-01T08:26:49.999Z</time></trkpt><trkpt lat="42.38516597774731" lon="14.311262773757988"><ele>14.0</ele><time>2026-05-01T08:26:50.999Z</time></trkpt><trkpt lat="42.385320224361514" lon="14.31134437790834"><ele>14.0</ele><time>2026-05-01T08:26:51.999Z</time></trkpt><trkpt lat="42.3854527552951" lon="14.311417948781655"><ele>14.0</ele><time>2026-05-01T08:26:52.999Z</time></trkpt><trkpt lat="42.38558221192397" lon="14.311489769067965"><ele>14.0</ele><time>2026-05-01T08:26:53.999Z</time></trkpt><trkpt lat="42.38571202050896" lon="14.311559543277115"><ele>14.0</ele><time>2026-05-01T08:26:54.999Z</time></trkpt><trkpt lat="42.3858240834038" lon="14.3116109600007"><ele>14.0</ele><time>2026-05-01T08:26:55.999Z</time></trkpt><trkpt lat="42.38593416318171" lon="14.311656231139505"><ele>14.0</ele><time>2026-05-01T08:26:56.999Z</time></trkpt><trkpt lat="42.386033581497855" lon="14.311717756005562"><ele>13.999999999999998</ele><time>2026-05-01T08:26:57.999Z</time></trkpt><trkpt lat="42.3861350127265" lon="14.311772421057487"><ele>13.999999999999998</ele><time>2026-05-01T08:26:58.999Z</time></trkpt><trkpt lat="42.38622723924921" lon="14.31182124116575"><ele>14.0</ele><time>2026-05-01T08:26:59.999Z</time></trkpt><trkpt lat="42.386310120740816" lon="14.31186344566374"><ele>14.0</ele><time>2026-05-01T08:27:00.999Z</time></trkpt><trkpt lat="42.386379505942884" lon="14.31190392112522"><ele>14.000000000000002</ele><time>2026-05-01T08:27:01.999Z</time></trkpt><trkpt lat="42.38645330669976" lon="14.311962052713705"><ele>14.0</ele><time>2026-05-01T08:27:03.999Z</time></trkpt><trkpt lat="42.38643866747752" lon="14.312086886833786"><ele>14.0</ele><time>2026-05-01T08:27:05.999Z</time></trkpt><trkpt lat="42.38641087326056" lon="14.312168866197858"><ele>14.0</ele><time>2026-05-01T08:27:06.999Z</time></trkpt><trkpt lat="42.38638990863072" lon="14.31225289762914"><ele>14.000000000000002</ele><time>2026-05-01T08:27:07.999Z</time></trkpt><trkpt lat="42.38634437698519" lon="14.312410349618915"><ele>14.0</ele><time>2026-05-01T08:27:09.999Z</time></trkpt><trkpt lat="42.386315458946996" lon="14.312574520944995"><ele>13.833333333333334</ele><time>2026-05-01T08:27:11.999Z</time></trkpt><trkpt lat="42.386285332024336" lon="14.312727465549582"><ele>13.666666666666668</ele><time>2026-05-01T08:27:13.999Z</time></trkpt><trkpt lat="42.38627096981462" lon="14.312812059756885"><ele>13.5</ele><time>2026-05-01T08:27:14.999Z</time></trkpt><trkpt lat="42.386246319864" lon="14.3128966037252"><ele>13.333333333333332</ele><time>2026-05-01T08:27:15.999Z</time></trkpt><trkpt lat="42.386229377240724" lon="14.31298017973554"><ele>13.166666666666666</ele><time>2026-05-01T08:27:16.999Z</time></trkpt><trkpt lat="42.38618975853613" lon="14.313134907777256"><ele>13.0</ele><time>2026-05-01T08:27:18.999Z</time></trkpt><trkpt lat="42.38615033134866" lon="14.313290779235082"><ele>12.999999999999998</ele><time>2026-05-01T08:27:20.999Z</time></trkpt><trkpt lat="42.38611317665816" lon="14.313446924123168"><ele>13.0</ele><time>2026-05-01T08:27:22.999Z</time></trkpt><trkpt lat="42.38609436294141" lon="14.313537820659054"><ele>13.0</ele><time>2026-05-01T08:27:23.999Z</time></trkpt><trkpt lat="42.386074253261896" lon="14.313630676138091"><ele>13.0</ele><time>2026-05-01T08:27:24.999Z</time></trkpt><trkpt lat="42.3860516609404" lon="14.313729432235402"><ele>12.999999999999998</ele><time>2026-05-01T08:27:25.999Z</time></trkpt><trkpt lat="42.38602283683311" lon="14.313851697158348"><ele>13.0</ele><time>2026-05-01T08:27:26.999Z</time></trkpt><trkpt lat="42.385981921304996" lon="14.314008216826924"><ele>13.0</ele><time>2026-05-01T08:27:27.999Z</time></trkpt><trkpt lat="42.385936554500795" lon="14.314176557031871"><ele>13.0</ele><time>2026-05-01T08:27:28.999Z</time></trkpt><trkpt lat="42.38589181691683" lon="14.31434932846792"><ele>13.0</ele><time>2026-05-01T08:27:29.999Z</time></trkpt><trkpt lat="42.38585557801235" lon="14.314516092668553"><ele>13.0</ele><time>2026-05-01T08:27:30.999Z</time></trkpt><trkpt lat="42.38582046322072" lon="14.31467422190595"><ele>12.25</ele><time>2026-05-01T08:27:31.999Z</time></trkpt><trkpt lat="42.385786695923116" lon="14.314834021533445"><ele>11.5</ele><time>2026-05-01T08:27:32.999Z</time></trkpt><trkpt lat="42.38574724187779" lon="14.31498850871604"><ele>10.75</ele><time>2026-05-01T08:27:33.999Z</time></trkpt><trkpt lat="42.38571713903866" lon="14.315124089910915"><ele>10.0</ele><time>2026-05-01T08:27:34.999Z</time></trkpt><trkpt lat="42.38568206123893" lon="14.315255732473066"><ele>10.0</ele><time>2026-05-01T08:27:35.999Z</time></trkpt><trkpt lat="42.38565351959015" lon="14.315368564422025"><ele>10.0</ele><time>2026-05-01T08:27:36.999Z</time></trkpt><trkpt lat="42.38563424107411" lon="14.315473593897444"><ele>10.0</ele><time>2026-05-01T08:27:37.999Z</time></trkpt><trkpt lat="42.38561060779123" lon="14.31557595025335"><ele>10.0</ele><time>2026-05-01T08:27:38.999Z</time></trkpt><trkpt lat="42.38557750294918" lon="14.315721480123967"><ele>10.0</ele><time>2026-05-01T08:27:40.999Z</time></trkpt><trkpt lat="42.38555794919435" lon="14.315837614649963"><ele>10.0</ele><time>2026-05-01T08:27:42.998Z</time></trkpt><trkpt lat="42.3855451026304" lon="14.315929558905822"><ele>9.666666666666668</ele><time>2026-05-01T08:27:45.998Z</time></trkpt><trkpt lat="42.385566346843206" lon="14.31604583325279"><ele>9.333333333333334</ele><time>2026-05-01T08:27:48.998Z</time></trkpt><trkpt lat="42.3856118634473" lon="14.316124402120247"><ele>9.0</ele><time>2026-05-01T08:27:50.998Z</time></trkpt><trkpt lat="42.385695512119064" lon="14.316168192779557"><ele>8.666666666666666</ele><time>2026-05-01T08:27:53Z</time></trkpt><trkpt lat="42.3857584585901" lon="14.31619134894323"><ele>8.333333333333332</ele><time>2026-05-01T08:27:54Z</time></trkpt><trkpt lat="42.38587261428303" lon="14.31624921080542"><ele>8.0</ele><time>2026-05-01T08:27:56Z</time></trkpt><trkpt lat="42.385933931156465" lon="14.316299192231316"><ele>8.0</ele><time>2026-05-01T08:27:58Z</time></trkpt><trkpt lat="42.385948174186304" lon="14.316384113895014"><ele>8.0</ele><time>2026-05-01T08:28:00Z</time></trkpt><trkpt lat="42.38590352330158" lon="14.3165162466768"><ele>8.0</ele><time>2026-05-01T08:28:02Z</time></trkpt><trkpt lat="42.385867805914046" lon="14.316619942965756"><ele>8.0</ele><time>2026-05-01T08:28:03Z</time></trkpt><trkpt lat="42.38583119619744" lon="14.316740808561653"><ele>8.0</ele><time>2026-05-01T08:28:04Z</time></trkpt><trkpt lat="42.38578634953059" lon="14.316887631526107"><ele>7.800000000000001</ele><time>2026-05-01T08:28:05Z</time></trkpt><trkpt lat="42.38575163784892" lon="14.317006614912215"><ele>7.6000000000000005</ele><time>2026-05-01T08:28:06Z</time></trkpt><trkpt lat="42.385714535783" lon="14.317110657816986"><ele>7.3999999999999995</ele><time>2026-05-01T08:28:07Z</time></trkpt><trkpt lat="42.38568084128438" lon="14.31721802743144"><ele>7.199999999999999</ele><time>2026-05-01T08:28:08Z</time></trkpt><trkpt lat="42.38562009195647" lon="14.317376490687119"><ele>7.0</ele><time>2026-05-01T08:28:10Z</time></trkpt><trkpt lat="42.38558796765607" lon="14.317456423127107"><ele>7.199999999999999</ele><time>2026-05-01T08:28:11Z</time></trkpt><trkpt lat="42.38555759034611" lon="14.31754414664171"><ele>7.3999999999999995</ele><time>2026-05-01T08:28:12Z</time></trkpt><trkpt lat="42.385514163941046" lon="14.317716439634724"><ele>7.6000000000000005</ele><time>2026-05-01T08:28:14Z</time></trkpt><trkpt lat="42.38548689328489" lon="14.317796738013444"><ele>7.800000000000001</ele><time>2026-05-01T08:28:15Z</time></trkpt><trkpt lat="42.38543139135885" lon="14.317907796442745"><ele>8.0</ele><time>2026-05-01T08:28:17Z</time></trkpt><trkpt lat="42.38539700659355" lon="14.318035383253786"><ele>8.333333333333332</ele><time>2026-05-01T08:28:19Z</time></trkpt><trkpt lat="42.38536152220415" lon="14.318174695559923"><ele>8.666666666666666</ele><time>2026-05-01T08:28:21Z</time></trkpt><trkpt lat="42.38533511605834" lon="14.318269464673515"><ele>9.0</ele><time>2026-05-01T08:28:23Z</time></trkpt><trkpt lat="42.3853420038052" lon="14.318355746765755"><ele>9.333333333333334</ele><time>2026-05-01T08:28:25Z</time></trkpt><trkpt lat="42.38544705930187" lon="14.318398642572864"><ele>9.666666666666668</ele><time>2026-05-01T08:28:28Z</time></trkpt><trkpt lat="42.385521600255274" lon="14.318380288646106"><ele>10.0</ele><time>2026-05-01T08:28:29Z</time></trkpt><trkpt lat="42.385606035729374" lon="14.31832627134065"><ele>10.25</ele><time>2026-05-01T08:28:30Z</time></trkpt><trkpt lat="42.385719224480574" lon="14.318263733513547"><ele>10.5</ele><time>2026-05-01T08:28:31Z</time></trkpt><trkpt lat="42.38586501213621" lon="14.318183195139875"><ele>10.75</ele><time>2026-05-01T08:28:32Z</time></trkpt><trkpt lat="42.38603079199343" lon="14.318154812906004"><ele>11.0</ele><time>2026-05-01T08:28:33Z</time></trkpt><trkpt lat="42.38619085425995" lon="14.318126617746177"><ele>11.0</ele><time>2026-05-01T08:28:34Z</time></trkpt><trkpt lat="42.386342043073" lon="14.318113649548508"><ele>11.0</ele><time>2026-05-01T08:28:35Z</time></trkpt><trkpt lat="42.3864817794432" lon="14.318059521429507"><ele>11.0</ele><time>2026-05-01T08:28:36Z</time></trkpt><trkpt lat="42.38660183228805" lon="14.31799751338148"><ele>11.0</ele><time>2026-05-01T08:28:37Z</time></trkpt><trkpt lat="42.38671944758" lon="14.317948693636076"><ele>10.8</ele><time>2026-05-01T08:28:38Z</time></trkpt><trkpt lat="42.38681829918184" lon="14.317965822151981"><ele>10.600000000000001</ele><time>2026-05-01T08:28:39Z</time></trkpt><trkpt lat="42.38690247562778" lon="14.318036446072556"><ele>10.4</ele><time>2026-05-01T08:28:41Z</time></trkpt><trkpt lat="42.38685455727105" lon="14.318170202124763"><ele>10.2</ele><time>2026-05-01T08:28:44Z</time></trkpt><trkpt lat="42.386829273012744" lon="14.318287632826442"><ele>10.0</ele><time>2026-05-01T08:28:44.999Z</time></trkpt><trkpt lat="42.38680683610198" lon="14.318435882563465"><ele>10.0</ele><time>2026-05-01T08:28:45.999Z</time></trkpt><trkpt lat="42.38676550214696" lon="14.318547771369595"><ele>10.0</ele><time>2026-05-01T08:28:46.999Z</time></trkpt><trkpt lat="42.38674161713965" lon="14.31863832471658"><ele>10.0</ele><time>2026-05-01T08:28:47.999Z</time></trkpt><trkpt lat="42.38669805880708" lon="14.318802570002797"><ele>10.0</ele><time>2026-05-01T08:28:49.999Z</time></trkpt><trkpt lat="42.3866610028063" lon="14.318940845470458"><ele>10.0</ele><time>2026-05-01T08:28:51.999Z</time></trkpt><trkpt lat="42.386627238278486" lon="14.319066841040751"><ele>10.0</ele><time>2026-05-01T08:28:53.999Z</time></trkpt><trkpt lat="42.386598035077434" lon="14.319175815648697"><ele>10.0</ele><time>2026-05-01T08:28:55.999Z</time></trkpt><trkpt lat="42.38664659656914" lon="14.318895104574027"><ele>10.0</ele><time>2026-05-01T08:28:57.999Z</time></trkpt><trkpt lat="42.38658062666583" lon="14.318835604769488"><ele>10.0</ele><time>2026-05-01T08:28:58.999Z</time></trkpt><trkpt lat="42.38645972949022" lon="14.318724429238232"><ele>10.25</ele><time>2026-05-01T08:28:59.999Z</time></trkpt><trkpt lat="42.386318838970865" lon="14.318677945251665"><ele>10.5</ele><time>2026-05-01T08:29:00.999Z</time></trkpt><trkpt lat="42.38617019075012" lon="14.318687701530417"><ele>10.75</ele><time>2026-05-01T08:29:01.999Z</time></trkpt><trkpt lat="42.38605864145029" lon="14.318714887782061"><ele>11.0</ele><time>2026-05-01T08:29:02.999Z</time></trkpt><trkpt lat="42.385944165827674" lon="14.318767332414017"><ele>11.0</ele><time>2026-05-01T08:29:03.999Z</time></trkpt><trkpt lat="42.38587666965598" lon="14.31880253349581"><ele>11.0</ele><time>2026-05-01T08:29:04.999Z</time></trkpt><trkpt lat="42.385784082217604" lon="14.318841339434735"><ele>11.0</ele><time>2026-05-01T08:29:05.999Z</time></trkpt><trkpt lat="42.38568001735157" lon="14.318881486617553"><ele>11.0</ele><time>2026-05-01T08:29:06.999Z</time></trkpt><trkpt lat="42.38558438617716" lon="14.318907611643478"><ele>11.0</ele><time>2026-05-01T08:29:07.999Z</time></trkpt><trkpt lat="42.38547465942365" lon="14.318930603957398"><ele>10.8</ele><time>2026-05-01T08:29:08.999Z</time></trkpt><trkpt lat="42.38537727354193" lon="14.318941365746412"><ele>10.600000000000001</ele><time>2026-05-01T08:29:09.999Z</time></trkpt><trkpt lat="42.38527197638514" lon="14.31893973062934"><ele>10.4</ele><time>2026-05-01T08:29:10.999Z</time></trkpt><trkpt lat="42.38518515877865" lon="14.318925278160462"><ele>10.2</ele><time>2026-05-01T08:29:11.999Z</time></trkpt><trkpt lat="42.385099772379775" lon="14.318903071362428"><ele>10.0</ele><time>2026-05-01T08:29:12.999Z</time></trkpt><trkpt lat="42.385004058587164" lon="14.318867632563627"><ele>10.0</ele><time>2026-05-01T08:29:13.999Z</time></trkpt><trkpt lat="42.38492229269338" lon="14.318825370066168"><ele>10.0</ele><time>2026-05-01T08:29:14.999Z</time></trkpt><trkpt lat="42.384825055135316" lon="14.318771677664104"><ele>10.0</ele><time>2026-05-01T08:29:15.999Z</time></trkpt><trkpt lat="42.3847443103405" lon="14.318713963660178"><ele>10.0</ele><time>2026-05-01T08:29:16.999Z</time></trkpt><trkpt lat="42.38465505446491" lon="14.318640981338627"><ele>10.0</ele><time>2026-05-01T08:29:17.999Z</time></trkpt><trkpt lat="42.384586444665835" lon="14.318576046545417"><ele>10.0</ele><time>2026-05-01T08:29:18.999Z</time></trkpt><trkpt lat="42.384520532831516" lon="14.318505646565264"><ele>10.0</ele><time>2026-05-01T08:29:19.999Z</time></trkpt><trkpt lat="42.38447072234761" lon="14.318437980328287"><ele>10.0</ele><time>2026-05-01T08:29:20.999Z</time></trkpt><trkpt lat="42.38440535051301" lon="14.31834018244024"><ele>10.0</ele><time>2026-05-01T08:29:21.999Z</time></trkpt><trkpt lat="42.38434072782406" lon="14.31822394211286"><ele>10.0</ele><time>2026-05-01T08:29:22.999Z</time></trkpt><trkpt lat="42.38427901568454" lon="14.318094576067496"><ele>10.0</ele><time>2026-05-01T08:29:23.999Z</time></trkpt><trkpt lat="42.384224442982145" lon="14.317964942454937"><ele>10.0</ele><time>2026-05-01T08:29:24.999Z</time></trkpt><trkpt lat="42.384179173892164" lon="14.317836419161253"><ele>10.0</ele><time>2026-05-01T08:29:25.999Z</time></trkpt><trkpt lat="42.38414770973128" lon="14.317723285683819"><ele>10.0</ele><time>2026-05-01T08:29:26.999Z</time></trkpt><trkpt lat="42.38412825281813" lon="14.317622743181708"><ele>10.0</ele><time>2026-05-01T08:29:27.999Z</time></trkpt><trkpt lat="42.384108887001034" lon="14.317488209953643"><ele>10.0</ele><time>2026-05-01T08:29:28.999Z</time></trkpt><trkpt lat="42.38409739447027" lon="14.317340976260622"><ele>10.0</ele><time>2026-05-01T08:29:29.999Z</time></trkpt><trkpt lat="42.38409738242629" lon="14.317184179877804"><ele>10.0</ele><time>2026-05-01T08:29:30.999Z</time></trkpt><trkpt lat="42.384105130758556" lon="14.317024441201253"><ele>10.0</ele><time>2026-05-01T08:29:31.999Z</time></trkpt><trkpt lat="42.38411394573227" lon="14.316887192524238"><ele>10.0</ele><time>2026-05-01T08:29:32.999Z</time></trkpt><trkpt lat="42.38412107053934" lon="14.316764284076456"><ele>10.0</ele><time>2026-05-01T08:29:33.999Z</time></trkpt><trkpt lat="42.38412516251765" lon="14.316678684684446"><ele>10.0</ele><time>2026-05-01T08:29:34.999Z</time></trkpt><trkpt lat="42.38412545055633" lon="14.31657083109429"><ele>10.0</ele><time>2026-05-01T08:29:35.999Z</time></trkpt><trkpt lat="42.38411738408953" lon="14.316480026318093"><ele>10.0</ele><time>2026-05-01T08:29:36.999Z</time></trkpt><trkpt lat="42.38409992986384" lon="14.31634226455078"><ele>10.0</ele><time>2026-05-01T08:29:38.999Z</time></trkpt><trkpt lat="42.38408281653736" lon="14.316247119914616"><ele>10.0</ele><time>2026-05-01T08:29:39.999Z</time></trkpt><trkpt lat="42.38405833973353" lon="14.31614234696322"><ele>10.0</ele><time>2026-05-01T08:29:40.999Z</time></trkpt><trkpt lat="42.384021030257166" lon="14.316024524354116"><ele>10.0</ele><time>2026-05-01T08:29:41.999Z</time></trkpt><trkpt lat="42.383975627977165" lon="14.315901745155797"><ele>10.0</ele><time>2026-05-01T08:29:42.999Z</time></trkpt><trkpt lat="42.38390755921908" lon="14.315762360606232"><ele>10.0</ele><time>2026-05-01T08:29:43.999Z</time></trkpt><trkpt lat="42.383827433971746" lon="14.315636885501428"><ele>10.0</ele><time>2026-05-01T08:29:44.999Z</time></trkpt><trkpt lat="42.38375021566776" lon="14.315520798327443"><ele>10.0</ele><time>2026-05-01T08:29:45.999Z</time></trkpt><trkpt lat="42.38366275013851" lon="14.31539061550069"><ele>10.0</ele><time>2026-05-01T08:29:46.999Z</time></trkpt><trkpt lat="42.38356692190672" lon="14.31525435258334"><ele>10.0</ele><time>2026-05-01T08:29:47.999Z</time></trkpt><trkpt lat="42.38346602887142" lon="14.315114959876523"><ele>10.0</ele><time>2026-05-01T08:29:48.999Z</time></trkpt><trkpt lat="42.38336411572628" lon="14.314976222452866"><ele>10.0</ele><time>2026-05-01T08:29:49.999Z</time></trkpt><trkpt lat="42.38327017515233" lon="14.314846291969742"><ele>10.0</ele><time>2026-05-01T08:29:50.999Z</time></trkpt><trkpt lat="42.38319228956052" lon="14.314731489680023"><ele>10.0</ele><time>2026-05-01T08:29:51.999Z</time></trkpt><trkpt lat="42.383123414704016" lon="14.314626418671383"><ele>10.0</ele><time>2026-05-01T08:29:52.999Z</time></trkpt><trkpt lat="42.383054311769556" lon="14.314517441563513"><ele>10.0</ele><time>2026-05-01T08:29:53.999Z</time></trkpt><trkpt lat="42.38298995196477" lon="14.314406677204436"><ele>10.0</ele><time>2026-05-01T08:29:54.999Z</time></trkpt><trkpt lat="42.38294219480136" lon="14.31431144583324"><ele>10.0</ele><time>2026-05-01T08:29:55.999Z</time></trkpt><trkpt lat="42.38290615166866" lon="14.314203046837044"><ele>10.0</ele><time>2026-05-01T08:29:56.998Z</time></trkpt><trkpt lat="42.38288346168701" lon="14.314082092256385"><ele>10.0</ele><time>2026-05-01T08:29:57.998Z</time></trkpt><trkpt lat="42.38286871786949" lon="14.313946904469908"><ele>10.333333333333334</ele><time>2026-05-01T08:29:59Z</time></trkpt><trkpt lat="42.38286520717095" lon="14.31379168521978"><ele>10.666666666666666</ele><time>2026-05-01T08:30:00Z</time></trkpt><trkpt lat="42.38285635461874" lon="14.313579978944748"><ele>11.0</ele><time>2026-05-01T08:30:01Z</time></trkpt><trkpt lat="42.38284580050901" lon="14.313327580109013"><ele>11.0</ele><time>2026-05-01T08:30:02Z</time></trkpt><trkpt lat="42.382835993574716" lon="14.313093050015603"><ele>11.0</ele><time>2026-05-01T08:30:03Z</time></trkpt><trkpt lat="42.382825835042034" lon="14.312850111473669"><ele>11.0</ele><time>2026-05-01T08:30:04Z</time></trkpt><trkpt lat="42.382817717754286" lon="14.312637150107294"><ele>11.0</ele><time>2026-05-01T08:30:05Z</time></trkpt><trkpt lat="42.382811367199444" lon="14.312459900314265"><ele>11.0</ele><time>2026-05-01T08:30:06Z</time></trkpt><trkpt lat="42.3828051742336" lon="14.312287048829406"><ele>11.0</ele><time>2026-05-01T08:30:07Z</time></trkpt><trkpt lat="42.38280044916889" lon="14.312155167843775"><ele>11.0</ele><time>2026-05-01T08:30:08Z</time></trkpt><trkpt lat="42.382795393534806" lon="14.312028522706637"><ele>11.200000000000001</ele><time>2026-05-01T08:30:09Z</time></trkpt><trkpt lat="42.38279048880682" lon="14.311933522034392"><ele>11.4</ele><time>2026-05-01T08:30:10Z</time></trkpt><trkpt lat="42.382785182382165" lon="14.311845780991918"><ele>11.6</ele><time>2026-05-01T08:30:11Z</time></trkpt><trkpt lat="42.382779807626065" lon="14.311756909891606"><ele>11.8</ele><time>2026-05-01T08:30:12Z</time></trkpt><trkpt lat="42.382780285506676" lon="14.311511482741652"><ele>12.0</ele><time>2026-05-01T08:30:14Z</time></trkpt><trkpt lat="42.38275171906576" lon="14.311380353637091"><ele>12.333333333333332</ele><time>2026-05-01T08:30:15Z</time></trkpt><trkpt lat="42.38268163573365" lon="14.311238111085263"><ele>12.666666666666666</ele><time>2026-05-01T08:30:16Z</time></trkpt><trkpt lat="42.382496704716324" lon="14.311129900114508"><ele>13.0</ele><time>2026-05-01T08:30:17Z</time></trkpt><trkpt lat="42.38234996476102" lon="14.311148668474923"><ele>13.0</ele><time>2026-05-01T08:30:18Z</time></trkpt><trkpt lat="42.382208008381376" lon="14.311265753194165"><ele>13.0</ele><time>2026-05-01T08:30:19Z</time></trkpt><trkpt lat="42.38216050598784" lon="14.311400903179937"><ele>13.0</ele><time>2026-05-01T08:30:20Z</time></trkpt><trkpt lat="42.3821544200724" lon="14.311489389110276"><ele>13.0</ele><time>2026-05-01T08:30:21Z</time></trkpt><trkpt lat="42.38209515279368" lon="14.311594588216664"><ele>13.0</ele><time>2026-05-01T08:30:23Z</time></trkpt><trkpt lat="42.38204757368102" lon="14.311712266890789"><ele>13.0</ele><time>2026-05-01T08:30:24Z</time></trkpt><trkpt lat="42.38196321761923" lon="14.311849775473146"><ele>13.0</ele><time>2026-05-01T08:30:25Z</time></trkpt><trkpt lat="42.381884320872054" lon="14.312018159877319"><ele>13.0</ele><time>2026-05-01T08:30:26Z</time></trkpt><trkpt lat="42.3817830297532" lon="14.31213039314845"><ele>13.0</ele><time>2026-05-01T08:30:27Z</time></trkpt><trkpt lat="42.381700802342415" lon="14.312222687275275"><ele>12.833333333333332</ele><time>2026-05-01T08:30:28Z</time></trkpt><trkpt lat="42.38164734053623" lon="14.312323344266364"><ele>12.666666666666666</ele><time>2026-05-01T08:30:29Z</time></trkpt><trkpt lat="42.3815920262597" lon="14.312387170145955"><ele>12.5</ele><time>2026-05-01T08:30:30Z</time></trkpt><trkpt lat="42.38152510603046" lon="14.312422700506275"><ele>12.333333333333332</ele><time>2026-05-01T08:30:31Z</time></trkpt><trkpt lat="42.38145668195989" lon="14.312441767602033"><ele>12.166666666666666</ele><time>2026-05-01T08:30:32Z</time></trkpt><trkpt lat="42.38138437660671" lon="14.312412091245662"><ele>12.0</ele><time>2026-05-01T08:30:33Z</time></trkpt><trkpt lat="42.38128594316194" lon="14.31233461098437"><ele>12.5</ele><time>2026-05-01T08:30:35Z</time></trkpt><trkpt lat="42.381218222744096" lon="14.312322426477174"><ele>13.0</ele><time>2026-05-01T08:30:36Z</time></trkpt><trkpt lat="42.38114025503329" lon="14.312267573160334"><ele>13.5</ele><time>2026-05-01T08:30:37Z</time></trkpt><trkpt lat="42.38100998995216" lon="14.312204116286695"><ele>14.0</ele><time>2026-05-01T08:30:38Z</time></trkpt><trkpt lat="42.380859388485995" lon="14.312142507397233"><ele>14.000000000000002</ele><time>2026-05-01T08:30:39Z</time></trkpt><trkpt lat="42.38074263024654" lon="14.312119977686086"><ele>14.0</ele><time>2026-05-01T08:30:40Z</time></trkpt><trkpt lat="42.380642575037754" lon="14.312120390911211"><ele>14.0</ele><time>2026-05-01T08:30:41Z</time></trkpt><trkpt lat="42.38056726090381" lon="14.31210688926131"><ele>14.0</ele><time>2026-05-01T08:30:42Z</time></trkpt><trkpt lat="42.380498640963744" lon="14.312087883439403"><ele>14.000000000000002</ele><time>2026-05-01T08:30:43Z</time></trkpt><trkpt lat="42.380423490709134" lon="14.312040825218443"><ele>14.0</ele><time>2026-05-01T08:30:44Z</time></trkpt><trkpt lat="42.380382023803236" lon="14.31195130551457"><ele>14.0</ele><time>2026-05-01T08:30:45Z</time></trkpt><trkpt lat="42.38029942746804" lon="14.311962554582053"><ele>13.999999999999998</ele><time>2026-05-01T08:30:46Z</time></trkpt><trkpt lat="42.380244487410806" lon="14.311890437537686"><ele>13.999999999999998</ele><time>2026-05-01T08:30:46.999Z</time></trkpt><trkpt lat="42.38014077241913" lon="14.311808956248385"><ele>14.0</ele><time>2026-05-01T08:30:48.999Z</time></trkpt><trkpt lat="42.38003726174158" lon="14.311762405467727"><ele>14.0</ele><time>2026-05-01T08:30:50.999Z</time></trkpt><trkpt lat="42.37992346390057" lon="14.311747861482415"><ele>14.000000000000002</ele><time>2026-05-01T08:30:52.999Z</time></trkpt><trkpt lat="42.37982939167687" lon="14.311725011520664"><ele>14.0</ele><time>2026-05-01T08:30:54.999Z</time></trkpt><trkpt lat="42.37975129355481" lon="14.311687858820191"><ele>14.0</ele><time>2026-05-01T08:30:56.999Z</time></trkpt><trkpt lat="42.37968125621342" lon="14.31166168463503"><ele>14.0</ele><time>2026-05-01T08:30:58.999Z</time></trkpt><trkpt lat="42.37956985096044" lon="14.311645302287928"><ele>14.000000000000002</ele><time>2026-05-01T08:31:00.999Z</time></trkpt><trkpt lat="42.37949685180359" lon="14.311603060672423"><ele>14.0</ele><time>2026-05-01T08:31:01.999Z</time></trkpt><trkpt lat="42.37939308697623" lon="14.311552220399765"><ele>14.0</ele><time>2026-05-01T08:31:02.999Z</time></trkpt><trkpt lat="42.37926765574651" lon="14.31151346652181"><ele>14.0</ele><time>2026-05-01T08:31:03.999Z</time></trkpt><trkpt lat="42.37914867645876" lon="14.311494551982713"><ele>14.0</ele><time>2026-05-01T08:31:04.999Z</time></trkpt><trkpt lat="42.37903924533584" lon="14.31149517158746"><ele>14.0</ele><time>2026-05-01T08:31:05.999Z</time></trkpt><trkpt lat="42.37893673524049" lon="14.311500405069632"><ele>14.799999999999999</ele><time>2026-05-01T08:31:06.999Z</time></trkpt><trkpt lat="42.37882103573555" lon="14.311518092058613"><ele>15.599999999999998</ele><time>2026-05-01T08:31:07.999Z</time></trkpt><trkpt lat="42.37873043069434" lon="14.3115306742981"><ele>16.4</ele><time>2026-05-01T08:31:08.999Z</time></trkpt><trkpt lat="42.378616793319" lon="14.311514453629751"><ele>17.2</ele><time>2026-05-01T08:31:10.999Z</time></trkpt><trkpt lat="42.37854759755016" lon="14.31148552956513"><ele>18.0</ele><time>2026-05-01T08:31:11.999Z</time></trkpt><trkpt lat="42.3784483740719" lon="14.311425029255673"><ele>17.5</ele><time>2026-05-01T08:31:12.999Z</time></trkpt><trkpt lat="42.378321135709484" lon="14.311359326192598"><ele>17.0</ele><time>2026-05-01T08:31:13.999Z</time></trkpt><trkpt lat="42.37819122200949" lon="14.311298675924466"><ele>16.5</ele><time>2026-05-01T08:31:14.999Z</time></trkpt><trkpt lat="42.37806872570496" lon="14.311241087442522"><ele>16.0</ele><time>2026-05-01T08:31:15.999Z</time></trkpt><trkpt lat="42.3779590906034" lon="14.311197664297932"><ele>16.0</ele><time>2026-05-01T08:31:16.999Z</time></trkpt><trkpt lat="42.377851524451444" lon="14.311131741462697"><ele>16.0</ele><time>2026-05-01T08:31:17.999Z</time></trkpt><trkpt lat="42.37775309383979" lon="14.31106241689789"><ele>16.0</ele><time>2026-05-01T08:31:18.999Z</time></trkpt><trkpt lat="42.3776547948641" lon="14.310983477815718"><ele>16.0</ele><time>2026-05-01T08:31:19.999Z</time></trkpt><trkpt lat="42.37756881573304" lon="14.31091186686804"><ele>16.0</ele><time>2026-05-01T08:31:20.999Z</time></trkpt><trkpt lat="42.377491232457054" lon="14.310859361704999"><ele>15.999999999999998</ele><time>2026-05-01T08:31:21.999Z</time></trkpt><trkpt lat="42.37742838002698" lon="14.310832407830565"><ele>16.0</ele><time>2026-05-01T08:31:22.999Z</time></trkpt><trkpt lat="42.37734644655432" lon="14.310801355908454"><ele>16.0</ele><time>2026-05-01T08:31:24.999Z</time></trkpt><trkpt lat="42.37724001770033" lon="14.31078576110091"><ele>16.0</ele><time>2026-05-01T08:31:26.999Z</time></trkpt><trkpt lat="42.37711487274323" lon="14.310764978404483"><ele>15.999999999999998</ele><time>2026-05-01T08:31:28.999Z</time></trkpt><trkpt lat="42.37705147724719" lon="14.310749923183861"><ele>16.0</ele><time>2026-05-01T08:31:29.999Z</time></trkpt><trkpt lat="42.37697610645484" lon="14.310720798101825"><ele>16.333333333333332</ele><time>2026-05-01T08:31:30.999Z</time></trkpt><trkpt lat="42.37689772981881" lon="14.310701536232482"><ele>16.666666666666664</ele><time>2026-05-01T08:31:31.999Z</time></trkpt><trkpt lat="42.37682965877459" lon="14.310689057645169"><ele>17.0</ele><time>2026-05-01T08:31:32.999Z</time></trkpt><trkpt lat="42.37676582188905" lon="14.310696290816258"><ele>17.333333333333332</ele><time>2026-05-01T08:31:33.999Z</time></trkpt><trkpt lat="42.37669470997774" lon="14.310710150621635"><ele>17.666666666666668</ele><time>2026-05-01T08:31:34.999Z</time></trkpt><trkpt lat="42.37662975181331" lon="14.310703407448365"><ele>18.0</ele><time>2026-05-01T08:31:35.999Z</time></trkpt><trkpt lat="42.37651221425692" lon="14.310705043840295"><ele>18.0</ele><time>2026-05-01T08:31:37.999Z</time></trkpt><trkpt lat="42.376446862509916" lon="14.310688042104665"><ele>18.0</ele><time>2026-05-01T08:31:38.999Z</time></trkpt><trkpt lat="42.37636659480383" lon="14.31067654553222"><ele>18.0</ele><time>2026-05-01T08:31:39.999Z</time></trkpt><trkpt lat="42.37627859603677" lon="14.310671697566034"><ele>18.0</ele><time>2026-05-01T08:31:40.999Z</time></trkpt><trkpt lat="42.37619913677029" lon="14.310660814876776"><ele>18.0</ele><time>2026-05-01T08:31:41.999Z</time></trkpt><trkpt lat="42.376107442052415" lon="14.310626102391602"><ele>18.0</ele><time>2026-05-01T08:31:42.999Z</time></trkpt><trkpt lat="42.37601829742405" lon="14.310597234388611"><ele>17.6</ele><time>2026-05-01T08:31:43.999Z</time></trkpt><trkpt lat="42.37592950615186" lon="14.31058295988598"><ele>17.200000000000003</ele><time>2026-05-01T08:31:44.999Z</time></trkpt><trkpt lat="42.375832049641055" lon="14.310585596463499"><ele>16.8</ele><time>2026-05-01T08:31:45.999Z</time></trkpt><trkpt lat="42.375741250162804" lon="14.310563938973361"><ele>16.400000000000002</ele><time>2026-05-01T08:31:46.999Z</time></trkpt><trkpt lat="42.37563951617092" lon="14.310524343120212"><ele>16.0</ele><time>2026-05-01T08:31:47.999Z</time></trkpt><trkpt lat="42.37553626590969" lon="14.310486718389663"><ele>16.833333333333332</ele><time>2026-05-01T08:31:48.999Z</time></trkpt><trkpt lat="42.3754637577234" lon="14.31044297297872"><ele>17.666666666666664</ele><time>2026-05-01T08:31:49.999Z</time></trkpt><trkpt lat="42.37538684872513" lon="14.310398395519794"><ele>18.5</ele><time>2026-05-01T08:31:50.999Z</time></trkpt><trkpt lat="42.375298749356716" lon="14.310350433530306"><ele>19.333333333333332</ele><time>2026-05-01T08:31:51.999Z</time></trkpt><trkpt lat="42.37522549205151" lon="14.310290781334848"><ele>20.166666666666668</ele><time>2026-05-01T08:31:52.999Z</time></trkpt><trkpt lat="42.37514799583828" lon="14.3102194973072"><ele>21.0</ele><time>2026-05-01T08:31:53.999Z</time></trkpt><trkpt lat="42.37506074470915" lon="14.310139955308975"><ele>21.0</ele><time>2026-05-01T08:31:54.999Z</time></trkpt><trkpt lat="42.37496219922264" lon="14.310052753784568"><ele>21.0</ele><time>2026-05-01T08:31:55.999Z</time></trkpt><trkpt lat="42.37488607094101" lon="14.309987908956378"><ele>21.0</ele><time>2026-05-01T08:31:56.999Z</time></trkpt><trkpt lat="42.37481108809988" lon="14.309948777012643"><ele>21.0</ele><time>2026-05-01T08:31:58.998Z</time></trkpt><trkpt lat="42.37466257249828" lon="14.310000625338876"><ele>21.0</ele><time>2026-05-01T08:32:00.998Z</time></trkpt><trkpt lat="42.3745462714988" lon="14.310076848033127"><ele>21.200000000000003</ele><time>2026-05-01T08:32:01.998Z</time></trkpt><trkpt lat="42.37445434175717" lon="14.310144353206443"><ele>21.400000000000002</ele><time>2026-05-01T08:32:02.998Z</time></trkpt><trkpt lat="42.37438355329031" lon="14.310171818615169"><ele>21.6</ele><time>2026-05-01T08:32:03.998Z</time></trkpt><trkpt lat="42.37431706626927" lon="14.310148420080646"><ele>21.8</ele><time>2026-05-01T08:32:05Z</time></trkpt><trkpt lat="42.37424644895724" lon="14.310217838298833"><ele>22.0</ele><time>2026-05-01T08:32:06Z</time></trkpt><trkpt lat="42.37414907383197" lon="14.310034159710728"><ele>22.0</ele><time>2026-05-01T08:32:07Z</time></trkpt><trkpt lat="42.37404083902784" lon="14.309939579619678"><ele>22.0</ele><time>2026-05-01T08:32:08Z</time></trkpt><trkpt lat="42.373955357909836" lon="14.309862289268773"><ele>22.0</ele><time>2026-05-01T08:32:09Z</time></trkpt><trkpt lat="42.373880668942746" lon="14.309772873169658"><ele>22.0</ele><time>2026-05-01T08:32:10Z</time></trkpt><trkpt lat="42.373811952922786" lon="14.309672255646888"><ele>22.0</ele><time>2026-05-01T08:32:11Z</time></trkpt><trkpt lat="42.37371440477161" lon="14.309585157472283"><ele>24.25</ele><time>2026-05-01T08:32:12Z</time></trkpt><trkpt lat="42.373597494574256" lon="14.309496664611185"><ele>26.5</ele><time>2026-05-01T08:32:13Z</time></trkpt><trkpt lat="42.37347483106488" lon="14.309404306357692"><ele>28.75</ele><time>2026-05-01T08:32:14Z</time></trkpt><trkpt lat="42.373352738533924" lon="14.309314569247535"><ele>31.0</ele><time>2026-05-01T08:32:15Z</time></trkpt><trkpt lat="42.373243081580036" lon="14.309247271281793"><ele>31.0</ele><time>2026-05-01T08:32:16Z</time></trkpt><trkpt lat="42.37315163114268" lon="14.309165766868007"><ele>31.0</ele><time>2026-05-01T08:32:17Z</time></trkpt><trkpt lat="42.37306645350945" lon="14.309100350859127"><ele>31.0</ele><time>2026-05-01T08:32:18Z</time></trkpt><trkpt lat="42.37298429398162" lon="14.309037065931893"><ele>31.0</ele><time>2026-05-01T08:32:19Z</time></trkpt><trkpt lat="42.37289552333354" lon="14.309025321123748"><ele>31.0</ele><time>2026-05-01T08:32:20Z</time></trkpt><trkpt lat="42.37278703252049" lon="14.30900073589062"><ele>31.75</ele><time>2026-05-01T08:32:21Z</time></trkpt><trkpt lat="42.37267221631902" lon="14.309002700583775"><ele>32.5</ele><time>2026-05-01T08:32:22Z</time></trkpt><trkpt lat="42.372560179467" lon="14.308962589433307"><ele>33.25</ele><time>2026-05-01T08:32:23Z</time></trkpt><trkpt lat="42.37245194307393" lon="14.308894612361803"><ele>34.0</ele><time>2026-05-01T08:32:24Z</time></trkpt><trkpt lat="42.37231085321506" lon="14.308800389919037"><ele>33.5</ele><time>2026-05-01T08:32:25Z</time></trkpt><trkpt lat="42.372201786082634" lon="14.308717692620776"><ele>33.0</ele><time>2026-05-01T08:32:26Z</time></trkpt><trkpt lat="42.37208621799752" lon="14.30861242293126"><ele>32.5</ele><time>2026-05-01T08:32:27Z</time></trkpt><trkpt lat="42.37194793957889" lon="14.3085127787828"><ele>32.0</ele><time>2026-05-01T08:32:28Z</time></trkpt><trkpt lat="42.37181654803932" lon="14.308413552843389"><ele>32.0</ele><time>2026-05-01T08:32:29Z</time></trkpt><trkpt lat="42.37168894150142" lon="14.308313760266133"><ele>32.0</ele><time>2026-05-01T08:32:30Z</time></trkpt><trkpt lat="42.37154844603808" lon="14.308200929922837"><ele>32.0</ele><time>2026-05-01T08:32:31Z</time></trkpt><trkpt lat="42.371412400794746" lon="14.308099546983078"><ele>31.5</ele><time>2026-05-01T08:32:32Z</time></trkpt><trkpt lat="42.3712825184795" lon="14.308006055345617"><ele>31.0</ele><time>2026-05-01T08:32:33Z</time></trkpt><trkpt lat="42.37117455306275" lon="14.307896777102785"><ele>30.5</ele><time>2026-05-01T08:32:34Z</time></trkpt><trkpt lat="42.37106888060134" lon="14.307835257133004"><ele>30.0</ele><time>2026-05-01T08:32:35Z</time></trkpt><trkpt lat="42.370987390374175" lon="14.307753055278125"><ele>30.0</ele><time>2026-05-01T08:32:36Z</time></trkpt><trkpt lat="42.370901936131524" lon="14.307690897829294"><ele>30.0</ele><time>2026-05-01T08:32:37Z</time></trkpt><trkpt lat="42.370811768347295" lon="14.307620648394687"><ele>30.0</ele><time>2026-05-01T08:32:38Z</time></trkpt><trkpt lat="42.3707131873773" lon="14.307548275083047"><ele>30.0</ele><time>2026-05-01T08:32:39Z</time></trkpt><trkpt lat="42.37063031627456" lon="14.307487480438933"><ele>30.0</ele><time>2026-05-01T08:32:40Z</time></trkpt><trkpt lat="42.37053466016417" lon="14.307424384767458"><ele>29.6</ele><time>2026-05-01T08:32:41Z</time></trkpt><trkpt lat="42.37043047954293" lon="14.307351196672593"><ele>29.2</ele><time>2026-05-01T08:32:42Z</time></trkpt><trkpt lat="42.370327665178856" lon="14.307291821409345"><ele>28.799999999999997</ele><time>2026-05-01T08:32:43Z</time></trkpt><trkpt lat="42.37023394432634" lon="14.307229224310158"><ele>28.4</ele><time>2026-05-01T08:32:44Z</time></trkpt><trkpt lat="42.37014257279862" lon="14.307173503879094"><ele>28.0</ele><time>2026-05-01T08:32:45Z</time></trkpt><trkpt lat="42.370065254244636" lon="14.307136493165036"><ele>28.0</ele><time>2026-05-01T08:32:46Z</time></trkpt><trkpt lat="42.37001025325788" lon="14.30709232070026"><ele>27.999999999999996</ele><time>2026-05-01T08:32:47Z</time></trkpt><trkpt lat="42.369908300812305" lon="14.307025676935062"><ele>27.999999999999996</ele><time>2026-05-01T08:32:49Z</time></trkpt><trkpt lat="42.369806441728144" lon="14.306977103190464"><ele>28.0</ele><time>2026-05-01T08:32:51Z</time></trkpt><trkpt lat="42.36971623770331" lon="14.306913745971478"><ele>28.0</ele><time>2026-05-01T08:32:52.999Z</time></trkpt><trkpt lat="42.36964960400476" lon="14.306889408644953"><ele>27.857142857142858</ele><time>2026-05-01T08:32:54.999Z</time></trkpt><trkpt lat="42.3695956839646" lon="14.306833025539035"><ele>27.714285714285715</ele><time>2026-05-01T08:32:57.999Z</time></trkpt><trkpt lat="42.369535621920036" lon="14.30678841244388"><ele>27.57142857142857</ele><time>2026-05-01T08:33:09.999Z</time></trkpt><trkpt lat="42.3694825114407" lon="14.306731995940774"><ele>27.42857142857143</ele><time>2026-05-01T08:33:16.999Z</time></trkpt><trkpt lat="42.369428088555644" lon="14.306635693641008"><ele>27.285714285714285</ele><time>2026-05-01T08:33:19.999Z</time></trkpt><trkpt lat="42.36940432045669" lon="14.306553209383468"><ele>27.142857142857142</ele><time>2026-05-01T08:33:21.999Z</time></trkpt><trkpt lat="42.369394727743355" lon="14.306457204046232"><ele>27.0</ele><time>2026-05-01T08:33:24.999Z</time></trkpt><trkpt lat="42.36938116798398" lon="14.306354185361263"><ele>27.0</ele><time>2026-05-01T08:33:28.999Z</time></trkpt><trkpt lat="42.36925822758651" lon="14.306302513793096"><ele>27.000000000000004</ele><time>2026-05-01T08:33:29.999Z</time></trkpt><trkpt lat="42.36915995141305" lon="14.306213901424314"><ele>27.000000000000004</ele><time>2026-05-01T08:33:31.999Z</time></trkpt><trkpt lat="42.36909954341737" lon="14.306170560837867"><ele>27.0</ele><time>2026-05-01T08:33:32.999Z</time></trkpt><trkpt lat="42.36903672051553" lon="14.306127271351388"><ele>27.0</ele><time>2026-05-01T08:33:33.999Z</time></trkpt><trkpt lat="42.368964550661836" lon="14.306061073518913"><ele>27.0</ele><time>2026-05-01T08:33:34.999Z</time></trkpt><trkpt lat="42.36889006425914" lon="14.305974564873974"><ele>27.000000000000004</ele><time>2026-05-01T08:33:35.999Z</time></trkpt><trkpt lat="42.36880695120916" lon="14.305896609732539"><ele>27.000000000000004</ele><time>2026-05-01T08:33:36.999Z</time></trkpt><trkpt lat="42.36872441262811" lon="14.30582018120588"><ele>27.0</ele><time>2026-05-01T08:33:37.999Z</time></trkpt><trkpt lat="42.368641254421014" lon="14.305742687209374"><ele>27.0</ele><time>2026-05-01T08:33:38.999Z</time></trkpt><trkpt lat="42.36856332156696" lon="14.305665089723284"><ele>27.200000000000003</ele><time>2026-05-01T08:33:39.999Z</time></trkpt><trkpt lat="42.36849591160285" lon="14.305597229925537"><ele>27.400000000000002</ele><time>2026-05-01T08:33:40.999Z</time></trkpt><trkpt lat="42.3684430021851" lon="14.305539282102542"><ele>27.599999999999998</ele><time>2026-05-01T08:33:41.999Z</time></trkpt><trkpt lat="42.36836985968738" lon="14.305466643024651"><ele>27.799999999999997</ele><time>2026-05-01T08:33:43.999Z</time></trkpt><trkpt lat="42.368291055773255" lon="14.305452284120523"><ele>28.0</ele><time>2026-05-01T08:33:46.999Z</time></trkpt><trkpt lat="42.36820347328351" lon="14.305593689007525"><ele>28.25</ele><time>2026-05-01T08:33:48.999Z</time></trkpt><trkpt lat="42.3681375781458" lon="14.305691392472422"><ele>28.5</ele><time>2026-05-01T08:33:49.999Z</time></trkpt><trkpt lat="42.36805287646993" lon="14.305812918120179"><ele>28.75</ele><time>2026-05-01T08:33:50.999Z</time></trkpt><trkpt lat="42.367966981237906" lon="14.305929571341075"><ele>29.0</ele><time>2026-05-01T08:33:51.999Z</time></trkpt><trkpt lat="42.367881176468316" lon="14.30602566820342"><ele>29.0</ele><time>2026-05-01T08:33:52.999Z</time></trkpt><trkpt lat="42.36780703717949" lon="14.306069753414528"><ele>29.0</ele><time>2026-05-01T08:33:53.999Z</time></trkpt><trkpt lat="42.367733481114634" lon="14.306072884630343"><ele>29.0</ele><time>2026-05-01T08:33:54.999Z</time></trkpt><trkpt lat="42.36760015416194" lon="14.30609462787709"><ele>29.0</ele><time>2026-05-01T08:33:55.999Z</time></trkpt><trkpt lat="42.36745352806478" lon="14.306111741668412"><ele>29.0</ele><time>2026-05-01T08:33:56.999Z</time></trkpt><trkpt lat="42.36733452287633" lon="14.306106596366076"><ele>29.0</ele><time>2026-05-01T08:33:57.999Z</time></trkpt><trkpt lat="42.36720977927222" lon="14.306083008829187"><ele>29.0</ele><time>2026-05-01T08:33:58.999Z</time></trkpt><trkpt lat="42.36711945325861" lon="14.306044858460847"><ele>29.0</ele><time>2026-05-01T08:33:59.999Z</time></trkpt><trkpt lat="42.36703452741905" lon="14.30598657037762"><ele>29.0</ele><time>2026-05-01T08:34:00.999Z</time></trkpt><trkpt lat="42.36694273779503" lon="14.305930087184784"><ele>29.0</ele><time>2026-05-01T08:34:01.999Z</time></trkpt><trkpt lat="42.3668538367261" lon="14.305903804156438"><ele>30.6</ele><time>2026-05-01T08:34:02.999Z</time></trkpt><trkpt lat="42.36675901102386" lon="14.305911401370853"><ele>32.2</ele><time>2026-05-01T08:34:03.999Z</time></trkpt><trkpt lat="42.366640592702694" lon="14.30596925927008"><ele>33.800000000000004</ele><time>2026-05-01T08:34:04.999Z</time></trkpt><trkpt lat="42.36653194112465" lon="14.305978800137543"><ele>35.4</ele><time>2026-05-01T08:34:05.999Z</time></trkpt><trkpt lat="42.366446897349746" lon="14.305993594840437"><ele>37.0</ele><time>2026-05-01T08:34:06.999Z</time></trkpt><trkpt lat="42.36637212167963" lon="14.30602771460695"><ele>37.0</ele><time>2026-05-01T08:34:07.998Z</time></trkpt><trkpt lat="42.36630196372821" lon="14.306019106812837"><ele>37.0</ele><time>2026-05-01T08:34:08.998Z</time></trkpt><trkpt lat="42.36621808170186" lon="14.306047705360294"><ele>37.0</ele><time>2026-05-01T08:34:09.998Z</time></trkpt><trkpt lat="42.366145594216746" lon="14.306090077544107"><ele>37.0</ele><time>2026-05-01T08:34:11Z</time></trkpt><trkpt lat="42.36607516778809" lon="14.306144847356062"><ele>37.0</ele><time>2026-05-01T08:34:12Z</time></trkpt><trkpt lat="42.36600278380259" lon="14.306185564778394"><ele>37.0</ele><time>2026-05-01T08:34:13Z</time></trkpt><trkpt lat="42.36590920942058" lon="14.306200799392371"><ele>37.0</ele><time>2026-05-01T08:34:15Z</time></trkpt><trkpt lat="42.3658339529119" lon="14.306205990031717"><ele>37.0</ele><time>2026-05-01T08:34:16Z</time></trkpt><trkpt lat="42.36571048157368" lon="14.30621156968624"><ele>37.0</ele><time>2026-05-01T08:34:18Z</time></trkpt><trkpt lat="42.365598549094386" lon="14.306219582516855"><ele>37.0</ele><time>2026-05-01T08:34:20Z</time></trkpt><trkpt lat="42.36548367545887" lon="14.306226657625453"><ele>37.0</ele><time>2026-05-01T08:34:22Z</time></trkpt><trkpt lat="42.365372188114094" lon="14.30620315700293"><ele>37.333333333333336</ele><time>2026-05-01T08:34:24Z</time></trkpt><trkpt lat="42.36529387412767" lon="14.306173994122842"><ele>37.66666666666667</ele><time>2026-05-01T08:34:25Z</time></trkpt><trkpt lat="42.36521648500287" lon="14.306146272576513"><ele>38.0</ele><time>2026-05-01T08:34:26Z</time></trkpt><trkpt lat="42.36508925071824" lon="14.306125871489954"><ele>38.333333333333336</ele><time>2026-05-01T08:34:28Z</time></trkpt><trkpt lat="42.36502380622291" lon="14.306124241839896"><ele>38.666666666666664</ele><time>2026-05-01T08:34:29Z</time></trkpt><trkpt lat="42.36495789795366" lon="14.306129829674486"><ele>39.0</ele><time>2026-05-01T08:34:30Z</time></trkpt><trkpt lat="42.36489472141024" lon="14.306147839227295"><ele>39.0</ele><time>2026-05-01T08:34:31Z</time></trkpt><trkpt lat="42.36483129955829" lon="14.306185108643053"><ele>39.0</ele><time>2026-05-01T08:34:32Z</time></trkpt><trkpt lat="42.36475235358266" lon="14.30621244228459"><ele>39.0</ele><time>2026-05-01T08:34:33Z</time></trkpt><trkpt lat="42.36466218953888" lon="14.306237882742243"><ele>39.0</ele><time>2026-05-01T08:34:34Z</time></trkpt><trkpt lat="42.364583127529556" lon="14.306308707725025"><ele>39.0</ele><time>2026-05-01T08:34:35Z</time></trkpt><trkpt lat="42.36450620618637" lon="14.3063378323909"><ele>39.0</ele><time>2026-05-01T08:34:36Z</time></trkpt><trkpt lat="42.36440328341372" lon="14.306428732950605"><ele>39.666666666666664</ele><time>2026-05-01T08:34:38Z</time></trkpt><trkpt lat="42.364353079726925" lon="14.306487531944898"><ele>40.333333333333336</ele><time>2026-05-01T08:34:39Z</time></trkpt><trkpt lat="42.36430119853609" lon="14.30653858389555"><ele>41.0</ele><time>2026-05-01T08:34:40Z</time></trkpt><trkpt lat="42.36424664934931" lon="14.30659239124724"><ele>41.66666666666667</ele><time>2026-05-01T08:34:41Z</time></trkpt><trkpt lat="42.36415640117449" lon="14.306653837697695"><ele>42.333333333333336</ele><time>2026-05-01T08:34:42Z</time></trkpt><trkpt lat="42.364099129660374" lon="14.306708634529096"><ele>43.0</ele><time>2026-05-01T08:34:43Z</time></trkpt><trkpt lat="42.3640352119853" lon="14.306775784655851"><ele>43.0</ele><time>2026-05-01T08:34:44Z</time></trkpt><trkpt lat="42.36398123382704" lon="14.306819861533368"><ele>43.0</ele><time>2026-05-01T08:34:45Z</time></trkpt><trkpt lat="42.363882522332354" lon="14.306880981663797"><ele>43.0</ele><time>2026-05-01T08:34:47Z</time></trkpt><trkpt lat="42.363821171620906" lon="14.306914269371838"><ele>43.0</ele><time>2026-05-01T08:34:48Z</time></trkpt><trkpt lat="42.36374572693952" lon="14.306930789590563"><ele>43.0</ele><time>2026-05-01T08:34:49Z</time></trkpt><trkpt lat="42.36366576049782" lon="14.306955095665659"><ele>43.0</ele><time>2026-05-01T08:34:50Z</time></trkpt><trkpt lat="42.36357042779338" lon="14.306986209805798"><ele>42.199999999999996</ele><time>2026-05-01T08:34:51Z</time></trkpt><trkpt lat="42.363470050054595" lon="14.307012082662212"><ele>41.4</ele><time>2026-05-01T08:34:52Z</time></trkpt><trkpt lat="42.36338019619999" lon="14.307028715853074"><ele>40.599999999999994</ele><time>2026-05-01T08:34:53Z</time></trkpt><trkpt lat="42.363304311402175" lon="14.307034768519811"><ele>39.8</ele><time>2026-05-01T08:34:54Z</time></trkpt><trkpt lat="42.363183637374576" lon="14.307030996857753"><ele>39.0</ele><time>2026-05-01T08:34:56Z</time></trkpt><trkpt lat="42.363059107929864" lon="14.307021109127819"><ele>38.833333333333336</ele><time>2026-05-01T08:34:58Z</time></trkpt><trkpt lat="42.36299536641593" lon="14.30701274404105"><ele>38.666666666666664</ele><time>2026-05-01T08:34:59Z</time></trkpt><trkpt lat="42.36290735721904" lon="14.30699853752891"><ele>38.5</ele><time>2026-05-01T08:35:00Z</time></trkpt><trkpt lat="42.36281180770512" lon="14.307003507940756"><ele>38.33333333333333</ele><time>2026-05-01T08:35:00.999Z</time></trkpt><trkpt lat="42.362726260768326" lon="14.306973598169883"><ele>38.166666666666664</ele><time>2026-05-01T08:35:01.999Z</time></trkpt><trkpt lat="42.36263267598441" lon="14.306964923365879"><ele>38.0</ele><time>2026-05-01T08:35:02.999Z</time></trkpt><trkpt lat="42.36254924116058" lon="14.306954275548168"><ele>38.0</ele><time>2026-05-01T08:35:03.999Z</time></trkpt><trkpt lat="42.36246123190801" lon="14.306943751366145"><ele>38.0</ele><time>2026-05-01T08:35:04.999Z</time></trkpt><trkpt lat="42.36236131734442" lon="14.30694425888968"><ele>38.0</ele><time>2026-05-01T08:35:05.999Z</time></trkpt><trkpt lat="42.362250129114706" lon="14.306942555336542"><ele>38.0</ele><time>2026-05-01T08:35:06.999Z</time></trkpt><trkpt lat="42.36213989372525" lon="14.306932509113208"><ele>38.0</ele><time>2026-05-01T08:35:07.999Z</time></trkpt><trkpt lat="42.36205102387863" lon="14.306928012034321"><ele>37.83333333333333</ele><time>2026-05-01T08:35:08.999Z</time></trkpt><trkpt lat="42.36196038734385" lon="14.306932070566205"><ele>37.666666666666664</ele><time>2026-05-01T08:35:09.999Z</time></trkpt><trkpt lat="42.361876779592954" lon="14.306939200803615"><ele>37.5</ele><time>2026-05-01T08:35:10.999Z</time></trkpt><trkpt lat="42.361749418276645" lon="14.306903997528174"><ele>37.333333333333336</ele><time>2026-05-01T08:35:12.999Z</time></trkpt><trkpt lat="42.36167555718503" lon="14.306889909700775"><ele>37.16666666666667</ele><time>2026-05-01T08:35:13.999Z</time></trkpt><trkpt lat="42.361609414653415" lon="14.306870271061987"><ele>37.0</ele><time>2026-05-01T08:35:14.999Z</time></trkpt><trkpt lat="42.36152552000842" lon="14.306813044762297"><ele>37.0</ele><time>2026-05-01T08:35:16.999Z</time></trkpt><trkpt lat="42.361424192048354" lon="14.306717257123182"><ele>37.0</ele><time>2026-05-01T08:35:18.999Z</time></trkpt><trkpt lat="42.3613474637473" lon="14.30665908313262"><ele>37.0</ele><time>2026-05-01T08:35:19.999Z</time></trkpt><trkpt lat="42.36129093461622" lon="14.306566105418455"><ele>37.0</ele><time>2026-05-01T08:35:20.999Z</time></trkpt><trkpt lat="42.36121559909236" lon="14.306525775753716"><ele>37.0</ele><time>2026-05-01T08:35:21.999Z</time></trkpt><trkpt lat="42.361139281954706" lon="14.306490201867339"><ele>37.0</ele><time>2026-05-01T08:35:22.999Z</time></trkpt><trkpt lat="42.36104301738244" lon="14.306461597886356"><ele>37.0</ele><time>2026-05-01T08:35:23.999Z</time></trkpt><trkpt lat="42.36092355080842" lon="14.306436421009561"><ele>37.0</ele><time>2026-05-01T08:35:24.999Z</time></trkpt><trkpt lat="42.3607849604579" lon="14.306406300846895"><ele>37.0</ele><time>2026-05-01T08:35:25.999Z</time></trkpt><trkpt lat="42.36064777347205" lon="14.306384737626804"><ele>35.6</ele><time>2026-05-01T08:35:26.999Z</time></trkpt><trkpt lat="42.36054323058625" lon="14.306312898435051"><ele>34.2</ele><time>2026-05-01T08:35:27.999Z</time></trkpt><trkpt lat="42.3604493034607" lon="14.306260546434002"><ele>32.8</ele><time>2026-05-01T08:35:28.999Z</time></trkpt><trkpt lat="42.360345743857216" lon="14.306208371320894"><ele>31.4</ele><time>2026-05-01T08:35:29.999Z</time></trkpt><trkpt lat="42.360234527259756" lon="14.306173218281664"><ele>30.0</ele><time>2026-05-01T08:35:30.999Z</time></trkpt><trkpt lat="42.36015217223878" lon="14.306151106942945"><ele>30.333333333333332</ele><time>2026-05-01T08:35:31.999Z</time></trkpt><trkpt lat="42.36007090013776" lon="14.306128533047639"><ele>30.666666666666664</ele><time>2026-05-01T08:35:32.999Z</time></trkpt><trkpt lat="42.35999681584869" lon="14.306118434675954"><ele>31.0</ele><time>2026-05-01T08:35:33.999Z</time></trkpt><trkpt lat="42.35987202656482" lon="14.306129473244482"><ele>31.333333333333332</ele><time>2026-05-01T08:35:35.999Z</time></trkpt><trkpt lat="42.35979863006284" lon="14.306169090319061"><ele>31.666666666666664</ele><time>2026-05-01T08:35:36.999Z</time></trkpt><trkpt lat="42.35972461214331" lon="14.306209891365926"><ele>32.0</ele><time>2026-05-01T08:35:37.999Z</time></trkpt><trkpt lat="42.3595991602282" lon="14.306255084971253"><ele>31.999999999999996</ele><time>2026-05-01T08:35:39.999Z</time></trkpt><trkpt lat="42.35952416935105" lon="14.306282857800786"><ele>32.0</ele><time>2026-05-01T08:35:40.999Z</time></trkpt><trkpt lat="42.35943572687322" lon="14.306313877988295"><ele>32.0</ele><time>2026-05-01T08:35:41.999Z</time></trkpt><trkpt lat="42.359334465591516" lon="14.306344570433776"><ele>32.0</ele><time>2026-05-01T08:35:42.999Z</time></trkpt><trkpt lat="42.3592464712719" lon="14.30637100824695"><ele>31.999999999999996</ele><time>2026-05-01T08:35:43.999Z</time></trkpt><trkpt lat="42.359171475679304" lon="14.306404221046279"><ele>32.0</ele><time>2026-05-01T08:35:44.999Z</time></trkpt><trkpt lat="42.359077705348525" lon="14.306509839841091"><ele>32.25</ele><time>2026-05-01T08:35:46.999Z</time></trkpt><trkpt lat="42.35901454599236" lon="14.306611879377362"><ele>32.5</ele><time>2026-05-01T08:35:47.999Z</time></trkpt><trkpt lat="42.35892390348381" lon="14.30676045902028"><ele>32.75</ele><time>2026-05-01T08:35:48.999Z</time></trkpt><trkpt lat="42.35883243613625" lon="14.306907153050407"><ele>33.0</ele><time>2026-05-01T08:35:49.999Z</time></trkpt><trkpt lat="42.35875865740923" lon="14.307015194511049"><ele>32.6</ele><time>2026-05-01T08:35:50.999Z</time></trkpt><trkpt lat="42.358699963621376" lon="14.307052916831848"><ele>32.199999999999996</ele><time>2026-05-01T08:35:51.999Z</time></trkpt><trkpt lat="42.35860438967199" lon="14.307123086750362"><ele>31.8</ele><time>2026-05-01T08:35:53.999Z</time></trkpt><trkpt lat="42.358532518917556" lon="14.307114246645025"><ele>31.4</ele><time>2026-05-01T08:35:54.999Z</time></trkpt><trkpt lat="42.35840842661652" lon="14.307112482997697"><ele>31.0</ele><time>2026-05-01T08:35:56.999Z</time></trkpt><trkpt lat="42.35833634652929" lon="14.307063097218366"><ele>31.0</ele><time>2026-05-01T08:35:57.999Z</time></trkpt><trkpt lat="42.35819396558034" lon="14.307010636394745"><ele>31.0</ele><time>2026-05-01T08:35:58.999Z</time></trkpt><trkpt lat="42.35803385412502" lon="14.306941461511997"><ele>31.0</ele><time>2026-05-01T08:35:59.999Z</time></trkpt><trkpt lat="42.35785873506877" lon="14.306864685560223"><ele>31.25</ele><time>2026-05-01T08:36:00.999Z</time></trkpt><trkpt lat="42.357718313252974" lon="14.306778276001051"><ele>31.5</ele><time>2026-05-01T08:36:01.999Z</time></trkpt><trkpt lat="42.35761887300844" lon="14.306716387812662"><ele>31.75</ele><time>2026-05-01T08:36:02.999Z</time></trkpt><trkpt lat="42.35753231831112" lon="14.306670916359662"><ele>32.0</ele><time>2026-05-01T08:36:03.999Z</time></trkpt><trkpt lat="42.357438063724324" lon="14.306641637549157"><ele>32.0</ele><time>2026-05-01T08:36:04.999Z</time></trkpt><trkpt lat="42.357332253347884" lon="14.306585285135368"><ele>32.0</ele><time>2026-05-01T08:36:05.999Z</time></trkpt><trkpt lat="42.35722378996519" lon="14.306534546938163"><ele>32.0</ele><time>2026-05-01T08:36:06.999Z</time></trkpt><trkpt lat="42.357133906014994" lon="14.306481469123526"><ele>32.0</ele><time>2026-05-01T08:36:07.999Z</time></trkpt><trkpt lat="42.357035787079944" lon="14.306445672089298"><ele>32.0</ele><time>2026-05-01T08:36:08.999Z</time></trkpt><trkpt lat="42.35694777018126" lon="14.306418837495622"><ele>31.833333333333332</ele><time>2026-05-01T08:36:09.999Z</time></trkpt><trkpt lat="42.356858420499904" lon="14.306374157602697"><ele>31.666666666666664</ele><time>2026-05-01T08:36:10.999Z</time></trkpt><trkpt lat="42.35677676848537" lon="14.306358993080245"><ele>31.5</ele><time>2026-05-01T08:36:11.999Z</time></trkpt><trkpt lat="42.356699224375376" lon="14.306368558575667"><ele>31.333333333333336</ele><time>2026-05-01T08:36:12.999Z</time></trkpt><trkpt lat="42.356617266287735" lon="14.306346777640183"><ele>31.166666666666668</ele><time>2026-05-01T08:36:13.999Z</time></trkpt><trkpt lat="42.35654215142974" lon="14.306354874804525"><ele>31.0</ele><time>2026-05-01T08:36:14.999Z</time></trkpt><trkpt lat="42.356468456917426" lon="14.306355249957983"><ele>31.000000000000004</ele><time>2026-05-01T08:36:15.999Z</time></trkpt><trkpt lat="42.356391774807584" lon="14.306360797994198"><ele>31.0</ele><time>2026-05-01T08:36:17Z</time></trkpt><trkpt lat="42.35632787900354" lon="14.306371049966266"><ele>31.0</ele><time>2026-05-01T08:36:18Z</time></trkpt><trkpt lat="42.35625760757617" lon="14.306365399381454"><ele>31.0</ele><time>2026-05-01T08:36:19Z</time></trkpt><trkpt lat="42.35616529004856" lon="14.306383254833317"><ele>31.000000000000004</ele><time>2026-05-01T08:36:20Z</time></trkpt><trkpt lat="42.35607537329276" lon="14.306406214444161"><ele>31.0</ele><time>2026-05-01T08:36:21Z</time></trkpt><trkpt lat="42.355988269698884" lon="14.30643099816724"><ele>31.8</ele><time>2026-05-01T08:36:22Z</time></trkpt><trkpt lat="42.35590394330656" lon="14.306456220779447"><ele>32.6</ele><time>2026-05-01T08:36:23Z</time></trkpt><trkpt lat="42.35579356977638" lon="14.306512387103735"><ele>33.4</ele><time>2026-05-01T08:36:24Z</time></trkpt><trkpt lat="42.35568237142964" lon="14.306546112639293"><ele>34.2</ele><time>2026-05-01T08:36:25Z</time></trkpt><trkpt lat="42.35557606930265" lon="14.306572581527975"><ele>35.0</ele><time>2026-05-01T08:36:26Z</time></trkpt><trkpt lat="42.355467931923215" lon="14.306615369559406"><ele>35.0</ele><time>2026-05-01T08:36:27Z</time></trkpt><trkpt lat="42.355354494040434" lon="14.306673303959615"><ele>35.0</ele><time>2026-05-01T08:36:28Z</time></trkpt><trkpt lat="42.355242067852934" lon="14.306731722467454"><ele>35.0</ele><time>2026-05-01T08:36:29Z</time></trkpt><trkpt lat="42.355146390986434" lon="14.30676956649569"><ele>35.0</ele><time>2026-05-01T08:36:30Z</time></trkpt><trkpt lat="42.35504803940787" lon="14.306793848042757"><ele>35.0</ele><time>2026-05-01T08:36:31Z</time></trkpt><trkpt lat="42.35492978623274" lon="14.306856555351123"><ele>35.0</ele><time>2026-05-01T08:36:32Z</time></trkpt><trkpt lat="42.35481560066081" lon="14.306907120454369"><ele>35.0</ele><time>2026-05-01T08:36:33Z</time></trkpt><trkpt lat="42.35470648219604" lon="14.306936780642904"><ele>35.0</ele><time>2026-05-01T08:36:34Z</time></trkpt><trkpt lat="42.35459918889697" lon="14.306996325667862"><ele>35.0</ele><time>2026-05-01T08:36:35Z</time></trkpt><trkpt lat="42.3544875593317" lon="14.307026381968518"><ele>35.0</ele><time>2026-05-01T08:36:36Z</time></trkpt><trkpt lat="42.35438281210424" lon="14.307058536699722"><ele>35.0</ele><time>2026-05-01T08:36:37Z</time></trkpt><trkpt lat="42.35428980682632" lon="14.307122515692845"><ele>35.0</ele><time>2026-05-01T08:36:38Z</time></trkpt><trkpt lat="42.35420476170095" lon="14.30717626339018"><ele>35.0</ele><time>2026-05-01T08:36:39Z</time></trkpt><trkpt lat="42.3541349919152" lon="14.30722558378849"><ele>35.0</ele><time>2026-05-01T08:36:40Z</time></trkpt><trkpt lat="42.35406409329482" lon="14.30727029208162"><ele>35.83333333333333</ele><time>2026-05-01T08:36:41Z</time></trkpt><trkpt lat="42.353998480763046" lon="14.307310102289831"><ele>36.666666666666664</ele><time>2026-05-01T08:36:42Z</time></trkpt><trkpt lat="42.35392306962562" lon="14.307326157131707"><ele>37.5</ele><time>2026-05-01T08:36:43Z</time></trkpt><trkpt lat="42.353841635185965" lon="14.307346988482117"><ele>38.333333333333336</ele><time>2026-05-01T08:36:44Z</time></trkpt><trkpt lat="42.35376030325242" lon="14.307357476943846"><ele>39.16666666666667</ele><time>2026-05-01T08:36:45Z</time></trkpt><trkpt lat="42.35367721182457" lon="14.307360583922138"><ele>40.0</ele><time>2026-05-01T08:36:46Z</time></trkpt><trkpt lat="42.35360794746858" lon="14.307366148989368"><ele>40.0</ele><time>2026-05-01T08:36:47Z</time></trkpt><trkpt lat="42.3535188426722" lon="14.307394295216339"><ele>40.0</ele><time>2026-05-01T08:36:48Z</time></trkpt><trkpt lat="42.353448563613235" lon="14.307386887690306"><ele>40.0</ele><time>2026-05-01T08:36:49Z</time></trkpt><trkpt lat="42.3533707749713" lon="14.307426747821834"><ele>40.0</ele><time>2026-05-01T08:36:50Z</time></trkpt><trkpt lat="42.353310038085134" lon="14.307486980905395"><ele>40.0</ele><time>2026-05-01T08:36:51Z</time></trkpt><trkpt lat="42.35322382443008" lon="14.30756482747843"><ele>40.0</ele><time>2026-05-01T08:36:52Z</time></trkpt><trkpt lat="42.35316114408836" lon="14.307632230215269"><ele>40.0</ele><time>2026-05-01T08:36:53Z</time></trkpt><trkpt lat="42.35311102862609" lon="14.30769753974489"><ele>40.0</ele><time>2026-05-01T08:36:54Z</time></trkpt><trkpt lat="42.353034038451476" lon="14.307733996977378"><ele>40.0</ele><time>2026-05-01T08:36:54.999Z</time></trkpt><trkpt lat="42.35294678017972" lon="14.307772265151819"><ele>40.0</ele><time>2026-05-01T08:36:55.999Z</time></trkpt><trkpt lat="42.35288329656448" lon="14.307748760891519"><ele>40.0</ele><time>2026-05-01T08:36:56.999Z</time></trkpt><trkpt lat="42.352814812385745" lon="14.307738391687613"><ele>40.0</ele><time>2026-05-01T08:36:57.999Z</time></trkpt><trkpt lat="42.352720584838195" lon="14.30770900939036"><ele>39.8</ele><time>2026-05-01T08:36:58.999Z</time></trkpt><trkpt lat="42.35260353296172" lon="14.30763750630598"><ele>39.6</ele><time>2026-05-01T08:36:59.999Z</time></trkpt><trkpt lat="42.352472084932366" lon="14.3075730157642"><ele>39.4</ele><time>2026-05-01T08:37:00.999Z</time></trkpt><trkpt lat="42.35239713062757" lon="14.30755204656893"><ele>39.2</ele><time>2026-05-01T08:37:01.999Z</time></trkpt><trkpt lat="42.35230448487902" lon="14.30758393019259"><ele>39.0</ele><time>2026-05-01T08:37:02.999Z</time></trkpt><trkpt lat="42.35216182032296" lon="14.3076175235961"><ele>39.0</ele><time>2026-05-01T08:37:03.999Z</time></trkpt><trkpt lat="42.352023664045824" lon="14.307650493985598"><ele>39.0</ele><time>2026-05-01T08:37:04.999Z</time></trkpt><trkpt lat="42.351858849150595" lon="14.307686509744185"><ele>39.0</ele><time>2026-05-01T08:37:05.999Z</time></trkpt><trkpt lat="42.35167037540637" lon="14.30771357291117"><ele>39.0</ele><time>2026-05-01T08:37:06.999Z</time></trkpt><trkpt lat="42.351480408773526" lon="14.30774301287006"><ele>39.0</ele><time>2026-05-01T08:37:07.999Z</time></trkpt><trkpt lat="42.3513130100543" lon="14.3077738614725"><ele>39.0</ele><time>2026-05-01T08:37:08.999Z</time></trkpt><trkpt lat="42.35116059706332" lon="14.30779923152141"><ele>40.0</ele><time>2026-05-01T08:37:09.999Z</time></trkpt><trkpt lat="42.35102127634822" lon="14.307818649122208"><ele>41.0</ele><time>2026-05-01T08:37:10.999Z</time></trkpt><trkpt lat="42.350895681861616" lon="14.307832305376783"><ele>42.0</ele><time>2026-05-01T08:37:11.999Z</time></trkpt><trkpt lat="42.35078087459481" lon="14.307820797430935"><ele>43.0</ele><time>2026-05-01T08:37:12.999Z</time></trkpt><trkpt lat="42.35066975680851" lon="14.30781906044212"><ele>43.25</ele><time>2026-05-01T08:37:13.999Z</time></trkpt><trkpt lat="42.350539256038815" lon="14.30782613405953"><ele>43.5</ele><time>2026-05-01T08:37:14.999Z</time></trkpt><trkpt lat="42.35038962046326" lon="14.307867129654674"><ele>43.75</ele><time>2026-05-01T08:37:15.999Z</time></trkpt><trkpt lat="42.35024483083564" lon="14.307945570432308"><ele>44.0</ele><time>2026-05-01T08:37:16.999Z</time></trkpt><trkpt lat="42.35009878011828" lon="14.30802155913682"><ele>44.0</ele><time>2026-05-01T08:37:17.999Z</time></trkpt><trkpt lat="42.34995402016425" lon="14.30807857045392"><ele>44.0</ele><time>2026-05-01T08:37:18.999Z</time></trkpt><trkpt lat="42.34982532072727" lon="14.30814008720887"><ele>44.0</ele><time>2026-05-01T08:37:19.999Z</time></trkpt><trkpt lat="42.34971355856767" lon="14.308196645315661"><ele>44.0</ele><time>2026-05-01T08:37:20.999Z</time></trkpt><trkpt lat="42.34960674787486" lon="14.308255852485981"><ele>43.800000000000004</ele><time>2026-05-01T08:37:21.999Z</time></trkpt><trkpt lat="42.34950792654711" lon="14.308313559285855"><ele>43.6</ele><time>2026-05-01T08:37:22.999Z</time></trkpt><trkpt lat="42.34942921443241" lon="14.308371791654638"><ele>43.4</ele><time>2026-05-01T08:37:23.999Z</time></trkpt><trkpt lat="42.34936626180825" lon="14.308392275760847"><ele>43.2</ele><time>2026-05-01T08:37:24.999Z</time></trkpt><trkpt lat="42.349275123712154" lon="14.308314945796875"><ele>43.0</ele><time>2026-05-01T08:37:26.999Z</time></trkpt><trkpt lat="42.34924062447497" lon="14.308174557243612"><ele>42.833333333333336</ele><time>2026-05-01T08:37:28.999Z</time></trkpt><trkpt lat="42.349257181839256" lon="14.308051142037515"><ele>42.66666666666667</ele><time>2026-05-01T08:37:29.999Z</time></trkpt><trkpt lat="42.349239685057555" lon="14.307954251255772"><ele>42.5</ele><time>2026-05-01T08:37:30.999Z</time></trkpt><trkpt lat="42.349196554495045" lon="14.307866002263536"><ele>42.333333333333336</ele><time>2026-05-01T08:37:31.999Z</time></trkpt><trkpt lat="42.3491377789853" lon="14.30783235736708"><ele>42.166666666666664</ele><time>2026-05-01T08:37:32.999Z</time></trkpt><trkpt lat="42.34903697858808" lon="14.307837903200294"><ele>42.0</ele><time>2026-05-01T08:37:33.999Z</time></trkpt><trkpt lat="42.3489627388073" lon="14.307820993175035"><ele>42.0</ele><time>2026-05-01T08:37:34.999Z</time></trkpt><trkpt lat="42.34890098594166" lon="14.307690856021676"><ele>42.0</ele><time>2026-05-01T08:37:36.999Z</time></trkpt><trkpt lat="42.34888594871582" lon="14.307544055806437"><ele>42.0</ele><time>2026-05-01T08:37:37.999Z</time></trkpt><trkpt lat="42.34885204552993" lon="14.307351321565324"><ele>42.0</ele><time>2026-05-01T08:37:38.999Z</time></trkpt><trkpt lat="42.34881594560594" lon="14.307163096933927"><ele>42.0</ele><time>2026-05-01T08:37:39.999Z</time></trkpt><trkpt lat="42.34877905834208" lon="14.30699651837856"><ele>42.0</ele><time>2026-05-01T08:37:40.999Z</time></trkpt><trkpt lat="42.34873716130019" lon="14.306855255457414"><ele>42.0</ele><time>2026-05-01T08:37:41.999Z</time></trkpt><trkpt lat="42.34868383102566" lon="14.306727771611385"><ele>42.0</ele><time>2026-05-01T08:37:42.999Z</time></trkpt><trkpt lat="42.34863296545571" lon="14.30661012523355"><ele>42.0</ele><time>2026-05-01T08:37:43.999Z</time></trkpt><trkpt lat="42.348596544797495" lon="14.306504564771902"><ele>42.0</ele><time>2026-05-01T08:37:44.999Z</time></trkpt><trkpt lat="42.348578107827436" lon="14.306416568947883"><ele>42.0</ele><time>2026-05-01T08:37:45.999Z</time></trkpt><trkpt lat="42.348615852754726" lon="14.306268239261266"><ele>42.0</ele><time>2026-05-01T08:37:47.999Z</time></trkpt><trkpt lat="42.34868495806982" lon="14.306190193284726"><ele>42.0</ele><time>2026-05-01T08:37:48.999Z</time></trkpt><trkpt lat="42.34874206139148" lon="14.306075155621768"><ele>42.0</ele><time>2026-05-01T08:37:49.999Z</time></trkpt><trkpt lat="42.348811016499766" lon="14.305973276036175"><ele>42.0</ele><time>2026-05-01T08:37:50.999Z</time></trkpt><trkpt lat="42.34887538877868" lon="14.305874102205117"><ele>42.0</ele><time>2026-05-01T08:37:51.999Z</time></trkpt><trkpt lat="42.34891021048619" lon="14.305775007214447"><ele>42.0</ele><time>2026-05-01T08:37:52.999Z</time></trkpt><trkpt lat="42.3489177852024" lon="14.305674618631498"><ele>42.0</ele><time>2026-05-01T08:37:53.999Z</time></trkpt><trkpt lat="42.34886239259681" lon="14.30559074249897"><ele>42.0</ele><time>2026-05-01T08:37:54.999Z</time></trkpt><trkpt lat="42.34874535455792" lon="14.30548773762224"><ele>44.166666666666664</ele><time>2026-05-01T08:37:56.999Z</time></trkpt><trkpt lat="42.34868734584387" lon="14.30543693624305"><ele>46.33333333333333</ele><time>2026-05-01T08:37:57.999Z</time></trkpt><trkpt lat="42.34857577048891" lon="14.305400117427002"><ele>48.5</ele><time>2026-05-01T08:37:59.999Z</time></trkpt><trkpt lat="42.34849552006451" lon="14.305373734312516"><ele>50.666666666666664</ele><time>2026-05-01T08:38:01.999Z</time></trkpt><trkpt lat="42.34842985521818" lon="14.30542190502129"><ele>52.83333333333333</ele><time>2026-05-01T08:38:02.999Z</time></trkpt><trkpt lat="42.348376949095915" lon="14.30547793933959"><ele>55.0</ele><time>2026-05-01T08:38:03.999Z</time></trkpt><trkpt lat="42.34830602273396" lon="14.305553059447831"><ele>55.0</ele><time>2026-05-01T08:38:04.999Z</time></trkpt><trkpt lat="42.348223439786096" lon="14.305640525280971"><ele>55.0</ele><time>2026-05-01T08:38:05.999Z</time></trkpt><trkpt lat="42.34813264248405" lon="14.305736691238158"><ele>55.0</ele><time>2026-05-01T08:38:06.999Z</time></trkpt><trkpt lat="42.348037092854945" lon="14.305849292122044"><ele>55.0</ele><time>2026-05-01T08:38:07.998Z</time></trkpt><trkpt lat="42.347928544637334" lon="14.305973799550333"><ele>55.0</ele><time>2026-05-01T08:38:08.998Z</time></trkpt><trkpt lat="42.34780148807032" lon="14.306097923125305"><ele>55.0</ele><time>2026-05-01T08:38:09.998Z</time></trkpt><trkpt lat="42.347677078443716" lon="14.306226571128194"><ele>55.0</ele><time>2026-05-01T08:38:10.998Z</time></trkpt><trkpt lat="42.34755765699966" lon="14.306346811767765"><ele>54.25</ele><time>2026-05-01T08:38:11.998Z</time></trkpt><trkpt lat="42.347457286185" lon="14.30643631710224"><ele>53.5</ele><time>2026-05-01T08:38:12.998Z</time></trkpt><trkpt lat="42.3473489323874" lon="14.306514054065026"><ele>52.75</ele><time>2026-05-01T08:38:13.998Z</time></trkpt><trkpt lat="42.347232844966335" lon="14.306579488812249"><ele>52.0</ele><time>2026-05-01T08:38:14.998Z</time></trkpt><trkpt lat="42.34708990172885" lon="14.306648115792774"><ele>52.0</ele><time>2026-05-01T08:38:15.998Z</time></trkpt><trkpt lat="42.346925995672706" lon="14.306730170443965"><ele>52.0</ele><time>2026-05-01T08:38:16.998Z</time></trkpt><trkpt lat="42.34674201363551" lon="14.306822352380927"><ele>52.0</ele><time>2026-05-01T08:38:17.998Z</time></trkpt><trkpt lat="42.346532024885825" lon="14.306927564713575"><ele>52.5</ele><time>2026-05-01T08:38:18.998Z</time></trkpt><trkpt lat="42.346309514526794" lon="14.307039050712342"><ele>53.0</ele><time>2026-05-01T08:38:19.998Z</time></trkpt><trkpt lat="42.34606678324525" lon="14.307160669945278"><ele>50.0</ele><time>2026-05-01T08:38:20.998Z</time></trkpt><trkpt lat="42.345843145082455" lon="14.307272721123768"><ele>47.0</ele><time>2026-05-01T08:38:21.998Z</time></trkpt><trkpt lat="42.34563520107398" lon="14.30738092154798"><ele>47.5</ele><time>2026-05-01T08:38:23Z</time></trkpt><trkpt lat="42.3454262840077" lon="14.307503373752173"><ele>48.0</ele><time>2026-05-01T08:38:24Z</time></trkpt><trkpt lat="42.34522613926464" lon="14.307651516465697"><ele>48.0</ele><time>2026-05-01T08:38:25Z</time></trkpt><trkpt lat="42.345010335458774" lon="14.307769683299519"><ele>48.0</ele><time>2026-05-01T08:38:26Z</time></trkpt><trkpt lat="42.34480478683185" lon="14.307889607784281"><ele>48.33333333333333</ele><time>2026-05-01T08:38:27Z</time></trkpt><trkpt lat="42.344615062256814" lon="14.308009609293698"><ele>48.666666666666664</ele><time>2026-05-01T08:38:28Z</time></trkpt><trkpt lat="42.344444611132545" lon="14.308116263173233"><ele>49.0</ele><time>2026-05-01T08:38:29Z</time></trkpt><trkpt lat="42.344294767723234" lon="14.308209342682709"><ele>47.5</ele><time>2026-05-01T08:38:30Z</time></trkpt><trkpt lat="42.344156280875346" lon="14.308296751696739"><ele>46.0</ele><time>2026-05-01T08:38:31Z</time></trkpt><trkpt lat="42.344030818873385" lon="14.308373710351523"><ele>44.5</ele><time>2026-05-01T08:38:32Z</time></trkpt><trkpt lat="42.34391543946877" lon="14.308442604785842"><ele>43.0</ele><time>2026-05-01T08:38:33Z</time></trkpt><trkpt lat="42.34381285537306" lon="14.30850494408461"><ele>43.0</ele><time>2026-05-01T08:38:34Z</time></trkpt><trkpt lat="42.34371988210047" lon="14.308548077224296"><ele>43.0</ele><time>2026-05-01T08:38:35Z</time></trkpt><trkpt lat="42.343600861185045" lon="14.308511534692338"><ele>43.0</ele><time>2026-05-01T08:38:36Z</time></trkpt><trkpt lat="42.34349611623027" lon="14.308572739571838"><ele>43.0</ele><time>2026-05-01T08:38:38Z</time></trkpt><trkpt lat="42.34341585337928" lon="14.308573231377945"><ele>43.0</ele><time>2026-05-01T08:38:39Z</time></trkpt><trkpt lat="42.34333702348183" lon="14.308556649921899"><ele>43.0</ele><time>2026-05-01T08:38:40Z</time></trkpt><trkpt lat="42.3432635866875" lon="14.30851503977788"><ele>43.0</ele><time>2026-05-01T08:38:41Z</time></trkpt><trkpt lat="42.343200657304045" lon="14.308461698647369"><ele>43.0</ele><time>2026-05-01T08:38:42Z</time></trkpt><trkpt lat="42.34312973278246" lon="14.30839829497057"><ele>43.0</ele><time>2026-05-01T08:38:43Z</time></trkpt><trkpt lat="42.34305857909946" lon="14.308311961125385"><ele>43.0</ele><time>2026-05-01T08:38:44Z</time></trkpt><trkpt lat="42.34298195220141" lon="14.308262288108338"><ele>43.0</ele><time>2026-05-01T08:38:45Z</time></trkpt><trkpt lat="42.3429091220321" lon="14.30818251531737"><ele>43.16666666666667</ele><time>2026-05-01T08:38:46Z</time></trkpt><trkpt lat="42.34283666657194" lon="14.308117306432928"><ele>43.333333333333336</ele><time>2026-05-01T08:38:47Z</time></trkpt><trkpt lat="42.34276934098212" lon="14.308048615456261"><ele>43.5</ele><time>2026-05-01T08:38:48Z</time></trkpt><trkpt lat="42.342698982912864" lon="14.307970581032338"><ele>43.666666666666664</ele><time>2026-05-01T08:38:49Z</time></trkpt><trkpt lat="42.34263652093031" lon="14.307924025628031"><ele>43.83333333333333</ele><time>2026-05-01T08:38:50Z</time></trkpt><trkpt lat="42.3425803885348" lon="14.307861280850988"><ele>44.0</ele><time>2026-05-01T08:38:51Z</time></trkpt><trkpt lat="42.34245206769083" lon="14.307799586462293"><ele>44.5</ele><time>2026-05-01T08:38:53Z</time></trkpt><trkpt lat="42.34238550382018" lon="14.307797208278155"><ele>45.0</ele><time>2026-05-01T08:38:54Z</time></trkpt><trkpt lat="42.34231304923366" lon="14.307820216703378"><ele>45.5</ele><time>2026-05-01T08:38:55Z</time></trkpt><trkpt lat="42.34224289833049" lon="14.307837248784246"><ele>46.0</ele><time>2026-05-01T08:38:56Z</time></trkpt><trkpt lat="42.342160886538515" lon="14.307878518294016"><ele>46.5</ele><time>2026-05-01T08:38:57Z</time></trkpt><trkpt lat="42.34207265081368" lon="14.307934585573573"><ele>47.0</ele><time>2026-05-01T08:38:58Z</time></trkpt><trkpt lat="42.34197460214151" lon="14.307984584022595"><ele>47.0</ele><time>2026-05-01T08:38:59Z</time></trkpt><trkpt lat="42.341882334517024" lon="14.308040639491667"><ele>47.0</ele><time>2026-05-01T08:39:00Z</time></trkpt><trkpt lat="42.341808955524996" lon="14.308069000187864"><ele>47.0</ele><time>2026-05-01T08:39:01Z</time></trkpt><trkpt lat="42.34168947016169" lon="14.30813775780493"><ele>47.0</ele><time>2026-05-01T08:39:03Z</time></trkpt><trkpt lat="42.341612124940475" lon="14.308180662649594"><ele>47.0</ele><time>2026-05-01T08:39:04Z</time></trkpt><trkpt lat="42.341528242790446" lon="14.308242952524562"><ele>46.8</ele><time>2026-05-01T08:39:05Z</time></trkpt><trkpt lat="42.34141552305414" lon="14.30830530018788"><ele>46.6</ele><time>2026-05-01T08:39:06Z</time></trkpt><trkpt lat="42.341341451285466" lon="14.308316184897091"><ele>46.4</ele><time>2026-05-01T08:39:07Z</time></trkpt><trkpt lat="42.34125970846261" lon="14.308348468067145"><ele>46.199999999999996</ele><time>2026-05-01T08:39:08Z</time></trkpt><trkpt lat="42.34117698184891" lon="14.308399158702358"><ele>46.0</ele><time>2026-05-01T08:39:09Z</time></trkpt><trkpt lat="42.34109719873818" lon="14.30840838219818"><ele>45.599999999999994</ele><time>2026-05-01T08:39:10Z</time></trkpt><trkpt lat="42.34100278837101" lon="14.308443189411324"><ele>45.2</ele><time>2026-05-01T08:39:12Z</time></trkpt><trkpt lat="42.34089093547325" lon="14.308484647404121"><ele>44.8</ele><time>2026-05-01T08:39:14Z</time></trkpt><trkpt lat="42.340828997908424" lon="14.308508725672327"><ele>44.400000000000006</ele><time>2026-05-01T08:39:15Z</time></trkpt><trkpt lat="42.340719583380604" lon="14.308561535603515"><ele>44.0</ele><time>2026-05-01T08:39:17Z</time></trkpt><trkpt lat="42.340605742563206" lon="14.308565298239232"><ele>44.33333333333333</ele><time>2026-05-01T08:39:18.999Z</time></trkpt><trkpt lat="42.340543161776964" lon="14.30858103439572"><ele>44.666666666666664</ele><time>2026-05-01T08:39:19.999Z</time></trkpt><trkpt lat="42.34043056761473" lon="14.308593026948985"><ele>45.0</ele><time>2026-05-01T08:39:21.999Z</time></trkpt><trkpt lat="42.34035584808102" lon="14.308596761507705"><ele>45.333333333333336</ele><time>2026-05-01T08:39:23.999Z</time></trkpt><trkpt lat="42.34026949767536" lon="14.308601800152925"><ele>45.66666666666667</ele><time>2026-05-01T08:39:25.999Z</time></trkpt><trkpt lat="42.340203531014396" lon="14.30866419781217"><ele>46.0</ele><time>2026-05-01T08:39:27.999Z</time></trkpt><trkpt lat="42.34011337071424" lon="14.308865512146035"><ele>46.0</ele><time>2026-05-01T08:39:29.999Z</time></trkpt><trkpt lat="42.33998154135196" lon="14.308888650493273"><ele>46.0</ele><time>2026-05-01T08:39:31.999Z</time></trkpt><trkpt lat="42.33991716244643" lon="14.308880585431362"><ele>46.0</ele><time>2026-05-01T08:39:32.999Z</time></trkpt><trkpt lat="42.33980838832999" lon="14.308847803440969"><ele>46.0</ele><time>2026-05-01T08:39:34.999Z</time></trkpt><trkpt lat="42.33969095182937" lon="14.308777913771287"><ele>46.0</ele><time>2026-05-01T08:39:36.999Z</time></trkpt><trkpt lat="42.33958836424515" lon="14.308707593201742"><ele>45.833333333333336</ele><time>2026-05-01T08:39:38.999Z</time></trkpt><trkpt lat="42.339487073572876" lon="14.308638094769782"><ele>45.66666666666667</ele><time>2026-05-01T08:39:40.999Z</time></trkpt><trkpt lat="42.339426840979556" lon="14.308595556679645"><ele>45.5</ele><time>2026-05-01T08:39:41.999Z</time></trkpt><trkpt lat="42.33936700832188" lon="14.308552011222497"><ele>45.333333333333336</ele><time>2026-05-01T08:39:42.999Z</time></trkpt><trkpt lat="42.33925436973219" lon="14.308459735446485"><ele>45.166666666666664</ele><time>2026-05-01T08:39:44.999Z</time></trkpt><trkpt lat="42.33920083555746" lon="14.308408343758332"><ele>45.0</ele><time>2026-05-01T08:39:45.999Z</time></trkpt><trkpt lat="42.33914142866659" lon="14.30834518500289"><ele>45.0</ele><time>2026-05-01T08:39:46.999Z</time></trkpt><trkpt lat="42.33907547673775" lon="14.30827194613635"><ele>45.0</ele><time>2026-05-01T08:39:47.999Z</time></trkpt><trkpt lat="42.33900947791708" lon="14.30819073537891"><ele>45.0</ele><time>2026-05-01T08:39:48.999Z</time></trkpt><trkpt lat="42.33894503887466" lon="14.308111444608429"><ele>45.0</ele><time>2026-05-01T08:39:49.999Z</time></trkpt><trkpt lat="42.33889147270802" lon="14.30805069320489"><ele>45.0</ele><time>2026-05-01T08:39:50.999Z</time></trkpt><trkpt lat="42.33883798480679" lon="14.307991605038348"><ele>45.0</ele><time>2026-05-01T08:39:51.999Z</time></trkpt><trkpt lat="42.33877989679595" lon="14.307927434628041"><ele>45.333333333333336</ele><time>2026-05-01T08:39:52.999Z</time></trkpt><trkpt lat="42.338720980943094" lon="14.307866238349797"><ele>45.666666666666664</ele><time>2026-05-01T08:39:53.999Z</time></trkpt><trkpt lat="42.3386652801594" lon="14.307812994755402"><ele>46.0</ele><time>2026-05-01T08:39:54.999Z</time></trkpt><trkpt lat="42.3385899623945" lon="14.307749820388935"><ele>46.33333333333333</ele><time>2026-05-01T08:39:56.999Z</time></trkpt><trkpt lat="42.33849915621171" lon="14.30769303523434"><ele>46.666666666666664</ele><time>2026-05-01T08:39:59.999Z</time></trkpt><trkpt lat="42.33842064168569" lon="14.307652669142406"><ele>47.0</ele><time>2026-05-01T08:40:01.999Z</time></trkpt><trkpt lat="42.33827616037466" lon="14.30759621944445"><ele>47.0</ele><time>2026-05-01T08:40:03.999Z</time></trkpt><trkpt lat="42.338190337422766" lon="14.307559936818341"><ele>47.0</ele><time>2026-05-01T08:40:04.999Z</time></trkpt><trkpt lat="42.338117957316015" lon="14.307529783578785"><ele>47.0</ele><time>2026-05-01T08:40:05.999Z</time></trkpt><trkpt lat="42.33804374251336" lon="14.30749886607378"><ele>47.0</ele><time>2026-05-01T08:40:06.999Z</time></trkpt><trkpt lat="42.337937976078145" lon="14.307455878064443"><ele>47.0</ele><time>2026-05-01T08:40:08.999Z</time></trkpt><trkpt lat="42.337833799949" lon="14.307414832926149"><ele>47.400000000000006</ele><time>2026-05-01T08:40:10.999Z</time></trkpt><trkpt lat="42.3377114049742" lon="14.307367991515715"><ele>47.800000000000004</ele><time>2026-05-01T08:40:12.999Z</time></trkpt><trkpt lat="42.33764995586292" lon="14.307344504503838"><ele>48.2</ele><time>2026-05-01T08:40:13.999Z</time></trkpt><trkpt lat="42.337556547182174" lon="14.307308801905235"><ele>48.6</ele><time>2026-05-01T08:40:15.999Z</time></trkpt><trkpt lat="42.33745560954113" lon="14.30725280105789"><ele>49.0</ele><time>2026-05-01T08:40:17.999Z</time></trkpt><trkpt lat="42.337363516050274" lon="14.3072287933703"><ele>49.0</ele><time>2026-05-01T08:40:19.999Z</time></trkpt><trkpt lat="42.337265263805065" lon="14.307187113149856"><ele>49.0</ele><time>2026-05-01T08:40:21.999Z</time></trkpt><trkpt lat="42.337164196859455" lon="14.307149527454607"><ele>49.0</ele><time>2026-05-01T08:40:23.999Z</time></trkpt><trkpt lat="42.337067318262356" lon="14.307113499599522"><ele>49.0</ele><time>2026-05-01T08:40:25.999Z</time></trkpt><trkpt lat="42.33695717604396" lon="14.307072539010319"><ele>49.0</ele><time>2026-05-01T08:40:27.999Z</time></trkpt><trkpt lat="42.33684099362515" lon="14.30702484659585"><ele>49.33333333333333</ele><time>2026-05-01T08:40:30Z</time></trkpt><trkpt lat="42.33677660990181" lon="14.306998043336751"><ele>49.666666666666664</ele><time>2026-05-01T08:40:31Z</time></trkpt><trkpt lat="42.33670817283348" lon="14.30696904847725"><ele>50.0</ele><time>2026-05-01T08:40:32Z</time></trkpt><trkpt lat="42.336645904698585" lon="14.306942328126972"><ele>50.33333333333333</ele><time>2026-05-01T08:40:33Z</time></trkpt><trkpt lat="42.33657890917974" lon="14.306916875289252"><ele>50.666666666666664</ele><time>2026-05-01T08:40:34Z</time></trkpt><trkpt lat="42.336457396633115" lon="14.306870710240194"><ele>51.0</ele><time>2026-05-01T08:40:36Z</time></trkpt><trkpt lat="42.33637556082964" lon="14.3068387038382"><ele>51.166666666666664</ele><time>2026-05-01T08:40:37Z</time></trkpt><trkpt lat="42.33629425554321" lon="14.306805769469499"><ele>51.33333333333333</ele><time>2026-05-01T08:40:39Z</time></trkpt><trkpt lat="42.33620726573325" lon="14.306770413481148"><ele>51.5</ele><time>2026-05-01T08:40:41Z</time></trkpt><trkpt lat="42.33611705046894" lon="14.30673228553077"><ele>51.666666666666664</ele><time>2026-05-01T08:40:43Z</time></trkpt><trkpt lat="42.336020749880454" lon="14.30668185700337"><ele>51.83333333333333</ele><time>2026-05-01T08:40:45Z</time></trkpt><trkpt lat="42.33595660081602" lon="14.306643316281633"><ele>52.0</ele><time>2026-05-01T08:41:59.999Z</time></trkpt><trkpt lat="42.33588302707424" lon="14.306599113503177"><ele>52.0</ele><time>2026-05-01T08:42:01.999Z</time></trkpt><trkpt lat="42.33579761482618" lon="14.306557901347052"><ele>52.0</ele><time>2026-05-01T08:42:04.999Z</time></trkpt><trkpt lat="42.335574750524536" lon="14.30596986180882"><ele>52.8</ele><time>2026-05-01T08:42:06.999Z</time></trkpt><trkpt lat="42.335757253907694" lon="14.305926507492591"><ele>53.6</ele><time>2026-05-01T08:42:08.999Z</time></trkpt><trkpt lat="42.335698755735194" lon="14.305873771360176"><ele>54.39999999999999</ele><time>2026-05-01T08:42:10.999Z</time></trkpt><trkpt lat="42.33562531933188" lon="14.305835398200578"><ele>55.199999999999996</ele><time>2026-05-01T08:42:12.999Z</time></trkpt><trkpt lat="42.335575967240615" lon="14.305764597004686"><ele>56.0</ele><time>2026-05-01T08:42:15.999Z</time></trkpt><trkpt lat="42.33561272204934" lon="14.305690851589791"><ele>57.4</ele><time>2026-05-01T08:43:45.999Z</time></trkpt><trkpt lat="42.33564721213594" lon="14.305563363781767"><ele>58.8</ele><time>2026-05-01T08:43:47.999Z</time></trkpt><trkpt lat="42.33569118211761" lon="14.30543893361635"><ele>60.199999999999996</ele><time>2026-05-01T08:43:49.999Z</time></trkpt><trkpt lat="42.33574134384285" lon="14.305335456222235"><ele>61.599999999999994</ele><time>2026-05-01T08:43:51.999Z</time></trkpt><trkpt lat="42.33578185818451" lon="14.305238288817476"><ele>63.0</ele><time>2026-05-01T08:43:53.999Z</time></trkpt><trkpt lat="42.3358258322561" lon="14.305117484157886"><ele>63.0</ele><time>2026-05-01T08:43:55.999Z</time></trkpt><trkpt lat="42.335868789190684" lon="14.30498982018007"><ele>63.0</ele><time>2026-05-01T08:43:57.999Z</time></trkpt><trkpt lat="42.33585038724192" lon="14.304867085645661"><ele>63.0</ele><time>2026-05-01T08:43:59.999Z</time></trkpt><trkpt lat="42.33579079999454" lon="14.304717300622825"><ele>63.0</ele><time>2026-05-01T08:44:01.999Z</time></trkpt><trkpt lat="42.33575970553958" lon="14.30463536743982"><ele>63.0</ele><time>2026-05-01T08:44:02.999Z</time></trkpt><trkpt lat="42.335704781293195" lon="14.304484192293295"><ele>64.4</ele><time>2026-05-01T08:44:04.999Z</time></trkpt><trkpt lat="42.33561160257262" lon="14.304382357049208"><ele>65.8</ele><time>2026-05-01T08:44:06.999Z</time></trkpt><trkpt lat="42.33552130051356" lon="14.304282710700328"><ele>67.2</ele><time>2026-05-01T08:44:08.999Z</time></trkpt><trkpt lat="42.335445573811505" lon="14.304219160791686"><ele>68.6</ele><time>2026-05-01T08:44:10.999Z</time></trkpt><trkpt lat="42.33538466010571" lon="14.30415321330615"><ele>70.0</ele><time>2026-05-01T08:44:12.999Z</time></trkpt><trkpt lat="42.335374443282696" lon="14.30406386064123"><ele>70.0</ele><time>2026-05-01T08:44:13.999Z</time></trkpt><trkpt lat="42.33536542839694" lon="14.303957155380923"><ele>70.0</ele><time>2026-05-01T08:44:14.999Z</time></trkpt><trkpt lat="42.33532040501057" lon="14.30382130675594"><ele>70.0</ele><time>2026-05-01T08:44:16.999Z</time></trkpt><trkpt lat="42.335259705453595" lon="14.303783953859933"><ele>70.0</ele><time>2026-05-01T08:44:17.999Z</time></trkpt><trkpt lat="42.335212317322465" lon="14.30369863280805"><ele>70.0</ele><time>2026-05-01T08:44:19.999Z</time></trkpt><trkpt lat="42.33514238723889" lon="14.303638688623884"><ele>70.0</ele><time>2026-05-01T08:44:23.999Z</time></trkpt><trkpt lat="42.335013999589734" lon="14.303530122203654"><ele>69.83333333333333</ele><time>2026-05-01T08:44:25.999Z</time></trkpt><trkpt lat="42.33492654989212" lon="14.303479290755316"><ele>69.66666666666666</ele><time>2026-05-01T08:44:26.999Z</time></trkpt><trkpt lat="42.334846478405275" lon="14.303425532581965"><ele>69.5</ele><time>2026-05-01T08:44:27.999Z</time></trkpt><trkpt lat="42.334781144937" lon="14.303377254896391"><ele>69.33333333333333</ele><time>2026-05-01T08:44:28.999Z</time></trkpt><trkpt lat="42.33471799416951" lon="14.30332499430327"><ele>69.16666666666667</ele><time>2026-05-01T08:44:29.999Z</time></trkpt><trkpt lat="42.33463912860008" lon="14.303259967421868"><ele>69.0</ele><time>2026-05-01T08:44:31.999Z</time></trkpt><trkpt lat="42.334573626018496" lon="14.30320632538032"><ele>69.0</ele><time>2026-05-01T08:44:33.999Z</time></trkpt><trkpt lat="42.33448597185899" lon="14.3031216248688"><ele>69.0</ele><time>2026-05-01T08:44:35.999Z</time></trkpt><trkpt lat="42.33441461719815" lon="14.30304485344817"><ele>69.0</ele><time>2026-05-01T08:44:37.999Z</time></trkpt><trkpt lat="42.33436446636864" lon="14.302944028696242"><ele>69.0</ele><time>2026-05-01T08:44:39.999Z</time></trkpt><trkpt lat="42.33432887264987" lon="14.302867853249326"><ele>69.0</ele><time>2026-05-01T08:44:42.001Z</time></trkpt><trkpt lat="42.33427717461121" lon="14.302756283600838"><ele>70.5</ele><time>2026-05-01T08:44:45.001Z</time></trkpt><trkpt lat="42.33423155422352" lon="14.302665820520426"><ele>72.0</ele><time>2026-05-01T08:44:47Z</time></trkpt><trkpt lat="42.334204203928316" lon="14.302576335636576"><ele>73.5</ele><time>2026-05-01T08:44:49Z</time></trkpt><trkpt lat="42.334140058488074" lon="14.302473249747"><ele>75.0</ele><time>2026-05-01T08:45:22Z</time></trkpt><trkpt lat="42.33407603643551" lon="14.302392892350378"><ele>76.5</ele><time>2026-05-01T08:45:24Z</time></trkpt><trkpt lat="42.334011626753764" lon="14.302314704023381"><ele>78.0</ele><time>2026-05-01T08:45:26Z</time></trkpt><trkpt lat="42.33394393400469" lon="14.302229751760372"><ele>76.6</ele><time>2026-05-01T08:45:28Z</time></trkpt><trkpt lat="42.33387953146625" lon="14.302148097587482"><ele>75.19999999999999</ele><time>2026-05-01T08:45:30Z</time></trkpt><trkpt lat="42.333801353009775" lon="14.30203965369762"><ele>73.8</ele><time>2026-05-01T08:45:32Z</time></trkpt><trkpt lat="42.33371295682283" lon="14.301919177767632"><ele>72.39999999999999</ele><time>2026-05-01T08:45:34Z</time></trkpt><trkpt lat="42.33366942232692" lon="14.301836460636645"><ele>71.0</ele><time>2026-05-01T08:45:35Z</time></trkpt><trkpt lat="42.33362312547417" lon="14.301729825007726"><ele>71.0</ele><time>2026-05-01T08:45:36Z</time></trkpt><trkpt lat="42.333554569938826" lon="14.301630321955463"><ele>71.0</ele><time>2026-05-01T08:45:37Z</time></trkpt><trkpt lat="42.33347319981353" lon="14.30157491384221"><ele>71.0</ele><time>2026-05-01T08:45:38Z</time></trkpt><trkpt lat="42.333414126265254" lon="14.301532404956223"><ele>71.0</ele><time>2026-05-01T08:45:38.999Z</time></trkpt><trkpt lat="42.33328508573928" lon="14.301531598203752"><ele>71.0</ele><time>2026-05-01T08:45:40.999Z</time></trkpt><trkpt lat="42.333208766762716" lon="14.301577112957075"><ele>71.0</ele><time>2026-05-01T08:45:41.999Z</time></trkpt><trkpt lat="42.333132857940306" lon="14.301650522912029"><ele>71.0</ele><time>2026-05-01T08:45:42.999Z</time></trkpt><trkpt lat="42.33306316225449" lon="14.3017168514729"><ele>71.0</ele><time>2026-05-01T08:45:43.999Z</time></trkpt><trkpt lat="42.33298571603393" lon="14.30177362068839"><ele>71.0</ele><time>2026-05-01T08:45:44.999Z</time></trkpt><trkpt lat="42.33290571323779" lon="14.30180498836921"><ele>71.0</ele><time>2026-05-01T08:45:45.999Z</time></trkpt><trkpt lat="42.33282821912448" lon="14.30183037318299"><ele>71.0</ele><time>2026-05-01T08:45:46.999Z</time></trkpt><trkpt lat="42.332753623299176" lon="14.301824152240163"><ele>70.33333333333334</ele><time>2026-05-01T08:45:47.999Z</time></trkpt><trkpt lat="42.33266647426531" lon="14.301808011124244"><ele>69.66666666666667</ele><time>2026-05-01T08:45:48.999Z</time></trkpt><trkpt lat="42.33258367146802" lon="14.301777775483671"><ele>69.0</ele><time>2026-05-01T08:45:49.999Z</time></trkpt><trkpt lat="42.33249163322568" lon="14.301741782854826"><ele>68.33333333333333</ele><time>2026-05-01T08:45:50.999Z</time></trkpt><trkpt lat="42.332412933776624" lon="14.301706893270094"><ele>67.66666666666666</ele><time>2026-05-01T08:45:51.999Z</time></trkpt><trkpt lat="42.33234570459868" lon="14.301675840423282"><ele>67.0</ele><time>2026-05-01T08:45:52.999Z</time></trkpt><trkpt lat="42.33228482678589" lon="14.301645770795657"><ele>65.2</ele><time>2026-05-01T08:45:53.999Z</time></trkpt><trkpt lat="42.33217942682688" lon="14.30159198781318"><ele>63.400000000000006</ele><time>2026-05-01T08:45:55.999Z</time></trkpt><trkpt lat="42.33207719068373" lon="14.30153849364094"><ele>61.599999999999994</ele><time>2026-05-01T08:45:57.999Z</time></trkpt><trkpt lat="42.3319780636179" lon="14.301496551041287"><ele>59.8</ele><time>2026-05-01T08:45:59.999Z</time></trkpt><trkpt lat="42.33187958095882" lon="14.301447001968763"><ele>58.0</ele><time>2026-05-01T08:46:01.999Z</time></trkpt><trkpt lat="42.331756851388285" lon="14.30137983453296"><ele>59.4</ele><time>2026-05-01T08:46:03.999Z</time></trkpt><trkpt lat="42.33163927179141" lon="14.301304006310902"><ele>60.8</ele><time>2026-05-01T08:46:05.999Z</time></trkpt><trkpt lat="42.331572287621555" lon="14.301252098296976"><ele>62.2</ele><time>2026-05-01T08:46:06.999Z</time></trkpt><trkpt lat="42.331486171239035" lon="14.30120819221247"><ele>63.6</ele><time>2026-05-01T08:46:07.999Z</time></trkpt><trkpt lat="42.33141000022857" lon="14.30113832652649"><ele>65.0</ele><time>2026-05-01T08:46:08.999Z</time></trkpt><trkpt lat="42.331303223604486" lon="14.301091334060404"><ele>65.0</ele><time>2026-05-01T08:46:09.999Z</time></trkpt><trkpt lat="42.331215949380066" lon="14.301031047578526"><ele>65.0</ele><time>2026-05-01T08:46:10.999Z</time></trkpt><trkpt lat="42.331097450336166" lon="14.300930108628885"><ele>65.0</ele><time>2026-05-01T08:46:11.999Z</time></trkpt><trkpt lat="42.330967600608666" lon="14.300839908592616"><ele>65.0</ele><time>2026-05-01T08:46:12.999Z</time></trkpt><trkpt lat="42.3308339094717" lon="14.300767227452921"><ele>65.0</ele><time>2026-05-01T08:46:13.999Z</time></trkpt><trkpt lat="42.330720515654825" lon="14.30067752572766"><ele>65.0</ele><time>2026-05-01T08:46:14.999Z</time></trkpt><trkpt lat="42.330601512207245" lon="14.300605359799656"><ele>65.0</ele><time>2026-05-01T08:46:15.999Z</time></trkpt><trkpt lat="42.33047296360176" lon="14.300550688224028"><ele>65.0</ele><time>2026-05-01T08:46:16.999Z</time></trkpt><trkpt lat="42.33034960304415" lon="14.300504763502206"><ele>64.83333333333334</ele><time>2026-05-01T08:46:17.999Z</time></trkpt><trkpt lat="42.33026949928609" lon="14.300480477314595"><ele>64.66666666666667</ele><time>2026-05-01T08:46:18.999Z</time></trkpt><trkpt lat="42.330164686940655" lon="14.30045949514563"><ele>64.5</ele><time>2026-05-01T08:46:20.999Z</time></trkpt><trkpt lat="42.33010233143152" lon="14.300429366050777"><ele>64.33333333333333</ele><time>2026-05-01T08:46:22.999Z</time></trkpt><trkpt lat="42.33003833439137" lon="14.30042221348031"><ele>64.16666666666666</ele><time>2026-05-01T08:46:26.999Z</time></trkpt><trkpt lat="42.32997262318619" lon="14.300387543805956"><ele>64.0</ele><time>2026-05-01T08:46:29.999Z</time></trkpt><trkpt lat="42.32991060548477" lon="14.300372666371652"><ele>64.0</ele><time>2026-05-01T08:46:30.999Z</time></trkpt><trkpt lat="42.32983892247511" lon="14.300355386049278"><ele>64.0</ele><time>2026-05-01T08:46:31.999Z</time></trkpt><trkpt lat="42.32975014772122" lon="14.300333985487029"><ele>64.0</ele><time>2026-05-01T08:46:32.999Z</time></trkpt><trkpt lat="42.32964680115926" lon="14.300309072163154"><ele>64.0</ele><time>2026-05-01T08:46:33.999Z</time></trkpt><trkpt lat="42.32953500649961" lon="14.300304510727411"><ele>64.0</ele><time>2026-05-01T08:46:34.999Z</time></trkpt><trkpt lat="42.329408635697376" lon="14.300249396077138"><ele>64.0</ele><time>2026-05-01T08:46:35.999Z</time></trkpt><trkpt lat="42.32929098300404" lon="14.300218166801372"><ele>64.0</ele><time>2026-05-01T08:46:36.999Z</time></trkpt><trkpt lat="42.329163541638515" lon="14.300184339227027"><ele>64.0</ele><time>2026-05-01T08:46:37.999Z</time></trkpt><trkpt lat="42.329050302341905" lon="14.300154281415464"><ele>64.0</ele><time>2026-05-01T08:46:38.999Z</time></trkpt><trkpt lat="42.32892340037725" lon="14.300136316819128"><ele>63.5</ele><time>2026-05-01T08:46:39.999Z</time></trkpt><trkpt lat="42.32879406312068" lon="14.300102105899962"><ele>63.0</ele><time>2026-05-01T08:46:40.998Z</time></trkpt><trkpt lat="42.3286643587172" lon="14.300063876241797"><ele>62.5</ele><time>2026-05-01T08:46:41.998Z</time></trkpt><trkpt lat="42.328543858497326" lon="14.300026428442512"><ele>62.0</ele><time>2026-05-01T08:46:42.998Z</time></trkpt><trkpt lat="42.32843219060887" lon="14.299989968528672"><ele>62.0</ele><time>2026-05-01T08:46:43.998Z</time></trkpt><trkpt lat="42.32831424884181" lon="14.299943544301817"><ele>62.0</ele><time>2026-05-01T08:46:44.998Z</time></trkpt><trkpt lat="42.32820347798483" lon="14.299882051641202"><ele>62.0</ele><time>2026-05-01T08:46:45.998Z</time></trkpt><trkpt lat="42.32807999654899" lon="14.299814588524008"><ele>62.0</ele><time>2026-05-01T08:46:47Z</time></trkpt><trkpt lat="42.327948114382046" lon="14.299751321194016"><ele>63.66666666666667</ele><time>2026-05-01T08:46:48Z</time></trkpt><trkpt lat="42.32781558167533" lon="14.299653353441853"><ele>65.33333333333333</ele><time>2026-05-01T08:46:49Z</time></trkpt><trkpt lat="42.327675647490764" lon="14.29956878331247"><ele>67.0</ele><time>2026-05-01T08:46:50Z</time></trkpt><trkpt lat="42.32753816141961" lon="14.29948498797672"><ele>67.0</ele><time>2026-05-01T08:46:51Z</time></trkpt><trkpt lat="42.327396557646594" lon="14.299398196941077"><ele>67.0</ele><time>2026-05-01T08:46:52Z</time></trkpt><trkpt lat="42.32723747742324" lon="14.299300693905629"><ele>67.0</ele><time>2026-05-01T08:46:53Z</time></trkpt><trkpt lat="42.32712313644617" lon="14.299230511951018"><ele>66.5</ele><time>2026-05-01T08:46:54Z</time></trkpt><trkpt lat="42.326989673995016" lon="14.299148046250895"><ele>66.0</ele><time>2026-05-01T08:46:55Z</time></trkpt><trkpt lat="42.32685730624349" lon="14.299066258542963"><ele>65.5</ele><time>2026-05-01T08:46:56Z</time></trkpt><trkpt lat="42.326719474596544" lon="14.298981093089411"><ele>65.0</ele><time>2026-05-01T08:46:57Z</time></trkpt><trkpt lat="42.326586792740834" lon="14.298899109688989"><ele>66.5</ele><time>2026-05-01T08:46:58Z</time></trkpt><trkpt lat="42.326454013825206" lon="14.298817259598971"><ele>68.0</ele><time>2026-05-01T08:46:59Z</time></trkpt><trkpt lat="42.32633938652049" lon="14.298748285800501"><ele>69.5</ele><time>2026-05-01T08:47:00Z</time></trkpt><trkpt lat="42.32623735655472" lon="14.298711331709555"><ele>71.0</ele><time>2026-05-01T08:47:01Z</time></trkpt><trkpt lat="42.32615586840096" lon="14.298650245289698"><ele>71.0</ele><time>2026-05-01T08:47:02Z</time></trkpt><trkpt lat="42.326091764231194" lon="14.298582021962721"><ele>71.0</ele><time>2026-05-01T08:47:03Z</time></trkpt><trkpt lat="42.32605066340926" lon="14.298498906125964"><ele>71.0</ele><time>2026-05-01T08:47:04Z</time></trkpt><trkpt lat="42.32602272325195" lon="14.298386984338169"><ele>71.0</ele><time>2026-05-01T08:47:05Z</time></trkpt><trkpt lat="42.32600029220974" lon="14.29826919679196"><ele>71.0</ele><time>2026-05-01T08:47:06Z</time></trkpt><trkpt lat="42.325964439332175" lon="14.298156521067268"><ele>71.0</ele><time>2026-05-01T08:47:07Z</time></trkpt><trkpt lat="42.3259252948726" lon="14.298049379273058"><ele>73.4</ele><time>2026-05-01T08:47:08Z</time></trkpt><trkpt lat="42.325858064563015" lon="14.297993964671058"><ele>75.8</ele><time>2026-05-01T08:47:09Z</time></trkpt><trkpt lat="42.32578268286502" lon="14.297977270202045"><ele>78.2</ele><time>2026-05-01T08:47:10Z</time></trkpt><trkpt lat="42.325691050240444" lon="14.297989850498023"><ele>80.60000000000001</ele><time>2026-05-01T08:47:11Z</time></trkpt><trkpt lat="42.32558998362292" lon="14.298022762694119"><ele>83.0</ele><time>2026-05-01T08:47:12Z</time></trkpt><trkpt lat="42.32548126857042" lon="14.298049360060778"><ele>81.25</ele><time>2026-05-01T08:47:13Z</time></trkpt><trkpt lat="42.32535822871906" lon="14.298106113286867"><ele>79.5</ele><time>2026-05-01T08:47:14Z</time></trkpt><trkpt lat="42.32521840578089" lon="14.298176874232427"><ele>77.75</ele><time>2026-05-01T08:47:15Z</time></trkpt><trkpt lat="42.32506956167183" lon="14.298278176583217"><ele>76.0</ele><time>2026-05-01T08:47:16Z</time></trkpt><trkpt lat="42.32493918484489" lon="14.298349066799654"><ele>76.0</ele><time>2026-05-01T08:47:17Z</time></trkpt><trkpt lat="42.32483664570675" lon="14.298395608002034"><ele>76.0</ele><time>2026-05-01T08:47:18Z</time></trkpt><trkpt lat="42.324739887122284" lon="14.298389996364229"><ele>76.0</ele><time>2026-05-01T08:47:19Z</time></trkpt><trkpt lat="42.32465309586424" lon="14.298369283290334"><ele>76.0</ele><time>2026-05-01T08:47:20Z</time></trkpt><trkpt lat="42.32455694201281" lon="14.298313114364296"><ele>76.0</ele><time>2026-05-01T08:47:21Z</time></trkpt><trkpt lat="42.324450380615076" lon="14.298240726076505"><ele>77.0</ele><time>2026-05-01T08:47:22Z</time></trkpt><trkpt lat="42.32433148963936" lon="14.298170840586378"><ele>78.0</ele><time>2026-05-01T08:47:23Z</time></trkpt><trkpt lat="42.32421334430396" lon="14.298091883174365"><ele>79.0</ele><time>2026-05-01T08:47:24Z</time></trkpt><trkpt lat="42.32410835528782" lon="14.297979907222956"><ele>80.0</ele><time>2026-05-01T08:47:25Z</time></trkpt><trkpt lat="42.323969320137984" lon="14.297870173014958"><ele>82.66666666666667</ele><time>2026-05-01T08:47:26Z</time></trkpt><trkpt lat="42.323842492747715" lon="14.297718934496645"><ele>85.33333333333333</ele><time>2026-05-01T08:47:27Z</time></trkpt><trkpt lat="42.32370853601408" lon="14.297602808880214"><ele>88.0</ele><time>2026-05-01T08:47:28Z</time></trkpt><trkpt lat="42.32356342009346" lon="14.297505690710958"><ele>88.0</ele><time>2026-05-01T08:47:29Z</time></trkpt><trkpt lat="42.3234036205801" lon="14.29741694854655"><ele>88.0</ele><time>2026-05-01T08:47:30Z</time></trkpt><trkpt lat="42.32324130249249" lon="14.297328201997496"><ele>88.0</ele><time>2026-05-01T08:47:31Z</time></trkpt><trkpt lat="42.323097652682385" lon="14.29720794209745"><ele>93.0</ele><time>2026-05-01T08:47:31.999Z</time></trkpt><trkpt lat="42.3229475182243" lon="14.297125962963543"><ele>98.0</ele><time>2026-05-01T08:47:32.999Z</time></trkpt><trkpt lat="42.322793707968735" lon="14.29705254229156"><ele>103.0</ele><time>2026-05-01T08:47:33.999Z</time></trkpt><trkpt lat="42.32264085219638" lon="14.296988806771648"><ele>103.0</ele><time>2026-05-01T08:47:34.999Z</time></trkpt><trkpt lat="42.32249677708819" lon="14.296931862984183"><ele>103.0</ele><time>2026-05-01T08:47:35.999Z</time></trkpt><trkpt lat="42.32234751851542" lon="14.296876868436728"><ele>103.0</ele><time>2026-05-01T08:47:36.999Z</time></trkpt><trkpt lat="42.32217772930119" lon="14.29681827107127"><ele>102.25</ele><time>2026-05-01T08:47:37.999Z</time></trkpt><trkpt lat="42.32202520605755" lon="14.296763714438766"><ele>101.5</ele><time>2026-05-01T08:47:38.999Z</time></trkpt><trkpt lat="42.321890562743434" lon="14.296715101907102"><ele>100.75</ele><time>2026-05-01T08:47:39.999Z</time></trkpt><trkpt lat="42.321772893039196" lon="14.296670462929518"><ele>100.0</ele><time>2026-05-01T08:47:40.999Z</time></trkpt><trkpt lat="42.32164890070808" lon="14.296623108130417"><ele>100.0</ele><time>2026-05-01T08:47:41.999Z</time></trkpt><trkpt lat="42.32153459388944" lon="14.296565597329081"><ele>100.0</ele><time>2026-05-01T08:47:42.999Z</time></trkpt><trkpt lat="42.32142928183628" lon="14.296477139907731"><ele>100.0</ele><time>2026-05-01T08:47:43.999Z</time></trkpt><trkpt lat="42.32132777128957" lon="14.296368565711614"><ele>100.0</ele><time>2026-05-01T08:47:44.999Z</time></trkpt><trkpt lat="42.32123090575136" lon="14.296241927214712"><ele>100.5</ele><time>2026-05-01T08:47:45.999Z</time></trkpt><trkpt lat="42.32113222457399" lon="14.296095297566326"><ele>101.0</ele><time>2026-05-01T08:47:46.999Z</time></trkpt><trkpt lat="42.321014938374155" lon="14.29598511171041"><ele>101.5</ele><time>2026-05-01T08:47:47.999Z</time></trkpt><trkpt lat="42.320898966836936" lon="14.295886243248194"><ele>102.0</ele><time>2026-05-01T08:47:48.999Z</time></trkpt><trkpt lat="42.320775411746645" lon="14.295791470802577"><ele>102.0</ele><time>2026-05-01T08:47:49.999Z</time></trkpt><trkpt lat="42.32063952880589" lon="14.295711870584219"><ele>102.0</ele><time>2026-05-01T08:47:50.999Z</time></trkpt><trkpt lat="42.320505846171685" lon="14.29563761415814"><ele>102.0</ele><time>2026-05-01T08:47:51.999Z</time></trkpt><trkpt lat="42.320346608294216" lon="14.295556089364535"><ele>104.0</ele><time>2026-05-01T08:47:52.999Z</time></trkpt><trkpt lat="42.320189851208454" lon="14.295486588985867"><ele>106.0</ele><time>2026-05-01T08:47:53.999Z</time></trkpt><trkpt lat="42.320054625909144" lon="14.295424304021605"><ele>108.0</ele><time>2026-05-01T08:47:54.999Z</time></trkpt><trkpt lat="42.31993899052415" lon="14.295361859597458"><ele>110.0</ele><time>2026-05-01T08:47:55.999Z</time></trkpt><trkpt lat="42.31985133855772" lon="14.295301482080866"><ele>109.99999999999999</ele><time>2026-05-01T08:47:56.999Z</time></trkpt><trkpt lat="42.319795568006704" lon="14.295248524793195"><ele>110.0</ele><time>2026-05-01T08:47:57.999Z</time></trkpt><trkpt lat="42.31979294772842" lon="14.295082542666659"><ele>110.0</ele><time>2026-05-01T08:47:59.999Z</time></trkpt><trkpt lat="42.319801148518685" lon="14.294977221060448"><ele>110.0</ele><time>2026-05-01T08:48:00.999Z</time></trkpt><trkpt lat="42.3198164114314" lon="14.294863526789591"><ele>109.99999999999999</ele><time>2026-05-01T08:48:01.999Z</time></trkpt><trkpt lat="42.31979264372763" lon="14.29476867125128"><ele>110.0</ele><time>2026-05-01T08:48:02.999Z</time></trkpt><trkpt lat="42.31973855012522" lon="14.294692583317845"><ele>110.0</ele><time>2026-05-01T08:48:05.999Z</time></trkpt><trkpt lat="42.31971798945977" lon="14.29456806883536"><ele>110.0</ele><time>2026-05-01T08:48:08.999Z</time></trkpt><trkpt lat="42.319660918261754" lon="14.294454557998597"><ele>110.0</ele><time>2026-05-01T08:48:10.999Z</time></trkpt><trkpt lat="42.31961067234257" lon="14.294366565824783"><ele>110.0</ele><time>2026-05-01T08:48:12.999Z</time></trkpt><trkpt lat="42.31956430879879" lon="14.294288530591269"><ele>110.0</ele><time>2026-05-01T08:48:14.999Z</time></trkpt><trkpt lat="42.31947280004758" lon="14.294164685178224"><ele>110.0</ele><time>2026-05-01T08:48:16.999Z</time></trkpt><trkpt lat="42.319429044701366" lon="14.294099159420634"><ele>110.0</ele><time>2026-05-01T08:48:17.999Z</time></trkpt><trkpt lat="42.31936102293156" lon="14.293976273957174"><ele>110.0</ele><time>2026-05-01T08:48:19.999Z</time></trkpt><trkpt lat="42.31931031958965" lon="14.293871050524213"><ele>110.0</ele><time>2026-05-01T08:48:21.999Z</time></trkpt><trkpt lat="42.31934772647755" lon="14.293950243567002"><ele>110.0</ele><time>2026-05-01T08:48:35.998Z</time></trkpt><trkpt lat="42.319421341938934" lon="14.294151065239438"><ele>110.0</ele><time>2026-05-01T08:48:36.998Z</time></trkpt><trkpt lat="42.31949917104834" lon="14.294284174297426"><ele>110.0</ele><time>2026-05-01T08:48:37.998Z</time></trkpt><trkpt lat="42.31956286849211" lon="14.294390502996677"><ele>110.0</ele><time>2026-05-01T08:48:38.998Z</time></trkpt><trkpt lat="42.3196220773652" lon="14.29447074113091"><ele>110.0</ele><time>2026-05-01T08:48:39.998Z</time></trkpt><trkpt lat="42.31966549793478" lon="14.294548863169007"><ele>110.0</ele><time>2026-05-01T08:48:40.998Z</time></trkpt><trkpt lat="42.31964587057463" lon="14.294721020654167"><ele>109.99999999999999</ele><time>2026-05-01T08:48:42.998Z</time></trkpt><trkpt lat="42.31961663021683" lon="14.294813031861768"><ele>110.0</ele><time>2026-05-01T08:48:43.998Z</time></trkpt><trkpt lat="42.31956052648887" lon="14.294884073054773"><ele>110.0</ele><time>2026-05-01T08:48:44.998Z</time></trkpt><trkpt lat="42.31947117817218" lon="14.29487869469088"><ele>110.0</ele><time>2026-05-01T08:48:45.998Z</time></trkpt><trkpt lat="42.31937642647772" lon="14.294844127133459"><ele>109.99999999999999</ele><time>2026-05-01T08:48:47.998Z</time></trkpt><trkpt lat="42.31932459478671" lon="14.29478363566448"><ele>110.0</ele><time>2026-05-01T08:48:48.998Z</time></trkpt><trkpt lat="42.319281031782324" lon="14.294658587722092"><ele>110.0</ele><time>2026-05-01T08:48:49.998Z</time></trkpt><trkpt lat="42.31921436150619" lon="14.294541348464387"><ele>110.0</ele><time>2026-05-01T08:48:50.998Z</time></trkpt><trkpt lat="42.319142362365305" lon="14.29443395336293"><ele>110.0</ele><time>2026-05-01T08:48:51.998Z</time></trkpt><trkpt lat="42.31905763586088" lon="14.294345839355351"><ele>110.0</ele><time>2026-05-01T08:48:53Z</time></trkpt><trkpt lat="42.31897458985241" lon="14.294253566320519"><ele>110.0</ele><time>2026-05-01T08:48:54Z</time></trkpt><trkpt lat="42.318895354952545" lon="14.294144057369063"><ele>109.5</ele><time>2026-05-01T08:48:55Z</time></trkpt><trkpt lat="42.31882261063727" lon="14.29401447930618"><ele>109.0</ele><time>2026-05-01T08:48:56Z</time></trkpt><trkpt lat="42.31875552245631" lon="14.293856997085584"><ele>108.5</ele><time>2026-05-01T08:48:57Z</time></trkpt><trkpt lat="42.318683293901536" lon="14.293690456725253"><ele>108.0</ele><time>2026-05-01T08:48:58Z</time></trkpt><trkpt lat="42.31861587996091" lon="14.293527909217062"><ele>108.0</ele><time>2026-05-01T08:48:59Z</time></trkpt><trkpt lat="42.31856450430971" lon="14.29338830946224"><ele>108.0</ele><time>2026-05-01T08:49:00Z</time></trkpt><trkpt lat="42.31848266964655" lon="14.29327624043286"><ele>108.0</ele><time>2026-05-01T08:49:01Z</time></trkpt><trkpt lat="42.31837438937716" lon="14.29319880623184"><ele>108.0</ele><time>2026-05-01T08:49:02Z</time></trkpt><trkpt lat="42.3182469668343" lon="14.293114630284327"><ele>108.66666666666666</ele><time>2026-05-01T08:49:03Z</time></trkpt><trkpt lat="42.31809905615071" lon="14.293025558892456"><ele>109.33333333333333</ele><time>2026-05-01T08:49:04Z</time></trkpt><trkpt lat="42.31795119364503" lon="14.29296709226842"><ele>110.0</ele><time>2026-05-01T08:49:05Z</time></trkpt><trkpt lat="42.31783140751067" lon="14.292877140090399"><ele>109.99999999999999</ele><time>2026-05-01T08:49:06Z</time></trkpt><trkpt lat="42.317749626078225" lon="14.292830022013378"><ele>110.0</ele><time>2026-05-01T08:49:07Z</time></trkpt><trkpt lat="42.31765717306026" lon="14.292770956166478"><ele>110.0</ele><time>2026-05-01T08:49:09Z</time></trkpt><trkpt lat="42.31758770600933" lon="14.292727320337343"><ele>110.0</ele><time>2026-05-01T08:49:10Z</time></trkpt><trkpt lat="42.31750219775433" lon="14.29267360819337"><ele>109.99999999999999</ele><time>2026-05-01T08:49:11Z</time></trkpt><trkpt lat="42.31742699020353" lon="14.292641029345376"><ele>110.0</ele><time>2026-05-01T08:49:12Z</time></trkpt><trkpt lat="42.317354003836975" lon="14.292597695055976"><ele>110.0</ele><time>2026-05-01T08:49:13Z</time></trkpt><trkpt lat="42.317271751300694" lon="14.292567453518545"><ele>110.0</ele><time>2026-05-01T08:49:14Z</time></trkpt><trkpt lat="42.317166352340045" lon="14.292578891141282"><ele>110.0</ele><time>2026-05-01T08:49:15Z</time></trkpt><trkpt lat="42.31703192461305" lon="14.29262838424375"><ele>110.0</ele><time>2026-05-01T08:49:16Z</time></trkpt><trkpt lat="42.31689846589504" lon="14.292660348140766"><ele>107.5</ele><time>2026-05-01T08:49:17Z</time></trkpt><trkpt lat="42.31676620084548" lon="14.292636402142485"><ele>105.0</ele><time>2026-05-01T08:49:18Z</time></trkpt><trkpt lat="42.316634216545815" lon="14.292621151767236"><ele>102.5</ele><time>2026-05-01T08:49:19Z</time></trkpt><trkpt lat="42.316506513454016" lon="14.292595156073622"><ele>100.0</ele><time>2026-05-01T08:49:20Z</time></trkpt><trkpt lat="42.31640322892832" lon="14.292564198079948"><ele>100.5</ele><time>2026-05-01T08:49:21Z</time></trkpt><trkpt lat="42.316305287395465" lon="14.292508123398166"><ele>101.0</ele><time>2026-05-01T08:49:22Z</time></trkpt><trkpt lat="42.31620059999565" lon="14.292409243193461"><ele>101.5</ele><time>2026-05-01T08:49:23Z</time></trkpt><trkpt lat="42.31606926384304" lon="14.292287809590633"><ele>102.0</ele><time>2026-05-01T08:49:24Z</time></trkpt><trkpt lat="42.315946883370025" lon="14.292187538221794"><ele>102.0</ele><time>2026-05-01T08:49:25Z</time></trkpt><trkpt lat="42.315828297433924" lon="14.292139657308914"><ele>102.0</ele><time>2026-05-01T08:49:26Z</time></trkpt><trkpt lat="42.315703583446656" lon="14.292088239605116"><ele>102.0</ele><time>2026-05-01T08:49:26.999Z</time></trkpt><trkpt lat="42.315560325620886" lon="14.292013273810364"><ele>102.0</ele><time>2026-05-01T08:49:27.999Z</time></trkpt><trkpt lat="42.31540966167071" lon="14.291993093646608"><ele>97.33333333333333</ele><time>2026-05-01T08:49:28.999Z</time></trkpt><trkpt lat="42.31527552154696" lon="14.291947319225933"><ele>92.66666666666666</ele><time>2026-05-01T08:49:29.999Z</time></trkpt><trkpt lat="42.315130054723554" lon="14.291914109094437"><ele>88.0</ele><time>2026-05-01T08:49:30.999Z</time></trkpt><trkpt lat="42.31496504362514" lon="14.291851195722064"><ele>88.0</ele><time>2026-05-01T08:49:31.999Z</time></trkpt><trkpt lat="42.31478696063164" lon="14.291833554528457"><ele>88.0</ele><time>2026-05-01T08:49:32.999Z</time></trkpt><trkpt lat="42.31461402703904" lon="14.291794474129425"><ele>88.0</ele><time>2026-05-01T08:49:33.999Z</time></trkpt><trkpt lat="42.31442931494147" lon="14.29176182602466"><ele>87.0</ele><time>2026-05-01T08:49:34.999Z</time></trkpt><trkpt lat="42.31424306878359" lon="14.291736057309157"><ele>86.0</ele><time>2026-05-01T08:49:35.999Z</time></trkpt><trkpt lat="42.31406829805409" lon="14.291691506845417"><ele>85.0</ele><time>2026-05-01T08:49:36.999Z</time></trkpt><trkpt lat="42.31390596894157" lon="14.291709286955529"><ele>85.4</ele><time>2026-05-01T08:49:37.999Z</time></trkpt><trkpt lat="42.31377169311977" lon="14.291677103731914"><ele>85.8</ele><time>2026-05-01T08:49:38.999Z</time></trkpt><trkpt lat="42.31366658182843" lon="14.291654233800571"><ele>86.19999999999999</ele><time>2026-05-01T08:49:39.999Z</time></trkpt><trkpt lat="42.313581649517076" lon="14.291614103051092"><ele>86.6</ele><time>2026-05-01T08:49:40.999Z</time></trkpt><trkpt lat="42.31349696715581" lon="14.291546213324091"><ele>87.0</ele><time>2026-05-01T08:49:41.999Z</time></trkpt><trkpt lat="42.31339177080984" lon="14.29145805851581"><ele>89.25</ele><time>2026-05-01T08:49:42.999Z</time></trkpt><trkpt lat="42.31330172784526" lon="14.291326661282408"><ele>91.5</ele><time>2026-05-01T08:49:43.999Z</time></trkpt><trkpt lat="42.31323423764308" lon="14.291155301297257"><ele>93.75</ele><time>2026-05-01T08:49:44.999Z</time></trkpt><trkpt lat="42.31314173212697" lon="14.290987412209176"><ele>96.0</ele><time>2026-05-01T08:49:45.999Z</time></trkpt><trkpt lat="42.313077278752424" lon="14.290833324590695"><ele>95.6</ele><time>2026-05-01T08:49:46.999Z</time></trkpt><trkpt lat="42.31302875963327" lon="14.29070897217766"><ele>95.19999999999999</ele><time>2026-05-01T08:49:47.999Z</time></trkpt><trkpt lat="42.31299719834759" lon="14.29062619626646"><ele>94.80000000000001</ele><time>2026-05-01T08:49:48.999Z</time></trkpt><trkpt lat="42.312942553838816" lon="14.290496500364469"><ele>94.4</ele><time>2026-05-01T08:49:49.999Z</time></trkpt><trkpt lat="42.312884335786336" lon="14.29036644805643"><ele>94.0</ele><time>2026-05-01T08:49:50.999Z</time></trkpt><trkpt lat="42.3128301208114" lon="14.29023831743872"><ele>95.75</ele><time>2026-05-01T08:49:51.999Z</time></trkpt><trkpt lat="42.31277788129897" lon="14.290097894869248"><ele>97.5</ele><time>2026-05-01T08:49:52.999Z</time></trkpt><trkpt lat="42.31272007196237" lon="14.289943991003268"><ele>99.25</ele><time>2026-05-01T08:49:53.999Z</time></trkpt><trkpt lat="42.312657331278956" lon="14.289803457678781"><ele>101.0</ele><time>2026-05-01T08:49:54.999Z</time></trkpt><trkpt lat="42.31261394682325" lon="14.28968788861282"><ele>101.0</ele><time>2026-05-01T08:49:55.999Z</time></trkpt><trkpt lat="42.31255750926619" lon="14.289521922296917"><ele>101.0</ele><time>2026-05-01T08:49:57.999Z</time></trkpt><trkpt lat="42.312586847778675" lon="14.289598277050684"><ele>101.0</ele><time>2026-05-01T08:50:14.999Z</time></trkpt><trkpt lat="42.31265577170616" lon="14.289831441826205"><ele>101.0</ele><time>2026-05-01T08:50:16.999Z</time></trkpt><trkpt lat="42.31270393292238" lon="14.289955092647794"><ele>101.0</ele><time>2026-05-01T08:50:17.999Z</time></trkpt><trkpt lat="42.31274544774919" lon="14.290058119240255"><ele>101.0</ele><time>2026-05-01T08:50:18.999Z</time></trkpt><trkpt lat="42.31280692625989" lon="14.29021688482402"><ele>101.0</ele><time>2026-05-01T08:50:19.999Z</time></trkpt><trkpt lat="42.31287288133393" lon="14.290368425007273"><ele>101.0</ele><time>2026-05-01T08:50:20.999Z</time></trkpt><trkpt lat="42.31293231006518" lon="14.290515996637975"><ele>99.75</ele><time>2026-05-01T08:50:21.999Z</time></trkpt><trkpt lat="42.312996409149044" lon="14.290657361537681"><ele>98.5</ele><time>2026-05-01T08:50:22.999Z</time></trkpt><trkpt lat="42.31305112192599" lon="14.290806649480784"><ele>97.25</ele><time>2026-05-01T08:50:23.999Z</time></trkpt><trkpt lat="42.31311850180448" lon="14.290980540974571"><ele>96.0</ele><time>2026-05-01T08:50:24.999Z</time></trkpt><trkpt lat="42.31320386867745" lon="14.291140946213924"><ele>96.0</ele><time>2026-05-01T08:50:25.999Z</time></trkpt><trkpt lat="42.313269210160385" lon="14.291277858852135"><ele>96.0</ele><time>2026-05-01T08:50:26.999Z</time></trkpt><trkpt lat="42.31331593369327" lon="14.291396494036242"><ele>96.0</ele><time>2026-05-01T08:50:27.999Z</time></trkpt><trkpt lat="42.31338996046764" lon="14.29148511258054"><ele>96.0</ele><time>2026-05-01T08:50:28.999Z</time></trkpt><trkpt lat="42.313449289306476" lon="14.291553617047242"><ele>96.0</ele><time>2026-05-01T08:50:29.999Z</time></trkpt><trkpt lat="42.313593443976934" lon="14.291666662322351"><ele>93.75</ele><time>2026-05-01T08:50:31.998Z</time></trkpt><trkpt lat="42.3136896362326" lon="14.291696104613868"><ele>91.5</ele><time>2026-05-01T08:50:33.998Z</time></trkpt><trkpt lat="42.313607281661845" lon="14.291697026083524"><ele>89.25</ele><time>2026-05-01T08:50:40.998Z</time></trkpt><trkpt lat="42.31346773760743" lon="14.291811435315173"><ele>87.0</ele><time>2026-05-01T08:50:42.998Z</time></trkpt><trkpt lat="42.313359281047184" lon="14.291803048414563"><ele>87.0</ele><time>2026-05-01T08:50:44.998Z</time></trkpt><trkpt lat="42.313291192338404" lon="14.291793691674313"><ele>87.0</ele><time>2026-05-01T08:50:45.998Z</time></trkpt><trkpt lat="42.31322679790925" lon="14.291798977569536"><ele>87.0</ele><time>2026-05-01T08:50:46.998Z</time></trkpt><trkpt lat="42.31310689972463" lon="14.291834143762761"><ele>87.0</ele><time>2026-05-01T08:50:48.998Z</time></trkpt><trkpt lat="42.313027890190796" lon="14.291823711512375"><ele>87.0</ele><time>2026-05-01T08:50:51.998Z</time></trkpt><trkpt lat="42.3129279916954" lon="14.291740253542063"><ele>87.19999999999999</ele><time>2026-05-01T08:50:53.998Z</time></trkpt><trkpt lat="42.312869775747735" lon="14.291679229989667"><ele>87.4</ele><time>2026-05-01T08:50:55.998Z</time></trkpt><trkpt lat="42.31283874916547" lon="14.291486246623089"><ele>87.6</ele><time>2026-05-01T08:50:57.998Z</time></trkpt><trkpt lat="42.31282844678276" lon="14.291399490529999"><ele>87.80000000000001</ele><time>2026-05-01T08:50:59Z</time></trkpt><trkpt lat="42.31280530627929" lon="14.291258895376124"><ele>88.0</ele><time>2026-05-01T08:51:01Z</time></trkpt><trkpt lat="42.312712043838395" lon="14.291148913304772"><ele>89.2</ele><time>2026-05-01T08:51:03Z</time></trkpt><trkpt lat="42.31260997947978" lon="14.291078827595033"><ele>90.4</ele><time>2026-05-01T08:51:05Z</time></trkpt><trkpt lat="42.312524503499695" lon="14.291056985615052"><ele>91.60000000000001</ele><time>2026-05-01T08:51:07Z</time></trkpt><trkpt lat="42.312407118735806" lon="14.291028876609436"><ele>92.80000000000001</ele><time>2026-05-01T08:51:09Z</time></trkpt><trkpt lat="42.3123247920962" lon="14.291059367313332"><ele>94.0</ele><time>2026-05-01T08:51:10Z</time></trkpt><trkpt lat="42.31220755340167" lon="14.291134208342738"><ele>94.16666666666666</ele><time>2026-05-01T08:51:12Z</time></trkpt><trkpt lat="42.312120335993974" lon="14.291168524865158"><ele>94.33333333333333</ele><time>2026-05-01T08:51:14Z</time></trkpt><trkpt lat="42.31205218219748" lon="14.291245428232834"><ele>94.5</ele><time>2026-05-01T08:51:18Z</time></trkpt><trkpt lat="42.31196064587528" lon="14.291260275965685"><ele>94.66666666666667</ele><time>2026-05-01T08:51:21Z</time></trkpt><trkpt lat="42.31187172628776" lon="14.29129295101788"><ele>94.83333333333334</ele><time>2026-05-01T08:51:23Z</time></trkpt><trkpt lat="42.31180917647771" lon="14.291277222246556"><ele>95.0</ele><time>2026-05-01T08:51:25Z</time></trkpt><trkpt lat="42.31174212320704" lon="14.291259256922217"><ele>95.0</ele><time>2026-05-01T08:51:27Z</time></trkpt><trkpt lat="42.311654467847916" lon="14.291267091948159"><ele>95.0</ele><time>2026-05-01T08:51:29Z</time></trkpt><trkpt lat="42.31159407580322" lon="14.291362004928395"><ele>95.0</ele><time>2026-05-01T08:51:32.999Z</time></trkpt><trkpt lat="42.31151390794412" lon="14.291411868803245"><ele>95.0</ele><time>2026-05-01T08:51:34.999Z</time></trkpt><trkpt lat="42.31140459835772" lon="14.291458211661597"><ele>95.0</ele><time>2026-05-01T08:51:36.999Z</time></trkpt><trkpt lat="42.311341630015804" lon="14.291461712823425"><ele>95.0</ele><time>2026-05-01T08:51:37.999Z</time></trkpt><trkpt lat="42.311226087341964" lon="14.291411575492672"><ele>95.5</ele><time>2026-05-01T08:51:39.999Z</time></trkpt><trkpt lat="42.311162371626004" lon="14.29136280188688"><ele>96.0</ele><time>2026-05-01T08:51:40.999Z</time></trkpt><trkpt lat="42.31109684769921" lon="14.291285987104265"><ele>96.5</ele><time>2026-05-01T08:51:41.999Z</time></trkpt><trkpt lat="42.311034438982574" lon="14.291205295057201"><ele>97.0</ele><time>2026-05-01T08:51:42.999Z</time></trkpt><trkpt lat="42.310978641777375" lon="14.291098142976953"><ele>97.49999999999999</ele><time>2026-05-01T08:51:43.999Z</time></trkpt><trkpt lat="42.31091812533355" lon="14.291008581655857"><ele>98.0</ele><time>2026-05-01T08:51:44.999Z</time></trkpt><trkpt lat="42.3108494547672" lon="14.29093833611008"><ele>97.99999999999999</ele><time>2026-05-01T08:51:45.999Z</time></trkpt><trkpt lat="42.31077905948276" lon="14.290881638674383"><ele>98.0</ele><time>2026-05-01T08:51:46.999Z</time></trkpt><trkpt lat="42.31070118820956" lon="14.290846617748823"><ele>98.0</ele><time>2026-05-01T08:51:47.999Z</time></trkpt><trkpt lat="42.31060952999847" lon="14.290811397066472"><ele>98.0</ele><time>2026-05-01T08:51:48.999Z</time></trkpt><trkpt lat="42.31051894842743" lon="14.290777201556025"><ele>97.99999999999999</ele><time>2026-05-01T08:51:49.999Z</time></trkpt><trkpt lat="42.310435677472675" lon="14.290745650572019"><ele>98.0</ele><time>2026-05-01T08:51:50.999Z</time></trkpt><trkpt lat="42.31035312669895" lon="14.290714082373325"><ele>99.66666666666666</ele><time>2026-05-01T08:51:51.999Z</time></trkpt><trkpt lat="42.31026216010647" lon="14.290700524052982"><ele>101.33333333333333</ele><time>2026-05-01T08:51:52.999Z</time></trkpt><trkpt lat="42.310166676640286" lon="14.290703309714427"><ele>103.0</ele><time>2026-05-01T08:51:53.999Z</time></trkpt><trkpt lat="42.31008335696086" lon="14.290711963325332"><ele>104.66666666666666</ele><time>2026-05-01T08:51:54.999Z</time></trkpt><trkpt lat="42.30999680196558" lon="14.290710703362583"><ele>106.33333333333333</ele><time>2026-05-01T08:51:55.999Z</time></trkpt><trkpt lat="42.30990877074233" lon="14.29069540666313"><ele>108.0</ele><time>2026-05-01T08:51:56.999Z</time></trkpt><trkpt lat="42.30982587212148" lon="14.290701149237108"><ele>108.0</ele><time>2026-05-01T08:51:57.999Z</time></trkpt><trkpt lat="42.309760990896244" lon="14.290690938497796"><ele>108.0</ele><time>2026-05-01T08:51:58.999Z</time></trkpt><trkpt lat="42.309672072614156" lon="14.290623215415597"><ele>108.0</ele><time>2026-05-01T08:52:00.999Z</time></trkpt><trkpt lat="42.30960649004472" lon="14.29059166318337"><ele>108.0</ele><time>2026-05-01T08:52:03.999Z</time></trkpt><trkpt lat="42.30955305729132" lon="14.290643758819389"><ele>108.0</ele><time>2026-05-01T08:52:05.999Z</time></trkpt><trkpt lat="42.30949112631785" lon="14.290694348901766"><ele>108.0</ele><time>2026-05-01T08:52:06.999Z</time></trkpt><trkpt lat="42.309428179941456" lon="14.290785083379024"><ele>109.4</ele><time>2026-05-01T08:52:07.999Z</time></trkpt><trkpt lat="42.3093253835121" lon="14.290912350105375"><ele>110.80000000000001</ele><time>2026-05-01T08:52:09.999Z</time></trkpt><trkpt lat="42.3092515182619" lon="14.290981643217538"><ele>112.2</ele><time>2026-05-01T08:52:10.999Z</time></trkpt><trkpt lat="42.30917658920888" lon="14.291048327420494"><ele>113.6</ele><time>2026-05-01T08:52:11.999Z</time></trkpt><trkpt lat="42.309115867141905" lon="14.291117512548185"><ele>115.0</ele><time>2026-05-01T08:52:12.999Z</time></trkpt><trkpt lat="42.30903013267672" lon="14.29116505367566"><ele>115.0</ele><time>2026-05-01T08:52:13.999Z</time></trkpt><trkpt lat="42.30893597503098" lon="14.291210904533997"><ele>115.0</ele><time>2026-05-01T08:52:14.999Z</time></trkpt><trkpt lat="42.308846155013974" lon="14.291256199267025"><ele>115.0</ele><time>2026-05-01T08:52:15.999Z</time></trkpt><trkpt lat="42.3087717381637" lon="14.291312031876705"><ele>115.0</ele><time>2026-05-01T08:52:16.999Z</time></trkpt><trkpt lat="42.308711156345844" lon="14.291336305688894"><ele>115.0</ele><time>2026-05-01T08:52:17.999Z</time></trkpt><trkpt lat="42.30859307516691" lon="14.291374192531707"><ele>114.6</ele><time>2026-05-01T08:52:19.999Z</time></trkpt><trkpt lat="42.3085340106942" lon="14.29141552134794"><ele>114.2</ele><time>2026-05-01T08:52:20.999Z</time></trkpt><trkpt lat="42.30846737880591" lon="14.291502991380744"><ele>113.80000000000001</ele><time>2026-05-01T08:52:21.999Z</time></trkpt><trkpt lat="42.30839098287248" lon="14.291604997048427"><ele>113.4</ele><time>2026-05-01T08:52:22.999Z</time></trkpt><trkpt lat="42.3082983459714" lon="14.291726612269349"><ele>113.0</ele><time>2026-05-01T08:52:23.999Z</time></trkpt><trkpt lat="42.308211693712046" lon="14.291828273547438"><ele>113.0</ele><time>2026-05-01T08:52:24.999Z</time></trkpt><trkpt lat="42.30812000239941" lon="14.291923237884623"><ele>113.0</ele><time>2026-05-01T08:52:25.999Z</time></trkpt><trkpt lat="42.30801682235063" lon="14.291985511741757"><ele>113.0</ele><time>2026-05-01T08:52:26.999Z</time></trkpt><trkpt lat="42.307924610323106" lon="14.292018830481467"><ele>113.0</ele><time>2026-05-01T08:52:27.999Z</time></trkpt><trkpt lat="42.307802448951584" lon="14.292063600785793"><ele>112.75</ele><time>2026-05-01T08:52:28.999Z</time></trkpt><trkpt lat="42.30768341912129" lon="14.29211508050722"><ele>112.5</ele><time>2026-05-01T08:52:29.999Z</time></trkpt><trkpt lat="42.307554646818105" lon="14.29217643520592"><ele>112.25</ele><time>2026-05-01T08:52:30.999Z</time></trkpt><trkpt lat="42.30743536367346" lon="14.292237007454345"><ele>112.0</ele><time>2026-05-01T08:52:31.999Z</time></trkpt><trkpt lat="42.30730942186014" lon="14.292299415403361"><ele>112.75</ele><time>2026-05-01T08:52:32.999Z</time></trkpt><trkpt lat="42.3072091613824" lon="14.292335831458676"><ele>113.5</ele><time>2026-05-01T08:52:33.999Z</time></trkpt><trkpt lat="42.30708306843268" lon="14.292368327895606"><ele>114.25</ele><time>2026-05-01T08:52:34.999Z</time></trkpt><trkpt lat="42.30695834152658" lon="14.29234685481739"><ele>115.0</ele><time>2026-05-01T08:52:35.999Z</time></trkpt><trkpt lat="42.30684972543459" lon="14.292362225333676"><ele>115.0</ele><time>2026-05-01T08:52:36.999Z</time></trkpt><trkpt lat="42.30676046843106" lon="14.292424289191354"><ele>115.0</ele><time>2026-05-01T08:52:37.999Z</time></trkpt><trkpt lat="42.30667195496285" lon="14.292461314508655"><ele>115.0</ele><time>2026-05-01T08:52:38.999Z</time></trkpt><trkpt lat="42.30656377603864" lon="14.292510308289446"><ele>115.0</ele><time>2026-05-01T08:52:39.999Z</time></trkpt><trkpt lat="42.306439802000796" lon="14.292567857396467"><ele>115.0</ele><time>2026-05-01T08:52:40.999Z</time></trkpt><trkpt lat="42.30632838136031" lon="14.292611290498261"><ele>115.8</ele><time>2026-05-01T08:52:41.999Z</time></trkpt><trkpt lat="42.306229289371636" lon="14.292607753094012"><ele>116.6</ele><time>2026-05-01T08:52:42.998Z</time></trkpt><trkpt lat="42.30612829047351" lon="14.292601196666238"><ele>117.4</ele><time>2026-05-01T08:52:43.998Z</time></trkpt><trkpt lat="42.30600980286906" lon="14.292592284103407"><ele>118.2</ele><time>2026-05-01T08:52:44.998Z</time></trkpt><trkpt lat="42.30588702987219" lon="14.292602264341978"><ele>119.0</ele><time>2026-05-01T08:52:45.998Z</time></trkpt><trkpt lat="42.30577378485365" lon="14.29258482980568"><ele>119.0</ele><time>2026-05-01T08:52:46.998Z</time></trkpt><trkpt lat="42.305667079806035" lon="14.292576156087033"><ele>119.0</ele><time>2026-05-01T08:52:47.998Z</time></trkpt><trkpt lat="42.305564240322724" lon="14.292547827147073"><ele>119.0</ele><time>2026-05-01T08:52:48.998Z</time></trkpt><trkpt lat="42.30547551259033" lon="14.292553018695708"><ele>119.0</ele><time>2026-05-01T08:52:49.998Z</time></trkpt><trkpt lat="42.30539145541992" lon="14.292530798180243"><ele>119.0</ele><time>2026-05-01T08:52:50.998Z</time></trkpt><trkpt lat="42.30530464142436" lon="14.292507025119415"><ele>119.49999999999999</ele><time>2026-05-01T08:52:51.998Z</time></trkpt><trkpt lat="42.305225669527786" lon="14.292489887876838"><ele>120.0</ele><time>2026-05-01T08:52:52.998Z</time></trkpt><trkpt lat="42.30514017713454" lon="14.292483718505363"><ele>120.5</ele><time>2026-05-01T08:52:53.998Z</time></trkpt><trkpt lat="42.305071343350534" lon="14.292491696696386"><ele>121.0</ele><time>2026-05-01T08:52:54.998Z</time></trkpt><trkpt lat="42.304994948883746" lon="14.292499147737958"><ele>121.49999999999999</ele><time>2026-05-01T08:52:55.998Z</time></trkpt><trkpt lat="42.30489658405093" lon="14.292526636725874"><ele>122.0</ele><time>2026-05-01T08:52:57.998Z</time></trkpt><trkpt lat="42.30483774681354" lon="14.29258799535477"><ele>115.0</ele><time>2026-05-01T08:52:59.998Z</time></trkpt><trkpt lat="42.30498853984707" lon="14.293700218239275"><ele>115.00000000000001</ele><time>2026-05-01T08:53:48.999Z</time></trkpt><trkpt lat="42.304968245452" lon="14.29379401788407"><ele>115.0</ele><time>2026-05-01T08:53:49.999Z</time></trkpt><trkpt lat="42.304990953503115" lon="14.293944985994385"><ele>115.0</ele><time>2026-05-01T08:53:51.999Z</time></trkpt><trkpt lat="42.30500693871149" lon="14.294037674683599"><ele>115.0</ele><time>2026-05-01T08:53:52.999Z</time></trkpt><trkpt lat="42.305013686078304" lon="14.294131176595737"><ele>115.00000000000001</ele><time>2026-05-01T08:53:55.999Z</time></trkpt><trkpt lat="42.30505038112995" lon="14.294210214655918"><ele>115.0</ele><time>2026-05-01T08:54:08.999Z</time></trkpt><trkpt lat="42.305113724740806" lon="14.29417038750979"><ele>115.00000000000001</ele><time>2026-05-01T08:54:33.999Z</time></trkpt><trkpt lat="42.30504770787866" lon="14.294168545815507"><ele>115.0</ele><time>2026-05-01T08:55:00.998Z</time></trkpt><trkpt lat="42.30500308752432" lon="14.294081471936183"><ele>115.0</ele><time>2026-05-01T08:55:03.998Z</time></trkpt><trkpt lat="42.305000156361544" lon="14.293919989346335"><ele>115.0</ele><time>2026-05-01T08:55:05.998Z</time></trkpt><trkpt lat="42.30499630907931" lon="14.293833427897296"><ele>115.00000000000001</ele><time>2026-05-01T08:55:06.998Z</time></trkpt><trkpt lat="42.3049883581934" lon="14.293745125579278"><ele>115.0</ele><time>2026-05-01T08:55:07.998Z</time></trkpt><trkpt lat="42.304985654024215" lon="14.293659916200525"><ele>115.0</ele><time>2026-05-01T08:55:08.998Z</time></trkpt><trkpt lat="42.30496551354362" lon="14.293574796180966"><ele>115.0</ele><time>2026-05-01T08:55:09.998Z</time></trkpt><trkpt lat="42.30495911168065" lon="14.29347226024917"><ele>115.0</ele><time>2026-05-01T08:55:11Z</time></trkpt><trkpt lat="42.3049197622404" lon="14.29329880755008"><ele>115.0</ele><time>2026-05-01T08:55:13Z</time></trkpt><trkpt lat="42.30489959453157" lon="14.293186794227625"><ele>115.0</ele><time>2026-05-01T08:55:14Z</time></trkpt><trkpt lat="42.30488501672436" lon="14.293049625364581"><ele>116.4</ele><time>2026-05-01T08:55:15Z</time></trkpt><trkpt lat="42.304870785071095" lon="14.29293253440511"><ele>117.8</ele><time>2026-05-01T08:55:16Z</time></trkpt><trkpt lat="42.30486534149823" lon="14.2928243337265"><ele>119.19999999999999</ele><time>2026-05-01T08:55:17Z</time></trkpt><trkpt lat="42.304871668302944" lon="14.292733908474645"><ele>120.6</ele><time>2026-05-01T08:55:18Z</time></trkpt><trkpt lat="42.30491519258617" lon="14.292664909942493"><ele>122.0</ele><time>2026-05-01T08:55:19Z</time></trkpt><trkpt lat="42.304755023137865" lon="14.292710709993589"><ele>121.83333333333333</ele><time>2026-05-01T08:55:27Z</time></trkpt><trkpt lat="42.30470338294867" lon="14.292776344589434"><ele>121.66666666666666</ele><time>2026-05-01T08:55:28Z</time></trkpt><trkpt lat="42.304629194554906" lon="14.292840507150585"><ele>121.5</ele><time>2026-05-01T08:55:30Z</time></trkpt><trkpt lat="42.30456304655414" lon="14.292901039657695"><ele>121.33333333333334</ele><time>2026-05-01T08:55:32Z</time></trkpt><trkpt lat="42.30449200669273" lon="14.292910032351454"><ele>121.16666666666667</ele><time>2026-05-01T08:55:34Z</time></trkpt><trkpt lat="42.30441954104941" lon="14.292948719490001"><ele>121.0</ele><time>2026-05-01T08:55:35Z</time></trkpt><trkpt lat="42.304353853646475" lon="14.292981969323044"><ele>121.00000000000001</ele><time>2026-05-01T08:55:37Z</time></trkpt><trkpt lat="42.30427412856825" lon="14.292992522485731"><ele>121.0</ele><time>2026-05-01T08:55:38Z</time></trkpt><trkpt lat="42.30420053003441" lon="14.293010794742626"><ele>121.0</ele><time>2026-05-01T08:55:39Z</time></trkpt><trkpt lat="42.304113898456656" lon="14.29302603964373"><ele>121.0</ele><time>2026-05-01T08:55:40Z</time></trkpt><trkpt lat="42.304031468940934" lon="14.293042075350417"><ele>121.00000000000001</ele><time>2026-05-01T08:55:41Z</time></trkpt><trkpt lat="42.30394388123296" lon="14.293047690911026"><ele>121.0</ele><time>2026-05-01T08:55:42Z</time></trkpt><trkpt lat="42.303830035318946" lon="14.293046270383945"><ele>120.0</ele><time>2026-05-01T08:55:43Z</time></trkpt><trkpt lat="42.303720301813605" lon="14.293045164930055"><ele>119.0</ele><time>2026-05-01T08:55:44Z</time></trkpt><trkpt lat="42.303620322263235" lon="14.293043981042201"><ele>118.0</ele><time>2026-05-01T08:55:45Z</time></trkpt><trkpt lat="42.30352226169117" lon="14.29303275395565"><ele>117.0</ele><time>2026-05-01T08:55:46Z</time></trkpt><trkpt lat="42.303432322562706" lon="14.2930281767423"><ele>116.0</ele><time>2026-05-01T08:55:47Z</time></trkpt><trkpt lat="42.30336486500349" lon="14.292986699536103"><ele>116.0</ele><time>2026-05-01T08:55:48Z</time></trkpt><trkpt lat="42.303248501181216" lon="14.292973613357638"><ele>116.0</ele><time>2026-05-01T08:55:50Z</time></trkpt><trkpt lat="42.30313200492783" lon="14.292958465535653"><ele>116.0</ele><time>2026-05-01T08:55:52Z</time></trkpt><trkpt lat="42.30304852141415" lon="14.29294756756108"><ele>116.0</ele><time>2026-05-01T08:55:53Z</time></trkpt><trkpt lat="42.30294202851174" lon="14.292952256080756"><ele>116.0</ele><time>2026-05-01T08:55:54Z</time></trkpt><trkpt lat="42.302852568853005" lon="14.292934232286596"><ele>116.0</ele><time>2026-05-01T08:55:55Z</time></trkpt><trkpt lat="42.30275665547246" lon="14.292923256164013"><ele>116.0</ele><time>2026-05-01T08:55:56Z</time></trkpt><trkpt lat="42.30264222428627" lon="14.292908989612965"><ele>116.0</ele><time>2026-05-01T08:55:57Z</time></trkpt><trkpt lat="42.30252180843324" lon="14.292883102491524"><ele>116.0</ele><time>2026-05-01T08:55:58Z</time></trkpt><trkpt lat="42.30240308718311" lon="14.292868471905594"><ele>116.0</ele><time>2026-05-01T08:55:59Z</time></trkpt><trkpt lat="42.30228723011175" lon="14.292843684211931"><ele>116.0</ele><time>2026-05-01T08:56:00Z</time></trkpt><trkpt lat="42.30217158315814" lon="14.292829544119455"><ele>116.0</ele><time>2026-05-01T08:56:01Z</time></trkpt><trkpt lat="42.302055822878046" lon="14.292812512004254"><ele>116.0</ele><time>2026-05-01T08:56:02Z</time></trkpt><trkpt lat="42.30193953268457" lon="14.292791297510169"><ele>116.25</ele><time>2026-05-01T08:56:02.999Z</time></trkpt><trkpt lat="42.30182782196342" lon="14.292779828522393"><ele>116.5</ele><time>2026-05-01T08:56:03.999Z</time></trkpt><trkpt lat="42.301709598409616" lon="14.292766400148682"><ele>116.75</ele><time>2026-05-01T08:56:04.999Z</time></trkpt><trkpt lat="42.30158975949947" lon="14.29274986694159"><ele>117.0</ele><time>2026-05-01T08:56:05.999Z</time></trkpt><trkpt lat="42.301472027306495" lon="14.292711413290867"><ele>117.75</ele><time>2026-05-01T08:56:06.999Z</time></trkpt><trkpt lat="42.30132365683361" lon="14.29267259426283"><ele>118.5</ele><time>2026-05-01T08:56:07.999Z</time></trkpt><trkpt lat="42.30118822884807" lon="14.29264042384286"><ele>119.25</ele><time>2026-05-01T08:56:08.999Z</time></trkpt><trkpt lat="42.30108793091308" lon="14.292614099609501"><ele>120.0</ele><time>2026-05-01T08:56:09.999Z</time></trkpt><trkpt lat="42.30096211977593" lon="14.292577444728654"><ele>120.0</ele><time>2026-05-01T08:56:10.999Z</time></trkpt><trkpt lat="42.30084956092638" lon="14.292552088929325"><ele>120.0</ele><time>2026-05-01T08:56:11.999Z</time></trkpt><trkpt lat="42.30073496228616" lon="14.292560442510881"><ele>120.0</ele><time>2026-05-01T08:56:12.999Z</time></trkpt><trkpt lat="42.30061766778881" lon="14.292557442934688"><ele>120.0</ele><time>2026-05-01T08:56:13.999Z</time></trkpt><trkpt lat="42.300510698965866" lon="14.292567099362302"><ele>120.16666666666667</ele><time>2026-05-01T08:56:14.999Z</time></trkpt><trkpt lat="42.3004179868323" lon="14.292560425574578"><ele>120.33333333333334</ele><time>2026-05-01T08:56:15.999Z</time></trkpt><trkpt lat="42.30033803697193" lon="14.292548626978665"><ele>120.5</ele><time>2026-05-01T08:56:16.999Z</time></trkpt><trkpt lat="42.30027472721997" lon="14.292495579368849"><ele>120.66666666666667</ele><time>2026-05-01T08:56:17.999Z</time></trkpt><trkpt lat="42.30020881776165" lon="14.292435668853843"><ele>120.83333333333334</ele><time>2026-05-01T08:56:18.999Z</time></trkpt><trkpt lat="42.300132594317496" lon="14.29237149933105"><ele>121.0</ele><time>2026-05-01T08:56:19.999Z</time></trkpt><trkpt lat="42.30006613666491" lon="14.292322378071786"><ele>121.00000000000001</ele><time>2026-05-01T08:56:20.999Z</time></trkpt><trkpt lat="42.30000663574122" lon="14.292273849137402"><ele>121.0</ele><time>2026-05-01T08:56:21.999Z</time></trkpt><trkpt lat="42.299941696246336" lon="14.29221338813703"><ele>121.0</ele><time>2026-05-01T08:56:22.999Z</time></trkpt><trkpt lat="42.29988312166137" lon="14.292149983453486"><ele>121.0</ele><time>2026-05-01T08:56:23.999Z</time></trkpt><trkpt lat="42.29980940936055" lon="14.292082107996583"><ele>121.00000000000001</ele><time>2026-05-01T08:56:25.999Z</time></trkpt><trkpt lat="42.29968162207529" lon="14.29211968193779"><ele>121.0</ele><time>2026-05-01T08:56:47.999Z</time></trkpt><trkpt lat="42.299598935261" lon="14.29214463555833"><ele>123.00000000000001</ele><time>2026-05-01T08:56:48.999Z</time></trkpt><trkpt lat="42.29953538617317" lon="14.292162694895362"><ele>125.0</ele><time>2026-05-01T08:56:49.999Z</time></trkpt><trkpt lat="42.299452572084746" lon="14.292171753668237"><ele>127.0</ele><time>2026-05-01T08:56:50.999Z</time></trkpt><trkpt lat="42.299374453404376" lon="14.292168795026988"><ele>129.0</ele><time>2026-05-01T08:56:51.999Z</time></trkpt><trkpt lat="42.29929249415903" lon="14.29215851577518"><ele>131.0</ele><time>2026-05-01T08:56:52.999Z</time></trkpt><trkpt lat="42.299211794272736" lon="14.292142329483571"><ele>133.0</ele><time>2026-05-01T08:56:53.999Z</time></trkpt><trkpt lat="42.29912294753858" lon="14.292127440925665"><ele>133.0</ele><time>2026-05-01T08:56:54.999Z</time></trkpt><trkpt lat="42.299042746030565" lon="14.29212085652381"><ele>133.0</ele><time>2026-05-01T08:56:55.999Z</time></trkpt><trkpt lat="42.2989224899211" lon="14.292118582750915"><ele>133.0</ele><time>2026-05-01T08:56:57.999Z</time></trkpt><trkpt lat="42.29882614735765" lon="14.292129376816742"><ele>133.0</ele><time>2026-05-01T08:56:59.999Z</time></trkpt><trkpt lat="42.2987455273825" lon="14.292133608216378"><ele>133.0</ele><time>2026-05-01T08:57:01.999Z</time></trkpt><trkpt lat="42.29868263543253" lon="14.29211272171165"><ele>133.0</ele><time>2026-05-01T08:57:02.999Z</time></trkpt><trkpt lat="42.29861009688519" lon="14.292146559526216"><ele>133.20000000000002</ele><time>2026-05-01T08:57:05.999Z</time></trkpt><trkpt lat="42.298461531034725" lon="14.292157012988733"><ele>133.4</ele><time>2026-05-01T08:57:07.999Z</time></trkpt><trkpt lat="42.298369098331534" lon="14.292164868522768"><ele>133.60000000000002</ele><time>2026-05-01T08:57:08.999Z</time></trkpt><trkpt lat="42.2982689779291" lon="14.29217189698324"><ele>133.8</ele><time>2026-05-01T08:57:09.999Z</time></trkpt><trkpt lat="42.298163913315086" lon="14.292184756977534"><ele>134.0</ele><time>2026-05-01T08:57:10.999Z</time></trkpt><trkpt lat="42.29808546026789" lon="14.292178344937664"><ele>134.0</ele><time>2026-05-01T08:57:11.999Z</time></trkpt><trkpt lat="42.29801961905693" lon="14.292199141071595"><ele>134.0</ele><time>2026-05-01T08:57:12.998Z</time></trkpt><trkpt lat="42.29792780648123" lon="14.292321402440912"><ele>134.0</ele><time>2026-05-01T08:57:14.998Z</time></trkpt><trkpt lat="42.29790793525357" lon="14.292448569156267"><ele>134.0</ele><time>2026-05-01T08:57:15.998Z</time></trkpt><trkpt lat="42.29790592688585" lon="14.292586341322961"><ele>134.0</ele><time>2026-05-01T08:57:17Z</time></trkpt><trkpt lat="42.297881980284345" lon="14.292823471724326"><ele>131.2</ele><time>2026-05-01T08:57:18Z</time></trkpt><trkpt lat="42.29789255007682" lon="14.292983041413992"><ele>128.4</ele><time>2026-05-01T08:57:19Z</time></trkpt><trkpt lat="42.2979111482847" lon="14.293103910084804"><ele>125.6</ele><time>2026-05-01T08:57:20Z</time></trkpt><trkpt lat="42.29795833974021" lon="14.293226282378175"><ele>122.8</ele><time>2026-05-01T08:57:21Z</time></trkpt><trkpt lat="42.29804985283071" lon="14.29333463310344"><ele>120.0</ele><time>2026-05-01T08:57:22Z</time></trkpt><trkpt lat="42.298163985827806" lon="14.293403360594192"><ele>118.83333333333333</ele><time>2026-05-01T08:57:23Z</time></trkpt><trkpt lat="42.298228752565244" lon="14.2935044981774"><ele>117.66666666666666</ele><time>2026-05-01T08:57:24Z</time></trkpt><trkpt lat="42.298282927524795" lon="14.293575710917624"><ele>116.5</ele><time>2026-05-01T08:57:25Z</time></trkpt><trkpt lat="42.298289611752345" lon="14.293668748924208"><ele>115.33333333333333</ele><time>2026-05-01T08:57:26Z</time></trkpt><trkpt lat="42.29821305763701" lon="14.293758851346722"><ele>114.16666666666666</ele><time>2026-05-01T08:57:27Z</time></trkpt><trkpt lat="42.29812624435921" lon="14.293818039259786"><ele>113.0</ele><time>2026-05-01T08:57:28Z</time></trkpt><trkpt lat="42.29802727213643" lon="14.29392867856768"><ele>111.4</ele><time>2026-05-01T08:57:29Z</time></trkpt><trkpt lat="42.297918660118235" lon="14.294041940441288"><ele>109.80000000000001</ele><time>2026-05-01T08:57:30Z</time></trkpt><trkpt lat="42.29782695674477" lon="14.294129223567717"><ele>108.2</ele><time>2026-05-01T08:57:31Z</time></trkpt><trkpt lat="42.29777172542509" lon="14.294196607383853"><ele>106.6</ele><time>2026-05-01T08:57:32Z</time></trkpt><trkpt lat="42.29768281156875" lon="14.294279861993534"><ele>105.0</ele><time>2026-05-01T08:57:34Z</time></trkpt><trkpt lat="42.2976042557355" lon="14.294375043087324"><ele>105.0</ele><time>2026-05-01T08:57:36Z</time></trkpt><trkpt lat="42.29755079794853" lon="14.294430627693268"><ele>105.0</ele><time>2026-05-01T08:57:37Z</time></trkpt><trkpt lat="42.29748608390831" lon="14.294507324624758"><ele>105.0</ele><time>2026-05-01T08:57:38Z</time></trkpt><trkpt lat="42.29742033352627" lon="14.294566005606283"><ele>105.0</ele><time>2026-05-01T08:57:39Z</time></trkpt><trkpt lat="42.29735660372875" lon="14.294605743129216"><ele>105.0</ele><time>2026-05-01T08:57:40Z</time></trkpt><trkpt lat="42.29727822384279" lon="14.294666909998217"><ele>105.0</ele><time>2026-05-01T08:57:42Z</time></trkpt><trkpt lat="42.29736042664255" lon="14.294606039236347"><ele>105.0</ele><time>2026-05-01T08:57:53Z</time></trkpt><trkpt lat="42.29743366537443" lon="14.294539887826296"><ele>105.0</ele><time>2026-05-01T08:57:54Z</time></trkpt><trkpt lat="42.297535109662405" lon="14.294482225193525"><ele>105.0</ele><time>2026-05-01T08:57:55Z</time></trkpt><trkpt lat="42.29762754465005" lon="14.294374806306386"><ele>105.0</ele><time>2026-05-01T08:57:56Z</time></trkpt><trkpt lat="42.29772931521349" lon="14.294266257727095"><ele>105.0</ele><time>2026-05-01T08:57:57Z</time></trkpt><trkpt lat="42.29785135400575" lon="14.294153388299005"><ele>105.0</ele><time>2026-05-01T08:57:58Z</time></trkpt><trkpt lat="42.297967147977566" lon="14.294035050296761"><ele>105.0</ele><time>2026-05-01T08:57:59Z</time></trkpt><trkpt lat="42.29808046786155" lon="14.293937650911852"><ele>105.0</ele><time>2026-05-01T08:58:00Z</time></trkpt><trkpt lat="42.29817380007846" lon="14.293845065467211"><ele>106.33333333333333</ele><time>2026-05-01T08:58:01Z</time></trkpt><trkpt lat="42.29822571576157" lon="14.29375660778947"><ele>107.66666666666666</ele><time>2026-05-01T08:58:02Z</time></trkpt><trkpt lat="42.2982652505674" lon="14.293644865827593"><ele>109.0</ele><time>2026-05-01T08:58:04Z</time></trkpt><trkpt lat="42.29830874059817" lon="14.293556084736196"><ele>110.33333333333333</ele><time>2026-05-01T08:58:20.999Z</time></trkpt><trkpt lat="42.29822975601156" lon="14.293453646545832"><ele>111.66666666666666</ele><time>2026-05-01T08:58:22.999Z</time></trkpt><trkpt lat="42.29817143045119" lon="14.29339117669142"><ele>113.0</ele><time>2026-05-01T08:58:23.999Z</time></trkpt><trkpt lat="42.29811651741987" lon="14.293324933384747"><ele>112.2</ele><time>2026-05-01T08:58:24.999Z</time></trkpt><trkpt lat="42.29805921951218" lon="14.293259338219736"><ele>111.4</ele><time>2026-05-01T08:58:25.999Z</time></trkpt><trkpt lat="42.297960545139674" lon="14.293106466671533"><ele>110.60000000000001</ele><time>2026-05-01T08:58:28.999Z</time></trkpt><trkpt lat="42.29793412374168" lon="14.293023720837326"><ele>109.80000000000001</ele><time>2026-05-01T08:58:33.999Z</time></trkpt><trkpt lat="42.2978303908446" lon="14.292988911056579"><ele>109.0</ele><time>2026-05-01T08:58:37.999Z</time></trkpt><trkpt lat="42.2977725981606" lon="14.292930659524878"><ele>110.83333333333334</ele><time>2026-05-01T08:58:39.999Z</time></trkpt><trkpt lat="42.297714923110654" lon="14.2928825579357"><ele>112.66666666666667</ele><time>2026-05-01T08:58:41.999Z</time></trkpt><trkpt lat="42.297650425433" lon="14.292819557377092"><ele>114.5</ele><time>2026-05-01T08:58:43.999Z</time></trkpt><trkpt lat="42.29756253366119" lon="14.292726323367583"><ele>116.33333333333334</ele><time>2026-05-01T08:58:45.999Z</time></trkpt><trkpt lat="42.29750773175106" lon="14.292671939790774"><ele>118.16666666666667</ele><time>2026-05-01T08:58:46.999Z</time></trkpt><trkpt lat="42.2974627154269" lon="14.292606177889173"><ele>120.0</ele><time>2026-05-01T08:58:47.999Z</time></trkpt><trkpt lat="42.297396479089905" lon="14.292564861962827"><ele>120.0</ele><time>2026-05-01T08:58:48.999Z</time></trkpt><trkpt lat="42.29733766073978" lon="14.292504734956788"><ele>120.0</ele><time>2026-05-01T08:58:49.999Z</time></trkpt><trkpt lat="42.29728833903889" lon="14.292435929746562"><ele>120.0</ele><time>2026-05-01T08:58:50.999Z</time></trkpt><trkpt lat="42.29723086778305" lon="14.292380677113778"><ele>120.0</ele><time>2026-05-01T08:58:51.999Z</time></trkpt><trkpt lat="42.297129501137" lon="14.29228322357954"><ele>120.0</ele><time>2026-05-01T08:58:53.999Z</time></trkpt><trkpt lat="42.29706011823941" lon="14.292240428911159"><ele>120.0</ele><time>2026-05-01T08:58:54.999Z</time></trkpt><trkpt lat="42.297007796922344" lon="14.29217610336064"><ele>122.5</ele><time>2026-05-01T08:58:55.999Z</time></trkpt><trkpt lat="42.29694868178552" lon="14.292127086014329"><ele>125.0</ele><time>2026-05-01T08:58:56.999Z</time></trkpt><trkpt lat="42.296882686181974" lon="14.292063167645248"><ele>127.5</ele><time>2026-05-01T08:58:57.999Z</time></trkpt><trkpt lat="42.29682003241682" lon="14.292003010155865"><ele>130.0</ele><time>2026-05-01T08:58:58.999Z</time></trkpt><trkpt lat="42.29675630378899" lon="14.291958713655125"><ele>132.5</ele><time>2026-05-01T08:58:59.999Z</time></trkpt><trkpt lat="42.29668092538351" lon="14.291904895155435"><ele>135.0</ele><time>2026-05-01T08:59:00.999Z</time></trkpt><trkpt lat="42.29661610090632" lon="14.291869200208888"><ele>135.0</ele><time>2026-05-01T08:59:01.999Z</time></trkpt><trkpt lat="42.2965069815215" lon="14.291767249927858"><ele>135.0</ele><time>2026-05-01T08:59:03.999Z</time></trkpt><trkpt lat="42.29644249126631" lon="14.291720468309201"><ele>135.0</ele><time>2026-05-01T08:59:04.999Z</time></trkpt><trkpt lat="42.296384281422895" lon="14.291682242640531"><ele>135.0</ele><time>2026-05-01T08:59:05.999Z</time></trkpt><trkpt lat="42.2962911233961" lon="14.291635367450892"><ele>135.0</ele><time>2026-05-01T08:59:07.999Z</time></trkpt><trkpt lat="42.29623700506877" lon="14.291582936333217"><ele>135.0</ele><time>2026-05-01T08:59:09.999Z</time></trkpt><trkpt lat="42.29622236646492" lon="14.291479941284415"><ele>134.66666666666666</ele><time>2026-05-01T08:59:12.999Z</time></trkpt><trkpt lat="42.29627424561014" lon="14.291354604939656"><ele>134.33333333333334</ele><time>2026-05-01T08:59:14.999Z</time></trkpt><trkpt lat="42.296299398376185" lon="14.29127279404798"><ele>134.0</ele><time>2026-05-01T08:59:15.998Z</time></trkpt><trkpt lat="42.29632476962625" lon="14.291181925725725"><ele>133.66666666666669</ele><time>2026-05-01T08:59:16.998Z</time></trkpt><trkpt lat="42.296349779700016" lon="14.291090730191504"><ele>133.33333333333334</ele><time>2026-05-01T08:59:17.998Z</time></trkpt><trkpt lat="42.296400960766356" lon="14.290924358399222"><ele>133.0</ele><time>2026-05-01T08:59:19.998Z</time></trkpt><trkpt lat="42.29641701156407" lon="14.290840936841537"><ele>135.71428571428572</ele><time>2026-05-01T08:59:20.998Z</time></trkpt><trkpt lat="42.296448042279586" lon="14.290754257063254"><ele>138.42857142857144</ele><time>2026-05-01T08:59:21.998Z</time></trkpt><trkpt lat="42.296480132513544" lon="14.290654252875303"><ele>141.14285714285714</ele><time>2026-05-01T08:59:23Z</time></trkpt><trkpt lat="42.2965139922426" lon="14.290566158534654"><ele>143.85714285714286</ele><time>2026-05-01T08:59:24Z</time></trkpt><trkpt lat="42.296559710661626" lon="14.290480236665413"><ele>146.57142857142858</ele><time>2026-05-01T08:59:25Z</time></trkpt><trkpt lat="42.296603999367264" lon="14.290415118188132"><ele>149.28571428571428</ele><time>2026-05-01T08:59:26Z</time></trkpt><trkpt lat="42.29664308893703" lon="14.290345147337746"><ele>152.0</ele><time>2026-05-01T08:59:27Z</time></trkpt><trkpt lat="42.29670382791308" lon="14.290212327409197"><ele>154.2</ele><time>2026-05-01T08:59:29Z</time></trkpt><trkpt lat="42.296753986188094" lon="14.290065180804168"><ele>156.39999999999998</ele><time>2026-05-01T08:59:31Z</time></trkpt><trkpt lat="42.29680682374224" lon="14.289933336911487"><ele>158.60000000000002</ele><time>2026-05-01T08:59:33Z</time></trkpt><trkpt lat="42.29686969585761" lon="14.289820986004186"><ele>160.8</ele><time>2026-05-01T08:59:35Z</time></trkpt><trkpt lat="42.29694364582097" lon="14.289702992967646"><ele>163.0</ele><time>2026-05-01T08:59:37Z</time></trkpt><trkpt lat="42.29702176927097" lon="14.289570835280337"><ele>165.60000000000002</ele><time>2026-05-01T08:59:39Z</time></trkpt><trkpt lat="42.29708893016528" lon="14.2894341753787"><ele>168.20000000000002</ele><time>2026-05-01T08:59:41Z</time></trkpt><trkpt lat="42.297140293204315" lon="14.28927879531639"><ele>170.8</ele><time>2026-05-01T08:59:43Z</time></trkpt><trkpt lat="42.29720942325552" lon="14.289148171437134"><ele>173.4</ele><time>2026-05-01T08:59:45Z</time></trkpt><trkpt lat="42.297267714077364" lon="14.289113621470344"><ele>176.0</ele><time>2026-05-01T08:59:47Z</time></trkpt><trkpt lat="42.297266850392795" lon="14.289015076038712"><ele>176.0</ele><time>2026-05-01T08:59:51Z</time></trkpt><trkpt lat="42.29720635197748" lon="14.289045865392081"><ele>176.0</ele><time>2026-05-01T09:00:01Z</time></trkpt><trkpt lat="42.29732299146319" lon="14.28909180659361"><ele>176.0</ele><time>2026-05-01T09:00:20.999Z</time></trkpt><trkpt lat="42.297426487535446" lon="14.289115909366869"><ele>176.0</ele><time>2026-05-01T09:00:22.999Z</time></trkpt><trkpt lat="42.297492334518125" lon="14.289109789003128"><ele>176.0</ele><time>2026-05-01T09:00:24.999Z</time></trkpt><trkpt lat="42.29756762442679" lon="14.289141917400144"><ele>176.0</ele><time>2026-05-01T09:00:27.999Z</time></trkpt><trkpt lat="42.297620550352356" lon="14.289068233521798"><ele>177.33333333333331</ele><time>2026-05-01T09:00:30.999Z</time></trkpt><trkpt lat="42.29755922541794" lon="14.28900951386545"><ele>178.66666666666666</ele><time>2026-05-01T09:00:32.999Z</time></trkpt><trkpt lat="42.297468490301185" lon="14.289053301605758"><ele>180.0</ele><time>2026-05-01T09:00:34.999Z</time></trkpt><trkpt lat="42.29737587500222" lon="14.289035264589591"><ele>181.33333333333334</ele><time>2026-05-01T09:00:36.999Z</time></trkpt><trkpt lat="42.297281813147194" lon="14.288946299346957"><ele>182.66666666666669</ele><time>2026-05-01T09:00:38.999Z</time></trkpt><trkpt lat="42.29722104655879" lon="14.288907354002228"><ele>184.0</ele><time>2026-05-01T09:00:39.999Z</time></trkpt><trkpt lat="42.297151314663026" lon="14.288870710098621"><ele>184.83333333333334</ele><time>2026-05-01T09:00:40.999Z</time></trkpt><trkpt lat="42.29708229314065" lon="14.288839832207838"><ele>185.66666666666669</ele><time>2026-05-01T09:00:41.999Z</time></trkpt><trkpt lat="42.297003705889175" lon="14.288819427130228"><ele>186.5</ele><time>2026-05-01T09:00:42.999Z</time></trkpt><trkpt lat="42.29691396004046" lon="14.288795838806545"><ele>187.33333333333334</ele><time>2026-05-01T09:00:43.999Z</time></trkpt><trkpt lat="42.296816401605305" lon="14.28877107259848"><ele>188.16666666666666</ele><time>2026-05-01T09:00:44.999Z</time></trkpt><trkpt lat="42.296718212067404" lon="14.288739498803773"><ele>189.0</ele><time>2026-05-01T09:00:45.999Z</time></trkpt><trkpt lat="42.29662265060788" lon="14.288703144013569"><ele>189.0</ele><time>2026-05-01T09:00:46.999Z</time></trkpt><trkpt lat="42.29650955219832" lon="14.288682589965854"><ele>189.0</ele><time>2026-05-01T09:00:47.999Z</time></trkpt><trkpt lat="42.2964279308306" lon="14.288670183546838"><ele>189.0</ele><time>2026-05-01T09:00:48.999Z</time></trkpt><trkpt lat="42.29635290255227" lon="14.288650667364545"><ele>189.0</ele><time>2026-05-01T09:00:49.999Z</time></trkpt><trkpt lat="42.29623927349028" lon="14.28863974452304"><ele>189.0</ele><time>2026-05-01T09:00:51.999Z</time></trkpt><trkpt lat="42.296120580481244" lon="14.288621303486297"><ele>185.2</ele><time>2026-05-01T09:00:53.999Z</time></trkpt><trkpt lat="42.29604729631927" lon="14.28858076479022"><ele>181.39999999999998</ele><time>2026-05-01T09:00:54.999Z</time></trkpt><trkpt lat="42.2959667243565" lon="14.288514599006565"><ele>177.6</ele><time>2026-05-01T09:00:55.999Z</time></trkpt><trkpt lat="42.295887234139656" lon="14.288428920642518"><ele>173.8</ele><time>2026-05-01T09:00:56.999Z</time></trkpt><trkpt lat="42.29581748805096" lon="14.288333853753556"><ele>170.0</ele><time>2026-05-01T09:00:57.999Z</time></trkpt><trkpt lat="42.29577998092458" lon="14.288201749745584"><ele>171.83333333333331</ele><time>2026-05-01T09:00:58.999Z</time></trkpt><trkpt lat="42.29572696632021" lon="14.288088750240213"><ele>173.66666666666666</ele><time>2026-05-01T09:00:59.999Z</time></trkpt><trkpt lat="42.29567309922191" lon="14.287976798982344"><ele>175.5</ele><time>2026-05-01T09:01:00.999Z</time></trkpt><trkpt lat="42.29562598756406" lon="14.287907352386728"><ele>177.33333333333334</ele><time>2026-05-01T09:01:01.999Z</time></trkpt><trkpt lat="42.295557274883144" lon="14.287844373458745"><ele>179.16666666666669</ele><time>2026-05-01T09:01:02.999Z</time></trkpt><trkpt lat="42.29547918779469" lon="14.28777743028568"><ele>181.0</ele><time>2026-05-01T09:01:03.999Z</time></trkpt><trkpt lat="42.29539029112105" lon="14.28773180399091"><ele>177.60000000000002</ele><time>2026-05-01T09:01:04.999Z</time></trkpt><trkpt lat="42.29531640727131" lon="14.287679723060865"><ele>174.2</ele><time>2026-05-01T09:01:05.999Z</time></trkpt><trkpt lat="42.295260066569774" lon="14.287584698711685"><ele>170.8</ele><time>2026-05-01T09:01:06.999Z</time></trkpt><trkpt lat="42.29518027147476" lon="14.287451021540397"><ele>167.39999999999998</ele><time>2026-05-01T09:01:07.999Z</time></trkpt><trkpt lat="42.29509370134971" lon="14.287343707753447"><ele>164.0</ele><time>2026-05-01T09:01:08.999Z</time></trkpt><trkpt lat="42.29501952672267" lon="14.287254337080004"><ele>164.0</ele><time>2026-05-01T09:01:09.999Z</time></trkpt><trkpt lat="42.29495702663673" lon="14.287165513340177"><ele>164.0</ele><time>2026-05-01T09:01:10.999Z</time></trkpt><trkpt lat="42.29490085925595" lon="14.28704912337522"><ele>164.0</ele><time>2026-05-01T09:01:11.999Z</time></trkpt><trkpt lat="42.294836155110026" lon="14.286883162041793"><ele>164.0</ele><time>2026-05-01T09:01:12.999Z</time></trkpt><trkpt lat="42.294786496082295" lon="14.286694536621932"><ele>160.25</ele><time>2026-05-01T09:01:13.999Z</time></trkpt><trkpt lat="42.29471729690702" lon="14.286541058727133"><ele>156.5</ele><time>2026-05-01T09:01:14.999Z</time></trkpt><trkpt lat="42.29464237846621" lon="14.286407406745287"><ele>152.75</ele><time>2026-05-01T09:01:15.999Z</time></trkpt><trkpt lat="42.29456173525078" lon="14.286291156378804"><ele>149.0</ele><time>2026-05-01T09:01:16.999Z</time></trkpt><trkpt lat="42.29450231638572" lon="14.286176707594711"><ele>149.0</ele><time>2026-05-01T09:01:17.999Z</time></trkpt><trkpt lat="42.29443045600314" lon="14.286082658956836"><ele>149.0</ele><time>2026-05-01T09:01:18.998Z</time></trkpt><trkpt lat="42.29434013717709" lon="14.285995753307269"><ele>149.0</ele><time>2026-05-01T09:01:19.998Z</time></trkpt><trkpt lat="42.294219082727274" lon="14.285917199421188"><ele>149.0</ele><time>2026-05-01T09:01:20.998Z</time></trkpt><trkpt lat="42.29409532474841" lon="14.285824884927198"><ele>149.0</ele><time>2026-05-01T09:01:21.998Z</time></trkpt><trkpt lat="42.29398344710109" lon="14.28575906443769"><ele>149.0</ele><time>2026-05-01T09:01:22.998Z</time></trkpt><trkpt lat="42.293897673611625" lon="14.28571862481755"><ele>149.0</ele><time>2026-05-01T09:01:24.998Z</time></trkpt><trkpt lat="42.293785985645115" lon="14.28563484266613"><ele>149.0</ele><time>2026-05-01T09:01:26.998Z</time></trkpt><trkpt lat="42.29372242066677" lon="14.285586941605729"><ele>149.0</ele><time>2026-05-01T09:01:27.998Z</time></trkpt><trkpt lat="42.29366375584099" lon="14.285537946209681"><ele>148.0</ele><time>2026-05-01T09:01:29Z</time></trkpt><trkpt lat="42.29359990830372" lon="14.285487884345974"><ele>147.0</ele><time>2026-05-01T09:01:30Z</time></trkpt><trkpt lat="42.29354076604884" lon="14.285410801641735"><ele>146.0</ele><time>2026-05-01T09:01:31Z</time></trkpt><trkpt lat="42.29346750300292" lon="14.28536366720106"><ele>145.0</ele><time>2026-05-01T09:01:32Z</time></trkpt><trkpt lat="42.293412420600355" lon="14.285297548199285"><ele>144.0</ele><time>2026-05-01T09:01:33Z</time></trkpt><trkpt lat="42.29335282917049" lon="14.285221783719264"><ele>143.0</ele><time>2026-05-01T09:01:34Z</time></trkpt><trkpt lat="42.29328929256844" lon="14.285121225673192"><ele>143.0</ele><time>2026-05-01T09:01:36Z</time></trkpt><trkpt lat="42.29323894381726" lon="14.28505017599698"><ele>143.0</ele><time>2026-05-01T09:01:37Z</time></trkpt><trkpt lat="42.29313755072283" lon="14.284986316846052"><ele>143.0</ele><time>2026-05-01T09:01:39Z</time></trkpt><trkpt lat="42.29306382132707" lon="14.284949335517679"><ele>143.0</ele><time>2026-05-01T09:01:40Z</time></trkpt><trkpt lat="42.29298800382671" lon="14.284904765339075"><ele>143.0</ele><time>2026-05-01T09:01:41Z</time></trkpt><trkpt lat="42.29291253050207" lon="14.284859791468444"><ele>143.0</ele><time>2026-05-01T09:01:42Z</time></trkpt><trkpt lat="42.29285462921508" lon="14.284812843065964"><ele>141.66666666666666</ele><time>2026-05-01T09:01:43Z</time></trkpt><trkpt lat="42.29275773579588" lon="14.284729852978629"><ele>140.33333333333331</ele><time>2026-05-01T09:01:45Z</time></trkpt><trkpt lat="42.29269904986101" lon="14.284697273470274"><ele>139.0</ele><time>2026-05-01T09:01:46Z</time></trkpt><trkpt lat="42.29263904298913" lon="14.284658495425832"><ele>137.66666666666666</ele><time>2026-05-01T09:01:47Z</time></trkpt><trkpt lat="42.29257968973766" lon="14.284592801543473"><ele>136.33333333333334</ele><time>2026-05-01T09:01:48Z</time></trkpt><trkpt lat="42.29251319535072" lon="14.284509636483392"><ele>135.0</ele><time>2026-05-01T09:01:49Z</time></trkpt><trkpt lat="42.29244891434248" lon="14.284426389047043"><ele>135.0</ele><time>2026-05-01T09:01:50Z</time></trkpt><trkpt lat="42.29239383020687" lon="14.284356148808275"><ele>135.0</ele><time>2026-05-01T09:01:51Z</time></trkpt><trkpt lat="42.292337156566305" lon="14.28428534256457"><ele>135.0</ele><time>2026-05-01T09:01:52Z</time></trkpt><trkpt lat="42.29227639947914" lon="14.284205848362015"><ele>135.0</ele><time>2026-05-01T09:01:53Z</time></trkpt><trkpt lat="42.29222968877516" lon="14.284144434713703"><ele>135.0</ele><time>2026-05-01T09:01:54Z</time></trkpt><trkpt lat="42.292179987365934" lon="14.284069237051023"><ele>135.0</ele><time>2026-05-01T09:01:55Z</time></trkpt><trkpt lat="42.29211547290422" lon="14.28394408327447"><ele>137.2</ele><time>2026-05-01T09:01:57Z</time></trkpt><trkpt lat="42.292023545633484" lon="14.28382243040711"><ele>139.4</ele><time>2026-05-01T09:01:59Z</time></trkpt><trkpt lat="42.291966967963326" lon="14.283776924737102"><ele>141.6</ele><time>2026-05-01T09:02:00Z</time></trkpt><trkpt lat="42.29189288370524" lon="14.283715664879676"><ele>143.8</ele><time>2026-05-01T09:02:01Z</time></trkpt><trkpt lat="42.29183157668693" lon="14.28364159432098"><ele>146.0</ele><time>2026-05-01T09:02:02Z</time></trkpt><trkpt lat="42.291761979179" lon="14.283561325829544"><ele>146.0</ele><time>2026-05-01T09:02:03Z</time></trkpt><trkpt lat="42.291691017987766" lon="14.283486681159888"><ele>146.0</ele><time>2026-05-01T09:02:04Z</time></trkpt><trkpt lat="42.29161719322616" lon="14.283417289032142"><ele>146.0</ele><time>2026-05-01T09:02:05Z</time></trkpt><trkpt lat="42.291539646446694" lon="14.28335502365384"><ele>146.0</ele><time>2026-05-01T09:02:06Z</time></trkpt><trkpt lat="42.29145871514392" lon="14.283281299958569"><ele>146.0</ele><time>2026-05-01T09:02:07Z</time></trkpt><trkpt lat="42.291389333124386" lon="14.283219965883989"><ele>145.33333333333331</ele><time>2026-05-01T09:02:08Z</time></trkpt><trkpt lat="42.29132344737231" lon="14.283153913394175"><ele>144.66666666666666</ele><time>2026-05-01T09:02:09Z</time></trkpt><trkpt lat="42.29126759043235" lon="14.283087944044329"><ele>144.0</ele><time>2026-05-01T09:02:10Z</time></trkpt><trkpt lat="42.29121512239657" lon="14.283008100739988"><ele>143.33333333333334</ele><time>2026-05-01T09:02:11Z</time></trkpt><trkpt lat="42.29117335118946" lon="14.282924958836213"><ele>142.66666666666669</ele><time>2026-05-01T09:02:12Z</time></trkpt><trkpt lat="42.29113669705421" lon="14.28282474298807"><ele>142.0</ele><time>2026-05-01T09:02:13Z</time></trkpt><trkpt lat="42.29112079570803" lon="14.282705427806805"><ele>143.6</ele><time>2026-05-01T09:02:14Z</time></trkpt><trkpt lat="42.291123175809034" lon="14.282598676539868"><ele>145.2</ele><time>2026-05-01T09:02:15Z</time></trkpt><trkpt lat="42.29112613292949" lon="14.282508944570752"><ele>146.8</ele><time>2026-05-01T09:02:16Z</time></trkpt><trkpt lat="42.29110648405853" lon="14.282382616404721"><ele>148.4</ele><time>2026-05-01T09:02:18Z</time></trkpt><trkpt lat="42.291059451430144" lon="14.282266860567296"><ele>150.0</ele><time>2026-05-01T09:02:20Z</time></trkpt><trkpt lat="42.29098297428271" lon="14.282133111376469"><ele>153.2</ele><time>2026-05-01T09:02:22Z</time></trkpt><trkpt lat="42.290917528222764" lon="14.28205086563165"><ele>156.4</ele><time>2026-05-01T09:02:23Z</time></trkpt><trkpt lat="42.290875211303494" lon="14.281946226795762"><ele>159.60000000000002</ele><time>2026-05-01T09:02:23.999Z</time></trkpt><trkpt lat="42.29082924175404" lon="14.281833256528875"><ele>162.8</ele><time>2026-05-01T09:02:24.999Z</time></trkpt><trkpt lat="42.29079831034288" lon="14.281714422689149"><ele>166.0</ele><time>2026-05-01T09:02:25.999Z</time></trkpt><trkpt lat="42.29078657259212" lon="14.281591387512062"><ele>166.0</ele><time>2026-05-01T09:02:26.999Z</time></trkpt><trkpt lat="42.29079905315093" lon="14.28145755961276"><ele>166.0</ele><time>2026-05-01T09:02:27.999Z</time></trkpt><trkpt lat="42.29080881162174" lon="14.281299765149882"><ele>166.0</ele><time>2026-05-01T09:02:28.999Z</time></trkpt><trkpt lat="42.29082786157816" lon="14.281147248548088"><ele>166.0</ele><time>2026-05-01T09:02:29.999Z</time></trkpt><trkpt lat="42.29082877657845" lon="14.280983500590049"><ele>168.60000000000002</ele><time>2026-05-01T09:02:30.999Z</time></trkpt><trkpt lat="42.29081664071263" lon="14.280843110454008"><ele>171.2</ele><time>2026-05-01T09:02:31.999Z</time></trkpt><trkpt lat="42.290815725107734" lon="14.280755676576078"><ele>173.8</ele><time>2026-05-01T09:02:32.999Z</time></trkpt><trkpt lat="42.2908141114019" lon="14.280655490691997"><ele>176.39999999999998</ele><time>2026-05-01T09:02:34.999Z</time></trkpt><trkpt lat="42.2908030274315" lon="14.280528772218526"><ele>179.0</ele><time>2026-05-01T09:02:45.999Z</time></trkpt><trkpt lat="42.29076229593338" lon="14.280371065055133"><ele>178.0</ele><time>2026-05-01T09:02:47.999Z</time></trkpt><trkpt lat="42.29070691012544" lon="14.280221260823563"><ele>177.0</ele><time>2026-05-01T09:02:49.999Z</time></trkpt><trkpt lat="42.290625156171465" lon="14.280100328092136"><ele>176.0</ele><time>2026-05-01T09:02:51.999Z</time></trkpt><trkpt lat="42.290585893602945" lon="14.280016590977093"><ele>175.0</ele><time>2026-05-01T09:02:52.999Z</time></trkpt><trkpt lat="42.290541577587625" lon="14.279930784343376"><ele>174.0</ele><time>2026-05-01T09:02:53.999Z</time></trkpt><trkpt lat="42.290510271939525" lon="14.279853173286522"><ele>177.79999999999998</ele><time>2026-05-01T09:02:54.999Z</time></trkpt><trkpt lat="42.29047890236395" lon="14.27970617291104"><ele>181.6</ele><time>2026-05-01T09:02:56.999Z</time></trkpt><trkpt lat="42.290451138173935" lon="14.279616702070017"><ele>185.4</ele><time>2026-05-01T09:02:57.999Z</time></trkpt><trkpt lat="42.29043979051604" lon="14.27949741760592"><ele>189.2</ele><time>2026-05-01T09:02:59.999Z</time></trkpt><trkpt lat="42.29043858753513" lon="14.279368329593822"><ele>193.0</ele><time>2026-05-01T09:03:01.999Z</time></trkpt><trkpt lat="42.29036874178278" lon="14.27923039288503"><ele>193.0</ele><time>2026-05-01T09:03:03.999Z</time></trkpt><trkpt lat="42.29030645138879" lon="14.27913727704503"><ele>193.0</ele><time>2026-05-01T09:03:04.999Z</time></trkpt><trkpt lat="42.29022493019459" lon="14.279129447327744"><ele>193.0</ele><time>2026-05-01T09:03:05.999Z</time></trkpt><trkpt lat="42.290127951105745" lon="14.279063204703586"><ele>193.0</ele><time>2026-05-01T09:03:06.999Z</time></trkpt><trkpt lat="42.290062308650405" lon="14.27903531158571"><ele>193.0</ele><time>2026-05-01T09:03:07.999Z</time></trkpt><trkpt lat="42.28995138467102" lon="14.278891531855436"><ele>194.60000000000002</ele><time>2026-05-01T09:03:09.999Z</time></trkpt><trkpt lat="42.28991273694705" lon="14.27877812282153"><ele>196.20000000000002</ele><time>2026-05-01T09:03:10.999Z</time></trkpt><trkpt lat="42.289882660485006" lon="14.27865294424027"><ele>197.8</ele><time>2026-05-01T09:03:11.999Z</time></trkpt><trkpt lat="42.28985293749912" lon="14.278513692948017"><ele>199.4</ele><time>2026-05-01T09:03:12.999Z</time></trkpt><trkpt lat="42.28982693214305" lon="14.278381319124446"><ele>201.0</ele><time>2026-05-01T09:03:13.999Z</time></trkpt><trkpt lat="42.2898099328917" lon="14.278275875228648"><ele>201.0</ele><time>2026-05-01T09:03:14.999Z</time></trkpt><trkpt lat="42.2897827073274" lon="14.278144393159186"><ele>201.0</ele><time>2026-05-01T09:03:15.999Z</time></trkpt><trkpt lat="42.2898928608198" lon="14.277996528471748"><ele>201.0</ele><time>2026-05-01T09:03:16.999Z</time></trkpt><trkpt lat="42.28987103665179" lon="14.277911816297262"><ele>201.0</ele><time>2026-05-01T09:03:17.999Z</time></trkpt><trkpt lat="42.28972004428149" lon="14.27782331677209"><ele>200.66666666666666</ele><time>2026-05-01T09:03:19.999Z</time></trkpt><trkpt lat="42.28969153193074" lon="14.277714647482002"><ele>200.33333333333331</ele><time>2026-05-01T09:03:21.999Z</time></trkpt><trkpt lat="42.289660397415346" lon="14.277624341224044"><ele>200.0</ele><time>2026-05-01T09:03:22.998Z</time></trkpt><trkpt lat="42.289641512595985" lon="14.277540229701989"><ele>199.66666666666666</ele><time>2026-05-01T09:03:23.998Z</time></trkpt><trkpt lat="42.289623987058064" lon="14.277438678430231"><ele>199.33333333333331</ele><time>2026-05-01T09:03:24.998Z</time></trkpt><trkpt lat="42.289598937200545" lon="14.277319648145514"><ele>199.0</ele><time>2026-05-01T09:03:25.998Z</time></trkpt><trkpt lat="42.28956865691843" lon="14.277190154432477"><ele>200.79999999999998</ele><time>2026-05-01T09:03:26.998Z</time></trkpt><trkpt lat="42.28954865851195" lon="14.277060342686031"><ele>202.6</ele><time>2026-05-01T09:03:27.998Z</time></trkpt><trkpt lat="42.28953788221261" lon="14.27694136118315"><ele>204.4</ele><time>2026-05-01T09:03:28.998Z</time></trkpt><trkpt lat="42.28955731189774" lon="14.276806878200933"><ele>206.2</ele><time>2026-05-01T09:03:29.998Z</time></trkpt><trkpt lat="42.28953477235316" lon="14.276661244585961"><ele>208.0</ele><time>2026-05-01T09:03:30.998Z</time></trkpt><trkpt lat="42.28952574289653" lon="14.276515568995439"><ele>209.2</ele><time>2026-05-01T09:03:31.998Z</time></trkpt><trkpt lat="42.28950295643926" lon="14.276353222347394"><ele>210.4</ele><time>2026-05-01T09:03:32.998Z</time></trkpt><trkpt lat="42.289471790356316" lon="14.276211026954368"><ele>211.59999999999997</ele><time>2026-05-01T09:03:33.998Z</time></trkpt><trkpt lat="42.289472504363104" lon="14.276070860849327"><ele>212.79999999999998</ele><time>2026-05-01T09:03:35Z</time></trkpt><trkpt lat="42.2894622446134" lon="14.27595995319103"><ele>214.0</ele><time>2026-05-01T09:03:36Z</time></trkpt><trkpt lat="42.289473217291246" lon="14.275875892381618"><ele>214.0</ele><time>2026-05-01T09:03:42Z</time></trkpt><trkpt lat="42.2893791058343" lon="14.275894897792746"><ele>213.99999999999997</ele><time>2026-05-01T09:03:44Z</time></trkpt><trkpt lat="42.2892924514784" lon="14.275883710583745"><ele>213.99999999999997</ele><time>2026-05-01T09:03:47Z</time></trkpt><trkpt lat="42.28919510765225" lon="14.275874965650875"><ele>214.0</ele><time>2026-05-01T09:03:49Z</time></trkpt><trkpt lat="42.289129485455135" lon="14.275870568418153"><ele>214.0</ele><time>2026-05-01T09:03:50Z</time></trkpt><trkpt lat="42.28902038832593" lon="14.275872311534185"><ele>213.99999999999997</ele><time>2026-05-01T09:03:52Z</time></trkpt><trkpt lat="42.28895468096803" lon="14.27588299548625"><ele>214.0</ele><time>2026-05-01T09:03:53Z</time></trkpt><trkpt lat="42.28883714254031" lon="14.275900437481145"><ele>214.0</ele><time>2026-05-01T09:03:55Z</time></trkpt><trkpt lat="42.288765032341665" lon="14.275905124005682"><ele>214.0</ele><time>2026-05-01T09:03:56Z</time></trkpt><trkpt lat="42.288693118960104" lon="14.275911068835711"><ele>213.99999999999997</ele><time>2026-05-01T09:03:57Z</time></trkpt><trkpt lat="42.288629376397296" lon="14.275915247648816"><ele>214.0</ele><time>2026-05-01T09:03:58Z</time></trkpt><trkpt lat="42.2885162533863" lon="14.275917882936495"><ele>211.79999999999998</ele><time>2026-05-01T09:04:00Z</time></trkpt><trkpt lat="42.288399274703174" lon="14.275923825999795"><ele>209.59999999999997</ele><time>2026-05-01T09:04:02Z</time></trkpt><trkpt lat="42.28825464665038" lon="14.27596238519061"><ele>207.4</ele><time>2026-05-01T09:04:04Z</time></trkpt><trkpt lat="42.28818441934795" lon="14.2759899470643"><ele>205.2</ele><time>2026-05-01T09:04:05Z</time></trkpt><trkpt lat="42.28811961604139" lon="14.276015293267843"><ele>203.0</ele><time>2026-05-01T09:04:06Z</time></trkpt><trkpt lat="42.288048714662644" lon="14.276043024581536"><ele>201.33333333333334</ele><time>2026-05-01T09:04:07Z</time></trkpt><trkpt lat="42.287970914503546" lon="14.27607345418012"><ele>199.66666666666669</ele><time>2026-05-01T09:04:08Z</time></trkpt><trkpt lat="42.28790870957708" lon="14.276096020822823"><ele>198.0</ele><time>2026-05-01T09:04:09Z</time></trkpt><trkpt lat="42.287775275542046" lon="14.276110687498877"><ele>196.33333333333331</ele><time>2026-05-01T09:04:11Z</time></trkpt><trkpt lat="42.28769712959834" lon="14.276101500295875"><ele>194.66666666666666</ele><time>2026-05-01T09:04:12Z</time></trkpt><trkpt lat="42.28761524475917" lon="14.276115953776522"><ele>193.0</ele><time>2026-05-01T09:04:13Z</time></trkpt><trkpt lat="42.287536385451965" lon="14.27611145221373"><ele>192.99999999999997</ele><time>2026-05-01T09:04:14Z</time></trkpt><trkpt lat="42.28745431213256" lon="14.276086027203288"><ele>193.0</ele><time>2026-05-01T09:04:15Z</time></trkpt><trkpt lat="42.287372837529695" lon="14.276110589823935"><ele>193.0</ele><time>2026-05-01T09:04:16Z</time></trkpt><trkpt lat="42.28729487003399" lon="14.27612813864781"><ele>193.0</ele><time>2026-05-01T09:04:17Z</time></trkpt><trkpt lat="42.28722634292072" lon="14.276176561025547"><ele>192.99999999999997</ele><time>2026-05-01T09:04:18Z</time></trkpt><trkpt lat="42.28715228581014" lon="14.276246391987465"><ele>193.0</ele><time>2026-05-01T09:04:19Z</time></trkpt><trkpt lat="42.28706757500848" lon="14.276325797173545"><ele>191.49999999999997</ele><time>2026-05-01T09:04:20Z</time></trkpt><trkpt lat="42.28698245315635" lon="14.27635762788288"><ele>190.0</ele><time>2026-05-01T09:04:21Z</time></trkpt><trkpt lat="42.28691121306723" lon="14.276396996249153"><ele>188.5</ele><time>2026-05-01T09:04:22Z</time></trkpt><trkpt lat="42.28684082857566" lon="14.276435025837491"><ele>187.0</ele><time>2026-05-01T09:04:22.999Z</time></trkpt><trkpt lat="42.2867765733792" lon="14.276472427966704"><ele>185.5</ele><time>2026-05-01T09:04:23.999Z</time></trkpt><trkpt lat="42.2867162211206" lon="14.27650851737866"><ele>184.0</ele><time>2026-05-01T09:04:24.999Z</time></trkpt><trkpt lat="42.28662045363411" lon="14.276576105960201"><ele>182.39999999999998</ele><time>2026-05-01T09:04:26.999Z</time></trkpt><trkpt lat="42.28655192335232" lon="14.276659100340815"><ele>180.8</ele><time>2026-05-01T09:04:28.999Z</time></trkpt><trkpt lat="42.28650612428347" lon="14.276810703540797"><ele>179.2</ele><time>2026-05-01T09:04:30.999Z</time></trkpt><trkpt lat="42.28643854103805" lon="14.276927333667912"><ele>177.60000000000002</ele><time>2026-05-01T09:04:32.999Z</time></trkpt><trkpt lat="42.28637647148044" lon="14.277029816560423"><ele>176.0</ele><time>2026-05-01T09:04:34.999Z</time></trkpt><trkpt lat="42.28631144791181" lon="14.277111864987512"><ele>174.0</ele><time>2026-05-01T09:04:36.999Z</time></trkpt><trkpt lat="42.28624757908091" lon="14.277154853881177"><ele>172.0</ele><time>2026-05-01T09:04:38.999Z</time></trkpt><trkpt lat="42.28615276624371" lon="14.277168034708332"><ele>170.0</ele><time>2026-05-01T09:04:40.999Z</time></trkpt><trkpt lat="42.28603669428108" lon="14.277131009703247"><ele>168.0</ele><time>2026-05-01T09:04:42.999Z</time></trkpt><trkpt lat="42.28593068040135" lon="14.277109671666304"><ele>166.0</ele><time>2026-05-01T09:04:44.999Z</time></trkpt><trkpt lat="42.28587265537578" lon="14.277070347397903"><ele>166.0</ele><time>2026-05-01T09:04:46.999Z</time></trkpt><trkpt lat="42.28593114697696" lon="14.277104533144186"><ele>166.0</ele><time>2026-05-01T09:05:49Z</time></trkpt><trkpt lat="42.28599239395106" lon="14.277134112972437"><ele>166.0</ele><time>2026-05-01T09:05:51Z</time></trkpt><trkpt lat="42.286075961014674" lon="14.27715959853832"><ele>166.0</ele><time>2026-05-01T09:05:53Z</time></trkpt><trkpt lat="42.28615226283317" lon="14.277180935354876"><ele>166.0</ele><time>2026-05-01T09:05:54Z</time></trkpt><trkpt lat="42.28624020544225" lon="14.277173893567417"><ele>166.0</ele><time>2026-05-01T09:05:55Z</time></trkpt><trkpt lat="42.28633627665906" lon="14.277109115687022"><ele>166.0</ele><time>2026-05-01T09:05:57Z</time></trkpt><trkpt lat="42.28641933647508" lon="14.276995993028024"><ele>166.0</ele><time>2026-05-01T09:05:59Z</time></trkpt><trkpt lat="42.28645581006597" lon="14.276911057939929"><ele>166.0</ele><time>2026-05-01T09:06:00Z</time></trkpt><trkpt lat="42.28648986836825" lon="14.276818386040954"><ele>166.0</ele><time>2026-05-01T09:06:01Z</time></trkpt><trkpt lat="42.2865252889494" lon="14.276723269097417"><ele>166.0</ele><time>2026-05-01T09:06:02Z</time></trkpt><trkpt lat="42.28659880635416" lon="14.276613982528351"><ele>168.0</ele><time>2026-05-01T09:06:04Z</time></trkpt><trkpt lat="42.28668554204997" lon="14.276521305154285"><ele>170.0</ele><time>2026-05-01T09:06:06Z</time></trkpt><trkpt lat="42.28680154210341" lon="14.276458776200684"><ele>172.0</ele><time>2026-05-01T09:06:08Z</time></trkpt><trkpt lat="42.286862573394664" lon="14.27641990078261"><ele>174.0</ele><time>2026-05-01T09:06:09Z</time></trkpt><trkpt lat="42.28693672088165" lon="14.276383215294576"><ele>176.0</ele><time>2026-05-01T09:06:10Z</time></trkpt><trkpt lat="42.28702408374552" lon="14.276336012047699"><ele>177.33333333333331</ele><time>2026-05-01T09:06:11Z</time></trkpt><trkpt lat="42.28710250117511" lon="14.276285227914105"><ele>178.66666666666666</ele><time>2026-05-01T09:06:12Z</time></trkpt><trkpt lat="42.28717202338554" lon="14.276210906873645"><ele>180.0</ele><time>2026-05-01T09:06:13Z</time></trkpt><trkpt lat="42.28722931574028" lon="14.276147208079816"><ele>181.33333333333334</ele><time>2026-05-01T09:06:14Z</time></trkpt><trkpt lat="42.28729130134634" lon="14.27608690139502"><ele>182.66666666666669</ele><time>2026-05-01T09:06:15Z</time></trkpt><trkpt lat="42.287369588506415" lon="14.276058167825399"><ele>184.0</ele><time>2026-05-01T09:06:16Z</time></trkpt><trkpt lat="42.28745080044796" lon="14.276053753367501"><ele>185.2857142857143</ele><time>2026-05-01T09:06:17Z</time></trkpt><trkpt lat="42.287538312389394" lon="14.27608072411473"><ele>186.57142857142856</ele><time>2026-05-01T09:06:18Z</time></trkpt><trkpt lat="42.28760487855901" lon="14.276093340603197"><ele>187.85714285714286</ele><time>2026-05-01T09:06:19Z</time></trkpt><trkpt lat="42.28767235218103" lon="14.276098693652449"><ele>189.14285714285717</ele><time>2026-05-01T09:06:20Z</time></trkpt><trkpt lat="42.287751227770784" lon="14.27610344573542"><ele>190.42857142857144</ele><time>2026-05-01T09:06:21Z</time></trkpt><trkpt lat="42.28781503714488" lon="14.276114948590704"><ele>191.71428571428572</ele><time>2026-05-01T09:06:21.999Z</time></trkpt><trkpt lat="42.28788811887298" lon="14.276136289896492"><ele>193.0</ele><time>2026-05-01T09:06:22.999Z</time></trkpt><trkpt lat="42.28795500826188" lon="14.276134369742264"><ele>192.99999999999997</ele><time>2026-05-01T09:06:23.999Z</time></trkpt><trkpt lat="42.2880432583956" lon="14.276089507209479"><ele>193.0</ele><time>2026-05-01T09:06:24.999Z</time></trkpt><trkpt lat="42.2881407579529" lon="14.276052158334632"><ele>193.0</ele><time>2026-05-01T09:06:26.999Z</time></trkpt><trkpt lat="42.28821625795939" lon="14.276009436399928"><ele>193.0</ele><time>2026-05-01T09:06:27.999Z</time></trkpt><trkpt lat="42.288296684105696" lon="14.275980268707112"><ele>192.99999999999997</ele><time>2026-05-01T09:06:28.999Z</time></trkpt><trkpt lat="42.288368381972624" lon="14.275965831870217"><ele>193.0</ele><time>2026-05-01T09:06:29.999Z</time></trkpt><trkpt lat="42.28844193571367" lon="14.275959939882526"><ele>194.66666666666666</ele><time>2026-05-01T09:06:30.999Z</time></trkpt><trkpt lat="42.28851665895514" lon="14.27595430703907"><ele>196.33333333333331</ele><time>2026-05-01T09:06:31.999Z</time></trkpt><trkpt lat="42.28867587335188" lon="14.275951194562843"><ele>198.0</ele><time>2026-05-01T09:06:33.999Z</time></trkpt><trkpt lat="42.28874013321912" lon="14.27595413253573"><ele>199.66666666666669</ele><time>2026-05-01T09:06:34.999Z</time></trkpt><trkpt lat="42.288805107023" lon="14.275949189224084"><ele>201.33333333333334</ele><time>2026-05-01T09:06:35.999Z</time></trkpt><trkpt lat="42.288869869171045" lon="14.275931097815405"><ele>203.0</ele><time>2026-05-01T09:06:37.999Z</time></trkpt><trkpt lat="42.28893731639303" lon="14.275930651844634"><ele>203.0</ele><time>2026-05-01T09:06:53.999Z</time></trkpt><trkpt lat="42.288843616028004" lon="14.27594298362574"><ele>203.0</ele><time>2026-05-01T09:07:06.999Z</time></trkpt><trkpt lat="42.288741816513316" lon="14.275952182844682"><ele>203.0</ele><time>2026-05-01T09:07:08.999Z</time></trkpt><trkpt lat="42.28862075598423" lon="14.275698199476443"><ele>203.0</ele><time>2026-05-01T09:07:10.999Z</time></trkpt><trkpt lat="42.28856972088082" lon="14.275630942251045"><ele>205.60000000000002</ele><time>2026-05-01T09:07:11.999Z</time></trkpt><trkpt lat="42.28848615197186" lon="14.27555057441011"><ele>208.20000000000002</ele><time>2026-05-01T09:07:13.999Z</time></trkpt><trkpt lat="42.288383840490766" lon="14.27548309187123"><ele>210.8</ele><time>2026-05-01T09:07:15.999Z</time></trkpt><trkpt lat="42.28829140587861" lon="14.275442453105063"><ele>213.4</ele><time>2026-05-01T09:07:17.999Z</time></trkpt><trkpt lat="42.28818981750014" lon="14.275414670805201"><ele>216.0</ele><time>2026-05-01T09:07:19.998Z</time></trkpt><trkpt lat="42.28811714131829" lon="14.27543255035138"><ele>213.60000000000002</ele><time>2026-05-01T09:07:20.998Z</time></trkpt><trkpt lat="42.2880327229647" lon="14.27545476019842"><ele>211.20000000000002</ele><time>2026-05-01T09:07:21.998Z</time></trkpt><trkpt lat="42.28796217088589" lon="14.275475775705877"><ele>208.8</ele><time>2026-05-01T09:07:22.998Z</time></trkpt><trkpt lat="42.2878424471147" lon="14.27550834302763"><ele>206.39999999999998</ele><time>2026-05-01T09:07:24.998Z</time></trkpt><trkpt lat="42.287713447203465" lon="14.275528534296532"><ele>204.0</ele><time>2026-05-01T09:07:26.998Z</time></trkpt><trkpt lat="42.28760729205256" lon="14.275465150692888"><ele>204.0</ele><time>2026-05-01T09:07:28.998Z</time></trkpt><trkpt lat="42.287552147049944" lon="14.275408143687248"><ele>204.0</ele><time>2026-05-01T09:07:30.998Z</time></trkpt><trkpt lat="42.28751187266337" lon="14.27533816334796"><ele>204.0</ele><time>2026-05-01T09:07:33.998Z</time></trkpt><trkpt lat="42.28744870735711" lon="14.275182804373353"><ele>204.0</ele><time>2026-05-01T09:07:35.998Z</time></trkpt><trkpt lat="42.28741482145489" lon="14.275070555594004"><ele>204.0</ele><time>2026-05-01T09:07:36.998Z</time></trkpt><trkpt lat="42.28739014120565" lon="14.274957369589474"><ele>204.0</ele><time>2026-05-01T09:07:37.998Z</time></trkpt><trkpt lat="42.28735964678088" lon="14.274865025111648"><ele>204.0</ele><time>2026-05-01T09:07:38.998Z</time></trkpt><trkpt lat="42.28729751138382" lon="14.274790749052869"><ele>204.0</ele><time>2026-05-01T09:07:39.998Z</time></trkpt><trkpt lat="42.287243825197585" lon="14.274691361431788"><ele>204.0</ele><time>2026-05-01T09:07:41.998Z</time></trkpt><trkpt lat="42.2871658530398" lon="14.274666419358146"><ele>204.0</ele><time>2026-05-01T09:07:44.998Z</time></trkpt><trkpt lat="42.28709016296253" lon="14.274688962148124"><ele>204.0</ele><time>2026-05-01T09:07:47Z</time></trkpt><trkpt lat="42.286986544413374" lon="14.274726316454403"><ele>204.0</ele><time>2026-05-01T09:07:49Z</time></trkpt><trkpt lat="42.28689891033462" lon="14.274763061913433"><ele>203.5</ele><time>2026-05-01T09:07:51Z</time></trkpt><trkpt lat="42.28678611923662" lon="14.274793483069288"><ele>203.0</ele><time>2026-05-01T09:07:53Z</time></trkpt><trkpt lat="42.286701905081905" lon="14.274815927763084"><ele>202.5</ele><time>2026-05-01T09:07:54Z</time></trkpt><trkpt lat="42.28663532317846" lon="14.274850970742374"><ele>202.0</ele><time>2026-05-01T09:07:56Z</time></trkpt><trkpt lat="42.28655864453713" lon="14.27485860979399"><ele>201.5</ele><time>2026-05-01T09:08:00Z</time></trkpt><trkpt lat="42.28647480807966" lon="14.274826198681449"><ele>201.0</ele><time>2026-05-01T09:08:03Z</time></trkpt><trkpt lat="42.286389036409965" lon="14.274752160024537"><ele>201.0</ele><time>2026-05-01T09:08:06Z</time></trkpt><trkpt lat="42.28632064407745" lon="14.274681347995935"><ele>201.0</ele><time>2026-05-01T09:08:08Z</time></trkpt><trkpt lat="42.28625985619839" lon="14.274621409919147"><ele>201.0</ele><time>2026-05-01T09:08:10Z</time></trkpt><trkpt lat="42.286199393957126" lon="14.274562446935136"><ele>201.0</ele><time>2026-05-01T09:08:12Z</time></trkpt><trkpt lat="42.286151190271184" lon="14.274462612870144"><ele>201.0</ele><time>2026-05-01T09:08:14Z</time></trkpt><trkpt lat="42.286090849480836" lon="14.274332437660044"><ele>201.0</ele><time>2026-05-01T09:08:16Z</time></trkpt><trkpt lat="42.28605814880663" lon="14.274234754990163"><ele>201.0</ele><time>2026-05-01T09:08:18Z</time></trkpt><trkpt lat="42.286049364341594" lon="14.274118079592293"><ele>201.0</ele><time>2026-05-01T09:08:20Z</time></trkpt><trkpt lat="42.286075265203664" lon="14.2739864657668"><ele>201.0</ele><time>2026-05-01T09:08:22Z</time></trkpt><trkpt lat="42.28612099782135" lon="14.273879769316633"><ele>201.0</ele><time>2026-05-01T09:08:24Z</time></trkpt><trkpt lat="42.28616593738118" lon="14.273765357039137"><ele>201.0</ele><time>2026-05-01T09:08:26Z</time></trkpt><trkpt lat="42.28615030606738" lon="14.27363359314149"><ele>203.60000000000002</ele><time>2026-05-01T09:08:29Z</time></trkpt><trkpt lat="42.28612786783441" lon="14.27347074138532"><ele>206.2</ele><time>2026-05-01T09:08:31Z</time></trkpt><trkpt lat="42.286062856439735" lon="14.27334246998348"><ele>208.79999999999998</ele><time>2026-05-01T09:08:32.999Z</time></trkpt><trkpt lat="42.28600560117542" lon="14.273267551993458"><ele>211.39999999999998</ele><time>2026-05-01T09:08:33.999Z</time></trkpt><trkpt lat="42.28595294253637" lon="14.273208700456818"><ele>214.0</ele><time>2026-05-01T09:08:34.999Z</time></trkpt><trkpt lat="42.28589946627571" lon="14.273118411411252"><ele>213.49999999999997</ele><time>2026-05-01T09:08:35.999Z</time></trkpt><trkpt lat="42.28585220167179" lon="14.273058941595364"><ele>213.0</ele><time>2026-05-01T09:08:36.999Z</time></trkpt><trkpt lat="42.28576725059979" lon="14.272923855587791"><ele>212.5</ele><time>2026-05-01T09:08:38.999Z</time></trkpt><trkpt lat="42.28572220682725" lon="14.272858290155842"><ele>212.0</ele><time>2026-05-01T09:08:39.999Z</time></trkpt><trkpt lat="42.285673501275035" lon="14.272792182092145"><ele>211.49999999999997</ele><time>2026-05-01T09:08:40.999Z</time></trkpt><trkpt lat="42.285614567151356" lon="14.272742973155056"><ele>211.0</ele><time>2026-05-01T09:08:41.999Z</time></trkpt><trkpt lat="42.28550720625017" lon="14.272626068190537"><ele>210.99999999999997</ele><time>2026-05-01T09:08:43.999Z</time></trkpt><trkpt lat="42.28546853822567" lon="14.272552395342242"><ele>211.0</ele><time>2026-05-01T09:08:44.999Z</time></trkpt><trkpt lat="42.28543715879942" lon="14.272468939767522"><ele>211.0</ele><time>2026-05-01T09:08:45.999Z</time></trkpt><trkpt lat="42.28541893251178" lon="14.272367368252471"><ele>211.0</ele><time>2026-05-01T09:08:46.999Z</time></trkpt><trkpt lat="42.2853967101964" lon="14.27226793324732"><ele>210.99999999999997</ele><time>2026-05-01T09:08:47.999Z</time></trkpt><trkpt lat="42.285369456673315" lon="14.272165723364573"><ele>211.0</ele><time>2026-05-01T09:08:48.999Z</time></trkpt><trkpt lat="42.28534151003479" lon="14.272065565387356"><ele>213.4</ele><time>2026-05-01T09:08:49.999Z</time></trkpt><trkpt lat="42.285328634551675" lon="14.271953678512354"><ele>215.8</ele><time>2026-05-01T09:08:50.999Z</time></trkpt><trkpt lat="42.28532743071652" lon="14.271828247194112"><ele>218.20000000000002</ele><time>2026-05-01T09:08:51.999Z</time></trkpt><trkpt lat="42.2853223567389" lon="14.271689383959593"><ele>220.60000000000002</ele><time>2026-05-01T09:08:52.999Z</time></trkpt><trkpt lat="42.28532284315892" lon="14.271552700656098"><ele>223.0</ele><time>2026-05-01T09:08:53.999Z</time></trkpt><trkpt lat="42.285311957246684" lon="14.271408365159733"><ele>224.83333333333331</ele><time>2026-05-01T09:08:54.999Z</time></trkpt><trkpt lat="42.28530469577874" lon="14.27128996436168"><ele>226.66666666666666</ele><time>2026-05-01T09:08:55.999Z</time></trkpt><trkpt lat="42.285297772688864" lon="14.271174346484607"><ele>228.5</ele><time>2026-05-01T09:08:56.999Z</time></trkpt><trkpt lat="42.28530229489221" lon="14.271066648468766"><ele>230.33333333333331</ele><time>2026-05-01T09:08:57.999Z</time></trkpt><trkpt lat="42.285308504231814" lon="14.270980109344148"><ele>232.16666666666666</ele><time>2026-05-01T09:08:58.999Z</time></trkpt><trkpt lat="42.285340554805344" lon="14.270857365854985"><ele>234.0</ele><time>2026-05-01T09:08:59.999Z</time></trkpt><trkpt lat="42.28542598714002" lon="14.270753283887723"><ele>234.0</ele><time>2026-05-01T09:09:00.999Z</time></trkpt><trkpt lat="42.28547370193802" lon="14.270660822402597"><ele>233.99999999999997</ele><time>2026-05-01T09:09:01.999Z</time></trkpt><trkpt lat="42.28554370520953" lon="14.270582440971035"><ele>233.99999999999997</ele><time>2026-05-01T09:09:02.999Z</time></trkpt><trkpt lat="42.285425723019" lon="14.270472271166595"><ele>234.0</ele><time>2026-05-01T09:09:03.999Z</time></trkpt><trkpt lat="42.28536194488169" lon="14.270470282181106"><ele>234.0</ele><time>2026-05-01T09:09:07.999Z</time></trkpt><trkpt lat="42.28534117856175" lon="14.270320978258002"><ele>235.79999999999998</ele><time>2026-05-01T09:09:18.999Z</time></trkpt><trkpt lat="42.28535234061186" lon="14.270153886449467"><ele>237.59999999999997</ele><time>2026-05-01T09:09:20.999Z</time></trkpt><trkpt lat="42.28535952442392" lon="14.270056098311443"><ele>239.4</ele><time>2026-05-01T09:09:21.999Z</time></trkpt><trkpt lat="42.285360594916575" lon="14.269965403899008"><ele>241.2</ele><time>2026-05-01T09:09:22.999Z</time></trkpt><trkpt lat="42.28546112076026" lon="14.269845154970666"><ele>243.0</ele><time>2026-05-01T09:09:24.999Z</time></trkpt><trkpt lat="42.285434062648676" lon="14.269755333634086"><ele>244.33333333333334</ele><time>2026-05-01T09:09:25.999Z</time></trkpt><trkpt lat="42.28545621204041" lon="14.269639317591956"><ele>245.66666666666669</ele><time>2026-05-01T09:09:27.999Z</time></trkpt><trkpt lat="42.28548046226059" lon="14.269487201632419"><ele>247.0</ele><time>2026-05-01T09:09:29.998Z</time></trkpt><trkpt lat="42.285501117994556" lon="14.269382218772874"><ele>248.33333333333334</ele><time>2026-05-01T09:09:30.998Z</time></trkpt><trkpt lat="42.285518084013425" lon="14.269292320881913"><ele>249.66666666666669</ele><time>2026-05-01T09:09:31.998Z</time></trkpt><trkpt lat="42.28554396987364" lon="14.269208630622124"><ele>251.0</ele><time>2026-05-01T09:09:32.998Z</time></trkpt><trkpt lat="42.28557079926901" lon="14.26910585866713"><ele>255.20000000000002</ele><time>2026-05-01T09:09:33.998Z</time></trkpt><trkpt lat="42.28561219424591" lon="14.26900461199832"><ele>259.40000000000003</ele><time>2026-05-01T09:09:34.998Z</time></trkpt><trkpt lat="42.28560540188869" lon="14.268870660509318"><ele>263.6</ele><time>2026-05-01T09:09:35.998Z</time></trkpt><trkpt lat="42.285614262620314" lon="14.268730913391344"><ele>267.8</ele><time>2026-05-01T09:09:36.998Z</time></trkpt><trkpt lat="42.28562499308168" lon="14.268597024885544"><ele>272.0</ele><time>2026-05-01T09:09:37.998Z</time></trkpt><trkpt lat="42.285639165396056" lon="14.268472110784248"><ele>273.4</ele><time>2026-05-01T09:09:38.998Z</time></trkpt><trkpt lat="42.28564455893623" lon="14.268361740815775"><ele>274.79999999999995</ele><time>2026-05-01T09:09:39.998Z</time></trkpt><trkpt lat="42.28565257004333" lon="14.268266985898181"><ele>276.2</ele><time>2026-05-01T09:09:40.998Z</time></trkpt><trkpt lat="42.285666143592444" lon="14.268146997481436"><ele>277.59999999999997</ele><time>2026-05-01T09:09:42.998Z</time></trkpt><trkpt lat="42.28561343665247" lon="14.268035963925724"><ele>279.0</ele><time>2026-05-01T09:10:00Z</time></trkpt><trkpt lat="42.28555954046322" lon="14.267857086149975"><ele>279.0</ele><time>2026-05-01T09:10:02Z</time></trkpt><trkpt lat="42.28550422807813" lon="14.26773179831291"><ele>279.0</ele><time>2026-05-01T09:10:03Z</time></trkpt><trkpt lat="42.285430227564405" lon="14.26761729205152"><ele>279.0</ele><time>2026-05-01T09:10:04Z</time></trkpt><trkpt lat="42.285355102193265" lon="14.267495332152938"><ele>279.0</ele><time>2026-05-01T09:10:05Z</time></trkpt><trkpt lat="42.285273735726335" lon="14.267354526562777"><ele>280.2</ele><time>2026-05-01T09:10:06Z</time></trkpt><trkpt lat="42.2851938007732" lon="14.26720898432983"><ele>281.4</ele><time>2026-05-01T09:10:07Z</time></trkpt><trkpt lat="42.28511298595711" lon="14.26708727169634"><ele>282.6</ele><time>2026-05-01T09:10:08Z</time></trkpt><trkpt lat="42.28503813268613" lon="14.267005871931268"><ele>283.8</ele><time>2026-05-01T09:10:09Z</time></trkpt><trkpt lat="42.28495641778542" lon="14.26695452093205"><ele>285.0</ele><time>2026-05-01T09:10:10Z</time></trkpt><trkpt lat="42.2848884420003" lon="14.266889747941281"><ele>285.0</ele><time>2026-05-01T09:10:11Z</time></trkpt><trkpt lat="42.28478602474291" lon="14.266869037318934"><ele>285.0</ele><time>2026-05-01T09:10:13Z</time></trkpt><trkpt lat="42.28471927178456" lon="14.266839208977778"><ele>285.0</ele><time>2026-05-01T09:10:15Z</time></trkpt><trkpt lat="42.28475398390921" lon="14.266562288399102"><ele>285.0</ele><time>2026-05-01T09:10:16Z</time></trkpt><trkpt lat="42.284799503249005" lon="14.266467074829528"><ele>284.8</ele><time>2026-05-01T09:10:17Z</time></trkpt><trkpt lat="42.28484252690336" lon="14.266372237326657"><ele>284.6</ele><time>2026-05-01T09:10:18Z</time></trkpt><trkpt lat="42.28488823822016" lon="14.266280291647627"><ele>284.4</ele><time>2026-05-01T09:10:19Z</time></trkpt><trkpt lat="42.28493847067992" lon="14.266178129623444"><ele>284.2</ele><time>2026-05-01T09:10:20Z</time></trkpt><trkpt lat="42.28499352124163" lon="14.266082237720479"><ele>284.0</ele><time>2026-05-01T09:10:21Z</time></trkpt><trkpt lat="42.285050978827314" lon="14.26596036658963"><ele>284.0</ele><time>2026-05-01T09:10:22Z</time></trkpt><trkpt lat="42.285097449577286" lon="14.265845766628988"><ele>284.0</ele><time>2026-05-01T09:10:23Z</time></trkpt><trkpt lat="42.28515495889398" lon="14.265754801863343"><ele>284.0</ele><time>2026-05-01T09:10:24Z</time></trkpt><trkpt lat="42.285218177365756" lon="14.265665696893704"><ele>284.0</ele><time>2026-05-01T09:10:25Z</time></trkpt><trkpt lat="42.2852801100429" lon="14.265573478990552"><ele>284.0</ele><time>2026-05-01T09:10:26Z</time></trkpt><trkpt lat="42.28533647907373" lon="14.26547195891016"><ele>282.6666666666667</ele><time>2026-05-01T09:10:27Z</time></trkpt><trkpt lat="42.285390934331005" lon="14.265385122185238"><ele>281.33333333333337</ele><time>2026-05-01T09:10:28Z</time></trkpt><trkpt lat="42.28544939872823" lon="14.265295892795946"><ele>280.0</ele><time>2026-05-01T09:10:29Z</time></trkpt><trkpt lat="42.2855126171803" lon="14.265207298265237"><ele>278.6666666666667</ele><time>2026-05-01T09:10:30Z</time></trkpt><trkpt lat="42.28558942844048" lon="14.265135951896257"><ele>277.3333333333333</ele><time>2026-05-01T09:10:31Z</time></trkpt><trkpt lat="42.285671324720234" lon="14.265121526734136"><ele>276.0</ele><time>2026-05-01T09:10:32Z</time></trkpt><trkpt lat="42.28572723040983" lon="14.265061866100766"><ele>273.75</ele><time>2026-05-01T09:10:33Z</time></trkpt><trkpt lat="42.28577914789064" lon="14.2649396218944"><ele>271.5</ele><time>2026-05-01T09:10:35Z</time></trkpt><trkpt lat="42.285709315423766" lon="14.264815413977049"><ele>269.25</ele><time>2026-05-01T09:10:38Z</time></trkpt><trkpt lat="42.28569542449631" lon="14.264640181721335"><ele>267.0</ele><time>2026-05-01T09:10:38.999Z</time></trkpt><trkpt lat="42.28562039282849" lon="14.264479768519575"><ele>265.0</ele><time>2026-05-01T09:10:39.999Z</time></trkpt><trkpt lat="42.285533991583215" lon="14.264295010740371"><ele>263.0</ele><time>2026-05-01T09:10:40.999Z</time></trkpt><trkpt lat="42.2854551744625" lon="14.264103090633196"><ele>261.0</ele><time>2026-05-01T09:10:41.999Z</time></trkpt><trkpt lat="42.28536215410585" lon="14.263927779142628"><ele>260.5</ele><time>2026-05-01T09:10:42.999Z</time></trkpt><trkpt lat="42.28528296705959" lon="14.263742719427068"><ele>260.0</ele><time>2026-05-01T09:10:43.999Z</time></trkpt><trkpt lat="42.28521678257979" lon="14.263580979225717"><ele>259.5</ele><time>2026-05-01T09:10:44.999Z</time></trkpt><trkpt lat="42.28519386915497" lon="14.263431485047802"><ele>259.0</ele><time>2026-05-01T09:10:45.999Z</time></trkpt><trkpt lat="42.28522644134252" lon="14.263278933437183"><ele>259.0</ele><time>2026-05-01T09:10:46.999Z</time></trkpt><trkpt lat="42.285273883716535" lon="14.263116889252553"><ele>259.0</ele><time>2026-05-01T09:10:47.999Z</time></trkpt><trkpt lat="42.285314278289505" lon="14.262958666568675"><ele>259.0</ele><time>2026-05-01T09:10:48.999Z</time></trkpt><trkpt lat="42.285324631102824" lon="14.262802184018165"><ele>259.0</ele><time>2026-05-01T09:10:49.999Z</time></trkpt><trkpt lat="42.28529359209518" lon="14.26265215109611"><ele>257.66666666666663</ele><time>2026-05-01T09:10:50.999Z</time></trkpt><trkpt lat="42.285218304905314" lon="14.262488651403647"><ele>256.3333333333333</ele><time>2026-05-01T09:10:51.999Z</time></trkpt><trkpt lat="42.28511941062422" lon="14.26233451541146"><ele>255.0</ele><time>2026-05-01T09:10:52.999Z</time></trkpt><trkpt lat="42.285011006387464" lon="14.262158612193087"><ele>257.3333333333333</ele><time>2026-05-01T09:10:53.999Z</time></trkpt><trkpt lat="42.28491651569744" lon="14.261956184523717"><ele>259.66666666666663</ele><time>2026-05-01T09:10:54.999Z</time></trkpt><trkpt lat="42.284811593386245" lon="14.261784407288584"><ele>262.0</ele><time>2026-05-01T09:10:55.999Z</time></trkpt><trkpt lat="42.28472575555522" lon="14.261607458523986"><ele>259.0</ele><time>2026-05-01T09:10:56.999Z</time></trkpt><trkpt lat="42.28464060260551" lon="14.261439440088656"><ele>256.0</ele><time>2026-05-01T09:10:57.999Z</time></trkpt><trkpt lat="42.2845672756221" lon="14.26128462252104"><ele>253.0</ele><time>2026-05-01T09:10:58.999Z</time></trkpt><trkpt lat="42.28453242159389" lon="14.26112962892988"><ele>250.0</ele><time>2026-05-01T09:10:59.999Z</time></trkpt><trkpt lat="42.284513298116416" lon="14.26099236707522"><ele>250.0</ele><time>2026-05-01T09:11:00.999Z</time></trkpt><trkpt lat="42.284514505027886" lon="14.260851060482919"><ele>250.0</ele><time>2026-05-01T09:11:01.999Z</time></trkpt><trkpt lat="42.284578879032296" lon="14.260748415820244"><ele>250.0</ele><time>2026-05-01T09:11:02.999Z</time></trkpt><trkpt lat="42.28466565801852" lon="14.260709232861256"><ele>250.0</ele><time>2026-05-01T09:11:03.999Z</time></trkpt><trkpt lat="42.284785176706215" lon="14.260667928208887"><ele>250.0</ele><time>2026-05-01T09:11:04.999Z</time></trkpt><trkpt lat="42.28497563740863" lon="14.260629892245843"><ele>248.33333333333331</ele><time>2026-05-01T09:11:05.999Z</time></trkpt><trkpt lat="42.28515830070569" lon="14.260601236697864"><ele>246.66666666666669</ele><time>2026-05-01T09:11:06.999Z</time></trkpt><trkpt lat="42.28529918751721" lon="14.26059427180544"><ele>245.0</ele><time>2026-05-01T09:11:07.999Z</time></trkpt><trkpt lat="42.2854670779109" lon="14.260561961952007"><ele>248.66666666666669</ele><time>2026-05-01T09:11:08.999Z</time></trkpt><trkpt lat="42.28561545109235" lon="14.260551929061227"><ele>252.33333333333331</ele><time>2026-05-01T09:11:09.999Z</time></trkpt><trkpt lat="42.28577241928845" lon="14.260556883171231"><ele>256.0</ele><time>2026-05-01T09:11:10.999Z</time></trkpt><trkpt lat="42.2859241587691" lon="14.260589981681205"><ele>252.0</ele><time>2026-05-01T09:11:11.999Z</time></trkpt><trkpt lat="42.28606651671036" lon="14.26066932199004"><ele>248.0</ele><time>2026-05-01T09:11:12.999Z</time></trkpt><trkpt lat="42.286213227215306" lon="14.26071782287918"><ele>244.0</ele><time>2026-05-01T09:11:13.999Z</time></trkpt><trkpt lat="42.286364693183714" lon="14.260757631208751"><ele>245.0</ele><time>2026-05-01T09:11:14.999Z</time></trkpt><trkpt lat="42.28651924479092" lon="14.26077306804113"><ele>246.0</ele><time>2026-05-01T09:11:15.999Z</time></trkpt><trkpt lat="42.28665459974997" lon="14.260739222219014"><ele>247.0</ele><time>2026-05-01T09:11:16.999Z</time></trkpt><trkpt lat="42.28676370014313" lon="14.260679138356767"><ele>248.0</ele><time>2026-05-01T09:11:17.999Z</time></trkpt><trkpt lat="42.28684378013811" lon="14.260597596759265"><ele>251.0</ele><time>2026-05-01T09:11:18.999Z</time></trkpt><trkpt lat="42.28689612460614" lon="14.260490103073879"><ele>254.0</ele><time>2026-05-01T09:11:19.999Z</time></trkpt><trkpt lat="42.28692228277527" lon="14.26036497002757"><ele>257.0</ele><time>2026-05-01T09:11:20.999Z</time></trkpt><trkpt lat="42.286913678076225" lon="14.260219228498435"><ele>260.0</ele><time>2026-05-01T09:11:21.999Z</time></trkpt><trkpt lat="42.28686037075365" lon="14.260066752647155"><ele>263.0</ele><time>2026-05-01T09:11:22.999Z</time></trkpt><trkpt lat="42.28678711206348" lon="14.259903810324223"><ele>267.6666666666667</ele><time>2026-05-01T09:11:23.999Z</time></trkpt><trkpt lat="42.2867188632916" lon="14.25974741401473"><ele>272.3333333333333</ele><time>2026-05-01T09:11:24.999Z</time></trkpt><trkpt lat="42.28660343761723" lon="14.259614031794763"><ele>277.0</ele><time>2026-05-01T09:11:25.999Z</time></trkpt><trkpt lat="42.28644669686596" lon="14.259497981714023"><ele>274.0</ele><time>2026-05-01T09:11:26.999Z</time></trkpt><trkpt lat="42.28627417497865" lon="14.259395290358256"><ele>271.0</ele><time>2026-05-01T09:11:27.999Z</time></trkpt><trkpt lat="42.28611354222692" lon="14.25929242916323"><ele>268.0</ele><time>2026-05-01T09:11:28.999Z</time></trkpt><trkpt lat="42.285967568799094" lon="14.259183400438237"><ele>268.0</ele><time>2026-05-01T09:11:29.999Z</time></trkpt><trkpt lat="42.28583805041562" lon="14.259084841283933"><ele>268.0</ele><time>2026-05-01T09:11:30.999Z</time></trkpt><trkpt lat="42.285749638025514" lon="14.258934771419096"><ele>268.0</ele><time>2026-05-01T09:11:31.999Z</time></trkpt><trkpt lat="42.28567814285457" lon="14.258802003061385"><ele>268.0</ele><time>2026-05-01T09:11:32.999Z</time></trkpt><trkpt lat="42.285617169506736" lon="14.258696103505239"><ele>271.2</ele><time>2026-05-01T09:11:33.999Z</time></trkpt><trkpt lat="42.28561053362114" lon="14.258586746593618"><ele>274.4</ele><time>2026-05-01T09:11:34.998Z</time></trkpt><trkpt lat="42.28563809145835" lon="14.258475009665668"><ele>277.59999999999997</ele><time>2026-05-01T09:11:35.998Z</time></trkpt><trkpt lat="42.285704667121685" lon="14.258392555488168"><ele>280.8</ele><time>2026-05-01T09:11:36.998Z</time></trkpt><trkpt lat="42.285804854923015" lon="14.25835409714643"><ele>284.0</ele><time>2026-05-01T09:11:37.998Z</time></trkpt><trkpt lat="42.28591792437395" lon="14.258346355071888"><ele>284.0</ele><time>2026-05-01T09:11:38.998Z</time></trkpt><trkpt lat="42.28603346931669" lon="14.258396163154366"><ele>284.0</ele><time>2026-05-01T09:11:39.998Z</time></trkpt><trkpt lat="42.286158575328905" lon="14.258497246888616"><ele>284.0</ele><time>2026-05-01T09:11:40.998Z</time></trkpt><trkpt lat="42.28630077355012" lon="14.258633511145309"><ele>284.0</ele><time>2026-05-01T09:11:41.998Z</time></trkpt><trkpt lat="42.28645599222624" lon="14.258771635601706"><ele>285.33333333333337</ele><time>2026-05-01T09:11:42.998Z</time></trkpt><trkpt lat="42.28663014929093" lon="14.258888881184163"><ele>286.6666666666667</ele><time>2026-05-01T09:11:43.998Z</time></trkpt><trkpt lat="42.28685691572978" lon="14.25902128217567"><ele>288.0</ele><time>2026-05-01T09:11:44.998Z</time></trkpt><trkpt lat="42.287053184215395" lon="14.259138654578999"><ele>287.75</ele><time>2026-05-01T09:11:45.998Z</time></trkpt><trkpt lat="42.28720590186183" lon="14.25921567668071"><ele>287.5</ele><time>2026-05-01T09:11:46.998Z</time></trkpt><trkpt lat="42.28733474287704" lon="14.25928913612065"><ele>287.25</ele><time>2026-05-01T09:11:47.998Z</time></trkpt><trkpt lat="42.28744043660707" lon="14.259351200454697"><ele>287.0</ele><time>2026-05-01T09:11:48.998Z</time></trkpt><trkpt lat="42.2875545851092" lon="14.259397311795006"><ele>287.0</ele><time>2026-05-01T09:11:49.998Z</time></trkpt><trkpt lat="42.287653671973295" lon="14.259406771956055"><ele>287.0</ele><time>2026-05-01T09:11:50.998Z</time></trkpt><trkpt lat="42.28777564287027" lon="14.259384295698693"><ele>287.0</ele><time>2026-05-01T09:11:51.998Z</time></trkpt><trkpt lat="42.287896771612914" lon="14.259347252818314"><ele>287.0</ele><time>2026-05-01T09:11:52.998Z</time></trkpt><trkpt lat="42.28800217924284" lon="14.259290209849718"><ele>287.0</ele><time>2026-05-01T09:11:53.998Z</time></trkpt><trkpt lat="42.28809278204544" lon="14.259231222762942"><ele>287.0</ele><time>2026-05-01T09:11:54.998Z</time></trkpt><trkpt lat="42.28818976142123" lon="14.25915588587668"><ele>287.0</ele><time>2026-05-01T09:11:55.998Z</time></trkpt><trkpt lat="42.288281169742255" lon="14.259083476663006"><ele>287.0</ele><time>2026-05-01T09:11:56.998Z</time></trkpt><trkpt lat="42.28836447927197" lon="14.258999429648933"><ele>287.0</ele><time>2026-05-01T09:11:57.998Z</time></trkpt><trkpt lat="42.28843387448391" lon="14.258902342308089"><ele>289.0</ele><time>2026-05-01T09:11:59Z</time></trkpt><trkpt lat="42.28850627522705" lon="14.2588241593654"><ele>291.0</ele><time>2026-05-01T09:12:00Z</time></trkpt><trkpt lat="42.2885480887242" lon="14.258752874193977"><ele>293.0</ele><time>2026-05-01T09:12:01Z</time></trkpt><trkpt lat="42.288602807635634" lon="14.258687259056055"><ele>295.0</ele><time>2026-05-01T09:12:02Z</time></trkpt><trkpt lat="42.288676024740425" lon="14.258625725477087"><ele>297.0</ele><time>2026-05-01T09:12:03Z</time></trkpt><trkpt lat="42.28874805886923" lon="14.258541888768255"><ele>299.0</ele><time>2026-05-01T09:12:04Z</time></trkpt><trkpt lat="42.28882930672156" lon="14.258451127451549"><ele>299.0</ele><time>2026-05-01T09:12:05Z</time></trkpt><trkpt lat="42.28890839013738" lon="14.25834355103075"><ele>299.0</ele><time>2026-05-01T09:12:06Z</time></trkpt><trkpt lat="42.28896226244693" lon="14.258221495005984"><ele>299.0</ele><time>2026-05-01T09:12:07Z</time></trkpt><trkpt lat="42.28901079055799" lon="14.258140589566178"><ele>299.0</ele><time>2026-05-01T09:12:08Z</time></trkpt><trkpt lat="42.28909617159524" lon="14.258027258647857"><ele>299.0</ele><time>2026-05-01T09:12:10Z</time></trkpt><trkpt lat="42.28916177492894" lon="14.25797314196503"><ele>298.25</ele><time>2026-05-01T09:12:12Z</time></trkpt><trkpt lat="42.289100553057274" lon="14.25780552245298"><ele>297.5</ele><time>2026-05-01T09:12:15Z</time></trkpt><trkpt lat="42.28900582260126" lon="14.257746961945811"><ele>296.75</ele><time>2026-05-01T09:12:16Z</time></trkpt><trkpt lat="42.288888715729506" lon="14.257642296992111"><ele>296.0</ele><time>2026-05-01T09:12:17Z</time></trkpt><trkpt lat="42.28877759911389" lon="14.25750214523925"><ele>297.5</ele><time>2026-05-01T09:12:18Z</time></trkpt><trkpt lat="42.28865493305674" lon="14.257380763644306"><ele>299.0</ele><time>2026-05-01T09:12:19Z</time></trkpt><trkpt lat="42.28854392228684" lon="14.25725710002562"><ele>300.5</ele><time>2026-05-01T09:12:20Z</time></trkpt><trkpt lat="42.288434259286056" lon="14.257139696452557"><ele>302.0</ele><time>2026-05-01T09:12:21Z</time></trkpt><trkpt lat="42.288315071959566" lon="14.257043146138429"><ele>302.0</ele><time>2026-05-01T09:12:22Z</time></trkpt><trkpt lat="42.288175981803285" lon="14.256966617961455"><ele>302.0</ele><time>2026-05-01T09:12:23Z</time></trkpt><trkpt lat="42.28803261706891" lon="14.256898236212415"><ele>302.0</ele><time>2026-05-01T09:12:24Z</time></trkpt><trkpt lat="42.28788964495852" lon="14.256835619179197"><ele>303.0</ele><time>2026-05-01T09:12:25Z</time></trkpt><trkpt lat="42.28774653342461" lon="14.256763252577127"><ele>304.0</ele><time>2026-05-01T09:12:26Z</time></trkpt><trkpt lat="42.287593710490306" lon="14.256690570337787"><ele>305.0</ele><time>2026-05-01T09:12:27Z</time></trkpt><trkpt lat="42.28746470980934" lon="14.256622157430682"><ele>305.0</ele><time>2026-05-01T09:12:28Z</time></trkpt><trkpt lat="42.287339938655435" lon="14.256512379357208"><ele>305.0</ele><time>2026-05-01T09:12:29Z</time></trkpt><trkpt lat="42.28721031498562" lon="14.256394797939866"><ele>305.0</ele><time>2026-05-01T09:12:30Z</time></trkpt><trkpt lat="42.287078358988374" lon="14.25626434952586"><ele>306.6666666666667</ele><time>2026-05-01T09:12:31Z</time></trkpt><trkpt lat="42.286944565402614" lon="14.256132443034375"><ele>308.3333333333333</ele><time>2026-05-01T09:12:32Z</time></trkpt><trkpt lat="42.28680310152878" lon="14.256013349824732"><ele>310.0</ele><time>2026-05-01T09:12:33Z</time></trkpt><trkpt lat="42.286672477353825" lon="14.255878262918008"><ele>310.0</ele><time>2026-05-01T09:12:34Z</time></trkpt><trkpt lat="42.28653574602168" lon="14.255744995963475"><ele>310.0</ele><time>2026-05-01T09:12:35Z</time></trkpt><trkpt lat="42.286402532669136" lon="14.255614613659239"><ele>310.0</ele><time>2026-05-01T09:12:36Z</time></trkpt><trkpt lat="42.28626548046637" lon="14.255494206892484"><ele>311.0</ele><time>2026-05-01T09:12:37Z</time></trkpt><trkpt lat="42.28613810046308" lon="14.255357895828348"><ele>312.0</ele><time>2026-05-01T09:12:38Z</time></trkpt><trkpt lat="42.28600411724452" lon="14.255279631785863"><ele>313.0</ele><time>2026-05-01T09:12:39Z</time></trkpt><trkpt lat="42.28586289321908" lon="14.255186993156402"><ele>313.0</ele><time>2026-05-01T09:12:40Z</time></trkpt><trkpt lat="42.28572145431808" lon="14.255078670885366"><ele>313.0</ele><time>2026-05-01T09:12:40.999Z</time></trkpt><trkpt lat="42.285572771951585" lon="14.254981631485078"><ele>313.0</ele><time>2026-05-01T09:12:41.999Z</time></trkpt><trkpt lat="42.285428080035075" lon="14.254870100229525"><ele>313.3333333333333</ele><time>2026-05-01T09:12:42.999Z</time></trkpt><trkpt lat="42.28527070179641" lon="14.254763801335198"><ele>313.6666666666667</ele><time>2026-05-01T09:12:43.999Z</time></trkpt><trkpt lat="42.28513010216891" lon="14.254666465547228"><ele>314.0</ele><time>2026-05-01T09:12:44.999Z</time></trkpt><trkpt lat="42.28500317558293" lon="14.254550231692145"><ele>314.0</ele><time>2026-05-01T09:12:45.999Z</time></trkpt><trkpt lat="42.28485072417351" lon="14.254468827689772"><ele>314.0</ele><time>2026-05-01T09:12:46.999Z</time></trkpt><trkpt lat="42.284717155032475" lon="14.254374525082595"><ele>314.0</ele><time>2026-05-01T09:12:47.999Z</time></trkpt><trkpt lat="42.28459588843824" lon="14.254297389919522"><ele>314.0</ele><time>2026-05-01T09:12:48.999Z</time></trkpt><trkpt lat="42.28445397535102" lon="14.2541881354354"><ele>314.0</ele><time>2026-05-01T09:12:49.999Z</time></trkpt><trkpt lat="42.2842994769505" lon="14.254102436497716"><ele>314.0</ele><time>2026-05-01T09:12:50.999Z</time></trkpt><trkpt lat="42.28415096336588" lon="14.25403607514873"><ele>314.0</ele><time>2026-05-01T09:12:51.999Z</time></trkpt><trkpt lat="42.28402339992039" lon="14.253994305623346"><ele>314.0</ele><time>2026-05-01T09:12:52.999Z</time></trkpt><trkpt lat="42.283908864907055" lon="14.253932390029496"><ele>314.0</ele><time>2026-05-01T09:12:53.999Z</time></trkpt><trkpt lat="42.28380501309459" lon="14.253860764930806"><ele>314.0</ele><time>2026-05-01T09:12:54.999Z</time></trkpt><trkpt lat="42.28369716668124" lon="14.253791762924596"><ele>314.0</ele><time>2026-05-01T09:12:55.999Z</time></trkpt><trkpt lat="42.283570147198844" lon="14.253722673660274"><ele>314.0</ele><time>2026-05-01T09:12:56.999Z</time></trkpt><trkpt lat="42.283434189258315" lon="14.253646863970786"><ele>314.0</ele><time>2026-05-01T09:12:57.999Z</time></trkpt><trkpt lat="42.28329222054922" lon="14.253547269502992"><ele>314.0</ele><time>2026-05-01T09:12:58.999Z</time></trkpt><trkpt lat="42.283157840951084" lon="14.253467170536075"><ele>313.33333333333337</ele><time>2026-05-01T09:12:59.999Z</time></trkpt><trkpt lat="42.283035151689525" lon="14.253382112123278"><ele>312.6666666666667</ele><time>2026-05-01T09:13:00.999Z</time></trkpt><trkpt lat="42.28289389081293" lon="14.253317980258625"><ele>312.0</ele><time>2026-05-01T09:13:01.999Z</time></trkpt><trkpt lat="42.28274105976347" lon="14.253239725811506"><ele>312.0</ele><time>2026-05-01T09:13:02.999Z</time></trkpt><trkpt lat="42.28259084664118" lon="14.253156960473133"><ele>312.0</ele><time>2026-05-01T09:13:03.999Z</time></trkpt><trkpt lat="42.282440345894386" lon="14.253073502798316"><ele>312.0</ele><time>2026-05-01T09:13:04.999Z</time></trkpt><trkpt lat="42.28227661573701" lon="14.253005576160184"><ele>312.3333333333333</ele><time>2026-05-01T09:13:05.999Z</time></trkpt><trkpt lat="42.28211474336039" lon="14.252935888868564"><ele>312.66666666666663</ele><time>2026-05-01T09:13:06.999Z</time></trkpt><trkpt lat="42.281955989541046" lon="14.252881004557036"><ele>313.0</ele><time>2026-05-01T09:13:07.999Z</time></trkpt><trkpt lat="42.28180720603451" lon="14.252818419998881"><ele>313.0</ele><time>2026-05-01T09:13:08.999Z</time></trkpt><trkpt lat="42.281659342022806" lon="14.252754622694274"><ele>313.0</ele><time>2026-05-01T09:13:09.999Z</time></trkpt><trkpt lat="42.28151554249105" lon="14.252694448114674"><ele>313.0</ele><time>2026-05-01T09:13:10.999Z</time></trkpt><trkpt lat="42.28135654533443" lon="14.25263459413521"><ele>314.0</ele><time>2026-05-01T09:13:11.999Z</time></trkpt><trkpt lat="42.28119055047868" lon="14.252574800053763"><ele>315.0</ele><time>2026-05-01T09:13:12.999Z</time></trkpt><trkpt lat="42.28101928357235" lon="14.252504697923765"><ele>316.0</ele><time>2026-05-01T09:13:13.999Z</time></trkpt><trkpt lat="42.28085946043598" lon="14.252447763044469"><ele>316.0</ele><time>2026-05-01T09:13:14.999Z</time></trkpt><trkpt lat="42.28068286036498" lon="14.252377609593626"><ele>316.0</ele><time>2026-05-01T09:13:15.999Z</time></trkpt><trkpt lat="42.280507915944725" lon="14.252310495291734"><ele>316.0</ele><time>2026-05-01T09:13:16.999Z</time></trkpt><trkpt lat="42.28033441560735" lon="14.252228962949253"><ele>316.0</ele><time>2026-05-01T09:13:17.999Z</time></trkpt><trkpt lat="42.280156453571706" lon="14.252153219463853"><ele>316.0</ele><time>2026-05-01T09:13:18.999Z</time></trkpt><trkpt lat="42.279982872639984" lon="14.252072051415503"><ele>316.0</ele><time>2026-05-01T09:13:19.999Z</time></trkpt><trkpt lat="42.27981178067186" lon="14.251985783155723"><ele>317.0</ele><time>2026-05-01T09:13:20.999Z</time></trkpt><trkpt lat="42.279637212729085" lon="14.25189181540795"><ele>318.0</ele><time>2026-05-01T09:13:21.999Z</time></trkpt><trkpt lat="42.27946750657946" lon="14.251797768143172"><ele>319.0</ele><time>2026-05-01T09:13:22.999Z</time></trkpt><trkpt lat="42.27930182167909" lon="14.251704773411179"><ele>319.0</ele><time>2026-05-01T09:13:23.999Z</time></trkpt><trkpt lat="42.27913050225512" lon="14.251620048515068"><ele>319.0</ele><time>2026-05-01T09:13:24.999Z</time></trkpt><trkpt lat="42.27896350818119" lon="14.251520466718445"><ele>319.0</ele><time>2026-05-01T09:13:25.999Z</time></trkpt><trkpt lat="42.27878263749862" lon="14.251466586228624"><ele>320.3333333333333</ele><time>2026-05-01T09:13:26.999Z</time></trkpt><trkpt lat="42.27860740446364" lon="14.251398518865441"><ele>321.6666666666667</ele><time>2026-05-01T09:13:27.999Z</time></trkpt><trkpt lat="42.278427944057526" lon="14.251327375611169"><ele>323.0</ele><time>2026-05-01T09:13:28.999Z</time></trkpt><trkpt lat="42.27824940859889" lon="14.251251837949837"><ele>324.33333333333337</ele><time>2026-05-01T09:13:29.999Z</time></trkpt><trkpt lat="42.27806937639845" lon="14.251184974016203"><ele>325.6666666666667</ele><time>2026-05-01T09:13:30.999Z</time></trkpt><trkpt lat="42.27789951693419" lon="14.251120068136101"><ele>327.0</ele><time>2026-05-01T09:13:31.999Z</time></trkpt><trkpt lat="42.27774995023269" lon="14.251069578871467"><ele>327.0</ele><time>2026-05-01T09:13:32.999Z</time></trkpt><trkpt lat="42.277611625306164" lon="14.25102311572038"><ele>327.0</ele><time>2026-05-01T09:13:33.999Z</time></trkpt><trkpt lat="42.277483781804726" lon="14.250981696922114"><ele>327.0</ele><time>2026-05-01T09:13:34.999Z</time></trkpt><trkpt lat="42.27736716221246" lon="14.2509482169854"><ele>327.0</ele><time>2026-05-01T09:13:35.998Z</time></trkpt><trkpt lat="42.277263841872895" lon="14.250909857532985"><ele>327.8</ele><time>2026-05-01T09:13:36.998Z</time></trkpt><trkpt lat="42.277167689739414" lon="14.250884906530482"><ele>328.6</ele><time>2026-05-01T09:13:37.998Z</time></trkpt><trkpt lat="42.277070441074024" lon="14.250874394286228"><ele>329.40000000000003</ele><time>2026-05-01T09:13:38.998Z</time></trkpt><trkpt lat="42.27696859449198" lon="14.250870410756844"><ele>330.20000000000005</ele><time>2026-05-01T09:13:39.998Z</time></trkpt><trkpt lat="42.27687517102059" lon="14.250854443697941"><ele>331.0</ele><time>2026-05-01T09:13:40.998Z</time></trkpt><trkpt lat="42.27678939193042" lon="14.250842364781583"><ele>331.0</ele><time>2026-05-01T09:13:41.998Z</time></trkpt><trkpt lat="42.276728670101356" lon="14.25072619225734"><ele>331.0</ele><time>2026-05-01T09:13:42.998Z</time></trkpt><trkpt lat="42.27665083883689" lon="14.25065358699457"><ele>331.0</ele><time>2026-05-01T09:13:43.998Z</time></trkpt><trkpt lat="42.27657585014097" lon="14.250577880808141"><ele>331.0</ele><time>2026-05-01T09:13:44.998Z</time></trkpt><trkpt lat="42.2765041405343" lon="14.250501206222461"><ele>331.0</ele><time>2026-05-01T09:13:45.998Z</time></trkpt><trkpt lat="42.27643481574051" lon="14.250419687736647"><ele>330.6</ele><time>2026-05-01T09:13:46.998Z</time></trkpt><trkpt lat="42.27637743704742" lon="14.250339931458848"><ele>330.20000000000005</ele><time>2026-05-01T09:13:47.998Z</time></trkpt><trkpt lat="42.27631334936914" lon="14.250228515341217"><ele>329.79999999999995</ele><time>2026-05-01T09:13:48.998Z</time></trkpt><trkpt lat="42.27624201514019" lon="14.250092695147634"><ele>329.4</ele><time>2026-05-01T09:13:49.998Z</time></trkpt><trkpt lat="42.27617066455486" lon="14.249935834133217"><ele>329.0</ele><time>2026-05-01T09:13:50.998Z</time></trkpt><trkpt lat="42.27609587256237" lon="14.249817715975336"><ele>323.25</ele><time>2026-05-01T09:13:51.998Z</time></trkpt><trkpt lat="42.27602025879043" lon="14.249719705542127"><ele>317.5</ele><time>2026-05-01T09:13:52.998Z</time></trkpt><trkpt lat="42.27591537255441" lon="14.24965403970093"><ele>311.75</ele><time>2026-05-01T09:13:53.998Z</time></trkpt><trkpt lat="42.27577456187659" lon="14.249598679780151"><ele>306.0</ele><time>2026-05-01T09:13:54.998Z</time></trkpt><trkpt lat="42.275618462826195" lon="14.249525617928517"><ele>309.75</ele><time>2026-05-01T09:13:55.998Z</time></trkpt><trkpt lat="42.275488257095894" lon="14.249453595429268"><ele>313.5</ele><time>2026-05-01T09:13:56.998Z</time></trkpt><trkpt lat="42.27537568601336" lon="14.24936247937059"><ele>317.25</ele><time>2026-05-01T09:13:57.998Z</time></trkpt><trkpt lat="42.27527723537961" lon="14.249275233283289"><ele>321.0</ele><time>2026-05-01T09:13:58.998Z</time></trkpt><trkpt lat="42.27517803126164" lon="14.249184652661574"><ele>321.0</ele><time>2026-05-01T09:13:59.998Z</time></trkpt><trkpt lat="42.275049096374055" lon="14.249097329726203"><ele>321.0</ele><time>2026-05-01T09:14:00.998Z</time></trkpt><trkpt lat="42.27489260662307" lon="14.249013575107305"><ele>321.0</ele><time>2026-05-01T09:14:01.998Z</time></trkpt><trkpt lat="42.27470814239823" lon="14.248915738484683"><ele>312.6666666666667</ele><time>2026-05-01T09:14:02.998Z</time></trkpt><trkpt lat="42.27452322602454" lon="14.248823459255677"><ele>304.33333333333337</ele><time>2026-05-01T09:14:04Z</time></trkpt><trkpt lat="42.27432835276814" lon="14.248735655492041"><ele>296.0</ele><time>2026-05-01T09:14:05Z</time></trkpt><trkpt lat="42.27417454175867" lon="14.248671427128977"><ele>296.0</ele><time>2026-05-01T09:14:06Z</time></trkpt><trkpt lat="42.274016957095625" lon="14.248590704998254"><ele>296.0</ele><time>2026-05-01T09:14:07Z</time></trkpt><trkpt lat="42.27384931386796" lon="14.248489146224037"><ele>296.0</ele><time>2026-05-01T09:14:08Z</time></trkpt><trkpt lat="42.27367537282614" lon="14.248390617313914"><ele>300.0</ele><time>2026-05-01T09:14:09Z</time></trkpt><trkpt lat="42.27352670401643" lon="14.248274249515298"><ele>304.0</ele><time>2026-05-01T09:14:10Z</time></trkpt><trkpt lat="42.27339922750928" lon="14.248152950950814"><ele>308.0</ele><time>2026-05-01T09:14:11Z</time></trkpt><trkpt lat="42.2732884671597" lon="14.24802634362691"><ele>307.25</ele><time>2026-05-01T09:14:12Z</time></trkpt><trkpt lat="42.273209475155674" lon="14.247878531581277"><ele>306.5</ele><time>2026-05-01T09:14:13Z</time></trkpt><trkpt lat="42.27315016476466" lon="14.247738026832051"><ele>305.75</ele><time>2026-05-01T09:14:14Z</time></trkpt><trkpt lat="42.27310115939145" lon="14.247560611192583"><ele>305.0</ele><time>2026-05-01T09:14:15Z</time></trkpt><trkpt lat="42.27305227098818" lon="14.247333713292784"><ele>297.6666666666667</ele><time>2026-05-01T09:14:16Z</time></trkpt><trkpt lat="42.27300794474254" lon="14.247054813116279"><ele>290.3333333333333</ele><time>2026-05-01T09:14:17Z</time></trkpt><trkpt lat="42.272968568508006" lon="14.246800876515923"><ele>283.0</ele><time>2026-05-01T09:14:18Z</time></trkpt><trkpt lat="42.272917126289734" lon="14.246576004647618"><ele>280.75</ele><time>2026-05-01T09:14:19Z</time></trkpt><trkpt lat="42.272890428075925" lon="14.246352846178828"><ele>278.5</ele><time>2026-05-01T09:14:20Z</time></trkpt><trkpt lat="42.272861458864455" lon="14.246202111813199"><ele>276.25</ele><time>2026-05-01T09:14:21Z</time></trkpt><trkpt lat="42.27287625123915" lon="14.246072031782173"><ele>274.0</ele><time>2026-05-01T09:14:22Z</time></trkpt><trkpt lat="42.27279802290037" lon="14.245949722582555"><ele>274.0</ele><time>2026-05-01T09:14:23Z</time></trkpt><trkpt lat="42.27273264231773" lon="14.245799811237339"><ele>274.0</ele><time>2026-05-01T09:14:24Z</time></trkpt><trkpt lat="42.27262751428252" lon="14.245614868012506"><ele>274.0</ele><time>2026-05-01T09:14:25Z</time></trkpt><trkpt lat="42.27249287484153" lon="14.245421609615637"><ele>274.3333333333333</ele><time>2026-05-01T09:14:26Z</time></trkpt><trkpt lat="42.27239164854061" lon="14.245183631826801"><ele>274.6666666666667</ele><time>2026-05-01T09:14:27Z</time></trkpt><trkpt lat="42.27227939907323" lon="14.244954806041493"><ele>275.0</ele><time>2026-05-01T09:14:28Z</time></trkpt><trkpt lat="42.27215825031983" lon="14.244755541646258"><ele>277.5</ele><time>2026-05-01T09:14:29Z</time></trkpt><trkpt lat="42.27206284586701" lon="14.244581783000216"><ele>280.0</ele><time>2026-05-01T09:14:30Z</time></trkpt><trkpt lat="42.271944198871" lon="14.244458677669375"><ele>282.5</ele><time>2026-05-01T09:14:31Z</time></trkpt><trkpt lat="42.27183777190621" lon="14.24437202237513"><ele>285.0</ele><time>2026-05-01T09:14:32Z</time></trkpt><trkpt lat="42.27173139363693" lon="14.244325107711294"><ele>285.0</ele><time>2026-05-01T09:14:33Z</time></trkpt><trkpt lat="42.27159770815643" lon="14.244296226319264"><ele>285.0</ele><time>2026-05-01T09:14:34Z</time></trkpt><trkpt lat="42.27142991915447" lon="14.244273854230386"><ele>285.0</ele><time>2026-05-01T09:14:35Z</time></trkpt><trkpt lat="42.27128489592065" lon="14.244249463472224"><ele>284.0</ele><time>2026-05-01T09:14:36Z</time></trkpt><trkpt lat="42.271195195163145" lon="14.244165303937427"><ele>283.0</ele><time>2026-05-01T09:14:37Z</time></trkpt><trkpt lat="42.27107706788844" lon="14.244072453343753"><ele>282.0</ele><time>2026-05-01T09:14:38Z</time></trkpt><trkpt lat="42.270924522993276" lon="14.243951616522486"><ele>281.0</ele><time>2026-05-01T09:14:39Z</time></trkpt><trkpt lat="42.27076577834417" lon="14.243834697523516"><ele>282.75</ele><time>2026-05-01T09:14:40Z</time></trkpt><trkpt lat="42.27063277085897" lon="14.243753165402564"><ele>284.5</ele><time>2026-05-01T09:14:41Z</time></trkpt><trkpt lat="42.270524616607766" lon="14.243652840758704"><ele>286.25</ele><time>2026-05-01T09:14:42Z</time></trkpt><trkpt lat="42.270433291870994" lon="14.243509694560954"><ele>288.0</ele><time>2026-05-01T09:14:42.999Z</time></trkpt><trkpt lat="42.27032633951276" lon="14.243374291778949"><ele>288.0</ele><time>2026-05-01T09:14:43.999Z</time></trkpt><trkpt lat="42.27020676753166" lon="14.243253892046107"><ele>288.0</ele><time>2026-05-01T09:14:44.999Z</time></trkpt><trkpt lat="42.27009832357396" lon="14.243124954192773"><ele>288.0</ele><time>2026-05-01T09:14:45.999Z</time></trkpt><trkpt lat="42.26998831811031" lon="14.243007903977857"><ele>288.0</ele><time>2026-05-01T09:14:46.999Z</time></trkpt><trkpt lat="42.269877443957895" lon="14.242900821157226"><ele>289.25</ele><time>2026-05-01T09:14:47.999Z</time></trkpt><trkpt lat="42.269776876316705" lon="14.242809150767547"><ele>290.5</ele><time>2026-05-01T09:14:48.999Z</time></trkpt><trkpt lat="42.26967990158949" lon="14.242696230014118"><ele>291.75</ele><time>2026-05-01T09:14:49.999Z</time></trkpt><trkpt lat="42.269569911057836" lon="14.242597861710692"><ele>293.0</ele><time>2026-05-01T09:14:50.999Z</time></trkpt><trkpt lat="42.26945888152448" lon="14.242499666015313"><ele>293.0</ele><time>2026-05-01T09:14:51.999Z</time></trkpt><trkpt lat="42.2693707322493" lon="14.242395006011707"><ele>293.0</ele><time>2026-05-01T09:14:52.999Z</time></trkpt><trkpt lat="42.269277239478946" lon="14.242311994001074"><ele>293.0</ele><time>2026-05-01T09:14:53.999Z</time></trkpt><trkpt lat="42.269187565391206" lon="14.24221951428538"><ele>293.0</ele><time>2026-05-01T09:14:54.999Z</time></trkpt><trkpt lat="42.26909399288087" lon="14.242092260214392"><ele>295.0</ele><time>2026-05-01T09:14:55.999Z</time></trkpt><trkpt lat="42.269016922276606" lon="14.241930468396017"><ele>297.0</ele><time>2026-05-01T09:14:56.999Z</time></trkpt><trkpt lat="42.26895190371916" lon="14.241769249325968"><ele>299.0</ele><time>2026-05-01T09:14:57.999Z</time></trkpt><trkpt lat="42.26889078888194" lon="14.241649720011415"><ele>301.0</ele><time>2026-05-01T09:14:58.999Z</time></trkpt><trkpt lat="42.26886656808298" lon="14.241551177391786"><ele>305.0</ele><time>2026-05-01T09:14:59.999Z</time></trkpt><trkpt lat="42.26882291943939" lon="14.24143881775796"><ele>309.0</ele><time>2026-05-01T09:15:01.999Z</time></trkpt><trkpt lat="42.26876647841603" lon="14.2413292398315"><ele>313.0</ele><time>2026-05-01T09:15:03.999Z</time></trkpt><trkpt lat="42.268464617336974" lon="14.241447456635715"><ele>313.0</ele><time>2026-05-01T09:15:04.999Z</time></trkpt><trkpt lat="42.268368843728105" lon="14.241413888397272"><ele>313.0</ele><time>2026-05-01T09:15:05.999Z</time></trkpt><trkpt lat="42.268263313684315" lon="14.241381131965452"><ele>313.0</ele><time>2026-05-01T09:15:06.999Z</time></trkpt><trkpt lat="42.26818239952226" lon="14.241340794857269"><ele>313.0</ele><time>2026-05-01T09:15:07.999Z</time></trkpt><trkpt lat="42.26808230533741" lon="14.24129095447144"><ele>313.0</ele><time>2026-05-01T09:15:08.999Z</time></trkpt><trkpt lat="42.2680007231702" lon="14.241221113361185"><ele>312.5</ele><time>2026-05-01T09:15:09.999Z</time></trkpt><trkpt lat="42.26793427985696" lon="14.241156620833825"><ele>312.0</ele><time>2026-05-01T09:15:10.999Z</time></trkpt><trkpt lat="42.26783973625967" lon="14.241076106913779"><ele>311.5</ele><time>2026-05-01T09:15:12.999Z</time></trkpt><trkpt lat="42.26778497056338" lon="14.241020027637108"><ele>311.0</ele><time>2026-05-01T09:15:13.999Z</time></trkpt><trkpt lat="42.26770834347477" lon="14.240925647922126"><ele>310.5</ele><time>2026-05-01T09:15:15.999Z</time></trkpt><trkpt lat="42.26767083206748" lon="14.240852608301513"><ele>310.0</ele><time>2026-05-01T09:15:16.999Z</time></trkpt><trkpt lat="42.26762015331651" lon="14.240766146734492"><ele>310.0</ele><time>2026-05-01T09:15:17.999Z</time></trkpt><trkpt lat="42.267559654314645" lon="14.240687042368005"><ele>310.0</ele><time>2026-05-01T09:15:18.999Z</time></trkpt><trkpt lat="42.2675333841919" lon="14.240608727303723"><ele>310.0</ele><time>2026-05-01T09:15:19.999Z</time></trkpt><trkpt lat="42.26751301608272" lon="14.240525471917993"><ele>310.0</ele><time>2026-05-01T09:15:20.999Z</time></trkpt><trkpt lat="42.26747962733459" lon="14.240424080811483"><ele>310.0</ele><time>2026-05-01T09:15:21.999Z</time></trkpt><trkpt lat="42.2674435997839" lon="14.24033015582807"><ele>310.0</ele><time>2026-05-01T09:15:22.999Z</time></trkpt><trkpt lat="42.26740565746627" lon="14.240245003895227"><ele>310.0</ele><time>2026-05-01T09:15:23.999Z</time></trkpt><trkpt lat="42.267360083799225" lon="14.240174172095816"><ele>311.0</ele><time>2026-05-01T09:15:24.999Z</time></trkpt><trkpt lat="42.26731204089153" lon="14.240109162921277"><ele>312.0</ele><time>2026-05-01T09:15:25.999Z</time></trkpt><trkpt lat="42.26725993910319" lon="14.23997780644911"><ele>313.0</ele><time>2026-05-01T09:15:27.999Z</time></trkpt><trkpt lat="42.26722819976688" lon="14.239833134486"><ele>314.0</ele><time>2026-05-01T09:15:29.999Z</time></trkpt><trkpt lat="42.267211524472955" lon="14.239711771618369"><ele>315.0</ele><time>2026-05-01T09:15:31.999Z</time></trkpt><trkpt lat="42.267191894136715" lon="14.239569931338858"><ele>318.2</ele><time>2026-05-01T09:15:33.999Z</time></trkpt><trkpt lat="42.26717389214049" lon="14.23941674130838"><ele>321.4</ele><time>2026-05-01T09:15:35.999Z</time></trkpt><trkpt lat="42.26713549903975" lon="14.239273841943765"><ele>324.6</ele><time>2026-05-01T09:15:37.998Z</time></trkpt><trkpt lat="42.26709687300359" lon="14.239136392717425"><ele>327.8</ele><time>2026-05-01T09:15:39.998Z</time></trkpt><trkpt lat="42.26706511167524" lon="14.239027349440429"><ele>331.0</ele><time>2026-05-01T09:15:41.998Z</time></trkpt><trkpt lat="42.26700036064027" lon="14.238957369147723"><ele>331.16666666666663</ele><time>2026-05-01T09:15:43.998Z</time></trkpt><trkpt lat="42.266934444360906" lon="14.238901839931856"><ele>331.3333333333333</ele><time>2026-05-01T09:15:46.998Z</time></trkpt><trkpt lat="42.26685831089337" lon="14.238832422699844"><ele>331.5</ele><time>2026-05-01T09:15:49.998Z</time></trkpt><trkpt lat="42.26677838545329" lon="14.238781350941187"><ele>331.6666666666667</ele><time>2026-05-01T09:15:51.998Z</time></trkpt><trkpt lat="42.266697020611865" lon="14.238705728417811"><ele>331.83333333333337</ele><time>2026-05-01T09:15:55.998Z</time></trkpt><trkpt lat="42.2666524960399" lon="14.238634589946816"><ele>332.0</ele><time>2026-05-01T09:15:57.998Z</time></trkpt><trkpt lat="42.2666088713035" lon="14.238567093493144"><ele>332.0</ele><time>2026-05-01T09:16:01.998Z</time></trkpt><trkpt lat="42.266552795123566" lon="14.23850812212883"><ele>332.0</ele><time>2026-05-01T09:16:16Z</time></trkpt><trkpt lat="42.266498685938615" lon="14.238459784721956"><ele>332.0</ele><time>2026-05-01T09:16:19Z</time></trkpt><trkpt lat="42.26648509299291" lon="14.23837542009733"><ele>332.0</ele><time>2026-05-01T09:16:26Z</time></trkpt><trkpt lat="42.2664206252684" lon="14.23835652830865"><ele>332.0</ele><time>2026-05-01T09:16:44Z</time></trkpt><trkpt lat="42.26638657464569" lon="14.23827048480098"><ele>332.0</ele><time>2026-05-01T09:16:51Z</time></trkpt><trkpt lat="42.26632426511393" lon="14.238217505453296"><ele>332.0</ele><time>2026-05-01T09:16:54Z</time></trkpt><trkpt lat="42.26626919890148" lon="14.238141322388861"><ele>332.83333333333337</ele><time>2026-05-01T09:16:56.999Z</time></trkpt><trkpt lat="42.266205864209056" lon="14.238076235602325"><ele>333.6666666666667</ele><time>2026-05-01T09:16:58.999Z</time></trkpt><trkpt lat="42.26612901208186" lon="14.238003305493956"><ele>334.5</ele><time>2026-05-01T09:17:00.999Z</time></trkpt><trkpt lat="42.266046467096125" lon="14.237941065882042"><ele>335.3333333333333</ele><time>2026-05-01T09:17:02.999Z</time></trkpt><trkpt lat="42.265970264116646" lon="14.237889369124584"><ele>336.16666666666663</ele><time>2026-05-01T09:17:04.999Z</time></trkpt><trkpt lat="42.265887990723705" lon="14.237835237540532"><ele>337.0</ele><time>2026-05-01T09:17:06.999Z</time></trkpt><trkpt lat="42.26578934363283" lon="14.237764671283834"><ele>337.0</ele><time>2026-05-01T09:17:09.999Z</time></trkpt><trkpt lat="42.26571191454397" lon="14.237699584038197"><ele>337.0</ele><time>2026-05-01T09:17:11.999Z</time></trkpt><trkpt lat="42.265644224716866" lon="14.237626381658831"><ele>337.0</ele><time>2026-05-01T09:17:13.999Z</time></trkpt><trkpt lat="42.26558370823651" lon="14.237535559038383"><ele>337.0</ele><time>2026-05-01T09:17:15.999Z</time></trkpt><trkpt lat="42.265524664568595" lon="14.237431446170124"><ele>337.0</ele><time>2026-05-01T09:17:17.999Z</time></trkpt><trkpt lat="42.265489190533536" lon="14.237359384777763"><ele>337.0</ele><time>2026-05-01T09:17:18.999Z</time></trkpt><trkpt lat="42.26545325087595" lon="14.237277886441516"><ele>339.0</ele><time>2026-05-01T09:17:19.999Z</time></trkpt><trkpt lat="42.26540115854485" lon="14.237146090512045"><ele>341.0</ele><time>2026-05-01T09:17:21.999Z</time></trkpt><trkpt lat="42.26534319558314" lon="14.236990206875603"><ele>343.0</ele><time>2026-05-01T09:17:23.999Z</time></trkpt><trkpt lat="42.26530975177853" lon="14.236911866437639"><ele>345.0</ele><time>2026-05-01T09:17:24.999Z</time></trkpt><trkpt lat="42.265276092101566" lon="14.2368324409295"><ele>347.0</ele><time>2026-05-01T09:17:25.999Z</time></trkpt><trkpt lat="42.265225182727896" lon="14.236704298263852"><ele>347.0</ele><time>2026-05-01T09:17:27.999Z</time></trkpt><trkpt lat="42.26517592306373" lon="14.236594054991562"><ele>347.0</ele><time>2026-05-01T09:17:29.999Z</time></trkpt><trkpt lat="42.265106320658795" lon="14.236456037124787"><ele>347.0</ele><time>2026-05-01T09:17:31.999Z</time></trkpt><trkpt lat="42.26505318192029" lon="14.236330070154322"><ele>347.0</ele><time>2026-05-01T09:17:33.999Z</time></trkpt><trkpt lat="42.26497987880834" lon="14.236201006593763"><ele>347.0</ele><time>2026-05-01T09:17:35.999Z</time></trkpt><trkpt lat="42.264899483481265" lon="14.236106994103155"><ele>346.33333333333337</ele><time>2026-05-01T09:17:37.999Z</time></trkpt><trkpt lat="42.26481529374926" lon="14.236046564239734"><ele>345.6666666666667</ele><time>2026-05-01T09:17:39.999Z</time></trkpt><trkpt lat="42.26474998913532" lon="14.236031973157516"><ele>345.0</ele><time>2026-05-01T09:17:41.999Z</time></trkpt><trkpt lat="42.264682939709175" lon="14.236055346689595"><ele>344.3333333333333</ele><time>2026-05-01T09:17:43.999Z</time></trkpt><trkpt lat="42.26461985156462" lon="14.236134184129059"><ele>343.66666666666663</ele><time>2026-05-01T09:17:45.999Z</time></trkpt><trkpt lat="42.264550591744424" lon="14.236181839539999"><ele>343.0</ele><time>2026-05-01T09:17:46.999Z</time></trkpt><trkpt lat="42.26448323974564" lon="14.236250764061149"><ele>344.2</ele><time>2026-05-01T09:17:47.999Z</time></trkpt><trkpt lat="42.26441401840984" lon="14.236325470608742"><ele>345.4</ele><time>2026-05-01T09:17:48.999Z</time></trkpt><trkpt lat="42.26434175431612" lon="14.236403029421238"><ele>346.59999999999997</ele><time>2026-05-01T09:17:49.999Z</time></trkpt><trkpt lat="42.26426867146642" lon="14.236488230364118"><ele>347.79999999999995</ele><time>2026-05-01T09:17:50.998Z</time></trkpt><trkpt lat="42.26417763964408" lon="14.236507792660824"><ele>349.0</ele><time>2026-05-01T09:17:51.998Z</time></trkpt><trkpt lat="42.26408388292657" lon="14.236538293716793"><ele>349.0</ele><time>2026-05-01T09:17:52.998Z</time></trkpt><trkpt lat="42.264025440693715" lon="14.236581586628551"><ele>349.0</ele><time>2026-05-01T09:17:53.998Z</time></trkpt><trkpt lat="42.2639487857374" lon="14.236649388535836"><ele>349.0</ele><time>2026-05-01T09:17:54.998Z</time></trkpt><trkpt lat="42.26389213883624" lon="14.236707872505326"><ele>349.0</ele><time>2026-05-01T09:17:55.998Z</time></trkpt><trkpt lat="42.26379535221787" lon="14.236766938254073"><ele>349.0</ele><time>2026-05-01T09:17:57.998Z</time></trkpt><trkpt lat="42.26368710413458" lon="14.236771827496547"><ele>349.0</ele><time>2026-05-01T09:17:59.998Z</time></trkpt><trkpt lat="42.263589315641866" lon="14.23676596579006"><ele>348.3333333333333</ele><time>2026-05-01T09:18:00.998Z</time></trkpt><trkpt lat="42.26351018738205" lon="14.236721570950742"><ele>347.66666666666663</ele><time>2026-05-01T09:18:01.998Z</time></trkpt><trkpt lat="42.2634456833379" lon="14.236686958231058"><ele>347.0</ele><time>2026-05-01T09:18:02.998Z</time></trkpt><trkpt lat="42.26335465470063" lon="14.236682955164396"><ele>346.3333333333333</ele><time>2026-05-01T09:18:04.998Z</time></trkpt><trkpt lat="42.263250088511" lon="14.236723844516872"><ele>345.6666666666667</ele><time>2026-05-01T09:18:31Z</time></trkpt><trkpt lat="42.263175668873174" lon="14.236759581848453"><ele>345.0</ele><time>2026-05-01T09:18:32Z</time></trkpt><trkpt lat="42.263096194134405" lon="14.236803087741267"><ele>344.7142857142857</ele><time>2026-05-01T09:18:33Z</time></trkpt><trkpt lat="42.263013689047135" lon="14.236857859449948"><ele>344.42857142857144</ele><time>2026-05-01T09:18:34Z</time></trkpt><trkpt lat="42.26292752026138" lon="14.236914889551054"><ele>344.1428571428571</ele><time>2026-05-01T09:18:35Z</time></trkpt><trkpt lat="42.26282740713467" lon="14.236961811817014"><ele>343.8571428571429</ele><time>2026-05-01T09:18:36Z</time></trkpt><trkpt lat="42.26272784264094" lon="14.237004689736878"><ele>343.57142857142856</ele><time>2026-05-01T09:18:37Z</time></trkpt><trkpt lat="42.26272784264094" lon="14.237004689736878"><ele>343.2857142857143</ele><time>2026-05-01T09:18:37Z</time></trkpt><trkpt lat="42.26272784264094" lon="14.237004689736878"><ele>343.0</ele><time>2026-05-01T09:18:37Z</time></trkpt><trkpt lat="42.26246932792872" lon="14.237102961349475"><ele>343.0</ele><time>2026-05-01T09:18:41Z</time></trkpt><trkpt lat="42.2623867309208" lon="14.237129862135165"><ele>343.0</ele><time>2026-05-01T09:18:43Z</time></trkpt><trkpt lat="42.26225705495235" lon="14.237146851824605"><ele>343.0</ele><time>2026-05-01T09:18:45Z</time></trkpt><trkpt lat="42.26214509426636" lon="14.237162861754443"><ele>343.0</ele><time>2026-05-01T09:18:47Z</time></trkpt><trkpt lat="42.262017281724404" lon="14.23716575056741"><ele>341.66666666666663</ele><time>2026-05-01T09:18:49Z</time></trkpt><trkpt lat="42.26192948714364" lon="14.237172091884355"><ele>340.3333333333333</ele><time>2026-05-01T09:18:50Z</time></trkpt><trkpt lat="42.26184829199141" lon="14.237192018012173"><ele>339.0</ele><time>2026-05-01T09:18:51Z</time></trkpt><trkpt lat="42.26175990000139" lon="14.237222378047354"><ele>337.6666666666667</ele><time>2026-05-01T09:18:52Z</time></trkpt><trkpt lat="42.26168513737135" lon="14.237249996658575"><ele>336.33333333333337</ele><time>2026-05-01T09:18:53Z</time></trkpt><trkpt lat="42.26161393794006" lon="14.237281883017381"><ele>335.0</ele><time>2026-05-01T09:18:54Z</time></trkpt><trkpt lat="42.26151115555048" lon="14.237340473510379"><ele>338.5</ele><time>2026-05-01T09:18:56Z</time></trkpt><trkpt lat="42.261396256186" lon="14.237401825587856"><ele>342.0</ele><time>2026-05-01T09:18:58Z</time></trkpt><trkpt lat="42.261281019847864" lon="14.237465938263878"><ele>345.5</ele><time>2026-05-01T09:19:00Z</time></trkpt><trkpt lat="42.261170909676494" lon="14.237533244975422"><ele>349.0</ele><time>2026-05-01T09:19:01.999Z</time></trkpt><trkpt lat="42.26106867629313" lon="14.237571307140788"><ele>349.0</ele><time>2026-05-01T09:19:03.999Z</time></trkpt><trkpt lat="42.26101872458102" lon="14.237644244509118"><ele>349.0</ele><time>2026-05-01T09:19:04.999Z</time></trkpt><trkpt lat="42.26096444199898" lon="14.237743923713639"><ele>349.0</ele><time>2026-05-01T09:19:05.999Z</time></trkpt><trkpt lat="42.26091684217794" lon="14.237836681801515"><ele>349.0</ele><time>2026-05-01T09:19:06.999Z</time></trkpt><trkpt lat="42.26087480717499" lon="14.237953556498603"><ele>349.0</ele><time>2026-05-01T09:19:07.999Z</time></trkpt><trkpt lat="42.260824477617284" lon="14.238049743473548"><ele>349.0</ele><time>2026-05-01T09:19:08.999Z</time></trkpt><trkpt lat="42.26078065593424" lon="14.238148762297062"><ele>349.16666666666663</ele><time>2026-05-01T09:19:09.999Z</time></trkpt><trkpt lat="42.26074410534955" lon="14.238238378777432"><ele>349.3333333333333</ele><time>2026-05-01T09:19:10.999Z</time></trkpt><trkpt lat="42.26071000191646" lon="14.238315528970332"><ele>349.5</ele><time>2026-05-01T09:19:11.999Z</time></trkpt><trkpt lat="42.26068183267235" lon="14.2384008383943"><ele>349.6666666666667</ele><time>2026-05-01T09:19:12.999Z</time></trkpt><trkpt lat="42.26062188143814" lon="14.238554478064396"><ele>349.83333333333337</ele><time>2026-05-01T09:19:14.999Z</time></trkpt><trkpt lat="42.26057994595771" lon="14.238667269163168"><ele>350.0</ele><time>2026-05-01T09:19:15.999Z</time></trkpt><trkpt lat="42.260536894231144" lon="14.238773703392908"><ele>350.0</ele><time>2026-05-01T09:19:16.999Z</time></trkpt><trkpt lat="42.26049268756526" lon="14.238868619608688"><ele>350.0</ele><time>2026-05-01T09:19:17.999Z</time></trkpt><trkpt lat="42.26043116410786" lon="14.238933057018489"><ele>350.0</ele><time>2026-05-01T09:19:18.999Z</time></trkpt><trkpt lat="42.26036399904189" lon="14.23898863692396"><ele>350.0</ele><time>2026-05-01T09:19:19.999Z</time></trkpt><trkpt lat="42.260295520553655" lon="14.239073518502058"><ele>350.0</ele><time>2026-05-01T09:19:20.999Z</time></trkpt><trkpt lat="42.26021022885551" lon="14.23913798206705"><ele>350.0</ele><time>2026-05-01T09:19:21.999Z</time></trkpt><trkpt lat="42.26013724821131" lon="14.239201111680664"><ele>351.0</ele><time>2026-05-01T09:19:22.999Z</time></trkpt><trkpt lat="42.26006776146997" lon="14.239219134716935"><ele>352.0</ele><time>2026-05-01T09:19:23.999Z</time></trkpt><trkpt lat="42.260005340255674" lon="14.23923117147467"><ele>353.0</ele><time>2026-05-01T09:19:24.999Z</time></trkpt><trkpt lat="42.25987908636441" lon="14.239214309865126"><ele>354.0</ele><time>2026-05-01T09:19:26.999Z</time></trkpt><trkpt lat="42.259801467729304" lon="14.239206069948159"><ele>355.0</ele><time>2026-05-01T09:19:27.999Z</time></trkpt><trkpt lat="42.25972501299451" lon="14.239164477986654"><ele>356.0</ele><time>2026-05-01T09:19:28.999Z</time></trkpt><trkpt lat="42.25963220053359" lon="14.239146763099763"><ele>356.83333333333337</ele><time>2026-05-01T09:19:29.999Z</time></trkpt><trkpt lat="42.2595466666073" lon="14.239120630417402"><ele>357.6666666666667</ele><time>2026-05-01T09:19:30.999Z</time></trkpt><trkpt lat="42.259472113550345" lon="14.239105596709072"><ele>358.5</ele><time>2026-05-01T09:19:31.999Z</time></trkpt><trkpt lat="42.25939680664661" lon="14.239108699444639"><ele>359.3333333333333</ele><time>2026-05-01T09:19:32.999Z</time></trkpt><trkpt lat="42.259325357701876" lon="14.239108189862977"><ele>360.16666666666663</ele><time>2026-05-01T09:19:33.999Z</time></trkpt><trkpt lat="42.259253085924335" lon="14.239129206330613"><ele>361.0</ele><time>2026-05-01T09:19:35.999Z</time></trkpt><trkpt lat="42.25913485278105" lon="14.239196274227957"><ele>361.0</ele><time>2026-05-01T09:19:37.999Z</time></trkpt><trkpt lat="42.259065630826264" lon="14.239211830290081"><ele>361.0</ele><time>2026-05-01T09:19:38.999Z</time></trkpt><trkpt lat="42.25898499016249" lon="14.239211911954195"><ele>361.0</ele><time>2026-05-01T09:19:39.999Z</time></trkpt><trkpt lat="42.258903567904575" lon="14.23919506572325"><ele>361.0</ele><time>2026-05-01T09:19:40.999Z</time></trkpt><trkpt lat="42.258812957677996" lon="14.23917740326268"><ele>361.0</ele><time>2026-05-01T09:19:41.999Z</time></trkpt><trkpt lat="42.258674303467785" lon="14.239169824799786"><ele>362.6</ele><time>2026-05-01T09:19:43.999Z</time></trkpt><trkpt lat="42.25860171905988" lon="14.239209886387052"><ele>364.20000000000005</ele><time>2026-05-01T09:19:44.999Z</time></trkpt><trkpt lat="42.25853048023596" lon="14.239260422364513"><ele>365.79999999999995</ele><time>2026-05-01T09:19:45.999Z</time></trkpt><trkpt lat="42.25844013906237" lon="14.239308653582098"><ele>367.4</ele><time>2026-05-01T09:19:46.999Z</time></trkpt><trkpt lat="42.25835564958724" lon="14.239367768161115"><ele>369.0</ele><time>2026-05-01T09:19:47.999Z</time></trkpt><trkpt lat="42.25826928229491" lon="14.239438301780684"><ele>369.0</ele><time>2026-05-01T09:19:48.999Z</time></trkpt><trkpt lat="42.25817187888691" lon="14.239513370400882"><ele>369.0</ele><time>2026-05-01T09:19:49.999Z</time></trkpt><trkpt lat="42.25806502117711" lon="14.239599714833224"><ele>369.0</ele><time>2026-05-01T09:19:50.999Z</time></trkpt><trkpt lat="42.25797926845849" lon="14.239695806302116"><ele>369.0</ele><time>2026-05-01T09:19:51.999Z</time></trkpt><trkpt lat="42.25789366889869" lon="14.239787286154984"><ele>367.8333333333333</ele><time>2026-05-01T09:19:52.998Z</time></trkpt><trkpt lat="42.2578121910141" lon="14.239897403570204"><ele>366.6666666666667</ele><time>2026-05-01T09:19:53.998Z</time></trkpt><trkpt lat="42.257747147578414" lon="14.239982496985265"><ele>365.5</ele><time>2026-05-01T09:19:54.998Z</time></trkpt><trkpt lat="42.257658772472205" lon="14.239997664890373"><ele>364.33333333333337</ele><time>2026-05-01T09:19:55.998Z</time></trkpt><trkpt lat="42.257598495254264" lon="14.240023797160795"><ele>363.1666666666667</ele><time>2026-05-01T09:19:56.998Z</time></trkpt><trkpt lat="42.257527465531595" lon="14.240043504184094"><ele>362.0</ele><time>2026-05-01T09:19:57.998Z</time></trkpt><trkpt lat="42.25744477900815" lon="14.24005456650506"><ele>362.0</ele><time>2026-05-01T09:19:58.998Z</time></trkpt><trkpt lat="42.25735368244832" lon="14.240030633679007"><ele>362.0</ele><time>2026-05-01T09:19:59.998Z</time></trkpt><trkpt lat="42.257273491096335" lon="14.239974099105421"><ele>362.0</ele><time>2026-05-01T09:20:00.998Z</time></trkpt><trkpt lat="42.25719518989202" lon="14.239915343727397"><ele>362.0</ele><time>2026-05-01T09:20:01.998Z</time></trkpt><trkpt lat="42.25713590089098" lon="14.239833498128418"><ele>362.0</ele><time>2026-05-01T09:20:02.998Z</time></trkpt><trkpt lat="42.25706423930448" lon="14.239752740611502"><ele>361.1666666666667</ele><time>2026-05-01T09:20:03.998Z</time></trkpt><trkpt lat="42.25699580257658" lon="14.239694009744287"><ele>360.33333333333337</ele><time>2026-05-01T09:20:04.998Z</time></trkpt><trkpt lat="42.25691841361081" lon="14.239651205304963"><ele>359.5</ele><time>2026-05-01T09:20:05.998Z</time></trkpt><trkpt lat="42.256855524869245" lon="14.239602710832964"><ele>358.6666666666667</ele><time>2026-05-01T09:20:06.998Z</time></trkpt><trkpt lat="42.25679783530119" lon="14.239565344468613"><ele>357.8333333333333</ele><time>2026-05-01T09:20:07.998Z</time></trkpt><trkpt lat="42.25668116505614" lon="14.23952085421164"><ele>357.0</ele><time>2026-05-01T09:20:09.998Z</time></trkpt><trkpt lat="42.25659727434555" lon="14.239432781297914"><ele>357.0</ele><time>2026-05-01T09:20:11.998Z</time></trkpt><trkpt lat="42.25653373548752" lon="14.239372305596401"><ele>357.0</ele><time>2026-05-01T09:20:12.998Z</time></trkpt><trkpt lat="42.25643445328938" lon="14.239282855116496"><ele>357.0</ele><time>2026-05-01T09:20:13.998Z</time></trkpt><trkpt lat="42.25631111432038" lon="14.239186724104895"><ele>357.0</ele><time>2026-05-01T09:20:14.998Z</time></trkpt><trkpt lat="42.25618537772294" lon="14.239087802137615"><ele>354.0</ele><time>2026-05-01T09:20:15.998Z</time></trkpt><trkpt lat="42.256077186027" lon="14.238990105173464"><ele>351.0</ele><time>2026-05-01T09:20:16.998Z</time></trkpt><trkpt lat="42.255968325334784" lon="14.238907831608223"><ele>348.0</ele><time>2026-05-01T09:20:17.998Z</time></trkpt><trkpt lat="42.25587116533949" lon="14.238812891614893"><ele>345.0</ele><time>2026-05-01T09:20:18.998Z</time></trkpt><trkpt lat="42.25578936114065" lon="14.238748597362322"><ele>345.0</ele><time>2026-05-01T09:20:19.998Z</time></trkpt><trkpt lat="42.255719890546445" lon="14.238687271381487"><ele>345.0</ele><time>2026-05-01T09:20:20.998Z</time></trkpt><trkpt lat="42.25563429731002" lon="14.238638504463982"><ele>345.0</ele><time>2026-05-01T09:20:23Z</time></trkpt><trkpt lat="42.25556367109388" lon="14.238646964951656"><ele>345.0</ele><time>2026-05-01T09:20:26Z</time></trkpt><trkpt lat="42.25554061696175" lon="14.238547569150985"><ele>345.0</ele><time>2026-05-01T09:20:29Z</time></trkpt><trkpt lat="42.25549966667502" lon="14.238436149023846"><ele>345.0</ele><time>2026-05-01T09:20:31Z</time></trkpt><trkpt lat="42.255462771912114" lon="14.23833074203519"><ele>345.0</ele><time>2026-05-01T09:20:33Z</time></trkpt><trkpt lat="42.255410652949244" lon="14.23826366239692"><ele>345.0</ele><time>2026-05-01T09:20:35Z</time></trkpt><trkpt lat="42.255322972809026" lon="14.238189242279264"><ele>345.0</ele><time>2026-05-01T09:20:37Z</time></trkpt><trkpt lat="42.255221823853425" lon="14.238147296370256"><ele>345.0</ele><time>2026-05-01T09:20:39Z</time></trkpt><trkpt lat="42.25515406597546" lon="14.238135319728034"><ele>345.0</ele><time>2026-05-01T09:20:40Z</time></trkpt><trkpt lat="42.25508219340114" lon="14.238128113548493"><ele>345.0</ele><time>2026-05-01T09:20:41Z</time></trkpt><trkpt lat="42.2550015602765" lon="14.238110814752968"><ele>341.4</ele><time>2026-05-01T09:20:42Z</time></trkpt><trkpt lat="42.25490468892001" lon="14.238098295982326"><ele>337.8</ele><time>2026-05-01T09:20:43Z</time></trkpt><trkpt lat="42.25480413892316" lon="14.238069296776933"><ele>334.20000000000005</ele><time>2026-05-01T09:20:44Z</time></trkpt><trkpt lat="42.2546929904006" lon="14.238063745464975"><ele>330.6</ele><time>2026-05-01T09:20:45Z</time></trkpt><trkpt lat="42.254588383043554" lon="14.238042238093165"><ele>327.0</ele><time>2026-05-01T09:20:46Z</time></trkpt><trkpt lat="42.2544830098161" lon="14.238013716760362"><ele>327.0</ele><time>2026-05-01T09:20:47Z</time></trkpt><trkpt lat="42.25438385760517" lon="14.237982110188717"><ele>327.0</ele><time>2026-05-01T09:20:48Z</time></trkpt><trkpt lat="42.25426589294347" lon="14.237933833178694"><ele>327.0</ele><time>2026-05-01T09:20:49Z</time></trkpt><trkpt lat="42.25414427722135" lon="14.237861032482416"><ele>327.0</ele><time>2026-05-01T09:20:50Z</time></trkpt><trkpt lat="42.25403186906508" lon="14.23775742648915"><ele>332.0</ele><time>2026-05-01T09:20:51Z</time></trkpt><trkpt lat="42.253913389428384" lon="14.237645802299463"><ele>337.0</ele><time>2026-05-01T09:20:52Z</time></trkpt><trkpt lat="42.25378696430728" lon="14.237521187030671"><ele>342.0</ele><time>2026-05-01T09:20:53Z</time></trkpt><trkpt lat="42.253663908721784" lon="14.237396302932206"><ele>339.0</ele><time>2026-05-01T09:20:54Z</time></trkpt><trkpt lat="42.25357424764514" lon="14.237257909585784"><ele>336.0</ele><time>2026-05-01T09:20:54.999Z</time></trkpt><trkpt lat="42.25349138157521" lon="14.23709291343436"><ele>333.0</ele><time>2026-05-01T09:20:55.999Z</time></trkpt><trkpt lat="42.25341282098446" lon="14.236912652759449"><ele>330.0</ele><time>2026-05-01T09:20:56.999Z</time></trkpt><trkpt lat="42.25335200954322" lon="14.236707180477582"><ele>330.0</ele><time>2026-05-01T09:20:57.999Z</time></trkpt><trkpt lat="42.253296165631504" lon="14.236504087468072"><ele>330.0</ele><time>2026-05-01T09:20:58.999Z</time></trkpt><trkpt lat="42.253240552891135" lon="14.236316603075297"><ele>330.0</ele><time>2026-05-01T09:20:59.999Z</time></trkpt><trkpt lat="42.253184674255635" lon="14.236139360350668"><ele>330.5</ele><time>2026-05-01T09:21:00.999Z</time></trkpt><trkpt lat="42.25313063495239" lon="14.235969758030278"><ele>331.0</ele><time>2026-05-01T09:21:01.999Z</time></trkpt><trkpt lat="42.25308981323845" lon="14.235825788259413"><ele>331.5</ele><time>2026-05-01T09:21:02.999Z</time></trkpt><trkpt lat="42.253029541351715" lon="14.235657716258274"><ele>332.0</ele><time>2026-05-01T09:21:03.999Z</time></trkpt><trkpt lat="42.25297604417219" lon="14.235515761271502"><ele>328.40000000000003</ele><time>2026-05-01T09:21:04.999Z</time></trkpt><trkpt lat="42.25291411017739" lon="14.235402474051002"><ele>324.8</ele><time>2026-05-01T09:21:05.999Z</time></trkpt><trkpt lat="42.25285219365415" lon="14.235296618672702"><ele>321.2</ele><time>2026-05-01T09:21:06.999Z</time></trkpt><trkpt lat="42.25276968613172" lon="14.235223510416414"><ele>317.6</ele><time>2026-05-01T09:21:07.999Z</time></trkpt><trkpt lat="42.25268582954209" lon="14.235166765198416"><ele>314.0</ele><time>2026-05-01T09:21:08.999Z</time></trkpt><trkpt lat="42.252590368075495" lon="14.235111620771372"><ele>314.0</ele><time>2026-05-01T09:21:09.999Z</time></trkpt><trkpt lat="42.25247950458099" lon="14.235070515841892"><ele>314.0</ele><time>2026-05-01T09:21:10.999Z</time></trkpt><trkpt lat="42.25239235309902" lon="14.235001954509155"><ele>314.0</ele><time>2026-05-01T09:21:11.999Z</time></trkpt><trkpt lat="42.25231618418428" lon="14.234925739998207"><ele>314.0</ele><time>2026-05-01T09:21:12.999Z</time></trkpt><trkpt lat="42.252239400190135" lon="14.234851177019953"><ele>314.0</ele><time>2026-05-01T09:21:13.999Z</time></trkpt><trkpt lat="42.25218193340691" lon="14.234764362870283"><ele>315.0</ele><time>2026-05-01T09:21:14.999Z</time></trkpt><trkpt lat="42.252117042681625" lon="14.234664209255028"><ele>316.0</ele><time>2026-05-01T09:21:15.999Z</time></trkpt><trkpt lat="42.25203110461471" lon="14.234532392232035"><ele>317.0</ele><time>2026-05-01T09:21:16.999Z</time></trkpt><trkpt lat="42.25193082702582" lon="14.234355087695972"><ele>318.0</ele><time>2026-05-01T09:21:17.999Z</time></trkpt><trkpt lat="42.25185444409238" lon="14.234180993816091"><ele>318.0</ele><time>2026-05-01T09:21:18.999Z</time></trkpt><trkpt lat="42.25179631721874" lon="14.234018325941893"><ele>318.0</ele><time>2026-05-01T09:21:19.999Z</time></trkpt><trkpt lat="42.25177206093749" lon="14.23380798536854"><ele>318.0</ele><time>2026-05-01T09:21:20.999Z</time></trkpt><trkpt lat="42.25184215352587" lon="14.233608662610255"><ele>314.6</ele><time>2026-05-01T09:21:21.999Z</time></trkpt><trkpt lat="42.251797596225174" lon="14.233684019433719"><ele>311.20000000000005</ele><time>2026-05-01T09:21:22.999Z</time></trkpt><trkpt lat="42.251853546288075" lon="14.23358175291061"><ele>307.8</ele><time>2026-05-01T09:21:23.999Z</time></trkpt><trkpt lat="42.25193016240071" lon="14.233557157911186"><ele>304.40000000000003</ele><time>2026-05-01T09:21:24.999Z</time></trkpt><trkpt lat="42.25201454525244" lon="14.233555973736157"><ele>301.0</ele><time>2026-05-01T09:21:25.999Z</time></trkpt><trkpt lat="42.25210094404706" lon="14.233712609579825"><ele>301.0</ele><time>2026-05-01T09:21:26.999Z</time></trkpt><trkpt lat="42.25214449363532" lon="14.23383744091698"><ele>301.0</ele><time>2026-05-01T09:21:27.999Z</time></trkpt><trkpt lat="42.25221747096813" lon="14.234007501980866"><ele>301.0</ele><time>2026-05-01T09:21:28.999Z</time></trkpt><trkpt lat="42.252302685459355" lon="14.234180474340816"><ele>301.0</ele><time>2026-05-01T09:21:29.999Z</time></trkpt><trkpt lat="42.25241925929027" lon="14.234311807006279"><ele>299.3333333333333</ele><time>2026-05-01T09:21:30.999Z</time></trkpt><trkpt lat="42.25254488943739" lon="14.234418189346274"><ele>297.6666666666667</ele><time>2026-05-01T09:21:31.999Z</time></trkpt><trkpt lat="42.252700008608166" lon="14.234466942188142"><ele>296.0</ele><time>2026-05-01T09:21:32.999Z</time></trkpt><trkpt lat="42.25289776964815" lon="14.234475404806087"><ele>292.5</ele><time>2026-05-01T09:21:33.999Z</time></trkpt><trkpt lat="42.25313269034203" lon="14.234452661729165"><ele>289.0</ele><time>2026-05-01T09:21:34.999Z</time></trkpt><trkpt lat="42.25336104894966" lon="14.234444680252453"><ele>289.0</ele><time>2026-05-01T09:21:35.999Z</time></trkpt><trkpt lat="42.253536392402395" lon="14.234476713582614"><ele>289.0</ele><time>2026-05-01T09:21:36.999Z</time></trkpt><trkpt lat="42.25369999459819" lon="14.234516230749863"><ele>289.0</ele><time>2026-05-01T09:21:37.999Z</time></trkpt><trkpt lat="42.2538644723991" lon="14.234616245336275"><ele>291.0</ele><time>2026-05-01T09:21:38.999Z</time></trkpt><trkpt lat="42.25407388631156" lon="14.234742067698125"><ele>293.0</ele><time>2026-05-01T09:21:39.999Z</time></trkpt><trkpt lat="42.254301823159224" lon="14.234887108416716"><ele>293.0</ele><time>2026-05-01T09:21:40.999Z</time></trkpt><trkpt lat="42.254528296099124" lon="14.235034407896151"><ele>293.0</ele><time>2026-05-01T09:21:41.999Z</time></trkpt><trkpt lat="42.25469333316419" lon="14.235133338490634"><ele>293.0</ele><time>2026-05-01T09:21:42.999Z</time></trkpt><trkpt lat="42.254841133885144" lon="14.235211804977633"><ele>290.0</ele><time>2026-05-01T09:21:43.999Z</time></trkpt><trkpt lat="42.25503589878642" lon="14.235266405353599"><ele>287.0</ele><time>2026-05-01T09:21:44.999Z</time></trkpt><trkpt lat="42.255271740788295" lon="14.235301812938985"><ele>284.0</ele><time>2026-05-01T09:21:45.999Z</time></trkpt><trkpt lat="42.25551027723058" lon="14.235335741471799"><ele>281.33333333333337</ele><time>2026-05-01T09:21:46.999Z</time></trkpt><trkpt lat="42.255690063051745" lon="14.235314939061041"><ele>278.6666666666667</ele><time>2026-05-01T09:21:47.999Z</time></trkpt><trkpt lat="42.25585616333437" lon="14.235314874454295"><ele>276.0</ele><time>2026-05-01T09:21:48.998Z</time></trkpt><trkpt lat="42.25601649334616" lon="14.235266629156055"><ele>276.0</ele><time>2026-05-01T09:21:49.998Z</time></trkpt><trkpt lat="42.25618283486501" lon="14.235166306210221"><ele>276.0</ele><time>2026-05-01T09:21:50.998Z</time></trkpt><trkpt lat="42.256339161739305" lon="14.23500931719746"><ele>276.0</ele><time>2026-05-01T09:21:51.998Z</time></trkpt><trkpt lat="42.25646856168984" lon="14.23485653506904"><ele>273.5</ele><time>2026-05-01T09:21:52.998Z</time></trkpt><trkpt lat="42.256603101991246" lon="14.234746221917804"><ele>271.0</ele><time>2026-05-01T09:21:53.998Z</time></trkpt><trkpt lat="42.25671009263999" lon="14.234647499948158"><ele>268.5</ele><time>2026-05-01T09:21:54.998Z</time></trkpt><trkpt lat="42.25679378231139" lon="14.234546870715556"><ele>266.0</ele><time>2026-05-01T09:21:55.998Z</time></trkpt><trkpt lat="42.25686296103043" lon="14.234479001304718"><ele>266.0</ele><time>2026-05-01T09:21:56.998Z</time></trkpt><trkpt lat="42.256941192677054" lon="14.234428695757767"><ele>266.0</ele><time>2026-05-01T09:21:58.998Z</time></trkpt><trkpt lat="42.25682486300796" lon="14.234229821725393"><ele>266.0</ele><time>2026-05-01T09:22:00.998Z</time></trkpt><trkpt lat="42.25668443187645" lon="14.234272862966204"><ele>266.0</ele><time>2026-05-01T09:22:01.998Z</time></trkpt><trkpt lat="42.256539140726595" lon="14.234297695002082"><ele>266.0</ele><time>2026-05-01T09:22:02.998Z</time></trkpt><trkpt lat="42.25636660766065" lon="14.234297728504957"><ele>266.0</ele><time>2026-05-01T09:22:03.998Z</time></trkpt><trkpt lat="42.25619305564649" lon="14.234327040114664"><ele>266.0</ele><time>2026-05-01T09:22:04.998Z</time></trkpt><trkpt lat="42.25604304007831" lon="14.234328989919149"><ele>266.0</ele><time>2026-05-01T09:22:05.998Z</time></trkpt><trkpt lat="42.25591849279429" lon="14.23428503805127"><ele>266.0</ele><time>2026-05-01T09:22:06.998Z</time></trkpt><trkpt lat="42.25580099683587" lon="14.234200628378224"><ele>266.0</ele><time>2026-05-01T09:22:07.998Z</time></trkpt><trkpt lat="42.255712203031756" lon="14.23407657163872"><ele>266.0</ele><time>2026-05-01T09:22:08.998Z</time></trkpt><trkpt lat="42.25565757237481" lon="14.233914810349827"><ele>262.6666666666667</ele><time>2026-05-01T09:22:09.998Z</time></trkpt><trkpt lat="42.2556169878322" lon="14.233712583503948"><ele>259.3333333333333</ele><time>2026-05-01T09:22:10.998Z</time></trkpt><trkpt lat="42.25558698718294" lon="14.233466725848494"><ele>256.0</ele><time>2026-05-01T09:22:11.998Z</time></trkpt><trkpt lat="42.255557286226654" lon="14.233248856596141"><ele>254.75</ele><time>2026-05-01T09:22:12.998Z</time></trkpt><trkpt lat="42.255567198484414" lon="14.233077268599864"><ele>253.5</ele><time>2026-05-01T09:22:13.998Z</time></trkpt><trkpt lat="42.25559939728386" lon="14.232917375451448"><ele>252.25</ele><time>2026-05-01T09:22:14.998Z</time></trkpt><trkpt lat="42.255666072665605" lon="14.2327704942871"><ele>251.0</ele><time>2026-05-01T09:22:15.998Z</time></trkpt><trkpt lat="42.25578947033846" lon="14.232673335660934"><ele>251.0</ele><time>2026-05-01T09:22:16.998Z</time></trkpt><trkpt lat="42.2559266981438" lon="14.232586455436438"><ele>251.0</ele><time>2026-05-01T09:22:17.998Z</time></trkpt><trkpt lat="42.25609416127934" lon="14.23247947897116"><ele>251.0</ele><time>2026-05-01T09:22:18.998Z</time></trkpt><trkpt lat="42.256282115037635" lon="14.2323477749249"><ele>248.66666666666669</ele><time>2026-05-01T09:22:19.998Z</time></trkpt><trkpt lat="42.256470159109035" lon="14.232290860597397"><ele>246.33333333333331</ele><time>2026-05-01T09:22:20.998Z</time></trkpt><trkpt lat="42.256641729906114" lon="14.23226419324076"><ele>244.0</ele><time>2026-05-01T09:22:21.998Z</time></trkpt><trkpt lat="42.25680416001638" lon="14.23222908452473"><ele>244.0</ele><time>2026-05-01T09:22:22.998Z</time></trkpt><trkpt lat="42.25693722317227" lon="14.232218423693158"><ele>244.0</ele><time>2026-05-01T09:22:23.998Z</time></trkpt><trkpt lat="42.257057278113194" lon="14.23218713989624"><ele>244.0</ele><time>2026-05-01T09:22:24.998Z</time></trkpt><trkpt lat="42.25717794032099" lon="14.232103296795943"><ele>244.0</ele><time>2026-05-01T09:22:25.998Z</time></trkpt><trkpt lat="42.25729769849307" lon="14.231944721552908"><ele>241.66666666666666</ele><time>2026-05-01T09:22:26.998Z</time></trkpt><trkpt lat="42.25742661714148" lon="14.231741226805227"><ele>239.33333333333331</ele><time>2026-05-01T09:22:27.999Z</time></trkpt><trkpt lat="42.25756334027727" lon="14.231528479013226"><ele>237.0</ele><time>2026-05-01T09:22:29Z</time></trkpt><trkpt lat="42.25770456710125" lon="14.23132411120445"><ele>236.0</ele><time>2026-05-01T09:22:30Z</time></trkpt><trkpt lat="42.2578406698987" lon="14.231160016016403"><ele>235.0</ele><time>2026-05-01T09:22:31Z</time></trkpt><trkpt lat="42.25796318657656" lon="14.231013231204836"><ele>234.0</ele><time>2026-05-01T09:22:32Z</time></trkpt><trkpt lat="42.258077831336095" lon="14.230868454954074"><ele>230.66666666666669</ele><time>2026-05-01T09:22:33Z</time></trkpt><trkpt lat="42.25816899176968" lon="14.230701130964528"><ele>227.33333333333334</ele><time>2026-05-01T09:22:34Z</time></trkpt><trkpt lat="42.25825187479923" lon="14.230520999154244"><ele>224.0</ele><time>2026-05-01T09:22:35Z</time></trkpt><trkpt lat="42.25830943129461" lon="14.230279797712242"><ele>223.0</ele><time>2026-05-01T09:22:36Z</time></trkpt><trkpt lat="42.25834197387719" lon="14.229977030540672"><ele>222.0</ele><time>2026-05-01T09:22:37Z</time></trkpt><trkpt lat="42.25838256152886" lon="14.22968870013016"><ele>221.0</ele><time>2026-05-01T09:22:38Z</time></trkpt><trkpt lat="42.25842203318489" lon="14.22947345826566"><ele>220.25</ele><time>2026-05-01T09:22:39Z</time></trkpt><trkpt lat="42.25844783311936" lon="14.229301102937402"><ele>219.5</ele><time>2026-05-01T09:22:40Z</time></trkpt><trkpt lat="42.25844445090478" lon="14.22914684068229"><ele>218.75</ele><time>2026-05-01T09:22:41Z</time></trkpt><trkpt lat="42.25839639973833" lon="14.229001452545116"><ele>218.0</ele><time>2026-05-01T09:22:42Z</time></trkpt><trkpt lat="42.258314177491556" lon="14.22887638627836"><ele>215.0</ele><time>2026-05-01T09:22:43Z</time></trkpt><trkpt lat="42.25817840027902" lon="14.22881137622008"><ele>212.0</ele><time>2026-05-01T09:22:44Z</time></trkpt><trkpt lat="42.25803571876965" lon="14.22880360425205"><ele>209.0</ele><time>2026-05-01T09:22:45Z</time></trkpt><trkpt lat="42.2578760749468" lon="14.22886304628948"><ele>209.66666666666669</ele><time>2026-05-01T09:22:46Z</time></trkpt><trkpt lat="42.257702550457495" lon="14.228992758238958"><ele>210.33333333333331</ele><time>2026-05-01T09:22:47Z</time></trkpt><trkpt lat="42.25751806066005" lon="14.229169095677229"><ele>211.0</ele><time>2026-05-01T09:22:48Z</time></trkpt><trkpt lat="42.257336633822504" lon="14.229288826846123"><ele>210.75</ele><time>2026-05-01T09:22:49Z</time></trkpt><trkpt lat="42.257209635404145" lon="14.229383100357024"><ele>210.5</ele><time>2026-05-01T09:22:50Z</time></trkpt><trkpt lat="42.2570753645023" lon="14.229386525937976"><ele>210.25</ele><time>2026-05-01T09:22:51Z</time></trkpt><trkpt lat="42.25694040268774" lon="14.229383138591366"><ele>210.0</ele><time>2026-05-01T09:22:52Z</time></trkpt><trkpt lat="42.25684134285778" lon="14.229245642468763"><ele>210.0</ele><time>2026-05-01T09:22:53Z</time></trkpt><trkpt lat="42.25676628437541" lon="14.229106518745875"><ele>210.0</ele><time>2026-05-01T09:22:54Z</time></trkpt><trkpt lat="42.25673992019765" lon="14.228943936071122"><ele>210.0</ele><time>2026-05-01T09:22:54.999Z</time></trkpt><trkpt lat="42.25674399760994" lon="14.228778476266093"><ele>210.0</ele><time>2026-05-01T09:22:55.999Z</time></trkpt><trkpt lat="42.2567687697549" lon="14.228617743120541"><ele>209.66666666666669</ele><time>2026-05-01T09:22:56.999Z</time></trkpt><trkpt lat="42.25685845111776" lon="14.228463987270642"><ele>209.33333333333334</ele><time>2026-05-01T09:22:57.999Z</time></trkpt><trkpt lat="42.25697516160895" lon="14.22827498831917"><ele>209.0</ele><time>2026-05-01T09:22:58.999Z</time></trkpt><trkpt lat="42.25712195795084" lon="14.228046381401002"><ele>209.0</ele><time>2026-05-01T09:22:59.999Z</time></trkpt><trkpt lat="42.25725953023347" lon="14.227832645611064"><ele>209.0</ele><time>2026-05-01T09:23:00.999Z</time></trkpt><trkpt lat="42.257349059631835" lon="14.227626802623526"><ele>209.0</ele><time>2026-05-01T09:23:01.999Z</time></trkpt><trkpt lat="42.25739690239735" lon="14.22743465494414"><ele>204.75</ele><time>2026-05-01T09:23:02.999Z</time></trkpt><trkpt lat="42.25744534761183" lon="14.22721129825083"><ele>200.5</ele><time>2026-05-01T09:23:03.999Z</time></trkpt><trkpt lat="42.25744420735821" lon="14.22700650950515"><ele>196.25</ele><time>2026-05-01T09:23:04.999Z</time></trkpt><trkpt lat="42.25746760000423" lon="14.226853678675289"><ele>192.0</ele><time>2026-05-01T09:23:05.999Z</time></trkpt><trkpt lat="42.25743953567842" lon="14.226756824174814"><ele>192.0</ele><time>2026-05-01T09:23:06.999Z</time></trkpt><trkpt lat="42.25736283497192" lon="14.226574447673235"><ele>192.0</ele><time>2026-05-01T09:23:07.999Z</time></trkpt><trkpt lat="42.25726672269406" lon="14.226455334117357"><ele>192.0</ele><time>2026-05-01T09:23:08.999Z</time></trkpt><trkpt lat="42.257126755356325" lon="14.226358924501032"><ele>192.0</ele><time>2026-05-01T09:23:09.999Z</time></trkpt><trkpt lat="42.2569468528449" lon="14.226281170949646"><ele>189.75</ele><time>2026-05-01T09:23:10.999Z</time></trkpt><trkpt lat="42.25679291511181" lon="14.22617495062423"><ele>187.5</ele><time>2026-05-01T09:23:11.999Z</time></trkpt><trkpt lat="42.25669623349164" lon="14.226104456688034"><ele>185.25</ele><time>2026-05-01T09:23:12.999Z</time></trkpt><trkpt lat="42.25663683567752" lon="14.226015126395508"><ele>183.0</ele><time>2026-05-01T09:23:13.999Z</time></trkpt><trkpt lat="42.25659645743373" lon="14.225897949941817"><ele>183.0</ele><time>2026-05-01T09:23:14.999Z</time></trkpt><trkpt lat="42.256595407622136" lon="14.225765193290068"><ele>183.0</ele><time>2026-05-01T09:23:15.999Z</time></trkpt><trkpt lat="42.25665275948484" lon="14.225622957799832"><ele>183.0</ele><time>2026-05-01T09:23:16.999Z</time></trkpt><trkpt lat="42.25676664028224" lon="14.225556423097862"><ele>183.0</ele><time>2026-05-01T09:23:17.999Z</time></trkpt><trkpt lat="42.25689218080313" lon="14.22553419019122"><ele>179.66666666666666</ele><time>2026-05-01T09:23:18.999Z</time></trkpt><trkpt lat="42.25707799686468" lon="14.225543558007635"><ele>176.33333333333331</ele><time>2026-05-01T09:23:19.999Z</time></trkpt><trkpt lat="42.257293655698156" lon="14.225533044580407"><ele>173.0</ele><time>2026-05-01T09:23:20.999Z</time></trkpt><trkpt lat="42.257515823723395" lon="14.225558867254366"><ele>173.0</ele><time>2026-05-01T09:23:21.999Z</time></trkpt><trkpt lat="42.25769961964415" lon="14.225578087353659"><ele>173.0</ele><time>2026-05-01T09:23:22.999Z</time></trkpt><trkpt lat="42.25782338124642" lon="14.225580250177655"><ele>173.0</ele><time>2026-05-01T09:23:23.999Z</time></trkpt><trkpt lat="42.2579217806569" lon="14.22554619023314"><ele>173.0</ele><time>2026-05-01T09:23:24.999Z</time></trkpt><trkpt lat="42.25800323014094" lon="14.225464866006313"><ele>173.0</ele><time>2026-05-01T09:23:25.999Z</time></trkpt><trkpt lat="42.25806128692538" lon="14.225323642624794"><ele>173.0</ele><time>2026-05-01T09:23:26.999Z</time></trkpt><trkpt lat="42.258068348172536" lon="14.22516799881359"><ele>173.0</ele><time>2026-05-01T09:23:27.999Z</time></trkpt><trkpt lat="42.25799454505743" lon="14.225023815621629"><ele>173.0</ele><time>2026-05-01T09:23:28.999Z</time></trkpt><trkpt lat="42.257868995196446" lon="14.224891388108116"><ele>170.66666666666666</ele><time>2026-05-01T09:23:29.999Z</time></trkpt><trkpt lat="42.25770160613852" lon="14.224801828044624"><ele>168.33333333333334</ele><time>2026-05-01T09:23:30.999Z</time></trkpt><trkpt lat="42.25749940661849" lon="14.224730351634891"><ele>166.0</ele><time>2026-05-01T09:23:31.999Z</time></trkpt><trkpt lat="42.257313504564806" lon="14.224640505105429"><ele>165.25</ele><time>2026-05-01T09:23:32.999Z</time></trkpt><trkpt lat="42.257176104694615" lon="14.224577657676491"><ele>164.5</ele><time>2026-05-01T09:23:33.999Z</time></trkpt><trkpt lat="42.257065694819445" lon="14.224517409260624"><ele>163.75</ele><time>2026-05-01T09:23:34.999Z</time></trkpt><trkpt lat="42.25696470291636" lon="14.224450756340582"><ele>163.0</ele><time>2026-05-01T09:23:35.999Z</time></trkpt><trkpt lat="42.25690539071089" lon="14.224323596443124"><ele>163.0</ele><time>2026-05-01T09:23:36.999Z</time></trkpt><trkpt lat="42.25690819859082" lon="14.224189209806209"><ele>163.0</ele><time>2026-05-01T09:23:37.999Z</time></trkpt><trkpt lat="42.256961538283925" lon="14.224066100018954"><ele>163.0</ele><time>2026-05-01T09:23:38.999Z</time></trkpt><trkpt lat="42.25708513791037" lon="14.223986878370049"><ele>163.0</ele><time>2026-05-01T09:23:39.999Z</time></trkpt><trkpt lat="42.25725051610097" lon="14.223885878929478"><ele>161.66666666666669</ele><time>2026-05-01T09:23:40.999Z</time></trkpt><trkpt lat="42.257424697609025" lon="14.223763136550382"><ele>160.33333333333334</ele><time>2026-05-01T09:23:41.999Z</time></trkpt><trkpt lat="42.257579065777804" lon="14.223684821236322"><ele>159.0</ele><time>2026-05-01T09:23:42.999Z</time></trkpt><trkpt lat="42.25767538955714" lon="14.223617320105868"><ele>159.0</ele><time>2026-05-01T09:23:43.999Z</time></trkpt><trkpt lat="42.257741624605366" lon="14.223532216512185"><ele>159.0</ele><time>2026-05-01T09:23:44.999Z</time></trkpt><trkpt lat="42.25777246480641" lon="14.22340619769178"><ele>159.0</ele><time>2026-05-01T09:23:45.999Z</time></trkpt><trkpt lat="42.25776192306156" lon="14.223247274901896"><ele>159.0</ele><time>2026-05-01T09:23:46.999Z</time></trkpt><trkpt lat="42.257703404621054" lon="14.22308555280966"><ele>159.0</ele><time>2026-05-01T09:23:47.999Z</time></trkpt><trkpt lat="42.25762302020237" lon="14.222887826283124"><ele>158.33333333333334</ele><time>2026-05-01T09:23:48.999Z</time></trkpt><trkpt lat="42.25755076234265" lon="14.222669923012054"><ele>157.66666666666669</ele><time>2026-05-01T09:23:49.999Z</time></trkpt><trkpt lat="42.25748042888544" lon="14.222467258452443"><ele>157.0</ele><time>2026-05-01T09:23:50.999Z</time></trkpt><trkpt lat="42.25739759555441" lon="14.222278262586507"><ele>158.33333333333334</ele><time>2026-05-01T09:23:51.999Z</time></trkpt><trkpt lat="42.257345522994214" lon="14.222081110426299"><ele>159.66666666666666</ele><time>2026-05-01T09:23:52.999Z</time></trkpt><trkpt lat="42.25728182268805" lon="14.221898949388692"><ele>161.0</ele><time>2026-05-01T09:23:53.999Z</time></trkpt><trkpt lat="42.257199853747025" lon="14.221716054145844"><ele>161.0</ele><time>2026-05-01T09:23:54.999Z</time></trkpt><trkpt lat="42.257168249817774" lon="14.22152139519071"><ele>161.0</ele><time>2026-05-01T09:23:55.999Z</time></trkpt><trkpt lat="42.25716238304677" lon="14.221369587497877"><ele>161.0</ele><time>2026-05-01T09:23:56.999Z</time></trkpt><trkpt lat="42.25718745206349" lon="14.221230011746316"><ele>161.0</ele><time>2026-05-01T09:23:57.998Z</time></trkpt><trkpt lat="42.25726362500259" lon="14.22109749760411"><ele>162.66666666666666</ele><time>2026-05-01T09:23:58.998Z</time></trkpt><trkpt lat="42.257370454995176" lon="14.220976393719885"><ele>164.33333333333334</ele><time>2026-05-01T09:23:59.998Z</time></trkpt><trkpt lat="42.257515031375675" lon="14.220901030354678"><ele>166.0</ele><time>2026-05-01T09:24:00.998Z</time></trkpt><trkpt lat="42.257682336604276" lon="14.220816840661257"><ele>166.0</ele><time>2026-05-01T09:24:01.998Z</time></trkpt><trkpt lat="42.25783338275681" lon="14.220730304137003"><ele>166.0</ele><time>2026-05-01T09:24:02.998Z</time></trkpt><trkpt lat="42.257958999602366" lon="14.220667806532207"><ele>166.0</ele><time>2026-05-01T09:24:03.998Z</time></trkpt><trkpt lat="42.25803567659717" lon="14.2205960499552"><ele>166.0</ele><time>2026-05-01T09:24:04.998Z</time></trkpt><trkpt lat="42.2580839905909" lon="14.220494930524946"><ele>168.8</ele><time>2026-05-01T09:24:05.998Z</time></trkpt><trkpt lat="42.258095010956986" lon="14.220378074865225"><ele>171.60000000000002</ele><time>2026-05-01T09:24:06.998Z</time></trkpt><trkpt lat="42.258076964836" lon="14.220265010327642"><ele>174.4</ele><time>2026-05-01T09:24:07.998Z</time></trkpt><trkpt lat="42.25799422053917" lon="14.220185273611795"><ele>177.2</ele><time>2026-05-01T09:24:08.998Z</time></trkpt><trkpt lat="42.25786059258242" lon="14.22010384677605"><ele>180.0</ele><time>2026-05-01T09:24:09.998Z</time></trkpt><trkpt lat="42.25770963279172" lon="14.220081057638284"><ele>180.0</ele><time>2026-05-01T09:24:10.998Z</time></trkpt><trkpt lat="42.2575498392969" lon="14.220077271663923"><ele>180.0</ele><time>2026-05-01T09:24:11.998Z</time></trkpt><trkpt lat="42.25738006263563" lon="14.220024550100671"><ele>180.0</ele><time>2026-05-01T09:24:12.998Z</time></trkpt><trkpt lat="42.25721975115012" lon="14.21998729461792"><ele>179.5</ele><time>2026-05-01T09:24:13.998Z</time></trkpt><trkpt lat="42.25705317109155" lon="14.219959411297136"><ele>179.0</ele><time>2026-05-01T09:24:14.998Z</time></trkpt><trkpt lat="42.256899873552136" lon="14.219922081216202"><ele>178.5</ele><time>2026-05-01T09:24:15.998Z</time></trkpt><trkpt lat="42.25683248201092" lon="14.219846315750397"><ele>178.0</ele><time>2026-05-01T09:24:16.998Z</time></trkpt><trkpt lat="42.256767667584334" lon="14.219782090330256"><ele>180.0</ele><time>2026-05-01T09:24:17.998Z</time></trkpt><trkpt lat="42.25675390897974" lon="14.219693412748162"><ele>182.0</ele><time>2026-05-01T09:24:18.998Z</time></trkpt><trkpt lat="42.25672636159544" lon="14.219587233802663"><ele>184.0</ele><time>2026-05-01T09:24:20.998Z</time></trkpt><trkpt lat="42.256602645558154" lon="14.219599955453976"><ele>186.0</ele><time>2026-05-01T09:24:22.998Z</time></trkpt><trkpt lat="42.25653309869536" lon="14.21961286713755"><ele>188.0</ele><time>2026-05-01T09:24:23.998Z</time></trkpt><trkpt lat="42.25643211903704" lon="14.219620858328083"><ele>190.0</ele><time>2026-05-01T09:24:24.998Z</time></trkpt><trkpt lat="42.25630644987986" lon="14.21960214804004"><ele>190.0</ele><time>2026-05-01T09:24:25.998Z</time></trkpt><trkpt lat="42.25622384135229" lon="14.219522370886118"><ele>190.0</ele><time>2026-05-01T09:24:26.998Z</time></trkpt><trkpt lat="42.256171988584754" lon="14.219421983508758"><ele>190.0</ele><time>2026-05-01T09:24:27.998Z</time></trkpt><trkpt lat="42.25611409507344" lon="14.219355563258876"><ele>190.0</ele><time>2026-05-01T09:24:28.998Z</time></trkpt><trkpt lat="42.25601388820292" lon="14.219369040901551"><ele>190.0</ele><time>2026-05-01T09:24:29.998Z</time></trkpt><trkpt lat="42.255921990021974" lon="14.219423000986094"><ele>190.0</ele><time>2026-05-01T09:24:30.998Z</time></trkpt><trkpt lat="42.25587768163503" lon="14.219499964321836"><ele>190.0</ele><time>2026-05-01T09:24:31.998Z</time></trkpt><trkpt lat="42.25587671121408" lon="14.21962455280476"><ele>190.0</ele><time>2026-05-01T09:24:32.998Z</time></trkpt><trkpt lat="42.25592644574519" lon="14.219783111383876"><ele>190.0</ele><time>2026-05-01T09:24:34Z</time></trkpt><trkpt lat="42.255928638785804" lon="14.219972583604951"><ele>190.0</ele><time>2026-05-01T09:24:35Z</time></trkpt><trkpt lat="42.25589909067314" lon="14.220190537065534"><ele>187.25</ele><time>2026-05-01T09:24:36Z</time></trkpt><trkpt lat="42.255869837667895" lon="14.22042350663217"><ele>184.5</ele><time>2026-05-01T09:24:37Z</time></trkpt><trkpt lat="42.2558350702705" lon="14.220619039790384"><ele>181.75</ele><time>2026-05-01T09:24:38Z</time></trkpt><trkpt lat="42.255797903470246" lon="14.220767351153404"><ele>179.0</ele><time>2026-05-01T09:24:39Z</time></trkpt><trkpt lat="42.255746962809866" lon="14.220895145330113"><ele>178.5</ele><time>2026-05-01T09:24:40Z</time></trkpt><trkpt lat="42.2556853897304" lon="14.221003315474135"><ele>178.0</ele><time>2026-05-01T09:24:41Z</time></trkpt><trkpt lat="42.25555863303431" lon="14.221039633621663"><ele>177.5</ele><time>2026-05-01T09:24:42Z</time></trkpt><trkpt lat="42.2554357536173" lon="14.221112294023875"><ele>177.0</ele><time>2026-05-01T09:24:43Z</time></trkpt><trkpt lat="42.25529415327526" lon="14.221217298402848"><ele>177.0</ele><time>2026-05-01T09:24:44Z</time></trkpt><trkpt lat="42.25515048093853" lon="14.221307778563887"><ele>177.0</ele><time>2026-05-01T09:24:45Z</time></trkpt><trkpt lat="42.25501091322966" lon="14.221373703936914"><ele>177.0</ele><time>2026-05-01T09:24:46Z</time></trkpt><trkpt lat="42.2548907369475" lon="14.221453686292328"><ele>177.0</ele><time>2026-05-01T09:24:47Z</time></trkpt><trkpt lat="42.25476641729554" lon="14.221533542913654"><ele>175.0</ele><time>2026-05-01T09:24:48Z</time></trkpt><trkpt lat="42.25466399230213" lon="14.221576693586155"><ele>173.0</ele><time>2026-05-01T09:24:49Z</time></trkpt><trkpt lat="42.25456240864063" lon="14.221570787876193"><ele>171.0</ele><time>2026-05-01T09:24:50Z</time></trkpt><trkpt lat="42.254462912647924" lon="14.221465209106295"><ele>169.0</ele><time>2026-05-01T09:24:51Z</time></trkpt><trkpt lat="42.25440063006209" lon="14.22133238063304"><ele>169.0</ele><time>2026-05-01T09:24:52Z</time></trkpt><trkpt lat="42.25431568361771" lon="14.22120466286532"><ele>169.0</ele><time>2026-05-01T09:24:53Z</time></trkpt><trkpt lat="42.254251455289" lon="14.221093944046292"><ele>169.0</ele><time>2026-05-01T09:24:54Z</time></trkpt><trkpt lat="42.254142508056376" lon="14.221075692280731"><ele>169.0</ele><time>2026-05-01T09:24:56Z</time></trkpt><trkpt lat="42.25404841694255" lon="14.221126693182837"><ele>169.0</ele><time>2026-05-01T09:24:57Z</time></trkpt><trkpt lat="42.25396551879555" lon="14.221143970833488"><ele>169.2</ele><time>2026-05-01T09:24:58Z</time></trkpt><trkpt lat="42.253900565385756" lon="14.221126314981449"><ele>169.39999999999998</ele><time>2026-05-01T09:24:59Z</time></trkpt><trkpt lat="42.25384538981076" lon="14.221069688467916"><ele>169.6</ele><time>2026-05-01T09:25:00Z</time></trkpt><trkpt lat="42.253808280532645" lon="14.220922345081378"><ele>169.8</ele><time>2026-05-01T09:25:01Z</time></trkpt><trkpt lat="42.25373017077487" lon="14.220767909217955"><ele>170.0</ele><time>2026-05-01T09:25:02Z</time></trkpt><trkpt lat="42.25364617457133" lon="14.22063744375117"><ele>170.25</ele><time>2026-05-01T09:25:03Z</time></trkpt><trkpt lat="42.25356530556951" lon="14.220574785039389"><ele>170.5</ele><time>2026-05-01T09:25:04Z</time></trkpt><trkpt lat="42.25344978506646" lon="14.220562196954544"><ele>170.75</ele><time>2026-05-01T09:25:04.999Z</time></trkpt><trkpt lat="42.25329527603446" lon="14.22057646838823"><ele>171.0</ele><time>2026-05-01T09:25:05.999Z</time></trkpt><trkpt lat="42.253132250687464" lon="14.220594960558913"><ele>173.0</ele><time>2026-05-01T09:25:06.999Z</time></trkpt><trkpt lat="42.25296873078603" lon="14.220573625522132"><ele>175.0</ele><time>2026-05-01T09:25:07.999Z</time></trkpt><trkpt lat="42.252814236457546" lon="14.220568729539458"><ele>177.0</ele><time>2026-05-01T09:25:08.999Z</time></trkpt><trkpt lat="42.2526568301655" lon="14.220552884472502"><ele>177.0</ele><time>2026-05-01T09:25:09.999Z</time></trkpt><trkpt lat="42.252497104748095" lon="14.220541845743021"><ele>177.0</ele><time>2026-05-01T09:25:10.999Z</time></trkpt><trkpt lat="42.252337134459545" lon="14.220495389258318"><ele>177.0</ele><time>2026-05-01T09:25:11.999Z</time></trkpt><trkpt lat="42.25218139990853" lon="14.22044020023164"><ele>179.0</ele><time>2026-05-01T09:25:12.999Z</time></trkpt><trkpt lat="42.25203927659701" lon="14.220369835360014"><ele>181.0</ele><time>2026-05-01T09:25:13.999Z</time></trkpt><trkpt lat="42.25190751783152" lon="14.220302963043515"><ele>183.0</ele><time>2026-05-01T09:25:14.999Z</time></trkpt><trkpt lat="42.251777276906246" lon="14.220245375498683"><ele>185.0</ele><time>2026-05-01T09:25:15.999Z</time></trkpt><trkpt lat="42.25162880262311" lon="14.22018934825306"><ele>187.66666666666666</ele><time>2026-05-01T09:25:16.999Z</time></trkpt><trkpt lat="42.25144521790295" lon="14.220146689369889"><ele>190.33333333333331</ele><time>2026-05-01T09:25:17.999Z</time></trkpt><trkpt lat="42.251244772893195" lon="14.220111632658627"><ele>193.0</ele><time>2026-05-01T09:25:18.999Z</time></trkpt><trkpt lat="42.251046301805026" lon="14.220090458881906"><ele>193.0</ele><time>2026-05-01T09:25:19.999Z</time></trkpt><trkpt lat="42.25087988560241" lon="14.220068693936037"><ele>193.0</ele><time>2026-05-01T09:25:20.999Z</time></trkpt><trkpt lat="42.25073225480375" lon="14.220096145316116"><ele>193.0</ele><time>2026-05-01T09:25:21.999Z</time></trkpt><trkpt lat="42.25060993966962" lon="14.220156639056842"><ele>193.0</ele><time>2026-05-01T09:25:22.999Z</time></trkpt><trkpt lat="42.25048583751457" lon="14.2201204986126"><ele>194.25</ele><time>2026-05-01T09:25:23.999Z</time></trkpt><trkpt lat="42.250358321663825" lon="14.220048849368434"><ele>195.5</ele><time>2026-05-01T09:25:24.999Z</time></trkpt><trkpt lat="42.250227948956095" lon="14.219969125925243"><ele>196.75</ele><time>2026-05-01T09:25:25.999Z</time></trkpt><trkpt lat="42.25010454424344" lon="14.219885076426577"><ele>198.0</ele><time>2026-05-01T09:25:26.999Z</time></trkpt><trkpt lat="42.24999713442541" lon="14.219849797150335"><ele>198.0</ele><time>2026-05-01T09:25:27.999Z</time></trkpt><trkpt lat="42.249912288034075" lon="14.219832335652034"><ele>198.0</ele><time>2026-05-01T09:25:28.999Z</time></trkpt><trkpt lat="42.24984883813534" lon="14.219838341208034"><ele>198.0</ele><time>2026-05-01T09:25:29.999Z</time></trkpt><trkpt lat="42.2497654401205" lon="14.219814415536538"><ele>198.0</ele><time>2026-05-01T09:25:30.999Z</time></trkpt><trkpt lat="42.24975512188739" lon="14.219695510137049"><ele>198.0</ele><time>2026-05-01T09:25:31.999Z</time></trkpt><trkpt lat="42.24971774715946" lon="14.219579568968024"><ele>198.0</ele><time>2026-05-01T09:25:32.999Z</time></trkpt><trkpt lat="42.24967639367921" lon="14.219452944309875"><ele>201.33333333333334</ele><time>2026-05-01T09:25:33.999Z</time></trkpt><trkpt lat="42.249622592737424" lon="14.219333942074694"><ele>204.66666666666669</ele><time>2026-05-01T09:25:34.999Z</time></trkpt><trkpt lat="42.24959359076809" lon="14.219255553728008"><ele>208.0</ele><time>2026-05-01T09:25:35.999Z</time></trkpt><trkpt lat="42.24947217092993" lon="14.219288517972602"><ele>211.33333333333334</ele><time>2026-05-01T09:25:39.999Z</time></trkpt><trkpt lat="42.249447101332336" lon="14.219393224352386"><ele>214.66666666666669</ele><time>2026-05-01T09:25:41.999Z</time></trkpt><trkpt lat="42.249444159203925" lon="14.219481583736394"><ele>218.0</ele><time>2026-05-01T09:25:43.999Z</time></trkpt><trkpt lat="42.24937380815251" lon="14.219542390956153"><ele>218.0</ele><time>2026-05-01T09:25:58.999Z</time></trkpt><trkpt lat="42.24930588974678" lon="14.219497747758735"><ele>218.0</ele><time>2026-05-01T09:26:00.999Z</time></trkpt><trkpt lat="42.2492155610749" lon="14.219452491646836"><ele>218.0</ele><time>2026-05-01T09:33:39Z</time></trkpt><trkpt lat="42.24911399816542" lon="14.219429363564464"><ele>218.0</ele><time>2026-05-01T09:33:41Z</time></trkpt><trkpt lat="42.24902005142516" lon="14.219407796470458"><ele>218.0</ele><time>2026-05-01T09:33:42.999Z</time></trkpt><trkpt lat="42.248951415404164" lon="14.219349304191214"><ele>218.2</ele><time>2026-05-01T09:33:44.999Z</time></trkpt><trkpt lat="42.24890441930002" lon="14.21924889393393"><ele>218.4</ele><time>2026-05-01T09:33:46.999Z</time></trkpt><trkpt lat="42.24885336384013" lon="14.219119436839614"><ele>218.59999999999997</ele><time>2026-05-01T09:33:48.999Z</time></trkpt><trkpt lat="42.24882207136472" lon="14.218977096976168"><ele>218.79999999999998</ele><time>2026-05-01T09:33:50.999Z</time></trkpt><trkpt lat="42.248842598035594" lon="14.218855036892117"><ele>219.0</ele><time>2026-05-01T09:33:52.999Z</time></trkpt><trkpt lat="42.24887024674263" lon="14.218688351642902"><ele>219.0</ele><time>2026-05-01T09:33:54.999Z</time></trkpt><trkpt lat="42.24887076219937" lon="14.21860119525057"><ele>219.0</ele><time>2026-05-01T09:33:55.999Z</time></trkpt><trkpt lat="42.248852082534036" lon="14.21850598944151"><ele>219.0</ele><time>2026-05-01T09:33:56.999Z</time></trkpt><trkpt lat="42.24882497839803" lon="14.218396015270248"><ele>219.0</ele><time>2026-05-01T09:33:57.999Z</time></trkpt><trkpt lat="42.248799598606176" lon="14.218317978572264"><ele>219.0</ele><time>2026-05-01T09:33:58.999Z</time></trkpt><trkpt lat="42.24876171542877" lon="14.21821512460534"><ele>219.0</ele><time>2026-05-01T09:33:59.999Z</time></trkpt><trkpt lat="42.24875124477455" lon="14.218075958501228"><ele>221.66666666666666</ele><time>2026-05-01T09:34:01.999Z</time></trkpt><trkpt lat="42.24872595244919" lon="14.217912202551684"><ele>224.33333333333331</ele><time>2026-05-01T09:34:03.999Z</time></trkpt><trkpt lat="42.24871021507426" lon="14.217815680096221"><ele>227.0</ele><time>2026-05-01T09:34:04.999Z</time></trkpt><trkpt lat="42.24869000558644" lon="14.21770564542026"><ele>229.66666666666666</ele><time>2026-05-01T09:34:05.999Z</time></trkpt><trkpt lat="42.248677228199526" lon="14.21761251907991"><ele>232.33333333333331</ele><time>2026-05-01T09:34:06.999Z</time></trkpt><trkpt lat="42.2486584601694" lon="14.217520029319468"><ele>235.0</ele><time>2026-05-01T09:34:07.999Z</time></trkpt><trkpt lat="42.248643614832524" lon="14.217431369623931"><ele>235.0</ele><time>2026-05-01T09:34:08.999Z</time></trkpt><trkpt lat="42.24863090354948" lon="14.217330930855361"><ele>235.0</ele><time>2026-05-01T09:34:09.999Z</time></trkpt><trkpt lat="42.24862495830178" lon="14.21723022352972"><ele>235.0</ele><time>2026-05-01T09:34:10.999Z</time></trkpt><trkpt lat="42.24860091407718" lon="14.217111737690699"><ele>235.0</ele><time>2026-05-01T09:34:11.999Z</time></trkpt><trkpt lat="42.24853211136525" lon="14.21695778661815"><ele>235.0</ele><time>2026-05-01T09:34:13.999Z</time></trkpt><trkpt lat="42.248491134496085" lon="14.216868880496836"><ele>237.14285714285714</ele><time>2026-05-01T09:34:14.999Z</time></trkpt><trkpt lat="42.24846501599729" lon="14.216782203927837"><ele>239.28571428571428</ele><time>2026-05-01T09:34:15.999Z</time></trkpt><trkpt lat="42.248440968758885" lon="14.216696725316348"><ele>241.42857142857142</ele><time>2026-05-01T09:34:16.999Z</time></trkpt><trkpt lat="42.24841850123786" lon="14.216616047752552"><ele>243.57142857142856</ele><time>2026-05-01T09:34:17.999Z</time></trkpt><trkpt lat="42.248393244015276" lon="14.216536329811339"><ele>245.71428571428572</ele><time>2026-05-01T09:34:18.999Z</time></trkpt><trkpt lat="42.24837967307955" lon="14.216450184032587"><ele>247.85714285714283</ele><time>2026-05-01T09:34:19.999Z</time></trkpt><trkpt lat="42.248348323050244" lon="14.216357239882472"><ele>250.0</ele><time>2026-05-01T09:34:20.999Z</time></trkpt><trkpt lat="42.248331326310094" lon="14.21627068056079"><ele>252.2</ele><time>2026-05-01T09:34:21.999Z</time></trkpt><trkpt lat="42.248291033679955" lon="14.216108310176308"><ele>254.4</ele><time>2026-05-01T09:34:23.999Z</time></trkpt><trkpt lat="42.24823973039633" lon="14.215947772895777"><ele>256.6</ele><time>2026-05-01T09:34:25.999Z</time></trkpt><trkpt lat="42.2482235210737" lon="14.21586247740672"><ele>258.8</ele><time>2026-05-01T09:34:26.999Z</time></trkpt><trkpt lat="42.24820024886416" lon="14.21577547404036"><ele>261.0</ele><time>2026-05-01T09:34:27.999Z</time></trkpt><trkpt lat="42.24816429531364" lon="14.215701467564507"><ele>259.40000000000003</ele><time>2026-05-01T09:34:28.999Z</time></trkpt><trkpt lat="42.24809597823166" lon="14.215588388234888"><ele>257.8</ele><time>2026-05-01T09:34:30.999Z</time></trkpt><trkpt lat="42.248055693439994" lon="14.215504841653287"><ele>256.20000000000005</ele><time>2026-05-01T09:34:31.999Z</time></trkpt><trkpt lat="42.24801020369111" lon="14.215388369354693"><ele>254.60000000000002</ele><time>2026-05-01T09:34:33.998Z</time></trkpt><trkpt lat="42.24795750107454" lon="14.215222708551185"><ele>253.0</ele><time>2026-05-01T09:34:35.998Z</time></trkpt><trkpt lat="42.24792191905312" lon="14.215142785443803"><ele>252.99999999999997</ele><time>2026-05-01T09:34:36.998Z</time></trkpt><trkpt lat="42.24789332076429" lon="14.215063418957307"><ele>253.0</ele><time>2026-05-01T09:34:37.998Z</time></trkpt><trkpt lat="42.247903001399685" lon="14.214942835561862"><ele>253.0</ele><time>2026-05-01T09:34:39.998Z</time></trkpt><trkpt lat="42.247901590420916" lon="14.214843759039272"><ele>253.0</ele><time>2026-05-01T09:34:40.998Z</time></trkpt><trkpt lat="42.24791647084576" lon="14.21472113684564"><ele>252.99999999999997</ele><time>2026-05-01T09:34:41.998Z</time></trkpt><trkpt lat="42.247923756956666" lon="14.21461743608679"><ele>253.0</ele><time>2026-05-01T09:34:42.998Z</time></trkpt><trkpt lat="42.247929190637" lon="14.214522869293331"><ele>254.83333333333331</ele><time>2026-05-01T09:34:43.998Z</time></trkpt><trkpt lat="42.2479159146775" lon="14.214421242194687"><ele>256.66666666666663</ele><time>2026-05-01T09:34:44.998Z</time></trkpt><trkpt lat="42.247890385861155" lon="14.214314071654767"><ele>258.5</ele><time>2026-05-01T09:34:45.998Z</time></trkpt><trkpt lat="42.24786685950753" lon="14.214214754430152"><ele>260.3333333333333</ele><time>2026-05-01T09:34:46.998Z</time></trkpt><trkpt lat="42.24783664404203" lon="14.214128653749693"><ele>262.1666666666667</ele><time>2026-05-01T09:34:47.998Z</time></trkpt><trkpt lat="42.24781029180804" lon="14.214045848029876"><ele>264.0</ele><time>2026-05-01T09:34:48.998Z</time></trkpt><trkpt lat="42.247765631840245" lon="14.213915147035443"><ele>266.0</ele><time>2026-05-01T09:34:50.998Z</time></trkpt><trkpt lat="42.24770025721237" lon="14.213782757813656"><ele>268.0</ele><time>2026-05-01T09:34:52.998Z</time></trkpt><trkpt lat="42.247631630224284" lon="14.213687404519955"><ele>270.0</ele><time>2026-05-01T09:34:54.998Z</time></trkpt><trkpt lat="42.24758561945391" lon="14.213572264248468"><ele>272.0</ele><time>2026-05-01T09:34:56.998Z</time></trkpt><trkpt lat="42.247576341513316" lon="14.21347041170152"><ele>274.0</ele><time>2026-05-01T09:34:57.998Z</time></trkpt><trkpt lat="42.24756170436868" lon="14.213337476506897"><ele>274.0</ele><time>2026-05-01T09:34:58.998Z</time></trkpt><trkpt lat="42.24753977082939" lon="14.21322194302749"><ele>274.0</ele><time>2026-05-01T09:34:59.998Z</time></trkpt><trkpt lat="42.24753964495456" lon="14.213136553825892"><ele>274.0</ele><time>2026-05-01T09:35:00.998Z</time></trkpt><trkpt lat="42.247514971621925" lon="14.213028436105775"><ele>274.0</ele><time>2026-05-01T09:35:01.998Z</time></trkpt><trkpt lat="42.24750106523577" lon="14.21291594236096"><ele>274.0</ele><time>2026-05-01T09:35:02.998Z</time></trkpt><trkpt lat="42.24749337426559" lon="14.212803103859855"><ele>274.0</ele><time>2026-05-01T09:35:04Z</time></trkpt><trkpt lat="42.24748817279466" lon="14.212687004354782"><ele>274.3333333333333</ele><time>2026-05-01T09:35:05Z</time></trkpt><trkpt lat="42.24748472401679" lon="14.21256822009642"><ele>274.66666666666663</ele><time>2026-05-01T09:35:06Z</time></trkpt><trkpt lat="42.24747656176325" lon="14.21246953102724"><ele>275.0</ele><time>2026-05-01T09:35:07Z</time></trkpt><trkpt lat="42.247451139282745" lon="14.21230800484711"><ele>275.3333333333333</ele><time>2026-05-01T09:35:09Z</time></trkpt><trkpt lat="42.24743489125903" lon="14.212218823639029"><ele>275.6666666666667</ele><time>2026-05-01T09:35:10Z</time></trkpt><trkpt lat="42.24741838850738" lon="14.21212040796122"><ele>276.0</ele><time>2026-05-01T09:35:11Z</time></trkpt><trkpt lat="42.247395879821575" lon="14.212000216898295"><ele>276.6666666666667</ele><time>2026-05-01T09:35:12Z</time></trkpt><trkpt lat="42.247371223738334" lon="14.211895226023072"><ele>277.3333333333333</ele><time>2026-05-01T09:35:13Z</time></trkpt><trkpt lat="42.24734127972246" lon="14.211806224201004"><ele>278.0</ele><time>2026-05-01T09:35:14Z</time></trkpt><trkpt lat="42.24731310259543" lon="14.211727479584846"><ele>278.66666666666663</ele><time>2026-05-01T09:35:15Z</time></trkpt><trkpt lat="42.24727072418851" lon="14.211646925774364"><ele>279.3333333333333</ele><time>2026-05-01T09:35:16Z</time></trkpt><trkpt lat="42.24722663401984" lon="14.211580204274199"><ele>280.0</ele><time>2026-05-01T09:35:17Z</time></trkpt><trkpt lat="42.24723591533198" lon="14.211453568519588"><ele>280.0</ele><time>2026-05-01T09:35:20Z</time></trkpt><trkpt lat="42.247278427120165" lon="14.211357173722043"><ele>280.0</ele><time>2026-05-01T09:35:23Z</time></trkpt><trkpt lat="42.24731176135441" lon="14.211255247064228"><ele>280.0</ele><time>2026-05-01T09:35:27Z</time></trkpt><trkpt lat="42.247345147643124" lon="14.211167167214676"><ele>280.0</ele><time>2026-05-01T09:38:30.999Z</time></trkpt><trkpt lat="42.24736603300872" lon="14.211015188401895"><ele>280.0</ele><time>2026-05-01T09:38:32.999Z</time></trkpt><trkpt lat="42.24736588684305" lon="14.210911489397143"><ele>280.0</ele><time>2026-05-01T09:38:33.999Z</time></trkpt><trkpt lat="42.24734740912715" lon="14.210818362713734"><ele>281.7142857142857</ele><time>2026-05-01T09:38:34.999Z</time></trkpt><trkpt lat="42.247337320422744" lon="14.210726749658763"><ele>283.42857142857144</ele><time>2026-05-01T09:38:35.999Z</time></trkpt><trkpt lat="42.24732766928629" lon="14.21063833031647"><ele>285.1428571428571</ele><time>2026-05-01T09:38:36.998Z</time></trkpt><trkpt lat="42.24731909084088" lon="14.210548414670718"><ele>286.8571428571429</ele><time>2026-05-01T09:38:37.998Z</time></trkpt><trkpt lat="42.24731634610612" lon="14.210461457686801"><ele>288.57142857142856</ele><time>2026-05-01T09:38:38.998Z</time></trkpt><trkpt lat="42.24732476325343" lon="14.210364510249928"><ele>290.2857142857143</ele><time>2026-05-01T09:38:40.998Z</time></trkpt><trkpt lat="42.2473586318729" lon="14.21023515706797"><ele>292.0</ele><time>2026-05-01T09:38:42.998Z</time></trkpt><trkpt lat="42.24736711736549" lon="14.210138179246156"><ele>294.16666666666663</ele><time>2026-05-01T09:38:43.998Z</time></trkpt><trkpt lat="42.2473719367445" lon="14.210030454247088"><ele>296.3333333333333</ele><time>2026-05-01T09:38:44.998Z</time></trkpt><trkpt lat="42.24737591127707" lon="14.209940523860933"><ele>298.5</ele><time>2026-05-01T09:38:45.998Z</time></trkpt><trkpt lat="42.24737836931253" lon="14.209854618364337"><ele>300.6666666666667</ele><time>2026-05-01T09:38:46.998Z</time></trkpt><trkpt lat="42.2473796253717" lon="14.209693503360556"><ele>302.83333333333337</ele><time>2026-05-01T09:38:48.998Z</time></trkpt><trkpt lat="42.247379064785825" lon="14.209596014663127"><ele>305.0</ele><time>2026-05-01T09:38:49.998Z</time></trkpt><trkpt lat="42.24733921831086" lon="14.209451660979814"><ele>307.0</ele><time>2026-05-01T09:38:51.998Z</time></trkpt><trkpt lat="42.24731669225993" lon="14.209362222430432"><ele>309.0</ele><time>2026-05-01T09:38:52.998Z</time></trkpt><trkpt lat="42.24730429358046" lon="14.209198463397334"><ele>311.0</ele><time>2026-05-01T09:38:54.998Z</time></trkpt><trkpt lat="42.24727638368347" lon="14.209063546924542"><ele>313.0</ele><time>2026-05-01T09:38:56.998Z</time></trkpt><trkpt lat="42.24721154050125" lon="14.208972548764205"><ele>315.0</ele><time>2026-05-01T09:38:58.998Z</time></trkpt><trkpt lat="42.24710405172172" lon="14.20894283804281"><ele>318.2</ele><time>2026-05-01T09:39:00.998Z</time></trkpt><trkpt lat="42.24698422653518" lon="14.208942754763287"><ele>321.4</ele><time>2026-05-01T09:39:02.998Z</time></trkpt><trkpt lat="42.246863120411895" lon="14.208895670108967"><ele>324.6</ele><time>2026-05-01T09:39:04.998Z</time></trkpt><trkpt lat="42.246793922588154" lon="14.208825741889495"><ele>327.8</ele><time>2026-05-01T09:39:07.998Z</time></trkpt><trkpt lat="42.24675020415869" lon="14.208691009694654"><ele>331.0</ele><time>2026-05-01T09:39:09.998Z</time></trkpt><trkpt lat="42.24671266605802" lon="14.208603171852042"><ele>331.0</ele><time>2026-05-01T09:39:10.998Z</time></trkpt><trkpt lat="42.24661253978582" lon="14.208469680507761"><ele>331.0</ele><time>2026-05-01T09:39:12.998Z</time></trkpt><trkpt lat="42.24656078317421" lon="14.20838326899453"><ele>331.0</ele><time>2026-05-01T09:39:13.998Z</time></trkpt><trkpt lat="42.24650286487212" lon="14.208295493060714"><ele>331.0</ele><time>2026-05-01T09:39:14.998Z</time></trkpt><trkpt lat="42.246452924118074" lon="14.208225501410034"><ele>331.0</ele><time>2026-05-01T09:39:16Z</time></trkpt><trkpt lat="42.24637690153251" lon="14.20809739993052"><ele>330.8333333333333</ele><time>2026-05-01T09:39:18Z</time></trkpt><trkpt lat="42.24633697442949" lon="14.208016345970739"><ele>330.66666666666663</ele><time>2026-05-01T09:39:19Z</time></trkpt><trkpt lat="42.24629590847222" lon="14.207936243313261"><ele>330.5</ele><time>2026-05-01T09:39:20Z</time></trkpt><trkpt lat="42.24629950266807" lon="14.207839980802332"><ele>330.3333333333333</ele><time>2026-05-01T09:39:21Z</time></trkpt><trkpt lat="42.246273665524726" lon="14.207671906578279"><ele>330.1666666666667</ele><time>2026-05-01T09:39:23Z</time></trkpt><trkpt lat="42.246264064387276" lon="14.20756655128197"><ele>330.0</ele><time>2026-05-01T09:39:24Z</time></trkpt><trkpt lat="42.2462529209437" lon="14.207470875862757"><ele>330.0</ele><time>2026-05-01T09:39:25Z</time></trkpt><trkpt lat="42.24627135006306" lon="14.207388868645603"><ele>330.0</ele><time>2026-05-01T09:39:26Z</time></trkpt><trkpt lat="42.24628689482721" lon="14.20723275204099"><ele>330.0</ele><time>2026-05-01T09:39:28Z</time></trkpt><trkpt lat="42.24628231513911" lon="14.207111230789431"><ele>330.0</ele><time>2026-05-01T09:39:29Z</time></trkpt><trkpt lat="42.246245356412075" lon="14.207024146112193"><ele>330.0</ele><time>2026-05-01T09:39:30Z</time></trkpt><trkpt lat="42.24623764261805" lon="14.20690206313026"><ele>330.0</ele><time>2026-05-01T09:39:31Z</time></trkpt><trkpt lat="42.24623659246607" lon="14.206787305726094"><ele>332.00000000000006</ele><time>2026-05-01T09:39:32Z</time></trkpt><trkpt lat="42.24623696358628" lon="14.206689204520304"><ele>334.0</ele><time>2026-05-01T09:39:33Z</time></trkpt><trkpt lat="42.24623653832394" lon="14.206602028209192"><ele>336.0</ele><time>2026-05-01T09:39:34Z</time></trkpt><trkpt lat="42.24624543984596" lon="14.20651461056077"><ele>338.0</ele><time>2026-05-01T09:39:35Z</time></trkpt><trkpt lat="42.2462717951753" lon="14.206421763592298"><ele>340.0</ele><time>2026-05-01T09:39:36Z</time></trkpt><trkpt lat="42.2463008679242" lon="14.20633037056008"><ele>342.00000000000006</ele><time>2026-05-01T09:39:37Z</time></trkpt><trkpt lat="42.24633642529488" lon="14.20621099679657"><ele>344.0</ele><time>2026-05-01T09:39:38Z</time></trkpt><trkpt lat="42.24636893068342" lon="14.20612745900658"><ele>345.6666666666667</ele><time>2026-05-01T09:39:39Z</time></trkpt><trkpt lat="42.24640162853356" lon="14.206039008472825"><ele>347.33333333333337</ele><time>2026-05-01T09:39:40Z</time></trkpt><trkpt lat="42.246455187862864" lon="14.205950129870004"><ele>349.0</ele><time>2026-05-01T09:39:41Z</time></trkpt><trkpt lat="42.24649120554081" lon="14.205872571842322"><ele>350.6666666666667</ele><time>2026-05-01T09:39:42Z</time></trkpt><trkpt lat="42.2464995714961" lon="14.205734538703208"><ele>352.3333333333333</ele><time>2026-05-01T09:39:44Z</time></trkpt><trkpt lat="42.2464446170486" lon="14.205664527691106"><ele>354.0</ele><time>2026-05-01T09:39:45Z</time></trkpt><trkpt lat="42.246379296000626" lon="14.205597128649616"><ele>357.8333333333333</ele><time>2026-05-01T09:39:46Z</time></trkpt><trkpt lat="42.24633429836497" lon="14.205517680312383"><ele>361.6666666666667</ele><time>2026-05-01T09:39:47Z</time></trkpt><trkpt lat="42.24628079365777" lon="14.205448103982492"><ele>365.5</ele><time>2026-05-01T09:39:47.999Z</time></trkpt><trkpt lat="42.246212254693035" lon="14.20538139584214"><ele>369.33333333333337</ele><time>2026-05-01T09:39:48.999Z</time></trkpt><trkpt lat="42.24614963356099" lon="14.205275109977286"><ele>373.1666666666667</ele><time>2026-05-01T09:39:49.999Z</time></trkpt><trkpt lat="42.246069200179356" lon="14.205171974864756"><ele>377.0</ele><time>2026-05-01T09:39:50.999Z</time></trkpt><trkpt lat="42.246015434918384" lon="14.205091064759372"><ele>377.0</ele><time>2026-05-01T09:39:51.999Z</time></trkpt><trkpt lat="42.24594264612714" lon="14.204976578895806"><ele>377.0</ele><time>2026-05-01T09:39:53.999Z</time></trkpt><trkpt lat="42.24591052564379" lon="14.204834022886018"><ele>377.0</ele><time>2026-05-01T09:39:55.999Z</time></trkpt><trkpt lat="42.24587100450093" lon="14.204742117194485"><ele>377.0</ele><time>2026-05-01T09:40:05.999Z</time></trkpt><trkpt lat="42.245855150319976" lon="14.204545866563205"><ele>377.0</ele><time>2026-05-01T09:40:07.999Z</time></trkpt><trkpt lat="42.24590729071583" lon="14.204445601566375"><ele>377.8</ele><time>2026-05-01T09:40:08.999Z</time></trkpt><trkpt lat="42.24594347863712" lon="14.204357125188116"><ele>378.6</ele><time>2026-05-01T09:40:09.999Z</time></trkpt><trkpt lat="42.245983395503096" lon="14.204234933165779"><ele>379.40000000000003</ele><time>2026-05-01T09:40:10.999Z</time></trkpt><trkpt lat="42.24603446477444" lon="14.20411153985736"><ele>380.20000000000005</ele><time>2026-05-01T09:40:11.999Z</time></trkpt><trkpt lat="42.24606152685169" lon="14.203973547764251"><ele>381.0</ele><time>2026-05-01T09:40:12.999Z</time></trkpt><trkpt lat="42.24607285450236" lon="14.203855133372373"><ele>382.4</ele><time>2026-05-01T09:40:13.999Z</time></trkpt><trkpt lat="42.24607253590246" lon="14.203721863759263"><ele>383.8</ele><time>2026-05-01T09:40:14.999Z</time></trkpt><trkpt lat="42.24606227984138" lon="14.203572936067149"><ele>385.2</ele><time>2026-05-01T09:40:15.999Z</time></trkpt><trkpt lat="42.24604225941496" lon="14.20341091207743"><ele>386.59999999999997</ele><time>2026-05-01T09:40:16.999Z</time></trkpt><trkpt lat="42.246024139990446" lon="14.203279868124593"><ele>388.0</ele><time>2026-05-01T09:40:17.999Z</time></trkpt><trkpt lat="42.2459828252505" lon="14.203149091351824"><ele>389.2</ele><time>2026-05-01T09:40:18.999Z</time></trkpt><trkpt lat="42.24593170481258" lon="14.203001457731439"><ele>390.4</ele><time>2026-05-01T09:40:19.999Z</time></trkpt><trkpt lat="42.24587942383311" lon="14.202890136281143"><ele>391.59999999999997</ele><time>2026-05-01T09:40:20.999Z</time></trkpt><trkpt lat="42.24583439104075" lon="14.202822565347667"><ele>392.79999999999995</ele><time>2026-05-01T09:40:21.999Z</time></trkpt><trkpt lat="42.24568920040702" lon="14.20273911583713"><ele>394.0</ele><time>2026-05-01T09:40:23.999Z</time></trkpt><trkpt lat="42.24561800059381" lon="14.202699447087932"><ele>395.33333333333337</ele><time>2026-05-01T09:40:24.999Z</time></trkpt><trkpt lat="42.24556637867656" lon="14.20263089075589"><ele>396.6666666666667</ele><time>2026-05-01T09:40:25.999Z</time></trkpt><trkpt lat="42.24551945571075" lon="14.202517458459912"><ele>398.0</ele><time>2026-05-01T09:40:26.999Z</time></trkpt><trkpt lat="42.24546410012945" lon="14.20244078918254"><ele>399.33333333333337</ele><time>2026-05-01T09:40:27.999Z</time></trkpt><trkpt lat="42.24544937756431" lon="14.202329782652718"><ele>400.6666666666667</ele><time>2026-05-01T09:40:29.999Z</time></trkpt><trkpt lat="42.24535819633072" lon="14.202404703683344"><ele>402.0</ele><time>2026-05-01T09:40:33.999Z</time></trkpt><trkpt lat="42.24531896149098" lon="14.202556066682726"><ele>402.0</ele><time>2026-05-01T09:40:34.999Z</time></trkpt><trkpt lat="42.245262056166275" lon="14.202720365347233"><ele>402.0</ele><time>2026-05-01T09:40:35.999Z</time></trkpt><trkpt lat="42.24516294656216" lon="14.202825217591588"><ele>402.0</ele><time>2026-05-01T09:40:36.999Z</time></trkpt><trkpt lat="42.24503891292382" lon="14.202898751605161"><ele>402.0</ele><time>2026-05-01T09:40:37.999Z</time></trkpt><trkpt lat="42.24490066392082" lon="14.202976531346765"><ele>401.5</ele><time>2026-05-01T09:40:38.999Z</time></trkpt><trkpt lat="42.24475691452665" lon="14.203017495354677"><ele>401.0</ele><time>2026-05-01T09:40:39.999Z</time></trkpt><trkpt lat="42.244649369315134" lon="14.203068300252045"><ele>400.5</ele><time>2026-05-01T09:40:40.998Z</time></trkpt><trkpt lat="42.24455776122335" lon="14.2031580287671"><ele>400.0</ele><time>2026-05-01T09:40:41.998Z</time></trkpt><trkpt lat="42.244475297510306" lon="14.203306074967946"><ele>400.0</ele><time>2026-05-01T09:40:42.998Z</time></trkpt><trkpt lat="42.244425640596276" lon="14.203459887298465"><ele>400.0</ele><time>2026-05-01T09:40:43.998Z</time></trkpt><trkpt lat="42.244391589588275" lon="14.203663156257559"><ele>400.0</ele><time>2026-05-01T09:40:44.998Z</time></trkpt><trkpt lat="42.24436865446615" lon="14.203892700010128"><ele>398.0</ele><time>2026-05-01T09:40:45.998Z</time></trkpt><trkpt lat="42.24433321324774" lon="14.204080189158992"><ele>396.0</ele><time>2026-05-01T09:40:46.998Z</time></trkpt><trkpt lat="42.24430747746254" lon="14.204228282399937"><ele>394.0</ele><time>2026-05-01T09:40:47.998Z</time></trkpt><trkpt lat="42.24426430225545" lon="14.204367550687504"><ele>392.0</ele><time>2026-05-01T09:40:48.998Z</time></trkpt><trkpt lat="42.24418415119142" lon="14.20450407845996"><ele>392.0</ele><time>2026-05-01T09:40:49.998Z</time></trkpt><trkpt lat="42.244079493316605" lon="14.204610790686434"><ele>392.0</ele><time>2026-05-01T09:40:50.998Z</time></trkpt><trkpt lat="42.24395444737902" lon="14.204778199234305"><ele>392.0</ele><time>2026-05-01T09:40:51.998Z</time></trkpt><trkpt lat="42.24383503035802" lon="14.204903024402263"><ele>393.0</ele><time>2026-05-01T09:40:52.998Z</time></trkpt><trkpt lat="42.24372897900869" lon="14.205045967053499"><ele>394.0</ele><time>2026-05-01T09:40:53.998Z</time></trkpt><trkpt lat="42.24364920107784" lon="14.205220771510117"><ele>395.0</ele><time>2026-05-01T09:40:54.998Z</time></trkpt><trkpt lat="42.24359012847344" lon="14.20542164547127"><ele>395.0</ele><time>2026-05-01T09:40:55.998Z</time></trkpt><trkpt lat="42.2435396726601" lon="14.205601222233888"><ele>395.0</ele><time>2026-05-01T09:40:56.998Z</time></trkpt><trkpt lat="42.243493169655444" lon="14.205746322732614"><ele>395.0</ele><time>2026-05-01T09:40:57.998Z</time></trkpt><trkpt lat="42.24341291341845" lon="14.205873727002848"><ele>395.0</ele><time>2026-05-01T09:40:58.998Z</time></trkpt><trkpt lat="42.24330619199449" lon="14.206005924873274"><ele>396.3333333333333</ele><time>2026-05-01T09:40:59.998Z</time></trkpt><trkpt lat="42.24315434428257" lon="14.206119044510169"><ele>397.66666666666663</ele><time>2026-05-01T09:41:00.998Z</time></trkpt><trkpt lat="42.24302089140477" lon="14.206245213561587"><ele>399.0</ele><time>2026-05-01T09:41:01.998Z</time></trkpt><trkpt lat="42.24287797118873" lon="14.206367396059578"><ele>399.0</ele><time>2026-05-01T09:41:02.998Z</time></trkpt><trkpt lat="42.24273859841672" lon="14.206486936221165"><ele>399.0</ele><time>2026-05-01T09:41:03.998Z</time></trkpt><trkpt lat="42.24260664289989" lon="14.20659219609886"><ele>399.0</ele><time>2026-05-01T09:41:04.998Z</time></trkpt><trkpt lat="42.24248439881846" lon="14.206698936904095"><ele>393.75</ele><time>2026-05-01T09:41:05.998Z</time></trkpt><trkpt lat="42.24236778096489" lon="14.20678846526707"><ele>388.5</ele><time>2026-05-01T09:41:06.998Z</time></trkpt><trkpt lat="42.24223336602851" lon="14.206859029012666"><ele>383.25</ele><time>2026-05-01T09:41:07.998Z</time></trkpt><trkpt lat="42.24209096516995" lon="14.206895948181613"><ele>378.0</ele><time>2026-05-01T09:41:08.998Z</time></trkpt><trkpt lat="42.241929522650445" lon="14.206900167817563"><ele>378.0</ele><time>2026-05-01T09:41:09.998Z</time></trkpt><trkpt lat="42.241764139945296" lon="14.206916313519184"><ele>378.0</ele><time>2026-05-01T09:41:10.998Z</time></trkpt><trkpt lat="42.24159494028152" lon="14.206932583356844"><ele>378.0</ele><time>2026-05-01T09:41:11.998Z</time></trkpt><trkpt lat="42.241435520382296" lon="14.206938018699436"><ele>375.0</ele><time>2026-05-01T09:41:12.998Z</time></trkpt><trkpt lat="42.24128191889252" lon="14.20694510489633"><ele>372.0</ele><time>2026-05-01T09:41:13.998Z</time></trkpt><trkpt lat="42.24113229690756" lon="14.206915357005402"><ele>369.0</ele><time>2026-05-01T09:41:14.998Z</time></trkpt><trkpt lat="42.24098994986678" lon="14.206863073454569"><ele>369.0</ele><time>2026-05-01T09:41:15.998Z</time></trkpt><trkpt lat="42.240875256647975" lon="14.206800373378666"><ele>369.0</ele><time>2026-05-01T09:41:16.998Z</time></trkpt><trkpt lat="42.24076005716653" lon="14.206761910089869"><ele>369.0</ele><time>2026-05-01T09:41:17.998Z</time></trkpt><trkpt lat="42.24066007411162" lon="14.20674173772101"><ele>369.0</ele><time>2026-05-01T09:41:18.998Z</time></trkpt><trkpt lat="42.24055057779157" lon="14.206784511103631"><ele>367.2</ele><time>2026-05-01T09:41:19.998Z</time></trkpt><trkpt lat="42.24043931784955" lon="14.206876744348278"><ele>365.4</ele><time>2026-05-01T09:41:20.998Z</time></trkpt><trkpt lat="42.24034516137055" lon="14.20694783116446"><ele>363.6</ele><time>2026-05-01T09:41:21.999Z</time></trkpt><trkpt lat="42.24025372652399" lon="14.206964783976465"><ele>361.8</ele><time>2026-05-01T09:41:22.999Z</time></trkpt><trkpt lat="42.24016772802777" lon="14.206929184273756"><ele>360.0</ele><time>2026-05-01T09:41:23.999Z</time></trkpt><trkpt lat="42.24010012244096" lon="14.206877624665067"><ele>360.0</ele><time>2026-05-01T09:41:24.999Z</time></trkpt><trkpt lat="42.24004052133829" lon="14.206834129887703"><ele>360.0</ele><time>2026-05-01T09:41:25.999Z</time></trkpt><trkpt lat="42.239941343678026" lon="14.206816445957132"><ele>360.0</ele><time>2026-05-01T09:41:27.999Z</time></trkpt><trkpt lat="42.23987183465638" lon="14.206825731004171"><ele>360.0</ele><time>2026-05-01T09:41:29.999Z</time></trkpt><trkpt lat="42.239756023780345" lon="14.206712824483072"><ele>360.0</ele><time>2026-05-01T09:41:31.999Z</time></trkpt><trkpt lat="42.239667667685964" lon="14.206624711954241"><ele>359.0</ele><time>2026-05-01T09:41:32.999Z</time></trkpt><trkpt lat="42.239585306532156" lon="14.20650523691668"><ele>358.0</ele><time>2026-05-01T09:41:33.999Z</time></trkpt><trkpt lat="42.23948584191133" lon="14.206402531296554"><ele>357.0</ele><time>2026-05-01T09:41:34.999Z</time></trkpt><trkpt lat="42.239400892982616" lon="14.20631143114761"><ele>356.0</ele><time>2026-05-01T09:41:35.999Z</time></trkpt><trkpt lat="42.23932498545402" lon="14.206219235932805"><ele>356.0</ele><time>2026-05-01T09:41:36.999Z</time></trkpt><trkpt lat="42.239262450242784" lon="14.206127051042921"><ele>356.0</ele><time>2026-05-01T09:41:37.999Z</time></trkpt><trkpt lat="42.23921829079821" lon="14.206048763614886"><ele>356.0</ele><time>2026-05-01T09:41:38.999Z</time></trkpt><trkpt lat="42.2391501029229" lon="14.20594593496715"><ele>356.0</ele><time>2026-05-01T09:41:39.999Z</time></trkpt><trkpt lat="42.23909255759105" lon="14.205819026150321"><ele>356.0</ele><time>2026-05-01T09:41:40.999Z</time></trkpt><trkpt lat="42.23903597264093" lon="14.205685630709356"><ele>353.8</ele><time>2026-05-01T09:41:41.999Z</time></trkpt><trkpt lat="42.23897764835047" lon="14.205559586752473"><ele>351.6</ele><time>2026-05-01T09:41:42.999Z</time></trkpt><trkpt lat="42.23892710980754" lon="14.205422908689464"><ele>349.4</ele><time>2026-05-01T09:41:43.999Z</time></trkpt><trkpt lat="42.23887560818663" lon="14.205330810958593"><ele>347.2</ele><time>2026-05-01T09:41:44.999Z</time></trkpt><trkpt lat="42.238819813589174" lon="14.205247374421894"><ele>345.0</ele><time>2026-05-01T09:41:45.999Z</time></trkpt><trkpt lat="42.23875966035834" lon="14.20517209467023"><ele>345.0</ele><time>2026-05-01T09:41:46.999Z</time></trkpt><trkpt lat="42.23871033069279" lon="14.205109157818734"><ele>345.0</ele><time>2026-05-01T09:41:47.999Z</time></trkpt><trkpt lat="42.23865641499902" lon="14.205039901331533"><ele>345.0</ele><time>2026-05-01T09:41:48.999Z</time></trkpt><trkpt lat="42.23860361430545" lon="14.204973037336227"><ele>345.0</ele><time>2026-05-01T09:41:49.999Z</time></trkpt><trkpt lat="42.23855997753613" lon="14.20490847443518"><ele>345.0</ele><time>2026-05-01T09:41:50.999Z</time></trkpt><trkpt lat="42.23850423932341" lon="14.20481885952155"><ele>345.0</ele><time>2026-05-01T09:41:51.999Z</time></trkpt><trkpt lat="42.23845058842616" lon="14.204727224575505"><ele>346.3333333333333</ele><time>2026-05-01T09:41:52.999Z</time></trkpt><trkpt lat="42.23839383420387" lon="14.20465704908609"><ele>347.6666666666667</ele><time>2026-05-01T09:41:53.999Z</time></trkpt><trkpt lat="42.23835545363331" lon="14.204585578172354"><ele>349.0</ele><time>2026-05-01T09:41:54.999Z</time></trkpt><trkpt lat="42.23833525501571" lon="14.204503783684183"><ele>350.33333333333337</ele><time>2026-05-01T09:41:55.999Z</time></trkpt><trkpt lat="42.23826080518183" lon="14.204339702235197"><ele>351.6666666666667</ele><time>2026-05-01T09:41:57.999Z</time></trkpt><trkpt lat="42.238247054728824" lon="14.204240787423243"><ele>353.0</ele><time>2026-05-01T09:41:58.999Z</time></trkpt><trkpt lat="42.238214211841886" lon="14.20414875365468"><ele>353.0</ele><time>2026-05-01T09:41:59.999Z</time></trkpt><trkpt lat="42.238182077313844" lon="14.204058704814111"><ele>353.0</ele><time>2026-05-01T09:42:00.999Z</time></trkpt><trkpt lat="42.2381529251158" lon="14.203977012634772"><ele>353.0</ele><time>2026-05-01T09:42:01.999Z</time></trkpt><trkpt lat="42.2381134389818" lon="14.203905928132546"><ele>353.0</ele><time>2026-05-01T09:42:02.999Z</time></trkpt><trkpt lat="42.238046387498045" lon="14.203815064728913"><ele>353.0</ele><time>2026-05-01T09:42:04.999Z</time></trkpt><trkpt lat="42.238073435685365" lon="14.203626193675229"><ele>353.0</ele><time>2026-05-01T09:42:06.999Z</time></trkpt><trkpt lat="42.23809597616615" lon="14.20348496688492"><ele>349.4</ele><time>2026-05-01T09:42:08.999Z</time></trkpt><trkpt lat="42.23806589546453" lon="14.203354816432817"><ele>345.79999999999995</ele><time>2026-05-01T09:42:10.999Z</time></trkpt><trkpt lat="42.23799456172176" lon="14.203247534831085"><ele>342.2</ele><time>2026-05-01T09:42:12.999Z</time></trkpt><trkpt lat="42.23793728367049" lon="14.20318722338014"><ele>338.6</ele><time>2026-05-01T09:42:13.999Z</time></trkpt><trkpt lat="42.237876201206106" lon="14.203144287357363"><ele>335.0</ele><time>2026-05-01T09:42:14.999Z</time></trkpt><trkpt lat="42.237791202253206" lon="14.20303450804029"><ele>335.0</ele><time>2026-05-01T09:42:16.999Z</time></trkpt><trkpt lat="42.23775182437612" lon="14.202899378977971"><ele>335.0</ele><time>2026-05-01T09:42:18.999Z</time></trkpt><trkpt lat="42.23766824951467" lon="14.20277695859477"><ele>335.0</ele><time>2026-05-01T09:42:20.999Z</time></trkpt><trkpt lat="42.23760219755757" lon="14.202666429158041"><ele>335.0</ele><time>2026-05-01T09:42:22.999Z</time></trkpt><trkpt lat="42.23755546548448" lon="14.202525826623638"><ele>335.0</ele><time>2026-05-01T09:42:24.999Z</time></trkpt><trkpt lat="42.23752246307332" lon="14.20244202427747"><ele>335.0</ele><time>2026-05-01T09:42:25.999Z</time></trkpt><trkpt lat="42.23748000979687" lon="14.20229416648342"><ele>335.0</ele><time>2026-05-01T09:42:27.999Z</time></trkpt><trkpt lat="42.237449460033744" lon="14.202145374480844"><ele>335.0</ele><time>2026-05-01T09:42:29.999Z</time></trkpt><trkpt lat="42.23743183747184" lon="14.202042722265459"><ele>335.0</ele><time>2026-05-01T09:42:30.999Z</time></trkpt><trkpt lat="42.237415887752114" lon="14.201938668091607"><ele>336.0</ele><time>2026-05-01T09:42:31.999Z</time></trkpt><trkpt lat="42.237383194561694" lon="14.20183593465185"><ele>337.0</ele><time>2026-05-01T09:42:32.999Z</time></trkpt><trkpt lat="42.23736059891089" lon="14.201730266594032"><ele>338.0</ele><time>2026-05-01T09:42:33.999Z</time></trkpt><trkpt lat="42.23734271708222" lon="14.201611604621151"><ele>339.0</ele><time>2026-05-01T09:42:34.999Z</time></trkpt><trkpt lat="42.23733182151951" lon="14.201525184825659"><ele>340.0</ele><time>2026-05-01T09:42:35.999Z</time></trkpt><trkpt lat="42.23731044972647" lon="14.201374448722145"><ele>341.0</ele><time>2026-05-01T09:42:37.999Z</time></trkpt><trkpt lat="42.237288188821196" lon="14.201280406764834"><ele>341.5</ele><time>2026-05-01T09:42:38.999Z</time></trkpt><trkpt lat="42.237280407890005" lon="14.20118280820666"><ele>342.0</ele><time>2026-05-01T09:42:39.999Z</time></trkpt><trkpt lat="42.23728712681051" lon="14.201085461328557"><ele>342.5</ele><time>2026-05-01T09:42:40.999Z</time></trkpt><trkpt lat="42.237296162671846" lon="14.200966059093195"><ele>343.0</ele><time>2026-05-01T09:42:41.999Z</time></trkpt><trkpt lat="42.23731718222676" lon="14.200841016097023"><ele>343.5</ele><time>2026-05-01T09:42:42.999Z</time></trkpt><trkpt lat="42.237333380972316" lon="14.200680051202657"><ele>344.0</ele><time>2026-05-01T09:42:43.999Z</time></trkpt><trkpt lat="42.237349446575266" lon="14.200547433910948"><ele>344.79999999999995</ele><time>2026-05-01T09:42:44.999Z</time></trkpt><trkpt lat="42.237357023342845" lon="14.200427997100203"><ele>345.59999999999997</ele><time>2026-05-01T09:42:45.999Z</time></trkpt><trkpt lat="42.237369782072214" lon="14.200308964171894"><ele>346.4</ele><time>2026-05-01T09:42:46.998Z</time></trkpt><trkpt lat="42.2373904791413" lon="14.200183965639033"><ele>347.2</ele><time>2026-05-01T09:42:47.998Z</time></trkpt><trkpt lat="42.23741431850487" lon="14.200054168032194"><ele>348.0</ele><time>2026-05-01T09:42:48.998Z</time></trkpt><trkpt lat="42.237433965328755" lon="14.199947867793377"><ele>348.0</ele><time>2026-05-01T09:42:49.998Z</time></trkpt><trkpt lat="42.237454217052466" lon="14.199855184143788"><ele>348.0</ele><time>2026-05-01T09:42:50.998Z</time></trkpt><trkpt lat="42.237476245396024" lon="14.199774294596294"><ele>348.0</ele><time>2026-05-01T09:42:52.998Z</time></trkpt><trkpt lat="42.237387644941776" lon="14.1996968572658"><ele>348.0</ele><time>2026-05-01T09:42:58.998Z</time></trkpt><trkpt lat="42.23729256497552" lon="14.199657914115317"><ele>348.0</ele><time>2026-05-01T09:43:00.998Z</time></trkpt><trkpt lat="42.237178309175064" lon="14.199616525503858"><ele>344.5</ele><time>2026-05-01T09:43:02.998Z</time></trkpt><trkpt lat="42.237105706963334" lon="14.19958774444386"><ele>341.0</ele><time>2026-05-01T09:43:03.998Z</time></trkpt><trkpt lat="42.237000430126" lon="14.199543165369988"><ele>337.5</ele><time>2026-05-01T09:43:05.998Z</time></trkpt><trkpt lat="42.23689678955161" lon="14.199510025465655"><ele>334.0</ele><time>2026-05-01T09:43:07.998Z</time></trkpt><trkpt lat="42.23683511165813" lon="14.199487552727856"><ele>330.5</ele><time>2026-05-01T09:43:08.998Z</time></trkpt><trkpt lat="42.236770700795226" lon="14.199457609344263"><ele>327.0</ele><time>2026-05-01T09:43:09.998Z</time></trkpt><trkpt lat="42.23665899707648" lon="14.199408222332183"><ele>327.0</ele><time>2026-05-01T09:43:11.998Z</time></trkpt><trkpt lat="42.236584464136776" lon="14.1993668634615"><ele>327.0</ele><time>2026-05-01T09:43:13.998Z</time></trkpt><trkpt lat="42.23647965769362" lon="14.199345649299678"><ele>327.0</ele><time>2026-05-01T09:43:15.998Z</time></trkpt><trkpt lat="42.23638657875883" lon="14.199309277944124"><ele>327.0</ele><time>2026-05-01T09:43:17.998Z</time></trkpt><trkpt lat="42.23630007425085" lon="14.199272007274482"><ele>327.0</ele><time>2026-05-01T09:43:19.998Z</time></trkpt><trkpt lat="42.2362042078849" lon="14.199234398124581"><ele>323.1666666666667</ele><time>2026-05-01T09:43:21.998Z</time></trkpt><trkpt lat="42.23611890281884" lon="14.199249928845132"><ele>319.3333333333333</ele><time>2026-05-01T09:43:23.998Z</time></trkpt><trkpt lat="42.23607122105563" lon="14.199368458165214"><ele>315.5</ele><time>2026-05-01T09:43:25.998Z</time></trkpt><trkpt lat="42.23604844298628" lon="14.19947864144476"><ele>311.66666666666663</ele><time>2026-05-01T09:43:26.998Z</time></trkpt><trkpt lat="42.23602140819187" lon="14.199602008150249"><ele>307.8333333333333</ele><time>2026-05-01T09:43:27.999Z</time></trkpt><trkpt lat="42.235996339570164" lon="14.199708372665"><ele>304.0</ele><time>2026-05-01T09:43:28.999Z</time></trkpt><trkpt lat="42.235966126312775" lon="14.199833519448106"><ele>304.0</ele><time>2026-05-01T09:43:30.999Z</time></trkpt><trkpt lat="42.23594523370679" lon="14.199932484813093"><ele>304.0</ele><time>2026-05-01T09:43:32.999Z</time></trkpt><trkpt lat="42.23592290951019" lon="14.200029909201257"><ele>304.0</ele><time>2026-05-01T09:43:34.999Z</time></trkpt><trkpt lat="42.2358750482505" lon="14.200093923830053"><ele>304.0</ele><time>2026-05-01T09:43:36.999Z</time></trkpt><trkpt lat="42.2357745247099" lon="14.20012246874317"><ele>304.0</ele><time>2026-05-01T09:43:38.999Z</time></trkpt><trkpt lat="42.23570681745927" lon="14.200100796856283"><ele>304.0</ele><time>2026-05-01T09:43:39.999Z</time></trkpt><trkpt lat="42.23562590058167" lon="14.200071793141387"><ele>301.3333333333333</ele><time>2026-05-01T09:43:40.999Z</time></trkpt><trkpt lat="42.23556209373448" lon="14.20003645285274"><ele>298.66666666666663</ele><time>2026-05-01T09:43:41.999Z</time></trkpt><trkpt lat="42.23550283027108" lon="14.199988626332273"><ele>296.0</ele><time>2026-05-01T09:43:42.999Z</time></trkpt><trkpt lat="42.235360639261586" lon="14.199919917649583"><ele>293.3333333333333</ele><time>2026-05-01T09:43:44.999Z</time></trkpt><trkpt lat="42.23529465095012" lon="14.199892006126898"><ele>290.6666666666667</ele><time>2026-05-01T09:43:45.999Z</time></trkpt><trkpt lat="42.2352354126818" lon="14.199858020842056"><ele>288.0</ele><time>2026-05-01T09:43:46.999Z</time></trkpt><trkpt lat="42.23516661419645" lon="14.19981280916274"><ele>287.8333333333333</ele><time>2026-05-01T09:43:47.999Z</time></trkpt><trkpt lat="42.23511397287569" lon="14.19976613609518"><ele>287.6666666666667</ele><time>2026-05-01T09:43:48.999Z</time></trkpt><trkpt lat="42.235061530062865" lon="14.199711671302799"><ele>287.5</ele><time>2026-05-01T09:43:49.999Z</time></trkpt><trkpt lat="42.234993682313586" lon="14.199650458792137"><ele>287.33333333333337</ele><time>2026-05-01T09:43:50.999Z</time></trkpt><trkpt lat="42.23492680112495" lon="14.199597323831581"><ele>287.1666666666667</ele><time>2026-05-01T09:43:51.999Z</time></trkpt><trkpt lat="42.23486468068965" lon="14.19949102139263"><ele>287.0</ele><time>2026-05-01T09:43:52.999Z</time></trkpt><trkpt lat="42.23480028030058" lon="14.199422894526375"><ele>285.6666666666667</ele><time>2026-05-01T09:43:53.999Z</time></trkpt><trkpt lat="42.234737898681246" lon="14.199351518508315"><ele>284.33333333333337</ele><time>2026-05-01T09:43:54.999Z</time></trkpt><trkpt lat="42.234675472709725" lon="14.199301274205382"><ele>283.0</ele><time>2026-05-01T09:43:55.999Z</time></trkpt><trkpt lat="42.23462845214717" lon="14.199243170612252"><ele>281.6666666666667</ele><time>2026-05-01T09:43:56.999Z</time></trkpt><trkpt lat="42.23454664624603" lon="14.199126361576795"><ele>280.3333333333333</ele><time>2026-05-01T09:43:58.999Z</time></trkpt><trkpt lat="42.23450873621696" lon="14.19905509078918"><ele>279.0</ele><time>2026-05-01T09:43:59.999Z</time></trkpt><trkpt lat="42.23444274817504" lon="14.198920265370926"><ele>278.2</ele><time>2026-05-01T09:44:01.999Z</time></trkpt><trkpt lat="42.23433361194419" lon="14.198836074236947"><ele>277.4</ele><time>2026-05-01T09:44:03.999Z</time></trkpt><trkpt lat="42.23424820320344" lon="14.19877010675641"><ele>276.6</ele><time>2026-05-01T09:44:04.999Z</time></trkpt><trkpt lat="42.23417499069875" lon="14.198722053303735"><ele>275.8</ele><time>2026-05-01T09:44:05.999Z</time></trkpt><trkpt lat="42.234075767122825" lon="14.198617919197345"><ele>275.0</ele><time>2026-05-01T09:44:07.999Z</time></trkpt><trkpt lat="42.234001211326635" lon="14.198514027536522"><ele>274.0</ele><time>2026-05-01T09:44:09.999Z</time></trkpt><trkpt lat="42.23391617029725" lon="14.198445483364193"><ele>273.0</ele><time>2026-05-01T09:44:12.999Z</time></trkpt><trkpt lat="42.23382191467205" lon="14.198460423437393"><ele>272.0</ele><time>2026-05-01T09:44:14.999Z</time></trkpt><trkpt lat="42.23376472235819" lon="14.198573140005974"><ele>271.0</ele><time>2026-05-01T09:44:16.999Z</time></trkpt><trkpt lat="42.23369716782006" lon="14.198621355102349"><ele>270.0</ele><time>2026-05-01T09:44:18.999Z</time></trkpt><trkpt lat="42.233591003413" lon="14.198623193829754"><ele>270.0</ele><time>2026-05-01T09:44:20.999Z</time></trkpt><trkpt lat="42.23354825964712" lon="14.198544767974568"><ele>270.0</ele><time>2026-05-01T09:44:22.999Z</time></trkpt><trkpt lat="42.23350055316105" lon="14.198487599377524"><ele>270.0</ele><time>2026-05-01T09:44:23.999Z</time></trkpt><trkpt lat="42.233441532494815" lon="14.198390014787956"><ele>270.0</ele><time>2026-05-01T09:44:24.999Z</time></trkpt><trkpt lat="42.23339281257843" lon="14.198330014706547"><ele>270.0</ele><time>2026-05-01T09:44:25.999Z</time></trkpt><trkpt lat="42.23333420529649" lon="14.198268225155218"><ele>270.0</ele><time>2026-05-01T09:44:26.999Z</time></trkpt><trkpt lat="42.23326971510715" lon="14.198209950592958"><ele>270.0</ele><time>2026-05-01T09:44:27.999Z</time></trkpt><trkpt lat="42.233189001251034" lon="14.1980901049682"><ele>269.5</ele><time>2026-05-01T09:44:29.999Z</time></trkpt><trkpt lat="42.23316082618565" lon="14.197971259837344"><ele>269.0</ele><time>2026-05-01T09:44:31.999Z</time></trkpt><trkpt lat="42.23311376253042" lon="14.19788261835097"><ele>268.5</ele><time>2026-05-01T09:44:35.999Z</time></trkpt><trkpt lat="42.23306175025878" lon="14.197814780475898"><ele>268.0</ele><time>2026-05-01T09:44:38.999Z</time></trkpt><trkpt lat="42.232966605707155" lon="14.197814775290093"><ele>267.5</ele><time>2026-05-01T09:44:41.999Z</time></trkpt><trkpt lat="42.23291334337978" lon="14.197715481671656"><ele>267.0</ele><time>2026-05-01T09:44:44.999Z</time></trkpt><trkpt lat="42.2329262588162" lon="14.197603307307178"><ele>267.0</ele><time>2026-05-01T09:44:46.999Z</time></trkpt><trkpt lat="42.232952446010025" lon="14.197487883087536"><ele>267.0</ele><time>2026-05-01T09:44:47.999Z</time></trkpt><trkpt lat="42.23296213760225" lon="14.197391439295615"><ele>267.0</ele><time>2026-05-01T09:44:48.999Z</time></trkpt><trkpt lat="42.23294445089527" lon="14.197219232290822"><ele>267.0</ele><time>2026-05-01T09:44:50.999Z</time></trkpt><trkpt lat="42.23292522532269" lon="14.197121128627545"><ele>267.0</ele><time>2026-05-01T09:44:51.999Z</time></trkpt><trkpt lat="42.23290028596744" lon="14.197006705919877"><ele>267.5</ele><time>2026-05-01T09:44:52.999Z</time></trkpt><trkpt lat="42.23287994605187" lon="14.196914183589696"><ele>268.0</ele><time>2026-05-01T09:44:53.998Z</time></trkpt><trkpt lat="42.232858964186484" lon="14.196825019114547"><ele>268.5</ele><time>2026-05-01T09:44:54.998Z</time></trkpt><trkpt lat="42.232834071855436" lon="14.196662280273962"><ele>269.0</ele><time>2026-05-01T09:44:56.998Z</time></trkpt><trkpt lat="42.232812348712486" lon="14.196563436461679"><ele>269.5</ele><time>2026-05-01T09:44:57.998Z</time></trkpt><trkpt lat="42.2328073309694" lon="14.19647030654115"><ele>270.0</ele><time>2026-05-01T09:44:58.998Z</time></trkpt><trkpt lat="42.232807693556495" lon="14.196373454576138"><ele>270.2</ele><time>2026-05-01T09:44:59.998Z</time></trkpt><trkpt lat="42.232795263542556" lon="14.196271891817508"><ele>270.4</ele><time>2026-05-01T09:45:00.998Z</time></trkpt><trkpt lat="42.2327650669747" lon="14.196166909780867"><ele>270.6</ele><time>2026-05-01T09:45:01.998Z</time></trkpt><trkpt lat="42.2327142085095" lon="14.19607165543959"><ele>270.8</ele><time>2026-05-01T09:45:02.998Z</time></trkpt><trkpt lat="42.23260551835634" lon="14.195995708065887"><ele>271.0</ele><time>2026-05-01T09:45:04.998Z</time></trkpt><trkpt lat="42.23251865765948" lon="14.195980078460524"><ele>271.0</ele><time>2026-05-01T09:45:05.998Z</time></trkpt><trkpt lat="42.23241761506621" lon="14.195992223480012"><ele>271.0</ele><time>2026-05-01T09:45:06.998Z</time></trkpt><trkpt lat="42.232284100620205" lon="14.196010902506135"><ele>271.0</ele><time>2026-05-01T09:45:07.998Z</time></trkpt><trkpt lat="42.232160237649985" lon="14.196037911661376"><ele>271.0</ele><time>2026-05-01T09:45:08.998Z</time></trkpt><trkpt lat="42.23202912260015" lon="14.196072816443714"><ele>271.75</ele><time>2026-05-01T09:45:09.998Z</time></trkpt><trkpt lat="42.23190290926619" lon="14.196101388631925"><ele>272.5</ele><time>2026-05-01T09:45:10.998Z</time></trkpt><trkpt lat="42.231779543771" lon="14.196105222264158"><ele>273.25</ele><time>2026-05-01T09:45:11.998Z</time></trkpt><trkpt lat="42.231646157923386" lon="14.196137867074404"><ele>274.0</ele><time>2026-05-01T09:45:12.998Z</time></trkpt><trkpt lat="42.23151248475072" lon="14.196145860654171"><ele>274.4</ele><time>2026-05-01T09:45:13.998Z</time></trkpt><trkpt lat="42.23140476440213" lon="14.196145438318519"><ele>274.79999999999995</ele><time>2026-05-01T09:45:14.998Z</time></trkpt><trkpt lat="42.23130075624132" lon="14.196146796032624"><ele>275.20000000000005</ele><time>2026-05-01T09:45:15.998Z</time></trkpt><trkpt lat="42.23118600937006" lon="14.196124649164227"><ele>275.6</ele><time>2026-05-01T09:45:16.998Z</time></trkpt><trkpt lat="42.2310753747835" lon="14.196127915035762"><ele>276.0</ele><time>2026-05-01T09:45:17.998Z</time></trkpt><trkpt lat="42.23095738295189" lon="14.196079178796595"><ele>276.0</ele><time>2026-05-01T09:45:18.998Z</time></trkpt><trkpt lat="42.23082612053998" lon="14.196048009456835"><ele>276.0</ele><time>2026-05-01T09:45:19.998Z</time></trkpt><trkpt lat="42.23072288551975" lon="14.196008237415482"><ele>276.0</ele><time>2026-05-01T09:45:20.998Z</time></trkpt><trkpt lat="42.23063142673025" lon="14.195964772536419"><ele>276.0</ele><time>2026-05-01T09:45:21.998Z</time></trkpt><trkpt lat="42.230550431672974" lon="14.195895957868728"><ele>276.0</ele><time>2026-05-01T09:45:22.998Z</time></trkpt><trkpt lat="42.23046167828762" lon="14.195818641147111"><ele>277.40000000000003</ele><time>2026-05-01T09:45:23.998Z</time></trkpt><trkpt lat="42.23037999098001" lon="14.195669743947235"><ele>278.8</ele><time>2026-05-01T09:45:24.998Z</time></trkpt><trkpt lat="42.23029269941306" lon="14.195586040619009"><ele>280.20000000000005</ele><time>2026-05-01T09:45:25.998Z</time></trkpt><trkpt lat="42.230227720819684" lon="14.19555165781783"><ele>281.6</ele><time>2026-05-01T09:45:26.998Z</time></trkpt><trkpt lat="42.23010963802908" lon="14.195518807750288"><ele>283.0</ele><time>2026-05-01T09:45:27.998Z</time></trkpt><trkpt lat="42.22998489977118" lon="14.19549257270588"><ele>283.0</ele><time>2026-05-01T09:45:28.998Z</time></trkpt><trkpt lat="42.2299040000123" lon="14.195473145893336"><ele>283.0</ele><time>2026-05-01T09:45:29.998Z</time></trkpt><trkpt lat="42.229847038062445" lon="14.19541915175695"><ele>283.0</ele><time>2026-05-01T09:45:30.998Z</time></trkpt><trkpt lat="42.22977915849634" lon="14.195375634467108"><ele>283.0</ele><time>2026-05-01T09:45:31.998Z</time></trkpt><trkpt lat="42.229741847991434" lon="14.195253283885242"><ele>283.0</ele><time>2026-05-01T09:45:32.998Z</time></trkpt><trkpt lat="42.229710502879556" lon="14.195063617831027"><ele>282.5</ele><time>2026-05-01T09:45:33.999Z</time></trkpt><trkpt lat="42.229584935770134" lon="14.19489493056757"><ele>282.0</ele><time>2026-05-01T09:45:34.999Z</time></trkpt><trkpt lat="42.22948050452752" lon="14.194756257926745"><ele>281.5</ele><time>2026-05-01T09:45:35.999Z</time></trkpt><trkpt lat="42.22939943385363" lon="14.194631640243088"><ele>281.0</ele><time>2026-05-01T09:45:36.999Z</time></trkpt><trkpt lat="42.22932627186279" lon="14.194502819648383"><ele>282.5</ele><time>2026-05-01T09:45:37.999Z</time></trkpt><trkpt lat="42.22924719807128" lon="14.194369959801389"><ele>284.0</ele><time>2026-05-01T09:45:38.999Z</time></trkpt><trkpt lat="42.22916373887579" lon="14.194248475179112"><ele>285.5</ele><time>2026-05-01T09:45:39.999Z</time></trkpt><trkpt lat="42.229083598217755" lon="14.194138002057045"><ele>287.0</ele><time>2026-05-01T09:45:40.999Z</time></trkpt><trkpt lat="42.22900987198949" lon="14.194042160973842"><ele>288.5</ele><time>2026-05-01T09:45:41.999Z</time></trkpt><trkpt lat="42.22895210152966" lon="14.193969545615925"><ele>290.0</ele><time>2026-05-01T09:45:42.999Z</time></trkpt><trkpt lat="42.2288676081029" lon="14.193905961614803"><ele>291.5</ele><time>2026-05-01T09:45:43.999Z</time></trkpt><trkpt lat="42.2288067153479" lon="14.19383237022305"><ele>293.0</ele><time>2026-05-01T09:45:44.999Z</time></trkpt><trkpt lat="42.22875138075049" lon="14.193785041502446"><ele>294.5</ele><time>2026-05-01T09:45:46Z</time></trkpt><trkpt lat="42.22868735600661" lon="14.193751694147911"><ele>296.0</ele><time>2026-05-01T09:45:47Z</time></trkpt><trkpt lat="42.228623487922995" lon="14.193752588721356"><ele>296.0</ele><time>2026-05-01T09:45:48Z</time></trkpt><trkpt lat="42.228559796624594" lon="14.193725700756003"><ele>296.0</ele><time>2026-05-01T09:45:49Z</time></trkpt><trkpt lat="42.22843317596118" lon="14.193693200368351"><ele>296.0</ele><time>2026-05-01T09:45:51Z</time></trkpt><trkpt lat="42.22832444789779" lon="14.193659146051827"><ele>296.0</ele><time>2026-05-01T09:45:52Z</time></trkpt><trkpt lat="42.22823595806249" lon="14.193593984832551"><ele>296.0</ele><time>2026-05-01T09:45:53Z</time></trkpt><trkpt lat="42.228186892452314" lon="14.193517343612882"><ele>295.0</ele><time>2026-05-01T09:45:54Z</time></trkpt><trkpt lat="42.228117500712735" lon="14.193432288874298"><ele>294.0</ele><time>2026-05-01T09:45:54.999Z</time></trkpt><trkpt lat="42.2280411306808" lon="14.193347036353801"><ele>293.0</ele><time>2026-05-01T09:45:55.999Z</time></trkpt><trkpt lat="42.227938019332754" lon="14.193273166076292"><ele>292.0</ele><time>2026-05-01T09:45:56.999Z</time></trkpt><trkpt lat="42.22784301583514" lon="14.193178946943716"><ele>291.0</ele><time>2026-05-01T09:45:57.999Z</time></trkpt><trkpt lat="42.22775372063879" lon="14.193112446621917"><ele>293.5</ele><time>2026-05-01T09:45:58.999Z</time></trkpt><trkpt lat="42.22766278084705" lon="14.193030546674185"><ele>296.0</ele><time>2026-05-01T09:45:59.999Z</time></trkpt><trkpt lat="42.2275630857499" lon="14.19294989919039"><ele>298.5</ele><time>2026-05-01T09:46:00.999Z</time></trkpt><trkpt lat="42.22745012228561" lon="14.19284194956722"><ele>301.0</ele><time>2026-05-01T09:46:01.999Z</time></trkpt><trkpt lat="42.22736346529465" lon="14.19277813712905"><ele>300.8</ele><time>2026-05-01T09:46:02.999Z</time></trkpt><trkpt lat="42.227251561514144" lon="14.192689089629953"><ele>300.6</ele><time>2026-05-01T09:46:03.999Z</time></trkpt><trkpt lat="42.22716034450888" lon="14.192625211348957"><ele>300.4</ele><time>2026-05-01T09:46:04.999Z</time></trkpt><trkpt lat="42.22709084386558" lon="14.192584381047997"><ele>300.2</ele><time>2026-05-01T09:46:05.999Z</time></trkpt><trkpt lat="42.227010909058805" lon="14.19256722222518"><ele>300.0</ele><time>2026-05-01T09:46:06.999Z</time></trkpt><trkpt lat="42.22691979089144" lon="14.192523164473249"><ele>300.0</ele><time>2026-05-01T09:46:07.999Z</time></trkpt><trkpt lat="42.22681089744751" lon="14.192537532486948"><ele>300.0</ele><time>2026-05-01T09:46:08.999Z</time></trkpt><trkpt lat="42.22670864336039" lon="14.192524022639137"><ele>300.0</ele><time>2026-05-01T09:46:09.999Z</time></trkpt><trkpt lat="42.22660605168145" lon="14.192510014329207"><ele>300.0</ele><time>2026-05-01T09:46:10.999Z</time></trkpt><trkpt lat="42.22648772802645" lon="14.192504453994212"><ele>300.0</ele><time>2026-05-01T09:46:11.999Z</time></trkpt><trkpt lat="42.226367633780434" lon="14.192508108850046"><ele>300.5</ele><time>2026-05-01T09:46:12.999Z</time></trkpt><trkpt lat="42.2262671157799" lon="14.192520823379748"><ele>301.0</ele><time>2026-05-01T09:46:13.999Z</time></trkpt><trkpt lat="42.22616556852664" lon="14.192558249974937"><ele>301.5</ele><time>2026-05-01T09:46:14.999Z</time></trkpt><trkpt lat="42.226041779516656" lon="14.192610308044745"><ele>302.0</ele><time>2026-05-01T09:46:15.999Z</time></trkpt><trkpt lat="42.22591135407854" lon="14.192665551111737"><ele>302.0</ele><time>2026-05-01T09:46:16.999Z</time></trkpt><trkpt lat="42.22578287236144" lon="14.19270402743224"><ele>302.0</ele><time>2026-05-01T09:46:17.999Z</time></trkpt><trkpt lat="42.225690027878905" lon="14.192754995400982"><ele>302.0</ele><time>2026-05-01T09:46:18.999Z</time></trkpt><trkpt lat="42.22557274198276" lon="14.192788626618075"><ele>302.0</ele><time>2026-05-01T09:46:19.999Z</time></trkpt><trkpt lat="42.22545426047397" lon="14.1928088337379"><ele>302.6</ele><time>2026-05-01T09:46:20.999Z</time></trkpt><trkpt lat="42.22533908947976" lon="14.192824564426235"><ele>303.2</ele><time>2026-05-01T09:46:21.999Z</time></trkpt><trkpt lat="42.225230628914" lon="14.192812053602275"><ele>303.8</ele><time>2026-05-01T09:46:22.999Z</time></trkpt><trkpt lat="42.225129936473756" lon="14.192813708612501"><ele>304.4</ele><time>2026-05-01T09:46:23.999Z</time></trkpt><trkpt lat="42.225023531843114" lon="14.192823304289721"><ele>305.0</ele><time>2026-05-01T09:46:24.999Z</time></trkpt><trkpt lat="42.22492883506475" lon="14.192842526265286"><ele>305.0</ele><time>2026-05-01T09:46:25.999Z</time></trkpt><trkpt lat="42.22482541174886" lon="14.192856669212956"><ele>305.0</ele><time>2026-05-01T09:46:26.999Z</time></trkpt><trkpt lat="42.22473652543452" lon="14.192862798159265"><ele>305.0</ele><time>2026-05-01T09:46:27.999Z</time></trkpt><trkpt lat="42.22464617529909" lon="14.192862126780348"><ele>305.0</ele><time>2026-05-01T09:46:28.999Z</time></trkpt><trkpt lat="42.224537662455276" lon="14.19288602527705"><ele>305.0</ele><time>2026-05-01T09:46:29.999Z</time></trkpt><trkpt lat="42.224421838697104" lon="14.192896837535175"><ele>305.4</ele><time>2026-05-01T09:46:30.999Z</time></trkpt><trkpt lat="42.22431251052249" lon="14.19289685490299"><ele>305.8</ele><time>2026-05-01T09:46:31.999Z</time></trkpt><trkpt lat="42.22421546973344" lon="14.192874278314418"><ele>306.2</ele><time>2026-05-01T09:46:32.999Z</time></trkpt><trkpt lat="42.224116015149164" lon="14.192790442096317"><ele>306.6</ele><time>2026-05-01T09:46:33.999Z</time></trkpt><trkpt lat="42.2240665687754" lon="14.192721053453617"><ele>307.0</ele><time>2026-05-01T09:46:34.999Z</time></trkpt><trkpt lat="42.22400458709031" lon="14.192651144547643"><ele>307.8333333333333</ele><time>2026-05-01T09:46:35.999Z</time></trkpt><trkpt lat="42.223927140563625" lon="14.192575981295592"><ele>308.66666666666663</ele><time>2026-05-01T09:46:36.999Z</time></trkpt><trkpt lat="42.22386630687663" lon="14.19253514946784"><ele>309.5</ele><time>2026-05-01T09:46:37.999Z</time></trkpt><trkpt lat="42.22380870392243" lon="14.19246289149943"><ele>310.3333333333333</ele><time>2026-05-01T09:46:38.999Z</time></trkpt><trkpt lat="42.22374945040365" lon="14.19241751715779"><ele>311.1666666666667</ele><time>2026-05-01T09:46:39.999Z</time></trkpt><trkpt lat="42.223674823899486" lon="14.192387532538433"><ele>312.0</ele><time>2026-05-01T09:46:41.999Z</time></trkpt><trkpt lat="42.223582927763026" lon="14.192413910325701"><ele>312.0</ele><time>2026-05-01T09:46:44.999Z</time></trkpt><trkpt lat="42.22352283718885" lon="14.192441986801306"><ele>312.0</ele><time>2026-05-01T09:46:45.999Z</time></trkpt><trkpt lat="42.22346101538066" lon="14.192479847309144"><ele>312.0</ele><time>2026-05-01T09:46:46.999Z</time></trkpt><trkpt lat="42.22334650815722" lon="14.192534820541677"><ele>312.0</ele><time>2026-05-01T09:46:48.999Z</time></trkpt><trkpt lat="42.22326976747638" lon="14.1925596256121"><ele>312.0</ele><time>2026-05-01T09:46:49.999Z</time></trkpt><trkpt lat="42.22318606717848" lon="14.19259665663388"><ele>312.0</ele><time>2026-05-01T09:46:50.999Z</time></trkpt><trkpt lat="42.22309405357376" lon="14.192605879462281"><ele>312.4</ele><time>2026-05-01T09:46:51.999Z</time></trkpt><trkpt lat="42.22299568299888" lon="14.192626631602844"><ele>312.79999999999995</ele><time>2026-05-01T09:46:52.999Z</time></trkpt><trkpt lat="42.22288423863933" lon="14.19265158347538"><ele>313.2</ele><time>2026-05-01T09:46:53.999Z</time></trkpt><trkpt lat="42.222767141194524" lon="14.19267469060683"><ele>313.59999999999997</ele><time>2026-05-01T09:46:54.999Z</time></trkpt><trkpt lat="42.222651592811296" lon="14.19268368871244"><ele>314.0</ele><time>2026-05-01T09:46:55.999Z</time></trkpt><trkpt lat="42.22254377060399" lon="14.192685651105647"><ele>314.0</ele><time>2026-05-01T09:46:56.999Z</time></trkpt><trkpt lat="42.22245305567777" lon="14.19267995227636"><ele>314.0</ele><time>2026-05-01T09:46:57.999Z</time></trkpt><trkpt lat="42.222350426967566" lon="14.192665222081228"><ele>314.0</ele><time>2026-05-01T09:46:58.999Z</time></trkpt><trkpt lat="42.22226452994095" lon="14.192633073645244"><ele>314.0</ele><time>2026-05-01T09:46:59.999Z</time></trkpt><trkpt lat="42.2221141587342" lon="14.192591124160378"><ele>314.0</ele><time>2026-05-01T09:47:00.999Z</time></trkpt><trkpt lat="42.221990346674666" lon="14.192574581704795"><ele>315.0</ele><time>2026-05-01T09:47:01.999Z</time></trkpt><trkpt lat="42.22186697631299" lon="14.192543426791891"><ele>316.0</ele><time>2026-05-01T09:47:02.999Z</time></trkpt><trkpt lat="42.22173323419074" lon="14.192505325882362"><ele>317.0</ele><time>2026-05-01T09:47:03.999Z</time></trkpt><trkpt lat="42.22163033091149" lon="14.192430670123697"><ele>318.0</ele><time>2026-05-01T09:47:04.999Z</time></trkpt><trkpt lat="42.2215394518404" lon="14.192364312705248"><ele>319.1666666666667</ele><time>2026-05-01T09:47:05.999Z</time></trkpt><trkpt lat="42.2214317101496" lon="14.192273469152711"><ele>320.3333333333333</ele><time>2026-05-01T09:47:06.999Z</time></trkpt><trkpt lat="42.22136053214954" lon="14.192209532443652"><ele>321.5</ele><time>2026-05-01T09:47:07.999Z</time></trkpt><trkpt lat="42.221278522518034" lon="14.19215742442856"><ele>322.66666666666663</ele><time>2026-05-01T09:47:08.999Z</time></trkpt><trkpt lat="42.22122390008967" lon="14.192111059136389"><ele>323.8333333333333</ele><time>2026-05-01T09:47:09.999Z</time></trkpt><trkpt lat="42.221156919305415" lon="14.192081268240505"><ele>325.0</ele><time>2026-05-01T09:47:11.999Z</time></trkpt><trkpt lat="42.22117807393642" lon="14.192265337530808"><ele>325.0</ele><time>2026-05-01T09:47:17.998Z</time></trkpt><trkpt lat="42.22130659301302" lon="14.192324964115217"><ele>325.0</ele><time>2026-05-01T09:47:18.998Z</time></trkpt><trkpt lat="42.22141496217206" lon="14.192439809138548"><ele>325.0</ele><time>2026-05-01T09:47:19.998Z</time></trkpt><trkpt lat="42.22150654058558" lon="14.192552703754195"><ele>325.0</ele><time>2026-05-01T09:47:20.998Z</time></trkpt><trkpt lat="42.22158423602866" lon="14.192646626668937"><ele>323.8333333333333</ele><time>2026-05-01T09:47:21.998Z</time></trkpt><trkpt lat="42.22165206169123" lon="14.19272154895204"><ele>322.66666666666663</ele><time>2026-05-01T09:47:22.998Z</time></trkpt><trkpt lat="42.221703719209344" lon="14.192783287115729"><ele>321.5</ele><time>2026-05-01T09:47:23.998Z</time></trkpt><trkpt lat="42.221771242774" lon="14.192852397205643"><ele>320.3333333333333</ele><time>2026-05-01T09:47:25.998Z</time></trkpt><trkpt lat="42.22183470138666" lon="14.192918696805178"><ele>319.1666666666667</ele><time>2026-05-01T09:47:40Z</time></trkpt><trkpt lat="42.22189826055589" lon="14.192981382239017"><ele>318.0</ele><time>2026-05-01T09:47:41Z</time></trkpt><trkpt lat="42.22196800017579" lon="14.193046068572766"><ele>318.0</ele><time>2026-05-01T09:47:42Z</time></trkpt><trkpt lat="42.22204154266712" lon="14.193105786299869"><ele>318.0</ele><time>2026-05-01T09:47:43Z</time></trkpt><trkpt lat="42.22211132403373" lon="14.193160320370568"><ele>318.0</ele><time>2026-05-01T09:47:44Z</time></trkpt><trkpt lat="42.22216594763985" lon="14.193214786441445"><ele>318.0</ele><time>2026-05-01T09:47:45Z</time></trkpt><trkpt lat="42.22222065106095" lon="14.193275820465509"><ele>318.0</ele><time>2026-05-01T09:47:46Z</time></trkpt><trkpt lat="42.22229057837704" lon="14.193336633159293"><ele>318.0</ele><time>2026-05-01T09:47:47Z</time></trkpt><trkpt lat="42.22235824175297" lon="14.193395188800874"><ele>316.6666666666667</ele><time>2026-05-01T09:47:48Z</time></trkpt><trkpt lat="42.222429304213506" lon="14.193445557635659"><ele>315.3333333333333</ele><time>2026-05-01T09:47:49Z</time></trkpt><trkpt lat="42.2224862979642" lon="14.193491075718033"><ele>314.0</ele><time>2026-05-01T09:47:50Z</time></trkpt><trkpt lat="42.22255862740462" lon="14.193518321710503"><ele>312.66666666666663</ele><time>2026-05-01T09:47:51Z</time></trkpt><trkpt lat="42.22262440225955" lon="14.19355551611263"><ele>311.3333333333333</ele><time>2026-05-01T09:47:52Z</time></trkpt><trkpt lat="42.22268815472432" lon="14.193598744882589"><ele>310.0</ele><time>2026-05-01T09:47:53Z</time></trkpt><trkpt lat="42.22276355729457" lon="14.193654925401137"><ele>310.0</ele><time>2026-05-01T09:47:54Z</time></trkpt><trkpt lat="42.222859937586776" lon="14.193718148143681"><ele>310.0</ele><time>2026-05-01T09:47:55Z</time></trkpt><trkpt lat="42.22295765624873" lon="14.193784739384698"><ele>310.0</ele><time>2026-05-01T09:47:56Z</time></trkpt><trkpt lat="42.22305415769605" lon="14.193841070555125"><ele>310.0</ele><time>2026-05-01T09:47:57Z</time></trkpt><trkpt lat="42.22314781522355" lon="14.193900371172699"><ele>310.0</ele><time>2026-05-01T09:47:58Z</time></trkpt><trkpt lat="42.22323835752004" lon="14.19395568184633"><ele>308.8</ele><time>2026-05-01T09:47:59Z</time></trkpt><trkpt lat="42.22333922988992" lon="14.194017848059355"><ele>307.6</ele><time>2026-05-01T09:48:00Z</time></trkpt><trkpt lat="42.223432415544" lon="14.194083462885626"><ele>306.4</ele><time>2026-05-01T09:48:01Z</time></trkpt><trkpt lat="42.223536635518485" lon="14.194146652126722"><ele>305.2</ele><time>2026-05-01T09:48:02Z</time></trkpt><trkpt lat="42.223641785418316" lon="14.194203953686333"><ele>304.0</ele><time>2026-05-01T09:48:03Z</time></trkpt><trkpt lat="42.22372459074157" lon="14.19423969172864"><ele>304.0</ele><time>2026-05-01T09:48:04Z</time></trkpt><trkpt lat="42.22380230699089" lon="14.1943384148506"><ele>304.0</ele><time>2026-05-01T09:48:05Z</time></trkpt><trkpt lat="42.223884212433745" lon="14.194428544719857"><ele>304.0</ele><time>2026-05-01T09:48:06Z</time></trkpt><trkpt lat="42.223958928643064" lon="14.194514063078874"><ele>304.0</ele><time>2026-05-01T09:48:07Z</time></trkpt><trkpt lat="42.224052246287116" lon="14.194579121919418"><ele>304.0</ele><time>2026-05-01T09:48:08Z</time></trkpt><trkpt lat="42.224127199367516" lon="14.19462686888606"><ele>303.59999999999997</ele><time>2026-05-01T09:48:09Z</time></trkpt><trkpt lat="42.22419558173255" lon="14.19469694557716"><ele>303.2</ele><time>2026-05-01T09:48:10Z</time></trkpt><trkpt lat="42.22428790819825" lon="14.1947386726195"><ele>302.79999999999995</ele><time>2026-05-01T09:48:11Z</time></trkpt><trkpt lat="42.22437709956679" lon="14.194826614900297"><ele>302.4</ele><time>2026-05-01T09:48:12Z</time></trkpt><trkpt lat="42.224466809959914" lon="14.19487546453911"><ele>302.0</ele><time>2026-05-01T09:48:13Z</time></trkpt><trkpt lat="42.22455327082444" lon="14.194909801603126"><ele>301.6</ele><time>2026-05-01T09:48:14Z</time></trkpt><trkpt lat="42.22462634134808" lon="14.194929397153778"><ele>301.2</ele><time>2026-05-01T09:48:15Z</time></trkpt><trkpt lat="42.22470787277796" lon="14.194939825814183"><ele>300.8</ele><time>2026-05-01T09:48:16Z</time></trkpt><trkpt lat="42.22480587045218" lon="14.194925171643755"><ele>300.4</ele><time>2026-05-01T09:48:17Z</time></trkpt><trkpt lat="42.22493751268486" lon="14.19494007238947"><ele>300.0</ele><time>2026-05-01T09:48:18Z</time></trkpt><trkpt lat="42.22501466739043" lon="14.194944499229207"><ele>298.25</ele><time>2026-05-01T09:48:19Z</time></trkpt><trkpt lat="42.22513545014577" lon="14.194955979070683"><ele>296.5</ele><time>2026-05-01T09:48:21Z</time></trkpt><trkpt lat="42.225251319633145" lon="14.195033253785223"><ele>294.75</ele><time>2026-05-01T09:48:24Z</time></trkpt><trkpt lat="42.225325153997936" lon="14.195135436473848"><ele>293.0</ele><time>2026-05-01T09:48:25.999Z</time></trkpt><trkpt lat="42.22536266834011" lon="14.19529332621381"><ele>293.0</ele><time>2026-05-01T09:48:27.999Z</time></trkpt><trkpt lat="42.22539264441965" lon="14.195436001734619"><ele>293.0</ele><time>2026-05-01T09:48:29.999Z</time></trkpt><trkpt lat="42.22544025090811" lon="14.195571490212915"><ele>293.0</ele><time>2026-05-01T09:48:31.999Z</time></trkpt><trkpt lat="42.22555891474684" lon="14.195614048010661"><ele>293.0</ele><time>2026-05-01T09:48:33.999Z</time></trkpt><trkpt lat="42.22562286389736" lon="14.195636962503471"><ele>293.0</ele><time>2026-05-01T09:48:34.999Z</time></trkpt><trkpt lat="42.22571353697519" lon="14.195674075851457"><ele>294.4</ele><time>2026-05-01T09:48:36.999Z</time></trkpt><trkpt lat="42.22578108298152" lon="14.195711387068865"><ele>295.8</ele><time>2026-05-01T09:48:38.999Z</time></trkpt><trkpt lat="42.22584297996428" lon="14.195791000554932"><ele>297.2</ele><time>2026-05-01T09:48:40.999Z</time></trkpt><trkpt lat="42.2258776939882" lon="14.19589695825136"><ele>298.6</ele><time>2026-05-01T09:48:42.999Z</time></trkpt><trkpt lat="42.22589826024011" lon="14.196028723370453"><ele>300.0</ele><time>2026-05-01T09:48:44.999Z</time></trkpt><trkpt lat="42.2259433471034" lon="14.196172665912739"><ele>300.0</ele><time>2026-05-01T09:48:46.999Z</time></trkpt><trkpt lat="42.225973789698614" lon="14.196255034384052"><ele>300.0</ele><time>2026-05-01T09:48:47.999Z</time></trkpt><trkpt lat="42.22599647076566" lon="14.19638617207589"><ele>300.0</ele><time>2026-05-01T09:48:49.999Z</time></trkpt><trkpt lat="42.226011607217345" lon="14.19647169257978"><ele>300.0</ele><time>2026-05-01T09:48:50.999Z</time></trkpt><trkpt lat="42.226067266954075" lon="14.196604097022552"><ele>300.0</ele><time>2026-05-01T09:48:52.999Z</time></trkpt><trkpt lat="42.2261202077707" lon="14.196745821949243"><ele>301.0</ele><time>2026-05-01T09:48:54.999Z</time></trkpt><trkpt lat="42.22621328012265" lon="14.196839431261026"><ele>302.0</ele><time>2026-05-01T09:48:56.999Z</time></trkpt><trkpt lat="42.22628836401131" lon="14.196894020032735"><ele>303.0</ele><time>2026-05-01T09:48:57.999Z</time></trkpt><trkpt lat="42.226374150062824" lon="14.196964566233044"><ele>304.0</ele><time>2026-05-01T09:48:58.999Z</time></trkpt><trkpt lat="42.22645784530903" lon="14.197029503588363"><ele>305.0</ele><time>2026-05-01T09:48:59.999Z</time></trkpt><trkpt lat="42.22651816293855" lon="14.197076845227972"><ele>305.0</ele><time>2026-05-01T09:49:00.999Z</time></trkpt><trkpt lat="42.22655732813558" lon="14.19718664401219"><ele>305.0</ele><time>2026-05-01T09:49:02.999Z</time></trkpt><trkpt lat="42.22662476602805" lon="14.1973196460271"><ele>305.0</ele><time>2026-05-01T09:49:04.999Z</time></trkpt><trkpt lat="42.22668593144899" lon="14.197387687374112"><ele>305.0</ele><time>2026-05-01T09:49:05.999Z</time></trkpt><trkpt lat="42.226737330267" lon="14.197451021310021"><ele>305.0</ele><time>2026-05-01T09:49:06.999Z</time></trkpt><trkpt lat="42.22680478803695" lon="14.197516791025809"><ele>305.0</ele><time>2026-05-01T09:49:07.999Z</time></trkpt><trkpt lat="42.22690270443183" lon="14.197604594455417"><ele>307.2</ele><time>2026-05-01T09:49:08.999Z</time></trkpt><trkpt lat="42.2270030555999" lon="14.197668342623313"><ele>309.4</ele><time>2026-05-01T09:49:09.999Z</time></trkpt><trkpt lat="42.227095365257036" lon="14.197761322313216"><ele>311.6</ele><time>2026-05-01T09:49:10.999Z</time></trkpt><trkpt lat="42.22715804491194" lon="14.197827650503182"><ele>313.8</ele><time>2026-05-01T09:49:11.999Z</time></trkpt><trkpt lat="42.227216426548004" lon="14.19788736926925"><ele>316.0</ele><time>2026-05-01T09:49:12.999Z</time></trkpt><trkpt lat="42.22726382538905" lon="14.197965493501156"><ele>316.00000000000006</ele><time>2026-05-01T09:49:13.999Z</time></trkpt><trkpt lat="42.227281055160695" lon="14.198056438476163"><ele>316.0</ele><time>2026-05-01T09:49:14.999Z</time></trkpt><trkpt lat="42.22730954878022" lon="14.19815361327698"><ele>316.0</ele><time>2026-05-01T09:49:15.999Z</time></trkpt><trkpt lat="42.22732764538224" lon="14.198250366547327"><ele>316.0</ele><time>2026-05-01T09:49:16.999Z</time></trkpt><trkpt lat="42.227345441710895" lon="14.198349464778433"><ele>316.0</ele><time>2026-05-01T09:49:17.999Z</time></trkpt><trkpt lat="42.227362213762554" lon="14.19844305018091"><ele>316.00000000000006</ele><time>2026-05-01T09:49:18.999Z</time></trkpt><trkpt lat="42.22737767140563" lon="14.198542676381026"><ele>316.0</ele><time>2026-05-01T09:49:19.999Z</time></trkpt><trkpt lat="42.227392151032475" lon="14.198638135027132"><ele>315.8333333333333</ele><time>2026-05-01T09:49:20.999Z</time></trkpt><trkpt lat="42.2274214181924" lon="14.198743145725798"><ele>315.66666666666663</ele><time>2026-05-01T09:49:21.999Z</time></trkpt><trkpt lat="42.227428268493405" lon="14.19884850719821"><ele>315.5</ele><time>2026-05-01T09:49:22.999Z</time></trkpt><trkpt lat="42.227447716989396" lon="14.19895163723175"><ele>315.3333333333333</ele><time>2026-05-01T09:49:23.999Z</time></trkpt><trkpt lat="42.227463820882406" lon="14.19904387073773"><ele>315.1666666666667</ele><time>2026-05-01T09:49:24.999Z</time></trkpt><trkpt lat="42.22747187605307" lon="14.199171629929406"><ele>315.0</ele><time>2026-05-01T09:49:26.999Z</time></trkpt><trkpt lat="42.22747246155986" lon="14.199314854638097"><ele>314.2</ele><time>2026-05-01T09:49:28.999Z</time></trkpt><trkpt lat="42.22754780612126" lon="14.19944151510077"><ele>313.4</ele><time>2026-05-01T09:49:30.999Z</time></trkpt><trkpt lat="42.22760018655664" lon="14.199567199724637"><ele>312.6</ele><time>2026-05-01T09:49:32.999Z</time></trkpt><trkpt lat="42.22766277041986" lon="14.199689426227877"><ele>311.8</ele><time>2026-05-01T09:49:34.999Z</time></trkpt><trkpt lat="42.22768557658847" lon="14.199826200757213"><ele>311.0</ele><time>2026-05-01T09:49:36.998Z</time></trkpt><trkpt lat="42.22764473834985" lon="14.1999804235709"><ele>310.6666666666667</ele><time>2026-05-01T09:49:38.998Z</time></trkpt><trkpt lat="42.2276270106826" lon="14.200068919048812"><ele>310.33333333333337</ele><time>2026-05-01T09:49:39.998Z</time></trkpt><trkpt lat="42.22759491054696" lon="14.200176108352139"><ele>310.0</ele><time>2026-05-01T09:49:40.998Z</time></trkpt><trkpt lat="42.227578148819255" lon="14.200267624532698"><ele>309.6666666666667</ele><time>2026-05-01T09:49:41.998Z</time></trkpt><trkpt lat="42.227533220351276" lon="14.20036524148283"><ele>309.3333333333333</ele><time>2026-05-01T09:49:42.998Z</time></trkpt><trkpt lat="42.22749168796258" lon="14.200447957352035"><ele>309.0</ele><time>2026-05-01T09:49:43.998Z</time></trkpt><trkpt lat="42.22743288625834" lon="14.200550645465366"><ele>309.0</ele><time>2026-05-01T09:49:44.998Z</time></trkpt><trkpt lat="42.22737123818546" lon="14.200655375428816"><ele>309.0</ele><time>2026-05-01T09:49:46Z</time></trkpt><trkpt lat="42.2273321287166" lon="14.20073256659827"><ele>309.0</ele><time>2026-05-01T09:49:47Z</time></trkpt><trkpt lat="42.22726952101691" lon="14.200834526003225"><ele>309.0</ele><time>2026-05-01T09:49:49Z</time></trkpt><trkpt lat="42.22724805181262" lon="14.200922716261545"><ele>309.0</ele><time>2026-05-01T09:49:51Z</time></trkpt><trkpt lat="42.227288220885406" lon="14.20100098719012"><ele>309.0</ele><time>2026-05-01T09:49:53Z</time></trkpt><trkpt lat="42.22737190893767" lon="14.20105681148326"><ele>308.0</ele><time>2026-05-01T09:49:55Z</time></trkpt><trkpt lat="42.22742807774884" lon="14.20110060222173"><ele>307.0</ele><time>2026-05-01T09:49:56Z</time></trkpt><trkpt lat="42.22751157801104" lon="14.201160941569162"><ele>306.0</ele><time>2026-05-01T09:49:58Z</time></trkpt><trkpt lat="42.22751474021376" lon="14.20130195132016"><ele>305.0</ele><time>2026-05-01T09:50:01Z</time></trkpt><trkpt lat="42.22729370319044" lon="14.20121810797377"><ele>306.6666666666667</ele><time>2026-05-01T09:50:02Z</time></trkpt><trkpt lat="42.2272446757667" lon="14.201318964398242"><ele>308.33333333333337</ele><time>2026-05-01T09:50:03Z</time></trkpt><trkpt lat="42.22719595047432" lon="14.201415581432398"><ele>310.0</ele><time>2026-05-01T09:50:04Z</time></trkpt><trkpt lat="42.22715446795801" lon="14.201497098943731"><ele>311.6666666666667</ele><time>2026-05-01T09:50:05Z</time></trkpt><trkpt lat="42.227115377792906" lon="14.201572615944693"><ele>313.3333333333333</ele><time>2026-05-01T09:50:06Z</time></trkpt><trkpt lat="42.227068306617454" lon="14.201662019864655"><ele>315.0</ele><time>2026-05-01T09:50:07Z</time></trkpt><trkpt lat="42.22702312381652" lon="14.20174678521529"><ele>315.0</ele><time>2026-05-01T09:50:08Z</time></trkpt><trkpt lat="42.22698386266705" lon="14.201819455923175"><ele>315.0</ele><time>2026-05-01T09:50:09Z</time></trkpt><trkpt lat="42.22691995339102" lon="14.201933506547812"><ele>315.0</ele><time>2026-05-01T09:50:11Z</time></trkpt><trkpt lat="42.22687624705241" lon="14.202007243988858"><ele>315.0</ele><time>2026-05-01T09:50:12Z</time></trkpt><trkpt lat="42.2268277110122" lon="14.202091158549655"><ele>315.0</ele><time>2026-05-01T09:50:13Z</time></trkpt><trkpt lat="42.22677561617808" lon="14.202180980273788"><ele>315.0</ele><time>2026-05-01T09:50:14Z</time></trkpt><trkpt lat="42.22671276849829" lon="14.202287343461226"><ele>315.0</ele><time>2026-05-01T09:50:15Z</time></trkpt><trkpt lat="42.22663418599684" lon="14.202416633131248"><ele>315.0</ele><time>2026-05-01T09:50:17Z</time></trkpt><trkpt lat="42.226588065801735" lon="14.202490082067184"><ele>315.0</ele><time>2026-05-01T09:50:18Z</time></trkpt><trkpt lat="42.226511907415976" lon="14.202607421683354"><ele>315.0</ele><time>2026-05-01T09:50:20Z</time></trkpt><trkpt lat="42.22644058212437" lon="14.202716079981686"><ele>315.0</ele><time>2026-05-01T09:50:22Z</time></trkpt><trkpt lat="42.22636583505634" lon="14.202828537326091"><ele>315.0</ele><time>2026-05-01T09:50:24Z</time></trkpt><trkpt lat="42.22628188189994" lon="14.20294911430487"><ele>315.0</ele><time>2026-05-01T09:50:26Z</time></trkpt><trkpt lat="42.22621878874324" lon="14.2030365314796"><ele>315.0</ele><time>2026-05-01T09:50:28Z</time></trkpt><trkpt lat="42.226264538617805" lon="14.203161329696783"><ele>315.0</ele><time>2026-05-01T09:50:28.999Z</time></trkpt><trkpt lat="42.226222181876075" lon="14.203276979785226"><ele>315.0</ele><time>2026-05-01T09:50:30.999Z</time></trkpt><trkpt lat="42.22615281653759" lon="14.20340320744348"><ele>313.75</ele><time>2026-05-01T09:50:32.999Z</time></trkpt><trkpt lat="42.226109869585805" lon="14.203466115577866"><ele>312.5</ele><time>2026-05-01T09:50:33.999Z</time></trkpt><trkpt lat="42.2260540069101" lon="14.203589420530756"><ele>311.25</ele><time>2026-05-01T09:50:35.999Z</time></trkpt><trkpt lat="42.22584278044166" lon="14.203525812112943"><ele>310.0</ele><time>2026-05-01T09:50:37.999Z</time></trkpt><trkpt lat="42.22579490760045" lon="14.203585041538718"><ele>310.0</ele><time>2026-05-01T09:50:38.999Z</time></trkpt><trkpt lat="42.22571229840608" lon="14.203684314892152"><ele>310.0</ele><time>2026-05-01T09:50:40.999Z</time></trkpt><trkpt lat="42.22566325343413" lon="14.203741017581"><ele>310.0</ele><time>2026-05-01T09:50:41.999Z</time></trkpt><trkpt lat="42.22557174256493" lon="14.203844935810373"><ele>310.0</ele><time>2026-05-01T09:50:43.999Z</time></trkpt><trkpt lat="42.225481123639064" lon="14.203947450663772"><ele>310.0</ele><time>2026-05-01T09:50:45.999Z</time></trkpt><trkpt lat="42.22542557393411" lon="14.204009700102306"><ele>309.6</ele><time>2026-05-01T09:50:46.999Z</time></trkpt><trkpt lat="42.22537331995561" lon="14.204066687413038"><ele>309.2</ele><time>2026-05-01T09:50:47.999Z</time></trkpt><trkpt lat="42.22528625631348" lon="14.204159809773369"><ele>308.8</ele><time>2026-05-01T09:50:49.999Z</time></trkpt><trkpt lat="42.22519000265202" lon="14.204277094548026"><ele>308.4</ele><time>2026-05-01T09:50:51.999Z</time></trkpt><trkpt lat="42.22507731670007" lon="14.204342970057546"><ele>308.0</ele><time>2026-05-01T09:50:53.999Z</time></trkpt><trkpt lat="42.22501725791285" lon="14.204378270646309"><ele>308.0</ele><time>2026-05-01T09:50:54.999Z</time></trkpt><trkpt lat="42.22494998800233" lon="14.204421567183028"><ele>308.0</ele><time>2026-05-01T09:50:55.999Z</time></trkpt><trkpt lat="42.224878664237764" lon="14.204490070537698"><ele>308.0</ele><time>2026-05-01T09:50:56.999Z</time></trkpt><trkpt lat="42.22481484224989" lon="14.20452925238711"><ele>308.0</ele><time>2026-05-01T09:50:57.999Z</time></trkpt><trkpt lat="42.22473819794091" lon="14.204614764467122"><ele>308.0</ele><time>2026-05-01T09:50:58.999Z</time></trkpt><trkpt lat="42.224632078655446" lon="14.204702954053156"><ele>308.8</ele><time>2026-05-01T09:51:00.999Z</time></trkpt><trkpt lat="42.22456161124989" lon="14.204745306186464"><ele>309.6</ele><time>2026-05-01T09:51:01.999Z</time></trkpt><trkpt lat="42.22439523287247" lon="14.204823235921884"><ele>310.4</ele><time>2026-05-01T09:51:03.999Z</time></trkpt><trkpt lat="42.22432218876085" lon="14.204860471450942"><ele>311.2</ele><time>2026-05-01T09:51:04.999Z</time></trkpt><trkpt lat="42.224237800056365" lon="14.204950082886407"><ele>312.0</ele><time>2026-05-01T09:51:06.999Z</time></trkpt><trkpt lat="42.22415642269365" lon="14.205055869100093"><ele>312.0</ele><time>2026-05-01T09:51:08.999Z</time></trkpt><trkpt lat="42.224091103545426" lon="14.205100998382157"><ele>312.0</ele><time>2026-05-01T09:51:09.999Z</time></trkpt><trkpt lat="42.224009878982116" lon="14.205150390084246"><ele>312.0</ele><time>2026-05-01T09:51:10.999Z</time></trkpt><trkpt lat="42.223916670723106" lon="14.205197639965693"><ele>312.0</ele><time>2026-05-01T09:51:11.999Z</time></trkpt><trkpt lat="42.22384225785632" lon="14.205227229477742"><ele>312.0</ele><time>2026-05-01T09:51:12.999Z</time></trkpt><trkpt lat="42.223773733829965" lon="14.20527975762497"><ele>312.0</ele><time>2026-05-01T09:51:13.999Z</time></trkpt><trkpt lat="42.22371464043033" lon="14.205344272657676"><ele>313.4</ele><time>2026-05-01T09:51:14.999Z</time></trkpt><trkpt lat="42.22365465107597" lon="14.20541246561168"><ele>314.79999999999995</ele><time>2026-05-01T09:51:15.999Z</time></trkpt><trkpt lat="42.22357607215496" lon="14.205470446585487"><ele>316.2</ele><time>2026-05-01T09:51:16.999Z</time></trkpt><trkpt lat="42.223477144747775" lon="14.205527578497161"><ele>317.59999999999997</ele><time>2026-05-01T09:51:17.999Z</time></trkpt><trkpt lat="42.223375549845464" lon="14.205590635999268"><ele>319.0</ele><time>2026-05-01T09:51:18.999Z</time></trkpt><trkpt lat="42.22330354380272" lon="14.20564814193201"><ele>319.8333333333333</ele><time>2026-05-01T09:51:19.999Z</time></trkpt><trkpt lat="42.22322592288964" lon="14.20571488662909"><ele>320.66666666666663</ele><time>2026-05-01T09:51:20.999Z</time></trkpt><trkpt lat="42.22316466008768" lon="14.20576138388285"><ele>321.5</ele><time>2026-05-01T09:51:21.999Z</time></trkpt><trkpt lat="42.22307573309131" lon="14.205812168386139"><ele>322.3333333333333</ele><time>2026-05-01T09:51:22.999Z</time></trkpt><trkpt lat="42.22301284176124" lon="14.205887666380049"><ele>323.1666666666667</ele><time>2026-05-01T09:51:23.999Z</time></trkpt><trkpt lat="42.222937506041426" lon="14.20598041721635"><ele>324.0</ele><time>2026-05-01T09:51:24.999Z</time></trkpt><trkpt lat="42.22285585833398" lon="14.206074816343287"><ele>324.0</ele><time>2026-05-01T09:51:25.999Z</time></trkpt><trkpt lat="42.22277321053751" lon="14.206179512277103"><ele>324.0</ele><time>2026-05-01T09:51:26.999Z</time></trkpt><trkpt lat="42.222691070746386" lon="14.206261523462848"><ele>324.0</ele><time>2026-05-01T09:51:27.999Z</time></trkpt><trkpt lat="42.22263199529652" lon="14.206318486945776"><ele>324.0</ele><time>2026-05-01T09:51:28.999Z</time></trkpt><trkpt lat="42.22251982526505" lon="14.206407897692658"><ele>324.0</ele><time>2026-05-01T09:51:30.999Z</time></trkpt><trkpt lat="42.22244097379769" lon="14.206468876276183"><ele>323.8333333333333</ele><time>2026-05-01T09:51:31.999Z</time></trkpt><trkpt lat="42.22237091843878" lon="14.206521569742332"><ele>323.6666666666667</ele><time>2026-05-01T09:51:32.999Z</time></trkpt><trkpt lat="42.222300956904995" lon="14.206573805005002"><ele>323.5</ele><time>2026-05-01T09:51:33.999Z</time></trkpt><trkpt lat="42.22222984253352" lon="14.20663681762227"><ele>323.33333333333337</ele><time>2026-05-01T09:51:35.999Z</time></trkpt><trkpt lat="42.22214468396525" lon="14.206682442153689"><ele>323.1666666666667</ele><time>2026-05-01T09:51:36.999Z</time></trkpt><trkpt lat="42.222104096379134" lon="14.206760744646546"><ele>323.0</ele><time>2026-05-01T09:51:37.999Z</time></trkpt><trkpt lat="42.22201698740905" lon="14.206833823272905"><ele>323.0</ele><time>2026-05-01T09:51:39.999Z</time></trkpt><trkpt lat="42.221932778904275" lon="14.20690446857179"><ele>323.0</ele><time>2026-05-01T09:51:41.999Z</time></trkpt><trkpt lat="42.2218553319641" lon="14.206969441395886"><ele>323.0</ele><time>2026-05-01T09:51:43.998Z</time></trkpt><trkpt lat="42.22178571294973" lon="14.207027847099724"><ele>323.0</ele><time>2026-05-01T09:51:45.998Z</time></trkpt><trkpt lat="42.221702198535574" lon="14.207097910098959"><ele>323.0</ele><time>2026-05-01T09:51:47.998Z</time></trkpt><trkpt lat="42.22157305170905" lon="14.207128460152715"><ele>323.0</ele><time>2026-05-01T09:51:49.998Z</time></trkpt><trkpt lat="42.221521918189566" lon="14.20720665649528"><ele>323.0</ele><time>2026-05-01T09:51:50.998Z</time></trkpt><trkpt lat="42.22146773750308" lon="14.20727644872616"><ele>323.0</ele><time>2026-05-01T09:51:52Z</time></trkpt><trkpt lat="42.22140124476754" lon="14.207323953709144"><ele>323.0</ele><time>2026-05-01T09:51:53Z</time></trkpt><trkpt lat="42.22134459835647" lon="14.20738161134462"><ele>323.0</ele><time>2026-05-01T09:51:54Z</time></trkpt><trkpt lat="42.22128770920988" lon="14.207426744204145"><ele>323.0</ele><time>2026-05-01T09:51:55Z</time></trkpt><trkpt lat="42.22119740842296" lon="14.207504992111422"><ele>324.1666666666667</ele><time>2026-05-01T09:51:57Z</time></trkpt><trkpt lat="42.2211458600994" lon="14.207566574038246"><ele>325.33333333333337</ele><time>2026-05-01T09:51:58Z</time></trkpt><trkpt lat="42.22107647673114" lon="14.207618139424376"><ele>326.5</ele><time>2026-05-01T09:51:59Z</time></trkpt><trkpt lat="42.22098801531511" lon="14.20767332757675"><ele>327.6666666666667</ele><time>2026-05-01T09:52:00Z</time></trkpt><trkpt lat="42.22091934439889" lon="14.207741831763128"><ele>328.8333333333333</ele><time>2026-05-01T09:52:01Z</time></trkpt><trkpt lat="42.22085376075419" lon="14.20781089482544"><ele>330.0</ele><time>2026-05-01T09:52:02Z</time></trkpt><trkpt lat="42.220796185684115" lon="14.207852864303874"><ele>330.0</ele><time>2026-05-01T09:52:03Z</time></trkpt><trkpt lat="42.22072041972908" lon="14.20790898949983"><ele>330.0</ele><time>2026-05-01T09:52:04Z</time></trkpt><trkpt lat="42.22065570667814" lon="14.207927589029062"><ele>330.0</ele><time>2026-05-01T09:52:05Z</time></trkpt><trkpt lat="42.220588762415574" lon="14.207965278753136"><ele>330.0</ele><time>2026-05-01T09:52:06Z</time></trkpt><trkpt lat="42.22052828186117" lon="14.208009720495374"><ele>330.0</ele><time>2026-05-01T09:52:07Z</time></trkpt><trkpt lat="42.22050630317435" lon="14.208104042177496"><ele>330.0</ele><time>2026-05-01T09:52:08Z</time></trkpt><trkpt lat="42.220431056200496" lon="14.20816748782047"><ele>330.5</ele><time>2026-05-01T09:52:09Z</time></trkpt><trkpt lat="42.22036754067648" lon="14.208221142575693"><ele>331.0</ele><time>2026-05-01T09:52:10Z</time></trkpt><trkpt lat="42.22030733889397" lon="14.208270367997107"><ele>331.5</ele><time>2026-05-01T09:52:11Z</time></trkpt><trkpt lat="42.22022948317626" lon="14.208332033149523"><ele>332.0</ele><time>2026-05-01T09:52:12Z</time></trkpt><trkpt lat="42.22014936807953" lon="14.208395487915931"><ele>332.5</ele><time>2026-05-01T09:52:13Z</time></trkpt><trkpt lat="42.220089687223464" lon="14.208522315335355"><ele>333.0</ele><time>2026-05-01T09:52:14Z</time></trkpt><trkpt lat="42.21999698844272" lon="14.208587069626729"><ele>333.0</ele><time>2026-05-01T09:52:15Z</time></trkpt><trkpt lat="42.219908860107296" lon="14.208646985205899"><ele>333.0</ele><time>2026-05-01T09:52:16Z</time></trkpt><trkpt lat="42.21981085697538" lon="14.208708614680036"><ele>333.0</ele><time>2026-05-01T09:52:17Z</time></trkpt><trkpt lat="42.21971383300262" lon="14.20876473199575"><ele>333.0</ele><time>2026-05-01T09:52:18Z</time></trkpt><trkpt lat="42.2196217965499" lon="14.208816612428867"><ele>333.0</ele><time>2026-05-01T09:52:19Z</time></trkpt><trkpt lat="42.21951022080482" lon="14.208871847867625"><ele>332.75</ele><time>2026-05-01T09:52:20Z</time></trkpt><trkpt lat="42.21937949754856" lon="14.208922957068975"><ele>332.5</ele><time>2026-05-01T09:52:21Z</time></trkpt><trkpt lat="42.219238816747975" lon="14.208966567240973"><ele>332.25</ele><time>2026-05-01T09:52:22Z</time></trkpt><trkpt lat="42.219111317046774" lon="14.208991956741235"><ele>332.0</ele><time>2026-05-01T09:52:23Z</time></trkpt><trkpt lat="42.21900074497016" lon="14.20900654983714"><ele>332.0</ele><time>2026-05-01T09:52:24Z</time></trkpt><trkpt lat="42.218885480368186" lon="14.209014962835983"><ele>332.0</ele><time>2026-05-01T09:52:25Z</time></trkpt><trkpt lat="42.21877199265352" lon="14.209016933914858"><ele>332.0</ele><time>2026-05-01T09:52:26Z</time></trkpt><trkpt lat="42.21862823553912" lon="14.209004703434807"><ele>332.0</ele><time>2026-05-01T09:52:27Z</time></trkpt><trkpt lat="42.21849058545857" lon="14.208973412260729"><ele>333.0</ele><time>2026-05-01T09:52:28Z</time></trkpt><trkpt lat="42.218336910415275" lon="14.208938478247271"><ele>334.0</ele><time>2026-05-01T09:52:29Z</time></trkpt><trkpt lat="42.21817173189111" lon="14.208900929200015"><ele>335.0</ele><time>2026-05-01T09:52:30Z</time></trkpt><trkpt lat="42.21799785654016" lon="14.208849381415837"><ele>335.5</ele><time>2026-05-01T09:52:31Z</time></trkpt><trkpt lat="42.21781152634979" lon="14.208714816508511"><ele>336.0</ele><time>2026-05-01T09:52:32Z</time></trkpt><trkpt lat="42.2177540713786" lon="14.2086724493889"><ele>336.5</ele><time>2026-05-01T09:52:33Z</time></trkpt><trkpt lat="42.21763538728948" lon="14.208633731728863"><ele>337.0</ele><time>2026-05-01T09:52:34Z</time></trkpt><trkpt lat="42.217436796345694" lon="14.208437226494341"><ele>337.0</ele><time>2026-05-01T09:52:35Z</time></trkpt><trkpt lat="42.2173483980934" lon="14.208346872005455"><ele>337.0</ele><time>2026-05-01T09:52:36Z</time></trkpt><trkpt lat="42.21730775453143" lon="14.20818586044805"><ele>337.0</ele><time>2026-05-01T09:52:37Z</time></trkpt><trkpt lat="42.21723862590612" lon="14.208095172797906"><ele>337.0</ele><time>2026-05-01T09:52:38Z</time></trkpt><trkpt lat="42.21715746328711" lon="14.207990752184456"><ele>337.0</ele><time>2026-05-01T09:52:39Z</time></trkpt><trkpt lat="42.21708265546255" lon="14.207898015224414"><ele>338.8</ele><time>2026-05-01T09:52:40Z</time></trkpt><trkpt lat="42.217017486411" lon="14.207817824066193"><ele>340.6</ele><time>2026-05-01T09:52:41Z</time></trkpt><trkpt lat="42.21693206328892" lon="14.207713639197646"><ele>342.40000000000003</ele><time>2026-05-01T09:52:42Z</time></trkpt><trkpt lat="42.216846428915964" lon="14.207617955866022"><ele>344.20000000000005</ele><time>2026-05-01T09:52:43Z</time></trkpt><trkpt lat="42.21676050901419" lon="14.207527829139606"><ele>346.0</ele><time>2026-05-01T09:52:43.999Z</time></trkpt><trkpt lat="42.216656908439546" lon="14.207428802881804"><ele>346.0</ele><time>2026-05-01T09:52:44.999Z</time></trkpt><trkpt lat="42.21655393822214" lon="14.207342082014698"><ele>346.0</ele><time>2026-05-01T09:52:45.999Z</time></trkpt><trkpt lat="42.21643953123287" lon="14.207258312562326"><ele>346.0</ele><time>2026-05-01T09:52:46.999Z</time></trkpt><trkpt lat="42.2163078407637" lon="14.207179159765026"><ele>346.0</ele><time>2026-05-01T09:52:47.999Z</time></trkpt><trkpt lat="42.216178020593404" lon="14.207112142400842"><ele>347.25</ele><time>2026-05-01T09:52:48.999Z</time></trkpt><trkpt lat="42.2160565590229" lon="14.207061611137862"><ele>348.5</ele><time>2026-05-01T09:52:49.999Z</time></trkpt><trkpt lat="42.215912911031694" lon="14.20700996112828"><ele>349.75</ele><time>2026-05-01T09:52:50.999Z</time></trkpt><trkpt lat="42.21577539725357" lon="14.20694365390541"><ele>351.0</ele><time>2026-05-01T09:52:51.999Z</time></trkpt><trkpt lat="42.21563571282035" lon="14.206907870532564"><ele>352.0</ele><time>2026-05-01T09:52:52.999Z</time></trkpt><trkpt lat="42.21550275083424" lon="14.206888371733987"><ele>353.0</ele><time>2026-05-01T09:52:53.999Z</time></trkpt><trkpt lat="42.21538874523192" lon="14.20685642139039"><ele>354.0</ele><time>2026-05-01T09:52:54.999Z</time></trkpt><trkpt lat="42.215278031322896" lon="14.2068253127248"><ele>355.0</ele><time>2026-05-01T09:52:55.999Z</time></trkpt><trkpt lat="42.21516333889711" lon="14.206770296327353"><ele>355.0</ele><time>2026-05-01T09:52:56.999Z</time></trkpt><trkpt lat="42.215043610678634" lon="14.206743570823114"><ele>355.0</ele><time>2026-05-01T09:52:57.999Z</time></trkpt><trkpt lat="42.21492315614623" lon="14.206724013288683"><ele>355.0</ele><time>2026-05-01T09:52:58.999Z</time></trkpt><trkpt lat="42.2148012520356" lon="14.206689226452864"><ele>355.0</ele><time>2026-05-01T09:52:59.999Z</time></trkpt><trkpt lat="42.21467682772727" lon="14.206653739023125"><ele>356.0</ele><time>2026-05-01T09:53:00.999Z</time></trkpt><trkpt lat="42.214575504600596" lon="14.206625684534288"><ele>357.0</ele><time>2026-05-01T09:53:01.999Z</time></trkpt><trkpt lat="42.21446467060876" lon="14.206601653906018"><ele>358.0</ele><time>2026-05-01T09:53:02.999Z</time></trkpt><trkpt lat="42.214359869436976" lon="14.20655717224719"><ele>359.0</ele><time>2026-05-01T09:53:03.999Z</time></trkpt><trkpt lat="42.2142528544095" lon="14.206518447754537"><ele>360.0</ele><time>2026-05-01T09:53:04.999Z</time></trkpt><trkpt lat="42.21415103592989" lon="14.206482395457813"><ele>361.25</ele><time>2026-05-01T09:53:05.999Z</time></trkpt><trkpt lat="42.21404551898449" lon="14.206463527806754"><ele>362.5</ele><time>2026-05-01T09:53:06.999Z</time></trkpt><trkpt lat="42.21392346502364" lon="14.206424047923614"><ele>363.75</ele><time>2026-05-01T09:53:07.999Z</time></trkpt><trkpt lat="42.213775430508605" lon="14.206384002517918"><ele>365.0</ele><time>2026-05-01T09:53:08.999Z</time></trkpt><trkpt lat="42.213625418876475" lon="14.206337999112348"><ele>366.0</ele><time>2026-05-01T09:53:09.999Z</time></trkpt><trkpt lat="42.21346355785211" lon="14.20631319181784"><ele>367.0</ele><time>2026-05-01T09:53:10.999Z</time></trkpt><trkpt lat="42.213295241316374" lon="14.206265770678703"><ele>368.0</ele><time>2026-05-01T09:53:11.999Z</time></trkpt><trkpt lat="42.21312740541147" lon="14.206217344917413"><ele>368.79999999999995</ele><time>2026-05-01T09:53:12.999Z</time></trkpt><trkpt lat="42.21299499609441" lon="14.206179186231527"><ele>369.6</ele><time>2026-05-01T09:53:13.999Z</time></trkpt><trkpt lat="42.21289774109434" lon="14.206151356673432"><ele>370.4</ele><time>2026-05-01T09:53:14.999Z</time></trkpt><trkpt lat="42.21278482280281" lon="14.206119045138893"><ele>371.20000000000005</ele><time>2026-05-01T09:53:15.999Z</time></trkpt><trkpt lat="42.212697025797624" lon="14.206074005370091"><ele>372.0</ele><time>2026-05-01T09:53:16.999Z</time></trkpt><trkpt lat="42.212622605214804" lon="14.206072240591642"><ele>372.0</ele><time>2026-05-01T09:53:17.999Z</time></trkpt><trkpt lat="42.21255866261645" lon="14.206053605374137"><ele>372.0</ele><time>2026-05-01T09:53:18.999Z</time></trkpt><trkpt lat="42.212475595856695" lon="14.206029485964907"><ele>372.0</ele><time>2026-05-01T09:53:20.999Z</time></trkpt><trkpt lat="42.21238194928374" lon="14.206003428294624"><ele>372.0</ele><time>2026-05-01T09:53:22.999Z</time></trkpt><trkpt lat="42.21230390334043" lon="14.20598178396503"><ele>372.0</ele><time>2026-05-01T09:53:23.999Z</time></trkpt><trkpt lat="42.212204266387076" lon="14.205953879388383"><ele>372.0</ele><time>2026-05-01T09:53:24.999Z</time></trkpt><trkpt lat="42.21211401452644" lon="14.205927947829801"><ele>372.8</ele><time>2026-05-01T09:53:25.999Z</time></trkpt><trkpt lat="42.212021403270676" lon="14.205882686605984"><ele>373.6</ele><time>2026-05-01T09:53:26.999Z</time></trkpt><trkpt lat="42.21192348689932" lon="14.205871961040753"><ele>374.40000000000003</ele><time>2026-05-01T09:53:27.999Z</time></trkpt><trkpt lat="42.21184276947501" lon="14.20584930679463"><ele>375.20000000000005</ele><time>2026-05-01T09:53:28.999Z</time></trkpt><trkpt lat="42.21174504121964" lon="14.205825116398138"><ele>376.0</ele><time>2026-05-01T09:53:29.999Z</time></trkpt><trkpt lat="42.21164601673476" lon="14.20579782413007"><ele>376.0</ele><time>2026-05-01T09:53:30.999Z</time></trkpt><trkpt lat="42.211542279120806" lon="14.205761150169232"><ele>376.0</ele><time>2026-05-01T09:53:31.999Z</time></trkpt><trkpt lat="42.21140971165374" lon="14.205717170347718"><ele>376.0</ele><time>2026-05-01T09:53:32.999Z</time></trkpt><trkpt lat="42.21131838065873" lon="14.205681591684051"><ele>376.0</ele><time>2026-05-01T09:53:33.999Z</time></trkpt><trkpt lat="42.211247936517964" lon="14.205655440636503"><ele>376.0</ele><time>2026-05-01T09:53:34.999Z</time></trkpt><trkpt lat="42.211176217583265" lon="14.205643492959195"><ele>378.20000000000005</ele><time>2026-05-01T09:53:35.999Z</time></trkpt><trkpt lat="42.21108812110702" lon="14.205616180111045"><ele>380.40000000000003</ele><time>2026-05-01T09:53:36.999Z</time></trkpt><trkpt lat="42.21098223209331" lon="14.205595918903576"><ele>382.6</ele><time>2026-05-01T09:53:37.999Z</time></trkpt><trkpt lat="42.21087853419965" lon="14.205569275841851"><ele>384.8</ele><time>2026-05-01T09:53:38.999Z</time></trkpt><trkpt lat="42.210786658441535" lon="14.205553399718418"><ele>387.0</ele><time>2026-05-01T09:53:39.999Z</time></trkpt><trkpt lat="42.210689883191336" lon="14.205524215565069"><ele>387.1666666666667</ele><time>2026-05-01T09:53:40.999Z</time></trkpt><trkpt lat="42.21061647604317" lon="14.205498217342273"><ele>387.33333333333337</ele><time>2026-05-01T09:53:41.999Z</time></trkpt><trkpt lat="42.210533044768454" lon="14.205481591857234"><ele>387.5</ele><time>2026-05-01T09:53:42.999Z</time></trkpt><trkpt lat="42.210437914998415" lon="14.205456605814641"><ele>387.6666666666667</ele><time>2026-05-01T09:53:43.999Z</time></trkpt><trkpt lat="42.210347646224655" lon="14.205426590124423"><ele>387.83333333333337</ele><time>2026-05-01T09:53:44.999Z</time></trkpt><trkpt lat="42.21025035958064" lon="14.205404647844434"><ele>388.0</ele><time>2026-05-01T09:53:45.999Z</time></trkpt><trkpt lat="42.21015808783339" lon="14.20537565045115"><ele>388.0</ele><time>2026-05-01T09:53:46.999Z</time></trkpt><trkpt lat="42.210063100606135" lon="14.205344519930595"><ele>388.0</ele><time>2026-05-01T09:53:47.999Z</time></trkpt><trkpt lat="42.209967087015556" lon="14.20531153582665"><ele>388.0</ele><time>2026-05-01T09:53:48.999Z</time></trkpt><trkpt lat="42.20988403772428" lon="14.205285063344103"><ele>388.0</ele><time>2026-05-01T09:53:49.999Z</time></trkpt><trkpt lat="42.209799762556536" lon="14.205260781985706"><ele>388.0</ele><time>2026-05-01T09:53:50.999Z</time></trkpt><trkpt lat="42.209710979486815" lon="14.205236529452522"><ele>388.59999999999997</ele><time>2026-05-01T09:53:51.999Z</time></trkpt><trkpt lat="42.209618281202026" lon="14.20520477312833"><ele>389.2</ele><time>2026-05-01T09:53:52.999Z</time></trkpt><trkpt lat="42.20949231679049" lon="14.205172813066007"><ele>389.8</ele><time>2026-05-01T09:53:53.999Z</time></trkpt><trkpt lat="42.209434354996716" lon="14.205134898377123"><ele>390.4</ele><time>2026-05-01T09:53:54.999Z</time></trkpt><trkpt lat="42.20933060568344" lon="14.205089939444091"><ele>391.0</ele><time>2026-05-01T09:53:55.999Z</time></trkpt><trkpt lat="42.20923556156243" lon="14.205059429330465"><ele>391.00000000000006</ele><time>2026-05-01T09:53:56.999Z</time></trkpt><trkpt lat="42.20915644953587" lon="14.205028074295797"><ele>391.0</ele><time>2026-05-01T09:53:58Z</time></trkpt><trkpt lat="42.20908501029341" lon="14.204993695428625"><ele>391.0</ele><time>2026-05-01T09:53:59Z</time></trkpt><trkpt lat="42.20901167330317" lon="14.204961917076817"><ele>391.0</ele><time>2026-05-01T09:54:00Z</time></trkpt><trkpt lat="42.20892583559093" lon="14.204925995572017"><ele>391.00000000000006</ele><time>2026-05-01T09:54:01Z</time></trkpt><trkpt lat="42.208847697725666" lon="14.204885201173937"><ele>391.0</ele><time>2026-05-01T09:54:02Z</time></trkpt><trkpt lat="42.20877599290807" lon="14.204861020363044"><ele>391.0</ele><time>2026-05-01T09:54:03Z</time></trkpt><trkpt lat="42.208704050559184" lon="14.204837756926432"><ele>391.0</ele><time>2026-05-01T09:54:04Z</time></trkpt><trkpt lat="42.208612640702675" lon="14.204774970996736"><ele>391.0</ele><time>2026-05-01T09:54:05Z</time></trkpt><trkpt lat="42.20852037164481" lon="14.204724515221734"><ele>391.0</ele><time>2026-05-01T09:54:06Z</time></trkpt><trkpt lat="42.2084328660984" lon="14.204689379554557"><ele>391.0</ele><time>2026-05-01T09:54:07Z</time></trkpt><trkpt lat="42.20834943598129" lon="14.204650868533504"><ele>393.00000000000006</ele><time>2026-05-01T09:54:08Z</time></trkpt><trkpt lat="42.20826937198879" lon="14.204609461749083"><ele>395.0</ele><time>2026-05-01T09:54:09Z</time></trkpt><trkpt lat="42.20818538276633" lon="14.2045606725684"><ele>397.0</ele><time>2026-05-01T09:54:10Z</time></trkpt><trkpt lat="42.208102336273704" lon="14.204503975497504"><ele>399.0</ele><time>2026-05-01T09:54:11Z</time></trkpt><trkpt lat="42.20803179673707" lon="14.20444897942784"><ele>401.00000000000006</ele><time>2026-05-01T09:54:12Z</time></trkpt><trkpt lat="42.207974898616136" lon="14.204402919174319"><ele>403.0</ele><time>2026-05-01T09:54:13Z</time></trkpt><trkpt lat="42.20791330776629" lon="14.204367669630134"><ele>403.00000000000006</ele><time>2026-05-01T09:54:14Z</time></trkpt><trkpt lat="42.20785318841191" lon="14.204322824214728"><ele>403.0</ele><time>2026-05-01T09:54:15Z</time></trkpt><trkpt lat="42.20778195030722" lon="14.204269171294355"><ele>403.0</ele><time>2026-05-01T09:54:16Z</time></trkpt><trkpt lat="42.20770605436863" lon="14.204220873136263"><ele>403.0</ele><time>2026-05-01T09:54:17Z</time></trkpt><trkpt lat="42.20762789995993" lon="14.204170842213667"><ele>403.00000000000006</ele><time>2026-05-01T09:54:18Z</time></trkpt><trkpt lat="42.20754140619613" lon="14.204115081275257"><ele>403.0</ele><time>2026-05-01T09:54:19Z</time></trkpt><trkpt lat="42.207462547285566" lon="14.204065906811357"><ele>403.00000000000006</ele><time>2026-05-01T09:54:20Z</time></trkpt><trkpt lat="42.20738086024122" lon="14.204008778642788"><ele>403.0</ele><time>2026-05-01T09:54:21Z</time></trkpt><trkpt lat="42.20730292981027" lon="14.203948279933464"><ele>403.0</ele><time>2026-05-01T09:54:22Z</time></trkpt><trkpt lat="42.20721635355966" lon="14.203914636622368"><ele>403.0</ele><time>2026-05-01T09:54:23Z</time></trkpt><trkpt lat="42.207145109613386" lon="14.203842825835078"><ele>403.00000000000006</ele><time>2026-05-01T09:54:24Z</time></trkpt><trkpt lat="42.207069575875344" lon="14.203796490911458"><ele>403.0</ele><time>2026-05-01T09:54:25Z</time></trkpt><trkpt lat="42.206986146169264" lon="14.203761930718802"><ele>404.4</ele><time>2026-05-01T09:54:26Z</time></trkpt><trkpt lat="42.20689566140181" lon="14.20370190852043"><ele>405.79999999999995</ele><time>2026-05-01T09:54:27Z</time></trkpt><trkpt lat="42.20681141397218" lon="14.203645832361262"><ele>407.2</ele><time>2026-05-01T09:54:28Z</time></trkpt><trkpt lat="42.206726194192655" lon="14.203587379749278"><ele>408.6</ele><time>2026-05-01T09:54:29Z</time></trkpt><trkpt lat="42.20664316388998" lon="14.203530429299768"><ele>410.0</ele><time>2026-05-01T09:54:30Z</time></trkpt><trkpt lat="42.20655333072503" lon="14.203468812592446"><ele>409.6</ele><time>2026-05-01T09:54:31Z</time></trkpt><trkpt lat="42.206475714186126" lon="14.203415575157004"><ele>409.2</ele><time>2026-05-01T09:54:32Z</time></trkpt><trkpt lat="42.20639471146731" lon="14.20336001528026"><ele>408.79999999999995</ele><time>2026-05-01T09:54:33Z</time></trkpt><trkpt lat="42.2063136438268" lon="14.203304410780277"><ele>408.4</ele><time>2026-05-01T09:54:34Z</time></trkpt><trkpt lat="42.206229316385716" lon="14.203246570415436"><ele>408.0</ele><time>2026-05-01T09:54:35Z</time></trkpt><trkpt lat="42.20614626839215" lon="14.203189607659292"><ele>409.5</ele><time>2026-05-01T09:54:36Z</time></trkpt><trkpt lat="42.206059648837524" lon="14.203132542633357"><ele>411.0</ele><time>2026-05-01T09:54:37Z</time></trkpt><trkpt lat="42.20598921603426" lon="14.20308642201695"><ele>412.5</ele><time>2026-05-01T09:54:38Z</time></trkpt><trkpt lat="42.20592273362902" lon="14.203042888015492"><ele>414.0</ele><time>2026-05-01T09:54:39Z</time></trkpt><trkpt lat="42.20585419360605" lon="14.202997529190936"><ele>415.5</ele><time>2026-05-01T09:54:40Z</time></trkpt><trkpt lat="42.205764754715815" lon="14.20293805255208"><ele>417.0</ele><time>2026-05-01T09:54:41Z</time></trkpt><trkpt lat="42.20565612620799" lon="14.202864674734657"><ele>417.0</ele><time>2026-05-01T09:54:42Z</time></trkpt><trkpt lat="42.20554024602741" lon="14.202784755663576"><ele>417.0</ele><time>2026-05-01T09:54:43Z</time></trkpt><trkpt lat="42.20540964433503" lon="14.202697210072522"><ele>417.0</ele><time>2026-05-01T09:54:44Z</time></trkpt><trkpt lat="42.205266751711115" lon="14.202605110515336"><ele>417.0</ele><time>2026-05-01T09:54:45Z</time></trkpt><trkpt lat="42.20512627170961" lon="14.2025139211421"><ele>417.0</ele><time>2026-05-01T09:54:46Z</time></trkpt><trkpt lat="42.205000010863" lon="14.20243444437236"><ele>417.0</ele><time>2026-05-01T09:54:47Z</time></trkpt><trkpt lat="42.204878103790655" lon="14.202363301886695"><ele>417.0</ele><time>2026-05-01T09:54:48Z</time></trkpt><trkpt lat="42.20476651091496" lon="14.202299376023898"><ele>417.0</ele><time>2026-05-01T09:54:49Z</time></trkpt><trkpt lat="42.20466292217681" lon="14.202241786245862"><ele>419.40000000000003</ele><time>2026-05-01T09:54:50Z</time></trkpt><trkpt lat="42.20457209783199" lon="14.202191845491704"><ele>421.8</ele><time>2026-05-01T09:54:51Z</time></trkpt><trkpt lat="42.20447458836474" lon="14.202138997838512"><ele>424.2</ele><time>2026-05-01T09:54:52Z</time></trkpt><trkpt lat="42.20438589476751" lon="14.202091946985954"><ele>426.6</ele><time>2026-05-01T09:54:53Z</time></trkpt><trkpt lat="42.20430445437882" lon="14.202050445281003"><ele>429.0</ele><time>2026-05-01T09:54:54Z</time></trkpt><trkpt lat="42.20421004923598" lon="14.202002336763274"><ele>429.0</ele><time>2026-05-01T09:54:54.999Z</time></trkpt><trkpt lat="42.20411778248252" lon="14.201955915847044"><ele>429.0</ele><time>2026-05-01T09:54:55.999Z</time></trkpt><trkpt lat="42.20402805395199" lon="14.201912391899482"><ele>429.0</ele><time>2026-05-01T09:54:56.999Z</time></trkpt><trkpt lat="42.203947001433264" lon="14.201874504015223"><ele>429.0</ele><time>2026-05-01T09:54:57.999Z</time></trkpt><trkpt lat="42.203840228923475" lon="14.20182500397227"><ele>429.0</ele><time>2026-05-01T09:54:58.999Z</time></trkpt><trkpt lat="42.20374244829814" lon="14.201782542055518"><ele>427.79999999999995</ele><time>2026-05-01T09:54:59.999Z</time></trkpt><trkpt lat="42.20364372425134" lon="14.201741158653249"><ele>426.59999999999997</ele><time>2026-05-01T09:55:00.999Z</time></trkpt><trkpt lat="42.20354287785249" lon="14.201700263731457"><ele>425.4</ele><time>2026-05-01T09:55:01.999Z</time></trkpt><trkpt lat="42.20344807038461" lon="14.201663390639233"><ele>424.2</ele><time>2026-05-01T09:55:02.999Z</time></trkpt><trkpt lat="42.20335388449569" lon="14.201626759326205"><ele>423.0</ele><time>2026-05-01T09:55:03.999Z</time></trkpt><trkpt lat="42.20327031125605" lon="14.201572506368338"><ele>423.0</ele><time>2026-05-01T09:55:04.999Z</time></trkpt><trkpt lat="42.20317620130493" lon="14.201567684218224"><ele>423.0</ele><time>2026-05-01T09:55:05.999Z</time></trkpt><trkpt lat="42.20309521967236" lon="14.201534336753188"><ele>423.0</ele><time>2026-05-01T09:55:06.999Z</time></trkpt><trkpt lat="42.202999135490224" lon="14.201494559933813"><ele>423.0</ele><time>2026-05-01T09:55:07.999Z</time></trkpt><trkpt lat="42.20291317599216" lon="14.201466684074601"><ele>423.0</ele><time>2026-05-01T09:55:08.999Z</time></trkpt><trkpt lat="42.20282823072651" lon="14.20144008979312"><ele>423.5</ele><time>2026-05-01T09:55:09.999Z</time></trkpt><trkpt lat="42.202756160582865" lon="14.201418758099368"><ele>424.0</ele><time>2026-05-01T09:55:10.999Z</time></trkpt><trkpt lat="42.20268257258321" lon="14.201397749830376"><ele>424.5</ele><time>2026-05-01T09:55:11.999Z</time></trkpt><trkpt lat="42.20260709145055" lon="14.20137620120848"><ele>425.0</ele><time>2026-05-01T09:55:12.999Z</time></trkpt><trkpt lat="42.20251202248573" lon="14.201349060568111"><ele>425.5</ele><time>2026-05-01T09:55:13.999Z</time></trkpt><trkpt lat="42.202434686027615" lon="14.201330043485715"><ele>426.0</ele><time>2026-05-01T09:55:14.999Z</time></trkpt><trkpt lat="42.20235769620388" lon="14.201312152837243"><ele>427.0</ele><time>2026-05-01T09:55:15.999Z</time></trkpt><trkpt lat="42.202288725197036" lon="14.201295914956717"><ele>428.0</ele><time>2026-05-01T09:55:16.999Z</time></trkpt><trkpt lat="42.202182473068035" lon="14.201270899999901"><ele>429.0</ele><time>2026-05-01T09:55:18.999Z</time></trkpt><trkpt lat="42.20211138699006" lon="14.201254164198536"><ele>430.0</ele><time>2026-05-01T09:55:21.999Z</time></trkpt><trkpt lat="42.20204765584446" lon="14.201239382780772"><ele>431.0</ele><time>2026-05-01T09:55:25.999Z</time></trkpt><trkpt lat="42.20205262745221" lon="14.201030754614061"><ele>431.0</ele><time>2026-05-01T09:59:12.999Z</time></trkpt><trkpt lat="42.202121345290315" lon="14.201095954042575"><ele>431.0</ele><time>2026-05-01T10:02:29Z</time></trkpt><trkpt lat="42.20216712044774" lon="14.201183104521734"><ele>431.0</ele><time>2026-05-01T10:10:30.998Z</time></trkpt><trkpt lat="42.202113198182346" lon="14.201229949755602"><ele>431.0</ele><time>2026-05-01T10:10:34.998Z</time></trkpt></trkseg></trk></gpx>